<?xml version='1.0' encoding='UTF-8'?><gpx version="1.1" creator="JPX - https://github.com/jenetics/jpx" xmlns="http://www.topografix.com/GPX/1/1"><trk><trkseg><trkpt lat="38.57013830609011" lon="16.32577777175261"><ele>810.0</ele><time>2026-04-28T06:19:17.998Z</time></trkpt><trkpt lat="38.570195228434315" lon="16.325731543269196"><ele>810.0</ele><time>2026-04-28T06:19:19.999Z</time></trkpt><trkpt lat="38.570201967778765" lon="16.3256062104689"><ele>810.0</ele><time>2026-04-28T06:19:20.999Z</time></trkpt><trkpt lat="38.570203416161135" lon="16.325491535270526"><ele>810.0</ele><time>2026-04-28T06:19:22.999Z</time></trkpt><trkpt lat="38.57029045551886" lon="16.325441660325932"><ele>810.0</ele><time>2026-04-28T06:19:24.999Z</time></trkpt><trkpt lat="38.57039850825799" lon="16.325421935920588"><ele>811.0</ele><time>2026-04-28T06:19:25.999Z</time></trkpt><trkpt lat="38.57052797813949" lon="16.325430674220012"><ele>812.0</ele><time>2026-04-28T06:19:26.999Z</time></trkpt><trkpt lat="38.57067547745215" lon="16.32542173373786"><ele>813.0</ele><time>2026-04-28T06:19:27.999Z</time></trkpt><trkpt lat="38.57084036145688" lon="16.32540341923603"><ele>814.0</ele><time>2026-04-28T06:19:28.999Z</time></trkpt><trkpt lat="38.57098881924958" lon="16.32538855812276"><ele>814.0</ele><time>2026-04-28T06:19:29.999Z</time></trkpt><trkpt lat="38.571114874803754" lon="16.325379524623127"><ele>814.0</ele><time>2026-04-28T06:19:30.999Z</time></trkpt><trkpt lat="38.57124722632322" lon="16.32537096733773"><ele>814.0</ele><time>2026-04-28T06:19:31.999Z</time></trkpt><trkpt lat="38.5713903600425" lon="16.32536528819633"><ele>814.0</ele><time>2026-04-28T06:19:32.999Z</time></trkpt><trkpt lat="38.571530295388264" lon="16.325381744068007"><ele>813.25</ele><time>2026-04-28T06:19:33.999Z</time></trkpt><trkpt lat="38.571651521917126" lon="16.32542887954846"><ele>812.5</ele><time>2026-04-28T06:19:34.999Z</time></trkpt><trkpt lat="38.571755655797745" lon="16.325489070235033"><ele>811.75</ele><time>2026-04-28T06:19:35.999Z</time></trkpt><trkpt lat="38.57185606702765" lon="16.325583328310586"><ele>811.0</ele><time>2026-04-28T06:19:36.999Z</time></trkpt><trkpt lat="38.57196602755664" lon="16.32570210085427"><ele>810.75</ele><time>2026-04-28T06:19:37.999Z</time></trkpt><trkpt lat="38.5720848785277" lon="16.325820928234805"><ele>810.5</ele><time>2026-04-28T06:19:38.999Z</time></trkpt><trkpt lat="38.57219577953449" lon="16.325924701592374"><ele>810.25</ele><time>2026-04-28T06:19:39.999Z</time></trkpt><trkpt lat="38.572297506363505" lon="16.326019227644323"><ele>810.0</ele><time>2026-04-28T06:19:40.999Z</time></trkpt><trkpt lat="38.572392624163854" lon="16.32611053994788"><ele>810.0</ele><time>2026-04-28T06:19:41.999Z</time></trkpt><trkpt lat="38.57248752899134" lon="16.326199514124934"><ele>810.0</ele><time>2026-04-28T06:19:42.999Z</time></trkpt><trkpt lat="38.57257181099461" lon="16.32627652941956"><ele>810.0</ele><time>2026-04-28T06:19:43.999Z</time></trkpt><trkpt lat="38.572626527936244" lon="16.3263346327825"><ele>810.0</ele><time>2026-04-28T06:19:44.999Z</time></trkpt><trkpt lat="38.572684823292576" lon="16.326405693997856"><ele>810.0</ele><time>2026-04-28T06:19:46.999Z</time></trkpt><trkpt lat="38.57277263481337" lon="16.326440446306943"><ele>810.0</ele><time>2026-04-28T06:19:51.999Z</time></trkpt><trkpt lat="38.57282845419799" lon="16.326386912331778"><ele>810.0</ele><time>2026-04-28T06:19:52.999Z</time></trkpt><trkpt lat="38.57288077883856" lon="16.326271959732843"><ele>810.0</ele><time>2026-04-28T06:19:53.999Z</time></trkpt><trkpt lat="38.572939324257625" lon="16.326120439625075"><ele>810.0</ele><time>2026-04-28T06:19:54.999Z</time></trkpt><trkpt lat="38.573018808444914" lon="16.325944565676462"><ele>809.3333333333333</ele><time>2026-04-28T06:19:55.999Z</time></trkpt><trkpt lat="38.573115498352934" lon="16.325752116718046"><ele>808.6666666666666</ele><time>2026-04-28T06:19:56.999Z</time></trkpt><trkpt lat="38.5731989081401" lon="16.325561967420924"><ele>808.0</ele><time>2026-04-28T06:19:57.999Z</time></trkpt><trkpt lat="38.57327823832668" lon="16.325380843183645"><ele>808.0</ele><time>2026-04-28T06:19:58.999Z</time></trkpt><trkpt lat="38.57336235019971" lon="16.3251958335766"><ele>808.0</ele><time>2026-04-28T06:19:59.999Z</time></trkpt><trkpt lat="38.57344389788842" lon="16.325005949960147"><ele>808.0</ele><time>2026-04-28T06:20:00.999Z</time></trkpt><trkpt lat="38.57350486894484" lon="16.32484594281759"><ele>807.75</ele><time>2026-04-28T06:20:01.999Z</time></trkpt><trkpt lat="38.57356537269119" lon="16.32468434903012"><ele>807.5</ele><time>2026-04-28T06:20:02.999Z</time></trkpt><trkpt lat="38.57363216381851" lon="16.324526009053248"><ele>807.25</ele><time>2026-04-28T06:20:03.999Z</time></trkpt><trkpt lat="38.57371780017559" lon="16.32435213884794"><ele>807.0</ele><time>2026-04-28T06:20:04.999Z</time></trkpt><trkpt lat="38.57381751495602" lon="16.32415521484369"><ele>806.6666666666667</ele><time>2026-04-28T06:20:05.999Z</time></trkpt><trkpt lat="38.57391575392152" lon="16.32393872477844"><ele>806.3333333333334</ele><time>2026-04-28T06:20:06.999Z</time></trkpt><trkpt lat="38.57401836267718" lon="16.323705649902134"><ele>806.0</ele><time>2026-04-28T06:20:07.999Z</time></trkpt><trkpt lat="38.574138972437964" lon="16.323452771352848"><ele>806.6666666666667</ele><time>2026-04-28T06:20:08.999Z</time></trkpt><trkpt lat="38.57425178130238" lon="16.323223792743256"><ele>807.3333333333333</ele><time>2026-04-28T06:20:09.999Z</time></trkpt><trkpt lat="38.57434322010889" lon="16.323022639905002"><ele>808.0</ele><time>2026-04-28T06:20:10.999Z</time></trkpt><trkpt lat="38.57442087405823" lon="16.322854334397533"><ele>808.0</ele><time>2026-04-28T06:20:11.999Z</time></trkpt><trkpt lat="38.57448017506699" lon="16.32268152090779"><ele>808.0</ele><time>2026-04-28T06:20:12.999Z</time></trkpt><trkpt lat="38.57454496427921" lon="16.322544806958394"><ele>808.0</ele><time>2026-04-28T06:20:13.999Z</time></trkpt><trkpt lat="38.57459768625941" lon="16.322454719723662"><ele>808.0</ele><time>2026-04-28T06:20:14.999Z</time></trkpt><trkpt lat="38.5746576348272" lon="16.32238372258525"><ele>808.0</ele><time>2026-04-28T06:20:15.999Z</time></trkpt><trkpt lat="38.57475550442271" lon="16.322318047783288"><ele>808.25</ele><time>2026-04-28T06:20:16.999Z</time></trkpt><trkpt lat="38.57487587823117" lon="16.322253471460318"><ele>808.5</ele><time>2026-04-28T06:20:17.999Z</time></trkpt><trkpt lat="38.57501420572692" lon="16.322197106385957"><ele>808.75</ele><time>2026-04-28T06:20:18.999Z</time></trkpt><trkpt lat="38.57512870078141" lon="16.322158171900906"><ele>809.0</ele><time>2026-04-28T06:20:19.999Z</time></trkpt><trkpt lat="38.57521067949342" lon="16.322123203798636"><ele>809.0</ele><time>2026-04-28T06:20:20.999Z</time></trkpt><trkpt lat="38.575271349167124" lon="16.322084061288937"><ele>809.0</ele><time>2026-04-28T06:20:21.999Z</time></trkpt><trkpt lat="38.57533431126444" lon="16.322149358336496"><ele>809.0</ele><time>2026-04-28T06:20:23.999Z</time></trkpt><trkpt lat="38.575406697976526" lon="16.32230525521267"><ele>809.0</ele><time>2026-04-28T06:20:25.999Z</time></trkpt><trkpt lat="38.57545269287018" lon="16.322475607045458"><ele>809.0</ele><time>2026-04-28T06:20:26.999Z</time></trkpt><trkpt lat="38.57550689186652" lon="16.322648719079687"><ele>809.0</ele><time>2026-04-28T06:20:27.999Z</time></trkpt><trkpt lat="38.57555205438646" lon="16.322810237351256"><ele>809.0</ele><time>2026-04-28T06:20:28.999Z</time></trkpt><trkpt lat="38.57561039438192" lon="16.322991774890518"><ele>809.0</ele><time>2026-04-28T06:20:29.999Z</time></trkpt><trkpt lat="38.57566186485883" lon="16.3231522573586"><ele>809.0</ele><time>2026-04-28T06:20:30.999Z</time></trkpt><trkpt lat="38.575726076093" lon="16.323296981507326"><ele>807.6666666666667</ele><time>2026-04-28T06:20:31.999Z</time></trkpt><trkpt lat="38.575791887148995" lon="16.323505734752132"><ele>806.3333333333333</ele><time>2026-04-28T06:20:32.999Z</time></trkpt><trkpt lat="38.575857282824614" lon="16.323739833757823"><ele>805.0</ele><time>2026-04-28T06:20:33.999Z</time></trkpt><trkpt lat="38.57592225033861" lon="16.323948714472188"><ele>804.8</ele><time>2026-04-28T06:20:34.999Z</time></trkpt><trkpt lat="38.57597808441054" lon="16.324102154486557"><ele>804.6</ele><time>2026-04-28T06:20:35.999Z</time></trkpt><trkpt lat="38.57601971824293" lon="16.32422894565781"><ele>804.4000000000001</ele><time>2026-04-28T06:20:36.999Z</time></trkpt><trkpt lat="38.57604944448182" lon="16.32433279733469"><ele>804.2</ele><time>2026-04-28T06:20:37.999Z</time></trkpt><trkpt lat="38.57606905379382" lon="16.324429288916182"><ele>804.0</ele><time>2026-04-28T06:20:38.999Z</time></trkpt><trkpt lat="38.57606759456267" lon="16.324513762888532"><ele>804.0</ele><time>2026-04-28T06:20:39.999Z</time></trkpt><trkpt lat="38.57606975708434" lon="16.32461795050928"><ele>804.0</ele><time>2026-04-28T06:20:41.999Z</time></trkpt><trkpt lat="38.57607295781996" lon="16.32470811878726"><ele>804.0</ele><time>2026-04-28T06:20:43.999Z</time></trkpt><trkpt lat="38.57608594591463" lon="16.324800419541447"><ele>804.0</ele><time>2026-04-28T06:20:46.999Z</time></trkpt><trkpt lat="38.57605627734797" lon="16.3248943554018"><ele>804.0</ele><time>2026-04-28T06:21:35Z</time></trkpt><trkpt lat="38.57599510279476" lon="16.324843078098098"><ele>804.0</ele><time>2026-04-28T06:25:04.999Z</time></trkpt><trkpt lat="38.57600140730334" lon="16.324760831657333"><ele>804.0</ele><time>2026-04-28T06:25:10.999Z</time></trkpt><trkpt lat="38.57598156089198" lon="16.324649887215084"><ele>804.0</ele><time>2026-04-28T06:25:54Z</time></trkpt><trkpt lat="38.57600321524536" lon="16.324572504307888"><ele>804.0</ele><time>2026-04-28T06:25:56Z</time></trkpt><trkpt lat="38.576071234910664" lon="16.324554509896384"><ele>804.0</ele><time>2026-04-28T06:26:00Z</time></trkpt><trkpt lat="38.57613270992623" lon="16.32466338950725"><ele>804.0</ele><time>2026-04-28T06:26:03Z</time></trkpt><trkpt lat="38.57617010735531" lon="16.32478322797006"><ele>804.0</ele><time>2026-04-28T06:26:05Z</time></trkpt><trkpt lat="38.576212291146504" lon="16.324902559417577"><ele>804.0</ele><time>2026-04-28T06:26:06.999Z</time></trkpt><trkpt lat="38.57623971459962" lon="16.32498599201673"><ele>803.8000000000001</ele><time>2026-04-28T06:26:07.999Z</time></trkpt><trkpt lat="38.576275767263844" lon="16.32507953265859"><ele>803.6</ele><time>2026-04-28T06:26:08.999Z</time></trkpt><trkpt lat="38.57631123389991" lon="16.325185793669483"><ele>803.4</ele><time>2026-04-28T06:26:09.999Z</time></trkpt><trkpt lat="38.57634269344126" lon="16.325292758906052"><ele>803.2</ele><time>2026-04-28T06:26:10.999Z</time></trkpt><trkpt lat="38.576377224028725" lon="16.325400790439367"><ele>803.0</ele><time>2026-04-28T06:26:11.999Z</time></trkpt><trkpt lat="38.57641593676076" lon="16.32551890895737"><ele>803.2</ele><time>2026-04-28T06:26:12.999Z</time></trkpt><trkpt lat="38.576454692069795" lon="16.32565059018574"><ele>803.4</ele><time>2026-04-28T06:26:13.999Z</time></trkpt><trkpt lat="38.57649151731103" lon="16.325770112537604"><ele>803.6</ele><time>2026-04-28T06:26:14.999Z</time></trkpt><trkpt lat="38.57651877918444" lon="16.32588235545774"><ele>803.8000000000001</ele><time>2026-04-28T06:26:15.999Z</time></trkpt><trkpt lat="38.576570259310216" lon="16.326023139487642"><ele>804.0</ele><time>2026-04-28T06:26:16.999Z</time></trkpt><trkpt lat="38.576617821028535" lon="16.3261739976667"><ele>804.0</ele><time>2026-04-28T06:26:17.999Z</time></trkpt><trkpt lat="38.57665791968704" lon="16.326294745739904"><ele>804.0</ele><time>2026-04-28T06:26:18.999Z</time></trkpt><trkpt lat="38.57669023777242" lon="16.326389117578966"><ele>804.0</ele><time>2026-04-28T06:26:19.999Z</time></trkpt><trkpt lat="38.57672255550393" lon="16.326478667948084"><ele>804.0</ele><time>2026-04-28T06:26:20.999Z</time></trkpt><trkpt lat="38.57675425819033" lon="16.326568109655454"><ele>804.0</ele><time>2026-04-28T06:26:21.999Z</time></trkpt><trkpt lat="38.576786874563254" lon="16.32666924124257"><ele>804.0</ele><time>2026-04-28T06:26:22.999Z</time></trkpt><trkpt lat="38.57682441958148" lon="16.32678333831661"><ele>803.4000000000001</ele><time>2026-04-28T06:26:23.999Z</time></trkpt><trkpt lat="38.576866603610306" lon="16.326912105638193"><ele>802.8</ele><time>2026-04-28T06:26:24.999Z</time></trkpt><trkpt lat="38.576906050239174" lon="16.327029835532304"><ele>802.2</ele><time>2026-04-28T06:26:25.999Z</time></trkpt><trkpt lat="38.57694239843496" lon="16.327135535456843"><ele>801.5999999999999</ele><time>2026-04-28T06:26:26.999Z</time></trkpt><trkpt lat="38.57697541357505" lon="16.327240956591893"><ele>801.0</ele><time>2026-04-28T06:26:27.999Z</time></trkpt><trkpt lat="38.577004370700124" lon="16.327348545527528"><ele>801.0</ele><time>2026-04-28T06:26:28.999Z</time></trkpt><trkpt lat="38.57703202689633" lon="16.327460551267663"><ele>801.0</ele><time>2026-04-28T06:26:29.999Z</time></trkpt><trkpt lat="38.577052108650584" lon="16.327570240034415"><ele>801.0</ele><time>2026-04-28T06:26:30.999Z</time></trkpt><trkpt lat="38.57706495600068" lon="16.32769083625747"><ele>801.0</ele><time>2026-04-28T06:26:31.999Z</time></trkpt><trkpt lat="38.577072040442424" lon="16.327821338255188"><ele>801.0</ele><time>2026-04-28T06:26:32.999Z</time></trkpt><trkpt lat="38.5770742593813" lon="16.327954406812193"><ele>801.1666666666666</ele><time>2026-04-28T06:26:33.999Z</time></trkpt><trkpt lat="38.57707460733237" lon="16.328083914686367"><ele>801.3333333333333</ele><time>2026-04-28T06:26:34.999Z</time></trkpt><trkpt lat="38.577076500213906" lon="16.32821093688437"><ele>801.5</ele><time>2026-04-28T06:26:35.999Z</time></trkpt><trkpt lat="38.57708052071464" lon="16.32832531387319"><ele>801.6666666666666</ele><time>2026-04-28T06:26:36.999Z</time></trkpt><trkpt lat="38.57708700560701" lon="16.32842726784736"><ele>801.8333333333333</ele><time>2026-04-28T06:26:37.999Z</time></trkpt><trkpt lat="38.5770903081026" lon="16.328525326500554"><ele>802.0</ele><time>2026-04-28T06:26:38.999Z</time></trkpt><trkpt lat="38.57709459848577" lon="16.3286265107085"><ele>801.9999999999999</ele><time>2026-04-28T06:26:39.999Z</time></trkpt><trkpt lat="38.57709767953035" lon="16.32872060688139"><ele>802.0</ele><time>2026-04-28T06:26:40.999Z</time></trkpt><trkpt lat="38.57709998655603" lon="16.32888665016872"><ele>802.0</ele><time>2026-04-28T06:26:42.999Z</time></trkpt><trkpt lat="38.57709852898692" lon="16.328982643944528"><ele>802.0</ele><time>2026-04-28T06:26:43.999Z</time></trkpt><trkpt lat="38.577095417961104" lon="16.329083791687225"><ele>801.9999999999999</ele><time>2026-04-28T06:26:44.999Z</time></trkpt><trkpt lat="38.577094062587754" lon="16.3291944057221"><ele>802.0</ele><time>2026-04-28T06:26:45.999Z</time></trkpt><trkpt lat="38.57709262328518" lon="16.329308640376258"><ele>801.9999999999999</ele><time>2026-04-28T06:26:46.999Z</time></trkpt><trkpt lat="38.57709302299039" lon="16.329422068439392"><ele>802.0</ele><time>2026-04-28T06:26:47.999Z</time></trkpt><trkpt lat="38.577092771607866" lon="16.32953017445407"><ele>802.0</ele><time>2026-04-28T06:26:48.999Z</time></trkpt><trkpt lat="38.577092487760694" lon="16.329630362451965"><ele>802.0</ele><time>2026-04-28T06:26:49.999Z</time></trkpt><trkpt lat="38.57709157021034" lon="16.329726802509114"><ele>801.9999999999999</ele><time>2026-04-28T06:26:50.999Z</time></trkpt><trkpt lat="38.57709312426422" lon="16.329813689401835"><ele>802.0</ele><time>2026-04-28T06:26:51.999Z</time></trkpt><trkpt lat="38.57710005561477" lon="16.32996656955531"><ele>801.8333333333333</ele><time>2026-04-28T06:26:53.999Z</time></trkpt><trkpt lat="38.57710384524714" lon="16.330072493516013"><ele>801.6666666666666</ele><time>2026-04-28T06:26:55.999Z</time></trkpt><trkpt lat="38.57709228379231" lon="16.330162798952966"><ele>801.5</ele><time>2026-04-28T06:27:00.999Z</time></trkpt><trkpt lat="38.57706605046219" lon="16.33023888735334"><ele>801.3333333333333</ele><time>2026-04-28T06:27:03.999Z</time></trkpt><trkpt lat="38.57703293296809" lon="16.330311161410627"><ele>801.1666666666666</ele><time>2026-04-28T06:27:06.999Z</time></trkpt><trkpt lat="38.57702284149265" lon="16.330391497908906"><ele>801.0</ele><time>2026-04-28T06:27:08.999Z</time></trkpt><trkpt lat="38.57712029327731" lon="16.33044143609217"><ele>801.0</ele><time>2026-04-28T06:27:09.999Z</time></trkpt><trkpt lat="38.577176409221515" lon="16.330593340751484"><ele>801.0</ele><time>2026-04-28T06:27:11.999Z</time></trkpt><trkpt lat="38.57720827151783" lon="16.33069421963185"><ele>801.0</ele><time>2026-04-28T06:27:12.999Z</time></trkpt><trkpt lat="38.57725725479011" lon="16.330797798754578"><ele>801.0</ele><time>2026-04-28T06:27:13.999Z</time></trkpt><trkpt lat="38.57731094921715" lon="16.330920386642642"><ele>801.0</ele><time>2026-04-28T06:27:14.999Z</time></trkpt><trkpt lat="38.577365126660744" lon="16.33103109755635"><ele>801.0</ele><time>2026-04-28T06:27:15.999Z</time></trkpt><trkpt lat="38.577411223070726" lon="16.331130498682533"><ele>801.0</ele><time>2026-04-28T06:27:16.999Z</time></trkpt><trkpt lat="38.57744710451123" lon="16.331210514365328"><ele>801.0</ele><time>2026-04-28T06:27:17.999Z</time></trkpt><trkpt lat="38.57748594222471" lon="16.331290427112005"><ele>801.0</ele><time>2026-04-28T06:27:18.999Z</time></trkpt><trkpt lat="38.5775186234178" lon="16.33136853928376"><ele>801.0</ele><time>2026-04-28T06:27:19.999Z</time></trkpt><trkpt lat="38.577562192616526" lon="16.33146566245159"><ele>801.0</ele><time>2026-04-28T06:27:20.999Z</time></trkpt><trkpt lat="38.57761034944843" lon="16.331570977300622"><ele>800.5</ele><time>2026-04-28T06:27:21.999Z</time></trkpt><trkpt lat="38.577665176580176" lon="16.331688505957306"><ele>800.0</ele><time>2026-04-28T06:27:22.999Z</time></trkpt><trkpt lat="38.57772211747409" lon="16.33180691142402"><ele>799.5</ele><time>2026-04-28T06:27:23.999Z</time></trkpt><trkpt lat="38.57778265986892" lon="16.33194213896734"><ele>799.0</ele><time>2026-04-28T06:27:24.999Z</time></trkpt><trkpt lat="38.57784411942531" lon="16.332078320463346"><ele>799.0</ele><time>2026-04-28T06:27:25.999Z</time></trkpt><trkpt lat="38.57789835850332" lon="16.332191031392945"><ele>799.0</ele><time>2026-04-28T06:27:26.999Z</time></trkpt><trkpt lat="38.577948484398256" lon="16.332289297964106"><ele>799.0</ele><time>2026-04-28T06:27:27.999Z</time></trkpt><trkpt lat="38.577994300866024" lon="16.33236532224232"><ele>799.0</ele><time>2026-04-28T06:27:28.999Z</time></trkpt><trkpt lat="38.57806481764347" lon="16.332482538570964"><ele>799.0</ele><time>2026-04-28T06:27:30.998Z</time></trkpt><trkpt lat="38.578026782805544" lon="16.33257670728232"><ele>798.6</ele><time>2026-04-28T06:27:32.998Z</time></trkpt><trkpt lat="38.577974441350406" lon="16.33263843854121"><ele>798.2</ele><time>2026-04-28T06:27:33.998Z</time></trkpt><trkpt lat="38.57793051600119" lon="16.332700036047093"><ele>797.8000000000001</ele><time>2026-04-28T06:27:34.998Z</time></trkpt><trkpt lat="38.577846757109285" lon="16.332798070529755"><ele>797.4000000000001</ele><time>2026-04-28T06:27:36.998Z</time></trkpt><trkpt lat="38.577679010240224" lon="16.332702639447604"><ele>797.0</ele><time>2026-04-28T06:27:38.998Z</time></trkpt><trkpt lat="38.57755568318313" lon="16.33266070980686"><ele>798.0</ele><time>2026-04-28T06:27:39.998Z</time></trkpt><trkpt lat="38.5774255431275" lon="16.332626277696104"><ele>799.0</ele><time>2026-04-28T06:27:40.998Z</time></trkpt><trkpt lat="38.57728428366616" lon="16.33256682540902"><ele>800.0</ele><time>2026-04-28T06:27:42Z</time></trkpt><trkpt lat="38.57715119385761" lon="16.332520172686195"><ele>801.0</ele><time>2026-04-28T06:27:43Z</time></trkpt><trkpt lat="38.57701745388588" lon="16.33247792845324"><ele>801.0</ele><time>2026-04-28T06:27:44Z</time></trkpt><trkpt lat="38.576879681635184" lon="16.332435106130024"><ele>801.0</ele><time>2026-04-28T06:27:45Z</time></trkpt><trkpt lat="38.57673914336399" lon="16.332388031968787"><ele>801.0</ele><time>2026-04-28T06:27:46Z</time></trkpt><trkpt lat="38.57660312857956" lon="16.332342595718814"><ele>801.0</ele><time>2026-04-28T06:27:47Z</time></trkpt><trkpt lat="38.57647493215873" lon="16.33229844419753"><ele>801.0</ele><time>2026-04-28T06:27:48Z</time></trkpt><trkpt lat="38.576359546370846" lon="16.332259136418205"><ele>801.0</ele><time>2026-04-28T06:27:49Z</time></trkpt><trkpt lat="38.576255401297345" lon="16.332222569397747"><ele>801.0</ele><time>2026-04-28T06:27:50Z</time></trkpt><trkpt lat="38.57616846755699" lon="16.332187005677497"><ele>801.0</ele><time>2026-04-28T06:27:51Z</time></trkpt><trkpt lat="38.57609116553922" lon="16.332149690965522"><ele>801.0</ele><time>2026-04-28T06:27:52Z</time></trkpt><trkpt lat="38.57603121159495" lon="16.3321157119831"><ele>801.1999999999999</ele><time>2026-04-28T06:27:53Z</time></trkpt><trkpt lat="38.57601022334779" lon="16.332019015585495"><ele>801.4</ele><time>2026-04-28T06:27:56Z</time></trkpt><trkpt lat="38.57618949688059" lon="16.331995813794556"><ele>801.6</ele><time>2026-04-28T06:27:59.001Z</time></trkpt><trkpt lat="38.5762102521326" lon="16.331905420832484"><ele>801.8</ele><time>2026-04-28T06:28:00.001Z</time></trkpt><trkpt lat="38.57625456184436" lon="16.331788181864273"><ele>802.0</ele><time>2026-04-28T06:28:01.001Z</time></trkpt><trkpt lat="38.57628379475663" lon="16.331684822455955"><ele>801.9999999999999</ele><time>2026-04-28T06:28:02.001Z</time></trkpt><trkpt lat="38.57631593509474" lon="16.331590594730205"><ele>802.0</ele><time>2026-04-28T06:28:04.001Z</time></trkpt><trkpt lat="38.576339903758246" lon="16.331504702666695"><ele>802.0</ele><time>2026-04-28T06:28:19Z</time></trkpt><trkpt lat="38.576287413502385" lon="16.331452791588056"><ele>802.0</ele><time>2026-04-28T06:28:21Z</time></trkpt><trkpt lat="38.57618336331672" lon="16.331427728975658"><ele>801.9999999999999</ele><time>2026-04-28T06:28:22Z</time></trkpt><trkpt lat="38.576071362438974" lon="16.33139086433516"><ele>802.0</ele><time>2026-04-28T06:28:23Z</time></trkpt><trkpt lat="38.57594810427491" lon="16.331333355757845"><ele>801.75</ele><time>2026-04-28T06:28:24Z</time></trkpt><trkpt lat="38.57582548453216" lon="16.331268103444188"><ele>801.5</ele><time>2026-04-28T06:28:25Z</time></trkpt><trkpt lat="38.57570525028574" lon="16.331205468865104"><ele>801.25</ele><time>2026-04-28T06:28:26Z</time></trkpt><trkpt lat="38.575593451103074" lon="16.331149120937088"><ele>801.0</ele><time>2026-04-28T06:28:27Z</time></trkpt><trkpt lat="38.57549097412533" lon="16.331093958725475"><ele>801.0</ele><time>2026-04-28T06:28:28Z</time></trkpt><trkpt lat="38.575394499180724" lon="16.33103566715014"><ele>801.0</ele><time>2026-04-28T06:28:29Z</time></trkpt><trkpt lat="38.57528582159089" lon="16.330979672999977"><ele>801.0</ele><time>2026-04-28T06:28:30Z</time></trkpt><trkpt lat="38.57517081272658" lon="16.33092041681562"><ele>801.0</ele><time>2026-04-28T06:28:31Z</time></trkpt><trkpt lat="38.5750569142422" lon="16.3308530731531"><ele>801.25</ele><time>2026-04-28T06:28:32Z</time></trkpt><trkpt lat="38.57494164331259" lon="16.330780445803548"><ele>801.5</ele><time>2026-04-28T06:28:33Z</time></trkpt><trkpt lat="38.57482321898827" lon="16.33069977443933"><ele>801.75</ele><time>2026-04-28T06:28:34Z</time></trkpt><trkpt lat="38.5747013664157" lon="16.330615486329727"><ele>802.0</ele><time>2026-04-28T06:28:35Z</time></trkpt><trkpt lat="38.57457885949793" lon="16.330529806292358"><ele>802.5</ele><time>2026-04-28T06:28:36Z</time></trkpt><trkpt lat="38.57445014375955" lon="16.330461536411843"><ele>803.0</ele><time>2026-04-28T06:28:37Z</time></trkpt><trkpt lat="38.57433826840532" lon="16.330378412289107"><ele>803.5</ele><time>2026-04-28T06:28:38Z</time></trkpt><trkpt lat="38.574240000664474" lon="16.33030622952521"><ele>804.0</ele><time>2026-04-28T06:28:39Z</time></trkpt><trkpt lat="38.57416020790754" lon="16.330251829059964"><ele>804.0</ele><time>2026-04-28T06:28:40Z</time></trkpt><trkpt lat="38.574106083698666" lon="16.33018998429222"><ele>804.0</ele><time>2026-04-28T06:28:41Z</time></trkpt><trkpt lat="38.57403015010744" lon="16.330134574916325"><ele>804.0</ele><time>2026-04-28T06:28:43Z</time></trkpt><trkpt lat="38.57392450294503" lon="16.330268750676638"><ele>804.0</ele><time>2026-04-28T06:28:46Z</time></trkpt><trkpt lat="38.573886739368625" lon="16.330334052734173"><ele>804.0</ele><time>2026-04-28T06:28:47Z</time></trkpt><trkpt lat="38.5738500605783" lon="16.330419613544848"><ele>804.0</ele><time>2026-04-28T06:28:48Z</time></trkpt><trkpt lat="38.57381192314688" lon="16.330508640862792"><ele>803.8333333333334</ele><time>2026-04-28T06:28:49Z</time></trkpt><trkpt lat="38.57379122316506" lon="16.330600908747005"><ele>803.6666666666667</ele><time>2026-04-28T06:28:50Z</time></trkpt><trkpt lat="38.57375732658625" lon="16.330670960119125"><ele>803.5</ele><time>2026-04-28T06:28:51Z</time></trkpt><trkpt lat="38.57369128787803" lon="16.330765731281904"><ele>803.3333333333334</ele><time>2026-04-28T06:28:53Z</time></trkpt><trkpt lat="38.57365365526323" lon="16.330831971580988"><ele>803.1666666666667</ele><time>2026-04-28T06:28:55Z</time></trkpt><trkpt lat="38.57357388320325" lon="16.330781459710522"><ele>803.0</ele><time>2026-04-28T06:28:56Z</time></trkpt><trkpt lat="38.57350000310196" lon="16.33074216773631"><ele>803.0</ele><time>2026-04-28T06:28:57Z</time></trkpt><trkpt lat="38.573412177094966" lon="16.330707669290952"><ele>803.0</ele><time>2026-04-28T06:28:58Z</time></trkpt><trkpt lat="38.57332307274749" lon="16.330643298205995"><ele>803.0</ele><time>2026-04-28T06:28:59Z</time></trkpt><trkpt lat="38.5732274923995" lon="16.330590633440263"><ele>803.0</ele><time>2026-04-28T06:29:00Z</time></trkpt><trkpt lat="38.5731270117144" lon="16.330547232206055"><ele>803.0</ele><time>2026-04-28T06:29:01Z</time></trkpt><trkpt lat="38.573027354603376" lon="16.330506376171165"><ele>803.0</ele><time>2026-04-28T06:29:02Z</time></trkpt><trkpt lat="38.572922108631374" lon="16.33043482341125"><ele>803.0</ele><time>2026-04-28T06:29:03Z</time></trkpt><trkpt lat="38.572810965517064" lon="16.33037734790411"><ele>803.0</ele><time>2026-04-28T06:29:04Z</time></trkpt><trkpt lat="38.572703448073376" lon="16.33033781211088"><ele>803.0</ele><time>2026-04-28T06:29:05Z</time></trkpt><trkpt lat="38.572602459025546" lon="16.330272042431396"><ele>803.8</ele><time>2026-04-28T06:29:06Z</time></trkpt><trkpt lat="38.57249683860078" lon="16.330221201595684"><ele>804.5999999999999</ele><time>2026-04-28T06:29:07Z</time></trkpt><trkpt lat="38.57239906216461" lon="16.330177792783065"><ele>805.4000000000001</ele><time>2026-04-28T06:29:08Z</time></trkpt><trkpt lat="38.572305101796026" lon="16.330129571247177"><ele>806.2</ele><time>2026-04-28T06:29:09Z</time></trkpt><trkpt lat="38.57221635452878" lon="16.330079829532313"><ele>807.0</ele><time>2026-04-28T06:29:10Z</time></trkpt><trkpt lat="38.57212324572341" lon="16.330029468461895"><ele>807.0</ele><time>2026-04-28T06:29:11Z</time></trkpt><trkpt lat="38.57202631195284" lon="16.329976317470773"><ele>807.0</ele><time>2026-04-28T06:29:12Z</time></trkpt><trkpt lat="38.571926341273176" lon="16.329922071981645"><ele>807.0</ele><time>2026-04-28T06:29:13Z</time></trkpt><trkpt lat="38.57182179812893" lon="16.32986358911134"><ele>807.0</ele><time>2026-04-28T06:29:14Z</time></trkpt><trkpt lat="38.571717583077984" lon="16.32977356416025"><ele>806.3333333333333</ele><time>2026-04-28T06:29:15Z</time></trkpt><trkpt lat="38.571574206198704" lon="16.329702115267885"><ele>805.6666666666666</ele><time>2026-04-28T06:29:16Z</time></trkpt><trkpt lat="38.57141585134563" lon="16.329596257874776"><ele>805.0</ele><time>2026-04-28T06:29:17Z</time></trkpt><trkpt lat="38.57123712887896" lon="16.32947769687217"><ele>806.0</ele><time>2026-04-28T06:29:18Z</time></trkpt><trkpt lat="38.57103955583909" lon="16.329344039781564"><ele>807.0</ele><time>2026-04-28T06:29:19Z</time></trkpt><trkpt lat="38.570859532456076" lon="16.329226353648632"><ele>808.0</ele><time>2026-04-28T06:29:20Z</time></trkpt><trkpt lat="38.57069655913346" lon="16.3291161244132"><ele>808.0</ele><time>2026-04-28T06:29:21Z</time></trkpt><trkpt lat="38.57055487713716" lon="16.328997748246504"><ele>808.0</ele><time>2026-04-28T06:29:22Z</time></trkpt><trkpt lat="38.57042016099476" lon="16.328905225835634"><ele>808.0</ele><time>2026-04-28T06:29:23Z</time></trkpt><trkpt lat="38.57028539943341" lon="16.32881267229462"><ele>809.0</ele><time>2026-04-28T06:29:24Z</time></trkpt><trkpt lat="38.57012382974625" lon="16.328706289878035"><ele>810.0</ele><time>2026-04-28T06:29:25Z</time></trkpt><trkpt lat="38.56994084122223" lon="16.32858470952556"><ele>811.0</ele><time>2026-04-28T06:29:26Z</time></trkpt><trkpt lat="38.56977682687992" lon="16.328475735911613"><ele>811.0</ele><time>2026-04-28T06:29:27Z</time></trkpt><trkpt lat="38.56963347632938" lon="16.328380491628593"><ele>811.0</ele><time>2026-04-28T06:29:28Z</time></trkpt><trkpt lat="38.5695004008373" lon="16.328292074259174"><ele>811.0</ele><time>2026-04-28T06:29:29Z</time></trkpt><trkpt lat="38.569376103936044" lon="16.328209552818144"><ele>811.5</ele><time>2026-04-28T06:29:29.999Z</time></trkpt><trkpt lat="38.56926084894285" lon="16.32813271575275"><ele>812.0</ele><time>2026-04-28T06:29:30.999Z</time></trkpt><trkpt lat="38.569150306959465" lon="16.328058702374584"><ele>812.5</ele><time>2026-04-28T06:29:31.999Z</time></trkpt><trkpt lat="38.56904486697912" lon="16.327988340246968"><ele>813.0</ele><time>2026-04-28T06:29:32.999Z</time></trkpt><trkpt lat="38.56891680579444" lon="16.32790635052329"><ele>813.0</ele><time>2026-04-28T06:29:33.999Z</time></trkpt><trkpt lat="38.56876062240299" lon="16.327811564732944"><ele>813.0</ele><time>2026-04-28T06:29:34.999Z</time></trkpt><trkpt lat="38.56857012266415" lon="16.32775391005952"><ele>813.0</ele><time>2026-04-28T06:29:35.999Z</time></trkpt><trkpt lat="38.56838734228348" lon="16.32770981915637"><ele>814.0</ele><time>2026-04-28T06:29:36.999Z</time></trkpt><trkpt lat="38.568200455526544" lon="16.327678235639517"><ele>815.0</ele><time>2026-04-28T06:29:37.999Z</time></trkpt><trkpt lat="38.56801622883963" lon="16.327710490283085"><ele>816.0</ele><time>2026-04-28T06:29:38.999Z</time></trkpt><trkpt lat="38.567825651944986" lon="16.327757140072716"><ele>816.6666666666667</ele><time>2026-04-28T06:29:39.999Z</time></trkpt><trkpt lat="38.567638146537995" lon="16.32782841250655"><ele>817.3333333333334</ele><time>2026-04-28T06:29:40.999Z</time></trkpt><trkpt lat="38.567438897702345" lon="16.32789492675589"><ele>818.0</ele><time>2026-04-28T06:29:41.999Z</time></trkpt><trkpt lat="38.56724528747031" lon="16.32797689472022"><ele>818.0</ele><time>2026-04-28T06:29:42.999Z</time></trkpt><trkpt lat="38.56706163474474" lon="16.32805479257969"><ele>818.0</ele><time>2026-04-28T06:29:43.999Z</time></trkpt><trkpt lat="38.566901288016176" lon="16.328122025323786"><ele>818.0</ele><time>2026-04-28T06:29:44.999Z</time></trkpt><trkpt lat="38.56675654312511" lon="16.328182788382477"><ele>818.0</ele><time>2026-04-28T06:29:45.999Z</time></trkpt><trkpt lat="38.566615639653875" lon="16.32824193886275"><ele>818.0</ele><time>2026-04-28T06:29:47.001Z</time></trkpt><trkpt lat="38.56647271733787" lon="16.32830193683145"><ele>818.0</ele><time>2026-04-28T06:29:48.001Z</time></trkpt><trkpt lat="38.566329081466066" lon="16.32836290099073"><ele>819.0</ele><time>2026-04-28T06:29:49.001Z</time></trkpt><trkpt lat="38.56618525014327" lon="16.328424848807884"><ele>820.0</ele><time>2026-04-28T06:29:50.001Z</time></trkpt><trkpt lat="38.566041314200774" lon="16.32849731875548"><ele>821.0</ele><time>2026-04-28T06:29:51.001Z</time></trkpt><trkpt lat="38.56589796745922" lon="16.32857668795778"><ele>821.0</ele><time>2026-04-28T06:29:52.001Z</time></trkpt><trkpt lat="38.56576386282704" lon="16.328663402942617"><ele>821.0</ele><time>2026-04-28T06:29:53.001Z</time></trkpt><trkpt lat="38.56563694116208" lon="16.328725663803194"><ele>821.0</ele><time>2026-04-28T06:29:54.001Z</time></trkpt><trkpt lat="38.56551741208125" lon="16.328749614101774"><ele>821.0</ele><time>2026-04-28T06:29:55.001Z</time></trkpt><trkpt lat="38.56541562721406" lon="16.328758986705672"><ele>821.4</ele><time>2026-04-28T06:29:56.001Z</time></trkpt><trkpt lat="38.565321172676626" lon="16.32875166758947"><ele>821.8</ele><time>2026-04-28T06:29:57.001Z</time></trkpt><trkpt lat="38.565244552223014" lon="16.328709486235567"><ele>822.1999999999999</ele><time>2026-04-28T06:29:58.001Z</time></trkpt><trkpt lat="38.56518543977303" lon="16.328648641009885"><ele>822.5999999999999</ele><time>2026-04-28T06:29:59.001Z</time></trkpt><trkpt lat="38.56511302779437" lon="16.32858327904891"><ele>823.0</ele><time>2026-04-28T06:30:00.001Z</time></trkpt><trkpt lat="38.56508070417764" lon="16.32843939946345"><ele>823.0</ele><time>2026-04-28T06:30:01.001Z</time></trkpt><trkpt lat="38.56504132245167" lon="16.328320075142493"><ele>823.0</ele><time>2026-04-28T06:30:02.001Z</time></trkpt><trkpt lat="38.56500422481144" lon="16.32819912510356"><ele>823.0</ele><time>2026-04-28T06:30:03.001Z</time></trkpt><trkpt lat="38.56497372468717" lon="16.32806003572446"><ele>823.0</ele><time>2026-04-28T06:30:04.001Z</time></trkpt><trkpt lat="38.56494809084331" lon="16.32791155158905"><ele>823.0</ele><time>2026-04-28T06:30:05.001Z</time></trkpt><trkpt lat="38.564933988418275" lon="16.327762692656762"><ele>823.25</ele><time>2026-04-28T06:30:06.001Z</time></trkpt><trkpt lat="38.56493520994227" lon="16.327613009137668"><ele>823.5</ele><time>2026-04-28T06:30:07Z</time></trkpt><trkpt lat="38.564928529474756" lon="16.327448523144305"><ele>823.75</ele><time>2026-04-28T06:30:08Z</time></trkpt><trkpt lat="38.56494133425848" lon="16.32729580777127"><ele>824.0</ele><time>2026-04-28T06:30:09Z</time></trkpt><trkpt lat="38.56494405568397" lon="16.327161385131568"><ele>824.0</ele><time>2026-04-28T06:30:10Z</time></trkpt><trkpt lat="38.56494545148889" lon="16.327033916514765"><ele>824.0</ele><time>2026-04-28T06:30:11Z</time></trkpt><trkpt lat="38.5649593431617" lon="16.326903826008884"><ele>824.0</ele><time>2026-04-28T06:30:12Z</time></trkpt><trkpt lat="38.56494044680514" lon="16.326774878848127"><ele>824.0</ele><time>2026-04-28T06:30:13Z</time></trkpt><trkpt lat="38.564933703667265" lon="16.326636863255253"><ele>824.0</ele><time>2026-04-28T06:30:14Z</time></trkpt><trkpt lat="38.564917044591134" lon="16.32649145066163"><ele>824.0000000000001</ele><time>2026-04-28T06:30:15Z</time></trkpt><trkpt lat="38.56489259961162" lon="16.32634625020731"><ele>824.0</ele><time>2026-04-28T06:30:16Z</time></trkpt><trkpt lat="38.564872394990175" lon="16.32621591150908"><ele>824.0</ele><time>2026-04-28T06:30:17Z</time></trkpt><trkpt lat="38.56485855256029" lon="16.326109795324268"><ele>824.0</ele><time>2026-04-28T06:30:18Z</time></trkpt><trkpt lat="38.564847913711" lon="16.326027830508036"><ele>824.0000000000001</ele><time>2026-04-28T06:30:19Z</time></trkpt><trkpt lat="38.564842426242876" lon="16.325931251537984"><ele>824.0</ele><time>2026-04-28T06:30:21Z</time></trkpt><trkpt lat="38.56473125165094" lon="16.325829248344526"><ele>824.0</ele><time>2026-04-28T06:30:25Z</time></trkpt><trkpt lat="38.56462519468152" lon="16.32583704338704"><ele>824.0</ele><time>2026-04-28T06:30:26Z</time></trkpt><trkpt lat="38.5644995600127" lon="16.325846609357843"><ele>824.0</ele><time>2026-04-28T06:30:27Z</time></trkpt><trkpt lat="38.56437106238403" lon="16.32585662757743"><ele>824.0</ele><time>2026-04-28T06:30:28Z</time></trkpt><trkpt lat="38.564226481314535" lon="16.325866162020642"><ele>825.0</ele><time>2026-04-28T06:30:29Z</time></trkpt><trkpt lat="38.56406028432732" lon="16.325880817228835"><ele>826.0</ele><time>2026-04-28T06:30:30Z</time></trkpt><trkpt lat="38.56387913372582" lon="16.3258964484334"><ele>827.0</ele><time>2026-04-28T06:30:31Z</time></trkpt><trkpt lat="38.563696380359225" lon="16.325912217935386"><ele>827.6666666666667</ele><time>2026-04-28T06:30:32Z</time></trkpt><trkpt lat="38.56352408156201" lon="16.325927085328246"><ele>828.3333333333333</ele><time>2026-04-28T06:30:33Z</time></trkpt><trkpt lat="38.56335471881352" lon="16.32594138904113"><ele>829.0</ele><time>2026-04-28T06:30:34Z</time></trkpt><trkpt lat="38.563179252675724" lon="16.3259561069425"><ele>829.0</ele><time>2026-04-28T06:30:35Z</time></trkpt><trkpt lat="38.56299542110365" lon="16.325971525072063"><ele>829.0</ele><time>2026-04-28T06:30:36Z</time></trkpt><trkpt lat="38.562803596303596" lon="16.325986318912857"><ele>829.0</ele><time>2026-04-28T06:30:37Z</time></trkpt><trkpt lat="38.56261197015793" lon="16.32600103917338"><ele>830.0</ele><time>2026-04-28T06:30:38Z</time></trkpt><trkpt lat="38.56243042465359" lon="16.326015425584124"><ele>831.0</ele><time>2026-04-28T06:30:39Z</time></trkpt><trkpt lat="38.56224840983596" lon="16.326049613438922"><ele>832.0</ele><time>2026-04-28T06:30:40Z</time></trkpt><trkpt lat="38.562064642071284" lon="16.32604255268302"><ele>834.0</ele><time>2026-04-28T06:30:41Z</time></trkpt><trkpt lat="38.56188310385465" lon="16.326055081563076"><ele>836.0</ele><time>2026-04-28T06:30:42Z</time></trkpt><trkpt lat="38.5616989610994" lon="16.32607009762567"><ele>838.0</ele><time>2026-04-28T06:30:43Z</time></trkpt><trkpt lat="38.56151162291672" lon="16.326085005453045"><ele>838.0</ele><time>2026-04-28T06:30:44Z</time></trkpt><trkpt lat="38.561322553607354" lon="16.326100051104913"><ele>838.0</ele><time>2026-04-28T06:30:45Z</time></trkpt><trkpt lat="38.56113289664797" lon="16.326115531771148"><ele>838.0</ele><time>2026-04-28T06:30:46Z</time></trkpt><trkpt lat="38.56093692189409" lon="16.326131437089398"><ele>839.6666666666666</ele><time>2026-04-28T06:30:47Z</time></trkpt><trkpt lat="38.56073137249459" lon="16.32614811948781"><ele>841.3333333333333</ele><time>2026-04-28T06:30:48Z</time></trkpt><trkpt lat="38.560527172942415" lon="16.3261646923327"><ele>843.0</ele><time>2026-04-28T06:30:49Z</time></trkpt><trkpt lat="38.5603168021428" lon="16.326201272557007"><ele>843.6666666666667</ele><time>2026-04-28T06:30:50Z</time></trkpt><trkpt lat="38.560102753368874" lon="16.326199138240096"><ele>844.3333333333334</ele><time>2026-04-28T06:30:51Z</time></trkpt><trkpt lat="38.55988543991692" lon="16.32621706271684"><ele>845.0</ele><time>2026-04-28T06:30:52Z</time></trkpt><trkpt lat="38.55967013120464" lon="16.326255156198094"><ele>846.6666666666667</ele><time>2026-04-28T06:30:53Z</time></trkpt><trkpt lat="38.559452660790676" lon="16.32625445331401"><ele>848.3333333333333</ele><time>2026-04-28T06:30:54Z</time></trkpt><trkpt lat="38.55923755133949" lon="16.326273038112213"><ele>850.0</ele><time>2026-04-28T06:30:55Z</time></trkpt><trkpt lat="38.55901632500973" lon="16.326292820398894"><ele>850.0</ele><time>2026-04-28T06:30:56Z</time></trkpt><trkpt lat="38.558798438687084" lon="16.32631108735206"><ele>850.0</ele><time>2026-04-28T06:30:57Z</time></trkpt><trkpt lat="38.55857468581879" lon="16.326328489927672"><ele>850.0</ele><time>2026-04-28T06:30:58Z</time></trkpt><trkpt lat="38.558348943612984" lon="16.326346048633415"><ele>852.5</ele><time>2026-04-28T06:30:59Z</time></trkpt><trkpt lat="38.55812105665869" lon="16.326364327695867"><ele>855.0</ele><time>2026-04-28T06:31:00Z</time></trkpt><trkpt lat="38.55789213373786" lon="16.326383734004224"><ele>855.0</ele><time>2026-04-28T06:31:01Z</time></trkpt><trkpt lat="38.55766537828213" lon="16.326403178485055"><ele>855.0</ele><time>2026-04-28T06:31:02Z</time></trkpt><trkpt lat="38.557439801949435" lon="16.326422387824106"><ele>855.0</ele><time>2026-04-28T06:31:03Z</time></trkpt><trkpt lat="38.557214826392176" lon="16.32645635122992"><ele>855.0</ele><time>2026-04-28T06:31:04Z</time></trkpt><trkpt lat="38.556993563316304" lon="16.32647325406337"><ele>855.0</ele><time>2026-04-28T06:31:05Z</time></trkpt><trkpt lat="38.55677859097678" lon="16.326491278009904"><ele>856.0</ele><time>2026-04-28T06:31:06Z</time></trkpt><trkpt lat="38.556566778314966" lon="16.326507535279"><ele>857.0</ele><time>2026-04-28T06:31:07Z</time></trkpt><trkpt lat="38.55635586569786" lon="16.32652239853343"><ele>858.0</ele><time>2026-04-28T06:31:08Z</time></trkpt><trkpt lat="38.556150429613666" lon="16.326540304011512"><ele>860.0</ele><time>2026-04-28T06:31:09Z</time></trkpt><trkpt lat="38.5559451964551" lon="16.32655850821222"><ele>862.0</ele><time>2026-04-28T06:31:10Z</time></trkpt><trkpt lat="38.55576877666914" lon="16.326556441865225"><ele>864.0</ele><time>2026-04-28T06:31:11Z</time></trkpt><trkpt lat="38.555618779904776" lon="16.326586242484673"><ele>864.0</ele><time>2026-04-28T06:31:12Z</time></trkpt><trkpt lat="38.55547457593852" lon="16.32657259965264"><ele>864.0</ele><time>2026-04-28T06:31:13Z</time></trkpt><trkpt lat="38.555351448598564" lon="16.3265152173437"><ele>864.0</ele><time>2026-04-28T06:31:14Z</time></trkpt><trkpt lat="38.55525512274011" lon="16.32640129989495"><ele>864.0</ele><time>2026-04-28T06:31:15Z</time></trkpt><trkpt lat="38.5551702630098" lon="16.32624517081074"><ele>866.3333333333333</ele><time>2026-04-28T06:31:16Z</time></trkpt><trkpt lat="38.55509155806162" lon="16.326083017209495"><ele>868.6666666666666</ele><time>2026-04-28T06:31:17Z</time></trkpt><trkpt lat="38.55502615860403" lon="16.32590083226076"><ele>871.0</ele><time>2026-04-28T06:31:18Z</time></trkpt><trkpt lat="38.55494427306283" lon="16.32572278948281"><ele>872.3333333333333</ele><time>2026-04-28T06:31:19Z</time></trkpt><trkpt lat="38.55486371488158" lon="16.325546475769162"><ele>873.6666666666667</ele><time>2026-04-28T06:31:20Z</time></trkpt><trkpt lat="38.55478050779436" lon="16.325363769478297"><ele>875.0</ele><time>2026-04-28T06:31:21Z</time></trkpt><trkpt lat="38.55469520518392" lon="16.325176461795696"><ele>875.0</ele><time>2026-04-28T06:31:22Z</time></trkpt><trkpt lat="38.55459437060127" lon="16.324994280286308"><ele>875.0</ele><time>2026-04-28T06:31:23Z</time></trkpt><trkpt lat="38.55450473160711" lon="16.324795828791494"><ele>875.0</ele><time>2026-04-28T06:31:24Z</time></trkpt><trkpt lat="38.55440811846819" lon="16.32458871718442"><ele>876.3333333333334</ele><time>2026-04-28T06:31:25Z</time></trkpt><trkpt lat="38.55430902961011" lon="16.324376259428266"><ele>877.6666666666667</ele><time>2026-04-28T06:31:26Z</time></trkpt><trkpt lat="38.554208526924405" lon="16.324156489770232"><ele>879.0</ele><time>2026-04-28T06:31:26.999Z</time></trkpt><trkpt lat="38.5541063711829" lon="16.32393065387196"><ele>881.3333333333333</ele><time>2026-04-28T06:31:27.999Z</time></trkpt><trkpt lat="38.55400215775141" lon="16.32370163414804"><ele>883.6666666666666</ele><time>2026-04-28T06:31:28.999Z</time></trkpt><trkpt lat="38.55390496240597" lon="16.323490865114064"><ele>886.0</ele><time>2026-04-28T06:31:29.999Z</time></trkpt><trkpt lat="38.55381109685648" lon="16.32331269864667"><ele>886.0</ele><time>2026-04-28T06:31:30.999Z</time></trkpt><trkpt lat="38.55370081299586" lon="16.323166379113108"><ele>886.0</ele><time>2026-04-28T06:31:31.999Z</time></trkpt><trkpt lat="38.55356283802292" lon="16.323042992390068"><ele>886.0</ele><time>2026-04-28T06:31:32.999Z</time></trkpt><trkpt lat="38.55342524818481" lon="16.32296174129839"><ele>887.75</ele><time>2026-04-28T06:31:33.999Z</time></trkpt><trkpt lat="38.553295872668066" lon="16.32288926622851"><ele>889.5</ele><time>2026-04-28T06:31:34.999Z</time></trkpt><trkpt lat="38.55316204987777" lon="16.322837680722564"><ele>891.25</ele><time>2026-04-28T06:31:35.999Z</time></trkpt><trkpt lat="38.55301658654758" lon="16.32282838186263"><ele>893.0</ele><time>2026-04-28T06:31:36.999Z</time></trkpt><trkpt lat="38.552870383447214" lon="16.32288187763955"><ele>894.75</ele><time>2026-04-28T06:31:37.999Z</time></trkpt><trkpt lat="38.55272376009112" lon="16.322938540662133"><ele>896.5</ele><time>2026-04-28T06:31:38.999Z</time></trkpt><trkpt lat="38.552600368974666" lon="16.322980461810353"><ele>898.25</ele><time>2026-04-28T06:31:39.999Z</time></trkpt><trkpt lat="38.5524904915899" lon="16.322974924106408"><ele>900.0</ele><time>2026-04-28T06:31:40.999Z</time></trkpt><trkpt lat="38.55239552039936" lon="16.322938457113057"><ele>900.0</ele><time>2026-04-28T06:31:41.999Z</time></trkpt><trkpt lat="38.552311016050695" lon="16.3228701566088"><ele>900.0</ele><time>2026-04-28T06:31:42.999Z</time></trkpt><trkpt lat="38.552274978152504" lon="16.322752675767795"><ele>900.0</ele><time>2026-04-28T06:31:43.999Z</time></trkpt><trkpt lat="38.552214541610844" lon="16.322630099587244"><ele>900.0</ele><time>2026-04-28T06:31:44.999Z</time></trkpt><trkpt lat="38.552162862901035" lon="16.322461296958735"><ele>900.0</ele><time>2026-04-28T06:31:45.999Z</time></trkpt><trkpt lat="38.55210873447548" lon="16.322327485815478"><ele>900.0</ele><time>2026-04-28T06:31:46.999Z</time></trkpt><trkpt lat="38.552033638569405" lon="16.322228990543735"><ele>900.0</ele><time>2026-04-28T06:31:47.999Z</time></trkpt><trkpt lat="38.55194298250275" lon="16.322154195208707"><ele>900.0</ele><time>2026-04-28T06:31:48.999Z</time></trkpt><trkpt lat="38.551812254690695" lon="16.322144426804407"><ele>901.25</ele><time>2026-04-28T06:31:49.999Z</time></trkpt><trkpt lat="38.55166788439469" lon="16.32218622882416"><ele>902.5</ele><time>2026-04-28T06:31:50.999Z</time></trkpt><trkpt lat="38.55152932296005" lon="16.322222850551764"><ele>903.75</ele><time>2026-04-28T06:31:51.999Z</time></trkpt><trkpt lat="38.55139645303707" lon="16.322240359251488"><ele>905.0</ele><time>2026-04-28T06:31:53.001Z</time></trkpt><trkpt lat="38.551268334789235" lon="16.3222183755023"><ele>906.5</ele><time>2026-04-28T06:31:54.001Z</time></trkpt><trkpt lat="38.551137147608515" lon="16.322161782192182"><ele>908.0</ele><time>2026-04-28T06:31:55.001Z</time></trkpt><trkpt lat="38.55100609312233" lon="16.32209008486747"><ele>909.5</ele><time>2026-04-28T06:31:56.001Z</time></trkpt><trkpt lat="38.55088126933955" lon="16.322008001497057"><ele>911.0</ele><time>2026-04-28T06:31:57.001Z</time></trkpt><trkpt lat="38.5507669999208" lon="16.32189997798704"><ele>911.0</ele><time>2026-04-28T06:31:58.001Z</time></trkpt><trkpt lat="38.5506573906928" lon="16.32176113007604"><ele>911.0</ele><time>2026-04-28T06:31:59.001Z</time></trkpt><trkpt lat="38.55055030035814" lon="16.3216088013831"><ele>911.0</ele><time>2026-04-28T06:32:00.001Z</time></trkpt><trkpt lat="38.550432683028546" lon="16.321475629633348"><ele>913.5</ele><time>2026-04-28T06:32:01.001Z</time></trkpt><trkpt lat="38.55030237801028" lon="16.32137381980597"><ele>916.0</ele><time>2026-04-28T06:32:02.001Z</time></trkpt><trkpt lat="38.550168416989415" lon="16.32129633555566"><ele>918.5</ele><time>2026-04-28T06:32:03.001Z</time></trkpt><trkpt lat="38.55006362136036" lon="16.321220848383874"><ele>921.0</ele><time>2026-04-28T06:32:04.001Z</time></trkpt><trkpt lat="38.54997431001892" lon="16.321129596811275"><ele>921.0</ele><time>2026-04-28T06:32:05.001Z</time></trkpt><trkpt lat="38.54989692101115" lon="16.32100038438595"><ele>921.0</ele><time>2026-04-28T06:32:06.001Z</time></trkpt><trkpt lat="38.549829275306514" lon="16.320842401031936"><ele>921.0</ele><time>2026-04-28T06:32:07.001Z</time></trkpt><trkpt lat="38.54976926502526" lon="16.320662939376923"><ele>921.0</ele><time>2026-04-28T06:32:08.001Z</time></trkpt><trkpt lat="38.54972321138984" lon="16.32052366930321"><ele>923.4</ele><time>2026-04-28T06:32:09.001Z</time></trkpt><trkpt lat="38.54968299603787" lon="16.320397296305202"><ele>925.8</ele><time>2026-04-28T06:32:10.001Z</time></trkpt><trkpt lat="38.54965742817367" lon="16.320283579216582"><ele>928.1999999999999</ele><time>2026-04-28T06:32:11Z</time></trkpt><trkpt lat="38.549635251254294" lon="16.32018274983905"><ele>930.5999999999999</ele><time>2026-04-28T06:32:12Z</time></trkpt><trkpt lat="38.54967470486522" lon="16.32007816434769"><ele>933.0</ele><time>2026-04-28T06:32:13Z</time></trkpt><trkpt lat="38.54974561441573" lon="16.320000164755093"><ele>933.0</ele><time>2026-04-28T06:32:14Z</time></trkpt><trkpt lat="38.54983917390476" lon="16.31993538853962"><ele>933.0</ele><time>2026-04-28T06:32:15Z</time></trkpt><trkpt lat="38.549939274357065" lon="16.319883975647606"><ele>933.0</ele><time>2026-04-28T06:32:16Z</time></trkpt><trkpt lat="38.55006474900243" lon="16.319838346865993"><ele>933.0</ele><time>2026-04-28T06:32:17Z</time></trkpt><trkpt lat="38.55017840784713" lon="16.319779078264016"><ele>933.0</ele><time>2026-04-28T06:32:18Z</time></trkpt><trkpt lat="38.55027587113077" lon="16.31971366563017"><ele>933.0</ele><time>2026-04-28T06:32:19Z</time></trkpt><trkpt lat="38.55034388281115" lon="16.319622133207673"><ele>933.0</ele><time>2026-04-28T06:32:20Z</time></trkpt><trkpt lat="38.550365796643476" lon="16.31950509314254"><ele>933.0</ele><time>2026-04-28T06:32:21Z</time></trkpt><trkpt lat="38.55037742179832" lon="16.319388726328352"><ele>933.0</ele><time>2026-04-28T06:32:22Z</time></trkpt><trkpt lat="38.5503111341159" lon="16.319258504602782"><ele>934.75</ele><time>2026-04-28T06:32:23Z</time></trkpt><trkpt lat="38.550213303494395" lon="16.319138642820864"><ele>936.5</ele><time>2026-04-28T06:32:24Z</time></trkpt><trkpt lat="38.55010602810735" lon="16.31899500476263"><ele>938.25</ele><time>2026-04-28T06:32:25Z</time></trkpt><trkpt lat="38.549999490233716" lon="16.318849905646754"><ele>940.0</ele><time>2026-04-28T06:32:26Z</time></trkpt><trkpt lat="38.54989980461109" lon="16.31871674976056"><ele>940.0</ele><time>2026-04-28T06:32:27Z</time></trkpt><trkpt lat="38.54980739783956" lon="16.318603756198765"><ele>940.0</ele><time>2026-04-28T06:32:28Z</time></trkpt><trkpt lat="38.54971526194264" lon="16.318534171276593"><ele>940.0</ele><time>2026-04-28T06:32:29Z</time></trkpt><trkpt lat="38.54963519449095" lon="16.318461307053767"><ele>940.0</ele><time>2026-04-28T06:32:30Z</time></trkpt><trkpt lat="38.549529388709615" lon="16.318481513836804"><ele>940.0</ele><time>2026-04-28T06:32:31Z</time></trkpt><trkpt lat="38.54941313461823" lon="16.318469444381993"><ele>942.6666666666666</ele><time>2026-04-28T06:32:32Z</time></trkpt><trkpt lat="38.54925459900765" lon="16.31849056440726"><ele>945.3333333333333</ele><time>2026-04-28T06:32:33Z</time></trkpt><trkpt lat="38.54911163853002" lon="16.31851184714788"><ele>948.0</ele><time>2026-04-28T06:32:34Z</time></trkpt><trkpt lat="38.5489647856331" lon="16.318532959448934"><ele>948.0</ele><time>2026-04-28T06:32:35Z</time></trkpt><trkpt lat="38.54880673350741" lon="16.318555436389413"><ele>948.0</ele><time>2026-04-28T06:32:36Z</time></trkpt><trkpt lat="38.548641675505976" lon="16.31857848796121"><ele>948.0</ele><time>2026-04-28T06:32:37Z</time></trkpt><trkpt lat="38.548478421815595" lon="16.31860128618373"><ele>950.0</ele><time>2026-04-28T06:32:38Z</time></trkpt><trkpt lat="38.548308320049415" lon="16.318625826520833"><ele>952.0</ele><time>2026-04-28T06:32:39Z</time></trkpt><trkpt lat="38.548146618722086" lon="16.318650249092155"><ele>954.0</ele><time>2026-04-28T06:32:40Z</time></trkpt><trkpt lat="38.54799597088691" lon="16.31867147874157"><ele>955.6666666666667</ele><time>2026-04-28T06:32:41Z</time></trkpt><trkpt lat="38.547833593377014" lon="16.318690722587803"><ele>957.3333333333334</ele><time>2026-04-28T06:32:42Z</time></trkpt><trkpt lat="38.547673577701374" lon="16.318711894952344"><ele>959.0</ele><time>2026-04-28T06:32:43Z</time></trkpt><trkpt lat="38.54750749888376" lon="16.318747353226094"><ele>959.0</ele><time>2026-04-28T06:32:44Z</time></trkpt><trkpt lat="38.54736842546225" lon="16.318791033118817"><ele>959.0</ele><time>2026-04-28T06:32:45Z</time></trkpt><trkpt lat="38.54724623141033" lon="16.31884159639593"><ele>959.0</ele><time>2026-04-28T06:32:46Z</time></trkpt><trkpt lat="38.54712800568995" lon="16.318915202856896"><ele>959.0</ele><time>2026-04-28T06:32:47Z</time></trkpt><trkpt lat="38.547006648183" lon="16.318965205102273"><ele>961.2</ele><time>2026-04-28T06:32:48Z</time></trkpt><trkpt lat="38.546892000302805" lon="16.3189877551997"><ele>963.4000000000001</ele><time>2026-04-28T06:32:49Z</time></trkpt><trkpt lat="38.54678648246027" lon="16.319025905035677"><ele>965.6</ele><time>2026-04-28T06:32:50Z</time></trkpt><trkpt lat="38.54672158781978" lon="16.319061414755605"><ele>967.8</ele><time>2026-04-28T06:32:51Z</time></trkpt><trkpt lat="38.54665305040824" lon="16.31908190121376"><ele>970.0</ele><time>2026-04-28T06:32:52Z</time></trkpt><trkpt lat="38.54656734907288" lon="16.319178419196216"><ele>970.0</ele><time>2026-04-28T06:32:54Z</time></trkpt><trkpt lat="38.5465514795843" lon="16.31926513351886"><ele>970.0</ele><time>2026-04-28T06:32:56Z</time></trkpt><trkpt lat="38.54662134950646" lon="16.31930774907919"><ele>970.0</ele><time>2026-04-28T06:32:57Z</time></trkpt><trkpt lat="38.54669530202948" lon="16.319378850916994"><ele>970.0</ele><time>2026-04-28T06:32:58Z</time></trkpt><trkpt lat="38.54678891774239" lon="16.319435216392854"><ele>970.0</ele><time>2026-04-28T06:32:59Z</time></trkpt><trkpt lat="38.54693408817596" lon="16.319554961730017"><ele>970.0</ele><time>2026-04-28T06:33:00Z</time></trkpt><trkpt lat="38.54701696048993" lon="16.3196642259562"><ele>970.0</ele><time>2026-04-28T06:33:01Z</time></trkpt><trkpt lat="38.54710959249181" lon="16.319796463544694"><ele>970.0</ele><time>2026-04-28T06:33:02Z</time></trkpt><trkpt lat="38.54714748636472" lon="16.319913966767274"><ele>970.0</ele><time>2026-04-28T06:33:03Z</time></trkpt><trkpt lat="38.54717399202577" lon="16.32003967831259"><ele>967.75</ele><time>2026-04-28T06:33:04Z</time></trkpt><trkpt lat="38.54719006311339" lon="16.320174814711486"><ele>965.5</ele><time>2026-04-28T06:33:05Z</time></trkpt><trkpt lat="38.54716769999852" lon="16.32031856543464"><ele>963.25</ele><time>2026-04-28T06:33:06Z</time></trkpt><trkpt lat="38.54713949108762" lon="16.32047178030166"><ele>961.0</ele><time>2026-04-28T06:33:07Z</time></trkpt><trkpt lat="38.547110012578855" lon="16.3206229700169"><ele>960.9999999999999</ele><time>2026-04-28T06:33:08Z</time></trkpt><trkpt lat="38.54708642809828" lon="16.320765172083767"><ele>961.0</ele><time>2026-04-28T06:33:09Z</time></trkpt><trkpt lat="38.54706379624538" lon="16.320880334378238"><ele>961.0</ele><time>2026-04-28T06:33:10Z</time></trkpt><trkpt lat="38.5470318803592" lon="16.32097004157405"><ele>961.0</ele><time>2026-04-28T06:33:11Z</time></trkpt><trkpt lat="38.546963658416196" lon="16.32103525837544"><ele>960.9999999999999</ele><time>2026-04-28T06:33:12Z</time></trkpt><trkpt lat="38.54689837962145" lon="16.32107886148761"><ele>961.0</ele><time>2026-04-28T06:33:13Z</time></trkpt><trkpt lat="38.546751929084095" lon="16.321063235470188"><ele>961.5999999999999</ele><time>2026-04-28T06:33:15Z</time></trkpt><trkpt lat="38.54668638060394" lon="16.32103019455581"><ele>962.1999999999999</ele><time>2026-04-28T06:33:16Z</time></trkpt><trkpt lat="38.546616815467395" lon="16.32100665332944"><ele>962.8000000000001</ele><time>2026-04-28T06:33:17Z</time></trkpt><trkpt lat="38.54646462619453" lon="16.320950756516147"><ele>963.4000000000001</ele><time>2026-04-28T06:33:18Z</time></trkpt><trkpt lat="38.54632915266552" lon="16.320881195729715"><ele>964.0</ele><time>2026-04-28T06:33:19Z</time></trkpt><trkpt lat="38.546211670461844" lon="16.320781778608392"><ele>967.75</ele><time>2026-04-28T06:33:20Z</time></trkpt><trkpt lat="38.54612097931549" lon="16.320680111592786"><ele>971.5</ele><time>2026-04-28T06:33:21Z</time></trkpt><trkpt lat="38.54603814147304" lon="16.32057984543981"><ele>975.25</ele><time>2026-04-28T06:33:22Z</time></trkpt><trkpt lat="38.54597512318354" lon="16.320471467312014"><ele>979.0</ele><time>2026-04-28T06:33:23Z</time></trkpt><trkpt lat="38.54593629955902" lon="16.320340438480518"><ele>979.25</ele><time>2026-04-28T06:33:24Z</time></trkpt><trkpt lat="38.54593616307043" lon="16.320173721046466"><ele>979.5</ele><time>2026-04-28T06:33:25Z</time></trkpt><trkpt lat="38.54594370377109" lon="16.319997748977443"><ele>979.75</ele><time>2026-04-28T06:33:26Z</time></trkpt><trkpt lat="38.54594201640181" lon="16.319853551659648"><ele>980.0</ele><time>2026-04-28T06:33:27Z</time></trkpt><trkpt lat="38.54589155064171" lon="16.319692753605455"><ele>980.0</ele><time>2026-04-28T06:33:28Z</time></trkpt><trkpt lat="38.54580979600392" lon="16.319556840125617"><ele>980.0</ele><time>2026-04-28T06:33:29Z</time></trkpt><trkpt lat="38.545725444505266" lon="16.319459667736282"><ele>980.0</ele><time>2026-04-28T06:33:30Z</time></trkpt><trkpt lat="38.5456224958703" lon="16.31934653293446"><ele>980.0</ele><time>2026-04-28T06:33:30.999Z</time></trkpt><trkpt lat="38.54552018015383" lon="16.319250675588293"><ele>980.0</ele><time>2026-04-28T06:33:31.999Z</time></trkpt><trkpt lat="38.54543531063843" lon="16.319180658166836"><ele>980.0</ele><time>2026-04-28T06:33:32.999Z</time></trkpt><trkpt lat="38.54534246607306" lon="16.319101958313762"><ele>980.0</ele><time>2026-04-28T06:33:33.999Z</time></trkpt><trkpt lat="38.54519486072329" lon="16.319082738291456"><ele>980.0</ele><time>2026-04-28T06:33:34.999Z</time></trkpt><trkpt lat="38.545017784229" lon="16.31906589304222"><ele>982.6666666666667</ele><time>2026-04-28T06:33:35.999Z</time></trkpt><trkpt lat="38.54485438101426" lon="16.319049715873625"><ele>985.3333333333333</ele><time>2026-04-28T06:33:36.999Z</time></trkpt><trkpt lat="38.54471193912855" lon="16.319035577121866"><ele>988.0</ele><time>2026-04-28T06:33:37.999Z</time></trkpt><trkpt lat="38.544569299063205" lon="16.31901103789562"><ele>990.5</ele><time>2026-04-28T06:33:38.999Z</time></trkpt><trkpt lat="38.54445373625032" lon="16.318971542881002"><ele>993.0</ele><time>2026-04-28T06:33:39.999Z</time></trkpt><trkpt lat="38.54429875748965" lon="16.318904869446367"><ele>995.5</ele><time>2026-04-28T06:33:40.999Z</time></trkpt><trkpt lat="38.544157210888685" lon="16.318829048286982"><ele>998.0</ele><time>2026-04-28T06:33:41.999Z</time></trkpt><trkpt lat="38.54404144204452" lon="16.318737343071298"><ele>998.0</ele><time>2026-04-28T06:33:42.999Z</time></trkpt><trkpt lat="38.54392558159154" lon="16.318627613161468"><ele>998.0</ele><time>2026-04-28T06:33:43.999Z</time></trkpt><trkpt lat="38.54381935511224" lon="16.31851289771397"><ele>998.0</ele><time>2026-04-28T06:33:44.999Z</time></trkpt><trkpt lat="38.54371978630337" lon="16.318395630759177"><ele>998.0</ele><time>2026-04-28T06:33:45.999Z</time></trkpt><trkpt lat="38.54363329791273" lon="16.318288095329404"><ele>1000.0</ele><time>2026-04-28T06:33:46.999Z</time></trkpt><trkpt lat="38.54355663854771" lon="16.3181863996302"><ele>1002.0</ele><time>2026-04-28T06:33:47.999Z</time></trkpt><trkpt lat="38.543504806117205" lon="16.3181156056559"><ele>1004.0</ele><time>2026-04-28T06:33:48.999Z</time></trkpt><trkpt lat="38.543443991364214" lon="16.318032546919348"><ele>1006.0</ele><time>2026-04-28T06:33:49.999Z</time></trkpt><trkpt lat="38.54336205431422" lon="16.317800232638998"><ele>1006.0</ele><time>2026-04-28T06:33:51.999Z</time></trkpt><trkpt lat="38.54353882236078" lon="16.31797115767677"><ele>1006.0</ele><time>2026-04-28T06:33:54.999Z</time></trkpt><trkpt lat="38.543616020748374" lon="16.31799331135456"><ele>1006.0</ele><time>2026-04-28T06:33:55.999Z</time></trkpt><trkpt lat="38.54369054988675" lon="16.317982167265672"><ele>1006.0</ele><time>2026-04-28T06:33:56.999Z</time></trkpt><trkpt lat="38.54380890936915" lon="16.317958853404207"><ele>1006.0</ele><time>2026-04-28T06:33:57.999Z</time></trkpt><trkpt lat="38.54418165529793" lon="16.318044870976152"><ele>1006.0</ele><time>2026-04-28T06:33:59.001Z</time></trkpt><trkpt lat="38.544281893062525" lon="16.31809479161699"><ele>1006.0</ele><time>2026-04-28T06:34:00.001Z</time></trkpt><trkpt lat="38.54440533842504" lon="16.31810769934443"><ele>1005.9999999999999</ele><time>2026-04-28T06:34:01.001Z</time></trkpt><trkpt lat="38.54450559586204" lon="16.318042644318727"><ele>1005.9999999999999</ele><time>2026-04-28T06:34:02.001Z</time></trkpt><trkpt lat="38.544561227573844" lon="16.31793879045654"><ele>1006.0</ele><time>2026-04-28T06:34:03.001Z</time></trkpt><trkpt lat="38.54454172503148" lon="16.317808481676757"><ele>1006.0</ele><time>2026-04-28T06:34:04.001Z</time></trkpt><trkpt lat="38.54451909330301" lon="16.317635550383862"><ele>1006.0</ele><time>2026-04-28T06:34:05.001Z</time></trkpt><trkpt lat="38.5444877908934" lon="16.317482646532948"><ele>1006.0</ele><time>2026-04-28T06:34:06.001Z</time></trkpt><trkpt lat="38.54441796737116" lon="16.31727698756852"><ele>1006.0</ele><time>2026-04-28T06:34:07.001Z</time></trkpt><trkpt lat="38.54432110917296" lon="16.3171061820448"><ele>1006.3333333333333</ele><time>2026-04-28T06:34:08.001Z</time></trkpt><trkpt lat="38.54419312392466" lon="16.316967211343417"><ele>1006.6666666666667</ele><time>2026-04-28T06:34:09.001Z</time></trkpt><trkpt lat="38.54404760353437" lon="16.316836923924818"><ele>1007.0</ele><time>2026-04-28T06:34:10.001Z</time></trkpt><trkpt lat="38.54387159950051" lon="16.316736888438328"><ele>1009.0</ele><time>2026-04-28T06:34:11.001Z</time></trkpt><trkpt lat="38.54370334939856" lon="16.316672952195358"><ele>1011.0</ele><time>2026-04-28T06:34:12.001Z</time></trkpt><trkpt lat="38.54358647403045" lon="16.31660434572246"><ele>1013.0</ele><time>2026-04-28T06:34:13.001Z</time></trkpt><trkpt lat="38.54348665629783" lon="16.316542072093014"><ele>1015.0</ele><time>2026-04-28T06:34:14.001Z</time></trkpt><trkpt lat="38.54343695583776" lon="16.316407021294317"><ele>1014.0</ele><time>2026-04-28T06:34:15.001Z</time></trkpt><trkpt lat="38.543372755327496" lon="16.316273448800043"><ele>1013.0</ele><time>2026-04-28T06:34:16.001Z</time></trkpt><trkpt lat="38.54328462269081" lon="16.316089129952417"><ele>1012.0</ele><time>2026-04-28T06:34:17Z</time></trkpt><trkpt lat="38.54319952469227" lon="16.3159123824931"><ele>1012.0</ele><time>2026-04-28T06:34:18Z</time></trkpt><trkpt lat="38.543105528441195" lon="16.31575114537903"><ele>1012.0</ele><time>2026-04-28T06:34:19Z</time></trkpt><trkpt lat="38.54299224008304" lon="16.315631745982902"><ele>1012.0</ele><time>2026-04-28T06:34:20Z</time></trkpt><trkpt lat="38.54291581747062" lon="16.315530096060435"><ele>1012.0</ele><time>2026-04-28T06:34:21Z</time></trkpt><trkpt lat="38.542831816255145" lon="16.315471944283207"><ele>1011.25</ele><time>2026-04-28T06:34:22Z</time></trkpt><trkpt lat="38.54273435563063" lon="16.315434797564663"><ele>1010.5</ele><time>2026-04-28T06:34:23Z</time></trkpt><trkpt lat="38.542615639394064" lon="16.315411649141218"><ele>1009.75</ele><time>2026-04-28T06:34:24Z</time></trkpt><trkpt lat="38.542484085736675" lon="16.315412031123085"><ele>1009.0</ele><time>2026-04-28T06:34:25Z</time></trkpt><trkpt lat="38.542316821829445" lon="16.315451263260726"><ele>1009.0</ele><time>2026-04-28T06:34:26Z</time></trkpt><trkpt lat="38.54210908436892" lon="16.315523274571326"><ele>1009.0</ele><time>2026-04-28T06:34:27Z</time></trkpt><trkpt lat="38.54190996878005" lon="16.315573520002715"><ele>1009.0</ele><time>2026-04-28T06:34:28Z</time></trkpt><trkpt lat="38.54173005213401" lon="16.315598386115898"><ele>1013.6666666666666</ele><time>2026-04-28T06:34:29Z</time></trkpt><trkpt lat="38.541553032154404" lon="16.315617489544685"><ele>1018.3333333333333</ele><time>2026-04-28T06:34:30Z</time></trkpt><trkpt lat="38.54138888185004" lon="16.315630231400622"><ele>1023.0</ele><time>2026-04-28T06:34:31Z</time></trkpt><trkpt lat="38.54121036686677" lon="16.31571119649587"><ele>1024.0</ele><time>2026-04-28T06:34:32Z</time></trkpt><trkpt lat="38.5410399720879" lon="16.315807583991496"><ele>1025.0</ele><time>2026-04-28T06:34:33Z</time></trkpt><trkpt lat="38.54086558670977" lon="16.315888654718417"><ele>1026.0</ele><time>2026-04-28T06:34:34Z</time></trkpt><trkpt lat="38.54072859325331" lon="16.31592335159344"><ele>1026.0</ele><time>2026-04-28T06:34:35Z</time></trkpt><trkpt lat="38.540601602701116" lon="16.315915987640462"><ele>1026.0</ele><time>2026-04-28T06:34:36Z</time></trkpt><trkpt lat="38.540502313364435" lon="16.315900252113817"><ele>1026.0</ele><time>2026-04-28T06:34:37Z</time></trkpt><trkpt lat="38.54040950176084" lon="16.315866108267137"><ele>1026.0</ele><time>2026-04-28T06:34:38Z</time></trkpt><trkpt lat="38.54032090904801" lon="16.315785045619368"><ele>1026.0</ele><time>2026-04-28T06:34:39Z</time></trkpt><trkpt lat="38.54022751101493" lon="16.31565562622158"><ele>1027.25</ele><time>2026-04-28T06:34:40Z</time></trkpt><trkpt lat="38.5401218868076" lon="16.31559732617344"><ele>1028.5</ele><time>2026-04-28T06:34:41Z</time></trkpt><trkpt lat="38.53995528525663" lon="16.315599901783393"><ele>1029.75</ele><time>2026-04-28T06:34:42Z</time></trkpt><trkpt lat="38.539837647166785" lon="16.315655331671547"><ele>1031.0</ele><time>2026-04-28T06:34:43Z</time></trkpt><trkpt lat="38.539658307672454" lon="16.315729050926567"><ele>1030.3333333333335</ele><time>2026-04-28T06:34:44Z</time></trkpt><trkpt lat="38.539479180731895" lon="16.31577616482773"><ele>1029.6666666666667</ele><time>2026-04-28T06:34:45Z</time></trkpt><trkpt lat="38.53926739969909" lon="16.315854660448466"><ele>1029.0</ele><time>2026-04-28T06:34:46Z</time></trkpt><trkpt lat="38.53904361402716" lon="16.315959179608313"><ele>1029.0</ele><time>2026-04-28T06:34:47Z</time></trkpt><trkpt lat="38.53884975564243" lon="16.316016538191594"><ele>1029.0</ele><time>2026-04-28T06:34:48Z</time></trkpt><trkpt lat="38.53867963499334" lon="16.31610216032505"><ele>1029.0</ele><time>2026-04-28T06:34:49Z</time></trkpt><trkpt lat="38.53851402253764" lon="16.316141747203794"><ele>1028.6666666666667</ele><time>2026-04-28T06:34:50Z</time></trkpt><trkpt lat="38.53833869560056" lon="16.31620569751066"><ele>1028.3333333333335</ele><time>2026-04-28T06:34:51Z</time></trkpt><trkpt lat="38.53818066570739" lon="16.31626698874028"><ele>1028.0</ele><time>2026-04-28T06:34:52Z</time></trkpt><trkpt lat="38.53806579009018" lon="16.316311614865334"><ele>1028.0</ele><time>2026-04-28T06:34:53Z</time></trkpt><trkpt lat="38.53796367579454" lon="16.31635128277384"><ele>1028.0</ele><time>2026-04-28T06:34:54Z</time></trkpt><trkpt lat="38.53789193512924" lon="16.31638013236691"><ele>1028.0</ele><time>2026-04-28T06:34:55Z</time></trkpt><trkpt lat="38.53782344686326" lon="16.31642311750862"><ele>1028.0</ele><time>2026-04-28T06:34:56Z</time></trkpt><trkpt lat="38.53774567100393" lon="16.316403607417207"><ele>1028.0</ele><time>2026-04-28T06:34:57Z</time></trkpt><trkpt lat="38.53763919591637" lon="16.316267386672354"><ele>1025.5</ele><time>2026-04-28T06:34:59Z</time></trkpt><trkpt lat="38.537596229130386" lon="16.31614084952786"><ele>1023.0</ele><time>2026-04-28T06:35:00Z</time></trkpt><trkpt lat="38.537560316365884" lon="16.315988978111648"><ele>1020.5</ele><time>2026-04-28T06:35:01Z</time></trkpt><trkpt lat="38.537518495333245" lon="16.31583025535852"><ele>1018.0</ele><time>2026-04-28T06:35:02Z</time></trkpt><trkpt lat="38.53748071676241" lon="16.315687156291688"><ele>1017.9999999999999</ele><time>2026-04-28T06:35:03Z</time></trkpt><trkpt lat="38.53745073746334" lon="16.315577295872018"><ele>1018.0</ele><time>2026-04-28T06:35:04Z</time></trkpt><trkpt lat="38.53742768586199" lon="16.31549282194477"><ele>1018.0</ele><time>2026-04-28T06:35:05Z</time></trkpt><trkpt lat="38.537390771181386" lon="16.315399850676894"><ele>1018.0</ele><time>2026-04-28T06:35:47.999Z</time></trkpt><trkpt lat="38.537346993187334" lon="16.31529309045456"><ele>1017.9999999999999</ele><time>2026-04-28T06:35:48.999Z</time></trkpt><trkpt lat="38.537347656209526" lon="16.31516588550825"><ele>1018.0</ele><time>2026-04-28T06:35:49.999Z</time></trkpt><trkpt lat="38.537280184377636" lon="16.315008609313473"><ele>1017.75</ele><time>2026-04-28T06:35:50.999Z</time></trkpt><trkpt lat="38.53724956804434" lon="16.314832162975556"><ele>1017.5</ele><time>2026-04-28T06:35:51.999Z</time></trkpt><trkpt lat="38.53720348776874" lon="16.314658904209395"><ele>1017.25</ele><time>2026-04-28T06:35:52.999Z</time></trkpt><trkpt lat="38.53715277600767" lon="16.314474673336353"><ele>1017.0</ele><time>2026-04-28T06:35:53.999Z</time></trkpt><trkpt lat="38.53709916812528" lon="16.31427695798995"><ele>1017.0</ele><time>2026-04-28T06:35:54.999Z</time></trkpt><trkpt lat="38.53704447796693" lon="16.314066095554356"><ele>1017.0</ele><time>2026-04-28T06:35:55.999Z</time></trkpt><trkpt lat="38.53699056072131" lon="16.31386390782305"><ele>1017.0</ele><time>2026-04-28T06:35:56.999Z</time></trkpt><trkpt lat="38.5369360145894" lon="16.313660001003406"><ele>1018.6666666666667</ele><time>2026-04-28T06:35:57.999Z</time></trkpt><trkpt lat="38.53687519843552" lon="16.313433351899807"><ele>1020.3333333333334</ele><time>2026-04-28T06:35:58.999Z</time></trkpt><trkpt lat="38.53681123804465" lon="16.313198431921975"><ele>1022.0</ele><time>2026-04-28T06:35:59.999Z</time></trkpt><trkpt lat="38.53674844984807" lon="16.312961031614044"><ele>1022.3333333333334</ele><time>2026-04-28T06:36:00.999Z</time></trkpt><trkpt lat="38.536689550322365" lon="16.312735691874966"><ele>1022.6666666666667</ele><time>2026-04-28T06:36:01.999Z</time></trkpt><trkpt lat="38.536625309992445" lon="16.31249961535707"><ele>1023.0</ele><time>2026-04-28T06:36:02.999Z</time></trkpt><trkpt lat="38.536563942817835" lon="16.312274082468747"><ele>1025.25</ele><time>2026-04-28T06:36:03.999Z</time></trkpt><trkpt lat="38.536513078763434" lon="16.312080298068423"><ele>1027.5</ele><time>2026-04-28T06:36:05.001Z</time></trkpt><trkpt lat="38.536467691940786" lon="16.311907360943525"><ele>1029.75</ele><time>2026-04-28T06:36:06.001Z</time></trkpt><trkpt lat="38.536424156549394" lon="16.311745455456652"><ele>1032.0</ele><time>2026-04-28T06:36:07.001Z</time></trkpt><trkpt lat="38.5363876265256" lon="16.311610449545284"><ele>1032.0</ele><time>2026-04-28T06:36:08.001Z</time></trkpt><trkpt lat="38.53634602988056" lon="16.311449383753192"><ele>1032.0</ele><time>2026-04-28T06:36:09.001Z</time></trkpt><trkpt lat="38.53630438419746" lon="16.311276711824124"><ele>1032.0</ele><time>2026-04-28T06:36:10.001Z</time></trkpt><trkpt lat="38.536266631418144" lon="16.311092951101607"><ele>1032.0</ele><time>2026-04-28T06:36:11.001Z</time></trkpt><trkpt lat="38.53623604933843" lon="16.31090358975355"><ele>1035.0</ele><time>2026-04-28T06:36:12.001Z</time></trkpt><trkpt lat="38.536208789236674" lon="16.31070127558298"><ele>1038.0</ele><time>2026-04-28T06:36:13.001Z</time></trkpt><trkpt lat="38.53618474952234" lon="16.310507852605642"><ele>1041.0</ele><time>2026-04-28T06:36:14.001Z</time></trkpt><trkpt lat="38.536161407206336" lon="16.31031255533351"><ele>1044.0</ele><time>2026-04-28T06:36:15.001Z</time></trkpt><trkpt lat="38.53613536523296" lon="16.31011251430784"><ele>1047.0</ele><time>2026-04-28T06:36:16.001Z</time></trkpt><trkpt lat="38.53611022416215" lon="16.309911074843058"><ele>1050.0</ele><time>2026-04-28T06:36:17.001Z</time></trkpt><trkpt lat="38.536084367473656" lon="16.309699793647425"><ele>1051.6666666666667</ele><time>2026-04-28T06:36:18.001Z</time></trkpt><trkpt lat="38.536056982867244" lon="16.309496867543686"><ele>1053.3333333333335</ele><time>2026-04-28T06:36:19.001Z</time></trkpt><trkpt lat="38.53603018048833" lon="16.30929825613266"><ele>1055.0</ele><time>2026-04-28T06:36:20.001Z</time></trkpt><trkpt lat="38.536004726115124" lon="16.309107444246578"><ele>1055.0</ele><time>2026-04-28T06:36:21.001Z</time></trkpt><trkpt lat="38.53598146196018" lon="16.30892996049468"><ele>1055.0</ele><time>2026-04-28T06:36:22.001Z</time></trkpt><trkpt lat="38.535959098384296" lon="16.30874792019043"><ele>1055.0</ele><time>2026-04-28T06:36:23.001Z</time></trkpt><trkpt lat="38.53593703258257" lon="16.308563576117777"><ele>1055.0</ele><time>2026-04-28T06:36:24.001Z</time></trkpt><trkpt lat="38.53591360203971" lon="16.308374805143927"><ele>1054.6666666666667</ele><time>2026-04-28T06:36:25Z</time></trkpt><trkpt lat="38.53588848421162" lon="16.30818498203157"><ele>1054.3333333333333</ele><time>2026-04-28T06:36:26Z</time></trkpt><trkpt lat="38.53586212554978" lon="16.307985781714308"><ele>1054.0</ele><time>2026-04-28T06:36:27Z</time></trkpt><trkpt lat="38.53583225549815" lon="16.307760044571356"><ele>1053.6666666666665</ele><time>2026-04-28T06:36:28Z</time></trkpt><trkpt lat="38.53580249137491" lon="16.30753422317719"><ele>1053.3333333333333</ele><time>2026-04-28T06:36:29Z</time></trkpt><trkpt lat="38.53577265799228" lon="16.30730400315641"><ele>1053.0</ele><time>2026-04-28T06:36:30Z</time></trkpt><trkpt lat="38.53574379398593" lon="16.307081263646527"><ele>1052.0</ele><time>2026-04-28T06:36:31Z</time></trkpt><trkpt lat="38.53571572497219" lon="16.3068661960855"><ele>1051.0</ele><time>2026-04-28T06:36:32Z</time></trkpt><trkpt lat="38.535673795859914" lon="16.306666483748888"><ele>1050.0</ele><time>2026-04-28T06:36:33Z</time></trkpt><trkpt lat="38.535650606175636" lon="16.306473069718525"><ele>1048.5</ele><time>2026-04-28T06:36:34Z</time></trkpt><trkpt lat="38.53562846015997" lon="16.306290645639315"><ele>1047.0</ele><time>2026-04-28T06:36:35Z</time></trkpt><trkpt lat="38.53562776563804" lon="16.306114816889686"><ele>1045.5</ele><time>2026-04-28T06:36:36Z</time></trkpt><trkpt lat="38.53564906427781" lon="16.305921257263744"><ele>1044.0</ele><time>2026-04-28T06:36:37Z</time></trkpt><trkpt lat="38.53567801994085" lon="16.305773066877407"><ele>1044.0</ele><time>2026-04-28T06:36:38Z</time></trkpt><trkpt lat="38.53575300794802" lon="16.305640743538678"><ele>1044.0</ele><time>2026-04-28T06:36:39Z</time></trkpt><trkpt lat="38.53584087470974" lon="16.305500747562515"><ele>1044.0</ele><time>2026-04-28T06:36:40Z</time></trkpt><trkpt lat="38.53597517242339" lon="16.305337962752272"><ele>1042.3333333333333</ele><time>2026-04-28T06:36:41Z</time></trkpt><trkpt lat="38.53612260504849" lon="16.305168730772778"><ele>1040.6666666666665</ele><time>2026-04-28T06:36:42Z</time></trkpt><trkpt lat="38.53626012689247" lon="16.30498877066469"><ele>1039.0</ele><time>2026-04-28T06:36:43Z</time></trkpt><trkpt lat="38.53641177832532" lon="16.30483741068078"><ele>1036.0</ele><time>2026-04-28T06:36:44Z</time></trkpt><trkpt lat="38.53655327244501" lon="16.304682215856893"><ele>1033.0</ele><time>2026-04-28T06:36:45Z</time></trkpt><trkpt lat="38.53668335085529" lon="16.30453370814529"><ele>1030.0</ele><time>2026-04-28T06:36:46Z</time></trkpt><trkpt lat="38.536805827884805" lon="16.304398020532993"><ele>1030.0</ele><time>2026-04-28T06:36:47Z</time></trkpt><trkpt lat="38.53691590705492" lon="16.30424966565473"><ele>1030.0</ele><time>2026-04-28T06:36:48Z</time></trkpt><trkpt lat="38.53703780456142" lon="16.304115923344135"><ele>1030.0</ele><time>2026-04-28T06:36:49Z</time></trkpt><trkpt lat="38.53715846472929" lon="16.303978887057855"><ele>1027.3333333333333</ele><time>2026-04-28T06:36:50Z</time></trkpt><trkpt lat="38.53728139843117" lon="16.303842871276142"><ele>1024.6666666666667</ele><time>2026-04-28T06:36:51Z</time></trkpt><trkpt lat="38.53739771508953" lon="16.303704164101752"><ele>1022.0</ele><time>2026-04-28T06:36:52Z</time></trkpt><trkpt lat="38.537521311746836" lon="16.303577140116506"><ele>1022.0</ele><time>2026-04-28T06:36:53Z</time></trkpt><trkpt lat="38.53763986282954" lon="16.303436240052573"><ele>1022.0</ele><time>2026-04-28T06:36:54Z</time></trkpt><trkpt lat="38.53775261050892" lon="16.30329816404995"><ele>1022.0</ele><time>2026-04-28T06:36:55Z</time></trkpt><trkpt lat="38.53785660973334" lon="16.30313508663643"><ele>1025.6666666666667</ele><time>2026-04-28T06:36:56Z</time></trkpt><trkpt lat="38.53793661912227" lon="16.302938757051795"><ele>1029.3333333333333</ele><time>2026-04-28T06:36:57Z</time></trkpt><trkpt lat="38.538010661570226" lon="16.302734843406"><ele>1033.0</ele><time>2026-04-28T06:36:58Z</time></trkpt><trkpt lat="38.538080290669676" lon="16.302517265487232"><ele>1033.0</ele><time>2026-04-28T06:36:59Z</time></trkpt><trkpt lat="38.53814782167192" lon="16.302309239103575"><ele>1033.0</ele><time>2026-04-28T06:37:00Z</time></trkpt><trkpt lat="38.53821849112525" lon="16.302122364101898"><ele>1033.0</ele><time>2026-04-28T06:37:01Z</time></trkpt><trkpt lat="38.538285472189216" lon="16.301935589860733"><ele>1030.6666666666665</ele><time>2026-04-28T06:37:02Z</time></trkpt><trkpt lat="38.53835646139834" lon="16.30176861354258"><ele>1028.3333333333333</ele><time>2026-04-28T06:37:03Z</time></trkpt><trkpt lat="38.538438253522386" lon="16.301602685399203"><ele>1026.0</ele><time>2026-04-28T06:37:04Z</time></trkpt><trkpt lat="38.53853738425078" lon="16.301451516821043"><ele>1027.3333333333333</ele><time>2026-04-28T06:37:05Z</time></trkpt><trkpt lat="38.538651384557085" lon="16.30130587265619"><ele>1028.6666666666665</ele><time>2026-04-28T06:37:06Z</time></trkpt><trkpt lat="38.53875189168273" lon="16.301145461377065"><ele>1030.0</ele><time>2026-04-28T06:37:07Z</time></trkpt><trkpt lat="38.538859394972086" lon="16.300996932583523"><ele>1030.0</ele><time>2026-04-28T06:37:08Z</time></trkpt><trkpt lat="38.538970794272934" lon="16.300834901000968"><ele>1030.0</ele><time>2026-04-28T06:37:09Z</time></trkpt><trkpt lat="38.539096451096626" lon="16.30067954229807"><ele>1030.0</ele><time>2026-04-28T06:37:10Z</time></trkpt><trkpt lat="38.539209242260526" lon="16.3004673267749"><ele>1030.6666666666665</ele><time>2026-04-28T06:37:11Z</time></trkpt><trkpt lat="38.539296112593206" lon="16.300219348814817"><ele>1031.3333333333333</ele><time>2026-04-28T06:37:12Z</time></trkpt><trkpt lat="38.53939134945347" lon="16.29995615059064"><ele>1032.0</ele><time>2026-04-28T06:37:13Z</time></trkpt><trkpt lat="38.53947923184387" lon="16.299697344750726"><ele>1035.6666666666667</ele><time>2026-04-28T06:37:14Z</time></trkpt><trkpt lat="38.53956179987685" lon="16.299469467614156"><ele>1039.3333333333335</ele><time>2026-04-28T06:37:15Z</time></trkpt><trkpt lat="38.53962968878817" lon="16.299265769501755"><ele>1043.0</ele><time>2026-04-28T06:37:16Z</time></trkpt><trkpt lat="38.53966674423459" lon="16.29906347256396"><ele>1043.0</ele><time>2026-04-28T06:37:17Z</time></trkpt><trkpt lat="38.53970327374271" lon="16.29886457526806"><ele>1043.0</ele><time>2026-04-28T06:37:18Z</time></trkpt><trkpt lat="38.53971714227152" lon="16.298635342578287"><ele>1043.0</ele><time>2026-04-28T06:37:19Z</time></trkpt><trkpt lat="38.53969947523964" lon="16.298415234341192"><ele>1043.0</ele><time>2026-04-28T06:37:20Z</time></trkpt><trkpt lat="38.53970296003379" lon="16.298202790844645"><ele>1043.0</ele><time>2026-04-28T06:37:21Z</time></trkpt><trkpt lat="38.539678714641255" lon="16.297989850617824"><ele>1043.0</ele><time>2026-04-28T06:37:22Z</time></trkpt><trkpt lat="38.53967929757465" lon="16.29777253987537"><ele>1043.3333333333335</ele><time>2026-04-28T06:37:23Z</time></trkpt><trkpt lat="38.5396774368193" lon="16.29756675786982"><ele>1043.6666666666667</ele><time>2026-04-28T06:37:24Z</time></trkpt><trkpt lat="38.53966796301857" lon="16.297355995701164"><ele>1044.0</ele><time>2026-04-28T06:37:25Z</time></trkpt><trkpt lat="38.53966371151695" lon="16.297148092403066"><ele>1045.6666666666667</ele><time>2026-04-28T06:37:26Z</time></trkpt><trkpt lat="38.53965383081815" lon="16.296941778990167"><ele>1047.3333333333335</ele><time>2026-04-28T06:37:27Z</time></trkpt><trkpt lat="38.539649057312104" lon="16.29673439049852"><ele>1049.0</ele><time>2026-04-28T06:37:28Z</time></trkpt><trkpt lat="38.539643259319014" lon="16.29650941260115"><ele>1052.0</ele><time>2026-04-28T06:37:29Z</time></trkpt><trkpt lat="38.53964470632506" lon="16.296274992974595"><ele>1055.0</ele><time>2026-04-28T06:37:30Z</time></trkpt><trkpt lat="38.539636052310634" lon="16.296038663006353"><ele>1058.0</ele><time>2026-04-28T06:37:31Z</time></trkpt><trkpt lat="38.5396281067249" lon="16.295799922578418"><ele>1059.6666666666667</ele><time>2026-04-28T06:37:32Z</time></trkpt><trkpt lat="38.53961071140315" lon="16.29557802635116"><ele>1061.3333333333333</ele><time>2026-04-28T06:37:33Z</time></trkpt><trkpt lat="38.53961813887317" lon="16.29536796255265"><ele>1063.0</ele><time>2026-04-28T06:37:34Z</time></trkpt><trkpt lat="38.53960038642079" lon="16.295184854343205"><ele>1063.0</ele><time>2026-04-28T06:37:35Z</time></trkpt><trkpt lat="38.53960352646755" lon="16.29502687202011"><ele>1063.0</ele><time>2026-04-28T06:37:36Z</time></trkpt><trkpt lat="38.53962922126597" lon="16.294866232754774"><ele>1063.0</ele><time>2026-04-28T06:37:37Z</time></trkpt><trkpt lat="38.53968359981345" lon="16.294721069460454"><ele>1063.0</ele><time>2026-04-28T06:37:38Z</time></trkpt><trkpt lat="38.539772319626564" lon="16.29459160685274"><ele>1060.5</ele><time>2026-04-28T06:37:39Z</time></trkpt><trkpt lat="38.539865716143815" lon="16.294506199121912"><ele>1058.0</ele><time>2026-04-28T06:37:39.999Z</time></trkpt><trkpt lat="38.54000048344537" lon="16.29445967896292"><ele>1055.5</ele><time>2026-04-28T06:37:40.999Z</time></trkpt><trkpt lat="38.540152422511525" lon="16.294385666090296"><ele>1053.0</ele><time>2026-04-28T06:37:41.999Z</time></trkpt><trkpt lat="38.540314637859524" lon="16.294337095123115"><ele>1054.5</ele><time>2026-04-28T06:37:42.999Z</time></trkpt><trkpt lat="38.5404631428994" lon="16.294284358982367"><ele>1056.0</ele><time>2026-04-28T06:37:43.999Z</time></trkpt><trkpt lat="38.54060095376571" lon="16.294238997341665"><ele>1057.5</ele><time>2026-04-28T06:37:44.999Z</time></trkpt><trkpt lat="38.54072304637418" lon="16.294200148923547"><ele>1059.0</ele><time>2026-04-28T06:37:45.999Z</time></trkpt><trkpt lat="38.54083419106125" lon="16.294171474883978"><ele>1059.0</ele><time>2026-04-28T06:37:46.999Z</time></trkpt><trkpt lat="38.54093283482416" lon="16.29413147052081"><ele>1059.0</ele><time>2026-04-28T06:37:47.999Z</time></trkpt><trkpt lat="38.54101959855429" lon="16.29410004651942"><ele>1059.0</ele><time>2026-04-28T06:37:48.999Z</time></trkpt><trkpt lat="38.54109129411055" lon="16.294073677586674"><ele>1059.0</ele><time>2026-04-28T06:37:49.999Z</time></trkpt><trkpt lat="38.54115262994086" lon="16.29404200376066"><ele>1059.0</ele><time>2026-04-28T06:37:50.999Z</time></trkpt><trkpt lat="38.54121223046898" lon="16.294003530958214"><ele>1059.0</ele><time>2026-04-28T06:37:51.999Z</time></trkpt><trkpt lat="38.54128183374505" lon="16.293957416532997"><ele>1061.0</ele><time>2026-04-28T06:37:52.999Z</time></trkpt><trkpt lat="38.541353481274314" lon="16.293907072643176"><ele>1063.0</ele><time>2026-04-28T06:37:53.999Z</time></trkpt><trkpt lat="38.54143748566081" lon="16.293844740141893"><ele>1065.0</ele><time>2026-04-28T06:37:55.999Z</time></trkpt><trkpt lat="38.541531183988454" lon="16.29378104851049"><ele>1067.0</ele><time>2026-04-28T06:37:57.999Z</time></trkpt><trkpt lat="38.541606971396" lon="16.293727641355815"><ele>1069.0</ele><time>2026-04-28T06:37:58.999Z</time></trkpt><trkpt lat="38.54169379867542" lon="16.29366314489552"><ele>1069.0</ele><time>2026-04-28T06:37:59.999Z</time></trkpt><trkpt lat="38.541780364901626" lon="16.293590223970064"><ele>1069.0</ele><time>2026-04-28T06:38:00.999Z</time></trkpt><trkpt lat="38.54185505399931" lon="16.293519233109397"><ele>1069.0</ele><time>2026-04-28T06:38:01.999Z</time></trkpt><trkpt lat="38.54192707079237" lon="16.293487805652962"><ele>1069.0</ele><time>2026-04-28T06:38:02.999Z</time></trkpt><trkpt lat="38.54202571028608" lon="16.29341394103264"><ele>1069.0</ele><time>2026-04-28T06:38:04.999Z</time></trkpt><trkpt lat="38.54209788516241" lon="16.293359894153404"><ele>1069.0</ele><time>2026-04-28T06:38:06.999Z</time></trkpt><trkpt lat="38.54199466723608" lon="16.293155645218"><ele>1069.0</ele><time>2026-04-28T06:38:08.999Z</time></trkpt><trkpt lat="38.54191206521593" lon="16.29310386252807"><ele>1069.0</ele><time>2026-04-28T06:38:09.999Z</time></trkpt><trkpt lat="38.54180964308859" lon="16.293060013949084"><ele>1069.0</ele><time>2026-04-28T06:38:11.001Z</time></trkpt><trkpt lat="38.541733545861995" lon="16.29297982977444"><ele>1067.6666666666665</ele><time>2026-04-28T06:38:12.001Z</time></trkpt><trkpt lat="38.541623510705236" lon="16.292901773836256"><ele>1066.3333333333333</ele><time>2026-04-28T06:38:13.001Z</time></trkpt><trkpt lat="38.54147353756243" lon="16.292804757481775"><ele>1065.0</ele><time>2026-04-28T06:38:14.001Z</time></trkpt><trkpt lat="38.541296324594846" lon="16.292696570836995"><ele>1065.0</ele><time>2026-04-28T06:38:15.001Z</time></trkpt><trkpt lat="38.5411632520364" lon="16.292615344950388"><ele>1065.0</ele><time>2026-04-28T06:38:16.001Z</time></trkpt><trkpt lat="38.54103823979815" lon="16.292539039089334"><ele>1065.0</ele><time>2026-04-28T06:38:17.001Z</time></trkpt><trkpt lat="38.54091135799431" lon="16.292461592110616"><ele>1065.0</ele><time>2026-04-28T06:38:18.001Z</time></trkpt><trkpt lat="38.54077086534287" lon="16.292375052771455"><ele>1065.0</ele><time>2026-04-28T06:38:19.001Z</time></trkpt><trkpt lat="38.540629260763346" lon="16.292275683890242"><ele>1065.0</ele><time>2026-04-28T06:38:20.001Z</time></trkpt><trkpt lat="38.54050521780046" lon="16.292170889843284"><ele>1065.0</ele><time>2026-04-28T06:38:21.001Z</time></trkpt><trkpt lat="38.5404068477374" lon="16.29206116624234"><ele>1065.0</ele><time>2026-04-28T06:38:22.001Z</time></trkpt><trkpt lat="38.54031902382853" lon="16.291935962991314"><ele>1064.0</ele><time>2026-04-28T06:38:23.001Z</time></trkpt><trkpt lat="38.54022574379963" lon="16.291795669809446"><ele>1063.0</ele><time>2026-04-28T06:38:24.001Z</time></trkpt><trkpt lat="38.54015382968991" lon="16.291611267342827"><ele>1062.0</ele><time>2026-04-28T06:38:25.001Z</time></trkpt><trkpt lat="38.5400753979819" lon="16.291415309874246"><ele>1062.0</ele><time>2026-04-28T06:38:26.001Z</time></trkpt><trkpt lat="38.539992334103005" lon="16.291212844853018"><ele>1062.0</ele><time>2026-04-28T06:38:27.001Z</time></trkpt><trkpt lat="38.53990944238115" lon="16.291010595896974"><ele>1062.0</ele><time>2026-04-28T06:38:28.001Z</time></trkpt><trkpt lat="38.539820042746655" lon="16.290805811825106"><ele>1061.3333333333333</ele><time>2026-04-28T06:38:29Z</time></trkpt><trkpt lat="38.539731179882615" lon="16.290589758020825"><ele>1060.6666666666665</ele><time>2026-04-28T06:38:30Z</time></trkpt><trkpt lat="38.53965665725229" lon="16.290362639639177"><ele>1060.0</ele><time>2026-04-28T06:38:31Z</time></trkpt><trkpt lat="38.53956718667603" lon="16.290139417753124"><ele>1060.0</ele><time>2026-04-28T06:38:32Z</time></trkpt><trkpt lat="38.53947535229713" lon="16.289920014670397"><ele>1060.0</ele><time>2026-04-28T06:38:33Z</time></trkpt><trkpt lat="38.53938396468338" lon="16.28970167891286"><ele>1060.0</ele><time>2026-04-28T06:38:34Z</time></trkpt><trkpt lat="38.53929213277707" lon="16.28948228172113"><ele>1059.3333333333333</ele><time>2026-04-28T06:38:35Z</time></trkpt><trkpt lat="38.53918789660858" lon="16.289269173488364"><ele>1058.6666666666667</ele><time>2026-04-28T06:38:36Z</time></trkpt><trkpt lat="38.53909702863711" lon="16.289048163468504"><ele>1058.0</ele><time>2026-04-28T06:38:37Z</time></trkpt><trkpt lat="38.53901293265269" lon="16.288830845179696"><ele>1057.6666666666667</ele><time>2026-04-28T06:38:38Z</time></trkpt><trkpt lat="38.53893170887047" lon="16.288627938041575"><ele>1057.3333333333333</ele><time>2026-04-28T06:38:39Z</time></trkpt><trkpt lat="38.538843362455616" lon="16.288442541379144"><ele>1057.0</ele><time>2026-04-28T06:38:40Z</time></trkpt><trkpt lat="38.538737431348494" lon="16.28824766130127"><ele>1059.3333333333333</ele><time>2026-04-28T06:38:41Z</time></trkpt><trkpt lat="38.538599112544944" lon="16.288072729375116"><ele>1061.6666666666667</ele><time>2026-04-28T06:38:42Z</time></trkpt><trkpt lat="38.53847214001253" lon="16.287928351730077"><ele>1064.0</ele><time>2026-04-28T06:38:43Z</time></trkpt><trkpt lat="38.53833726865335" lon="16.28778228544254"><ele>1064.0</ele><time>2026-04-28T06:38:44Z</time></trkpt><trkpt lat="38.53820218603729" lon="16.28764119933378"><ele>1064.0</ele><time>2026-04-28T06:38:45Z</time></trkpt><trkpt lat="38.53807582163716" lon="16.28750964383226"><ele>1064.0</ele><time>2026-04-28T06:38:46Z</time></trkpt><trkpt lat="38.53795662579996" lon="16.287385551373006"><ele>1062.0</ele><time>2026-04-28T06:38:47Z</time></trkpt><trkpt lat="38.537840607170615" lon="16.287263548650593"><ele>1060.0</ele><time>2026-04-28T06:38:48Z</time></trkpt><trkpt lat="38.53774457788568" lon="16.287133447101272"><ele>1058.0</ele><time>2026-04-28T06:38:49Z</time></trkpt><trkpt lat="38.53766227927091" lon="16.286972216821592"><ele>1056.0</ele><time>2026-04-28T06:38:50Z</time></trkpt><trkpt lat="38.537598737679964" lon="16.286799258014707"><ele>1056.0</ele><time>2026-04-28T06:38:51Z</time></trkpt><trkpt lat="38.53753967875816" lon="16.286621772007667"><ele>1056.0</ele><time>2026-04-28T06:38:52Z</time></trkpt><trkpt lat="38.53748708133414" lon="16.286453685337733"><ele>1056.0</ele><time>2026-04-28T06:38:53Z</time></trkpt><trkpt lat="38.53745091030529" lon="16.286283680689976"><ele>1056.0</ele><time>2026-04-28T06:38:54Z</time></trkpt><trkpt lat="38.537436585546416" lon="16.28612384138631"><ele>1055.5</ele><time>2026-04-28T06:38:55Z</time></trkpt><trkpt lat="38.537437852019174" lon="16.285956746796202"><ele>1055.0</ele><time>2026-04-28T06:38:56Z</time></trkpt><trkpt lat="38.53746004745236" lon="16.285779938086225"><ele>1054.5</ele><time>2026-04-28T06:38:57Z</time></trkpt><trkpt lat="38.53747525487052" lon="16.285595037808378"><ele>1054.0</ele><time>2026-04-28T06:38:58Z</time></trkpt><trkpt lat="38.53751182923531" lon="16.285431175758166"><ele>1053.3333333333333</ele><time>2026-04-28T06:38:59Z</time></trkpt><trkpt lat="38.53752729238752" lon="16.285264693481285"><ele>1052.6666666666667</ele><time>2026-04-28T06:39:00Z</time></trkpt><trkpt lat="38.53749964722075" lon="16.28505173081936"><ele>1052.0</ele><time>2026-04-28T06:39:01Z</time></trkpt><trkpt lat="38.53744923204782" lon="16.284860308060434"><ele>1052.6666666666667</ele><time>2026-04-28T06:39:02Z</time></trkpt><trkpt lat="38.537392180976994" lon="16.28464750987984"><ele>1053.3333333333333</ele><time>2026-04-28T06:39:03Z</time></trkpt><trkpt lat="38.53733702144988" lon="16.284465424370925"><ele>1054.0</ele><time>2026-04-28T06:39:04Z</time></trkpt><trkpt lat="38.53728588905188" lon="16.284301710942955"><ele>1054.0</ele><time>2026-04-28T06:39:05Z</time></trkpt><trkpt lat="38.53723577440264" lon="16.28415251997226"><ele>1054.0</ele><time>2026-04-28T06:39:06Z</time></trkpt><trkpt lat="38.53718244515474" lon="16.284010339952435"><ele>1054.0</ele><time>2026-04-28T06:39:07Z</time></trkpt><trkpt lat="38.53711836428867" lon="16.28387170954937"><ele>1054.0</ele><time>2026-04-28T06:39:08Z</time></trkpt><trkpt lat="38.53704847339607" lon="16.283737194542283"><ele>1053.3333333333333</ele><time>2026-04-28T06:39:09Z</time></trkpt><trkpt lat="38.53696771231061" lon="16.283585240276192"><ele>1052.6666666666667</ele><time>2026-04-28T06:39:10Z</time></trkpt><trkpt lat="38.53686874257356" lon="16.283414857594746"><ele>1052.0</ele><time>2026-04-28T06:39:11Z</time></trkpt><trkpt lat="38.536799820512606" lon="16.28325228031053"><ele>1053.6666666666667</ele><time>2026-04-28T06:39:12Z</time></trkpt><trkpt lat="38.53671986112648" lon="16.28307437400799"><ele>1055.3333333333333</ele><time>2026-04-28T06:39:13Z</time></trkpt><trkpt lat="38.536634839809345" lon="16.282909858411326"><ele>1057.0</ele><time>2026-04-28T06:39:14Z</time></trkpt><trkpt lat="38.53656094345628" lon="16.28275565756448"><ele>1057.0</ele><time>2026-04-28T06:39:15Z</time></trkpt><trkpt lat="38.53648415047023" lon="16.282596352202585"><ele>1057.0</ele><time>2026-04-28T06:39:16Z</time></trkpt><trkpt lat="38.53643935481331" lon="16.282420915710208"><ele>1057.0</ele><time>2026-04-28T06:39:17Z</time></trkpt><trkpt lat="38.536395739839186" lon="16.282270275112086"><ele>1057.0</ele><time>2026-04-28T06:39:18Z</time></trkpt><trkpt lat="38.5363558182541" lon="16.28211114273002"><ele>1059.0</ele><time>2026-04-28T06:39:19Z</time></trkpt><trkpt lat="38.53631623234321" lon="16.281922630056382"><ele>1061.0</ele><time>2026-04-28T06:39:20Z</time></trkpt><trkpt lat="38.53627423187135" lon="16.28170993024618"><ele>1063.0</ele><time>2026-04-28T06:39:21Z</time></trkpt><trkpt lat="38.536228001091054" lon="16.281478216464066"><ele>1063.0</ele><time>2026-04-28T06:39:22Z</time></trkpt><trkpt lat="38.536186089518935" lon="16.281259662196785"><ele>1063.0</ele><time>2026-04-28T06:39:23Z</time></trkpt><trkpt lat="38.53614664150809" lon="16.28106043650845"><ele>1063.0</ele><time>2026-04-28T06:39:24Z</time></trkpt><trkpt lat="38.53611026354791" lon="16.28088026549421"><ele>1063.0</ele><time>2026-04-28T06:39:25Z</time></trkpt><trkpt lat="38.53607290662625" lon="16.280685861130618"><ele>1063.0</ele><time>2026-04-28T06:39:26Z</time></trkpt><trkpt lat="38.53606719292089" lon="16.280482699279283"><ele>1063.0</ele><time>2026-04-28T06:39:27Z</time></trkpt><trkpt lat="38.536082260958324" lon="16.280274826075367"><ele>1063.3333333333333</ele><time>2026-04-28T06:39:28Z</time></trkpt><trkpt lat="38.53610736691078" lon="16.280070983558304"><ele>1063.6666666666667</ele><time>2026-04-28T06:39:29Z</time></trkpt><trkpt lat="38.536141954293235" lon="16.27988285794564"><ele>1064.0</ele><time>2026-04-28T06:39:30Z</time></trkpt><trkpt lat="38.53617203177713" lon="16.279696062227142"><ele>1061.75</ele><time>2026-04-28T06:39:31Z</time></trkpt><trkpt lat="38.536190806796405" lon="16.27951542689911"><ele>1059.5</ele><time>2026-04-28T06:39:32Z</time></trkpt><trkpt lat="38.536200463810424" lon="16.279342171520877"><ele>1057.25</ele><time>2026-04-28T06:39:33Z</time></trkpt><trkpt lat="38.536195032035614" lon="16.279157593279535"><ele>1055.0</ele><time>2026-04-28T06:39:34Z</time></trkpt><trkpt lat="38.53617595158598" lon="16.278950244829947"><ele>1055.0</ele><time>2026-04-28T06:39:35Z</time></trkpt><trkpt lat="38.53614646431978" lon="16.278721133949535"><ele>1055.0</ele><time>2026-04-28T06:39:36Z</time></trkpt><trkpt lat="38.53611665041206" lon="16.27851121259132"><ele>1055.0</ele><time>2026-04-28T06:39:37Z</time></trkpt><trkpt lat="38.53607048639528" lon="16.278298748273833"><ele>1057.3333333333335</ele><time>2026-04-28T06:39:38Z</time></trkpt><trkpt lat="38.53605781190107" lon="16.278085125799617"><ele>1059.6666666666667</ele><time>2026-04-28T06:39:39Z</time></trkpt><trkpt lat="38.536027326629174" lon="16.2778929724183"><ele>1062.0</ele><time>2026-04-28T06:39:40Z</time></trkpt><trkpt lat="38.53602334831692" lon="16.277688105265717"><ele>1062.0</ele><time>2026-04-28T06:39:41Z</time></trkpt><trkpt lat="38.53603765700009" lon="16.277467717543242"><ele>1062.0</ele><time>2026-04-28T06:39:42Z</time></trkpt><trkpt lat="38.536062986170315" lon="16.27722520444784"><ele>1062.0</ele><time>2026-04-28T06:39:42.999Z</time></trkpt><trkpt lat="38.53609326390184" lon="16.276994212279096"><ele>1064.3333333333333</ele><time>2026-04-28T06:39:43.999Z</time></trkpt><trkpt lat="38.536117442973556" lon="16.276777866756234"><ele>1066.6666666666665</ele><time>2026-04-28T06:39:44.999Z</time></trkpt><trkpt lat="38.53613380651599" lon="16.276574359306448"><ele>1069.0</ele><time>2026-04-28T06:39:45.999Z</time></trkpt><trkpt lat="38.536137995414116" lon="16.276365745061124"><ele>1069.0</ele><time>2026-04-28T06:39:46.999Z</time></trkpt><trkpt lat="38.53612152075047" lon="16.276162586301574"><ele>1069.0</ele><time>2026-04-28T06:39:47.999Z</time></trkpt><trkpt lat="38.53607613703148" lon="16.275957063083744"><ele>1069.0</ele><time>2026-04-28T06:39:48.999Z</time></trkpt><trkpt lat="38.536019123920255" lon="16.275752531502363"><ele>1071.3333333333333</ele><time>2026-04-28T06:39:49.999Z</time></trkpt><trkpt lat="38.535925686145426" lon="16.27556787019509"><ele>1073.6666666666667</ele><time>2026-04-28T06:39:50.999Z</time></trkpt><trkpt lat="38.53579803807171" lon="16.27540487563377"><ele>1076.0</ele><time>2026-04-28T06:39:51.999Z</time></trkpt><trkpt lat="38.535661878061255" lon="16.275242180676926"><ele>1076.0</ele><time>2026-04-28T06:39:52.999Z</time></trkpt><trkpt lat="38.53552116554555" lon="16.275070594538697"><ele>1076.0</ele><time>2026-04-28T06:39:53.999Z</time></trkpt><trkpt lat="38.53538046156647" lon="16.274899018764707"><ele>1076.0</ele><time>2026-04-28T06:39:54.999Z</time></trkpt><trkpt lat="38.535200799933975" lon="16.274679863873637"><ele>1076.0</ele><time>2026-04-28T06:39:55.999Z</time></trkpt><trkpt lat="38.53504588471662" lon="16.274489881480708"><ele>1076.0</ele><time>2026-04-28T06:39:56.999Z</time></trkpt><trkpt lat="38.534905402477214" lon="16.274317503720482"><ele>1076.0</ele><time>2026-04-28T06:39:57.999Z</time></trkpt><trkpt lat="38.53475561647323" lon="16.274133709839845"><ele>1076.0</ele><time>2026-04-28T06:39:58.999Z</time></trkpt><trkpt lat="38.53461648666305" lon="16.273962991591624"><ele>1076.0</ele><time>2026-04-28T06:39:59.999Z</time></trkpt><trkpt lat="38.53449843723964" lon="16.273814071220688"><ele>1076.0</ele><time>2026-04-28T06:40:00.999Z</time></trkpt><trkpt lat="38.53439008608958" lon="16.273665274840933"><ele>1079.25</ele><time>2026-04-28T06:40:01.999Z</time></trkpt><trkpt lat="38.53431688025273" lon="16.273499979188557"><ele>1082.5</ele><time>2026-04-28T06:40:02.999Z</time></trkpt><trkpt lat="38.53426225089268" lon="16.27332992834358"><ele>1085.75</ele><time>2026-04-28T06:40:03.999Z</time></trkpt><trkpt lat="38.53419662265698" lon="16.273159449218966"><ele>1089.0</ele><time>2026-04-28T06:40:04.999Z</time></trkpt><trkpt lat="38.53412855943156" lon="16.27298561922535"><ele>1090.0</ele><time>2026-04-28T06:40:05.999Z</time></trkpt><trkpt lat="38.53405658773602" lon="16.27280366866387"><ele>1091.0</ele><time>2026-04-28T06:40:06.999Z</time></trkpt><trkpt lat="38.533958817018885" lon="16.2726450287564"><ele>1092.0</ele><time>2026-04-28T06:40:07.999Z</time></trkpt><trkpt lat="38.53383181969774" lon="16.27254573751506"><ele>1093.25</ele><time>2026-04-28T06:40:08.999Z</time></trkpt><trkpt lat="38.53370992174107" lon="16.2724443181555"><ele>1094.5</ele><time>2026-04-28T06:40:09.999Z</time></trkpt><trkpt lat="38.533600380908595" lon="16.272373678290265"><ele>1095.75</ele><time>2026-04-28T06:40:10.999Z</time></trkpt><trkpt lat="38.533494051055115" lon="16.27229669933691"><ele>1097.0</ele><time>2026-04-28T06:40:11.999Z</time></trkpt><trkpt lat="38.53339071892294" lon="16.272206627161314"><ele>1097.25</ele><time>2026-04-28T06:40:12.999Z</time></trkpt><trkpt lat="38.533286167040565" lon="16.27211124520032"><ele>1097.5</ele><time>2026-04-28T06:40:13.999Z</time></trkpt><trkpt lat="38.53319004991703" lon="16.272045981987986"><ele>1097.75</ele><time>2026-04-28T06:40:14.999Z</time></trkpt><trkpt lat="38.53308920993656" lon="16.271985061719917"><ele>1098.0</ele><time>2026-04-28T06:40:15.999Z</time></trkpt><trkpt lat="38.5329782717629" lon="16.271939722715754"><ele>1097.25</ele><time>2026-04-28T06:40:17.001Z</time></trkpt><trkpt lat="38.53286125006827" lon="16.271888752877636"><ele>1096.5</ele><time>2026-04-28T06:40:18.001Z</time></trkpt><trkpt lat="38.53270946560118" lon="16.271844339337605"><ele>1095.75</ele><time>2026-04-28T06:40:19.001Z</time></trkpt><trkpt lat="38.53254080281045" lon="16.27182363810268"><ele>1095.0</ele><time>2026-04-28T06:40:20.001Z</time></trkpt><trkpt lat="38.532363387365535" lon="16.271791891429928"><ele>1095.0</ele><time>2026-04-28T06:40:21.001Z</time></trkpt><trkpt lat="38.532166667359476" lon="16.271791738231435"><ele>1095.0</ele><time>2026-04-28T06:40:22.001Z</time></trkpt><trkpt lat="38.53196893995646" lon="16.271801068733613"><ele>1095.0</ele><time>2026-04-28T06:40:23.001Z</time></trkpt><trkpt lat="38.53178637136286" lon="16.271815859663977"><ele>1093.75</ele><time>2026-04-28T06:40:24.001Z</time></trkpt><trkpt lat="38.53163227099565" lon="16.271788306627023"><ele>1092.5</ele><time>2026-04-28T06:40:25.001Z</time></trkpt><trkpt lat="38.53149414870543" lon="16.271744510178124"><ele>1091.25</ele><time>2026-04-28T06:40:26.001Z</time></trkpt><trkpt lat="38.53135665624915" lon="16.271681698830722"><ele>1090.0</ele><time>2026-04-28T06:40:27.001Z</time></trkpt><trkpt lat="38.531234675122406" lon="16.271596422048383"><ele>1089.3333333333333</ele><time>2026-04-28T06:40:28.001Z</time></trkpt><trkpt lat="38.53110305673995" lon="16.271493658452357"><ele>1088.6666666666667</ele><time>2026-04-28T06:40:29.001Z</time></trkpt><trkpt lat="38.530957718691056" lon="16.27139832614104"><ele>1088.0</ele><time>2026-04-28T06:40:30.001Z</time></trkpt><trkpt lat="38.53079916876904" lon="16.27130432663645"><ele>1090.3333333333335</ele><time>2026-04-28T06:40:31.001Z</time></trkpt><trkpt lat="38.530620055698115" lon="16.271216880457686"><ele>1092.6666666666667</ele><time>2026-04-28T06:40:32.001Z</time></trkpt><trkpt lat="38.530441404985744" lon="16.27114907250484"><ele>1095.0</ele><time>2026-04-28T06:40:33.001Z</time></trkpt><trkpt lat="38.530282632761825" lon="16.2710882906953"><ele>1095.0</ele><time>2026-04-28T06:40:34.001Z</time></trkpt><trkpt lat="38.530151700543406" lon="16.271037891778583"><ele>1095.0</ele><time>2026-04-28T06:40:35Z</time></trkpt><trkpt lat="38.530014496634955" lon="16.270986463406057"><ele>1095.0</ele><time>2026-04-28T06:40:36Z</time></trkpt><trkpt lat="38.52987252012185" lon="16.27094680163717"><ele>1095.0</ele><time>2026-04-28T06:40:37Z</time></trkpt><trkpt lat="38.52975335142906" lon="16.270929619145637"><ele>1095.0</ele><time>2026-04-28T06:40:38Z</time></trkpt><trkpt lat="38.529637389954345" lon="16.27092950980443"><ele>1095.0</ele><time>2026-04-28T06:40:39Z</time></trkpt><trkpt lat="38.5295149896441" lon="16.270945153579255"><ele>1095.0</ele><time>2026-04-28T06:40:40Z</time></trkpt><trkpt lat="38.52935787384327" lon="16.27098239572347"><ele>1095.0</ele><time>2026-04-28T06:40:41Z</time></trkpt><trkpt lat="38.529160514664184" lon="16.27102815545935"><ele>1093.6666666666667</ele><time>2026-04-28T06:40:42Z</time></trkpt><trkpt lat="38.52897766760019" lon="16.271072232907617"><ele>1092.3333333333335</ele><time>2026-04-28T06:40:43Z</time></trkpt><trkpt lat="38.5288469165133" lon="16.271126541833052"><ele>1091.0</ele><time>2026-04-28T06:40:44Z</time></trkpt><trkpt lat="38.528714680788354" lon="16.271153897504394"><ele>1091.0</ele><time>2026-04-28T06:40:45Z</time></trkpt><trkpt lat="38.52857279706908" lon="16.27116235234035"><ele>1091.0</ele><time>2026-04-28T06:40:46Z</time></trkpt><trkpt lat="38.528417630143764" lon="16.27118980331417"><ele>1091.0</ele><time>2026-04-28T06:40:47Z</time></trkpt><trkpt lat="38.52825586823321" lon="16.271216240235976"><ele>1091.0</ele><time>2026-04-28T06:40:48Z</time></trkpt><trkpt lat="38.52808081337069" lon="16.2712448496153"><ele>1091.0</ele><time>2026-04-28T06:40:49Z</time></trkpt><trkpt lat="38.52788975383708" lon="16.271276074666954"><ele>1091.0</ele><time>2026-04-28T06:40:50Z</time></trkpt><trkpt lat="38.52771338054313" lon="16.27130127217434"><ele>1093.0</ele><time>2026-04-28T06:40:51Z</time></trkpt><trkpt lat="38.52754663750892" lon="16.271345658903556"><ele>1095.0</ele><time>2026-04-28T06:40:52Z</time></trkpt><trkpt lat="38.52738197309609" lon="16.271367289543782"><ele>1097.0</ele><time>2026-04-28T06:40:53Z</time></trkpt><trkpt lat="38.52719264941882" lon="16.271391010776743"><ele>1098.0</ele><time>2026-04-28T06:40:54Z</time></trkpt><trkpt lat="38.526976509567646" lon="16.27140325850098"><ele>1099.0</ele><time>2026-04-28T06:40:55Z</time></trkpt><trkpt lat="38.52677172810447" lon="16.27143479997129"><ele>1100.0</ele><time>2026-04-28T06:40:56Z</time></trkpt><trkpt lat="38.52659215681813" lon="16.271469193045007"><ele>1099.0</ele><time>2026-04-28T06:40:57Z</time></trkpt><trkpt lat="38.52643436257274" lon="16.271492800667694"><ele>1098.0</ele><time>2026-04-28T06:40:58Z</time></trkpt><trkpt lat="38.52627133241228" lon="16.27151404227875"><ele>1097.0</ele><time>2026-04-28T06:40:59Z</time></trkpt><trkpt lat="38.52611522510891" lon="16.271532336731585"><ele>1097.0</ele><time>2026-04-28T06:41:00Z</time></trkpt><trkpt lat="38.525958742485834" lon="16.271550361659838"><ele>1097.0</ele><time>2026-04-28T06:41:01Z</time></trkpt><trkpt lat="38.52578429399862" lon="16.271570456033363"><ele>1097.0</ele><time>2026-04-28T06:41:02Z</time></trkpt><trkpt lat="38.525621644696635" lon="16.27158919128978"><ele>1097.0</ele><time>2026-04-28T06:41:03Z</time></trkpt><trkpt lat="38.52546785845381" lon="16.271605744462686"><ele>1097.0</ele><time>2026-04-28T06:41:04Z</time></trkpt><trkpt lat="38.52531663200032" lon="16.271620719478676"><ele>1097.0</ele><time>2026-04-28T06:41:05Z</time></trkpt><trkpt lat="38.52515481492175" lon="16.271655039508964"><ele>1097.0</ele><time>2026-04-28T06:41:06Z</time></trkpt><trkpt lat="38.5249956900209" lon="16.271646706503496"><ele>1097.0</ele><time>2026-04-28T06:41:07Z</time></trkpt><trkpt lat="38.5248256525851" lon="16.271684617731268"><ele>1097.0</ele><time>2026-04-28T06:41:08Z</time></trkpt><trkpt lat="38.52463642890023" lon="16.271769159893044"><ele>1096.6666666666667</ele><time>2026-04-28T06:41:09Z</time></trkpt><trkpt lat="38.52443999929551" lon="16.271844162748735"><ele>1096.3333333333333</ele><time>2026-04-28T06:41:10Z</time></trkpt><trkpt lat="38.524258903246285" lon="16.27191925654111"><ele>1096.0</ele><time>2026-04-28T06:41:11Z</time></trkpt><trkpt lat="38.524085789327785" lon="16.271996857795564"><ele>1096.0</ele><time>2026-04-28T06:41:12Z</time></trkpt><trkpt lat="38.52392892847458" lon="16.272043505965495"><ele>1096.0</ele><time>2026-04-28T06:41:13Z</time></trkpt><trkpt lat="38.523798969851626" lon="16.272110411942638"><ele>1096.0</ele><time>2026-04-28T06:41:14Z</time></trkpt><trkpt lat="38.52368132727203" lon="16.27212948631427"><ele>1096.0</ele><time>2026-04-28T06:41:15Z</time></trkpt><trkpt lat="38.52355552201559" lon="16.27213731760098"><ele>1097.6666666666665</ele><time>2026-04-28T06:41:16Z</time></trkpt><trkpt lat="38.52342728280674" lon="16.272068648280793"><ele>1099.3333333333333</ele><time>2026-04-28T06:41:17Z</time></trkpt><trkpt lat="38.52328676658338" lon="16.271983847320517"><ele>1101.0</ele><time>2026-04-28T06:41:18Z</time></trkpt><trkpt lat="38.52311458070595" lon="16.271889353684543"><ele>1101.0</ele><time>2026-04-28T06:41:19Z</time></trkpt><trkpt lat="38.52292433344848" lon="16.271819534043555"><ele>1101.0</ele><time>2026-04-28T06:41:20Z</time></trkpt><trkpt lat="38.52274002853783" lon="16.271727446802444"><ele>1101.0</ele><time>2026-04-28T06:41:21Z</time></trkpt><trkpt lat="38.522548374125456" lon="16.271659584633742"><ele>1102.6666666666667</ele><time>2026-04-28T06:41:22Z</time></trkpt><trkpt lat="38.522379759331905" lon="16.27160112009445"><ele>1104.3333333333335</ele><time>2026-04-28T06:41:23Z</time></trkpt><trkpt lat="38.5222282614679" lon="16.271549029726803"><ele>1106.0</ele><time>2026-04-28T06:41:24Z</time></trkpt><trkpt lat="38.52207565263624" lon="16.271492919577202"><ele>1106.0</ele><time>2026-04-28T06:41:25Z</time></trkpt><trkpt lat="38.52190873566737" lon="16.271442431126054"><ele>1106.0</ele><time>2026-04-28T06:41:26Z</time></trkpt><trkpt lat="38.521738688624616" lon="16.271383875147688"><ele>1106.0</ele><time>2026-04-28T06:41:27Z</time></trkpt><trkpt lat="38.521557261182025" lon="16.27134186419593"><ele>1108.6666666666667</ele><time>2026-04-28T06:41:28Z</time></trkpt><trkpt lat="38.52138154922874" lon="16.271276892468794"><ele>1111.3333333333333</ele><time>2026-04-28T06:41:29Z</time></trkpt><trkpt lat="38.52122169647684" lon="16.271200403276644"><ele>1114.0</ele><time>2026-04-28T06:41:30Z</time></trkpt><trkpt lat="38.521063870089804" lon="16.27114390036372"><ele>1115.0</ele><time>2026-04-28T06:41:31Z</time></trkpt><trkpt lat="38.520920085396554" lon="16.27109242447565"><ele>1116.0</ele><time>2026-04-28T06:41:32Z</time></trkpt><trkpt lat="38.52076907885337" lon="16.2710383631678"><ele>1117.0</ele><time>2026-04-28T06:41:33Z</time></trkpt><trkpt lat="38.52062435293032" lon="16.270987013491524"><ele>1117.0</ele><time>2026-04-28T06:41:34Z</time></trkpt><trkpt lat="38.520473511830794" lon="16.27093490546626"><ele>1117.0</ele><time>2026-04-28T06:41:35Z</time></trkpt><trkpt lat="38.52031239193449" lon="16.27089916511264"><ele>1117.0</ele><time>2026-04-28T06:41:36Z</time></trkpt><trkpt lat="38.520135676256594" lon="16.270835527264534"><ele>1117.0</ele><time>2026-04-28T06:41:37Z</time></trkpt><trkpt lat="38.519963863144895" lon="16.270790132213815"><ele>1117.0</ele><time>2026-04-28T06:41:38Z</time></trkpt><trkpt lat="38.51980706297341" lon="16.270749248705183"><ele>1117.0</ele><time>2026-04-28T06:41:39Z</time></trkpt><trkpt lat="38.51965173348724" lon="16.270712467901863"><ele>1119.0</ele><time>2026-04-28T06:41:40Z</time></trkpt><trkpt lat="38.51951616627957" lon="16.270706156217148"><ele>1121.0</ele><time>2026-04-28T06:41:41Z</time></trkpt><trkpt lat="38.51942004900285" lon="16.27070884149519"><ele>1123.0</ele><time>2026-04-28T06:41:42Z</time></trkpt><trkpt lat="38.51935535258793" lon="16.27070734635655"><ele>1125.0</ele><time>2026-04-28T06:41:43Z</time></trkpt><trkpt lat="38.51923884040895" lon="16.27072107729703"><ele>1127.0</ele><time>2026-04-28T06:41:45Z</time></trkpt><trkpt lat="38.519147509005634" lon="16.27073748081618"><ele>1127.0</ele><time>2026-04-28T06:41:47Z</time></trkpt><trkpt lat="38.519074042188656" lon="16.270792445105897"><ele>1127.0</ele><time>2026-04-28T06:41:48.999Z</time></trkpt><trkpt lat="38.51900481267727" lon="16.270870628952984"><ele>1127.0</ele><time>2026-04-28T06:41:51.999Z</time></trkpt><trkpt lat="38.518691320996965" lon="16.270483368585428"><ele>1129.6</ele><time>2026-04-28T06:41:52.999Z</time></trkpt><trkpt lat="38.51859945450251" lon="16.27049204499863"><ele>1132.2</ele><time>2026-04-28T06:41:53.999Z</time></trkpt><trkpt lat="38.518516483799296" lon="16.270474325356872"><ele>1134.8</ele><time>2026-04-28T06:41:54.999Z</time></trkpt><trkpt lat="38.51843696612634" lon="16.270421774662143"><ele>1137.4</ele><time>2026-04-28T06:41:55.999Z</time></trkpt><trkpt lat="38.51835259226255" lon="16.2703448268924"><ele>1140.0</ele><time>2026-04-28T06:41:56.999Z</time></trkpt><trkpt lat="38.51823607050374" lon="16.270246500606163"><ele>1140.0</ele><time>2026-04-28T06:41:57.999Z</time></trkpt><trkpt lat="38.51811373334892" lon="16.270119768631663"><ele>1140.0</ele><time>2026-04-28T06:41:58.999Z</time></trkpt><trkpt lat="38.51799583719159" lon="16.2700255571534"><ele>1140.0</ele><time>2026-04-28T06:41:59.999Z</time></trkpt><trkpt lat="38.517909830180415" lon="16.269961313676923"><ele>1140.0</ele><time>2026-04-28T06:42:00.999Z</time></trkpt><trkpt lat="38.517863886647454" lon="16.269892885896535"><ele>1140.0</ele><time>2026-04-28T06:42:01.999Z</time></trkpt><trkpt lat="38.51782339285071" lon="16.269780297459548"><ele>1140.0</ele><time>2026-04-28T06:42:02.999Z</time></trkpt><trkpt lat="38.51776958767213" lon="16.26965442015495"><ele>1140.0</ele><time>2026-04-28T06:42:03.999Z</time></trkpt><trkpt lat="38.517689655404425" lon="16.26954983211047"><ele>1140.0</ele><time>2026-04-28T06:42:04.999Z</time></trkpt><trkpt lat="38.51762335650445" lon="16.269444675177812"><ele>1140.0</ele><time>2026-04-28T06:42:05.999Z</time></trkpt><trkpt lat="38.517556430455855" lon="16.269345403321562"><ele>1141.2</ele><time>2026-04-28T06:42:06.999Z</time></trkpt><trkpt lat="38.51751932410445" lon="16.26923180862526"><ele>1142.4</ele><time>2026-04-28T06:42:07.999Z</time></trkpt><trkpt lat="38.51748538544977" lon="16.26908591710094"><ele>1143.6</ele><time>2026-04-28T06:42:08.999Z</time></trkpt><trkpt lat="38.5174623974613" lon="16.2689478578644"><ele>1144.8</ele><time>2026-04-28T06:42:09.999Z</time></trkpt><trkpt lat="38.517445329381644" lon="16.26881590706854"><ele>1146.0</ele><time>2026-04-28T06:42:10.999Z</time></trkpt><trkpt lat="38.5174194222609" lon="16.268709135235802"><ele>1146.6</ele><time>2026-04-28T06:42:11.999Z</time></trkpt><trkpt lat="38.51738934471345" lon="16.2686117875201"><ele>1147.1999999999998</ele><time>2026-04-28T06:42:12.999Z</time></trkpt><trkpt lat="38.51734555732559" lon="16.268506852871177"><ele>1147.8000000000002</ele><time>2026-04-28T06:42:13.999Z</time></trkpt><trkpt lat="38.51731817726044" lon="16.268400583085146"><ele>1148.4</ele><time>2026-04-28T06:42:14.999Z</time></trkpt><trkpt lat="38.51728417436019" lon="16.268280988846765"><ele>1149.0</ele><time>2026-04-28T06:42:15.999Z</time></trkpt><trkpt lat="38.51724678490408" lon="16.2681606596559"><ele>1149.4</ele><time>2026-04-28T06:42:16.999Z</time></trkpt><trkpt lat="38.51720530944159" lon="16.2680356039032"><ele>1149.8000000000002</ele><time>2026-04-28T06:42:17.999Z</time></trkpt><trkpt lat="38.51717652317597" lon="16.267905332662252"><ele>1150.1999999999998</ele><time>2026-04-28T06:42:18.999Z</time></trkpt><trkpt lat="38.5171500687641" lon="16.267773257258977"><ele>1150.6</ele><time>2026-04-28T06:42:19.999Z</time></trkpt><trkpt lat="38.517115921256575" lon="16.267659997363367"><ele>1151.0</ele><time>2026-04-28T06:42:20.999Z</time></trkpt><trkpt lat="38.517080839986164" lon="16.26752859147578"><ele>1150.5</ele><time>2026-04-28T06:42:21.999Z</time></trkpt><trkpt lat="38.51703238492462" lon="16.267364521294176"><ele>1150.0</ele><time>2026-04-28T06:42:23Z</time></trkpt><trkpt lat="38.51697801865825" lon="16.267227422063712"><ele>1149.5</ele><time>2026-04-28T06:42:24Z</time></trkpt><trkpt lat="38.516928055225755" lon="16.26711407808512"><ele>1149.0</ele><time>2026-04-28T06:42:25Z</time></trkpt><trkpt lat="38.51689914030723" lon="16.267002266271927"><ele>1149.8</ele><time>2026-04-28T06:42:26Z</time></trkpt><trkpt lat="38.516897034087016" lon="16.266881341589926"><ele>1150.6000000000001</ele><time>2026-04-28T06:42:27Z</time></trkpt><trkpt lat="38.51688186590504" lon="16.266734911854826"><ele>1151.4</ele><time>2026-04-28T06:42:28Z</time></trkpt><trkpt lat="38.516862615040196" lon="16.266589302162977"><ele>1152.2</ele><time>2026-04-28T06:42:29Z</time></trkpt><trkpt lat="38.516851118961405" lon="16.266449806415263"><ele>1153.0</ele><time>2026-04-28T06:42:30Z</time></trkpt><trkpt lat="38.51682616135606" lon="16.2663157462822"><ele>1154.2</ele><time>2026-04-28T06:42:31Z</time></trkpt><trkpt lat="38.51679253527729" lon="16.266197027475815"><ele>1155.4</ele><time>2026-04-28T06:42:32Z</time></trkpt><trkpt lat="38.51676906746922" lon="16.266089757452708"><ele>1156.6000000000001</ele><time>2026-04-28T06:42:33Z</time></trkpt><trkpt lat="38.516754599890135" lon="16.265970943874787"><ele>1157.8</ele><time>2026-04-28T06:42:34Z</time></trkpt><trkpt lat="38.51675105995506" lon="16.265858619288576"><ele>1159.0</ele><time>2026-04-28T06:42:35Z</time></trkpt><trkpt lat="38.51675688080548" lon="16.265711349475517"><ele>1159.0</ele><time>2026-04-28T06:42:36Z</time></trkpt><trkpt lat="38.516752588156706" lon="16.265530518169836"><ele>1159.0</ele><time>2026-04-28T06:42:37Z</time></trkpt><trkpt lat="38.516748745338454" lon="16.265370796225877"><ele>1159.0</ele><time>2026-04-28T06:42:38Z</time></trkpt><trkpt lat="38.516742263093505" lon="16.26524380563122"><ele>1159.0</ele><time>2026-04-28T06:42:39Z</time></trkpt><trkpt lat="38.51671057295486" lon="16.265129578543636"><ele>1159.0</ele><time>2026-04-28T06:42:40Z</time></trkpt><trkpt lat="38.516674829290736" lon="16.265035973135962"><ele>1159.0</ele><time>2026-04-28T06:42:41Z</time></trkpt><trkpt lat="38.51662369473104" lon="16.26494762289252"><ele>1159.0</ele><time>2026-04-28T06:42:42Z</time></trkpt><trkpt lat="38.516554547969584" lon="16.26489292098647"><ele>1159.0</ele><time>2026-04-28T06:42:43Z</time></trkpt><trkpt lat="38.51647571097231" lon="16.264855547890228"><ele>1159.0</ele><time>2026-04-28T06:42:44Z</time></trkpt><trkpt lat="38.516386004308586" lon="16.26482966252116"><ele>1159.0</ele><time>2026-04-28T06:42:45Z</time></trkpt><trkpt lat="38.51631361767627" lon="16.26482851423643"><ele>1159.4</ele><time>2026-04-28T06:42:46Z</time></trkpt><trkpt lat="38.5162347810127" lon="16.264852332685695"><ele>1159.8000000000002</ele><time>2026-04-28T06:42:47Z</time></trkpt><trkpt lat="38.51613583117429" lon="16.264901438106648"><ele>1160.1999999999998</ele><time>2026-04-28T06:42:48Z</time></trkpt><trkpt lat="38.51602713933317" lon="16.26494211648645"><ele>1160.6</ele><time>2026-04-28T06:42:49Z</time></trkpt><trkpt lat="38.51593863071784" lon="16.26495771848154"><ele>1161.0</ele><time>2026-04-28T06:42:50Z</time></trkpt><trkpt lat="38.51588181680952" lon="16.26492044099895"><ele>1161.0</ele><time>2026-04-28T06:42:51Z</time></trkpt><trkpt lat="38.51580659137617" lon="16.264851550186215"><ele>1161.0</ele><time>2026-04-28T06:42:52Z</time></trkpt><trkpt lat="38.51571663317704" lon="16.26477155371236"><ele>1161.0</ele><time>2026-04-28T06:42:53Z</time></trkpt><trkpt lat="38.515645876868575" lon="16.264680951391497"><ele>1161.0</ele><time>2026-04-28T06:42:54Z</time></trkpt><trkpt lat="38.515593733520625" lon="16.26456982851746"><ele>1161.0</ele><time>2026-04-28T06:42:55Z</time></trkpt><trkpt lat="38.51553729955487" lon="16.264427557507243"><ele>1160.25</ele><time>2026-04-28T06:42:56Z</time></trkpt><trkpt lat="38.51548449133018" lon="16.264261150569986"><ele>1159.5</ele><time>2026-04-28T06:42:57Z</time></trkpt><trkpt lat="38.515433348297655" lon="16.264110982525185"><ele>1158.75</ele><time>2026-04-28T06:42:58Z</time></trkpt><trkpt lat="38.5153800839087" lon="16.263966026741965"><ele>1158.0</ele><time>2026-04-28T06:42:59Z</time></trkpt><trkpt lat="38.51530449983713" lon="16.263844397253852"><ele>1159.4</ele><time>2026-04-28T06:43:00Z</time></trkpt><trkpt lat="38.51522391667936" lon="16.26376581742577"><ele>1160.8</ele><time>2026-04-28T06:43:01Z</time></trkpt><trkpt lat="38.51512579890418" lon="16.263688377566794"><ele>1162.2</ele><time>2026-04-28T06:43:02Z</time></trkpt><trkpt lat="38.51504264870149" lon="16.26361892138713"><ele>1163.6</ele><time>2026-04-28T06:43:03Z</time></trkpt><trkpt lat="38.5149818426557" lon="16.263530048713925"><ele>1165.0</ele><time>2026-04-28T06:43:04Z</time></trkpt><trkpt lat="38.51490989682027" lon="16.26342971746532"><ele>1165.0</ele><time>2026-04-28T06:43:05Z</time></trkpt><trkpt lat="38.51482780879771" lon="16.263347553446557"><ele>1165.0</ele><time>2026-04-28T06:43:06Z</time></trkpt><trkpt lat="38.514744710160116" lon="16.263276804162498"><ele>1165.0</ele><time>2026-04-28T06:43:07Z</time></trkpt><trkpt lat="38.514677663542415" lon="16.263176784683658"><ele>1165.0</ele><time>2026-04-28T06:43:08Z</time></trkpt><trkpt lat="38.51458739487793" lon="16.26311515221602"><ele>1165.0</ele><time>2026-04-28T06:43:09Z</time></trkpt><trkpt lat="38.51450556020315" lon="16.263107828977255"><ele>1166.5</ele><time>2026-04-28T06:43:10Z</time></trkpt><trkpt lat="38.514381104522414" lon="16.263037475771615"><ele>1168.0</ele><time>2026-04-28T06:43:12Z</time></trkpt><trkpt lat="38.51428442299271" lon="16.262996216302085"><ele>1169.5</ele><time>2026-04-28T06:43:13Z</time></trkpt><trkpt lat="38.51416680680063" lon="16.262955764593123"><ele>1171.0</ele><time>2026-04-28T06:43:14Z</time></trkpt><trkpt lat="38.514066690084626" lon="16.262913484650845"><ele>1171.0</ele><time>2026-04-28T06:43:15Z</time></trkpt><trkpt lat="38.51397190940243" lon="16.2628561214458"><ele>1171.0</ele><time>2026-04-28T06:43:16Z</time></trkpt><trkpt lat="38.513884550978865" lon="16.262778116874145"><ele>1171.0</ele><time>2026-04-28T06:43:17Z</time></trkpt><trkpt lat="38.513787208670855" lon="16.26271320223845"><ele>1171.0</ele><time>2026-04-28T06:43:18Z</time></trkpt><trkpt lat="38.51367662703883" lon="16.26265282741975"><ele>1171.0</ele><time>2026-04-28T06:43:19Z</time></trkpt><trkpt lat="38.51357003770317" lon="16.262616286166345"><ele>1172.2</ele><time>2026-04-28T06:43:20Z</time></trkpt><trkpt lat="38.513468678828374" lon="16.26257938109827"><ele>1173.3999999999999</ele><time>2026-04-28T06:43:21Z</time></trkpt><trkpt lat="38.51336717698085" lon="16.26257527217075"><ele>1174.6</ele><time>2026-04-28T06:43:22Z</time></trkpt><trkpt lat="38.513303242436706" lon="16.26265294897857"><ele>1175.8</ele><time>2026-04-28T06:43:23Z</time></trkpt><trkpt lat="38.51322148578018" lon="16.262752640338157"><ele>1177.0</ele><time>2026-04-28T06:43:24Z</time></trkpt><trkpt lat="38.51313092828221" lon="16.262873157700586"><ele>1177.0</ele><time>2026-04-28T06:43:25Z</time></trkpt><trkpt lat="38.513078284600226" lon="16.26297601122105"><ele>1177.0</ele><time>2026-04-28T06:43:26Z</time></trkpt><trkpt lat="38.51303872917366" lon="16.26304035764261"><ele>1177.0</ele><time>2026-04-28T06:43:27Z</time></trkpt><trkpt lat="38.512971550167016" lon="16.26309015109873"><ele>1177.0</ele><time>2026-04-28T06:43:28Z</time></trkpt><trkpt lat="38.512864815818254" lon="16.263209748957497"><ele>1177.0</ele><time>2026-04-28T06:43:30Z</time></trkpt><trkpt lat="38.51275020570876" lon="16.263310886362223"><ele>1176.5</ele><time>2026-04-28T06:43:32Z</time></trkpt><trkpt lat="38.512617373580746" lon="16.26335156063222"><ele>1176.0</ele><time>2026-04-28T06:43:33Z</time></trkpt><trkpt lat="38.51252761328188" lon="16.263369246071544"><ele>1175.5</ele><time>2026-04-28T06:43:34Z</time></trkpt><trkpt lat="38.51239946145961" lon="16.263389267593553"><ele>1175.0</ele><time>2026-04-28T06:43:35Z</time></trkpt><trkpt lat="38.51230240627642" lon="16.263382906424255"><ele>1175.0</ele><time>2026-04-28T06:43:36Z</time></trkpt><trkpt lat="38.51221640844405" lon="16.263344512610473"><ele>1175.0</ele><time>2026-04-28T06:43:37Z</time></trkpt><trkpt lat="38.51214374894953" lon="16.263313489710775"><ele>1175.0</ele><time>2026-04-28T06:43:38Z</time></trkpt><trkpt lat="38.51207786830465" lon="16.263299553071015"><ele>1175.0</ele><time>2026-04-28T06:43:39Z</time></trkpt><trkpt lat="38.51199329550148" lon="16.263275742419975"><ele>1175.0</ele><time>2026-04-28T06:43:40Z</time></trkpt><trkpt lat="38.511884734497706" lon="16.263223533894003"><ele>1175.0</ele><time>2026-04-28T06:43:41Z</time></trkpt><trkpt lat="38.51178880969632" lon="16.263176617276915"><ele>1175.0</ele><time>2026-04-28T06:43:42Z</time></trkpt><trkpt lat="38.511723007952696" lon="16.263156487504904"><ele>1175.0</ele><time>2026-04-28T06:43:43Z</time></trkpt><trkpt lat="38.51163610869744" lon="16.263124139215947"><ele>1175.0</ele><time>2026-04-28T06:43:44Z</time></trkpt><trkpt lat="38.51153704216465" lon="16.263074931816796"><ele>1175.0</ele><time>2026-04-28T06:43:45Z</time></trkpt><trkpt lat="38.51144409223508" lon="16.26302054278078"><ele>1175.0</ele><time>2026-04-28T06:43:46Z</time></trkpt><trkpt lat="38.51135984476652" lon="16.262937981659473"><ele>1174.75</ele><time>2026-04-28T06:43:47Z</time></trkpt><trkpt lat="38.51127782841957" lon="16.262831613266403"><ele>1174.5</ele><time>2026-04-28T06:43:48Z</time></trkpt><trkpt lat="38.51116403640703" lon="16.262734854138987"><ele>1174.25</ele><time>2026-04-28T06:43:48.999Z</time></trkpt><trkpt lat="38.51104066026062" lon="16.262644941004442"><ele>1174.0</ele><time>2026-04-28T06:43:49.999Z</time></trkpt><trkpt lat="38.51093066284069" lon="16.26255047549928"><ele>1174.0</ele><time>2026-04-28T06:43:50.999Z</time></trkpt><trkpt lat="38.510834460426416" lon="16.262441310191363"><ele>1174.0</ele><time>2026-04-28T06:43:51.999Z</time></trkpt><trkpt lat="38.5107249986653" lon="16.26233442237359"><ele>1174.0</ele><time>2026-04-28T06:43:52.999Z</time></trkpt><trkpt lat="38.510607236609" lon="16.262231894148975"><ele>1174.0</ele><time>2026-04-28T06:43:53.999Z</time></trkpt><trkpt lat="38.51049946670613" lon="16.26212658500798"><ele>1176.0</ele><time>2026-04-28T06:43:54.999Z</time></trkpt><trkpt lat="38.510388140498655" lon="16.26202585739143"><ele>1178.0</ele><time>2026-04-28T06:43:55.999Z</time></trkpt><trkpt lat="38.5102696072104" lon="16.261941611474686"><ele>1180.0</ele><time>2026-04-28T06:43:56.999Z</time></trkpt><trkpt lat="38.5101433564208" lon="16.261894829516777"><ele>1182.0</ele><time>2026-04-28T06:43:57.999Z</time></trkpt><trkpt lat="38.5100235784068" lon="16.26186567916076"><ele>1182.0</ele><time>2026-04-28T06:43:58.999Z</time></trkpt><trkpt lat="38.509929852288835" lon="16.26184178953399"><ele>1182.0</ele><time>2026-04-28T06:43:59.999Z</time></trkpt><trkpt lat="38.509856348923705" lon="16.261834786656912"><ele>1182.0</ele><time>2026-04-28T06:44:00.999Z</time></trkpt><trkpt lat="38.50978537752251" lon="16.26186677110348"><ele>1182.0</ele><time>2026-04-28T06:44:01.999Z</time></trkpt><trkpt lat="38.50972262201582" lon="16.261934527192523"><ele>1182.0</ele><time>2026-04-28T06:44:02.999Z</time></trkpt><trkpt lat="38.50965650271702" lon="16.262004715268063"><ele>1182.0</ele><time>2026-04-28T06:44:03.999Z</time></trkpt><trkpt lat="38.509576083607875" lon="16.2620621509578"><ele>1181.1666666666667</ele><time>2026-04-28T06:44:04.999Z</time></trkpt><trkpt lat="38.50950702763234" lon="16.262090617628456"><ele>1180.3333333333333</ele><time>2026-04-28T06:44:05.999Z</time></trkpt><trkpt lat="38.50941175446223" lon="16.26209860088577"><ele>1179.5</ele><time>2026-04-28T06:44:06.999Z</time></trkpt><trkpt lat="38.509318537855854" lon="16.26208016754252"><ele>1178.6666666666665</ele><time>2026-04-28T06:44:07.999Z</time></trkpt><trkpt lat="38.50921072722037" lon="16.2620842282534"><ele>1177.8333333333333</ele><time>2026-04-28T06:44:09.999Z</time></trkpt><trkpt lat="38.509144741887205" lon="16.262060014160305"><ele>1177.0</ele><time>2026-04-28T06:44:11.999Z</time></trkpt><trkpt lat="38.50911769748278" lon="16.26195574832992"><ele>1177.0</ele><time>2026-04-28T06:44:14.999Z</time></trkpt><trkpt lat="38.509093653594206" lon="16.261847791249767"><ele>1177.0</ele><time>2026-04-28T06:44:16.999Z</time></trkpt><trkpt lat="38.50906561519721" lon="16.261751597137472"><ele>1177.0</ele><time>2026-04-28T06:44:18.999Z</time></trkpt><trkpt lat="38.50906202129447" lon="16.261627809311104"><ele>1177.0</ele><time>2026-04-28T06:44:20.999Z</time></trkpt><trkpt lat="38.50904706814654" lon="16.261526739531885"><ele>1177.0</ele><time>2026-04-28T06:44:21.999Z</time></trkpt><trkpt lat="38.50902615419331" lon="16.26141581623248"><ele>1177.0</ele><time>2026-04-28T06:44:22.999Z</time></trkpt><trkpt lat="38.50906821756053" lon="16.26127619155289"><ele>1177.6</ele><time>2026-04-28T06:44:23.999Z</time></trkpt><trkpt lat="38.50904761458032" lon="16.261163203967595"><ele>1178.2</ele><time>2026-04-28T06:44:24.999Z</time></trkpt><trkpt lat="38.509015153096115" lon="16.261036063633643"><ele>1178.8</ele><time>2026-04-28T06:44:25.999Z</time></trkpt><trkpt lat="38.5089623132385" lon="16.260920820500818"><ele>1179.4</ele><time>2026-04-28T06:44:26.999Z</time></trkpt><trkpt lat="38.5088709912389" lon="16.26079856566842"><ele>1180.0</ele><time>2026-04-28T06:44:27.999Z</time></trkpt><trkpt lat="38.50875426015752" lon="16.260677187109362"><ele>1180.3333333333333</ele><time>2026-04-28T06:44:29Z</time></trkpt><trkpt lat="38.508632430452145" lon="16.260570687018642"><ele>1180.6666666666667</ele><time>2026-04-28T06:44:30Z</time></trkpt><trkpt lat="38.50848838131987" lon="16.26045067901289"><ele>1181.0</ele><time>2026-04-28T06:44:31Z</time></trkpt><trkpt lat="38.50834263095106" lon="16.260328670806906"><ele>1181.0</ele><time>2026-04-28T06:44:32Z</time></trkpt><trkpt lat="38.50819890471799" lon="16.26020497093072"><ele>1181.0</ele><time>2026-04-28T06:44:33Z</time></trkpt><trkpt lat="38.50805388145012" lon="16.260064744333388"><ele>1181.0</ele><time>2026-04-28T06:44:34Z</time></trkpt><trkpt lat="38.507910992243694" lon="16.25989827446379"><ele>1181.0</ele><time>2026-04-28T06:44:35Z</time></trkpt><trkpt lat="38.50776403460847" lon="16.259737546756508"><ele>1181.0</ele><time>2026-04-28T06:44:36Z</time></trkpt><trkpt lat="38.5076362965255" lon="16.259610124821265"><ele>1181.0</ele><time>2026-04-28T06:44:37Z</time></trkpt><trkpt lat="38.50750549950375" lon="16.25948293691373"><ele>1181.0</ele><time>2026-04-28T06:44:38Z</time></trkpt><trkpt lat="38.50735906464641" lon="16.259340064021554"><ele>1181.0</ele><time>2026-04-28T06:44:39Z</time></trkpt><trkpt lat="38.50719075535875" lon="16.25921537522535"><ele>1181.0</ele><time>2026-04-28T06:44:40Z</time></trkpt><trkpt lat="38.50705140486023" lon="16.259080631562526"><ele>1180.6666666666667</ele><time>2026-04-28T06:44:41Z</time></trkpt><trkpt lat="38.50691510837713" lon="16.25894827423811"><ele>1180.3333333333333</ele><time>2026-04-28T06:44:42Z</time></trkpt><trkpt lat="38.50679121850962" lon="16.258827590916873"><ele>1180.0</ele><time>2026-04-28T06:44:43Z</time></trkpt><trkpt lat="38.50665846231719" lon="16.25869831228798"><ele>1180.0</ele><time>2026-04-28T06:44:44Z</time></trkpt><trkpt lat="38.50653518707528" lon="16.25857168934853"><ele>1180.0</ele><time>2026-04-28T06:44:45Z</time></trkpt><trkpt lat="38.50642892797573" lon="16.25846443178724"><ele>1180.0</ele><time>2026-04-28T06:44:46Z</time></trkpt><trkpt lat="38.50634886793611" lon="16.2583319139635"><ele>1180.0</ele><time>2026-04-28T06:44:47Z</time></trkpt><trkpt lat="38.50628634102172" lon="16.258174978676607"><ele>1179.0</ele><time>2026-04-28T06:44:48Z</time></trkpt><trkpt lat="38.50623966568325" lon="16.25799652140403"><ele>1178.0</ele><time>2026-04-28T06:44:49Z</time></trkpt><trkpt lat="38.50621754507358" lon="16.25783242245073"><ele>1177.0</ele><time>2026-04-28T06:44:50Z</time></trkpt><trkpt lat="38.506218608174144" lon="16.257661859824182"><ele>1176.0</ele><time>2026-04-28T06:44:51Z</time></trkpt><trkpt lat="38.50625474865482" lon="16.25749289936438"><ele>1176.0</ele><time>2026-04-28T06:44:52Z</time></trkpt><trkpt lat="38.50630289000492" lon="16.25731289913954"><ele>1176.0</ele><time>2026-04-28T06:44:53Z</time></trkpt><trkpt lat="38.50637927949286" lon="16.257131875297645"><ele>1176.0</ele><time>2026-04-28T06:44:54Z</time></trkpt><trkpt lat="38.506477375827636" lon="16.256956174741145"><ele>1175.3333333333333</ele><time>2026-04-28T06:44:55Z</time></trkpt><trkpt lat="38.50658258548385" lon="16.25680482623942"><ele>1174.6666666666665</ele><time>2026-04-28T06:44:56Z</time></trkpt><trkpt lat="38.506694888749" lon="16.25666627500014"><ele>1174.0</ele><time>2026-04-28T06:44:57Z</time></trkpt><trkpt lat="38.506827205907946" lon="16.256538392116248"><ele>1173.6666666666665</ele><time>2026-04-28T06:44:58Z</time></trkpt><trkpt lat="38.50695489530696" lon="16.2564064390211"><ele>1173.3333333333333</ele><time>2026-04-28T06:44:59Z</time></trkpt><trkpt lat="38.507088185200864" lon="16.256276120632794"><ele>1173.0</ele><time>2026-04-28T06:45:00Z</time></trkpt><trkpt lat="38.507218652792275" lon="16.256147917326892"><ele>1173.0</ele><time>2026-04-28T06:45:01Z</time></trkpt><trkpt lat="38.50732468445337" lon="16.256033954520014"><ele>1173.0</ele><time>2026-04-28T06:45:02Z</time></trkpt><trkpt lat="38.50740706348927" lon="16.255957882392824"><ele>1173.0</ele><time>2026-04-28T06:45:03Z</time></trkpt><trkpt lat="38.50748000405885" lon="16.25586963734793"><ele>1173.0</ele><time>2026-04-28T06:45:04Z</time></trkpt><trkpt lat="38.50756912083514" lon="16.255801951971435"><ele>1173.0</ele><time>2026-04-28T06:45:05Z</time></trkpt><trkpt lat="38.50764430826838" lon="16.25571150501553"><ele>1173.0</ele><time>2026-04-28T06:45:06Z</time></trkpt><trkpt lat="38.5077288329273" lon="16.255636225877954"><ele>1173.0</ele><time>2026-04-28T06:45:07Z</time></trkpt><trkpt lat="38.50779292050308" lon="16.255543383639385"><ele>1173.0</ele><time>2026-04-28T06:45:08Z</time></trkpt><trkpt lat="38.50782986219058" lon="16.255421565386"><ele>1173.0</ele><time>2026-04-28T06:45:09Z</time></trkpt><trkpt lat="38.507854828608224" lon="16.255288212467324"><ele>1173.0</ele><time>2026-04-28T06:45:10Z</time></trkpt><trkpt lat="38.50786441111382" lon="16.255116262421875"><ele>1172.5</ele><time>2026-04-28T06:45:11Z</time></trkpt><trkpt lat="38.507858779841925" lon="16.254932391469996"><ele>1172.0</ele><time>2026-04-28T06:45:12Z</time></trkpt><trkpt lat="38.507851115569665" lon="16.25474185643313"><ele>1171.5</ele><time>2026-04-28T06:45:13Z</time></trkpt><trkpt lat="38.507844350572874" lon="16.254553820203032"><ele>1171.0</ele><time>2026-04-28T06:45:14Z</time></trkpt><trkpt lat="38.50783910165678" lon="16.25439220943445"><ele>1170.75</ele><time>2026-04-28T06:45:15Z</time></trkpt><trkpt lat="38.5078419801711" lon="16.25425342204174"><ele>1170.5</ele><time>2026-04-28T06:45:16Z</time></trkpt><trkpt lat="38.50785931766524" lon="16.25408491421862"><ele>1170.25</ele><time>2026-04-28T06:45:17Z</time></trkpt><trkpt lat="38.50787927225443" lon="16.25388162440702"><ele>1170.0</ele><time>2026-04-28T06:45:18Z</time></trkpt><trkpt lat="38.50792625517775" lon="16.253686805788174"><ele>1171.5</ele><time>2026-04-28T06:45:19Z</time></trkpt><trkpt lat="38.50798198889726" lon="16.25350938391962"><ele>1173.0</ele><time>2026-04-28T06:45:20Z</time></trkpt><trkpt lat="38.50800713187794" lon="16.25334599004378"><ele>1174.5</ele><time>2026-04-28T06:45:21Z</time></trkpt><trkpt lat="38.5080346668286" lon="16.253212605887082"><ele>1176.0</ele><time>2026-04-28T06:45:22Z</time></trkpt><trkpt lat="38.50805795669272" lon="16.253083349481166"><ele>1176.75</ele><time>2026-04-28T06:45:23Z</time></trkpt><trkpt lat="38.5080403395406" lon="16.25294056309484"><ele>1177.5</ele><time>2026-04-28T06:45:24Z</time></trkpt><trkpt lat="38.507998261081624" lon="16.252793958366947"><ele>1178.25</ele><time>2026-04-28T06:45:25Z</time></trkpt><trkpt lat="38.50791822391611" lon="16.25260046046136"><ele>1179.0</ele><time>2026-04-28T06:45:26Z</time></trkpt><trkpt lat="38.50783070549467" lon="16.252411706115875"><ele>1177.25</ele><time>2026-04-28T06:45:27Z</time></trkpt><trkpt lat="38.507749015558076" lon="16.2522363370512"><ele>1175.5</ele><time>2026-04-28T06:45:28Z</time></trkpt><trkpt lat="38.50768060204045" lon="16.252081895161503"><ele>1173.75</ele><time>2026-04-28T06:45:29Z</time></trkpt><trkpt lat="38.50762010451533" lon="16.25193608224658"><ele>1172.0</ele><time>2026-04-28T06:45:30Z</time></trkpt><trkpt lat="38.507571373723785" lon="16.251795440752215"><ele>1172.0</ele><time>2026-04-28T06:45:31Z</time></trkpt><trkpt lat="38.50754030750861" lon="16.251643179706196"><ele>1172.0</ele><time>2026-04-28T06:45:32Z</time></trkpt><trkpt lat="38.50753070523094" lon="16.2514642769679"><ele>1172.0</ele><time>2026-04-28T06:45:33Z</time></trkpt><trkpt lat="38.50751698298972" lon="16.251243056946688"><ele>1172.0</ele><time>2026-04-28T06:45:34Z</time></trkpt><trkpt lat="38.50752450052075" lon="16.25104145506243"><ele>1173.25</ele><time>2026-04-28T06:45:35Z</time></trkpt><trkpt lat="38.50753536552093" lon="16.250871308585264"><ele>1174.5</ele><time>2026-04-28T06:45:36Z</time></trkpt><trkpt lat="38.50755651660806" lon="16.250709818038274"><ele>1175.75</ele><time>2026-04-28T06:45:37Z</time></trkpt><trkpt lat="38.50760922807205" lon="16.250557389491807"><ele>1177.0</ele><time>2026-04-28T06:45:38Z</time></trkpt><trkpt lat="38.50768858878184" lon="16.25040966397017"><ele>1176.3333333333333</ele><time>2026-04-28T06:45:39Z</time></trkpt><trkpt lat="38.507797502131915" lon="16.25027640468512"><ele>1175.6666666666667</ele><time>2026-04-28T06:45:40Z</time></trkpt><trkpt lat="38.50792349592257" lon="16.2501492796129"><ele>1175.0</ele><time>2026-04-28T06:45:41Z</time></trkpt><trkpt lat="38.508029313584615" lon="16.250008513961568"><ele>1175.0</ele><time>2026-04-28T06:45:42Z</time></trkpt><trkpt lat="38.50811462512472" lon="16.249849556691256"><ele>1175.0</ele><time>2026-04-28T06:45:43Z</time></trkpt><trkpt lat="38.50816355644816" lon="16.24968750560575"><ele>1175.0</ele><time>2026-04-28T06:45:44Z</time></trkpt><trkpt lat="38.50819474838699" lon="16.249561713855567"><ele>1175.0</ele><time>2026-04-28T06:45:45Z</time></trkpt><trkpt lat="38.50821360835468" lon="16.249451507782638"><ele>1175.5</ele><time>2026-04-28T06:45:46Z</time></trkpt><trkpt lat="38.50816582940809" lon="16.249318548183208"><ele>1176.0</ele><time>2026-04-28T06:45:47Z</time></trkpt><trkpt lat="38.508062834520466" lon="16.24922112315858"><ele>1176.5</ele><time>2026-04-28T06:45:48Z</time></trkpt><trkpt lat="38.5079244149326" lon="16.249160103862533"><ele>1177.0</ele><time>2026-04-28T06:45:49Z</time></trkpt><trkpt lat="38.50777876561207" lon="16.24913857509349"><ele>1179.0</ele><time>2026-04-28T06:45:50Z</time></trkpt><trkpt lat="38.50764267314453" lon="16.249152393516653"><ele>1181.0</ele><time>2026-04-28T06:45:50.999Z</time></trkpt><trkpt lat="38.507518893423544" lon="16.24914729679388"><ele>1183.0</ele><time>2026-04-28T06:45:51.999Z</time></trkpt><trkpt lat="38.50738385049548" lon="16.249103947943905"><ele>1185.0</ele><time>2026-04-28T06:45:52.999Z</time></trkpt><trkpt lat="38.50723420150806" lon="16.249039659014798"><ele>1185.0</ele><time>2026-04-28T06:45:53.999Z</time></trkpt><trkpt lat="38.50708775535414" lon="16.24897470020743"><ele>1185.0</ele><time>2026-04-28T06:45:54.999Z</time></trkpt><trkpt lat="38.50692345196468" lon="16.248902668376534"><ele>1185.0</ele><time>2026-04-28T06:45:55.999Z</time></trkpt><trkpt lat="38.506738758463094" lon="16.248823110145686"><ele>1185.6666666666667</ele><time>2026-04-28T06:45:56.999Z</time></trkpt><trkpt lat="38.50656514512355" lon="16.24875441019697"><ele>1186.3333333333335</ele><time>2026-04-28T06:45:57.999Z</time></trkpt><trkpt lat="38.50640672440395" lon="16.24868995741509"><ele>1187.0</ele><time>2026-04-28T06:45:58.999Z</time></trkpt><trkpt lat="38.50623136756949" lon="16.24861720846244"><ele>1188.6666666666667</ele><time>2026-04-28T06:45:59.999Z</time></trkpt><trkpt lat="38.50601703100249" lon="16.24852614578731"><ele>1190.3333333333333</ele><time>2026-04-28T06:46:00.999Z</time></trkpt><trkpt lat="38.50581010817835" lon="16.24842990255253"><ele>1192.0</ele><time>2026-04-28T06:46:01.999Z</time></trkpt><trkpt lat="38.50561888174232" lon="16.248333247884904"><ele>1192.0</ele><time>2026-04-28T06:46:02.999Z</time></trkpt><trkpt lat="38.50545166102822" lon="16.24824703025973"><ele>1192.0</ele><time>2026-04-28T06:46:03.999Z</time></trkpt><trkpt lat="38.50527981557763" lon="16.248158965322876"><ele>1192.0</ele><time>2026-04-28T06:46:04.999Z</time></trkpt><trkpt lat="38.50512684112467" lon="16.248078173255987"><ele>1191.6666666666665</ele><time>2026-04-28T06:46:05.999Z</time></trkpt><trkpt lat="38.50498653923662" lon="16.248006633648227"><ele>1191.3333333333333</ele><time>2026-04-28T06:46:06.999Z</time></trkpt><trkpt lat="38.504837463448176" lon="16.247950841258707"><ele>1191.0</ele><time>2026-04-28T06:46:07.999Z</time></trkpt><trkpt lat="38.5046786149434" lon="16.2479241321564"><ele>1190.6666666666667</ele><time>2026-04-28T06:46:08.999Z</time></trkpt><trkpt lat="38.50451036617465" lon="16.247935301629763"><ele>1190.3333333333335</ele><time>2026-04-28T06:46:09.999Z</time></trkpt><trkpt lat="38.5043369913221" lon="16.247983335853192"><ele>1190.0</ele><time>2026-04-28T06:46:10.999Z</time></trkpt><trkpt lat="38.504173536395726" lon="16.24804587107013"><ele>1190.0</ele><time>2026-04-28T06:46:11.999Z</time></trkpt><trkpt lat="38.50401767013359" lon="16.248170356968476"><ele>1190.0</ele><time>2026-04-28T06:46:12.999Z</time></trkpt><trkpt lat="38.50386601050467" lon="16.248325629579572"><ele>1190.0</ele><time>2026-04-28T06:46:13.999Z</time></trkpt><trkpt lat="38.50372541546062" lon="16.24845433162228"><ele>1190.0</ele><time>2026-04-28T06:46:14.999Z</time></trkpt><trkpt lat="38.50360394057928" lon="16.24851064551561"><ele>1190.0</ele><time>2026-04-28T06:46:15.999Z</time></trkpt><trkpt lat="38.50345836550554" lon="16.248544756002993"><ele>1190.0</ele><time>2026-04-28T06:46:16.999Z</time></trkpt><trkpt lat="38.50328998648906" lon="16.248580660688585"><ele>1190.0</ele><time>2026-04-28T06:46:17.999Z</time></trkpt><trkpt lat="38.5031370954272" lon="16.24861022801433"><ele>1190.0</ele><time>2026-04-28T06:46:18.999Z</time></trkpt><trkpt lat="38.50300212229167" lon="16.248616665683198"><ele>1190.0</ele><time>2026-04-28T06:46:19.999Z</time></trkpt><trkpt lat="38.50288401509783" lon="16.248600534779182"><ele>1190.0</ele><time>2026-04-28T06:46:20.999Z</time></trkpt><trkpt lat="38.50278112060472" lon="16.24855220220636"><ele>1190.0</ele><time>2026-04-28T06:46:21.999Z</time></trkpt><trkpt lat="38.50269929352638" lon="16.248450518240215"><ele>1190.3333333333335</ele><time>2026-04-28T06:46:22.999Z</time></trkpt><trkpt lat="38.5026203047291" lon="16.24830887673029"><ele>1190.6666666666667</ele><time>2026-04-28T06:46:23.999Z</time></trkpt><trkpt lat="38.50254801107846" lon="16.248126072738533"><ele>1191.0</ele><time>2026-04-28T06:46:24.999Z</time></trkpt><trkpt lat="38.50247127973038" lon="16.24792393252707"><ele>1192.3333333333333</ele><time>2026-04-28T06:46:25.999Z</time></trkpt><trkpt lat="38.50239484000187" lon="16.247722598922362"><ele>1193.6666666666665</ele><time>2026-04-28T06:46:26.999Z</time></trkpt><trkpt lat="38.502314472462395" lon="16.2475244830455"><ele>1195.0</ele><time>2026-04-28T06:46:27.999Z</time></trkpt><trkpt lat="38.50221301979204" lon="16.247319119801602"><ele>1195.3333333333333</ele><time>2026-04-28T06:46:28.999Z</time></trkpt><trkpt lat="38.50210331779191" lon="16.24713099940505"><ele>1195.6666666666667</ele><time>2026-04-28T06:46:29.999Z</time></trkpt><trkpt lat="38.501987644750024" lon="16.246953533382715"><ele>1196.0</ele><time>2026-04-28T06:46:30.999Z</time></trkpt><trkpt lat="38.50185746795131" lon="16.246763342450375"><ele>1195.6666666666667</ele><time>2026-04-28T06:46:31.999Z</time></trkpt><trkpt lat="38.50172244375451" lon="16.246577582540063"><ele>1195.3333333333333</ele><time>2026-04-28T06:46:32.999Z</time></trkpt><trkpt lat="38.50157852202117" lon="16.246410693052187"><ele>1195.0</ele><time>2026-04-28T06:46:33.999Z</time></trkpt><trkpt lat="38.50142431185111" lon="16.246245581347736"><ele>1195.0</ele><time>2026-04-28T06:46:35Z</time></trkpt><trkpt lat="38.501262080317325" lon="16.24607381718179"><ele>1195.0</ele><time>2026-04-28T06:46:36Z</time></trkpt><trkpt lat="38.50110175828944" lon="16.245909014060505"><ele>1195.0</ele><time>2026-04-28T06:46:37Z</time></trkpt><trkpt lat="38.5009397980307" lon="16.245769095719226"><ele>1194.0</ele><time>2026-04-28T06:46:38Z</time></trkpt><trkpt lat="38.50080003831393" lon="16.245598481908537"><ele>1193.0</ele><time>2026-04-28T06:46:39Z</time></trkpt><trkpt lat="38.5006489023976" lon="16.24547302231129"><ele>1192.0</ele><time>2026-04-28T06:46:40Z</time></trkpt><trkpt lat="38.500508894325186" lon="16.24534326911415"><ele>1193.6666666666665</ele><time>2026-04-28T06:46:41Z</time></trkpt><trkpt lat="38.500373089815916" lon="16.245216135211177"><ele>1195.3333333333333</ele><time>2026-04-28T06:46:42Z</time></trkpt><trkpt lat="38.50020476966742" lon="16.245138904215885"><ele>1197.0</ele><time>2026-04-28T06:46:43Z</time></trkpt><trkpt lat="38.50005490452401" lon="16.24505278085669"><ele>1197.0</ele><time>2026-04-28T06:46:44Z</time></trkpt><trkpt lat="38.49990565475902" lon="16.244999426900918"><ele>1197.0</ele><time>2026-04-28T06:46:45Z</time></trkpt><trkpt lat="38.49975381533119" lon="16.245012422065635"><ele>1197.0</ele><time>2026-04-28T06:46:46Z</time></trkpt><trkpt lat="38.49957954212013" lon="16.24503976214662"><ele>1198.0</ele><time>2026-04-28T06:46:47Z</time></trkpt><trkpt lat="38.49939674151231" lon="16.24508255451354"><ele>1199.0</ele><time>2026-04-28T06:46:48Z</time></trkpt><trkpt lat="38.499204077905596" lon="16.245121802630447"><ele>1200.0</ele><time>2026-04-28T06:46:49Z</time></trkpt><trkpt lat="38.499035529482626" lon="16.245148745506647"><ele>1200.0</ele><time>2026-04-28T06:46:50Z</time></trkpt><trkpt lat="38.498878171337054" lon="16.245167483480937"><ele>1200.0</ele><time>2026-04-28T06:46:51Z</time></trkpt><trkpt lat="38.49871643647967" lon="16.245175592427337"><ele>1200.0</ele><time>2026-04-28T06:46:52Z</time></trkpt><trkpt lat="38.498558221911466" lon="16.245139409095923"><ele>1200.25</ele><time>2026-04-28T06:46:53Z</time></trkpt><trkpt lat="38.498415018685854" lon="16.245102963235585"><ele>1200.5</ele><time>2026-04-28T06:46:54Z</time></trkpt><trkpt lat="38.498284568078184" lon="16.245057668771466"><ele>1200.75</ele><time>2026-04-28T06:46:55Z</time></trkpt><trkpt lat="38.498164916049426" lon="16.244994774328568"><ele>1201.0</ele><time>2026-04-28T06:46:56Z</time></trkpt><trkpt lat="38.49805132662005" lon="16.24489901409398"><ele>1201.0</ele><time>2026-04-28T06:46:57Z</time></trkpt><trkpt lat="38.4979334231885" lon="16.24474828292931"><ele>1201.0</ele><time>2026-04-28T06:46:58Z</time></trkpt><trkpt lat="38.49781077475837" lon="16.244565140775148"><ele>1201.0</ele><time>2026-04-28T06:46:59Z</time></trkpt><trkpt lat="38.49769246892344" lon="16.24439034849455"><ele>1202.3333333333333</ele><time>2026-04-28T06:47:00Z</time></trkpt><trkpt lat="38.49757154867579" lon="16.244228288039633"><ele>1203.6666666666667</ele><time>2026-04-28T06:47:01Z</time></trkpt><trkpt lat="38.497427950677206" lon="16.244073564805745"><ele>1205.0</ele><time>2026-04-28T06:47:02Z</time></trkpt><trkpt lat="38.49728267932517" lon="16.24396226339535"><ele>1205.0</ele><time>2026-04-28T06:47:03Z</time></trkpt><trkpt lat="38.49709646023433" lon="16.24386042485891"><ele>1205.0</ele><time>2026-04-28T06:47:04Z</time></trkpt><trkpt lat="38.49691344737373" lon="16.243779816815213"><ele>1205.0</ele><time>2026-04-28T06:47:05Z</time></trkpt><trkpt lat="38.49675326235814" lon="16.24371505918835"><ele>1207.25</ele><time>2026-04-28T06:47:06Z</time></trkpt><trkpt lat="38.49661560551143" lon="16.243663285909427"><ele>1209.5</ele><time>2026-04-28T06:47:07Z</time></trkpt><trkpt lat="38.49648678170948" lon="16.243615332073414"><ele>1211.75</ele><time>2026-04-28T06:47:08Z</time></trkpt><trkpt lat="38.49636029623152" lon="16.243556304405356"><ele>1214.0</ele><time>2026-04-28T06:47:09Z</time></trkpt><trkpt lat="38.49624763618984" lon="16.243495871432472"><ele>1214.8</ele><time>2026-04-28T06:47:10Z</time></trkpt><trkpt lat="38.4961542120906" lon="16.24343493229267"><ele>1215.6000000000001</ele><time>2026-04-28T06:47:11Z</time></trkpt><trkpt lat="38.49607689610405" lon="16.24336980722794"><ele>1216.4</ele><time>2026-04-28T06:47:12Z</time></trkpt><trkpt lat="38.49600277981284" lon="16.24329598093225"><ele>1217.2</ele><time>2026-04-28T06:47:13Z</time></trkpt><trkpt lat="38.49592890397229" lon="16.243220041260287"><ele>1218.0</ele><time>2026-04-28T06:47:14Z</time></trkpt><trkpt lat="38.49586430797382" lon="16.24315524073101"><ele>1217.5</ele><time>2026-04-28T06:47:15Z</time></trkpt><trkpt lat="38.495775583101796" lon="16.243067726989747"><ele>1217.0</ele><time>2026-04-28T06:47:17Z</time></trkpt><trkpt lat="38.49569669832128" lon="16.24298501744778"><ele>1216.5</ele><time>2026-04-28T06:47:19Z</time></trkpt><trkpt lat="38.49559784103342" lon="16.24295388952651"><ele>1216.0</ele><time>2026-04-28T06:47:21Z</time></trkpt><trkpt lat="38.49541491949768" lon="16.243397251205412"><ele>1217.1666666666665</ele><time>2026-04-28T06:47:23Z</time></trkpt><trkpt lat="38.49535008749746" lon="16.243458994165927"><ele>1218.3333333333333</ele><time>2026-04-28T06:47:24Z</time></trkpt><trkpt lat="38.49528704077394" lon="16.24349193434671"><ele>1219.5</ele><time>2026-04-28T06:47:25Z</time></trkpt><trkpt lat="38.4952107705713" lon="16.243478013384355"><ele>1220.6666666666667</ele><time>2026-04-28T06:47:26Z</time></trkpt><trkpt lat="38.49512617516088" lon="16.24341537656335"><ele>1221.8333333333335</ele><time>2026-04-28T06:47:27Z</time></trkpt><trkpt lat="38.49502040657945" lon="16.24334496577748"><ele>1223.0</ele><time>2026-04-28T06:47:28Z</time></trkpt><trkpt lat="38.49491271269609" lon="16.243284213997217"><ele>1223.0</ele><time>2026-04-28T06:47:29Z</time></trkpt><trkpt lat="38.494798528828674" lon="16.243243558715324"><ele>1223.0</ele><time>2026-04-28T06:47:30Z</time></trkpt><trkpt lat="38.49469448616472" lon="16.24322362434968"><ele>1223.0</ele><time>2026-04-28T06:47:31Z</time></trkpt><trkpt lat="38.49459285595667" lon="16.24322311216909"><ele>1223.0</ele><time>2026-04-28T06:47:32Z</time></trkpt><trkpt lat="38.49447429736184" lon="16.24323710051329"><ele>1223.0</ele><time>2026-04-28T06:47:33Z</time></trkpt><trkpt lat="38.49435324371154" lon="16.24323477064678"><ele>1224.0</ele><time>2026-04-28T06:47:34Z</time></trkpt><trkpt lat="38.494241768887484" lon="16.243230652286652"><ele>1225.0</ele><time>2026-04-28T06:47:35Z</time></trkpt><trkpt lat="38.49413491973708" lon="16.24320678406489"><ele>1226.0</ele><time>2026-04-28T06:47:36Z</time></trkpt><trkpt lat="38.49403674085092" lon="16.24316738793466"><ele>1227.0</ele><time>2026-04-28T06:47:37Z</time></trkpt><trkpt lat="38.49393804554275" lon="16.243116118382435"><ele>1228.0</ele><time>2026-04-28T06:47:38Z</time></trkpt><trkpt lat="38.49384484633294" lon="16.243067663808624"><ele>1229.4</ele><time>2026-04-28T06:47:39Z</time></trkpt><trkpt lat="38.493737751637894" lon="16.24303971133656"><ele>1230.8</ele><time>2026-04-28T06:47:40Z</time></trkpt><trkpt lat="38.49364898756807" lon="16.243011014772087"><ele>1232.2</ele><time>2026-04-28T06:47:41Z</time></trkpt><trkpt lat="38.49355462884652" lon="16.242952185676792"><ele>1233.6</ele><time>2026-04-28T06:47:42Z</time></trkpt><trkpt lat="38.493442079283376" lon="16.24288076081381"><ele>1235.0</ele><time>2026-04-28T06:47:43Z</time></trkpt><trkpt lat="38.49333668381651" lon="16.242824220110382"><ele>1235.0</ele><time>2026-04-28T06:47:44Z</time></trkpt><trkpt lat="38.493212545945106" lon="16.2427722054993"><ele>1235.0</ele><time>2026-04-28T06:47:45Z</time></trkpt><trkpt lat="38.49309280320518" lon="16.242726576996237"><ele>1235.0</ele><time>2026-04-28T06:47:46Z</time></trkpt><trkpt lat="38.492984918812134" lon="16.242691702401153"><ele>1235.0</ele><time>2026-04-28T06:47:47Z</time></trkpt><trkpt lat="38.49286627969433" lon="16.24266026478786"><ele>1237.25</ele><time>2026-04-28T06:47:48Z</time></trkpt><trkpt lat="38.49273873321425" lon="16.24262770537459"><ele>1239.5</ele><time>2026-04-28T06:47:49Z</time></trkpt><trkpt lat="38.492615810978684" lon="16.24259704460645"><ele>1241.75</ele><time>2026-04-28T06:47:50Z</time></trkpt><trkpt lat="38.4924833353309" lon="16.242571827478173"><ele>1244.0</ele><time>2026-04-28T06:47:51Z</time></trkpt><trkpt lat="38.49236249221734" lon="16.242543811759695"><ele>1244.0</ele><time>2026-04-28T06:47:52Z</time></trkpt><trkpt lat="38.492264091405325" lon="16.242526871887637"><ele>1244.0</ele><time>2026-04-28T06:47:53Z</time></trkpt><trkpt lat="38.492165713191305" lon="16.242500842648337"><ele>1244.0</ele><time>2026-04-28T06:47:54Z</time></trkpt><trkpt lat="38.492062315186395" lon="16.242497793886326"><ele>1244.0</ele><time>2026-04-28T06:47:55Z</time></trkpt><trkpt lat="38.4919479688852" lon="16.24249922401354"><ele>1244.0</ele><time>2026-04-28T06:47:56Z</time></trkpt><trkpt lat="38.49185184362959" lon="16.24251340746668"><ele>1243.6666666666667</ele><time>2026-04-28T06:47:56.999Z</time></trkpt><trkpt lat="38.491783521085665" lon="16.242545782030252"><ele>1243.3333333333335</ele><time>2026-04-28T06:47:57.999Z</time></trkpt><trkpt lat="38.49170759978734" lon="16.242618211584855"><ele>1243.0</ele><time>2026-04-28T06:47:58.999Z</time></trkpt><trkpt lat="38.49163699538174" lon="16.242719538588645"><ele>1242.6666666666667</ele><time>2026-04-28T06:47:59.999Z</time></trkpt><trkpt lat="38.491575754178335" lon="16.24281868306257"><ele>1242.3333333333333</ele><time>2026-04-28T06:48:00.999Z</time></trkpt><trkpt lat="38.49154738103963" lon="16.242893828963133"><ele>1242.0</ele><time>2026-04-28T06:48:01.999Z</time></trkpt><trkpt lat="38.49153273675257" lon="16.242983312988724"><ele>1242.0</ele><time>2026-04-28T06:48:02.999Z</time></trkpt><trkpt lat="38.491535838667744" lon="16.2430954643133"><ele>1242.0</ele><time>2026-04-28T06:48:03.999Z</time></trkpt><trkpt lat="38.49153753033659" lon="16.243235059750877"><ele>1242.0</ele><time>2026-04-28T06:48:04.999Z</time></trkpt><trkpt lat="38.49149677566737" lon="16.24337092763918"><ele>1242.0</ele><time>2026-04-28T06:48:05.999Z</time></trkpt><trkpt lat="38.49146115138514" lon="16.243477578371962"><ele>1242.0</ele><time>2026-04-28T06:48:06.999Z</time></trkpt><trkpt lat="38.4914112964813" lon="16.243553465699836"><ele>1242.8</ele><time>2026-04-28T06:48:07.999Z</time></trkpt><trkpt lat="38.49135846692105" lon="16.243622626041432"><ele>1243.6</ele><time>2026-04-28T06:48:08.999Z</time></trkpt><trkpt lat="38.49129423733702" lon="16.24365260639256"><ele>1244.3999999999999</ele><time>2026-04-28T06:48:09.999Z</time></trkpt><trkpt lat="38.491202604129036" lon="16.243756082102475"><ele>1245.2</ele><time>2026-04-28T06:48:11.999Z</time></trkpt><trkpt lat="38.491172379654735" lon="16.243870429601003"><ele>1246.0</ele><time>2026-04-28T06:48:12.999Z</time></trkpt><trkpt lat="38.49109809831799" lon="16.244037408381963"><ele>1248.3999999999999</ele><time>2026-04-28T06:48:13.999Z</time></trkpt><trkpt lat="38.49101905657475" lon="16.24415875887133"><ele>1250.8</ele><time>2026-04-28T06:48:14.999Z</time></trkpt><trkpt lat="38.4909680172953" lon="16.244266936914936"><ele>1253.1999999999998</ele><time>2026-04-28T06:48:15.999Z</time></trkpt><trkpt lat="38.49089499223015" lon="16.24435361543846"><ele>1255.6</ele><time>2026-04-28T06:48:16.999Z</time></trkpt><trkpt lat="38.49087844731191" lon="16.244432949542553"><ele>1258.0</ele><time>2026-04-28T06:48:17.999Z</time></trkpt><trkpt lat="38.490841790462746" lon="16.24460035056442"><ele>1258.0</ele><time>2026-04-28T06:48:19.999Z</time></trkpt><trkpt lat="38.49079014715724" lon="16.244728977330208"><ele>1258.0</ele><time>2026-04-28T06:48:21.999Z</time></trkpt><trkpt lat="38.49066864676737" lon="16.244958856581448"><ele>1258.0</ele><time>2026-04-28T06:48:23.999Z</time></trkpt><trkpt lat="38.490602322121724" lon="16.245111534626766"><ele>1260.0</ele><time>2026-04-28T06:48:25.999Z</time></trkpt><trkpt lat="38.490577424805295" lon="16.24521986359772"><ele>1262.0</ele><time>2026-04-28T06:48:26.999Z</time></trkpt><trkpt lat="38.49055756797957" lon="16.245353567005928"><ele>1264.0</ele><time>2026-04-28T06:48:27.999Z</time></trkpt><trkpt lat="38.490550636927416" lon="16.245487658201757"><ele>1266.0</ele><time>2026-04-28T06:48:28.999Z</time></trkpt><trkpt lat="38.4905300737968" lon="16.245576908346774"><ele>1268.0</ele><time>2026-04-28T06:48:29.999Z</time></trkpt><trkpt lat="38.490473948657666" lon="16.245744329246353"><ele>1268.8333333333335</ele><time>2026-04-28T06:48:31.999Z</time></trkpt><trkpt lat="38.490419112830814" lon="16.245811111982245"><ele>1269.6666666666667</ele><time>2026-04-28T06:48:32.999Z</time></trkpt><trkpt lat="38.4903188157913" lon="16.2458868638592"><ele>1270.5</ele><time>2026-04-28T06:48:33.999Z</time></trkpt><trkpt lat="38.49025279724999" lon="16.245967396047746"><ele>1271.3333333333333</ele><time>2026-04-28T06:48:34.999Z</time></trkpt><trkpt lat="38.490181221846235" lon="16.246019804550482"><ele>1272.1666666666665</ele><time>2026-04-28T06:48:35.999Z</time></trkpt><trkpt lat="38.49011034634724" lon="16.246032516029338"><ele>1273.0</ele><time>2026-04-28T06:48:36.999Z</time></trkpt><trkpt lat="38.48998114584412" lon="16.245971051259673"><ele>1273.0</ele><time>2026-04-28T06:48:38.999Z</time></trkpt><trkpt lat="38.48990277846603" lon="16.245954758913044"><ele>1273.0</ele><time>2026-04-28T06:48:40Z</time></trkpt><trkpt lat="38.489819070325744" lon="16.245957296472607"><ele>1273.0</ele><time>2026-04-28T06:48:41Z</time></trkpt><trkpt lat="38.489755373604254" lon="16.24595244133865"><ele>1273.0</ele><time>2026-04-28T06:48:42Z</time></trkpt><trkpt lat="38.48968931750533" lon="16.245904082917708"><ele>1273.0</ele><time>2026-04-28T06:48:43Z</time></trkpt><trkpt lat="38.48959829540045" lon="16.245837576391075"><ele>1273.0</ele><time>2026-04-28T06:48:44Z</time></trkpt><trkpt lat="38.48949446803434" lon="16.245797525226976"><ele>1274.6666666666665</ele><time>2026-04-28T06:48:45Z</time></trkpt><trkpt lat="38.48941042347396" lon="16.245762101555137"><ele>1276.3333333333333</ele><time>2026-04-28T06:48:46Z</time></trkpt><trkpt lat="38.489144153002854" lon="16.245722169264287"><ele>1278.0</ele><time>2026-04-28T06:48:47Z</time></trkpt><trkpt lat="38.489024253433044" lon="16.245698512942262"><ele>1278.0</ele><time>2026-04-28T06:48:48Z</time></trkpt><trkpt lat="38.48891213440506" lon="16.24569971245077"><ele>1278.0</ele><time>2026-04-28T06:48:49Z</time></trkpt><trkpt lat="38.488807570606454" lon="16.24572244922464"><ele>1278.0</ele><time>2026-04-28T06:48:50Z</time></trkpt><trkpt lat="38.4887152873433" lon="16.245734056160636"><ele>1278.0</ele><time>2026-04-28T06:48:51Z</time></trkpt><trkpt lat="38.48861152811597" lon="16.245748469958418"><ele>1278.0</ele><time>2026-04-28T06:48:52Z</time></trkpt><trkpt lat="38.48853174210095" lon="16.245778809962296"><ele>1276.6666666666667</ele><time>2026-04-28T06:48:53Z</time></trkpt><trkpt lat="38.48843951636878" lon="16.245806352935336"><ele>1275.3333333333333</ele><time>2026-04-28T06:48:54Z</time></trkpt><trkpt lat="38.488353696362864" lon="16.24582656925734"><ele>1274.0</ele><time>2026-04-28T06:48:55Z</time></trkpt><trkpt lat="38.48828554493958" lon="16.245833831664054"><ele>1272.6666666666665</ele><time>2026-04-28T06:48:56Z</time></trkpt><trkpt lat="38.488212239015986" lon="16.245852480020872"><ele>1271.3333333333333</ele><time>2026-04-28T06:48:57Z</time></trkpt><trkpt lat="38.488140082995216" lon="16.24587584834074"><ele>1270.0</ele><time>2026-04-28T06:48:58Z</time></trkpt><trkpt lat="38.488074124371664" lon="16.246011807041533"><ele>1270.0</ele><time>2026-04-28T06:49:00Z</time></trkpt><trkpt lat="38.48799014972182" lon="16.246063492296674"><ele>1270.0</ele><time>2026-04-28T06:49:01Z</time></trkpt><trkpt lat="38.48789818275354" lon="16.24612208245426"><ele>1270.0</ele><time>2026-04-28T06:49:02Z</time></trkpt><trkpt lat="38.48782805455531" lon="16.246169632725817"><ele>1270.0</ele><time>2026-04-28T06:49:03Z</time></trkpt><trkpt lat="38.48763225002963" lon="16.246209671677775"><ele>1270.0</ele><time>2026-04-28T06:49:04Z</time></trkpt><trkpt lat="38.48755774029241" lon="16.246288095616745"><ele>1270.0</ele><time>2026-04-28T06:49:05Z</time></trkpt><trkpt lat="38.48755243090284" lon="16.246386088346696"><ele>1270.0</ele><time>2026-04-28T06:49:06Z</time></trkpt><trkpt lat="38.48750725133728" lon="16.246447915037525"><ele>1270.0</ele><time>2026-04-28T06:49:07Z</time></trkpt><trkpt lat="38.487480036954935" lon="16.246527433342546"><ele>1270.0</ele><time>2026-04-28T06:49:08Z</time></trkpt><trkpt lat="38.487456767406044" lon="16.246624183202734"><ele>1270.0</ele><time>2026-04-28T06:49:09Z</time></trkpt><trkpt lat="38.48744871640093" lon="16.246711016161033"><ele>1268.5</ele><time>2026-04-28T06:49:10Z</time></trkpt><trkpt lat="38.48745406411553" lon="16.246855910310778"><ele>1267.0</ele><time>2026-04-28T06:49:12Z</time></trkpt><trkpt lat="38.48749165829219" lon="16.246974832020975"><ele>1265.5</ele><time>2026-04-28T06:49:14Z</time></trkpt><trkpt lat="38.487537969775694" lon="16.247106289261865"><ele>1264.0</ele><time>2026-04-28T06:49:16Z</time></trkpt><trkpt lat="38.48755086488509" lon="16.247320405255486"><ele>1262.1666666666665</ele><time>2026-04-28T06:49:18Z</time></trkpt><trkpt lat="38.487554984561555" lon="16.247422193906086"><ele>1260.3333333333333</ele><time>2026-04-28T06:49:19Z</time></trkpt><trkpt lat="38.48755074107326" lon="16.247535184347463"><ele>1258.5</ele><time>2026-04-28T06:49:20Z</time></trkpt><trkpt lat="38.48752577114514" lon="16.247655780173684"><ele>1256.6666666666667</ele><time>2026-04-28T06:49:21Z</time></trkpt><trkpt lat="38.487504438066516" lon="16.247763117819794"><ele>1254.8333333333335</ele><time>2026-04-28T06:49:22Z</time></trkpt><trkpt lat="38.48747917605688" lon="16.247872600070924"><ele>1253.0</ele><time>2026-04-28T06:49:23Z</time></trkpt><trkpt lat="38.48744919271633" lon="16.24797943984744"><ele>1253.0</ele><time>2026-04-28T06:49:24Z</time></trkpt><trkpt lat="38.487424446820675" lon="16.248090739029436"><ele>1253.0</ele><time>2026-04-28T06:49:25Z</time></trkpt><trkpt lat="38.48737320252697" lon="16.2481911080176"><ele>1253.0</ele><time>2026-04-28T06:49:26Z</time></trkpt><trkpt lat="38.48729194298501" lon="16.248318271508438"><ele>1253.0</ele><time>2026-04-28T06:49:28Z</time></trkpt><trkpt lat="38.48724822671596" lon="16.24839642545706"><ele>1253.0</ele><time>2026-04-28T06:49:29Z</time></trkpt><trkpt lat="38.487204734445164" lon="16.24848907611245"><ele>1251.6666666666667</ele><time>2026-04-28T06:49:30Z</time></trkpt><trkpt lat="38.48715256225562" lon="16.248584635134275"><ele>1250.3333333333335</ele><time>2026-04-28T06:49:31Z</time></trkpt><trkpt lat="38.487095126074415" lon="16.248669159158013"><ele>1249.0</ele><time>2026-04-28T06:49:32Z</time></trkpt><trkpt lat="38.487034501058254" lon="16.248719892616883"><ele>1247.6666666666667</ele><time>2026-04-28T06:49:33Z</time></trkpt><trkpt lat="38.48696493546056" lon="16.248743959195675"><ele>1246.3333333333333</ele><time>2026-04-28T06:49:34Z</time></trkpt><trkpt lat="38.48686998194701" lon="16.24877166788689"><ele>1245.0</ele><time>2026-04-28T06:49:35Z</time></trkpt><trkpt lat="38.486741025862656" lon="16.24878042208547"><ele>1243.0</ele><time>2026-04-28T06:49:36Z</time></trkpt><trkpt lat="38.48663170923337" lon="16.24876631370251"><ele>1241.0</ele><time>2026-04-28T06:49:37Z</time></trkpt><trkpt lat="38.48653440797252" lon="16.24874388605213"><ele>1239.0</ele><time>2026-04-28T06:49:38Z</time></trkpt><trkpt lat="38.48644873401745" lon="16.24871778299334"><ele>1237.0</ele><time>2026-04-28T06:49:39Z</time></trkpt><trkpt lat="38.486338877363" lon="16.248666359176205"><ele>1235.0</ele><time>2026-04-28T06:49:40Z</time></trkpt><trkpt lat="38.48624339481878" lon="16.24864517853654"><ele>1232.5</ele><time>2026-04-28T06:49:41Z</time></trkpt><trkpt lat="38.486164477593356" lon="16.24866691368656"><ele>1230.0</ele><time>2026-04-28T06:49:42Z</time></trkpt><trkpt lat="38.48609319232885" lon="16.248726027966814"><ele>1227.5</ele><time>2026-04-28T06:49:43Z</time></trkpt><trkpt lat="38.48604244096315" lon="16.248792462062084"><ele>1225.0</ele><time>2026-04-28T06:49:44Z</time></trkpt><trkpt lat="38.485988499400534" lon="16.248866014912018"><ele>1222.5</ele><time>2026-04-28T06:49:45Z</time></trkpt><trkpt lat="38.485941908730226" lon="16.24899222889263"><ele>1220.0</ele><time>2026-04-28T06:49:47Z</time></trkpt><trkpt lat="38.485943527647514" lon="16.249077442230117"><ele>1220.0</ele><time>2026-04-28T06:49:48Z</time></trkpt><trkpt lat="38.48596742283263" lon="16.24917423342617"><ele>1220.0</ele><time>2026-04-28T06:49:49Z</time></trkpt><trkpt lat="38.48604440105062" lon="16.249357095194355"><ele>1220.0</ele><time>2026-04-28T06:49:51Z</time></trkpt><trkpt lat="38.48608846096795" lon="16.249464777504343"><ele>1220.0</ele><time>2026-04-28T06:49:52Z</time></trkpt><trkpt lat="38.486108677314746" lon="16.249566962499767"><ele>1220.0</ele><time>2026-04-28T06:49:53Z</time></trkpt><trkpt lat="38.48613137690349" lon="16.24968255462298"><ele>1220.6</ele><time>2026-04-28T06:49:54Z</time></trkpt><trkpt lat="38.48616804170112" lon="16.249808134261492"><ele>1221.2</ele><time>2026-04-28T06:49:56Z</time></trkpt><trkpt lat="38.486235137035564" lon="16.249872658090357"><ele>1221.8</ele><time>2026-04-28T06:49:58Z</time></trkpt><trkpt lat="38.48630514486234" lon="16.24996505503164"><ele>1222.4</ele><time>2026-04-28T06:50:00Z</time></trkpt><trkpt lat="38.486351977059975" lon="16.250128820955354"><ele>1223.0</ele><time>2026-04-28T06:50:01.999Z</time></trkpt><trkpt lat="38.486339818152686" lon="16.25028773064182"><ele>1223.0</ele><time>2026-04-28T06:50:03.999Z</time></trkpt><trkpt lat="38.486303394190216" lon="16.250426760465285"><ele>1223.0</ele><time>2026-04-28T06:50:04.999Z</time></trkpt><trkpt lat="38.48630888478051" lon="16.250577128263135"><ele>1223.0</ele><time>2026-04-28T06:50:05.999Z</time></trkpt><trkpt lat="38.486267865079896" lon="16.250730625446344"><ele>1223.0</ele><time>2026-04-28T06:50:06.999Z</time></trkpt><trkpt lat="38.48621710944006" lon="16.250880120976994"><ele>1219.0</ele><time>2026-04-28T06:50:07.999Z</time></trkpt><trkpt lat="38.486160321535024" lon="16.250991315734268"><ele>1215.0</ele><time>2026-04-28T06:50:08.999Z</time></trkpt><trkpt lat="38.486104976281105" lon="16.25108208397413"><ele>1211.0</ele><time>2026-04-28T06:50:09.999Z</time></trkpt><trkpt lat="38.48605418861506" lon="16.251178625742334"><ele>1207.0</ele><time>2026-04-28T06:50:10.999Z</time></trkpt><trkpt lat="38.48600223674301" lon="16.25128440722314"><ele>1203.0</ele><time>2026-04-28T06:50:11.999Z</time></trkpt><trkpt lat="38.48595784069378" lon="16.25137427451866"><ele>1204.1666666666667</ele><time>2026-04-28T06:50:12.999Z</time></trkpt><trkpt lat="38.48589340152581" lon="16.251478761567306"><ele>1205.3333333333333</ele><time>2026-04-28T06:50:14.999Z</time></trkpt><trkpt lat="38.485826089460204" lon="16.251524013002843"><ele>1206.5</ele><time>2026-04-28T06:50:15.999Z</time></trkpt><trkpt lat="38.4857494823674" lon="16.251582112930258"><ele>1207.6666666666665</ele><time>2026-04-28T06:50:16.999Z</time></trkpt><trkpt lat="38.48567391751105" lon="16.251627859520795"><ele>1208.8333333333333</ele><time>2026-04-28T06:50:17.999Z</time></trkpt><trkpt lat="38.4855950484424" lon="16.251685792756373"><ele>1210.0</ele><time>2026-04-28T06:50:18.999Z</time></trkpt><trkpt lat="38.48550900443806" lon="16.251752861927592"><ele>1210.0</ele><time>2026-04-28T06:50:19.999Z</time></trkpt><trkpt lat="38.48543221737491" lon="16.251807961883856"><ele>1210.0</ele><time>2026-04-28T06:50:20.999Z</time></trkpt><trkpt lat="38.48535109645933" lon="16.251842657903488"><ele>1210.0</ele><time>2026-04-28T06:50:21.999Z</time></trkpt><trkpt lat="38.48525788590234" lon="16.251859070378906"><ele>1210.0</ele><time>2026-04-28T06:50:22.999Z</time></trkpt><trkpt lat="38.4851633308733" lon="16.251852987404085"><ele>1210.0</ele><time>2026-04-28T06:50:23.999Z</time></trkpt><trkpt lat="38.485063952965696" lon="16.251820162608645"><ele>1207.6666666666665</ele><time>2026-04-28T06:50:24.999Z</time></trkpt><trkpt lat="38.484993085387664" lon="16.251780240426932"><ele>1205.3333333333333</ele><time>2026-04-28T06:50:25.999Z</time></trkpt><trkpt lat="38.48491746484677" lon="16.251765814560425"><ele>1203.0</ele><time>2026-04-28T06:50:26.999Z</time></trkpt><trkpt lat="38.48485780074254" lon="16.251866117632293"><ele>1200.6666666666667</ele><time>2026-04-28T06:50:28.999Z</time></trkpt><trkpt lat="38.48484322388322" lon="16.251944669134282"><ele>1198.3333333333335</ele><time>2026-04-28T06:50:29.999Z</time></trkpt><trkpt lat="38.48474752568351" lon="16.2519272704897"><ele>1196.0</ele><time>2026-04-28T06:50:30.999Z</time></trkpt><trkpt lat="38.48465841324276" lon="16.252014699255703"><ele>1196.0</ele><time>2026-04-28T06:50:31.999Z</time></trkpt><trkpt lat="38.48461055738826" lon="16.252101136957908"><ele>1196.0</ele><time>2026-04-28T06:50:32.999Z</time></trkpt><trkpt lat="38.4845772112838" lon="16.252192507888775"><ele>1196.0</ele><time>2026-04-28T06:50:33.999Z</time></trkpt><trkpt lat="38.484549999919246" lon="16.252272861441362"><ele>1196.0</ele><time>2026-04-28T06:50:34.999Z</time></trkpt><trkpt lat="38.48456059149672" lon="16.252359450466248"><ele>1196.0</ele><time>2026-04-28T06:50:35.999Z</time></trkpt><trkpt lat="38.48456762275946" lon="16.25244943479976"><ele>1196.0</ele><time>2026-04-28T06:50:36.999Z</time></trkpt><trkpt lat="38.48456977992966" lon="16.252542729866427"><ele>1196.0</ele><time>2026-04-28T06:50:37.999Z</time></trkpt><trkpt lat="38.48457996838105" lon="16.252708622271886"><ele>1196.0</ele><time>2026-04-28T06:50:39.999Z</time></trkpt><trkpt lat="38.48458610988896" lon="16.252806857891027"><ele>1196.0</ele><time>2026-04-28T06:50:40.999Z</time></trkpt><trkpt lat="38.48460802870251" lon="16.252914354374102"><ele>1196.0</ele><time>2026-04-28T06:50:41.999Z</time></trkpt><trkpt lat="38.48462999408488" lon="16.253013850736075"><ele>1196.0</ele><time>2026-04-28T06:50:42.999Z</time></trkpt><trkpt lat="38.48465738992376" lon="16.253122660456764"><ele>1196.0</ele><time>2026-04-28T06:50:43.999Z</time></trkpt><trkpt lat="38.484672232858166" lon="16.253240573687002"><ele>1196.0</ele><time>2026-04-28T06:50:44.999Z</time></trkpt><trkpt lat="38.48465814479902" lon="16.25334850316649"><ele>1195.3999999999999</ele><time>2026-04-28T06:50:46Z</time></trkpt><trkpt lat="38.484650970825136" lon="16.253468306643747"><ele>1194.8</ele><time>2026-04-28T06:50:47Z</time></trkpt><trkpt lat="38.4846310958775" lon="16.253592347087967"><ele>1194.1999999999998</ele><time>2026-04-28T06:50:48Z</time></trkpt><trkpt lat="38.4845958553377" lon="16.25370219643715"><ele>1193.6</ele><time>2026-04-28T06:50:49Z</time></trkpt><trkpt lat="38.484545746620746" lon="16.253788605171025"><ele>1193.0</ele><time>2026-04-28T06:50:50Z</time></trkpt><trkpt lat="38.48438846912941" lon="16.253845762143982"><ele>1190.0</ele><time>2026-04-28T06:50:51Z</time></trkpt><trkpt lat="38.48430695246868" lon="16.253902730890328"><ele>1187.0</ele><time>2026-04-28T06:50:52Z</time></trkpt><trkpt lat="38.48424010045018" lon="16.25396551801795"><ele>1184.0</ele><time>2026-04-28T06:50:53Z</time></trkpt><trkpt lat="38.48414739573142" lon="16.25413146107812"><ele>1181.0</ele><time>2026-04-28T06:50:55Z</time></trkpt><trkpt lat="38.48407710007989" lon="16.25424518142718"><ele>1178.0</ele><time>2026-04-28T06:50:56Z</time></trkpt><trkpt lat="38.483985261827634" lon="16.254324118886508"><ele>1178.0</ele><time>2026-04-28T06:50:57Z</time></trkpt><trkpt lat="38.483920308902974" lon="16.25439660313161"><ele>1178.0</ele><time>2026-04-28T06:50:58Z</time></trkpt><trkpt lat="38.483852168342516" lon="16.254455557273484"><ele>1178.0</ele><time>2026-04-28T06:50:59Z</time></trkpt><trkpt lat="38.48378993243238" lon="16.254534416997036"><ele>1178.0</ele><time>2026-04-28T06:51:00Z</time></trkpt><trkpt lat="38.48375184168506" lon="16.254606173516766"><ele>1178.0</ele><time>2026-04-28T06:51:01Z</time></trkpt><trkpt lat="38.48367767832802" lon="16.254689133601122"><ele>1178.0</ele><time>2026-04-28T06:51:03Z</time></trkpt><trkpt lat="38.48358409310134" lon="16.254689851809296"><ele>1174.5</ele><time>2026-04-28T06:51:05Z</time></trkpt><trkpt lat="38.4834158607861" lon="16.254718086417206"><ele>1171.0</ele><time>2026-04-28T06:51:06Z</time></trkpt><trkpt lat="38.483324793072484" lon="16.254735613636758"><ele>1167.5</ele><time>2026-04-28T06:51:07Z</time></trkpt><trkpt lat="38.48321542166067" lon="16.254674523744274"><ele>1164.0</ele><time>2026-04-28T06:51:09Z</time></trkpt><trkpt lat="38.48315790188157" lon="16.254612933792295"><ele>1164.0</ele><time>2026-04-28T06:51:10Z</time></trkpt><trkpt lat="38.48306338432649" lon="16.25461009080213"><ele>1164.0</ele><time>2026-04-28T06:51:11Z</time></trkpt><trkpt lat="38.483007904628224" lon="16.254550557267354"><ele>1164.0</ele><time>2026-04-28T06:51:12Z</time></trkpt><trkpt lat="38.48268457091257" lon="16.2544455733377"><ele>1160.4</ele><time>2026-04-28T06:51:14Z</time></trkpt><trkpt lat="38.48266100954849" lon="16.254577657681523"><ele>1156.8000000000002</ele><time>2026-04-28T06:51:20Z</time></trkpt><trkpt lat="38.482675534917085" lon="16.254706687673874"><ele>1153.1999999999998</ele><time>2026-04-28T06:51:22Z</time></trkpt><trkpt lat="38.48266742241488" lon="16.25483955227782"><ele>1149.6</ele><time>2026-04-28T06:51:24Z</time></trkpt><trkpt lat="38.4826416223846" lon="16.254928709688098"><ele>1146.0</ele><time>2026-04-28T06:51:25Z</time></trkpt><trkpt lat="38.48259582394606" lon="16.255091270330425"><ele>1145.8</ele><time>2026-04-28T06:51:27Z</time></trkpt><trkpt lat="38.482557450220085" lon="16.255172164010034"><ele>1145.6</ele><time>2026-04-28T06:51:28Z</time></trkpt><trkpt lat="38.48251843925758" lon="16.255263774243417"><ele>1145.4</ele><time>2026-04-28T06:51:29Z</time></trkpt><trkpt lat="38.48244883324549" lon="16.255395856880593"><ele>1145.2</ele><time>2026-04-28T06:51:30Z</time></trkpt><trkpt lat="38.48237903188586" lon="16.255514689524286"><ele>1145.0</ele><time>2026-04-28T06:51:31Z</time></trkpt><trkpt lat="38.48231289558759" lon="16.25562070179106"><ele>1143.4</ele><time>2026-04-28T06:51:32Z</time></trkpt><trkpt lat="38.48225048958545" lon="16.255703070715978"><ele>1141.8</ele><time>2026-04-28T06:51:33Z</time></trkpt><trkpt lat="38.48215565299947" lon="16.255714607126286"><ele>1140.2</ele><time>2026-04-28T06:51:35Z</time></trkpt><trkpt lat="38.48200249603689" lon="16.255767337837888"><ele>1138.6</ele><time>2026-04-28T06:51:37Z</time></trkpt><trkpt lat="38.48192241319669" lon="16.255782327449932"><ele>1137.0</ele><time>2026-04-28T06:51:38Z</time></trkpt><trkpt lat="38.48182386269815" lon="16.255771030210088"><ele>1136.6</ele><time>2026-04-28T06:51:39Z</time></trkpt><trkpt lat="38.4817505561981" lon="16.255737007232778"><ele>1136.2</ele><time>2026-04-28T06:51:40Z</time></trkpt><trkpt lat="38.481677033489014" lon="16.25569743928674"><ele>1135.8</ele><time>2026-04-28T06:51:41Z</time></trkpt><trkpt lat="38.48163925608071" lon="16.25579538510115"><ele>1135.4</ele><time>2026-04-28T06:51:42Z</time></trkpt><trkpt lat="38.4815395509508" lon="16.255769163986162"><ele>1135.0</ele><time>2026-04-28T06:51:43Z</time></trkpt><trkpt lat="38.4814180065931" lon="16.255758493102128"><ele>1135.0</ele><time>2026-04-28T06:51:44Z</time></trkpt><trkpt lat="38.48130084801137" lon="16.255752668062478"><ele>1135.0</ele><time>2026-04-28T06:51:45Z</time></trkpt><trkpt lat="38.4811616645211" lon="16.255727913242694"><ele>1135.0</ele><time>2026-04-28T06:51:46Z</time></trkpt><trkpt lat="38.481021184608785" lon="16.255717249271402"><ele>1135.0</ele><time>2026-04-28T06:51:47Z</time></trkpt><trkpt lat="38.4809023943977" lon="16.255710474311304"><ele>1134.2</ele><time>2026-04-28T06:51:48Z</time></trkpt><trkpt lat="38.48078441966912" lon="16.2557179867749"><ele>1133.4</ele><time>2026-04-28T06:51:49Z</time></trkpt><trkpt lat="38.480672118150565" lon="16.255740198371207"><ele>1132.6</ele><time>2026-04-28T06:51:50Z</time></trkpt><trkpt lat="38.480570691643806" lon="16.25575361718786"><ele>1131.8</ele><time>2026-04-28T06:51:51Z</time></trkpt><trkpt lat="38.48050150198439" lon="16.255771240617886"><ele>1131.0</ele><time>2026-04-28T06:51:52Z</time></trkpt><trkpt lat="38.48043054578361" lon="16.255806782422013"><ele>1128.75</ele><time>2026-04-28T06:51:53Z</time></trkpt><trkpt lat="38.480335530511425" lon="16.2558677012816"><ele>1126.5</ele><time>2026-04-28T06:51:54Z</time></trkpt><trkpt lat="38.48021831602121" lon="16.25596093529335"><ele>1124.25</ele><time>2026-04-28T06:51:55Z</time></trkpt><trkpt lat="38.4801155466828" lon="16.25606498897034"><ele>1122.0</ele><time>2026-04-28T06:51:56Z</time></trkpt><trkpt lat="38.47999659340524" lon="16.256207529149844"><ele>1122.0</ele><time>2026-04-28T06:51:57Z</time></trkpt><trkpt lat="38.479862015118904" lon="16.256390012507484"><ele>1122.0</ele><time>2026-04-28T06:51:58Z</time></trkpt><trkpt lat="38.479676610902914" lon="16.25663809834723"><ele>1121.6666666666667</ele><time>2026-04-28T06:51:59Z</time></trkpt><trkpt lat="38.47952099276405" lon="16.25685114422876"><ele>1121.3333333333335</ele><time>2026-04-28T06:52:00Z</time></trkpt><trkpt lat="38.47938239225005" lon="16.257025908558067"><ele>1121.0</ele><time>2026-04-28T06:52:01Z</time></trkpt><trkpt lat="38.47927117093172" lon="16.25713706976506"><ele>1121.0</ele><time>2026-04-28T06:52:02Z</time></trkpt><trkpt lat="38.47913669698082" lon="16.25728308732029"><ele>1121.0</ele><time>2026-04-28T06:52:03Z</time></trkpt><trkpt lat="38.47901366861257" lon="16.257433052371713"><ele>1121.0</ele><time>2026-04-28T06:52:04Z</time></trkpt><trkpt lat="38.4789010045051" lon="16.25757277525905"><ele>1121.3333333333335</ele><time>2026-04-28T06:52:05Z</time></trkpt><trkpt lat="38.47879686374177" lon="16.25769105794632"><ele>1121.6666666666667</ele><time>2026-04-28T06:52:06Z</time></trkpt><trkpt lat="38.47868568214607" lon="16.257817231225278"><ele>1122.0</ele><time>2026-04-28T06:52:07Z</time></trkpt><trkpt lat="38.47856104903273" lon="16.257951046356578"><ele>1121.25</ele><time>2026-04-28T06:52:08Z</time></trkpt><trkpt lat="38.478425977351755" lon="16.258058284921955"><ele>1120.5</ele><time>2026-04-28T06:52:09Z</time></trkpt><trkpt lat="38.478306577870214" lon="16.258128153866014"><ele>1119.75</ele><time>2026-04-28T06:52:10Z</time></trkpt><trkpt lat="38.4781695114044" lon="16.258206301185183"><ele>1119.0</ele><time>2026-04-28T06:52:10.999Z</time></trkpt><trkpt lat="38.47804924175063" lon="16.258301070088482"><ele>1117.5</ele><time>2026-04-28T06:52:11.999Z</time></trkpt><trkpt lat="38.47792995104223" lon="16.258385208319506"><ele>1116.0</ele><time>2026-04-28T06:52:12.999Z</time></trkpt><trkpt lat="38.477805063656476" lon="16.258454858028088"><ele>1114.5</ele><time>2026-04-28T06:52:13.999Z</time></trkpt><trkpt lat="38.4776802423434" lon="16.258525305579813"><ele>1113.0</ele><time>2026-04-28T06:52:14.999Z</time></trkpt><trkpt lat="38.477553302274764" lon="16.258570041073007"><ele>1113.0</ele><time>2026-04-28T06:52:15.999Z</time></trkpt><trkpt lat="38.47739559589352" lon="16.25860221550298"><ele>1113.0</ele><time>2026-04-28T06:52:16.999Z</time></trkpt><trkpt lat="38.4772317207224" lon="16.25865547854449"><ele>1113.0</ele><time>2026-04-28T06:52:17.999Z</time></trkpt><trkpt lat="38.477069721885634" lon="16.258717308724346"><ele>1110.6666666666667</ele><time>2026-04-28T06:52:18.999Z</time></trkpt><trkpt lat="38.476896280507944" lon="16.258787209467705"><ele>1108.3333333333335</ele><time>2026-04-28T06:52:19.999Z</time></trkpt><trkpt lat="38.47670899367656" lon="16.258868426333443"><ele>1106.0</ele><time>2026-04-28T06:52:20.999Z</time></trkpt><trkpt lat="38.47651702037057" lon="16.258937405865375"><ele>1108.3333333333335</ele><time>2026-04-28T06:52:21.999Z</time></trkpt><trkpt lat="38.476337839574725" lon="16.259017833942963"><ele>1110.6666666666667</ele><time>2026-04-28T06:52:22.999Z</time></trkpt><trkpt lat="38.4761538200299" lon="16.25907832205387"><ele>1113.0</ele><time>2026-04-28T06:52:23.999Z</time></trkpt><trkpt lat="38.47598313586013" lon="16.25915056591541"><ele>1113.0</ele><time>2026-04-28T06:52:24.999Z</time></trkpt><trkpt lat="38.4758075390874" lon="16.259219687405203"><ele>1113.0</ele><time>2026-04-28T06:52:25.999Z</time></trkpt><trkpt lat="38.475635543665256" lon="16.259296146383967"><ele>1113.0</ele><time>2026-04-28T06:52:26.999Z</time></trkpt><trkpt lat="38.47545700485978" lon="16.25935352337972"><ele>1112.0</ele><time>2026-04-28T06:52:27.999Z</time></trkpt><trkpt lat="38.4752661614931" lon="16.259422501552173"><ele>1111.0</ele><time>2026-04-28T06:52:28.999Z</time></trkpt><trkpt lat="38.475076084260046" lon="16.25947317135253"><ele>1110.0</ele><time>2026-04-28T06:52:29.999Z</time></trkpt><trkpt lat="38.47490874737428" lon="16.259514415432264"><ele>1110.0</ele><time>2026-04-28T06:52:30.999Z</time></trkpt><trkpt lat="38.47474979505077" lon="16.25954658843983"><ele>1110.0</ele><time>2026-04-28T06:52:31.999Z</time></trkpt><trkpt lat="38.47460510452142" lon="16.259580946935547"><ele>1110.0</ele><time>2026-04-28T06:52:32.999Z</time></trkpt><trkpt lat="38.47445450239942" lon="16.25960193516679"><ele>1108.0</ele><time>2026-04-28T06:52:33.999Z</time></trkpt><trkpt lat="38.47431138079057" lon="16.259638809189042"><ele>1106.0</ele><time>2026-04-28T06:52:34.999Z</time></trkpt><trkpt lat="38.474168843266014" lon="16.259697712929768"><ele>1104.0</ele><time>2026-04-28T06:52:35.999Z</time></trkpt><trkpt lat="38.47402271530715" lon="16.25976400680012"><ele>1106.0</ele><time>2026-04-28T06:52:36.999Z</time></trkpt><trkpt lat="38.47385188807762" lon="16.259819993928584"><ele>1108.0</ele><time>2026-04-28T06:52:37.999Z</time></trkpt><trkpt lat="38.47368594524455" lon="16.259889945697925"><ele>1110.0</ele><time>2026-04-28T06:52:38.999Z</time></trkpt><trkpt lat="38.473542129421844" lon="16.259977694422872"><ele>1110.0</ele><time>2026-04-28T06:52:39.999Z</time></trkpt><trkpt lat="38.4733993225859" lon="16.260079386537566"><ele>1110.0</ele><time>2026-04-28T06:52:40.999Z</time></trkpt><trkpt lat="38.473264016905695" lon="16.26017282845728"><ele>1110.0</ele><time>2026-04-28T06:52:41.999Z</time></trkpt><trkpt lat="38.473133528180064" lon="16.260248919674623"><ele>1110.0</ele><time>2026-04-28T06:52:42.999Z</time></trkpt><trkpt lat="38.472999638325646" lon="16.2603225108154"><ele>1110.0</ele><time>2026-04-28T06:52:43.999Z</time></trkpt><trkpt lat="38.472847829048014" lon="16.26039009328238"><ele>1110.0</ele><time>2026-04-28T06:52:44.999Z</time></trkpt><trkpt lat="38.4726971303068" lon="16.26046239894303"><ele>1110.3333333333333</ele><time>2026-04-28T06:52:45.999Z</time></trkpt><trkpt lat="38.47255118075762" lon="16.26052266475408"><ele>1110.6666666666665</ele><time>2026-04-28T06:52:46.999Z</time></trkpt><trkpt lat="38.472410003394366" lon="16.26057693110811"><ele>1111.0</ele><time>2026-04-28T06:52:47.999Z</time></trkpt><trkpt lat="38.47226929724005" lon="16.26064194941024"><ele>1111.0</ele><time>2026-04-28T06:52:48.999Z</time></trkpt><trkpt lat="38.472130074172206" lon="16.260711911314043"><ele>1111.0</ele><time>2026-04-28T06:52:49.999Z</time></trkpt><trkpt lat="38.47200017695322" lon="16.26078824053091"><ele>1111.0</ele><time>2026-04-28T06:52:50.999Z</time></trkpt><trkpt lat="38.47185157004913" lon="16.26085857350654"><ele>1107.6666666666665</ele><time>2026-04-28T06:52:52.001Z</time></trkpt><trkpt lat="38.471717340791216" lon="16.260936058163157"><ele>1104.3333333333333</ele><time>2026-04-28T06:52:53.001Z</time></trkpt><trkpt lat="38.47157871522015" lon="16.26101968406279"><ele>1101.0</ele><time>2026-04-28T06:52:54.001Z</time></trkpt><trkpt lat="38.471453500252345" lon="16.261123367364196"><ele>1101.0</ele><time>2026-04-28T06:52:55.001Z</time></trkpt><trkpt lat="38.4713407843194" lon="16.261255502731995"><ele>1101.0</ele><time>2026-04-28T06:52:56.001Z</time></trkpt><trkpt lat="38.47123305087027" lon="16.261419101515877"><ele>1101.0</ele><time>2026-04-28T06:52:57.001Z</time></trkpt><trkpt lat="38.47111211425093" lon="16.261594126409797"><ele>1099.0</ele><time>2026-04-28T06:52:58.001Z</time></trkpt><trkpt lat="38.47100882342071" lon="16.26176513868984"><ele>1097.0</ele><time>2026-04-28T06:52:59.001Z</time></trkpt><trkpt lat="38.47091403632978" lon="16.26193742688887"><ele>1095.0</ele><time>2026-04-28T06:53:00.001Z</time></trkpt><trkpt lat="38.470808353193966" lon="16.26210605371379"><ele>1095.0</ele><time>2026-04-28T06:53:01.001Z</time></trkpt><trkpt lat="38.47072173102431" lon="16.262240588274597"><ele>1095.0</ele><time>2026-04-28T06:53:02.001Z</time></trkpt><trkpt lat="38.47063501222888" lon="16.26236994251128"><ele>1095.0</ele><time>2026-04-28T06:53:03Z</time></trkpt><trkpt lat="38.470561842218046" lon="16.26249908182482"><ele>1095.0</ele><time>2026-04-28T06:53:04Z</time></trkpt><trkpt lat="38.4704834212199" lon="16.262605206322913"><ele>1092.0</ele><time>2026-04-28T06:53:05.001Z</time></trkpt><trkpt lat="38.470370182775696" lon="16.2627178382029"><ele>1089.0</ele><time>2026-04-28T06:53:06Z</time></trkpt><trkpt lat="38.4702241544686" lon="16.26284309386609"><ele>1086.0</ele><time>2026-04-28T06:53:07Z</time></trkpt><trkpt lat="38.47007672639313" lon="16.26295465974847"><ele>1086.0</ele><time>2026-04-28T06:53:08Z</time></trkpt><trkpt lat="38.469918261036746" lon="16.263059205676715"><ele>1086.0</ele><time>2026-04-28T06:53:09Z</time></trkpt><trkpt lat="38.46976774528494" lon="16.263172281296516"><ele>1086.0</ele><time>2026-04-28T06:53:10Z</time></trkpt><trkpt lat="38.469627782933784" lon="16.263283473307848"><ele>1085.75</ele><time>2026-04-28T06:53:11Z</time></trkpt><trkpt lat="38.4695065255296" lon="16.263375580740764"><ele>1085.5</ele><time>2026-04-28T06:53:12Z</time></trkpt><trkpt lat="38.46938949933458" lon="16.263472856181767"><ele>1085.25</ele><time>2026-04-28T06:53:13Z</time></trkpt><trkpt lat="38.46928320513773" lon="16.26356091686739"><ele>1085.0</ele><time>2026-04-28T06:53:14Z</time></trkpt><trkpt lat="38.46917448678059" lon="16.263656158217678"><ele>1085.0</ele><time>2026-04-28T06:53:15Z</time></trkpt><trkpt lat="38.46905220058672" lon="16.263744131179134"><ele>1085.0</ele><time>2026-04-28T06:53:16Z</time></trkpt><trkpt lat="38.46893164007343" lon="16.263822227823542"><ele>1085.0</ele><time>2026-04-28T06:53:17Z</time></trkpt><trkpt lat="38.468822934807505" lon="16.263905848594973"><ele>1085.0</ele><time>2026-04-28T06:53:18Z</time></trkpt><trkpt lat="38.46871303895646" lon="16.26397509618509"><ele>1083.75</ele><time>2026-04-28T06:53:19Z</time></trkpt><trkpt lat="38.46859401330286" lon="16.26404773921915"><ele>1082.5</ele><time>2026-04-28T06:53:20Z</time></trkpt><trkpt lat="38.4684881144955" lon="16.26412767992211"><ele>1081.25</ele><time>2026-04-28T06:53:21Z</time></trkpt><trkpt lat="38.46838213636287" lon="16.264208757201544"><ele>1080.0</ele><time>2026-04-28T06:53:22Z</time></trkpt><trkpt lat="38.46825647136887" lon="16.26426842246379"><ele>1080.0</ele><time>2026-04-28T06:53:23Z</time></trkpt><trkpt lat="38.46811819584079" lon="16.264313813150068"><ele>1080.0</ele><time>2026-04-28T06:53:24Z</time></trkpt><trkpt lat="38.46796698211632" lon="16.26436635097063"><ele>1080.0</ele><time>2026-04-28T06:53:25Z</time></trkpt><trkpt lat="38.467824349973185" lon="16.26441835725333"><ele>1080.0</ele><time>2026-04-28T06:53:26Z</time></trkpt><trkpt lat="38.46768417225794" lon="16.264478018943127"><ele>1078.0</ele><time>2026-04-28T06:53:27Z</time></trkpt><trkpt lat="38.46754899784778" lon="16.264566651784122"><ele>1076.0</ele><time>2026-04-28T06:53:28Z</time></trkpt><trkpt lat="38.46740898807019" lon="16.2646579800108"><ele>1074.0</ele><time>2026-04-28T06:53:29Z</time></trkpt><trkpt lat="38.46727009851379" lon="16.26473909062049"><ele>1074.25</ele><time>2026-04-28T06:53:30Z</time></trkpt><trkpt lat="38.46714212406569" lon="16.264808302595675"><ele>1074.5</ele><time>2026-04-28T06:53:31Z</time></trkpt><trkpt lat="38.46699842533891" lon="16.2648571301306"><ele>1074.75</ele><time>2026-04-28T06:53:32Z</time></trkpt><trkpt lat="38.466847975919464" lon="16.26490933961958"><ele>1075.0</ele><time>2026-04-28T06:53:33Z</time></trkpt><trkpt lat="38.46670431727718" lon="16.26496077167991"><ele>1075.0</ele><time>2026-04-28T06:53:34Z</time></trkpt><trkpt lat="38.46657855302118" lon="16.265029387091815"><ele>1075.0</ele><time>2026-04-28T06:53:35Z</time></trkpt><trkpt lat="38.466455214360835" lon="16.265097278004273"><ele>1075.0</ele><time>2026-04-28T06:53:36Z</time></trkpt><trkpt lat="38.46633928320732" lon="16.26515886018873"><ele>1075.0</ele><time>2026-04-28T06:53:37Z</time></trkpt><trkpt lat="38.46620547432713" lon="16.265199637035067"><ele>1074.0</ele><time>2026-04-28T06:53:38Z</time></trkpt><trkpt lat="38.466085194283295" lon="16.26522135071356"><ele>1073.0</ele><time>2026-04-28T06:53:39Z</time></trkpt><trkpt lat="38.46595764763077" lon="16.265221387055828"><ele>1072.0</ele><time>2026-04-28T06:53:40Z</time></trkpt><trkpt lat="38.46582899392598" lon="16.26522546573444"><ele>1071.0</ele><time>2026-04-28T06:53:41Z</time></trkpt><trkpt lat="38.46570116148853" lon="16.26524807208696"><ele>1071.0</ele><time>2026-04-28T06:53:42Z</time></trkpt><trkpt lat="38.465586389019734" lon="16.26530506347045"><ele>1071.0</ele><time>2026-04-28T06:53:43Z</time></trkpt><trkpt lat="38.465473217008835" lon="16.265386269827335"><ele>1071.0</ele><time>2026-04-28T06:53:44Z</time></trkpt><trkpt lat="38.46534304587408" lon="16.26549429099049"><ele>1071.0</ele><time>2026-04-28T06:53:45Z</time></trkpt><trkpt lat="38.46521562932747" lon="16.265609800217792"><ele>1068.75</ele><time>2026-04-28T06:53:46Z</time></trkpt><trkpt lat="38.465095577123925" lon="16.265726863036885"><ele>1066.5</ele><time>2026-04-28T06:53:47Z</time></trkpt><trkpt lat="38.46498914190243" lon="16.265832113383016"><ele>1064.25</ele><time>2026-04-28T06:53:48Z</time></trkpt><trkpt lat="38.46488021408313" lon="16.265930089992757"><ele>1062.0</ele><time>2026-04-28T06:53:49Z</time></trkpt><trkpt lat="38.46475627833151" lon="16.266007793309893"><ele>1062.0</ele><time>2026-04-28T06:53:50Z</time></trkpt><trkpt lat="38.46462669826691" lon="16.266109700543826"><ele>1062.0</ele><time>2026-04-28T06:53:51Z</time></trkpt><trkpt lat="38.46449416896488" lon="16.26620281738675"><ele>1062.0</ele><time>2026-04-28T06:53:52Z</time></trkpt><trkpt lat="38.464371286547255" lon="16.266284854808493"><ele>1062.0</ele><time>2026-04-28T06:53:53Z</time></trkpt><trkpt lat="38.464245457266465" lon="16.266371281641167"><ele>1061.75</ele><time>2026-04-28T06:53:54Z</time></trkpt><trkpt lat="38.46411612376476" lon="16.266451405826228"><ele>1061.5</ele><time>2026-04-28T06:53:55Z</time></trkpt><trkpt lat="38.46397868000304" lon="16.266505287947865"><ele>1061.25</ele><time>2026-04-28T06:53:56Z</time></trkpt><trkpt lat="38.46384155066623" lon="16.266533840685828"><ele>1061.0</ele><time>2026-04-28T06:53:57Z</time></trkpt><trkpt lat="38.463704102064014" lon="16.26655288820398"><ele>1059.6666666666667</ele><time>2026-04-28T06:53:58Z</time></trkpt><trkpt lat="38.46356286899986" lon="16.266588263190783"><ele>1058.3333333333333</ele><time>2026-04-28T06:53:59Z</time></trkpt><trkpt lat="38.463417263863775" lon="16.26660826718021"><ele>1057.0</ele><time>2026-04-28T06:54:00Z</time></trkpt><trkpt lat="38.46325523437463" lon="16.266642498365524"><ele>1057.0</ele><time>2026-04-28T06:54:01Z</time></trkpt><trkpt lat="38.46309532381311" lon="16.266684491294683"><ele>1057.0</ele><time>2026-04-28T06:54:02Z</time></trkpt><trkpt lat="38.46294737959791" lon="16.2667146088184"><ele>1057.0</ele><time>2026-04-28T06:54:03Z</time></trkpt><trkpt lat="38.46280512791051" lon="16.266748904028933"><ele>1056.75</ele><time>2026-04-28T06:54:04Z</time></trkpt><trkpt lat="38.462668908784856" lon="16.266786437764566"><ele>1056.5</ele><time>2026-04-28T06:54:05Z</time></trkpt><trkpt lat="38.46254607180318" lon="16.266823250144906"><ele>1056.25</ele><time>2026-04-28T06:54:06Z</time></trkpt><trkpt lat="38.46242964423447" lon="16.266843469149215"><ele>1056.0</ele><time>2026-04-28T06:54:07Z</time></trkpt><trkpt lat="38.46231400632938" lon="16.266834008037097"><ele>1056.0</ele><time>2026-04-28T06:54:08Z</time></trkpt><trkpt lat="38.462206675715976" lon="16.26679543907582"><ele>1056.0</ele><time>2026-04-28T06:54:09Z</time></trkpt><trkpt lat="38.46208638418838" lon="16.26674239807184"><ele>1056.0</ele><time>2026-04-28T06:54:10Z</time></trkpt><trkpt lat="38.46197065580753" lon="16.26671229295826"><ele>1056.0</ele><time>2026-04-28T06:54:11Z</time></trkpt><trkpt lat="38.461890176558654" lon="16.26672036770903"><ele>1056.0</ele><time>2026-04-28T06:54:12Z</time></trkpt><trkpt lat="38.46178985556098" lon="16.266757788784012"><ele>1055.0</ele><time>2026-04-28T06:54:13Z</time></trkpt><trkpt lat="38.46168303251004" lon="16.266810227056677"><ele>1054.0</ele><time>2026-04-28T06:54:14Z</time></trkpt><trkpt lat="38.46154407825576" lon="16.266913191283027"><ele>1053.0</ele><time>2026-04-28T06:54:15Z</time></trkpt><trkpt lat="38.461411431738455" lon="16.26698974618803"><ele>1052.0</ele><time>2026-04-28T06:54:16Z</time></trkpt><trkpt lat="38.461299373777436" lon="16.267065468686052"><ele>1052.3333333333335</ele><time>2026-04-28T06:54:17Z</time></trkpt><trkpt lat="38.461177663736834" lon="16.267197550504793"><ele>1052.6666666666667</ele><time>2026-04-28T06:54:17.999Z</time></trkpt><trkpt lat="38.461053673600425" lon="16.267337887734485"><ele>1053.0</ele><time>2026-04-28T06:54:18.999Z</time></trkpt><trkpt lat="38.4609493000942" lon="16.26744336124693"><ele>1053.0</ele><time>2026-04-28T06:54:19.999Z</time></trkpt><trkpt lat="38.46084559648416" lon="16.267528816015925"><ele>1053.0</ele><time>2026-04-28T06:54:20.999Z</time></trkpt><trkpt lat="38.460753758675146" lon="16.267631380341527"><ele>1053.0</ele><time>2026-04-28T06:54:21.999Z</time></trkpt><trkpt lat="38.46068741709114" lon="16.267702425087677"><ele>1053.0</ele><time>2026-04-28T06:54:22.999Z</time></trkpt><trkpt lat="38.46063653598174" lon="16.26776611085394"><ele>1053.0</ele><time>2026-04-28T06:54:23.999Z</time></trkpt><trkpt lat="38.46057140402463" lon="16.26781570848544"><ele>1053.0</ele><time>2026-04-28T06:54:24.999Z</time></trkpt><trkpt lat="38.460481444467334" lon="16.26787442823879"><ele>1053.0</ele><time>2026-04-28T06:54:25.999Z</time></trkpt><trkpt lat="38.46038675960517" lon="16.267886937189434"><ele>1053.0</ele><time>2026-04-28T06:54:26.999Z</time></trkpt><trkpt lat="38.46028550290551" lon="16.267902262350987"><ele>1053.0</ele><time>2026-04-28T06:54:27.999Z</time></trkpt><trkpt lat="38.460154667054745" lon="16.26790234954515"><ele>1053.0</ele><time>2026-04-28T06:54:28.999Z</time></trkpt><trkpt lat="38.460009736324096" lon="16.267910037337863"><ele>1052.0</ele><time>2026-04-28T06:54:29.999Z</time></trkpt><trkpt lat="38.45986799760676" lon="16.26794132009008"><ele>1051.0</ele><time>2026-04-28T06:54:30.999Z</time></trkpt><trkpt lat="38.459717804554664" lon="16.26802148954403"><ele>1050.0</ele><time>2026-04-28T06:54:31.999Z</time></trkpt><trkpt lat="38.4595808387659" lon="16.268110794449395"><ele>1050.0</ele><time>2026-04-28T06:54:32.999Z</time></trkpt><trkpt lat="38.4594579067274" lon="16.268211927982737"><ele>1050.0</ele><time>2026-04-28T06:54:33.999Z</time></trkpt><trkpt lat="38.459339803242294" lon="16.26830370964527"><ele>1050.0</ele><time>2026-04-28T06:54:34.999Z</time></trkpt><trkpt lat="38.459218675641495" lon="16.268383475179313"><ele>1050.0</ele><time>2026-04-28T06:54:35.999Z</time></trkpt><trkpt lat="38.459085902890024" lon="16.268431491030487"><ele>1050.0</ele><time>2026-04-28T06:54:36.999Z</time></trkpt><trkpt lat="38.4589461024987" lon="16.2684731609465"><ele>1050.0</ele><time>2026-04-28T06:54:37.999Z</time></trkpt><trkpt lat="38.45879164365197" lon="16.268488862959497"><ele>1050.0</ele><time>2026-04-28T06:54:38.999Z</time></trkpt><trkpt lat="38.45864245566977" lon="16.2685030028783"><ele>1050.0</ele><time>2026-04-28T06:54:39.999Z</time></trkpt><trkpt lat="38.45850103281523" lon="16.268507060392952"><ele>1049.5</ele><time>2026-04-28T06:54:40.999Z</time></trkpt><trkpt lat="38.458365407031835" lon="16.268505189983998"><ele>1049.0</ele><time>2026-04-28T06:54:41.999Z</time></trkpt><trkpt lat="38.458240776623825" lon="16.268492740887595"><ele>1048.5</ele><time>2026-04-28T06:54:42.999Z</time></trkpt><trkpt lat="38.45811847613878" lon="16.268464448611997"><ele>1048.0</ele><time>2026-04-28T06:54:43.999Z</time></trkpt><trkpt lat="38.457995743701446" lon="16.26842211187455"><ele>1048.75</ele><time>2026-04-28T06:54:44.999Z</time></trkpt><trkpt lat="38.457868862311905" lon="16.268372761340018"><ele>1049.5</ele><time>2026-04-28T06:54:45.999Z</time></trkpt><trkpt lat="38.45775363865953" lon="16.268329434491246"><ele>1050.25</ele><time>2026-04-28T06:54:46.999Z</time></trkpt><trkpt lat="38.45765440188074" lon="16.268291470050006"><ele>1051.0</ele><time>2026-04-28T06:54:47.999Z</time></trkpt><trkpt lat="38.457560597304024" lon="16.26827424582648"><ele>1051.0</ele><time>2026-04-28T06:54:48.999Z</time></trkpt><trkpt lat="38.45746626861302" lon="16.26827154616602"><ele>1051.0</ele><time>2026-04-28T06:54:49.999Z</time></trkpt><trkpt lat="38.45736857083016" lon="16.26828824765853"><ele>1051.0</ele><time>2026-04-28T06:54:50.999Z</time></trkpt><trkpt lat="38.45727918766142" lon="16.268314823928453"><ele>1051.0</ele><time>2026-04-28T06:54:51.999Z</time></trkpt><trkpt lat="38.45719563210302" lon="16.2683611333612"><ele>1051.0</ele><time>2026-04-28T06:54:52.999Z</time></trkpt><trkpt lat="38.45710895684717" lon="16.26843243110832"><ele>1050.3999999999999</ele><time>2026-04-28T06:54:53.999Z</time></trkpt><trkpt lat="38.45701880115341" lon="16.26851642931726"><ele>1049.8</ele><time>2026-04-28T06:54:54.999Z</time></trkpt><trkpt lat="38.45693992499646" lon="16.268610275129905"><ele>1049.1999999999998</ele><time>2026-04-28T06:54:55.999Z</time></trkpt><trkpt lat="38.456851804647144" lon="16.268686237680186"><ele>1048.6</ele><time>2026-04-28T06:54:56.999Z</time></trkpt><trkpt lat="38.45676036264094" lon="16.26874809682232"><ele>1048.0</ele><time>2026-04-28T06:54:58.001Z</time></trkpt><trkpt lat="38.456679314940814" lon="16.268788779451754"><ele>1048.0</ele><time>2026-04-28T06:54:59.001Z</time></trkpt><trkpt lat="38.45659384702065" lon="16.268792625615877"><ele>1048.0</ele><time>2026-04-28T06:55:00.001Z</time></trkpt><trkpt lat="38.456493432997384" lon="16.268813016270133"><ele>1048.0</ele><time>2026-04-28T06:55:01.001Z</time></trkpt><trkpt lat="38.45636859832573" lon="16.268830049856803"><ele>1048.0</ele><time>2026-04-28T06:55:02.001Z</time></trkpt><trkpt lat="38.45624651664615" lon="16.26886888318356"><ele>1048.0</ele><time>2026-04-28T06:55:03.001Z</time></trkpt><trkpt lat="38.45613330104134" lon="16.26890889209054"><ele>1047.3333333333333</ele><time>2026-04-28T06:55:04.001Z</time></trkpt><trkpt lat="38.45602280619742" lon="16.2689429238164"><ele>1046.6666666666665</ele><time>2026-04-28T06:55:05.001Z</time></trkpt><trkpt lat="38.45592734153356" lon="16.268965745946684"><ele>1046.0</ele><time>2026-04-28T06:55:06.001Z</time></trkpt><trkpt lat="38.45583971667096" lon="16.268987402345658"><ele>1045.3333333333333</ele><time>2026-04-28T06:55:07.001Z</time></trkpt><trkpt lat="38.45577288950297" lon="16.269008400824635"><ele>1044.6666666666667</ele><time>2026-04-28T06:55:08.001Z</time></trkpt><trkpt lat="38.455714868809636" lon="16.26904043197465"><ele>1044.0</ele><time>2026-04-28T06:55:09.001Z</time></trkpt><trkpt lat="38.455640833463235" lon="16.269123964862597"><ele>1044.0</ele><time>2026-04-28T06:55:11.001Z</time></trkpt><trkpt lat="38.45556245410809" lon="16.269237790125615"><ele>1044.0</ele><time>2026-04-28T06:55:13Z</time></trkpt><trkpt lat="38.45550001636674" lon="16.269273513686777"><ele>1044.0</ele><time>2026-04-28T06:55:14Z</time></trkpt><trkpt lat="38.455424127207294" lon="16.26929823079495"><ele>1044.0</ele><time>2026-04-28T06:55:15Z</time></trkpt><trkpt lat="38.455343270778954" lon="16.269339239455537"><ele>1044.0</ele><time>2026-04-28T06:55:16Z</time></trkpt><trkpt lat="38.45526375565844" lon="16.269373720413707"><ele>1044.0</ele><time>2026-04-28T06:55:17Z</time></trkpt><trkpt lat="38.455198387710986" lon="16.269410090203987"><ele>1045.0</ele><time>2026-04-28T06:55:18Z</time></trkpt><trkpt lat="38.45507004771514" lon="16.269469446259606"><ele>1046.0</ele><time>2026-04-28T06:55:20Z</time></trkpt><trkpt lat="38.45497411285401" lon="16.269522226520444"><ele>1047.0</ele><time>2026-04-28T06:55:21Z</time></trkpt><trkpt lat="38.45483476253441" lon="16.269563834693084"><ele>1048.0</ele><time>2026-04-28T06:55:22Z</time></trkpt><trkpt lat="38.454631334777226" lon="16.26958303474752"><ele>1047.0</ele><time>2026-04-28T06:55:23Z</time></trkpt><trkpt lat="38.454457006849765" lon="16.2695894180674"><ele>1046.0</ele><time>2026-04-28T06:55:24Z</time></trkpt><trkpt lat="38.45429486675729" lon="16.269579738771824"><ele>1045.0</ele><time>2026-04-28T06:55:25Z</time></trkpt><trkpt lat="38.45412583924846" lon="16.26957748210559"><ele>1045.0</ele><time>2026-04-28T06:55:26Z</time></trkpt><trkpt lat="38.45396150623501" lon="16.269587013930895"><ele>1045.0</ele><time>2026-04-28T06:55:27Z</time></trkpt><trkpt lat="38.45379278522797" lon="16.269588833243585"><ele>1045.0</ele><time>2026-04-28T06:55:28Z</time></trkpt><trkpt lat="38.45362452396493" lon="16.26956845744614"><ele>1044.6666666666665</ele><time>2026-04-28T06:55:29Z</time></trkpt><trkpt lat="38.45346429557362" lon="16.26951320045484"><ele>1044.3333333333333</ele><time>2026-04-28T06:55:30Z</time></trkpt><trkpt lat="38.453307751760256" lon="16.269427246487066"><ele>1044.0</ele><time>2026-04-28T06:55:31Z</time></trkpt><trkpt lat="38.45315307924349" lon="16.269321690671962"><ele>1044.0</ele><time>2026-04-28T06:55:32Z</time></trkpt><trkpt lat="38.45298828331681" lon="16.26920646807334"><ele>1044.0</ele><time>2026-04-28T06:55:33Z</time></trkpt><trkpt lat="38.45282191746574" lon="16.269101345475683"><ele>1044.0</ele><time>2026-04-28T06:55:34Z</time></trkpt><trkpt lat="38.45266416685501" lon="16.269002545532423"><ele>1045.3333333333333</ele><time>2026-04-28T06:55:35Z</time></trkpt><trkpt lat="38.452514829454465" lon="16.268907115639564"><ele>1046.6666666666665</ele><time>2026-04-28T06:55:36Z</time></trkpt><trkpt lat="38.452373312511504" lon="16.26882255305619"><ele>1048.0</ele><time>2026-04-28T06:55:37Z</time></trkpt><trkpt lat="38.45225127724758" lon="16.268751184135386"><ele>1048.0</ele><time>2026-04-28T06:55:38Z</time></trkpt><trkpt lat="38.452161937121225" lon="16.26869651726566"><ele>1048.0</ele><time>2026-04-28T06:55:39Z</time></trkpt><trkpt lat="38.45209668942785" lon="16.26865673032053"><ele>1048.0</ele><time>2026-04-28T06:55:40Z</time></trkpt><trkpt lat="38.452028828881076" lon="16.268622889157236"><ele>1048.0</ele><time>2026-04-28T06:55:42Z</time></trkpt><trkpt lat="38.45198845314977" lon="16.268534606416534"><ele>1048.0</ele><time>2026-04-28T06:55:47Z</time></trkpt><trkpt lat="38.451977338829096" lon="16.268419847247856"><ele>1048.0</ele><time>2026-04-28T06:55:51Z</time></trkpt><trkpt lat="38.45197125049751" lon="16.268309426679792"><ele>1048.6666666666665</ele><time>2026-04-28T06:55:53Z</time></trkpt><trkpt lat="38.45198094321795" lon="16.268222339625062"><ele>1049.3333333333333</ele><time>2026-04-28T06:55:55Z</time></trkpt><trkpt lat="38.45199839253857" lon="16.268131716226357"><ele>1050.0</ele><time>2026-04-28T06:55:56Z</time></trkpt><trkpt lat="38.45201887010097" lon="16.268019688722486"><ele>1050.6666666666667</ele><time>2026-04-28T06:55:57Z</time></trkpt><trkpt lat="38.452016003101605" lon="16.26790849544211"><ele>1051.3333333333335</ele><time>2026-04-28T06:55:58Z</time></trkpt><trkpt lat="38.451991564233175" lon="16.267816430129503"><ele>1052.0</ele><time>2026-04-28T06:55:59Z</time></trkpt><trkpt lat="38.45196010108366" lon="16.26772704642285"><ele>1052.0</ele><time>2026-04-28T06:56:00Z</time></trkpt><trkpt lat="38.451933535016934" lon="16.267628703944936"><ele>1052.0</ele><time>2026-04-28T06:56:01Z</time></trkpt><trkpt lat="38.45189269302305" lon="16.26751121014135"><ele>1052.0</ele><time>2026-04-28T06:56:02Z</time></trkpt><trkpt lat="38.45185920709061" lon="16.26738388663187"><ele>1052.0</ele><time>2026-04-28T06:56:03Z</time></trkpt><trkpt lat="38.45181158922889" lon="16.26723509372788"><ele>1052.0</ele><time>2026-04-28T06:56:04Z</time></trkpt><trkpt lat="38.45176596787917" lon="16.267074338382432"><ele>1053.2</ele><time>2026-04-28T06:56:05Z</time></trkpt><trkpt lat="38.451741866116684" lon="16.266925578072204"><ele>1054.4</ele><time>2026-04-28T06:56:06Z</time></trkpt><trkpt lat="38.45170193052418" lon="16.26676872176523"><ele>1055.6</ele><time>2026-04-28T06:56:07Z</time></trkpt><trkpt lat="38.45165052204815" lon="16.266648212061977"><ele>1056.8</ele><time>2026-04-28T06:56:08Z</time></trkpt><trkpt lat="38.45159974232443" lon="16.266563014525296"><ele>1058.0</ele><time>2026-04-28T06:56:09Z</time></trkpt><trkpt lat="38.451550792437715" lon="16.266480392916577"><ele>1059.0</ele><time>2026-04-28T06:56:10Z</time></trkpt><trkpt lat="38.45149300206744" lon="16.26642394305615"><ele>1060.0</ele><time>2026-04-28T06:56:11Z</time></trkpt><trkpt lat="38.45141887463237" lon="16.266313011169085"><ele>1061.0</ele><time>2026-04-28T06:56:13Z</time></trkpt><trkpt lat="38.451379587686695" lon="16.266219808270293"><ele>1062.0</ele><time>2026-04-28T06:56:14Z</time></trkpt><trkpt lat="38.45133936457955" lon="16.266119083850484"><ele>1063.0</ele><time>2026-04-28T06:56:15Z</time></trkpt><trkpt lat="38.45128187854971" lon="16.26605301222364"><ele>1064.0</ele><time>2026-04-28T06:56:16Z</time></trkpt><trkpt lat="38.45123434775171" lon="16.265971744467258"><ele>1064.0</ele><time>2026-04-28T06:56:17Z</time></trkpt><trkpt lat="38.451193614252176" lon="16.265876789934012"><ele>1064.0</ele><time>2026-04-28T06:56:18Z</time></trkpt><trkpt lat="38.45114264923586" lon="16.265771438803494"><ele>1064.0</ele><time>2026-04-28T06:56:19Z</time></trkpt><trkpt lat="38.45108121515193" lon="16.265678310464114"><ele>1064.0</ele><time>2026-04-28T06:56:20Z</time></trkpt><trkpt lat="38.45100723448907" lon="16.265623133502963"><ele>1064.0</ele><time>2026-04-28T06:56:21Z</time></trkpt><trkpt lat="38.45093300078495" lon="16.265593267548724"><ele>1064.0</ele><time>2026-04-28T06:56:21.999Z</time></trkpt><trkpt lat="38.450865082478245" lon="16.265523458800416"><ele>1065.0</ele><time>2026-04-28T06:56:23.999Z</time></trkpt><trkpt lat="38.450801739198695" lon="16.265452530419992"><ele>1066.0</ele><time>2026-04-28T06:56:26.999Z</time></trkpt><trkpt lat="38.450708371850666" lon="16.26541987483857"><ele>1067.0</ele><time>2026-04-28T06:56:28.999Z</time></trkpt><trkpt lat="38.450617394062824" lon="16.265352116682543"><ele>1068.0</ele><time>2026-04-28T06:56:30.999Z</time></trkpt><trkpt lat="38.450536977899546" lon="16.265305830358695"><ele>1069.0</ele><time>2026-04-28T06:56:31.999Z</time></trkpt><trkpt lat="38.4504546743783" lon="16.265257561758915"><ele>1071.0</ele><time>2026-04-28T06:56:32.999Z</time></trkpt><trkpt lat="38.45036861478075" lon="16.265215174157994"><ele>1073.0</ele><time>2026-04-28T06:56:33.999Z</time></trkpt><trkpt lat="38.45026921405008" lon="16.265170847346536"><ele>1075.0</ele><time>2026-04-28T06:56:34.999Z</time></trkpt><trkpt lat="38.4501804498008" lon="16.265124312940777"><ele>1077.0</ele><time>2026-04-28T06:56:35.999Z</time></trkpt><trkpt lat="38.450101204816065" lon="16.26507779416997"><ele>1079.0</ele><time>2026-04-28T06:56:36.999Z</time></trkpt><trkpt lat="38.450015223052624" lon="16.26502196797218"><ele>1079.0</ele><time>2026-04-28T06:56:37.999Z</time></trkpt><trkpt lat="38.449926245897814" lon="16.264983374016406"><ele>1079.0</ele><time>2026-04-28T06:56:38.999Z</time></trkpt><trkpt lat="38.449828898468326" lon="16.264961250924316"><ele>1079.0</ele><time>2026-04-28T06:56:39.999Z</time></trkpt><trkpt lat="38.44973826574085" lon="16.264960682184633"><ele>1079.0</ele><time>2026-04-28T06:56:40.999Z</time></trkpt><trkpt lat="38.44967041139516" lon="16.264989534169047"><ele>1079.0</ele><time>2026-04-28T06:56:41.999Z</time></trkpt><trkpt lat="38.449612336819904" lon="16.265033173153874"><ele>1079.0</ele><time>2026-04-28T06:56:42.999Z</time></trkpt><trkpt lat="38.44954108778996" lon="16.26504713101701"><ele>1080.8</ele><time>2026-04-28T06:56:44.999Z</time></trkpt><trkpt lat="38.44944723327402" lon="16.26504637303813"><ele>1082.6000000000001</ele><time>2026-04-28T06:56:46.999Z</time></trkpt><trkpt lat="38.44934507321176" lon="16.26508891003373"><ele>1084.4</ele><time>2026-04-28T06:56:48.999Z</time></trkpt><trkpt lat="38.44927455209456" lon="16.265128066157057"><ele>1086.2</ele><time>2026-04-28T06:56:49.999Z</time></trkpt><trkpt lat="38.44918866971674" lon="16.26518029753961"><ele>1088.0</ele><time>2026-04-28T06:56:50.999Z</time></trkpt><trkpt lat="38.449097114127454" lon="16.265194262534912"><ele>1088.0</ele><time>2026-04-28T06:56:51.999Z</time></trkpt><trkpt lat="38.44902752360644" lon="16.265197725103214"><ele>1088.0</ele><time>2026-04-28T06:56:52.999Z</time></trkpt><trkpt lat="38.44894515309543" lon="16.26518107053944"><ele>1088.0</ele><time>2026-04-28T06:56:53.999Z</time></trkpt><trkpt lat="38.448866759442915" lon="16.26516325954111"><ele>1088.0</ele><time>2026-04-28T06:56:54.999Z</time></trkpt><trkpt lat="38.44878712734268" lon="16.265142079222215"><ele>1088.0</ele><time>2026-04-28T06:56:55.999Z</time></trkpt><trkpt lat="38.44869420526119" lon="16.265144970665887"><ele>1088.0</ele><time>2026-04-28T06:56:56.999Z</time></trkpt><trkpt lat="38.44857300550679" lon="16.26512292920679"><ele>1089.0</ele><time>2026-04-28T06:56:58.999Z</time></trkpt><trkpt lat="38.44850431850326" lon="16.26503560469946"><ele>1090.0</ele><time>2026-04-28T06:57:00.999Z</time></trkpt><trkpt lat="38.44842631184674" lon="16.26496303963051"><ele>1091.0</ele><time>2026-04-28T06:59:02.999Z</time></trkpt><trkpt lat="38.4483639190935" lon="16.26494851204969"><ele>1092.0</ele><time>2026-04-28T06:59:03.999Z</time></trkpt><trkpt lat="38.448280962659645" lon="16.26493219596038"><ele>1093.0</ele><time>2026-04-28T06:59:05.999Z</time></trkpt><trkpt lat="38.44818416653716" lon="16.26491264815317"><ele>1094.0</ele><time>2026-04-28T06:59:07.999Z</time></trkpt><trkpt lat="38.44811615160656" lon="16.26491671111075"><ele>1094.0</ele><time>2026-04-28T06:59:10.001Z</time></trkpt><trkpt lat="38.44804814948389" lon="16.264897251034434"><ele>1094.0</ele><time>2026-04-28T06:59:13.001Z</time></trkpt><trkpt lat="38.44796613541549" lon="16.264895625622632"><ele>1094.0</ele><time>2026-04-28T07:03:10.999Z</time></trkpt><trkpt lat="38.4478810653258" lon="16.264914056755007"><ele>1094.0</ele><time>2026-04-28T07:03:14.999Z</time></trkpt><trkpt lat="38.447781511758414" lon="16.264858430120817"><ele>1094.0</ele><time>2026-04-28T07:03:16.999Z</time></trkpt><trkpt lat="38.44771454492487" lon="16.26481192826843"><ele>1094.0</ele><time>2026-04-28T07:03:17.999Z</time></trkpt><trkpt lat="38.44763781625127" lon="16.264766713732655"><ele>1094.6000000000001</ele><time>2026-04-28T07:03:18.999Z</time></trkpt><trkpt lat="38.44757380553904" lon="16.26473255457797"><ele>1095.2</ele><time>2026-04-28T07:03:20Z</time></trkpt><trkpt lat="38.447451034671666" lon="16.264666181057013"><ele>1095.8000000000002</ele><time>2026-04-28T07:03:22Z</time></trkpt><trkpt lat="38.447352697072574" lon="16.264634436171562"><ele>1096.4</ele><time>2026-04-28T07:03:23Z</time></trkpt><trkpt lat="38.44726172816703" lon="16.2646254591144"><ele>1097.0</ele><time>2026-04-28T07:03:24Z</time></trkpt><trkpt lat="38.44719677406074" lon="16.264616355685924"><ele>1097.8</ele><time>2026-04-28T07:03:25Z</time></trkpt><trkpt lat="38.44706197877754" lon="16.264600300461293"><ele>1098.6</ele><time>2026-04-28T07:03:27Z</time></trkpt><trkpt lat="38.446984469294954" lon="16.264596188642656"><ele>1099.3999999999999</ele><time>2026-04-28T07:03:28Z</time></trkpt><trkpt lat="38.44691583726823" lon="16.264653231529927"><ele>1100.2</ele><time>2026-04-28T07:03:30Z</time></trkpt><trkpt lat="38.4468205620995" lon="16.264709602691962"><ele>1101.0</ele><time>2026-04-28T07:03:32Z</time></trkpt><trkpt lat="38.446714826830146" lon="16.264727451781745"><ele>1101.0</ele><time>2026-04-28T07:03:34Z</time></trkpt><trkpt lat="38.44663995160397" lon="16.264740965863208"><ele>1101.0</ele><time>2026-04-28T07:03:35Z</time></trkpt><trkpt lat="38.44654788924618" lon="16.26475305296769"><ele>1101.0</ele><time>2026-04-28T07:03:36Z</time></trkpt><trkpt lat="38.44646493630329" lon="16.26477410271347"><ele>1101.0</ele><time>2026-04-28T07:03:37Z</time></trkpt><trkpt lat="38.44638890741153" lon="16.264800819045526"><ele>1101.0</ele><time>2026-04-28T07:03:38Z</time></trkpt><trkpt lat="38.44626661547578" lon="16.264806963988306"><ele>1103.3999999999999</ele><time>2026-04-28T07:03:40Z</time></trkpt><trkpt lat="38.44615630663782" lon="16.26481414724292"><ele>1105.8</ele><time>2026-04-28T07:03:42Z</time></trkpt><trkpt lat="38.4460665796723" lon="16.26483397967254"><ele>1108.1999999999998</ele><time>2026-04-28T07:03:44Z</time></trkpt><trkpt lat="38.44596920483307" lon="16.264781537333445"><ele>1110.6</ele><time>2026-04-28T07:03:46Z</time></trkpt><trkpt lat="38.445887178950734" lon="16.264720660878652"><ele>1113.0</ele><time>2026-04-28T07:03:48Z</time></trkpt><trkpt lat="38.445859410357166" lon="16.264619151404542"><ele>1113.0</ele><time>2026-04-28T07:03:50Z</time></trkpt><trkpt lat="38.44573321909481" lon="16.264669604614063"><ele>1113.0</ele><time>2026-04-28T07:03:53Z</time></trkpt><trkpt lat="38.445643562578695" lon="16.264713214633467"><ele>1113.0</ele><time>2026-04-28T07:03:54Z</time></trkpt><trkpt lat="38.44556854147002" lon="16.26471975397035"><ele>1113.0</ele><time>2026-04-28T07:03:55Z</time></trkpt><trkpt lat="38.44544027947379" lon="16.26471315082447"><ele>1113.0</ele><time>2026-04-28T07:03:57Z</time></trkpt><trkpt lat="38.445362502299076" lon="16.264708906579664"><ele>1113.75</ele><time>2026-04-28T07:04:01Z</time></trkpt><trkpt lat="38.44532134725227" lon="16.264619130172637"><ele>1114.5</ele><time>2026-04-28T07:04:02Z</time></trkpt><trkpt lat="38.445274267450486" lon="16.26447577484969"><ele>1115.25</ele><time>2026-04-28T07:04:03Z</time></trkpt><trkpt lat="38.445208583165126" lon="16.26429820885472"><ele>1116.0</ele><time>2026-04-28T07:04:04Z</time></trkpt><trkpt lat="38.44514065432132" lon="16.26412114223834"><ele>1115.6666666666667</ele><time>2026-04-28T07:04:05Z</time></trkpt><trkpt lat="38.44506344215754" lon="16.26393204948148"><ele>1115.3333333333335</ele><time>2026-04-28T07:04:06Z</time></trkpt><trkpt lat="38.44497423908484" lon="16.263740673628163"><ele>1115.0</ele><time>2026-04-28T07:04:07Z</time></trkpt><trkpt lat="38.44488507087577" lon="16.263553904235476"><ele>1115.0</ele><time>2026-04-28T07:04:08Z</time></trkpt><trkpt lat="38.44481017921084" lon="16.26337270995832"><ele>1115.0</ele><time>2026-04-28T07:04:09Z</time></trkpt><trkpt lat="38.444751318358676" lon="16.26317943049337"><ele>1115.0</ele><time>2026-04-28T07:04:10Z</time></trkpt><trkpt lat="38.44470946946949" lon="16.262975750585298"><ele>1115.0</ele><time>2026-04-28T07:04:11Z</time></trkpt><trkpt lat="38.44468718954944" lon="16.26276037720383"><ele>1115.0</ele><time>2026-04-28T07:04:12Z</time></trkpt><trkpt lat="38.444682419179436" lon="16.262533329985597"><ele>1115.0</ele><time>2026-04-28T07:04:13Z</time></trkpt><trkpt lat="38.44469728005899" lon="16.262305354917405"><ele>1115.3333333333335</ele><time>2026-04-28T07:04:14Z</time></trkpt><trkpt lat="38.44472266148926" lon="16.26207924142538"><ele>1115.6666666666667</ele><time>2026-04-28T07:04:15Z</time></trkpt><trkpt lat="38.44476380022151" lon="16.261855545710123"><ele>1116.0</ele><time>2026-04-28T07:04:16Z</time></trkpt><trkpt lat="38.44481229597453" lon="16.261640484666884"><ele>1117.6666666666667</ele><time>2026-04-28T07:04:17Z</time></trkpt><trkpt lat="38.444863357233615" lon="16.2614195098124"><ele>1119.3333333333335</ele><time>2026-04-28T07:04:18Z</time></trkpt><trkpt lat="38.44492144343381" lon="16.261191716724714"><ele>1121.0</ele><time>2026-04-28T07:04:19Z</time></trkpt><trkpt lat="38.44497808008858" lon="16.26097137308329"><ele>1121.0</ele><time>2026-04-28T07:04:20Z</time></trkpt><trkpt lat="38.44503331188071" lon="16.260763424813437"><ele>1121.0</ele><time>2026-04-28T07:04:21Z</time></trkpt><trkpt lat="38.445084850177935" lon="16.26056926309293"><ele>1121.0</ele><time>2026-04-28T07:04:22Z</time></trkpt><trkpt lat="38.445120873007454" lon="16.260402153631993"><ele>1121.25</ele><time>2026-04-28T07:04:23Z</time></trkpt><trkpt lat="38.44512738469741" lon="16.260240793201174"><ele>1121.5</ele><time>2026-04-28T07:04:24Z</time></trkpt><trkpt lat="38.44510831868123" lon="16.260077104700866"><ele>1121.75</ele><time>2026-04-28T07:04:25Z</time></trkpt><trkpt lat="38.4450688412314" lon="16.259940313237706"><ele>1122.0</ele><time>2026-04-28T07:04:26Z</time></trkpt><trkpt lat="38.44501625873741" lon="16.259825450587115"><ele>1121.75</ele><time>2026-04-28T07:04:27Z</time></trkpt><trkpt lat="38.44490546966916" lon="16.259764900372456"><ele>1121.5</ele><time>2026-04-28T07:04:28Z</time></trkpt><trkpt lat="38.44476225326157" lon="16.25977356409876"><ele>1121.25</ele><time>2026-04-28T07:04:29Z</time></trkpt><trkpt lat="38.44463548384964" lon="16.259734123078495"><ele>1121.0</ele><time>2026-04-28T07:04:30Z</time></trkpt><trkpt lat="38.44454952255479" lon="16.259691086521208"><ele>1121.0</ele><time>2026-04-28T07:04:31Z</time></trkpt><trkpt lat="38.44449165263531" lon="16.259610317859227"><ele>1121.0</ele><time>2026-04-28T07:04:32Z</time></trkpt><trkpt lat="38.444443351865324" lon="16.25948670279345"><ele>1121.0</ele><time>2026-04-28T07:04:33Z</time></trkpt><trkpt lat="38.44442500516337" lon="16.25931532370587"><ele>1121.0</ele><time>2026-04-28T07:04:34Z</time></trkpt><trkpt lat="38.44438488430174" lon="16.259151051896815"><ele>1121.0</ele><time>2026-04-28T07:04:35Z</time></trkpt><trkpt lat="38.444380367995805" lon="16.258996933466488"><ele>1121.0</ele><time>2026-04-28T07:04:35.999Z</time></trkpt><trkpt lat="38.44441010892463" lon="16.258861767492764"><ele>1121.0</ele><time>2026-04-28T07:04:36.999Z</time></trkpt><trkpt lat="38.44448046336858" lon="16.25872472331813"><ele>1121.0</ele><time>2026-04-28T07:04:37.999Z</time></trkpt><trkpt lat="38.44457390469269" lon="16.25859346708947"><ele>1116.3333333333335</ele><time>2026-04-28T07:04:38.999Z</time></trkpt><trkpt lat="38.444702863266045" lon="16.258488163468513"><ele>1111.6666666666667</ele><time>2026-04-28T07:04:39.999Z</time></trkpt><trkpt lat="38.4448621981225" lon="16.25839688745801"><ele>1107.0</ele><time>2026-04-28T07:04:40.999Z</time></trkpt><trkpt lat="38.445033355162494" lon="16.258312513223718"><ele>1107.0</ele><time>2026-04-28T07:04:41.999Z</time></trkpt><trkpt lat="38.445178611036205" lon="16.258244857484026"><ele>1107.0</ele><time>2026-04-28T07:04:42.999Z</time></trkpt><trkpt lat="38.44529896245958" lon="16.258205437827627"><ele>1107.0</ele><time>2026-04-28T07:04:43.999Z</time></trkpt><trkpt lat="38.4454259261574" lon="16.258207795477375"><ele>1107.0</ele><time>2026-04-28T07:04:44.999Z</time></trkpt><trkpt lat="38.445569214166326" lon="16.258265002844215"><ele>1105.2</ele><time>2026-04-28T07:04:45.999Z</time></trkpt><trkpt lat="38.44568999365725" lon="16.25831557832276"><ele>1103.4</ele><time>2026-04-28T07:04:46.999Z</time></trkpt><trkpt lat="38.4457830903616" lon="16.25830371627812"><ele>1101.6</ele><time>2026-04-28T07:04:47.999Z</time></trkpt><trkpt lat="38.44586620487776" lon="16.258225213472944"><ele>1099.8</ele><time>2026-04-28T07:04:48.999Z</time></trkpt><trkpt lat="38.44591868650585" lon="16.258105104482322"><ele>1098.0</ele><time>2026-04-28T07:04:49.999Z</time></trkpt><trkpt lat="38.44592700481174" lon="16.25796111684536"><ele>1095.5</ele><time>2026-04-28T07:04:50.999Z</time></trkpt><trkpt lat="38.44588833947885" lon="16.257819945589283"><ele>1093.0</ele><time>2026-04-28T07:04:51.999Z</time></trkpt><trkpt lat="38.445805756599526" lon="16.257694408114528"><ele>1090.5</ele><time>2026-04-28T07:04:52.999Z</time></trkpt><trkpt lat="38.44568685052878" lon="16.257584028286416"><ele>1088.0</ele><time>2026-04-28T07:04:53.999Z</time></trkpt><trkpt lat="38.44554944416068" lon="16.2575010410861"><ele>1086.75</ele><time>2026-04-28T07:04:54.999Z</time></trkpt><trkpt lat="38.44541315898236" lon="16.25745325287972"><ele>1085.5</ele><time>2026-04-28T07:04:55.999Z</time></trkpt><trkpt lat="38.44528879607727" lon="16.25740377033013"><ele>1084.25</ele><time>2026-04-28T07:04:56.999Z</time></trkpt><trkpt lat="38.44517906819822" lon="16.257323122978622"><ele>1083.0</ele><time>2026-04-28T07:04:57.999Z</time></trkpt><trkpt lat="38.4450582588403" lon="16.25721295667139"><ele>1083.0</ele><time>2026-04-28T07:04:58.999Z</time></trkpt><trkpt lat="38.44492132024069" lon="16.257096178439337"><ele>1083.0</ele><time>2026-04-28T07:04:59.999Z</time></trkpt><trkpt lat="38.444784959302055" lon="16.2569801541498"><ele>1083.0</ele><time>2026-04-28T07:05:00.999Z</time></trkpt><trkpt lat="38.444662319626644" lon="16.256876690463088"><ele>1081.5</ele><time>2026-04-28T07:05:01.999Z</time></trkpt><trkpt lat="38.4445450040693" lon="16.25678470297373"><ele>1080.0</ele><time>2026-04-28T07:05:02.999Z</time></trkpt><trkpt lat="38.44445419594115" lon="16.256689274870162"><ele>1078.5</ele><time>2026-04-28T07:05:03.999Z</time></trkpt><trkpt lat="38.4443915263519" lon="16.256580305009926"><ele>1077.0</ele><time>2026-04-28T07:05:04.999Z</time></trkpt><trkpt lat="38.44433374881561" lon="16.256463728142947"><ele>1074.25</ele><time>2026-04-28T07:05:05.999Z</time></trkpt><trkpt lat="38.4443635964298" lon="16.25632037298565"><ele>1071.5</ele><time>2026-04-28T07:05:06.999Z</time></trkpt><trkpt lat="38.44439290541782" lon="16.256165554115935"><ele>1068.75</ele><time>2026-04-28T07:05:07.999Z</time></trkpt><trkpt lat="38.44445743520176" lon="16.25600114130297"><ele>1066.0</ele><time>2026-04-28T07:05:08.999Z</time></trkpt><trkpt lat="38.444492248429285" lon="16.255810528742543"><ele>1066.6666666666665</ele><time>2026-04-28T07:05:09.999Z</time></trkpt><trkpt lat="38.444487965524345" lon="16.255591552888212"><ele>1067.3333333333333</ele><time>2026-04-28T07:05:10.999Z</time></trkpt><trkpt lat="38.44447830987273" lon="16.25537776270193"><ele>1068.0</ele><time>2026-04-28T07:05:11.999Z</time></trkpt><trkpt lat="38.444497744436426" lon="16.255172963628144"><ele>1068.0</ele><time>2026-04-28T07:05:12.999Z</time></trkpt><trkpt lat="38.444499153386495" lon="16.25496855538754"><ele>1068.0</ele><time>2026-04-28T07:05:13.999Z</time></trkpt><trkpt lat="38.44448932703287" lon="16.254754250941648"><ele>1068.0</ele><time>2026-04-28T07:05:14.999Z</time></trkpt><trkpt lat="38.4444924725869" lon="16.25454110451466"><ele>1066.5</ele><time>2026-04-28T07:05:15.999Z</time></trkpt><trkpt lat="38.444497122845995" lon="16.25434347247741"><ele>1065.0</ele><time>2026-04-28T07:05:16.999Z</time></trkpt><trkpt lat="38.444499681999744" lon="16.254158374906382"><ele>1063.5</ele><time>2026-04-28T07:05:17.999Z</time></trkpt><trkpt lat="38.44449895741938" lon="16.253987063683244"><ele>1062.0</ele><time>2026-04-28T07:05:18.999Z</time></trkpt><trkpt lat="38.44447522684699" lon="16.253835837663836"><ele>1060.0</ele><time>2026-04-28T07:05:19.999Z</time></trkpt><trkpt lat="38.44439811810927" lon="16.253709676287666"><ele>1058.0</ele><time>2026-04-28T07:05:20.999Z</time></trkpt><trkpt lat="38.44427061588475" lon="16.253615543058014"><ele>1056.0</ele><time>2026-04-28T07:05:21.999Z</time></trkpt><trkpt lat="38.44411547559436" lon="16.253551770195855"><ele>1054.0</ele><time>2026-04-28T07:05:22.999Z</time></trkpt><trkpt lat="38.44394304182253" lon="16.253472010014235"><ele>1051.6666666666665</ele><time>2026-04-28T07:05:23.999Z</time></trkpt><trkpt lat="38.44377492333792" lon="16.253403474180562"><ele>1049.3333333333333</ele><time>2026-04-28T07:05:24.999Z</time></trkpt><trkpt lat="38.443620768774245" lon="16.253340630945843"><ele>1047.0</ele><time>2026-04-28T07:05:26Z</time></trkpt><trkpt lat="38.44348418561747" lon="16.253279817372693"><ele>1047.0</ele><time>2026-04-28T07:05:27Z</time></trkpt><trkpt lat="38.443372311694866" lon="16.253203891381276"><ele>1047.0</ele><time>2026-04-28T07:05:28Z</time></trkpt><trkpt lat="38.44328231176824" lon="16.25308720940096"><ele>1047.0</ele><time>2026-04-28T07:05:29Z</time></trkpt><trkpt lat="38.443179839621905" lon="16.252938264383655"><ele>1047.0</ele><time>2026-04-28T07:05:30Z</time></trkpt><trkpt lat="38.44304192500797" lon="16.252854828690143"><ele>1044.6666666666667</ele><time>2026-04-28T07:05:31Z</time></trkpt><trkpt lat="38.442890043690284" lon="16.252801438817162"><ele>1042.3333333333335</ele><time>2026-04-28T07:05:32Z</time></trkpt><trkpt lat="38.44274281910582" lon="16.25275442795087"><ele>1040.0</ele><time>2026-04-28T07:05:33Z</time></trkpt><trkpt lat="38.44259405701979" lon="16.252728049374568"><ele>1040.0</ele><time>2026-04-28T07:05:34Z</time></trkpt><trkpt lat="38.44243715203704" lon="16.252746287891984"><ele>1040.0</ele><time>2026-04-28T07:05:35Z</time></trkpt><trkpt lat="38.44229551582879" lon="16.252830871243326"><ele>1040.0</ele><time>2026-04-28T07:05:36Z</time></trkpt><trkpt lat="38.442158846350594" lon="16.252880001522403"><ele>1037.25</ele><time>2026-04-28T07:05:37Z</time></trkpt><trkpt lat="38.44204821809852" lon="16.25290323725954"><ele>1034.5</ele><time>2026-04-28T07:05:38Z</time></trkpt><trkpt lat="38.44193175454273" lon="16.252887492066"><ele>1031.75</ele><time>2026-04-28T07:05:39Z</time></trkpt><trkpt lat="38.44183061486714" lon="16.25280545107535"><ele>1029.0</ele><time>2026-04-28T07:05:40Z</time></trkpt><trkpt lat="38.44172263247981" lon="16.252686818804992"><ele>1029.0</ele><time>2026-04-28T07:05:41Z</time></trkpt><trkpt lat="38.4416225183959" lon="16.252563179501905"><ele>1029.0</ele><time>2026-04-28T07:05:42Z</time></trkpt><trkpt lat="38.441552381786174" lon="16.252454127819735"><ele>1029.0</ele><time>2026-04-28T07:05:43Z</time></trkpt><trkpt lat="38.441535156677205" lon="16.25231966417578"><ele>1029.0</ele><time>2026-04-28T07:05:44Z</time></trkpt><trkpt lat="38.4415523652514" lon="16.252172151958042"><ele>1027.25</ele><time>2026-04-28T07:05:45Z</time></trkpt><trkpt lat="38.44160542576793" lon="16.252009475686954"><ele>1025.5</ele><time>2026-04-28T07:05:46Z</time></trkpt><trkpt lat="38.44167406314999" lon="16.251838397943953"><ele>1023.75</ele><time>2026-04-28T07:05:47Z</time></trkpt><trkpt lat="38.44174278590652" lon="16.251659671118958"><ele>1022.0</ele><time>2026-04-28T07:05:48Z</time></trkpt><trkpt lat="38.44180366773738" lon="16.251464099019262"><ele>1018.3333333333334</ele><time>2026-04-28T07:05:49Z</time></trkpt><trkpt lat="38.44187132864494" lon="16.251253163567817"><ele>1014.6666666666667</ele><time>2026-04-28T07:05:50Z</time></trkpt><trkpt lat="38.441929620111885" lon="16.25103963410899"><ele>1011.0</ele><time>2026-04-28T07:05:51Z</time></trkpt><trkpt lat="38.441969455924244" lon="16.250816907610403"><ele>1010.6666666666667</ele><time>2026-04-28T07:05:52Z</time></trkpt><trkpt lat="38.441992000218036" lon="16.250589209829553"><ele>1010.3333333333334</ele><time>2026-04-28T07:05:53Z</time></trkpt><trkpt lat="38.44200963982046" lon="16.250376441847916"><ele>1010.0</ele><time>2026-04-28T07:05:54Z</time></trkpt><trkpt lat="38.44202118550752" lon="16.25017889331422"><ele>1010.0</ele><time>2026-04-28T07:05:55Z</time></trkpt><trkpt lat="38.442038356105776" lon="16.249994802996486"><ele>1010.0</ele><time>2026-04-28T07:05:56Z</time></trkpt><trkpt lat="38.442037520181415" lon="16.249812463629006"><ele>1010.0</ele><time>2026-04-28T07:05:57Z</time></trkpt><trkpt lat="38.44199402677323" lon="16.249607658181574"><ele>1012.0</ele><time>2026-04-28T07:05:58Z</time></trkpt><trkpt lat="38.44192555432423" lon="16.249395249427018"><ele>1014.0</ele><time>2026-04-28T07:05:59Z</time></trkpt><trkpt lat="38.44185491858446" lon="16.24919315981543"><ele>1016.0</ele><time>2026-04-28T07:06:00Z</time></trkpt><trkpt lat="38.44180563862749" lon="16.248986633853434"><ele>1016.3333333333334</ele><time>2026-04-28T07:06:01Z</time></trkpt><trkpt lat="38.44173650833547" lon="16.248785122078566"><ele>1016.6666666666667</ele><time>2026-04-28T07:06:02Z</time></trkpt><trkpt lat="38.441658861537114" lon="16.24859052101009"><ele>1017.0</ele><time>2026-04-28T07:06:03Z</time></trkpt><trkpt lat="38.441583383484655" lon="16.248401355251577"><ele>1017.0</ele><time>2026-04-28T07:06:04Z</time></trkpt><trkpt lat="38.441396666993064" lon="16.248283445441608"><ele>1017.0</ele><time>2026-04-28T07:06:05Z</time></trkpt><trkpt lat="38.44127340559938" lon="16.24813049478362"><ele>1017.0</ele><time>2026-04-28T07:06:06Z</time></trkpt><trkpt lat="38.44116752101283" lon="16.247990753198156"><ele>1021.0</ele><time>2026-04-28T07:06:07Z</time></trkpt><trkpt lat="38.44108104476245" lon="16.247866325859118"><ele>1025.0</ele><time>2026-04-28T07:06:08Z</time></trkpt><trkpt lat="38.44101725500033" lon="16.247745875118383"><ele>1029.0</ele><time>2026-04-28T07:06:09Z</time></trkpt><trkpt lat="38.44098366407526" lon="16.247610967998163"><ele>1033.0</ele><time>2026-04-28T07:06:10Z</time></trkpt><trkpt lat="38.44098216980288" lon="16.247462232826727"><ele>1033.0</ele><time>2026-04-28T07:06:11Z</time></trkpt><trkpt lat="38.44101229806867" lon="16.247308473354625"><ele>1033.0</ele><time>2026-04-28T07:06:12Z</time></trkpt><trkpt lat="38.4410451673818" lon="16.247150127775868"><ele>1033.0</ele><time>2026-04-28T07:06:13Z</time></trkpt><trkpt lat="38.44103210155492" lon="16.246980130775885"><ele>1033.0</ele><time>2026-04-28T07:06:14Z</time></trkpt><trkpt lat="38.440995375464375" lon="16.246823678001412"><ele>1036.8</ele><time>2026-04-28T07:06:15Z</time></trkpt><trkpt lat="38.44095788081949" lon="16.246704206519585"><ele>1040.6</ele><time>2026-04-28T07:06:16Z</time></trkpt><trkpt lat="38.44090316948819" lon="16.246618511561177"><ele>1044.4</ele><time>2026-04-28T07:06:17Z</time></trkpt><trkpt lat="38.44082963693899" lon="16.246566375416204"><ele>1048.2</ele><time>2026-04-28T07:06:18Z</time></trkpt><trkpt lat="38.44074244380798" lon="16.24656093621347"><ele>1052.0</ele><time>2026-04-28T07:06:19Z</time></trkpt><trkpt lat="38.44064875513412" lon="16.246612074618657"><ele>1052.0</ele><time>2026-04-28T07:06:20Z</time></trkpt><trkpt lat="38.44056039281417" lon="16.246724421896733"><ele>1052.0</ele><time>2026-04-28T07:06:21Z</time></trkpt><trkpt lat="38.44046885264665" lon="16.24686679829396"><ele>1052.0</ele><time>2026-04-28T07:06:22Z</time></trkpt><trkpt lat="38.44037139797486" lon="16.246950394644713"><ele>1052.0</ele><time>2026-04-28T07:06:23Z</time></trkpt><trkpt lat="38.44026126964507" lon="16.246963585924693"><ele>1052.75</ele><time>2026-04-28T07:06:24Z</time></trkpt><trkpt lat="38.440130706070924" lon="16.2469334342812"><ele>1053.5</ele><time>2026-04-28T07:06:25Z</time></trkpt><trkpt lat="38.439993778486254" lon="16.246885665617285"><ele>1054.25</ele><time>2026-04-28T07:06:26Z</time></trkpt><trkpt lat="38.439896649325966" lon="16.246804770130044"><ele>1055.0</ele><time>2026-04-28T07:06:27Z</time></trkpt><trkpt lat="38.439841857331295" lon="16.246698416091007"><ele>1055.0</ele><time>2026-04-28T07:06:28Z</time></trkpt><trkpt lat="38.43983717374622" lon="16.246571124008558"><ele>1055.0</ele><time>2026-04-28T07:06:29Z</time></trkpt><trkpt lat="38.43987379908997" lon="16.246420700804194"><ele>1055.0</ele><time>2026-04-28T07:06:30Z</time></trkpt><trkpt lat="38.43990755399438" lon="16.2462494962767"><ele>1055.0</ele><time>2026-04-28T07:06:31Z</time></trkpt><trkpt lat="38.43992070761723" lon="16.24606134590419"><ele>1058.3333333333335</ele><time>2026-04-28T07:06:32Z</time></trkpt><trkpt lat="38.43989974762923" lon="16.245839822164942"><ele>1061.6666666666667</ele><time>2026-04-28T07:06:33Z</time></trkpt><trkpt lat="38.43989570372413" lon="16.245625283614693"><ele>1065.0</ele><time>2026-04-28T07:06:34Z</time></trkpt><trkpt lat="38.43991686970093" lon="16.245432949819143"><ele>1066.75</ele><time>2026-04-28T07:06:35Z</time></trkpt><trkpt lat="38.439961910203344" lon="16.245247365734315"><ele>1068.5</ele><time>2026-04-28T07:06:36Z</time></trkpt><trkpt lat="38.440012643792244" lon="16.24508987773498"><ele>1070.25</ele><time>2026-04-28T07:06:37Z</time></trkpt><trkpt lat="38.44004273592329" lon="16.244948763110564"><ele>1072.0</ele><time>2026-04-28T07:06:37.999Z</time></trkpt><trkpt lat="38.44003397636194" lon="16.24481536797422"><ele>1075.75</ele><time>2026-04-28T07:06:38.999Z</time></trkpt><trkpt lat="38.440000311541965" lon="16.244679370237566"><ele>1079.5</ele><time>2026-04-28T07:06:39.999Z</time></trkpt><trkpt lat="38.43990292935574" lon="16.244553898453823"><ele>1083.25</ele><time>2026-04-28T07:06:40.999Z</time></trkpt><trkpt lat="38.43978460174923" lon="16.244436460483016"><ele>1087.0</ele><time>2026-04-28T07:06:41.999Z</time></trkpt><trkpt lat="38.439705114073014" lon="16.244297673132664"><ele>1087.0</ele><time>2026-04-28T07:06:42.999Z</time></trkpt><trkpt lat="38.4396570457051" lon="16.244163844532142"><ele>1087.0</ele><time>2026-04-28T07:06:43.999Z</time></trkpt><trkpt lat="38.43961905105847" lon="16.244045652970787"><ele>1087.0</ele><time>2026-04-28T07:06:44.999Z</time></trkpt><trkpt lat="38.43956449222035" lon="16.243986895405335"><ele>1087.0</ele><time>2026-04-28T07:06:45.999Z</time></trkpt><trkpt lat="38.439483510087335" lon="16.243980171702404"><ele>1087.0</ele><time>2026-04-28T07:06:46.999Z</time></trkpt><trkpt lat="38.439393184012125" lon="16.244002551727185"><ele>1089.8</ele><time>2026-04-28T07:06:47.999Z</time></trkpt><trkpt lat="38.43931834734377" lon="16.24406485637986"><ele>1092.6</ele><time>2026-04-28T07:06:48.999Z</time></trkpt><trkpt lat="38.439260923790805" lon="16.244142426776243"><ele>1095.3999999999999</ele><time>2026-04-28T07:06:49.999Z</time></trkpt><trkpt lat="38.43920521173625" lon="16.244268766015736"><ele>1098.2</ele><time>2026-04-28T07:06:50.999Z</time></trkpt><trkpt lat="38.43914549129838" lon="16.24440458705585"><ele>1101.0</ele><time>2026-04-28T07:06:51.999Z</time></trkpt><trkpt lat="38.439087536745006" lon="16.244525419589216"><ele>1101.0</ele><time>2026-04-28T07:06:52.999Z</time></trkpt><trkpt lat="38.43901799916159" lon="16.24461866039862"><ele>1101.0</ele><time>2026-04-28T07:06:53.999Z</time></trkpt><trkpt lat="38.43893497113774" lon="16.244660330528816"><ele>1101.0</ele><time>2026-04-28T07:06:54.999Z</time></trkpt><trkpt lat="38.43884813661794" lon="16.24464817954192"><ele>1101.0</ele><time>2026-04-28T07:06:55.999Z</time></trkpt><trkpt lat="38.43875857581623" lon="16.244587600862427"><ele>1101.0</ele><time>2026-04-28T07:06:56.999Z</time></trkpt><trkpt lat="38.43867407848809" lon="16.24449946499162"><ele>1101.6</ele><time>2026-04-28T07:06:57.999Z</time></trkpt><trkpt lat="38.43859524349409" lon="16.244449400184294"><ele>1102.1999999999998</ele><time>2026-04-28T07:06:58.999Z</time></trkpt><trkpt lat="38.43850423536912" lon="16.244462114853974"><ele>1102.8000000000002</ele><time>2026-04-28T07:06:59.999Z</time></trkpt><trkpt lat="38.43839493537356" lon="16.244492146221592"><ele>1103.4</ele><time>2026-04-28T07:07:00.999Z</time></trkpt><trkpt lat="38.438286644328244" lon="16.244527908274183"><ele>1104.0</ele><time>2026-04-28T07:07:01.999Z</time></trkpt><trkpt lat="38.43818013295107" lon="16.244541574868492"><ele>1104.0</ele><time>2026-04-28T07:07:02.999Z</time></trkpt><trkpt lat="38.43809627680189" lon="16.244502977567123"><ele>1104.0</ele><time>2026-04-28T07:07:03.999Z</time></trkpt><trkpt lat="38.438051707598454" lon="16.244424453691217"><ele>1104.0</ele><time>2026-04-28T07:07:04.999Z</time></trkpt><trkpt lat="38.438051429373104" lon="16.244316701316926"><ele>1104.0</ele><time>2026-04-28T07:07:05.999Z</time></trkpt><trkpt lat="38.438102752096825" lon="16.2442303938666"><ele>1104.0</ele><time>2026-04-28T07:07:06.999Z</time></trkpt><trkpt lat="38.438191813148734" lon="16.244166860388066"><ele>1104.0</ele><time>2026-04-28T07:07:07.999Z</time></trkpt><trkpt lat="38.43830534813317" lon="16.244121339858935"><ele>1104.0</ele><time>2026-04-28T07:07:08.999Z</time></trkpt><trkpt lat="38.43838517865284" lon="16.244035935618243"><ele>1104.0</ele><time>2026-04-28T07:07:09.999Z</time></trkpt><trkpt lat="38.438397956723584" lon="16.243901682295405"><ele>1104.0</ele><time>2026-04-28T07:07:10.999Z</time></trkpt><trkpt lat="38.43843051779077" lon="16.243740194138496"><ele>1104.0</ele><time>2026-04-28T07:07:11.999Z</time></trkpt><trkpt lat="38.43852825222532" lon="16.243525708818474"><ele>1104.0</ele><time>2026-04-28T07:07:12.999Z</time></trkpt><trkpt lat="38.438611207860404" lon="16.243333187449103"><ele>1104.0</ele><time>2026-04-28T07:07:13.999Z</time></trkpt><trkpt lat="38.43868099010005" lon="16.243153448176724"><ele>1104.0</ele><time>2026-04-28T07:07:14.999Z</time></trkpt><trkpt lat="38.43876359556524" lon="16.242997983118748"><ele>1106.0</ele><time>2026-04-28T07:07:15.999Z</time></trkpt><trkpt lat="38.438851054450474" lon="16.24285899508913"><ele>1108.0</ele><time>2026-04-28T07:07:16.999Z</time></trkpt><trkpt lat="38.43891764705117" lon="16.242722240854274"><ele>1110.0</ele><time>2026-04-28T07:07:17.999Z</time></trkpt><trkpt lat="38.438956147671576" lon="16.242578400482167"><ele>1112.0</ele><time>2026-04-28T07:07:18.999Z</time></trkpt><trkpt lat="38.438968416708995" lon="16.24241955470237"><ele>1110.6666666666667</ele><time>2026-04-28T07:07:19.999Z</time></trkpt><trkpt lat="38.438936301656696" lon="16.24225619082964"><ele>1109.3333333333333</ele><time>2026-04-28T07:07:20.999Z</time></trkpt><trkpt lat="38.438875189228476" lon="16.242069863110924"><ele>1108.0</ele><time>2026-04-28T07:07:21.999Z</time></trkpt><trkpt lat="38.438825103793526" lon="16.24186819633088"><ele>1107.0</ele><time>2026-04-28T07:07:22.999Z</time></trkpt><trkpt lat="38.43876227837586" lon="16.241669918475246"><ele>1106.0</ele><time>2026-04-28T07:07:23.999Z</time></trkpt><trkpt lat="38.438679899491305" lon="16.24148067238496"><ele>1105.0</ele><time>2026-04-28T07:07:24.999Z</time></trkpt><trkpt lat="38.43861183492001" lon="16.241291081138208"><ele>1107.3333333333333</ele><time>2026-04-28T07:07:25.999Z</time></trkpt><trkpt lat="38.43856123600871" lon="16.24110416685044"><ele>1109.6666666666667</ele><time>2026-04-28T07:07:26.999Z</time></trkpt><trkpt lat="38.43847840532496" lon="16.240943258521714"><ele>1112.0</ele><time>2026-04-28T07:07:27.999Z</time></trkpt><trkpt lat="38.43839410566488" lon="16.240791239256545"><ele>1112.0</ele><time>2026-04-28T07:07:28.999Z</time></trkpt><trkpt lat="38.43832930135107" lon="16.240640221832095"><ele>1112.0</ele><time>2026-04-28T07:07:29.999Z</time></trkpt><trkpt lat="38.438287309191935" lon="16.240497663321115"><ele>1112.0</ele><time>2026-04-28T07:07:30.999Z</time></trkpt><trkpt lat="38.438274191888844" lon="16.240343217145554"><ele>1112.0</ele><time>2026-04-28T07:07:32Z</time></trkpt><trkpt lat="38.4382707152056" lon="16.240150056092357"><ele>1112.0</ele><time>2026-04-28T07:07:33Z</time></trkpt><trkpt lat="38.43828388950404" lon="16.239952866536854"><ele>1112.0</ele><time>2026-04-28T07:07:34Z</time></trkpt><trkpt lat="38.4382933055117" lon="16.239742449402453"><ele>1112.0</ele><time>2026-04-28T07:07:35Z</time></trkpt><trkpt lat="38.43829965977076" lon="16.239535805633714"><ele>1112.0</ele><time>2026-04-28T07:07:36Z</time></trkpt><trkpt lat="38.43830089370577" lon="16.239331633425593"><ele>1112.0</ele><time>2026-04-28T07:07:37Z</time></trkpt><trkpt lat="38.43831194885321" lon="16.23915059818406"><ele>1112.0</ele><time>2026-04-28T07:07:38Z</time></trkpt><trkpt lat="38.43834398106959" lon="16.23897735892424"><ele>1112.0</ele><time>2026-04-28T07:07:39Z</time></trkpt><trkpt lat="38.43840341689637" lon="16.238805236233265"><ele>1110.6666666666667</ele><time>2026-04-28T07:07:40Z</time></trkpt><trkpt lat="38.4384907419511" lon="16.238622818775006"><ele>1109.3333333333333</ele><time>2026-04-28T07:07:41Z</time></trkpt><trkpt lat="38.43858593178754" lon="16.238426282525413"><ele>1108.0</ele><time>2026-04-28T07:07:42Z</time></trkpt><trkpt lat="38.4386788088371" lon="16.23822789495489"><ele>1106.6666666666665</ele><time>2026-04-28T07:07:43Z</time></trkpt><trkpt lat="38.438768133990415" lon="16.238040175350548"><ele>1105.3333333333333</ele><time>2026-04-28T07:07:44Z</time></trkpt><trkpt lat="38.43885032266237" lon="16.237859399994182"><ele>1104.0</ele><time>2026-04-28T07:07:45Z</time></trkpt><trkpt lat="38.43892774107745" lon="16.237677658141568"><ele>1104.0</ele><time>2026-04-28T07:07:46Z</time></trkpt><trkpt lat="38.43899237164759" lon="16.23747757845388"><ele>1104.0</ele><time>2026-04-28T07:07:47Z</time></trkpt><trkpt lat="38.4390358329531" lon="16.237268051710938"><ele>1104.0</ele><time>2026-04-28T07:07:48Z</time></trkpt><trkpt lat="38.43906853532298" lon="16.237066036834626"><ele>1104.6666666666667</ele><time>2026-04-28T07:07:49Z</time></trkpt><trkpt lat="38.43909682958314" lon="16.236865428526812"><ele>1105.3333333333335</ele><time>2026-04-28T07:07:50Z</time></trkpt><trkpt lat="38.439135084768715" lon="16.236641253576845"><ele>1106.0</ele><time>2026-04-28T07:07:51Z</time></trkpt><trkpt lat="38.439164419943246" lon="16.23641482539159"><ele>1106.0</ele><time>2026-04-28T07:07:52Z</time></trkpt><trkpt lat="38.439199391769655" lon="16.236195911878553"><ele>1106.0</ele><time>2026-04-28T07:07:53Z</time></trkpt><trkpt lat="38.43923216089414" lon="16.23597189038468"><ele>1106.0</ele><time>2026-04-28T07:07:54Z</time></trkpt><trkpt lat="38.43926416125596" lon="16.235738488474414"><ele>1107.3333333333335</ele><time>2026-04-28T07:07:55Z</time></trkpt><trkpt lat="38.43929666111498" lon="16.235497313856026"><ele>1108.6666666666667</ele><time>2026-04-28T07:07:56Z</time></trkpt><trkpt lat="38.439326791878024" lon="16.235275754679424"><ele>1110.0</ele><time>2026-04-28T07:07:57Z</time></trkpt><trkpt lat="38.43935958207821" lon="16.23507345078393"><ele>1110.0</ele><time>2026-04-28T07:07:58Z</time></trkpt><trkpt lat="38.43936432733625" lon="16.23488741358165"><ele>1110.0</ele><time>2026-04-28T07:07:59Z</time></trkpt><trkpt lat="38.439358870905615" lon="16.234686750695897"><ele>1110.0</ele><time>2026-04-28T07:08:00Z</time></trkpt><trkpt lat="38.439299838380045" lon="16.23447686812528"><ele>1109.5</ele><time>2026-04-28T07:08:01Z</time></trkpt><trkpt lat="38.439239147635526" lon="16.234282094949524"><ele>1109.0</ele><time>2026-04-28T07:08:02Z</time></trkpt><trkpt lat="38.439187369308975" lon="16.23412784275537"><ele>1108.5</ele><time>2026-04-28T07:08:03Z</time></trkpt><trkpt lat="38.43913120623785" lon="16.234007094216164"><ele>1108.0</ele><time>2026-04-28T07:08:04Z</time></trkpt><trkpt lat="38.439076170173614" lon="16.233921962081943"><ele>1108.0</ele><time>2026-04-28T07:08:05Z</time></trkpt><trkpt lat="38.43899676505063" lon="16.233877414413293"><ele>1108.0</ele><time>2026-04-28T07:08:06Z</time></trkpt><trkpt lat="38.43890963601521" lon="16.23383790655852"><ele>1108.0</ele><time>2026-04-28T07:08:07Z</time></trkpt><trkpt lat="38.43881019532322" lon="16.23377435445"><ele>1108.0</ele><time>2026-04-28T07:08:08Z</time></trkpt><trkpt lat="38.43868614998332" lon="16.233736800829327"><ele>1108.0</ele><time>2026-04-28T07:08:09Z</time></trkpt><trkpt lat="38.438553217383514" lon="16.23368894278125"><ele>1109.6666666666665</ele><time>2026-04-28T07:08:10Z</time></trkpt><trkpt lat="38.438401204222714" lon="16.233617534935977"><ele>1111.3333333333333</ele><time>2026-04-28T07:08:11Z</time></trkpt><trkpt lat="38.43823897161348" lon="16.2335377627494"><ele>1113.0</ele><time>2026-04-28T07:08:12Z</time></trkpt><trkpt lat="38.43807757649708" lon="16.23345654844915"><ele>1117.3333333333333</ele><time>2026-04-28T07:08:13Z</time></trkpt><trkpt lat="38.43790676955379" lon="16.23336338324001"><ele>1121.6666666666665</ele><time>2026-04-28T07:08:14Z</time></trkpt><trkpt lat="38.43772327971933" lon="16.233260843624326"><ele>1126.0</ele><time>2026-04-28T07:08:15Z</time></trkpt><trkpt lat="38.43754566660705" lon="16.233164587025687"><ele>1126.6666666666665</ele><time>2026-04-28T07:08:16Z</time></trkpt><trkpt lat="38.43737815900648" lon="16.233073807064642"><ele>1127.3333333333333</ele><time>2026-04-28T07:08:17Z</time></trkpt><trkpt lat="38.43721372482121" lon="16.232984692727054"><ele>1128.0</ele><time>2026-04-28T07:08:18Z</time></trkpt><trkpt lat="38.43704662566959" lon="16.232894134121622"><ele>1129.0</ele><time>2026-04-28T07:08:19Z</time></trkpt><trkpt lat="38.43690342766201" lon="16.232809224852424"><ele>1130.0</ele><time>2026-04-28T07:08:20Z</time></trkpt><trkpt lat="38.436795067506424" lon="16.232731144107824"><ele>1131.0</ele><time>2026-04-28T07:08:21Z</time></trkpt><trkpt lat="38.43669448133029" lon="16.23263092820266"><ele>1132.0</ele><time>2026-04-28T07:08:22Z</time></trkpt><trkpt lat="38.436623013598904" lon="16.23251734944788"><ele>1132.0</ele><time>2026-04-28T07:08:23Z</time></trkpt><trkpt lat="38.43657051386456" lon="16.23237313190027"><ele>1132.0</ele><time>2026-04-28T07:08:24Z</time></trkpt><trkpt lat="38.43650880778184" lon="16.23219348166206"><ele>1132.0</ele><time>2026-04-28T07:08:25Z</time></trkpt><trkpt lat="38.43644733836401" lon="16.23200080767571"><ele>1132.0</ele><time>2026-04-28T07:08:26Z</time></trkpt><trkpt lat="38.436397639289765" lon="16.231794932945114"><ele>1131.6666666666665</ele><time>2026-04-28T07:08:27Z</time></trkpt><trkpt lat="38.43632364250837" lon="16.231609348165705"><ele>1131.3333333333333</ele><time>2026-04-28T07:08:28Z</time></trkpt><trkpt lat="38.436274690203476" lon="16.231397524472488"><ele>1131.0</ele><time>2026-04-28T07:08:29Z</time></trkpt><trkpt lat="38.43619590880226" lon="16.231198121999"><ele>1132.0</ele><time>2026-04-28T07:08:30Z</time></trkpt><trkpt lat="38.436162967345744" lon="16.23100942735873"><ele>1133.0</ele><time>2026-04-28T07:08:31Z</time></trkpt><trkpt lat="38.43611709556644" lon="16.230831225687062"><ele>1134.0</ele><time>2026-04-28T07:08:32Z</time></trkpt><trkpt lat="38.43607245001335" lon="16.230649608923642"><ele>1135.0</ele><time>2026-04-28T07:08:33Z</time></trkpt><trkpt lat="38.4360429124361" lon="16.23049060984181"><ele>1135.0</ele><time>2026-04-28T07:08:34Z</time></trkpt><trkpt lat="38.43602317856551" lon="16.230355808676507"><ele>1135.0</ele><time>2026-04-28T07:08:35Z</time></trkpt><trkpt lat="38.43601320860097" lon="16.230213246081437"><ele>1135.0</ele><time>2026-04-28T07:08:36Z</time></trkpt><trkpt lat="38.4360358454644" lon="16.230057544625634"><ele>1135.0</ele><time>2026-04-28T07:08:37Z</time></trkpt><trkpt lat="38.4360751340702" lon="16.22990431474403"><ele>1133.3333333333333</ele><time>2026-04-28T07:08:38Z</time></trkpt><trkpt lat="38.43614825229163" lon="16.229744034906627"><ele>1131.6666666666667</ele><time>2026-04-28T07:08:39Z</time></trkpt><trkpt lat="38.43624346898" lon="16.229591759171804"><ele>1130.0</ele><time>2026-04-28T07:08:40Z</time></trkpt><trkpt lat="38.4363475951843" lon="16.229430089141644"><ele>1129.0</ele><time>2026-04-28T07:08:40.999Z</time></trkpt><trkpt lat="38.436430955744875" lon="16.229255010356162"><ele>1128.0</ele><time>2026-04-28T07:08:41.999Z</time></trkpt><trkpt lat="38.43648187239708" lon="16.22907593866702"><ele>1127.0</ele><time>2026-04-28T07:08:42.999Z</time></trkpt><trkpt lat="38.43652736797014" lon="16.228886907117037"><ele>1127.0</ele><time>2026-04-28T07:08:43.999Z</time></trkpt><trkpt lat="38.436528599616636" lon="16.228690290711373"><ele>1127.0</ele><time>2026-04-28T07:08:44.999Z</time></trkpt><trkpt lat="38.43648086109947" lon="16.228477585009866"><ele>1127.0</ele><time>2026-04-28T07:08:45.999Z</time></trkpt><trkpt lat="38.43640301379601" lon="16.228274491348557"><ele>1125.3333333333335</ele><time>2026-04-28T07:08:46.999Z</time></trkpt><trkpt lat="38.436301896485745" lon="16.228054712440567"><ele>1123.6666666666667</ele><time>2026-04-28T07:08:47.999Z</time></trkpt><trkpt lat="38.436191469608254" lon="16.227842921654062"><ele>1122.0</ele><time>2026-04-28T07:08:48.999Z</time></trkpt><trkpt lat="38.436083806353075" lon="16.227627884718462"><ele>1122.0</ele><time>2026-04-28T07:08:49.999Z</time></trkpt><trkpt lat="38.43597790351909" lon="16.227420050033214"><ele>1122.0</ele><time>2026-04-28T07:08:50.999Z</time></trkpt><trkpt lat="38.43586644640861" lon="16.22720500433762"><ele>1122.0</ele><time>2026-04-28T07:08:51.999Z</time></trkpt><trkpt lat="38.4357541453391" lon="16.226988330262557"><ele>1123.0</ele><time>2026-04-28T07:08:52.999Z</time></trkpt><trkpt lat="38.435644735875805" lon="16.22677640229025"><ele>1124.0</ele><time>2026-04-28T07:08:53.999Z</time></trkpt><trkpt lat="38.435544478644154" lon="16.22657750825063"><ele>1125.0</ele><time>2026-04-28T07:08:54.999Z</time></trkpt><trkpt lat="38.435449925560505" lon="16.226399491796784"><ele>1125.3333333333333</ele><time>2026-04-28T07:08:55.999Z</time></trkpt><trkpt lat="38.435362439580764" lon="16.226218644205375"><ele>1125.6666666666665</ele><time>2026-04-28T07:08:56.999Z</time></trkpt><trkpt lat="38.43527769534945" lon="16.226044265858928"><ele>1126.0</ele><time>2026-04-28T07:08:57.999Z</time></trkpt><trkpt lat="38.43523770102438" lon="16.225849749813605"><ele>1126.0</ele><time>2026-04-28T07:08:58.999Z</time></trkpt><trkpt lat="38.43522477357242" lon="16.22565349426534"><ele>1126.0</ele><time>2026-04-28T07:08:59.999Z</time></trkpt><trkpt lat="38.43524176115014" lon="16.225455617679845"><ele>1126.0</ele><time>2026-04-28T07:09:00.999Z</time></trkpt><trkpt lat="38.43527841465229" lon="16.225244250268528"><ele>1123.6666666666665</ele><time>2026-04-28T07:09:01.999Z</time></trkpt><trkpt lat="38.43532179861677" lon="16.225037099153763"><ele>1121.3333333333333</ele><time>2026-04-28T07:09:02.999Z</time></trkpt><trkpt lat="38.43536243636425" lon="16.224833706263"><ele>1119.0</ele><time>2026-04-28T07:09:03.999Z</time></trkpt><trkpt lat="38.43539875237167" lon="16.224647235941518"><ele>1116.75</ele><time>2026-04-28T07:09:04.999Z</time></trkpt><trkpt lat="38.4354493033644" lon="16.22448496532842"><ele>1114.5</ele><time>2026-04-28T07:09:05.999Z</time></trkpt><trkpt lat="38.43546890995861" lon="16.224322494191355"><ele>1112.25</ele><time>2026-04-28T07:09:06.999Z</time></trkpt><trkpt lat="38.43543503635116" lon="16.224144580821815"><ele>1110.0</ele><time>2026-04-28T07:09:07.999Z</time></trkpt><trkpt lat="38.43533228769895" lon="16.223980453814903"><ele>1109.3333333333333</ele><time>2026-04-28T07:09:08.999Z</time></trkpt><trkpt lat="38.43520391493091" lon="16.223821479640808"><ele>1108.6666666666665</ele><time>2026-04-28T07:09:09.999Z</time></trkpt><trkpt lat="38.43505144358626" lon="16.22365935232362"><ele>1108.0</ele><time>2026-04-28T07:09:10.999Z</time></trkpt><trkpt lat="38.43488470050298" lon="16.223530243305234"><ele>1108.0</ele><time>2026-04-28T07:09:11.999Z</time></trkpt><trkpt lat="38.43472469319562" lon="16.22341484177055"><ele>1108.0</ele><time>2026-04-28T07:09:12.999Z</time></trkpt><trkpt lat="38.434558139084444" lon="16.223297204464814"><ele>1108.0</ele><time>2026-04-28T07:09:13.999Z</time></trkpt><trkpt lat="38.434389740454876" lon="16.223177541990474"><ele>1110.3333333333333</ele><time>2026-04-28T07:09:14.999Z</time></trkpt><trkpt lat="38.434238488876744" lon="16.223060597528146"><ele>1112.6666666666667</ele><time>2026-04-28T07:09:15.999Z</time></trkpt><trkpt lat="38.434107600878036" lon="16.222953629657024"><ele>1115.0</ele><time>2026-04-28T07:09:16.999Z</time></trkpt><trkpt lat="38.43400446713624" lon="16.22286344425458"><ele>1115.0</ele><time>2026-04-28T07:09:17.999Z</time></trkpt><trkpt lat="38.433917753271885" lon="16.222762294201527"><ele>1115.0</ele><time>2026-04-28T07:09:18.999Z</time></trkpt><trkpt lat="38.433841755077786" lon="16.222661102241503"><ele>1115.0</ele><time>2026-04-28T07:09:19.999Z</time></trkpt><trkpt lat="38.43381731474403" lon="16.22251804099621"><ele>1115.0</ele><time>2026-04-28T07:09:20.999Z</time></trkpt><trkpt lat="38.43382684002208" lon="16.222363036422323"><ele>1114.75</ele><time>2026-04-28T07:09:21.999Z</time></trkpt><trkpt lat="38.43387210296691" lon="16.222200609063552"><ele>1114.5</ele><time>2026-04-28T07:09:22.999Z</time></trkpt><trkpt lat="38.433953651790326" lon="16.22204465619153"><ele>1114.25</ele><time>2026-04-28T07:09:23.999Z</time></trkpt><trkpt lat="38.43406064815562" lon="16.221882102967445"><ele>1114.0</ele><time>2026-04-28T07:09:24.999Z</time></trkpt><trkpt lat="38.434170107252825" lon="16.221709346896"><ele>1114.0</ele><time>2026-04-28T07:09:25.999Z</time></trkpt><trkpt lat="38.434267477989394" lon="16.22153582386795"><ele>1114.0</ele><time>2026-04-28T07:09:26.999Z</time></trkpt><trkpt lat="38.43435368118813" lon="16.22135257931186"><ele>1114.0</ele><time>2026-04-28T07:09:27.999Z</time></trkpt><trkpt lat="38.43443331637226" lon="16.221176798635433"><ele>1114.5</ele><time>2026-04-28T07:09:28.999Z</time></trkpt><trkpt lat="38.43450844739567" lon="16.221017299863757"><ele>1115.0</ele><time>2026-04-28T07:09:29.999Z</time></trkpt><trkpt lat="38.43458203162473" lon="16.220897436792264"><ele>1115.5</ele><time>2026-04-28T07:09:30.999Z</time></trkpt><trkpt lat="38.4346665616708" lon="16.22082529417024"><ele>1116.0</ele><time>2026-04-28T07:09:31.999Z</time></trkpt><trkpt lat="38.43478051585999" lon="16.22077119627942"><ele>1115.0</ele><time>2026-04-28T07:09:32.999Z</time></trkpt><trkpt lat="38.4349095799022" lon="16.2207400571618"><ele>1114.0</ele><time>2026-04-28T07:09:33.999Z</time></trkpt><trkpt lat="38.43503589990791" lon="16.220726826694232"><ele>1113.0</ele><time>2026-04-28T07:09:34.999Z</time></trkpt><trkpt lat="38.43519171923242" lon="16.220754344319054"><ele>1112.0</ele><time>2026-04-28T07:09:35.999Z</time></trkpt><trkpt lat="38.43537290946819" lon="16.220807680091166"><ele>1109.0</ele><time>2026-04-28T07:09:36.999Z</time></trkpt><trkpt lat="38.43553563804818" lon="16.220870549660027"><ele>1106.0</ele><time>2026-04-28T07:09:38Z</time></trkpt><trkpt lat="38.435678091506716" lon="16.22092517298159"><ele>1103.0</ele><time>2026-04-28T07:09:39Z</time></trkpt><trkpt lat="38.43579657703385" lon="16.220955749365668"><ele>1100.0</ele><time>2026-04-28T07:09:40Z</time></trkpt><trkpt lat="38.43592977069412" lon="16.220970072394852"><ele>1100.0</ele><time>2026-04-28T07:09:41Z</time></trkpt><trkpt lat="38.43606116904445" lon="16.220955833871024"><ele>1100.0</ele><time>2026-04-28T07:09:42Z</time></trkpt><trkpt lat="38.436180806927254" lon="16.220882380045225"><ele>1100.0</ele><time>2026-04-28T07:09:43Z</time></trkpt><trkpt lat="38.43628170341213" lon="16.22080834158969"><ele>1100.0</ele><time>2026-04-28T07:09:44Z</time></trkpt><trkpt lat="38.43635420307601" lon="16.220658073598607"><ele>1093.6666666666667</ele><time>2026-04-28T07:09:45Z</time></trkpt><trkpt lat="38.436373034327914" lon="16.22045854823033"><ele>1087.3333333333333</ele><time>2026-04-28T07:09:46Z</time></trkpt><trkpt lat="38.436368604307255" lon="16.220248984321596"><ele>1081.0</ele><time>2026-04-28T07:09:47Z</time></trkpt><trkpt lat="38.43632009550709" lon="16.22002681171663"><ele>1085.0</ele><time>2026-04-28T07:09:48Z</time></trkpt><trkpt lat="38.43626281062944" lon="16.21981984586588"><ele>1089.0</ele><time>2026-04-28T07:09:49Z</time></trkpt><trkpt lat="38.43621578366377" lon="16.219610072862892"><ele>1093.0</ele><time>2026-04-28T07:09:50Z</time></trkpt><trkpt lat="38.43616781807303" lon="16.219389849212668"><ele>1093.0</ele><time>2026-04-28T07:09:51Z</time></trkpt><trkpt lat="38.436116621894065" lon="16.21916628534628"><ele>1093.0</ele><time>2026-04-28T07:09:52Z</time></trkpt><trkpt lat="38.436064978257" lon="16.218951284913818"><ele>1093.0</ele><time>2026-04-28T07:09:53Z</time></trkpt><trkpt lat="38.43602146586184" lon="16.218761458934697"><ele>1090.5</ele><time>2026-04-28T07:09:54Z</time></trkpt><trkpt lat="38.43601523317887" lon="16.218579054757928"><ele>1088.0</ele><time>2026-04-28T07:09:55Z</time></trkpt><trkpt lat="38.43599734721111" lon="16.218404140154913"><ele>1085.5</ele><time>2026-04-28T07:09:56Z</time></trkpt><trkpt lat="38.43602397224605" lon="16.218233043659865"><ele>1083.0</ele><time>2026-04-28T07:09:57Z</time></trkpt><trkpt lat="38.43608114972011" lon="16.21806019582322"><ele>1082.0</ele><time>2026-04-28T07:09:58Z</time></trkpt><trkpt lat="38.43618007441599" lon="16.217891201499548"><ele>1081.0</ele><time>2026-04-28T07:09:59Z</time></trkpt><trkpt lat="38.436296782720596" lon="16.217693401148225"><ele>1080.0</ele><time>2026-04-28T07:10:00Z</time></trkpt><trkpt lat="38.43642010010154" lon="16.21747681528146"><ele>1079.3333333333333</ele><time>2026-04-28T07:10:01Z</time></trkpt><trkpt lat="38.436554134982494" lon="16.217273484770626"><ele>1078.6666666666665</ele><time>2026-04-28T07:10:02Z</time></trkpt><trkpt lat="38.43667472816779" lon="16.217079668198398"><ele>1078.0</ele><time>2026-04-28T07:10:03Z</time></trkpt><trkpt lat="38.4367842837275" lon="16.21689873508325"><ele>1078.0</ele><time>2026-04-28T07:10:04Z</time></trkpt><trkpt lat="38.43687833215613" lon="16.216746891437495"><ele>1078.0</ele><time>2026-04-28T07:10:05Z</time></trkpt><trkpt lat="38.43694885214742" lon="16.216598822848585"><ele>1078.0</ele><time>2026-04-28T07:10:06Z</time></trkpt><trkpt lat="38.436995820935465" lon="16.216443238348543"><ele>1078.0</ele><time>2026-04-28T07:10:07Z</time></trkpt><trkpt lat="38.43701350392877" lon="16.216261274371913"><ele>1076.0</ele><time>2026-04-28T07:10:08Z</time></trkpt><trkpt lat="38.43698981073602" lon="16.216074265817394"><ele>1074.0</ele><time>2026-04-28T07:10:09Z</time></trkpt><trkpt lat="38.43692541079636" lon="16.215891267785974"><ele>1072.0</ele><time>2026-04-28T07:10:10Z</time></trkpt><trkpt lat="38.43682194335765" lon="16.21572244157227"><ele>1065.3333333333333</ele><time>2026-04-28T07:10:11Z</time></trkpt><trkpt lat="38.436698736806804" lon="16.21559294662473"><ele>1058.6666666666667</ele><time>2026-04-28T07:10:12Z</time></trkpt><trkpt lat="38.43658257795355" lon="16.215482984422255"><ele>1052.0</ele><time>2026-04-28T07:10:13Z</time></trkpt><trkpt lat="38.436436627687385" lon="16.215437785527513"><ele>1054.6666666666667</ele><time>2026-04-28T07:10:14Z</time></trkpt><trkpt lat="38.43627690796542" lon="16.215427614904765"><ele>1057.3333333333333</ele><time>2026-04-28T07:10:15Z</time></trkpt><trkpt lat="38.436100557219625" lon="16.215486925509577"><ele>1060.0</ele><time>2026-04-28T07:10:16Z</time></trkpt><trkpt lat="38.43591386608636" lon="16.215524803511343"><ele>1060.0</ele><time>2026-04-28T07:10:17Z</time></trkpt><trkpt lat="38.43573302836626" lon="16.215580579421292"><ele>1060.0</ele><time>2026-04-28T07:10:18Z</time></trkpt><trkpt lat="38.435576861477344" lon="16.215619719650718"><ele>1060.0</ele><time>2026-04-28T07:10:19Z</time></trkpt><trkpt lat="38.43542834436023" lon="16.215642945175766"><ele>1060.6666666666665</ele><time>2026-04-28T07:10:20Z</time></trkpt><trkpt lat="38.43527503108713" lon="16.21565106337868"><ele>1061.3333333333333</ele><time>2026-04-28T07:10:21Z</time></trkpt><trkpt lat="38.435111336702946" lon="16.21564230566068"><ele>1062.0</ele><time>2026-04-28T07:10:22Z</time></trkpt><trkpt lat="38.43494905888589" lon="16.215614612298708"><ele>1062.0</ele><time>2026-04-28T07:10:23Z</time></trkpt><trkpt lat="38.43479302278955" lon="16.215574286794514"><ele>1062.0</ele><time>2026-04-28T07:10:24Z</time></trkpt><trkpt lat="38.434640746627544" lon="16.215519648079404"><ele>1062.0</ele><time>2026-04-28T07:10:25Z</time></trkpt><trkpt lat="38.43449340227947" lon="16.215438968009362"><ele>1059.6666666666667</ele><time>2026-04-28T07:10:26Z</time></trkpt><trkpt lat="38.43433651032114" lon="16.215334920353055"><ele>1057.3333333333335</ele><time>2026-04-28T07:10:27Z</time></trkpt><trkpt lat="38.43417853365378" lon="16.215205151262843"><ele>1055.0</ele><time>2026-04-28T07:10:28Z</time></trkpt><trkpt lat="38.434033280427" lon="16.215047452559123"><ele>1055.0</ele><time>2026-04-28T07:10:29Z</time></trkpt><trkpt lat="38.433893186806046" lon="16.214872764377503"><ele>1055.0</ele><time>2026-04-28T07:10:30Z</time></trkpt><trkpt lat="38.43375859814935" lon="16.21469648721764"><ele>1055.0</ele><time>2026-04-28T07:10:31Z</time></trkpt><trkpt lat="38.433632511725214" lon="16.21452705145751"><ele>1053.0</ele><time>2026-04-28T07:10:32Z</time></trkpt><trkpt lat="38.43351326452353" lon="16.214364724387067"><ele>1051.0</ele><time>2026-04-28T07:10:33Z</time></trkpt><trkpt lat="38.43339712285551" lon="16.214203008041423"><ele>1049.0</ele><time>2026-04-28T07:10:34Z</time></trkpt><trkpt lat="38.433283505665635" lon="16.21404776021733"><ele>1050.25</ele><time>2026-04-28T07:10:35Z</time></trkpt><trkpt lat="38.4331828456439" lon="16.213909950894877"><ele>1051.5</ele><time>2026-04-28T07:10:36Z</time></trkpt><trkpt lat="38.43309541548126" lon="16.213768316359076"><ele>1052.75</ele><time>2026-04-28T07:10:37Z</time></trkpt><trkpt lat="38.43303087757967" lon="16.213625785597287"><ele>1054.0</ele><time>2026-04-28T07:10:38Z</time></trkpt><trkpt lat="38.432966632778395" lon="16.213485831013635"><ele>1054.0</ele><time>2026-04-28T07:10:39Z</time></trkpt><trkpt lat="38.43297632820097" lon="16.21333004512774"><ele>1054.0</ele><time>2026-04-28T07:10:40Z</time></trkpt><trkpt lat="38.4330300184813" lon="16.21316462507742"><ele>1054.0</ele><time>2026-04-28T07:10:41Z</time></trkpt><trkpt lat="38.43309018920268" lon="16.2129812023528"><ele>1054.0</ele><time>2026-04-28T07:10:41.999Z</time></trkpt><trkpt lat="38.43317566697307" lon="16.21280092367319"><ele>1050.6666666666665</ele><time>2026-04-28T07:10:42.999Z</time></trkpt><trkpt lat="38.43324526116416" lon="16.2126177937745"><ele>1047.3333333333333</ele><time>2026-04-28T07:10:43.999Z</time></trkpt><trkpt lat="38.4332939331389" lon="16.21242703071791"><ele>1044.0</ele><time>2026-04-28T07:10:44.999Z</time></trkpt><trkpt lat="38.43331898805902" lon="16.21223334342488"><ele>1043.6666666666667</ele><time>2026-04-28T07:10:45.999Z</time></trkpt><trkpt lat="38.43331610626232" lon="16.212029999928685"><ele>1043.3333333333335</ele><time>2026-04-28T07:10:46.999Z</time></trkpt><trkpt lat="38.43328024254447" lon="16.21182014156607"><ele>1043.0</ele><time>2026-04-28T07:10:47.999Z</time></trkpt><trkpt lat="38.43322564218141" lon="16.2116176903043"><ele>1046.6666666666667</ele><time>2026-04-28T07:10:48.999Z</time></trkpt><trkpt lat="38.433153976211855" lon="16.211423957922122"><ele>1050.3333333333333</ele><time>2026-04-28T07:10:49.999Z</time></trkpt><trkpt lat="38.433057437748204" lon="16.211247179491185"><ele>1054.0</ele><time>2026-04-28T07:10:50.999Z</time></trkpt><trkpt lat="38.43293610085988" lon="16.211095660390967"><ele>1054.0</ele><time>2026-04-28T07:10:51.999Z</time></trkpt><trkpt lat="38.432788902338096" lon="16.21094511878652"><ele>1054.0</ele><time>2026-04-28T07:10:52.999Z</time></trkpt><trkpt lat="38.432645303411164" lon="16.210804082786353"><ele>1054.0</ele><time>2026-04-28T07:10:53.999Z</time></trkpt><trkpt lat="38.432516953067456" lon="16.210669923062348"><ele>1054.3333333333333</ele><time>2026-04-28T07:10:54.999Z</time></trkpt><trkpt lat="38.43239276586037" lon="16.210538268515936"><ele>1054.6666666666667</ele><time>2026-04-28T07:10:55.999Z</time></trkpt><trkpt lat="38.432285073712585" lon="16.210407937149732"><ele>1055.0</ele><time>2026-04-28T07:10:56.999Z</time></trkpt><trkpt lat="38.43218915365095" lon="16.21026262712843"><ele>1051.6666666666667</ele><time>2026-04-28T07:10:57.999Z</time></trkpt><trkpt lat="38.4321017955117" lon="16.210091919750198"><ele>1048.3333333333333</ele><time>2026-04-28T07:10:58.999Z</time></trkpt><trkpt lat="38.432033397597515" lon="16.209928504921415"><ele>1045.0</ele><time>2026-04-28T07:10:59.999Z</time></trkpt><trkpt lat="38.431978499907764" lon="16.209753360125905"><ele>1043.5</ele><time>2026-04-28T07:11:00.999Z</time></trkpt><trkpt lat="38.43192740259379" lon="16.209573069039738"><ele>1042.0</ele><time>2026-04-28T07:11:01.999Z</time></trkpt><trkpt lat="38.43188312471185" lon="16.209388001566364"><ele>1040.5</ele><time>2026-04-28T07:11:02.999Z</time></trkpt><trkpt lat="38.43184532735411" lon="16.209214423457215"><ele>1039.0</ele><time>2026-04-28T07:11:03.999Z</time></trkpt><trkpt lat="38.43180939200807" lon="16.209049042944738"><ele>1038.0</ele><time>2026-04-28T07:11:04.999Z</time></trkpt><trkpt lat="38.43177413045019" lon="16.208885463921646"><ele>1037.0</ele><time>2026-04-28T07:11:05.999Z</time></trkpt><trkpt lat="38.43173886438182" lon="16.208721863870146"><ele>1036.0</ele><time>2026-04-28T07:11:06.999Z</time></trkpt><trkpt lat="38.43169585383819" lon="16.20852761508063"><ele>1035.0</ele><time>2026-04-28T07:11:07.999Z</time></trkpt><trkpt lat="38.43164411543447" lon="16.208305841093054"><ele>1035.3333333333333</ele><time>2026-04-28T07:11:08.999Z</time></trkpt><trkpt lat="38.43158878295037" lon="16.208073848251214"><ele>1035.6666666666665</ele><time>2026-04-28T07:11:09.999Z</time></trkpt><trkpt lat="38.431529098095524" lon="16.207830268466854"><ele>1036.0</ele><time>2026-04-28T07:11:10.999Z</time></trkpt><trkpt lat="38.43147476403869" lon="16.207608525758605"><ele>1036.0</ele><time>2026-04-28T07:11:11.999Z</time></trkpt><trkpt lat="38.43141832247208" lon="16.20739863941425"><ele>1036.0</ele><time>2026-04-28T07:11:12.999Z</time></trkpt><trkpt lat="38.431351579040054" lon="16.20719423406535"><ele>1036.0</ele><time>2026-04-28T07:11:13.999Z</time></trkpt><trkpt lat="38.4312717804865" lon="16.207005754359667"><ele>1036.6666666666665</ele><time>2026-04-28T07:11:14.999Z</time></trkpt><trkpt lat="38.431156968278934" lon="16.206829107323134"><ele>1037.3333333333333</ele><time>2026-04-28T07:11:15.999Z</time></trkpt><trkpt lat="38.43104955662021" lon="16.20662903124555"><ele>1038.0</ele><time>2026-04-28T07:11:16.999Z</time></trkpt><trkpt lat="38.43089500532538" lon="16.206440990040832"><ele>1039.0</ele><time>2026-04-28T07:11:17.999Z</time></trkpt><trkpt lat="38.43073667682484" lon="16.206285200449642"><ele>1040.0</ele><time>2026-04-28T07:11:18.999Z</time></trkpt><trkpt lat="38.430551996312566" lon="16.20616604232097"><ele>1041.0</ele><time>2026-04-28T07:11:19.999Z</time></trkpt><trkpt lat="38.430384139454844" lon="16.206030024406505"><ele>1039.0</ele><time>2026-04-28T07:11:20.999Z</time></trkpt><trkpt lat="38.4302380269542" lon="16.20591278272578"><ele>1037.0</ele><time>2026-04-28T07:11:21.999Z</time></trkpt><trkpt lat="38.43011614496598" lon="16.205804902145314"><ele>1035.0</ele><time>2026-04-28T07:11:22.999Z</time></trkpt><trkpt lat="38.430017029600045" lon="16.20568509665333"><ele>1036.3333333333333</ele><time>2026-04-28T07:11:23.999Z</time></trkpt><trkpt lat="38.42991299985743" lon="16.205549588284494"><ele>1037.6666666666665</ele><time>2026-04-28T07:11:24.999Z</time></trkpt><trkpt lat="38.42980539142568" lon="16.205377549112235"><ele>1039.0</ele><time>2026-04-28T07:11:25.999Z</time></trkpt><trkpt lat="38.4297147505152" lon="16.20519364638608"><ele>1036.3333333333333</ele><time>2026-04-28T07:11:26.999Z</time></trkpt><trkpt lat="38.429622284692456" lon="16.204990359332715"><ele>1033.6666666666667</ele><time>2026-04-28T07:11:27.999Z</time></trkpt><trkpt lat="38.4295267522733" lon="16.2047927919173"><ele>1031.0</ele><time>2026-04-28T07:11:28.999Z</time></trkpt><trkpt lat="38.42945231002854" lon="16.204598554911275"><ele>1031.0</ele><time>2026-04-28T07:11:29.999Z</time></trkpt><trkpt lat="38.429358005730926" lon="16.204419569609044"><ele>1031.0</ele><time>2026-04-28T07:11:30.999Z</time></trkpt><trkpt lat="38.42928804876726" lon="16.204239999427127"><ele>1031.0</ele><time>2026-04-28T07:11:31.999Z</time></trkpt><trkpt lat="38.429214640858454" lon="16.20407871632816"><ele>1031.5</ele><time>2026-04-28T07:11:32.999Z</time></trkpt><trkpt lat="38.429142238700216" lon="16.20393058170379"><ele>1032.0</ele><time>2026-04-28T07:11:33.999Z</time></trkpt><trkpt lat="38.4290766897452" lon="16.2037936711767"><ele>1032.5</ele><time>2026-04-28T07:11:34.999Z</time></trkpt><trkpt lat="38.429010038963185" lon="16.203667288800684"><ele>1033.0</ele><time>2026-04-28T07:11:35.999Z</time></trkpt><trkpt lat="38.42893966352152" lon="16.203543439960338"><ele>1033.0</ele><time>2026-04-28T07:11:36.999Z</time></trkpt><trkpt lat="38.42887883729251" lon="16.203420475683426"><ele>1033.0</ele><time>2026-04-28T07:11:37.999Z</time></trkpt><trkpt lat="38.42882237640589" lon="16.203314243361927"><ele>1033.0</ele><time>2026-04-28T07:11:38.999Z</time></trkpt><trkpt lat="38.42877642561976" lon="16.20322091600903"><ele>1033.0</ele><time>2026-04-28T07:11:39.999Z</time></trkpt><trkpt lat="38.428705084274256" lon="16.203126844157197"><ele>1033.0</ele><time>2026-04-28T07:11:41.999Z</time></trkpt><trkpt lat="38.428639787605505" lon="16.203146436741065"><ele>1032.8</ele><time>2026-04-28T07:11:44Z</time></trkpt><trkpt lat="38.42853090784845" lon="16.20316361936631"><ele>1032.6</ele><time>2026-04-28T07:11:47Z</time></trkpt><trkpt lat="38.42844619429907" lon="16.203160687757435"><ele>1032.4</ele><time>2026-04-28T07:11:48Z</time></trkpt><trkpt lat="38.428330922685916" lon="16.20314329072204"><ele>1032.2</ele><time>2026-04-28T07:11:49Z</time></trkpt><trkpt lat="38.42819904298757" lon="16.203127640261723"><ele>1032.0</ele><time>2026-04-28T07:11:50Z</time></trkpt><trkpt lat="38.428086916015936" lon="16.203096769142206"><ele>1031.4</ele><time>2026-04-28T07:11:51Z</time></trkpt><trkpt lat="38.42797647684547" lon="16.20309541269338"><ele>1030.8000000000002</ele><time>2026-04-28T07:11:52Z</time></trkpt><trkpt lat="38.42787610547243" lon="16.203095778422433"><ele>1030.2</ele><time>2026-04-28T07:11:53Z</time></trkpt><trkpt lat="38.42778728619" lon="16.20310538051399"><ele>1029.6000000000001</ele><time>2026-04-28T07:11:54Z</time></trkpt><trkpt lat="38.42770545115272" lon="16.20310422480392"><ele>1029.0</ele><time>2026-04-28T07:11:55Z</time></trkpt><trkpt lat="38.42762672322954" lon="16.203095969216193"><ele>1029.0</ele><time>2026-04-28T07:11:56Z</time></trkpt><trkpt lat="38.427547046424934" lon="16.203099242799958"><ele>1029.0</ele><time>2026-04-28T07:11:57Z</time></trkpt><trkpt lat="38.42747117731261" lon="16.203085817529892"><ele>1029.0</ele><time>2026-04-28T07:11:58Z</time></trkpt><trkpt lat="38.42738231435958" lon="16.203097093209106"><ele>1029.0</ele><time>2026-04-28T07:11:59Z</time></trkpt><trkpt lat="38.42728399451412" lon="16.203106628637208"><ele>1029.0</ele><time>2026-04-28T07:12:00Z</time></trkpt><trkpt lat="38.427208242930945" lon="16.203113332663595"><ele>1029.0</ele><time>2026-04-28T07:12:01Z</time></trkpt><trkpt lat="38.42711524810271" lon="16.203123389222135"><ele>1028.6666666666667</ele><time>2026-04-28T07:12:03Z</time></trkpt><trkpt lat="38.42701933338899" lon="16.20310139534512"><ele>1028.3333333333333</ele><time>2026-04-28T07:12:07Z</time></trkpt><trkpt lat="38.42697717233429" lon="16.203040612777766"><ele>1028.0</ele><time>2026-04-28T07:12:09Z</time></trkpt><trkpt lat="38.42692053934243" lon="16.2029807920057"><ele>1027.6666666666665</ele><time>2026-04-28T07:12:11Z</time></trkpt><trkpt lat="38.42686208353292" lon="16.20294655379366"><ele>1027.3333333333333</ele><time>2026-04-28T07:12:12Z</time></trkpt><trkpt lat="38.42676802502428" lon="16.202875868934218"><ele>1027.0</ele><time>2026-04-28T07:12:14Z</time></trkpt><trkpt lat="38.426701727128794" lon="16.202845582108285"><ele>1027.0</ele><time>2026-04-28T07:12:15Z</time></trkpt><trkpt lat="38.42659413340318" lon="16.202851243460866"><ele>1027.0</ele><time>2026-04-28T07:12:18Z</time></trkpt><trkpt lat="38.42653093922698" lon="16.20291618859574"><ele>1027.0</ele><time>2026-04-28T07:12:20Z</time></trkpt><trkpt lat="38.426458070801765" lon="16.202947976604065"><ele>1027.0</ele><time>2026-04-28T07:12:21Z</time></trkpt><trkpt lat="38.42636649536836" lon="16.202978540397073"><ele>1027.0</ele><time>2026-04-28T07:12:22Z</time></trkpt><trkpt lat="38.42628447039709" lon="16.202957984994157"><ele>1027.0</ele><time>2026-04-28T07:12:24Z</time></trkpt><trkpt lat="38.42621615879485" lon="16.20291795573212"><ele>1027.8</ele><time>2026-04-28T07:12:25Z</time></trkpt><trkpt lat="38.42614042558168" lon="16.20285683558487"><ele>1028.6</ele><time>2026-04-28T07:12:26Z</time></trkpt><trkpt lat="38.426049212948456" lon="16.202772666995322"><ele>1029.3999999999999</ele><time>2026-04-28T07:12:27Z</time></trkpt><trkpt lat="38.425977866717616" lon="16.202680904781207"><ele>1030.2</ele><time>2026-04-28T07:12:28Z</time></trkpt><trkpt lat="38.42590347272402" lon="16.202548201164145"><ele>1031.0</ele><time>2026-04-28T07:12:29Z</time></trkpt><trkpt lat="38.4258324723251" lon="16.202423864758135"><ele>1031.0</ele><time>2026-04-28T07:12:30Z</time></trkpt><trkpt lat="38.42577390769781" lon="16.202344411108843"><ele>1031.0</ele><time>2026-04-28T07:12:31Z</time></trkpt><trkpt lat="38.42572351900019" lon="16.20228793765457"><ele>1031.0</ele><time>2026-04-28T07:12:32Z</time></trkpt><trkpt lat="38.42561435484492" lon="16.202192350227186"><ele>1031.0</ele><time>2026-04-28T07:12:34Z</time></trkpt><trkpt lat="38.42553956583884" lon="16.202148628421696"><ele>1031.0</ele><time>2026-04-28T07:12:35Z</time></trkpt><trkpt lat="38.42545628705098" lon="16.202127564807327"><ele>1029.8</ele><time>2026-04-28T07:12:36Z</time></trkpt><trkpt lat="38.425349322375894" lon="16.202113405664157"><ele>1028.6</ele><time>2026-04-28T07:12:37Z</time></trkpt><trkpt lat="38.42522982424021" lon="16.20211966026254"><ele>1027.4</ele><time>2026-04-28T07:12:38Z</time></trkpt><trkpt lat="38.42512330674048" lon="16.202118045402866"><ele>1026.2</ele><time>2026-04-28T07:12:39Z</time></trkpt><trkpt lat="38.425034242415585" lon="16.2020983895193"><ele>1025.0</ele><time>2026-04-28T07:12:40Z</time></trkpt><trkpt lat="38.42494342994218" lon="16.202060955994117"><ele>1025.0</ele><time>2026-04-28T07:12:41Z</time></trkpt><trkpt lat="38.42486868145071" lon="16.20200379980036"><ele>1025.0</ele><time>2026-04-28T07:12:42Z</time></trkpt><trkpt lat="38.42481939868351" lon="16.20193059834239"><ele>1025.0</ele><time>2026-04-28T07:12:43Z</time></trkpt><trkpt lat="38.42477786307514" lon="16.201817105877538"><ele>1025.0</ele><time>2026-04-28T07:12:44Z</time></trkpt><trkpt lat="38.4247174527297" lon="16.201736658725917"><ele>1025.0</ele><time>2026-04-28T07:12:45Z</time></trkpt><trkpt lat="38.42463907703166" lon="16.201663694148365"><ele>1025.0</ele><time>2026-04-28T07:12:46Z</time></trkpt><trkpt lat="38.4245491729564" lon="16.201599358930753"><ele>1025.8</ele><time>2026-04-28T07:12:47Z</time></trkpt><trkpt lat="38.4244722195432" lon="16.20154602784516"><ele>1026.6</ele><time>2026-04-28T07:12:47.999Z</time></trkpt><trkpt lat="38.42440824249712" lon="16.201491475558658"><ele>1027.4</ele><time>2026-04-28T07:12:48.999Z</time></trkpt><trkpt lat="38.42429082210009" lon="16.201426358481974"><ele>1028.2</ele><time>2026-04-28T07:12:50.999Z</time></trkpt><trkpt lat="38.424191675711185" lon="16.20143315967209"><ele>1029.0</ele><time>2026-04-28T07:12:52.999Z</time></trkpt><trkpt lat="38.42413456085835" lon="16.201470704195238"><ele>1029.0</ele><time>2026-04-28T07:12:53.999Z</time></trkpt><trkpt lat="38.42404344309012" lon="16.20155551693486"><ele>1029.0</ele><time>2026-04-28T07:12:54.999Z</time></trkpt><trkpt lat="38.423930201544366" lon="16.201629075001577"><ele>1029.0</ele><time>2026-04-28T07:12:55.999Z</time></trkpt><trkpt lat="38.423805687613836" lon="16.201683172915708"><ele>1029.0</ele><time>2026-04-28T07:12:56.999Z</time></trkpt><trkpt lat="38.423711296975455" lon="16.201687614952426"><ele>1027.8333333333333</ele><time>2026-04-28T07:12:57.999Z</time></trkpt><trkpt lat="38.42363223089556" lon="16.2017156114586"><ele>1026.6666666666667</ele><time>2026-04-28T07:12:58.999Z</time></trkpt><trkpt lat="38.423563241753236" lon="16.20176182342715"><ele>1025.5</ele><time>2026-04-28T07:12:59.999Z</time></trkpt><trkpt lat="38.423497195380506" lon="16.201787961751325"><ele>1024.3333333333335</ele><time>2026-04-28T07:13:00.999Z</time></trkpt><trkpt lat="38.42339936068151" lon="16.20173570515718"><ele>1023.1666666666667</ele><time>2026-04-28T07:13:02.999Z</time></trkpt><trkpt lat="38.42333403904189" lon="16.201670589110936"><ele>1022.0</ele><time>2026-04-28T07:13:03.999Z</time></trkpt><trkpt lat="38.423259863280734" lon="16.201577484262693"><ele>1021.6</ele><time>2026-04-28T07:13:04.999Z</time></trkpt><trkpt lat="38.423224459769756" lon="16.201432785228846"><ele>1021.2</ele><time>2026-04-28T07:13:05.999Z</time></trkpt><trkpt lat="38.42317881185746" lon="16.201311386601326"><ele>1020.8</ele><time>2026-04-28T07:13:06.999Z</time></trkpt><trkpt lat="38.423113106950936" lon="16.201217838674282"><ele>1020.4</ele><time>2026-04-28T07:13:07.999Z</time></trkpt><trkpt lat="38.423046934718904" lon="16.20113027019588"><ele>1020.0</ele><time>2026-04-28T07:13:08.999Z</time></trkpt><trkpt lat="38.42297157633326" lon="16.201072976822925"><ele>1019.8</ele><time>2026-04-28T07:13:09.999Z</time></trkpt><trkpt lat="38.42288052308674" lon="16.20099792340733"><ele>1019.6</ele><time>2026-04-28T07:13:10.999Z</time></trkpt><trkpt lat="38.42279575933916" lon="16.200913170095966"><ele>1019.4000000000001</ele><time>2026-04-28T07:13:11.999Z</time></trkpt><trkpt lat="38.42273450306223" lon="16.200811073601162"><ele>1019.2</ele><time>2026-04-28T07:13:12.999Z</time></trkpt><trkpt lat="38.422692738899535" lon="16.20068670443429"><ele>1019.0</ele><time>2026-04-28T07:13:13.999Z</time></trkpt><trkpt lat="38.42265118960854" lon="16.200566194914074"><ele>1018.8333333333334</ele><time>2026-04-28T07:13:14.999Z</time></trkpt><trkpt lat="38.42264090096346" lon="16.20046370176321"><ele>1018.6666666666667</ele><time>2026-04-28T07:13:15.999Z</time></trkpt><trkpt lat="38.422634096983124" lon="16.20037087157627"><ele>1018.5</ele><time>2026-04-28T07:13:16.999Z</time></trkpt><trkpt lat="38.422640005863656" lon="16.20026462458346"><ele>1018.3333333333333</ele><time>2026-04-28T07:13:18.999Z</time></trkpt><trkpt lat="38.42259835702764" lon="16.200186825430876"><ele>1018.1666666666666</ele><time>2026-04-28T07:13:20.999Z</time></trkpt><trkpt lat="38.42254851162264" lon="16.200134725879714"><ele>1018.0</ele><time>2026-04-28T07:13:22.999Z</time></trkpt><trkpt lat="38.42247438475625" lon="16.200065664216552"><ele>1018.0</ele><time>2026-04-28T07:13:24.999Z</time></trkpt><trkpt lat="38.42239266397276" lon="16.199997663778532"><ele>1018.0</ele><time>2026-04-28T07:13:25.999Z</time></trkpt><trkpt lat="38.42226411397297" lon="16.19994910465735"><ele>1018.0</ele><time>2026-04-28T07:13:26.999Z</time></trkpt><trkpt lat="38.422143518590744" lon="16.199900008878902"><ele>1018.0</ele><time>2026-04-28T07:13:27.999Z</time></trkpt><trkpt lat="38.42203060746452" lon="16.199852180903555"><ele>1016.2</ele><time>2026-04-28T07:13:28.999Z</time></trkpt><trkpt lat="38.4219151082113" lon="16.199817726749263"><ele>1014.4</ele><time>2026-04-28T07:13:29.999Z</time></trkpt><trkpt lat="38.421827075717125" lon="16.19980245758065"><ele>1012.6000000000001</ele><time>2026-04-28T07:13:30.999Z</time></trkpt><trkpt lat="38.42169967918667" lon="16.199755994164587"><ele>1010.8000000000001</ele><time>2026-04-28T07:13:32.999Z</time></trkpt><trkpt lat="38.421592705758854" lon="16.199726157575366"><ele>1009.0</ele><time>2026-04-28T07:13:33.999Z</time></trkpt><trkpt lat="38.42148143798685" lon="16.199715757089518"><ele>1009.0</ele><time>2026-04-28T07:13:34.999Z</time></trkpt><trkpt lat="38.4213796180305" lon="16.199725073326487"><ele>1009.0000000000001</ele><time>2026-04-28T07:13:35.999Z</time></trkpt><trkpt lat="38.42127199479837" lon="16.199738363401497"><ele>1009.0000000000001</ele><time>2026-04-28T07:13:36.999Z</time></trkpt><trkpt lat="38.42117621795961" lon="16.199764859110612"><ele>1009.0</ele><time>2026-04-28T07:13:37.999Z</time></trkpt><trkpt lat="38.42108264694162" lon="16.199781604715493"><ele>1009.0</ele><time>2026-04-28T07:13:38.999Z</time></trkpt><trkpt lat="38.42099538523888" lon="16.199774097328095"><ele>1008.3333333333333</ele><time>2026-04-28T07:13:39.999Z</time></trkpt><trkpt lat="38.42091450964506" lon="16.19974511507335"><ele>1007.6666666666666</ele><time>2026-04-28T07:13:40.999Z</time></trkpt><trkpt lat="38.420838682108965" lon="16.199691674953034"><ele>1007.0</ele><time>2026-04-28T07:13:41.999Z</time></trkpt><trkpt lat="38.4207848804533" lon="16.199619751321272"><ele>1006.3333333333333</ele><time>2026-04-28T07:13:42.999Z</time></trkpt><trkpt lat="38.4207201413932" lon="16.19954321972265"><ele>1005.6666666666666</ele><time>2026-04-28T07:13:43.999Z</time></trkpt><trkpt lat="38.420650047963804" lon="16.19946891665556"><ele>1005.0</ele><time>2026-04-28T07:13:44.999Z</time></trkpt><trkpt lat="38.42059244660046" lon="16.199393519818834"><ele>1005.0</ele><time>2026-04-28T07:13:45.999Z</time></trkpt><trkpt lat="38.42055339553086" lon="16.199299413088955"><ele>1005.0</ele><time>2026-04-28T07:13:46.999Z</time></trkpt><trkpt lat="38.42054058259778" lon="16.199205443742713"><ele>1005.0</ele><time>2026-04-28T07:13:47.999Z</time></trkpt><trkpt lat="38.42053359242132" lon="16.199104434585518"><ele>1005.0</ele><time>2026-04-28T07:13:48.999Z</time></trkpt><trkpt lat="38.42052780622647" lon="16.198990705684377"><ele>1005.0</ele><time>2026-04-28T07:13:50Z</time></trkpt><trkpt lat="38.42047811628836" lon="16.198876755934382"><ele>1005.0</ele><time>2026-04-28T07:13:51Z</time></trkpt><trkpt lat="38.420417115881776" lon="16.198735066717294"><ele>999.5</ele><time>2026-04-28T07:13:52Z</time></trkpt><trkpt lat="38.42036100584909" lon="16.198601635466275"><ele>994.0</ele><time>2026-04-28T07:13:53Z</time></trkpt><trkpt lat="38.42029569594726" lon="16.198463477099168"><ele>988.5</ele><time>2026-04-28T07:13:54Z</time></trkpt><trkpt lat="38.42022693752174" lon="16.198321260058282"><ele>983.0</ele><time>2026-04-28T07:13:55Z</time></trkpt><trkpt lat="38.4201725129196" lon="16.198186038506417"><ele>984.2</ele><time>2026-04-28T07:13:56Z</time></trkpt><trkpt lat="38.42012177707559" lon="16.198055072411943"><ele>985.4</ele><time>2026-04-28T07:13:57Z</time></trkpt><trkpt lat="38.42007042138281" lon="16.19792726035949"><ele>986.6000000000001</ele><time>2026-04-28T07:13:58Z</time></trkpt><trkpt lat="38.42001851375656" lon="16.197845355964713"><ele>987.8000000000001</ele><time>2026-04-28T07:13:59Z</time></trkpt><trkpt lat="38.419932455506874" lon="16.19776913968663"><ele>989.0</ele><time>2026-04-28T07:14:00Z</time></trkpt><trkpt lat="38.41983658657515" lon="16.197696699282996"><ele>989.0000000000001</ele><time>2026-04-28T07:14:01Z</time></trkpt><trkpt lat="38.41974881113262" lon="16.19764672734892"><ele>989.0</ele><time>2026-04-28T07:14:02Z</time></trkpt><trkpt lat="38.4196676230947" lon="16.197626351849344"><ele>989.0</ele><time>2026-04-28T07:14:03Z</time></trkpt><trkpt lat="38.41958080397127" lon="16.19763235523105"><ele>989.0</ele><time>2026-04-28T07:14:04Z</time></trkpt><trkpt lat="38.419493486083766" lon="16.197675543560145"><ele>989.0000000000001</ele><time>2026-04-28T07:14:05Z</time></trkpt><trkpt lat="38.41941552455757" lon="16.197729934285398"><ele>989.0</ele><time>2026-04-28T07:14:06Z</time></trkpt><trkpt lat="38.4193290313182" lon="16.197784906867987"><ele>992.2</ele><time>2026-04-28T07:14:07Z</time></trkpt><trkpt lat="38.41923351987157" lon="16.19779239942947"><ele>995.4000000000001</ele><time>2026-04-28T07:14:08Z</time></trkpt><trkpt lat="38.41912946669782" lon="16.197776372418513"><ele>998.6</ele><time>2026-04-28T07:14:09Z</time></trkpt><trkpt lat="38.419009510333865" lon="16.197744916910537"><ele>1001.8</ele><time>2026-04-28T07:14:10Z</time></trkpt><trkpt lat="38.41890546752124" lon="16.197728369949367"><ele>1005.0</ele><time>2026-04-28T07:14:11Z</time></trkpt><trkpt lat="38.4187797936945" lon="16.197693190591476"><ele>1005.0</ele><time>2026-04-28T07:14:12Z</time></trkpt><trkpt lat="38.41868585176212" lon="16.197652255693747"><ele>1005.0</ele><time>2026-04-28T07:14:13Z</time></trkpt><trkpt lat="38.418592715901255" lon="16.197578985320565"><ele>1005.0</ele><time>2026-04-28T07:14:14Z</time></trkpt><trkpt lat="38.4185017227634" lon="16.197496179256937"><ele>1005.0</ele><time>2026-04-28T07:14:15Z</time></trkpt><trkpt lat="38.41839841601862" lon="16.19743178787029"><ele>1005.0</ele><time>2026-04-28T07:14:16Z</time></trkpt><trkpt lat="38.418265316551526" lon="16.19737344761791"><ele>1004.8</ele><time>2026-04-28T07:14:17Z</time></trkpt><trkpt lat="38.41817666585178" lon="16.197319375528345"><ele>1004.6</ele><time>2026-04-28T07:14:18Z</time></trkpt><trkpt lat="38.41807977935163" lon="16.197287984125694"><ele>1004.4000000000001</ele><time>2026-04-28T07:14:19Z</time></trkpt><trkpt lat="38.41796983613255" lon="16.19728624643571"><ele>1004.2</ele><time>2026-04-28T07:14:20Z</time></trkpt><trkpt lat="38.4178577915661" lon="16.19727523565454"><ele>1004.0</ele><time>2026-04-28T07:14:21Z</time></trkpt><trkpt lat="38.4177743618685" lon="16.19726750765454"><ele>1004.0000000000001</ele><time>2026-04-28T07:14:22Z</time></trkpt><trkpt lat="38.41770113860484" lon="16.197251075035705"><ele>1004.0</ele><time>2026-04-28T07:14:23Z</time></trkpt><trkpt lat="38.41763833432577" lon="16.19721543220927"><ele>1004.0</ele><time>2026-04-28T07:14:24Z</time></trkpt><trkpt lat="38.417588033565025" lon="16.19714313025983"><ele>1004.0</ele><time>2026-04-28T07:14:25Z</time></trkpt><trkpt lat="38.41750924990123" lon="16.19706688619624"><ele>1004.0000000000001</ele><time>2026-04-28T07:14:26Z</time></trkpt><trkpt lat="38.417414529370745" lon="16.196968391194805"><ele>1004.0</ele><time>2026-04-28T07:14:27Z</time></trkpt><trkpt lat="38.41733660617466" lon="16.196847035761643"><ele>1004.0</ele><time>2026-04-28T07:14:28Z</time></trkpt><trkpt lat="38.417268960944796" lon="16.196740833526174"><ele>1004.0000000000001</ele><time>2026-04-28T07:14:29Z</time></trkpt><trkpt lat="38.417235852916406" lon="16.196636973079322"><ele>1004.0000000000001</ele><time>2026-04-28T07:14:30Z</time></trkpt><trkpt lat="38.41718196096425" lon="16.1965463927611"><ele>1004.0</ele><time>2026-04-28T07:14:32Z</time></trkpt><trkpt lat="38.4171095418663" lon="16.19644682152887"><ele>1004.0</ele><time>2026-04-28T07:14:34Z</time></trkpt><trkpt lat="38.417074251750996" lon="16.19637518774655"><ele>1003.5000000000001</ele><time>2026-04-28T07:14:35Z</time></trkpt><trkpt lat="38.417040542450636" lon="16.196297566015183"><ele>1003.0</ele><time>2026-04-28T07:14:36Z</time></trkpt><trkpt lat="38.417001619649064" lon="16.196225603190292"><ele>1002.5</ele><time>2026-04-28T07:14:37Z</time></trkpt><trkpt lat="38.41691691999471" lon="16.196125909057397"><ele>1002.0</ele><time>2026-04-28T07:14:39Z</time></trkpt><trkpt lat="38.41686610013837" lon="16.19605558333672"><ele>1001.5000000000001</ele><time>2026-04-28T07:14:41Z</time></trkpt><trkpt lat="38.41680540332684" lon="16.19599666804715"><ele>1001.0</ele><time>2026-04-28T07:14:44Z</time></trkpt><trkpt lat="38.416786976512036" lon="16.19589862986757"><ele>1001.0</ele><time>2026-04-28T07:16:34Z</time></trkpt><trkpt lat="38.41686661769398" lon="16.1958405490542"><ele>1000.9999999999999</ele><time>2026-04-28T07:16:36Z</time></trkpt><trkpt lat="38.41694784479943" lon="16.195788854912905"><ele>1000.9999999999999</ele><time>2026-04-28T07:16:38Z</time></trkpt><trkpt lat="38.41705125567317" lon="16.19576002841709"><ele>1001.0</ele><time>2026-04-28T07:16:40Z</time></trkpt><trkpt lat="38.417178529083664" lon="16.19574164504345"><ele>1001.0</ele><time>2026-04-28T07:16:42Z</time></trkpt><trkpt lat="38.417274189867236" lon="16.195745321471076"><ele>1000.5999999999999</ele><time>2026-04-28T07:16:43Z</time></trkpt><trkpt lat="38.41737256840823" lon="16.19574173767424"><ele>1000.1999999999999</ele><time>2026-04-28T07:16:44Z</time></trkpt><trkpt lat="38.41746120452121" lon="16.195733488047317"><ele>999.8000000000001</ele><time>2026-04-28T07:16:45Z</time></trkpt><trkpt lat="38.417559004503154" lon="16.19572806059186"><ele>999.4000000000001</ele><time>2026-04-28T07:16:46Z</time></trkpt><trkpt lat="38.417656964190755" lon="16.195705439756104"><ele>999.0</ele><time>2026-04-28T07:16:47Z</time></trkpt><trkpt lat="38.41774396270215" lon="16.19565556742537"><ele>1000.1666666666666</ele><time>2026-04-28T07:16:48Z</time></trkpt><trkpt lat="38.417805539880796" lon="16.195624122905894"><ele>1001.3333333333333</ele><time>2026-04-28T07:16:49Z</time></trkpt><trkpt lat="38.417890931566305" lon="16.195587733613845"><ele>1002.5</ele><time>2026-04-28T07:16:51Z</time></trkpt><trkpt lat="38.41795935712726" lon="16.195528363652073"><ele>1003.6666666666666</ele><time>2026-04-28T07:16:55Z</time></trkpt><trkpt lat="38.41803105876797" lon="16.195474859802978"><ele>1004.8333333333333</ele><time>2026-04-28T07:16:57Z</time></trkpt><trkpt lat="38.418110929290485" lon="16.19540786691148"><ele>1006.0</ele><time>2026-04-28T07:17:00Z</time></trkpt><trkpt lat="38.41817584465832" lon="16.19535889630512"><ele>1003.7142857142858</ele><time>2026-04-28T07:17:02Z</time></trkpt><trkpt lat="38.41825418695366" lon="16.195337482473764"><ele>1001.4285714285716</ele><time>2026-04-28T07:17:04Z</time></trkpt><trkpt lat="38.41831816745487" lon="16.195333541713243"><ele>999.1428571428571</ele><time>2026-04-28T07:17:05Z</time></trkpt><trkpt lat="38.41838438749783" lon="16.195316233882064"><ele>996.8571428571429</ele><time>2026-04-28T07:17:07.999Z</time></trkpt><trkpt lat="38.41844490212805" lon="16.19528670556411"><ele>994.5714285714286</ele><time>2026-04-28T07:17:09.999Z</time></trkpt><trkpt lat="38.41851289730507" lon="16.195241386388293"><ele>992.2857142857142</ele><time>2026-04-28T07:17:12.999Z</time></trkpt><trkpt lat="38.41857589152688" lon="16.195204563868575"><ele>989.9999999999999</ele><time>2026-04-28T07:17:14.999Z</time></trkpt><trkpt lat="38.41862889499855" lon="16.195144772778473"><ele>990.0</ele><time>2026-04-28T07:17:17.999Z</time></trkpt><trkpt lat="38.4186968374847" lon="16.19508810200648"><ele>990.0</ele><time>2026-04-28T07:17:22.999Z</time></trkpt><trkpt lat="38.41875340770832" lon="16.19504867891186"><ele>990.0</ele><time>2026-04-28T07:17:24.999Z</time></trkpt><trkpt lat="38.41879955657548" lon="16.19498181150258"><ele>990.0</ele><time>2026-04-28T07:17:26.999Z</time></trkpt><trkpt lat="38.41886062903498" lon="16.194907617749823"><ele>990.0</ele><time>2026-04-28T07:17:29.999Z</time></trkpt><trkpt lat="38.41891386230795" lon="16.19486409657649"><ele>990.0</ele><time>2026-04-28T07:17:31.999Z</time></trkpt><trkpt lat="38.41901423107704" lon="16.194784893869375"><ele>986.6666666666666</ele><time>2026-04-28T07:17:33.999Z</time></trkpt><trkpt lat="38.419097198998614" lon="16.194731341877063"><ele>983.3333333333333</ele><time>2026-04-28T07:17:35.999Z</time></trkpt><trkpt lat="38.41916028238622" lon="16.19473424537346"><ele>980.0</ele><time>2026-04-28T07:17:37.999Z</time></trkpt><trkpt lat="38.41926449161349" lon="16.19469574598387"><ele>976.6666666666666</ele><time>2026-04-28T07:17:41.999Z</time></trkpt><trkpt lat="38.41934522869415" lon="16.19469386209836"><ele>973.3333333333333</ele><time>2026-04-28T07:17:43.999Z</time></trkpt><trkpt lat="38.41942544743455" lon="16.19465904114574"><ele>970.0</ele><time>2026-04-28T07:17:46.999Z</time></trkpt><trkpt lat="38.41945773263625" lon="16.194585335252473"><ele>969.9999999999999</ele><time>2026-04-28T07:17:48.999Z</time></trkpt><trkpt lat="38.41943687256628" lon="16.19450582587855"><ele>970.0</ele><time>2026-04-28T07:17:51.999Z</time></trkpt><trkpt lat="38.41944727086756" lon="16.194411258194943"><ele>970.0</ele><time>2026-04-28T07:17:54.999Z</time></trkpt><trkpt lat="38.419540403643346" lon="16.194410042981406"><ele>970.0</ele><time>2026-04-28T07:17:57.999Z</time></trkpt><trkpt lat="38.41961044468359" lon="16.194425135991036"><ele>969.9999999999999</ele><time>2026-04-28T07:17:58.999Z</time></trkpt><trkpt lat="38.41968637490891" lon="16.19442223773625"><ele>970.0</ele><time>2026-04-28T07:18:00Z</time></trkpt><trkpt lat="38.41980419844575" lon="16.194331644722475"><ele>970.6666666666666</ele><time>2026-04-28T07:18:02Z</time></trkpt><trkpt lat="38.41986933438536" lon="16.19425785699529"><ele>971.3333333333333</ele><time>2026-04-28T07:18:03Z</time></trkpt><trkpt lat="38.41993393001198" lon="16.19420968943884"><ele>972.0</ele><time>2026-04-28T07:18:04Z</time></trkpt><trkpt lat="38.419995371929076" lon="16.19419007714752"><ele>972.6666666666667</ele><time>2026-04-28T07:18:05Z</time></trkpt><trkpt lat="38.420120309628416" lon="16.194138610219344"><ele>973.3333333333334</ele><time>2026-04-28T07:18:07Z</time></trkpt><trkpt lat="38.420199572249516" lon="16.194100085835846"><ele>974.0</ele><time>2026-04-28T07:18:08Z</time></trkpt><trkpt lat="38.420281539345936" lon="16.19406283278107"><ele>974.0000000000001</ele><time>2026-04-28T07:18:09Z</time></trkpt><trkpt lat="38.42035508033938" lon="16.194036135938678"><ele>974.0</ele><time>2026-04-28T07:18:10Z</time></trkpt><trkpt lat="38.42041873732356" lon="16.194006924041638"><ele>974.0</ele><time>2026-04-28T07:18:11Z</time></trkpt><trkpt lat="38.42047928361964" lon="16.193955181784396"><ele>974.0</ele><time>2026-04-28T07:18:12Z</time></trkpt><trkpt lat="38.420523838536994" lon="16.193897666443156"><ele>974.0000000000001</ele><time>2026-04-28T07:18:13Z</time></trkpt><trkpt lat="38.42060522734989" lon="16.193840998288902"><ele>974.0</ele><time>2026-04-28T07:18:15Z</time></trkpt><trkpt lat="38.420648799362304" lon="16.19375443656161"><ele>978.25</ele><time>2026-04-28T07:18:17Z</time></trkpt><trkpt lat="38.42060697355339" lon="16.19368243203516"><ele>982.5</ele><time>2026-04-28T07:18:20Z</time></trkpt><trkpt lat="38.420632328825775" lon="16.19360236322955"><ele>986.75</ele><time>2026-04-28T07:18:23Z</time></trkpt><trkpt lat="38.42069121938538" lon="16.193549643361823"><ele>991.0</ele><time>2026-04-28T07:18:26Z</time></trkpt><trkpt lat="38.42090025278494" lon="16.193255358112634"><ele>991.0</ele><time>2026-04-28T07:18:28Z</time></trkpt><trkpt lat="38.42099147826763" lon="16.193251786525135"><ele>990.9999999999999</ele><time>2026-04-28T07:18:29Z</time></trkpt><trkpt lat="38.42107495627107" lon="16.19327107267113"><ele>990.9999999999999</ele><time>2026-04-28T07:18:30Z</time></trkpt><trkpt lat="38.42116433209446" lon="16.193286720108574"><ele>991.0</ele><time>2026-04-28T07:18:31Z</time></trkpt><trkpt lat="38.42125929237883" lon="16.19332692509189"><ele>991.0</ele><time>2026-04-28T07:18:32Z</time></trkpt><trkpt lat="38.4213672780671" lon="16.193368538974152"><ele>992.8333333333333</ele><time>2026-04-28T07:18:33Z</time></trkpt><trkpt lat="38.421461617996385" lon="16.19341504938428"><ele>994.6666666666666</ele><time>2026-04-28T07:18:34Z</time></trkpt><trkpt lat="38.42153590009301" lon="16.193473198199033"><ele>996.5</ele><time>2026-04-28T07:18:35Z</time></trkpt><trkpt lat="38.42160856700144" lon="16.19352609070036"><ele>998.3333333333333</ele><time>2026-04-28T07:18:36Z</time></trkpt><trkpt lat="38.42167178255429" lon="16.193579957015256"><ele>1000.1666666666666</ele><time>2026-04-28T07:18:37Z</time></trkpt><trkpt lat="38.42174714858172" lon="16.193624092717307"><ele>1002.0</ele><time>2026-04-28T07:18:38Z</time></trkpt><trkpt lat="38.42183859321829" lon="16.19367944454184"><ele>1002.0</ele><time>2026-04-28T07:18:39Z</time></trkpt><trkpt lat="38.421944678371965" lon="16.193736730828785"><ele>1002.0</ele><time>2026-04-28T07:18:40Z</time></trkpt><trkpt lat="38.422045980589665" lon="16.19380049116534"><ele>1002.0</ele><time>2026-04-28T07:18:41Z</time></trkpt><trkpt lat="38.42213403249494" lon="16.193862777929976"><ele>1002.0</ele><time>2026-04-28T07:18:42Z</time></trkpt><trkpt lat="38.42220458211817" lon="16.1939258811314"><ele>1002.0</ele><time>2026-04-28T07:18:43Z</time></trkpt><trkpt lat="38.42226891982038" lon="16.19398903121473"><ele>1001.4000000000001</ele><time>2026-04-28T07:18:44Z</time></trkpt><trkpt lat="38.422335574659336" lon="16.194057912090113"><ele>1000.8000000000001</ele><time>2026-04-28T07:18:45Z</time></trkpt><trkpt lat="38.4224089602854" lon="16.19413482003672"><ele>1000.2</ele><time>2026-04-28T07:18:46Z</time></trkpt><trkpt lat="38.422478648996076" lon="16.194206950013747"><ele>999.6</ele><time>2026-04-28T07:18:47Z</time></trkpt><trkpt lat="38.422510908460815" lon="16.194342772121853"><ele>999.0</ele><time>2026-04-28T07:18:48Z</time></trkpt><trkpt lat="38.42256887369985" lon="16.194414253045185"><ele>999.0</ele><time>2026-04-28T07:18:49Z</time></trkpt><trkpt lat="38.422620060090416" lon="16.19449301411007"><ele>999.0000000000001</ele><time>2026-04-28T07:18:50Z</time></trkpt><trkpt lat="38.42274666325936" lon="16.1946000065236"><ele>999.0000000000001</ele><time>2026-04-28T07:18:52Z</time></trkpt><trkpt lat="38.42283897674801" lon="16.194639195677322"><ele>999.0</ele><time>2026-04-28T07:18:53Z</time></trkpt><trkpt lat="38.42291458206388" lon="16.19465747775232"><ele>999.0</ele><time>2026-04-28T07:18:54Z</time></trkpt><trkpt lat="38.422982298752125" lon="16.19466194459098"><ele>998.3333333333334</ele><time>2026-04-28T07:18:55Z</time></trkpt><trkpt lat="38.42305612240945" lon="16.19466116660399"><ele>997.6666666666667</ele><time>2026-04-28T07:18:56Z</time></trkpt><trkpt lat="38.42314648343218" lon="16.19460649434567"><ele>997.0</ele><time>2026-04-28T07:18:58Z</time></trkpt><trkpt lat="38.42321569082622" lon="16.19458939265858"><ele>996.3333333333334</ele><time>2026-04-28T07:19:00Z</time></trkpt><trkpt lat="38.4233219965118" lon="16.1945073621131"><ele>995.6666666666667</ele><time>2026-04-28T07:19:02Z</time></trkpt><trkpt lat="38.42338332156817" lon="16.19444412931262"><ele>995.0</ele><time>2026-04-28T07:19:03Z</time></trkpt><trkpt lat="38.42344067580143" lon="16.19437961347468"><ele>995.0</ele><time>2026-04-28T07:19:04Z</time></trkpt><trkpt lat="38.42349462081807" lon="16.19427288422623"><ele>995.0</ele><time>2026-04-28T07:19:06Z</time></trkpt><trkpt lat="38.423552326150755" lon="16.19414667975095"><ele>995.0</ele><time>2026-04-28T07:19:08Z</time></trkpt><trkpt lat="38.42362245756041" lon="16.194058851337953"><ele>995.0</ele><time>2026-04-28T07:19:10Z</time></trkpt><trkpt lat="38.42366537709471" lon="16.193922489453218"><ele>995.0</ele><time>2026-04-28T07:19:11.999Z</time></trkpt><trkpt lat="38.42372457008429" lon="16.193838294781756"><ele>998.5</ele><time>2026-04-28T07:19:13.999Z</time></trkpt><trkpt lat="38.42392987427976" lon="16.193592330661918"><ele>1002.0</ele><time>2026-04-28T07:19:17.999Z</time></trkpt><trkpt lat="38.42400229712027" lon="16.193532612871035"><ele>1005.5</ele><time>2026-04-28T07:19:18.999Z</time></trkpt><trkpt lat="38.424071072217" lon="16.193483937142773"><ele>1009.0</ele><time>2026-04-28T07:19:19.999Z</time></trkpt><trkpt lat="38.42413273292122" lon="16.193432351821063"><ele>1008.9999999999999</ele><time>2026-04-28T07:19:20.999Z</time></trkpt><trkpt lat="38.424215169514824" lon="16.19336036508092"><ele>1009.0</ele><time>2026-04-28T07:19:21.999Z</time></trkpt><trkpt lat="38.42428651465601" lon="16.1933134767299"><ele>1009.0</ele><time>2026-04-28T07:19:22.999Z</time></trkpt><trkpt lat="38.42435803544416" lon="16.193266428714857"><ele>1009.0</ele><time>2026-04-28T07:19:23.999Z</time></trkpt><trkpt lat="38.42443992351707" lon="16.193229758041696"><ele>1008.9999999999999</ele><time>2026-04-28T07:19:24.999Z</time></trkpt><trkpt lat="38.4245254185419" lon="16.193194648102583"><ele>1009.0</ele><time>2026-04-28T07:19:25.999Z</time></trkpt><trkpt lat="38.42459948228694" lon="16.19315784652868"><ele>1010.3333333333333</ele><time>2026-04-28T07:19:26.999Z</time></trkpt><trkpt lat="38.4246757209987" lon="16.193127741782696"><ele>1011.6666666666666</ele><time>2026-04-28T07:19:27.999Z</time></trkpt><trkpt lat="38.42474328515845" lon="16.19308841542553"><ele>1013.0</ele><time>2026-04-28T07:19:28.999Z</time></trkpt><trkpt lat="38.424803028274994" lon="16.193028764833176"><ele>1014.3333333333333</ele><time>2026-04-28T07:19:29.999Z</time></trkpt><trkpt lat="38.424863783274084" lon="16.192951045274764"><ele>1015.6666666666666</ele><time>2026-04-28T07:19:30.999Z</time></trkpt><trkpt lat="38.42492984889184" lon="16.192849794390195"><ele>1017.0</ele><time>2026-04-28T07:19:31.999Z</time></trkpt><trkpt lat="38.42499136167126" lon="16.192757468607308"><ele>1017.0</ele><time>2026-04-28T07:19:32.999Z</time></trkpt><trkpt lat="38.42504130000939" lon="16.19268482813151"><ele>1017.0</ele><time>2026-04-28T07:19:33.999Z</time></trkpt><trkpt lat="38.42508693684907" lon="16.192625655669246"><ele>1017.0</ele><time>2026-04-28T07:19:34.999Z</time></trkpt><trkpt lat="38.42500955386439" lon="16.192574334090185"><ele>1017.0</ele><time>2026-04-28T07:19:43.999Z</time></trkpt><trkpt lat="38.425022600102054" lon="16.192456332190222"><ele>1017.0</ele><time>2026-04-28T07:19:46.999Z</time></trkpt><trkpt lat="38.42506734163561" lon="16.192399682479945"><ele>1017.0</ele><time>2026-04-28T07:19:47.999Z</time></trkpt><trkpt lat="38.42510964224355" lon="16.192299461466845"><ele>1017.5</ele><time>2026-04-28T07:19:49.999Z</time></trkpt><trkpt lat="38.425095569968" lon="16.192200518457543"><ele>1018.0</ele><time>2026-04-28T07:19:50.999Z</time></trkpt><trkpt lat="38.425086151228555" lon="16.192069136225207"><ele>1018.5</ele><time>2026-04-28T07:19:51.999Z</time></trkpt><trkpt lat="38.42507816283378" lon="16.19195946964869"><ele>1019.0</ele><time>2026-04-28T07:19:52.999Z</time></trkpt><trkpt lat="38.42506158009593" lon="16.19186820848554"><ele>1019.5</ele><time>2026-04-28T07:19:53.999Z</time></trkpt><trkpt lat="38.42503387230946" lon="16.19179096615261"><ele>1020.0</ele><time>2026-04-28T07:19:54.999Z</time></trkpt><trkpt lat="38.42499419472481" lon="16.191706007104855"><ele>1020.0</ele><time>2026-04-28T07:19:55.999Z</time></trkpt><trkpt lat="38.424946683747805" lon="16.19160030462957"><ele>1020.0</ele><time>2026-04-28T07:19:56.999Z</time></trkpt><trkpt lat="38.42493406764048" lon="16.191492822858574"><ele>1020.0</ele><time>2026-04-28T07:19:57.999Z</time></trkpt><trkpt lat="38.42492540573624" lon="16.191409919338973"><ele>1020.0</ele><time>2026-04-28T07:19:58.999Z</time></trkpt><trkpt lat="38.42490962171866" lon="16.191289079254652"><ele>1020.0</ele><time>2026-04-28T07:19:59.999Z</time></trkpt><trkpt lat="38.42488931219219" lon="16.19118481819332"><ele>1020.0</ele><time>2026-04-28T07:20:00.999Z</time></trkpt><trkpt lat="38.42487365169918" lon="16.191102944537615"><ele>1019.5</ele><time>2026-04-28T07:20:01.999Z</time></trkpt><trkpt lat="38.42485058316177" lon="16.19100594542102"><ele>1019.0</ele><time>2026-04-28T07:20:02.999Z</time></trkpt><trkpt lat="38.424831371976026" lon="16.190917431875132"><ele>1018.5</ele><time>2026-04-28T07:20:03.999Z</time></trkpt><trkpt lat="38.424789974728114" lon="16.1907542890685"><ele>1018.0</ele><time>2026-04-28T07:20:06Z</time></trkpt><trkpt lat="38.42475535060116" lon="16.19064164599148"><ele>1017.5</ele><time>2026-04-28T07:20:07Z</time></trkpt><trkpt lat="38.42473285624264" lon="16.190564807491192"><ele>1017.0</ele><time>2026-04-28T07:20:08Z</time></trkpt><trkpt lat="38.42471799093765" lon="16.190470001835624"><ele>1016.1666666666666</ele><time>2026-04-28T07:20:09Z</time></trkpt><trkpt lat="38.424686940809224" lon="16.190378696393466"><ele>1015.3333333333333</ele><time>2026-04-28T07:20:10Z</time></trkpt><trkpt lat="38.42461594745829" lon="16.190237309428174"><ele>1014.5</ele><time>2026-04-28T07:20:12Z</time></trkpt><trkpt lat="38.424570844265084" lon="16.19017432318887"><ele>1013.6666666666666</ele><time>2026-04-28T07:20:13Z</time></trkpt><trkpt lat="38.42452686565808" lon="16.19007374156381"><ele>1012.8333333333333</ele><time>2026-04-28T07:20:14Z</time></trkpt><trkpt lat="38.42449656699363" lon="16.18998088807949"><ele>1012.0</ele><time>2026-04-28T07:20:15Z</time></trkpt><trkpt lat="38.42446697241731" lon="16.189888612524808"><ele>1011.6</ele><time>2026-04-28T07:20:16Z</time></trkpt><trkpt lat="38.424445212465145" lon="16.18977520992991"><ele>1011.2</ele><time>2026-04-28T07:20:19Z</time></trkpt><trkpt lat="38.42437596973386" lon="16.18967539219015"><ele>1010.8</ele><time>2026-04-28T07:20:22Z</time></trkpt><trkpt lat="38.424305346039624" lon="16.189580235112643"><ele>1010.4</ele><time>2026-04-28T07:20:24Z</time></trkpt><trkpt lat="38.42426959310291" lon="16.189509454380705"><ele>1010.0</ele><time>2026-04-28T07:20:25Z</time></trkpt><trkpt lat="38.4241415558712" lon="16.18931654999962"><ele>1010.0</ele><time>2026-04-28T07:20:26Z</time></trkpt><trkpt lat="38.424105958197" lon="16.189216831635278"><ele>1010.0</ele><time>2026-04-28T07:20:27Z</time></trkpt><trkpt lat="38.424070342342766" lon="16.18908729243498"><ele>1010.0</ele><time>2026-04-28T07:20:28Z</time></trkpt><trkpt lat="38.424035117041846" lon="16.188973058916293"><ele>1010.0</ele><time>2026-04-28T07:20:29Z</time></trkpt><trkpt lat="38.42398749012081" lon="16.18885893295531"><ele>1010.0</ele><time>2026-04-28T07:20:30Z</time></trkpt><trkpt lat="38.42393951121651" lon="16.18876708218902"><ele>1008.8333333333334</ele><time>2026-04-28T07:20:31Z</time></trkpt><trkpt lat="38.42387187128841" lon="16.188676803260353"><ele>1007.6666666666667</ele><time>2026-04-28T07:20:32Z</time></trkpt><trkpt lat="38.42380528645674" lon="16.18859761489123"><ele>1006.5</ele><time>2026-04-28T07:20:33Z</time></trkpt><trkpt lat="38.42374258574781" lon="16.188535023800316"><ele>1005.3333333333333</ele><time>2026-04-28T07:20:34Z</time></trkpt><trkpt lat="38.423694450212324" lon="16.188482807939714"><ele>1004.1666666666666</ele><time>2026-04-28T07:20:35Z</time></trkpt><trkpt lat="38.423634251540776" lon="16.188427812045376"><ele>1003.0</ele><time>2026-04-28T07:20:36Z</time></trkpt><trkpt lat="38.4235544283472" lon="16.18837810280551"><ele>1002.4999999999999</ele><time>2026-04-28T07:20:37Z</time></trkpt><trkpt lat="38.4234836170351" lon="16.188339639811524"><ele>1002.0</ele><time>2026-04-28T07:20:38Z</time></trkpt><trkpt lat="38.42341524166702" lon="16.18829785266584"><ele>1001.5</ele><time>2026-04-28T07:20:39Z</time></trkpt><trkpt lat="38.42334901406877" lon="16.18824395701845"><ele>1001.0</ele><time>2026-04-28T07:20:40Z</time></trkpt><trkpt lat="38.42327630055993" lon="16.18817311234611"><ele>1000.4999999999999</ele><time>2026-04-28T07:20:41Z</time></trkpt><trkpt lat="38.423213372902424" lon="16.188118006178517"><ele>1000.0</ele><time>2026-04-28T07:20:42Z</time></trkpt><trkpt lat="38.423163003988684" lon="16.18806449179683"><ele>1000.0</ele><time>2026-04-28T07:20:43Z</time></trkpt><trkpt lat="38.42311607698856" lon="16.188000068310913"><ele>1000.0</ele><time>2026-04-28T07:20:45Z</time></trkpt><trkpt lat="38.423092253975334" lon="16.187872416339463"><ele>1000.0</ele><time>2026-04-28T07:20:47Z</time></trkpt><trkpt lat="38.42307236905932" lon="16.187772163088212"><ele>1000.0</ele><time>2026-04-28T07:20:48Z</time></trkpt><trkpt lat="38.423030280426445" lon="16.18763237020581"><ele>1000.0</ele><time>2026-04-28T07:20:50Z</time></trkpt><trkpt lat="38.422910470789795" lon="16.187520261188126"><ele>999.0</ele><time>2026-04-28T07:20:52Z</time></trkpt><trkpt lat="38.422804813686106" lon="16.18748581768246"><ele>998.0</ele><time>2026-04-28T07:20:53Z</time></trkpt><trkpt lat="38.422712457396145" lon="16.18744019886804"><ele>997.0</ele><time>2026-04-28T07:20:54Z</time></trkpt><trkpt lat="38.422633304244606" lon="16.187412011741635"><ele>996.0</ele><time>2026-04-28T07:20:55Z</time></trkpt><trkpt lat="38.42256152248073" lon="16.18738449617315"><ele>995.0</ele><time>2026-04-28T07:20:56Z</time></trkpt><trkpt lat="38.42244523384738" lon="16.1873417151541"><ele>994.8333333333334</ele><time>2026-04-28T07:20:58Z</time></trkpt><trkpt lat="38.422374606152566" lon="16.187286798139137"><ele>994.6666666666667</ele><time>2026-04-28T07:20:59Z</time></trkpt><trkpt lat="38.42229440778102" lon="16.187243922013995"><ele>994.5</ele><time>2026-04-28T07:21:00Z</time></trkpt><trkpt lat="38.42222387262102" lon="16.18720116952396"><ele>994.3333333333333</ele><time>2026-04-28T07:21:01Z</time></trkpt><trkpt lat="38.42215519682913" lon="16.18716173260985"><ele>994.1666666666666</ele><time>2026-04-28T07:21:02Z</time></trkpt><trkpt lat="38.42208816037781" lon="16.187112752508455"><ele>994.0</ele><time>2026-04-28T07:21:03Z</time></trkpt><trkpt lat="38.422030464632535" lon="16.1870417903779"><ele>994.0</ele><time>2026-04-28T07:21:04Z</time></trkpt><trkpt lat="38.42197825332113" lon="16.186970359586216"><ele>994.0000000000001</ele><time>2026-04-28T07:21:05Z</time></trkpt><trkpt lat="38.42193427410519" lon="16.18689732207559"><ele>994.0000000000001</ele><time>2026-04-28T07:21:06Z</time></trkpt><trkpt lat="38.42189256744573" lon="16.186824525963193"><ele>994.0</ele><time>2026-04-28T07:21:07Z</time></trkpt><trkpt lat="38.42177812372831" lon="16.18673630324148"><ele>994.0</ele><time>2026-04-28T07:21:09Z</time></trkpt><trkpt lat="38.42167162117434" lon="16.18668630302232"><ele>994.0</ele><time>2026-04-28T07:21:10Z</time></trkpt><trkpt lat="38.42158128025574" lon="16.18663656240457"><ele>994.0000000000001</ele><time>2026-04-28T07:21:11Z</time></trkpt><trkpt lat="38.42152181815481" lon="16.186578593691788"><ele>994.0000000000001</ele><time>2026-04-28T07:21:12Z</time></trkpt><trkpt lat="38.42144315491635" lon="16.18647213752074"><ele>994.0</ele><time>2026-04-28T07:21:14Z</time></trkpt><trkpt lat="38.42138426909807" lon="16.18633765674711"><ele>994.0</ele><time>2026-04-28T07:21:15.999Z</time></trkpt><trkpt lat="38.42129051010841" lon="16.186259219536055"><ele>991.4999999999999</ele><time>2026-04-28T07:21:17.999Z</time></trkpt><trkpt lat="38.42122675317428" lon="16.186233639964552"><ele>989.0</ele><time>2026-04-28T07:21:18.999Z</time></trkpt><trkpt lat="38.42116360561338" lon="16.186213892798815"><ele>986.5</ele><time>2026-04-28T07:21:19.999Z</time></trkpt><trkpt lat="38.42107148147532" lon="16.186187462634596"><ele>984.0</ele><time>2026-04-28T07:21:21.999Z</time></trkpt><trkpt lat="38.42098593687631" lon="16.18621148859882"><ele>981.4999999999999</ele><time>2026-04-28T07:21:23.999Z</time></trkpt><trkpt lat="38.420921523025996" lon="16.186275593475163"><ele>979.0</ele><time>2026-04-28T07:21:26.999Z</time></trkpt><trkpt lat="38.420741781604995" lon="16.186358756987786"><ele>978.9999999999999</ele><time>2026-04-28T07:21:27.999Z</time></trkpt><trkpt lat="38.420665371910886" lon="16.186467392585833"><ele>979.0</ele><time>2026-04-28T07:21:29.999Z</time></trkpt><trkpt lat="38.42061937433627" lon="16.18639839050838"><ele>979.0</ele><time>2026-04-28T07:21:32.999Z</time></trkpt><trkpt lat="38.42062640317664" lon="16.18631390904262"><ele>979.0</ele><time>2026-04-28T07:21:36.999Z</time></trkpt><trkpt lat="38.4206183851003" lon="16.186170459470056"><ele>978.9999999999999</ele><time>2026-04-28T07:21:45.999Z</time></trkpt><trkpt lat="38.42062492905947" lon="16.186090223304202"><ele>979.0</ele><time>2026-04-28T07:21:46.999Z</time></trkpt><trkpt lat="38.42065586640938" lon="16.18601563240744"><ele>979.0</ele><time>2026-04-28T07:21:48.999Z</time></trkpt><trkpt lat="38.42070768186459" lon="16.185969886493137"><ele>979.0</ele><time>2026-04-28T07:21:49.999Z</time></trkpt><trkpt lat="38.42077935614657" lon="16.185946438906086"><ele>979.0</ele><time>2026-04-28T07:21:50.999Z</time></trkpt><trkpt lat="38.42084087079993" lon="16.185917098796587"><ele>979.0</ele><time>2026-04-28T07:21:51.999Z</time></trkpt><trkpt lat="38.420904948324385" lon="16.185873907353514"><ele>979.0</ele><time>2026-04-28T07:21:52.999Z</time></trkpt><trkpt lat="38.42098016727514" lon="16.185834371410895"><ele>979.0</ele><time>2026-04-28T07:21:53.999Z</time></trkpt><trkpt lat="38.42103179312641" lon="16.185785925616212"><ele>979.0</ele><time>2026-04-28T07:21:54.999Z</time></trkpt><trkpt lat="38.42110495365335" lon="16.18568486670458"><ele>978.9999999999999</ele><time>2026-04-28T07:21:56.999Z</time></trkpt><trkpt lat="38.421180960313954" lon="16.18560051845259"><ele>979.0</ele><time>2026-04-28T07:21:58.999Z</time></trkpt><trkpt lat="38.42126532422402" lon="16.185527957016667"><ele>979.0</ele><time>2026-04-28T07:22:00.999Z</time></trkpt><trkpt lat="38.42133827120823" lon="16.185474400629946"><ele>979.0</ele><time>2026-04-28T07:22:02.999Z</time></trkpt><trkpt lat="38.42138279170205" lon="16.185394612291716"><ele>978.9999999999999</ele><time>2026-04-28T07:22:04.999Z</time></trkpt><trkpt lat="38.42138166816296" lon="16.185305512500772"><ele>979.0</ele><time>2026-04-28T07:22:08.999Z</time></trkpt><trkpt lat="38.4213567697407" lon="16.18517743917784"><ele>979.0</ele><time>2026-04-28T07:22:10.999Z</time></trkpt><trkpt lat="38.42138179814224" lon="16.185058956296213"><ele>979.0000000000001</ele><time>2026-04-28T07:22:13Z</time></trkpt><trkpt lat="38.42141442675485" lon="16.184943050004335"><ele>979.0000000000001</ele><time>2026-04-28T07:22:14Z</time></trkpt><trkpt lat="38.421460334034236" lon="16.184849979242355"><ele>979.0</ele><time>2026-04-28T07:22:15Z</time></trkpt><trkpt lat="38.42152214884219" lon="16.184748812169516"><ele>979.0</ele><time>2026-04-28T07:22:16Z</time></trkpt><trkpt lat="38.42156634941778" lon="16.184640578681247"><ele>980.0</ele><time>2026-04-28T07:22:17Z</time></trkpt><trkpt lat="38.42160023466151" lon="16.184527614713044"><ele>981.0000000000001</ele><time>2026-04-28T07:22:18Z</time></trkpt><trkpt lat="38.421634500669875" lon="16.18440481829555"><ele>982.0000000000001</ele><time>2026-04-28T07:22:19Z</time></trkpt><trkpt lat="38.42167967643684" lon="16.184300013517657"><ele>983.0</ele><time>2026-04-28T07:22:20Z</time></trkpt><trkpt lat="38.421730788223776" lon="16.184185732944453"><ele>984.0</ele><time>2026-04-28T07:22:21Z</time></trkpt><trkpt lat="38.42177592321634" lon="16.184087024533273"><ele>986.0</ele><time>2026-04-28T07:22:22Z</time></trkpt><trkpt lat="38.421820492799924" lon="16.183997916471156"><ele>988.0000000000001</ele><time>2026-04-28T07:22:23Z</time></trkpt><trkpt lat="38.42188197995496" lon="16.18390405115154"><ele>990.0000000000001</ele><time>2026-04-28T07:22:24Z</time></trkpt><trkpt lat="38.421937781287184" lon="16.183792719209187"><ele>992.0</ele><time>2026-04-28T07:22:25Z</time></trkpt><trkpt lat="38.42199480791219" lon="16.18368233824813"><ele>994.0</ele><time>2026-04-28T07:22:26Z</time></trkpt><trkpt lat="38.422052747894895" lon="16.183583932924428"><ele>994.0</ele><time>2026-04-28T07:22:27Z</time></trkpt><trkpt lat="38.422105579166065" lon="16.183496949379958"><ele>994.0000000000001</ele><time>2026-04-28T07:22:28Z</time></trkpt><trkpt lat="38.4221914009923" lon="16.183401267759017"><ele>994.0000000000001</ele><time>2026-04-28T07:22:29Z</time></trkpt><trkpt lat="38.42226819667355" lon="16.183295407984552"><ele>994.0</ele><time>2026-04-28T07:22:30Z</time></trkpt><trkpt lat="38.422343299119575" lon="16.183186339735194"><ele>994.0</ele><time>2026-04-28T07:22:31Z</time></trkpt><trkpt lat="38.42241748280126" lon="16.183094906210595"><ele>993.1666666666666</ele><time>2026-04-28T07:22:32Z</time></trkpt><trkpt lat="38.422491442883" lon="16.183010459429067"><ele>992.3333333333333</ele><time>2026-04-28T07:22:33Z</time></trkpt><trkpt lat="38.422557347943034" lon="16.1829367245644"><ele>991.5</ele><time>2026-04-28T07:22:34Z</time></trkpt><trkpt lat="38.422615591833214" lon="16.182895210011246"><ele>990.6666666666667</ele><time>2026-04-28T07:22:39Z</time></trkpt><trkpt lat="38.42255567223055" lon="16.182928749682784"><ele>989.8333333333334</ele><time>2026-04-28T07:22:52Z</time></trkpt><trkpt lat="38.42246666108658" lon="16.183047401082497"><ele>989.0</ele><time>2026-04-28T07:22:54Z</time></trkpt><trkpt lat="38.422411089029126" lon="16.183131842740924"><ele>988.3333333333334</ele><time>2026-04-28T07:22:56Z</time></trkpt><trkpt lat="38.42232492664981" lon="16.183247395134664"><ele>987.6666666666667</ele><time>2026-04-28T07:22:58Z</time></trkpt><trkpt lat="38.422272160996975" lon="16.183300334258814"><ele>987.0</ele><time>2026-04-28T07:22:59Z</time></trkpt><trkpt lat="38.42221540550407" lon="16.183375084907947"><ele>986.3333333333333</ele><time>2026-04-28T07:23:00Z</time></trkpt><trkpt lat="38.42215957577881" lon="16.183449282288976"><ele>985.6666666666666</ele><time>2026-04-28T07:23:01Z</time></trkpt><trkpt lat="38.42211110817306" lon="16.183525422300082"><ele>985.0</ele><time>2026-04-28T07:23:02Z</time></trkpt><trkpt lat="38.4220663850425" lon="16.183605582790427"><ele>984.8</ele><time>2026-04-28T07:23:03Z</time></trkpt><trkpt lat="38.42202888362371" lon="16.18368408056483"><ele>984.6</ele><time>2026-04-28T07:23:04Z</time></trkpt><trkpt lat="38.421999608203734" lon="16.18376093728063"><ele>984.4000000000001</ele><time>2026-04-28T07:23:05Z</time></trkpt><trkpt lat="38.421922905568294" lon="16.183872659285353"><ele>984.2</ele><time>2026-04-28T07:23:07Z</time></trkpt><trkpt lat="38.42187827130438" lon="16.184014538680035"><ele>984.0</ele><time>2026-04-28T07:23:09Z</time></trkpt><trkpt lat="38.421837708479245" lon="16.184119501233592"><ele>984.0</ele><time>2026-04-28T07:23:11Z</time></trkpt><trkpt lat="38.42179779778003" lon="16.18420965944103"><ele>984.0</ele><time>2026-04-28T07:23:13Z</time></trkpt><trkpt lat="38.4217209840115" lon="16.18425354967006"><ele>984.0</ele><time>2026-04-28T07:23:18Z</time></trkpt><trkpt lat="38.42163873824399" lon="16.184192094345185"><ele>984.0</ele><time>2026-04-28T07:23:21Z</time></trkpt><trkpt lat="38.42159637524617" lon="16.18412854361326"><ele>984.0</ele><time>2026-04-28T07:23:22.999Z</time></trkpt><trkpt lat="38.42156013153325" lon="16.184057294345468"><ele>984.0</ele><time>2026-04-28T07:23:27.999Z</time></trkpt><trkpt lat="38.42155376100407" lon="16.183974266488875"><ele>985.1666666666666</ele><time>2026-04-28T07:23:43.999Z</time></trkpt><trkpt lat="38.42148318822304" lon="16.18389471443951"><ele>986.3333333333333</ele><time>2026-04-28T07:23:53.999Z</time></trkpt><trkpt lat="38.421429688153594" lon="16.183830662915778"><ele>987.5</ele><time>2026-04-28T07:23:55.999Z</time></trkpt><trkpt lat="38.42134524631985" lon="16.183714993487442"><ele>988.6666666666666</ele><time>2026-04-28T07:23:59.999Z</time></trkpt><trkpt lat="38.42130933675092" lon="16.183645652339212"><ele>989.8333333333333</ele><time>2026-04-28T07:24:05.999Z</time></trkpt><trkpt lat="38.42126512832157" lon="16.183566591557334"><ele>991.0</ele><time>2026-04-28T07:24:10.999Z</time></trkpt><trkpt lat="38.42118522689262" lon="16.1834805634575"><ele>991.0</ele><time>2026-04-28T07:24:12.999Z</time></trkpt><trkpt lat="38.42111788663573" lon="16.183380315108902"><ele>990.9999999999999</ele><time>2026-04-28T07:24:13.999Z</time></trkpt><trkpt lat="38.42107579108546" lon="16.183297309316828"><ele>990.9999999999999</ele><time>2026-04-28T07:24:14.999Z</time></trkpt><trkpt lat="38.42104166202115" lon="16.18318847678753"><ele>991.0</ele><time>2026-04-28T07:24:16.999Z</time></trkpt><trkpt lat="38.42102977421416" lon="16.18309157439053"><ele>991.0</ele><time>2026-04-28T07:24:18Z</time></trkpt><trkpt lat="38.4209900625949" lon="16.182973349687796"><ele>991.8333333333333</ele><time>2026-04-28T07:24:19Z</time></trkpt><trkpt lat="38.42095970924513" lon="16.182834005905868"><ele>992.6666666666666</ele><time>2026-04-28T07:24:20Z</time></trkpt><trkpt lat="38.42093454220948" lon="16.182722434010273"><ele>993.5</ele><time>2026-04-28T07:24:21Z</time></trkpt><trkpt lat="38.42092128995935" lon="16.182628673850513"><ele>994.3333333333333</ele><time>2026-04-28T07:24:22Z</time></trkpt><trkpt lat="38.42090844720168" lon="16.18253009861713"><ele>995.1666666666666</ele><time>2026-04-28T07:24:23Z</time></trkpt><trkpt lat="38.420903234719454" lon="16.182419018121823"><ele>996.0</ele><time>2026-04-28T07:24:24Z</time></trkpt><trkpt lat="38.4208783368955" lon="16.18229507485213"><ele>996.0</ele><time>2026-04-28T07:24:25Z</time></trkpt><trkpt lat="38.42085258183073" lon="16.182176553083007"><ele>996.0</ele><time>2026-04-28T07:24:26Z</time></trkpt><trkpt lat="38.42083687621049" lon="16.182073457412923"><ele>996.0</ele><time>2026-04-28T07:24:27Z</time></trkpt><trkpt lat="38.42082858113721" lon="16.181992260705826"><ele>996.0</ele><time>2026-04-28T07:24:28Z</time></trkpt><trkpt lat="38.42079499602644" lon="16.181846177446037"><ele>996.0</ele><time>2026-04-28T07:24:30Z</time></trkpt><trkpt lat="38.420744168924585" lon="16.181776323200072"><ele>996.0</ele><time>2026-04-28T07:24:31Z</time></trkpt><trkpt lat="38.420684543933795" lon="16.181715587204476"><ele>996.0</ele><time>2026-04-28T07:24:32Z</time></trkpt><trkpt lat="38.4205978726362" lon="16.18167200946836"><ele>996.0</ele><time>2026-04-28T07:24:33Z</time></trkpt><trkpt lat="38.4205181418231" lon="16.181643806714085"><ele>996.0</ele><time>2026-04-28T07:24:34Z</time></trkpt><trkpt lat="38.420443208821155" lon="16.181536089008198"><ele>996.0</ele><time>2026-04-28T07:24:36Z</time></trkpt><trkpt lat="38.42040946668594" lon="16.18146680145562"><ele>996.0</ele><time>2026-04-28T07:24:37Z</time></trkpt><trkpt lat="38.420371523881975" lon="16.181380107039125"><ele>996.0</ele><time>2026-04-28T07:24:38Z</time></trkpt><trkpt lat="38.42032568480967" lon="16.18129788485687"><ele>995.5</ele><time>2026-04-28T07:24:39Z</time></trkpt><trkpt lat="38.420277190166246" lon="16.18117987151991"><ele>995.0</ele><time>2026-04-28T07:24:40Z</time></trkpt><trkpt lat="38.42022200029693" lon="16.18110414785823"><ele>994.5</ele><time>2026-04-28T07:24:41Z</time></trkpt><trkpt lat="38.42017226217898" lon="16.181025292448002"><ele>994.0</ele><time>2026-04-28T07:24:42Z</time></trkpt><trkpt lat="38.42008394733509" lon="16.180952740197107"><ele>993.5</ele><time>2026-04-28T07:24:44Z</time></trkpt><trkpt lat="38.420018743996245" lon="16.180955001639884"><ele>993.0</ele><time>2026-04-28T07:24:46Z</time></trkpt><trkpt lat="38.419893152335355" lon="16.181027785993596"><ele>993.0</ele><time>2026-04-28T07:24:48Z</time></trkpt><trkpt lat="38.41981236260619" lon="16.181069285474287"><ele>993.0</ele><time>2026-04-28T07:24:49Z</time></trkpt><trkpt lat="38.419732960534894" lon="16.181119297436283"><ele>993.0</ele><time>2026-04-28T07:24:50Z</time></trkpt><trkpt lat="38.419674488806315" lon="16.181180072361197"><ele>993.0</ele><time>2026-04-28T07:24:51Z</time></trkpt><trkpt lat="38.41960984212899" lon="16.181231348737477"><ele>993.0</ele><time>2026-04-28T07:24:52Z</time></trkpt><trkpt lat="38.4195504899" lon="16.181267870219237"><ele>993.0</ele><time>2026-04-28T07:24:53Z</time></trkpt><trkpt lat="38.41948251987595" lon="16.181302587600435"><ele>992.4</ele><time>2026-04-28T07:24:54Z</time></trkpt><trkpt lat="38.419407270908735" lon="16.181344874690936"><ele>991.8</ele><time>2026-04-28T07:24:55Z</time></trkpt><trkpt lat="38.41930919365483" lon="16.181390114635427"><ele>991.2</ele><time>2026-04-28T07:24:56Z</time></trkpt><trkpt lat="38.41919785596989" lon="16.181420136027803"><ele>990.6</ele><time>2026-04-28T07:24:57Z</time></trkpt><trkpt lat="38.41910513536663" lon="16.181450356255446"><ele>990.0</ele><time>2026-04-28T07:24:58Z</time></trkpt><trkpt lat="38.41901873488364" lon="16.18146820583833"><ele>990.0</ele><time>2026-04-28T07:24:59Z</time></trkpt><trkpt lat="38.41893830890785" lon="16.181477577398066"><ele>990.0</ele><time>2026-04-28T07:25:00Z</time></trkpt><trkpt lat="38.41885773700563" lon="16.181484060177812"><ele>990.0</ele><time>2026-04-28T07:25:01Z</time></trkpt><trkpt lat="38.41876825709726" lon="16.181492125077263"><ele>990.0</ele><time>2026-04-28T07:25:02Z</time></trkpt><trkpt lat="38.41866487050665" lon="16.18146727469137"><ele>990.0</ele><time>2026-04-28T07:25:03Z</time></trkpt><trkpt lat="38.418574491594306" lon="16.18143809251745"><ele>988.4</ele><time>2026-04-28T07:25:04Z</time></trkpt><trkpt lat="38.418492808172815" lon="16.18141278668926"><ele>986.8</ele><time>2026-04-28T07:25:05Z</time></trkpt><trkpt lat="38.41841902418072" lon="16.181375283936756"><ele>985.2</ele><time>2026-04-28T07:25:06Z</time></trkpt><trkpt lat="38.41835138349151" lon="16.181295498966843"><ele>983.6</ele><time>2026-04-28T07:25:08Z</time></trkpt><trkpt lat="38.41831961779937" lon="16.181176246560245"><ele>982.0</ele><time>2026-04-28T07:25:17Z</time></trkpt><trkpt lat="38.41824505491186" lon="16.181018250048076"><ele>981.9999999999999</ele><time>2026-04-28T07:25:19Z</time></trkpt><trkpt lat="38.41822480553232" lon="16.18092710759498"><ele>982.0</ele><time>2026-04-28T07:25:20Z</time></trkpt><trkpt lat="38.41822577894042" lon="16.18081609610452"><ele>982.0</ele><time>2026-04-28T07:25:21Z</time></trkpt><trkpt lat="38.418224789248825" lon="16.180704468409267"><ele>982.0</ele><time>2026-04-28T07:25:22Z</time></trkpt><trkpt lat="38.418216889969045" lon="16.180604657558785"><ele>981.9999999999999</ele><time>2026-04-28T07:25:23Z</time></trkpt><trkpt lat="38.418155416801405" lon="16.180495088756892"><ele>982.0</ele><time>2026-04-28T07:25:24.999Z</time></trkpt><trkpt lat="38.41809370116683" lon="16.180444217428608"><ele>981.0</ele><time>2026-04-28T07:25:25.999Z</time></trkpt><trkpt lat="38.41802964915702" lon="16.180405273546235"><ele>979.9999999999999</ele><time>2026-04-28T07:25:26.999Z</time></trkpt><trkpt lat="38.41796921143797" lon="16.18035924134677"><ele>979.0</ele><time>2026-04-28T07:25:28.999Z</time></trkpt><trkpt lat="38.41795832174427" lon="16.180274999512754"><ele>978.0</ele><time>2026-04-28T07:25:49.999Z</time></trkpt><trkpt lat="38.418013236344606" lon="16.18033665911534"><ele>976.9999999999999</ele><time>2026-04-28T07:26:18.999Z</time></trkpt><trkpt lat="38.418059595714595" lon="16.18039680713356"><ele>976.0</ele><time>2026-04-28T07:26:20.999Z</time></trkpt><trkpt lat="38.41813313142217" lon="16.18043628728412"><ele>975.0</ele><time>2026-04-28T07:26:22.999Z</time></trkpt><trkpt lat="38.41817200607268" lon="16.180545165223567"><ele>975.0</ele><time>2026-04-28T07:26:26Z</time></trkpt><trkpt lat="38.41818601584533" lon="16.180627948626462"><ele>975.0</ele><time>2026-04-28T07:26:27Z</time></trkpt><trkpt lat="38.41818578203032" lon="16.180781802547965"><ele>975.0</ele><time>2026-04-28T07:26:29Z</time></trkpt><trkpt lat="38.41818488966346" lon="16.180864396043486"><ele>975.0</ele><time>2026-04-28T07:26:30Z</time></trkpt><trkpt lat="38.418196460811195" lon="16.180946673516324"><ele>975.0</ele><time>2026-04-28T07:26:31Z</time></trkpt><trkpt lat="38.41825630120303" lon="16.18107625787113"><ele>975.0</ele><time>2026-04-28T07:26:33Z</time></trkpt><trkpt lat="38.418311486897295" lon="16.18114591064195"><ele>976.0</ele><time>2026-04-28T07:26:34Z</time></trkpt><trkpt lat="38.418364004832995" lon="16.181215870870883"><ele>976.9999999999999</ele><time>2026-04-28T07:26:35Z</time></trkpt><trkpt lat="38.41840669295668" lon="16.181288965414925"><ele>978.0</ele><time>2026-04-28T07:26:36Z</time></trkpt><trkpt lat="38.41845756454239" lon="16.181338678487556"><ele>979.0</ele><time>2026-04-28T07:26:37Z</time></trkpt><trkpt lat="38.41852178431283" lon="16.18136468455406"><ele>979.9999999999999</ele><time>2026-04-28T07:26:38Z</time></trkpt><trkpt lat="38.418589255111584" lon="16.18139490614721"><ele>981.0</ele><time>2026-04-28T07:26:39Z</time></trkpt><trkpt lat="38.41865419343489" lon="16.181398931855938"><ele>982.0</ele><time>2026-04-28T07:26:40Z</time></trkpt><trkpt lat="38.41871712427602" lon="16.18140309801436"><ele>982.0</ele><time>2026-04-28T07:26:41Z</time></trkpt><trkpt lat="38.41878075615503" lon="16.181414380567794"><ele>982.0</ele><time>2026-04-28T07:26:42Z</time></trkpt><trkpt lat="38.41889714049047" lon="16.181427867181796"><ele>982.0</ele><time>2026-04-28T07:26:44Z</time></trkpt><trkpt lat="38.41901253363589" lon="16.181427348344766"><ele>982.0</ele><time>2026-04-28T07:26:46Z</time></trkpt><trkpt lat="38.41908676239924" lon="16.181409357523822"><ele>982.0</ele><time>2026-04-28T07:26:47Z</time></trkpt><trkpt lat="38.4191667749258" lon="16.181378545176717"><ele>983.6</ele><time>2026-04-28T07:26:48Z</time></trkpt><trkpt lat="38.41924878734844" lon="16.18134416225544"><ele>985.2</ele><time>2026-04-28T07:26:49Z</time></trkpt><trkpt lat="38.419338379659045" lon="16.18131840475149"><ele>986.8</ele><time>2026-04-28T07:26:50Z</time></trkpt><trkpt lat="38.419420786617025" lon="16.181290685358587"><ele>988.4</ele><time>2026-04-28T07:26:51Z</time></trkpt><trkpt lat="38.41955141393239" lon="16.18123063149234"><ele>990.0</ele><time>2026-04-28T07:26:53Z</time></trkpt><trkpt lat="38.41963192949783" lon="16.181172149903542"><ele>990.5</ele><time>2026-04-28T07:26:54Z</time></trkpt><trkpt lat="38.4197026956457" lon="16.1811120560514"><ele>991.0</ele><time>2026-04-28T07:26:55Z</time></trkpt><trkpt lat="38.4197791654503" lon="16.181049871736143"><ele>991.5</ele><time>2026-04-28T07:26:56Z</time></trkpt><trkpt lat="38.41985269049817" lon="16.181004665836223"><ele>992.0</ele><time>2026-04-28T07:26:57Z</time></trkpt><trkpt lat="38.41991159354343" lon="16.180972461506837"><ele>992.5</ele><time>2026-04-28T07:26:58Z</time></trkpt><trkpt lat="38.420024737815325" lon="16.180910388412205"><ele>993.0</ele><time>2026-04-28T07:27:00Z</time></trkpt><trkpt lat="38.42009697553092" lon="16.180883400962024"><ele>993.0</ele><time>2026-04-28T07:27:01Z</time></trkpt><trkpt lat="38.42018183170642" lon="16.1808687339855"><ele>993.0</ele><time>2026-04-28T07:27:02Z</time></trkpt><trkpt lat="38.420252096540864" lon="16.180847695315084"><ele>993.0</ele><time>2026-04-28T07:27:03Z</time></trkpt><trkpt lat="38.42031785251835" lon="16.180834844380623"><ele>993.0</ele><time>2026-04-28T07:27:04Z</time></trkpt><trkpt lat="38.42043279902311" lon="16.180811832037094"><ele>993.0</ele><time>2026-04-28T07:27:06Z</time></trkpt><trkpt lat="38.420516964861264" lon="16.180810446825507"><ele>993.0</ele><time>2026-04-28T07:27:08Z</time></trkpt><trkpt lat="38.42062351799283" lon="16.180774782180087"><ele>992.3333333333333</ele><time>2026-04-28T07:27:10Z</time></trkpt><trkpt lat="38.42068205388343" lon="16.180743060286034"><ele>991.6666666666666</ele><time>2026-04-28T07:27:12Z</time></trkpt><trkpt lat="38.42060563323058" lon="16.180687607005254"><ele>991.0</ele><time>2026-04-28T07:27:18Z</time></trkpt><trkpt lat="38.420177073746856" lon="16.180477670825635"><ele>991.0</ele><time>2026-04-28T07:27:21Z</time></trkpt><trkpt lat="38.420087022139825" lon="16.18039886695607"><ele>991.0</ele><time>2026-04-28T07:27:22Z</time></trkpt><trkpt lat="38.420013870714996" lon="16.180286037589887"><ele>991.0</ele><time>2026-04-28T07:27:23Z</time></trkpt><trkpt lat="38.41994726242935" lon="16.180145729893553"><ele>991.0</ele><time>2026-04-28T07:27:24Z</time></trkpt><trkpt lat="38.41989703133907" lon="16.18000239510642"><ele>991.0</ele><time>2026-04-28T07:27:25Z</time></trkpt><trkpt lat="38.41986328298201" lon="16.179864841749044"><ele>990.9999999999999</ele><time>2026-04-28T07:27:26Z</time></trkpt><trkpt lat="38.41985441268991" lon="16.179736494193214"><ele>990.9999999999999</ele><time>2026-04-28T07:27:27Z</time></trkpt><trkpt lat="38.41986018995272" lon="16.179616061919308"><ele>991.0</ele><time>2026-04-28T07:27:28Z</time></trkpt><trkpt lat="38.419863919409465" lon="16.17948224508801"><ele>991.0</ele><time>2026-04-28T07:27:28.999Z</time></trkpt><trkpt lat="38.41989611282547" lon="16.179361192639472"><ele>989.75</ele><time>2026-04-28T07:27:29.999Z</time></trkpt><trkpt lat="38.41995211008038" lon="16.179248286956454"><ele>988.5</ele><time>2026-04-28T07:27:30.999Z</time></trkpt><trkpt lat="38.420018956785476" lon="16.179139762845622"><ele>987.25</ele><time>2026-04-28T07:27:31.999Z</time></trkpt><trkpt lat="38.420090373798246" lon="16.179018062407934"><ele>986.0</ele><time>2026-04-28T07:27:32.999Z</time></trkpt><trkpt lat="38.42015803698083" lon="16.1788876635888"><ele>986.0</ele><time>2026-04-28T07:27:33.999Z</time></trkpt><trkpt lat="38.42021978349154" lon="16.178783112406506"><ele>985.9999999999999</ele><time>2026-04-28T07:27:34.999Z</time></trkpt><trkpt lat="38.42027995941077" lon="16.17867779437343"><ele>985.9999999999999</ele><time>2026-04-28T07:27:35.999Z</time></trkpt><trkpt lat="38.42033069550205" lon="16.178583646275367"><ele>986.0</ele><time>2026-04-28T07:27:36.999Z</time></trkpt><trkpt lat="38.42037971426295" lon="16.17849060395649"><ele>986.0</ele><time>2026-04-28T07:27:37.999Z</time></trkpt><trkpt lat="38.420427290510055" lon="16.178405500849294"><ele>986.0</ele><time>2026-04-28T07:27:38.999Z</time></trkpt><trkpt lat="38.420478156917056" lon="16.178304614424867"><ele>985.9999999999999</ele><time>2026-04-28T07:27:39.999Z</time></trkpt><trkpt lat="38.420528087679635" lon="16.17818951828636"><ele>985.9999999999999</ele><time>2026-04-28T07:27:40.999Z</time></trkpt><trkpt lat="38.420585775151565" lon="16.178080593311183"><ele>986.0</ele><time>2026-04-28T07:27:41.999Z</time></trkpt><trkpt lat="38.420648543278475" lon="16.17797346291929"><ele>986.0</ele><time>2026-04-28T07:27:42.999Z</time></trkpt><trkpt lat="38.420702272487624" lon="16.177860330794182"><ele>983.75</ele><time>2026-04-28T07:27:43.999Z</time></trkpt><trkpt lat="38.42074409849485" lon="16.177737268204424"><ele>981.5</ele><time>2026-04-28T07:27:44.999Z</time></trkpt><trkpt lat="38.420776742449185" lon="16.177598220510216"><ele>979.25</ele><time>2026-04-28T07:27:45.999Z</time></trkpt><trkpt lat="38.420799544883906" lon="16.17746174117616"><ele>977.0</ele><time>2026-04-28T07:27:46.999Z</time></trkpt><trkpt lat="38.420802603941304" lon="16.177296129564738"><ele>974.0</ele><time>2026-04-28T07:27:47.999Z</time></trkpt><trkpt lat="38.42077867258814" lon="16.177143637531586"><ele>971.0</ele><time>2026-04-28T07:27:48.999Z</time></trkpt><trkpt lat="38.42072148383577" lon="16.17700573712175"><ele>968.0</ele><time>2026-04-28T07:27:49.999Z</time></trkpt><trkpt lat="38.42064992809838" lon="16.17688161721428"><ele>965.0</ele><time>2026-04-28T07:27:50.999Z</time></trkpt><trkpt lat="38.420561292378544" lon="16.176769063828093"><ele>967.0</ele><time>2026-04-28T07:27:51.999Z</time></trkpt><trkpt lat="38.42042847476974" lon="16.176679793799334"><ele>969.0</ele><time>2026-04-28T07:27:52.999Z</time></trkpt><trkpt lat="38.42032356362904" lon="16.176579384351946"><ele>971.0</ele><time>2026-04-28T07:27:53.999Z</time></trkpt><trkpt lat="38.42022352530757" lon="16.176480985147002"><ele>973.0</ele><time>2026-04-28T07:27:54.999Z</time></trkpt><trkpt lat="38.42012157246957" lon="16.176397665156976"><ele>969.0</ele><time>2026-04-28T07:27:55.999Z</time></trkpt><trkpt lat="38.420020770143864" lon="16.17631435251613"><ele>965.0</ele><time>2026-04-28T07:27:56.999Z</time></trkpt><trkpt lat="38.419925042301955" lon="16.17622812340302"><ele>961.0</ele><time>2026-04-28T07:27:57.999Z</time></trkpt><trkpt lat="38.4198307378689" lon="16.17613729692213"><ele>957.0</ele><time>2026-04-28T07:27:58.999Z</time></trkpt><trkpt lat="38.41975632278092" lon="16.176058363184712"><ele>957.5</ele><time>2026-04-28T07:27:59.999Z</time></trkpt><trkpt lat="38.41964970594792" lon="16.175982466848787"><ele>958.0</ele><time>2026-04-28T07:28:00.999Z</time></trkpt><trkpt lat="38.41955608848149" lon="16.175875508246794"><ele>958.5</ele><time>2026-04-28T07:28:01.999Z</time></trkpt><trkpt lat="38.41946368650714" lon="16.175777725436806"><ele>959.0</ele><time>2026-04-28T07:28:02.999Z</time></trkpt><trkpt lat="38.41936835455755" lon="16.17568031609453"><ele>959.0</ele><time>2026-04-28T07:28:03.999Z</time></trkpt><trkpt lat="38.4192718410459" lon="16.175599554603536"><ele>959.0</ele><time>2026-04-28T07:28:04.999Z</time></trkpt><trkpt lat="38.41917656629221" lon="16.175535538463333"><ele>959.0</ele><time>2026-04-28T07:28:05.999Z</time></trkpt><trkpt lat="38.419063887012726" lon="16.17548496610358"><ele>959.0</ele><time>2026-04-28T07:28:06.999Z</time></trkpt><trkpt lat="38.418952344621594" lon="16.17544553984636"><ele>959.0</ele><time>2026-04-28T07:28:07.999Z</time></trkpt><trkpt lat="38.41883265430938" lon="16.175457518878176"><ele>959.0</ele><time>2026-04-28T07:28:08.999Z</time></trkpt><trkpt lat="38.41871248138784" lon="16.175485106083524"><ele>959.0</ele><time>2026-04-28T07:28:09.999Z</time></trkpt><trkpt lat="38.41859346139979" lon="16.175544979326347"><ele>959.0</ele><time>2026-04-28T07:28:10.999Z</time></trkpt><trkpt lat="38.418489810527895" lon="16.175625133458734"><ele>956.5</ele><time>2026-04-28T07:28:11.999Z</time></trkpt><trkpt lat="38.418396547397485" lon="16.17574800504726"><ele>954.0</ele><time>2026-04-28T07:28:12.999Z</time></trkpt><trkpt lat="38.41832009742078" lon="16.175876242154686"><ele>951.5</ele><time>2026-04-28T07:28:13.999Z</time></trkpt><trkpt lat="38.41825736538789" lon="16.17604249083683"><ele>949.0</ele><time>2026-04-28T07:28:14.999Z</time></trkpt><trkpt lat="38.418209010423325" lon="16.176193679995265"><ele>949.0</ele><time>2026-04-28T07:28:15.999Z</time></trkpt><trkpt lat="38.41816242675476" lon="16.176347556560465"><ele>949.0</ele><time>2026-04-28T07:28:16.999Z</time></trkpt><trkpt lat="38.41811411167531" lon="16.176516832876175"><ele>949.0</ele><time>2026-04-28T07:28:17.999Z</time></trkpt><trkpt lat="38.418067586477825" lon="16.176664839325756"><ele>949.0</ele><time>2026-04-28T07:28:18.999Z</time></trkpt><trkpt lat="38.418011860756955" lon="16.176799090742946"><ele>945.0</ele><time>2026-04-28T07:28:19.999Z</time></trkpt><trkpt lat="38.41794396752665" lon="16.176927981382175"><ele>941.0</ele><time>2026-04-28T07:28:20.999Z</time></trkpt><trkpt lat="38.417854663275314" lon="16.17705701240832"><ele>937.0</ele><time>2026-04-28T07:28:21.999Z</time></trkpt><trkpt lat="38.41774950053986" lon="16.177190373406212"><ele>933.0</ele><time>2026-04-28T07:28:22.999Z</time></trkpt><trkpt lat="38.417643215524905" lon="16.177317146143906"><ele>935.5</ele><time>2026-04-28T07:28:23.999Z</time></trkpt><trkpt lat="38.41754261756193" lon="16.177441482322095"><ele>938.0</ele><time>2026-04-28T07:28:24.999Z</time></trkpt><trkpt lat="38.417447080382665" lon="16.177564558516952"><ele>940.5</ele><time>2026-04-28T07:28:25.999Z</time></trkpt><trkpt lat="38.417359745846795" lon="16.177673235209635"><ele>943.0</ele><time>2026-04-28T07:28:26.999Z</time></trkpt><trkpt lat="38.4172750651612" lon="16.177771494110264"><ele>943.0</ele><time>2026-04-28T07:28:27.999Z</time></trkpt><trkpt lat="38.41719922591814" lon="16.177856240866788"><ele>943.0</ele><time>2026-04-28T07:28:28.999Z</time></trkpt><trkpt lat="38.41712953778498" lon="16.177932948781855"><ele>943.0</ele><time>2026-04-28T07:28:30Z</time></trkpt><trkpt lat="38.41705360213447" lon="16.177996619370077"><ele>943.0</ele><time>2026-04-28T07:28:31Z</time></trkpt><trkpt lat="38.416965286171774" lon="16.17804131113307"><ele>943.0</ele><time>2026-04-28T07:28:32Z</time></trkpt><trkpt lat="38.416865503793325" lon="16.17805751238987"><ele>936.5</ele><time>2026-04-28T07:28:33Z</time></trkpt><trkpt lat="38.41676119377277" lon="16.17804703905175"><ele>930.0</ele><time>2026-04-28T07:28:34Z</time></trkpt><trkpt lat="38.41665903600521" lon="16.17796854478819"><ele>923.5</ele><time>2026-04-28T07:28:35Z</time></trkpt><trkpt lat="38.41656975182277" lon="16.177875600958107"><ele>917.0</ele><time>2026-04-28T07:28:36Z</time></trkpt><trkpt lat="38.41647928621362" lon="16.177772118766384"><ele>917.0</ele><time>2026-04-28T07:28:37Z</time></trkpt><trkpt lat="38.41639755698096" lon="16.177650251778264"><ele>917.0</ele><time>2026-04-28T07:28:38Z</time></trkpt><trkpt lat="38.41630876036078" lon="16.177530181093516"><ele>917.0</ele><time>2026-04-28T07:28:39Z</time></trkpt><trkpt lat="38.416206972292976" lon="16.177423146678493"><ele>917.0</ele><time>2026-04-28T07:28:40Z</time></trkpt><trkpt lat="38.41612369251014" lon="16.17730715185083"><ele>915.0</ele><time>2026-04-28T07:28:41Z</time></trkpt><trkpt lat="38.4160460633326" lon="16.177187217374293"><ele>913.0</ele><time>2026-04-28T07:28:42Z</time></trkpt><trkpt lat="38.41598538595004" lon="16.177046635021313"><ele>911.0</ele><time>2026-04-28T07:28:43Z</time></trkpt><trkpt lat="38.4159130845456" lon="16.176929654252906"><ele>909.0</ele><time>2026-04-28T07:28:44Z</time></trkpt><trkpt lat="38.41584438383256" lon="16.17682519887093"><ele>909.0</ele><time>2026-04-28T07:28:45Z</time></trkpt><trkpt lat="38.41576466877562" lon="16.176728861368936"><ele>909.0</ele><time>2026-04-28T07:28:46Z</time></trkpt><trkpt lat="38.415674851495886" lon="16.176659733261328"><ele>909.0</ele><time>2026-04-28T07:28:47Z</time></trkpt><trkpt lat="38.41556136165894" lon="16.176673352655282"><ele>909.0</ele><time>2026-04-28T07:28:48Z</time></trkpt><trkpt lat="38.41544639881669" lon="16.17672417800254"><ele>909.0</ele><time>2026-04-28T07:28:49Z</time></trkpt><trkpt lat="38.41533136911876" lon="16.176762528683067"><ele>909.0000000000001</ele><time>2026-04-28T07:28:50Z</time></trkpt><trkpt lat="38.415227969243325" lon="16.17679837219356"><ele>909.0000000000001</ele><time>2026-04-28T07:28:51Z</time></trkpt><trkpt lat="38.415124647717704" lon="16.176813459573587"><ele>909.0</ele><time>2026-04-28T07:28:52Z</time></trkpt><trkpt lat="38.41501399099076" lon="16.176810063222163"><ele>909.0</ele><time>2026-04-28T07:28:53Z</time></trkpt><trkpt lat="38.4148954343384" lon="16.17678407814336"><ele>909.0</ele><time>2026-04-28T07:28:54Z</time></trkpt><trkpt lat="38.41477373284878" lon="16.17675009380998"><ele>909.0</ele><time>2026-04-28T07:28:55Z</time></trkpt><trkpt lat="38.41465977231369" lon="16.17671620185681"><ele>909.0</ele><time>2026-04-28T07:28:56Z</time></trkpt><trkpt lat="38.4145453913323" lon="16.17670138577471"><ele>909.0</ele><time>2026-04-28T07:28:57Z</time></trkpt><trkpt lat="38.41443213477116" lon="16.176667904699688"><ele>909.25</ele><time>2026-04-28T07:28:58Z</time></trkpt><trkpt lat="38.41430614099874" lon="16.176639033105957"><ele>909.5</ele><time>2026-04-28T07:28:59Z</time></trkpt><trkpt lat="38.41418846443073" lon="16.176588418287082"><ele>909.75</ele><time>2026-04-28T07:29:00Z</time></trkpt><trkpt lat="38.41406430994332" lon="16.17655293564429"><ele>910.0</ele><time>2026-04-28T07:29:01Z</time></trkpt><trkpt lat="38.413916177625666" lon="16.176509399364942"><ele>905.0</ele><time>2026-04-28T07:29:02Z</time></trkpt><trkpt lat="38.41375070904096" lon="16.17646076792507"><ele>900.0</ele><time>2026-04-28T07:29:03Z</time></trkpt><trkpt lat="38.41357715624088" lon="16.17640976050633"><ele>895.0</ele><time>2026-04-28T07:29:04Z</time></trkpt><trkpt lat="38.41341480050659" lon="16.17636412812842"><ele>895.0</ele><time>2026-04-28T07:29:05Z</time></trkpt><trkpt lat="38.41327116625182" lon="16.176342861298423"><ele>895.0</ele><time>2026-04-28T07:29:06Z</time></trkpt><trkpt lat="38.41314419631883" lon="16.17630972254184"><ele>895.0</ele><time>2026-04-28T07:29:07Z</time></trkpt><trkpt lat="38.413027561622336" lon="16.17632697195559"><ele>895.0</ele><time>2026-04-28T07:29:08Z</time></trkpt><trkpt lat="38.4129211363477" lon="16.176401090934316"><ele>896.0</ele><time>2026-04-28T07:29:09Z</time></trkpt><trkpt lat="38.412835359273" lon="16.176533047761232"><ele>897.0</ele><time>2026-04-28T07:29:10Z</time></trkpt><trkpt lat="38.41277805426898" lon="16.176710286244635"><ele>898.0</ele><time>2026-04-28T07:29:11Z</time></trkpt><trkpt lat="38.41273031775882" lon="16.176887105310037"><ele>899.0</ele><time>2026-04-28T07:29:12Z</time></trkpt><trkpt lat="38.41265763805492" lon="16.17702186662286"><ele>899.0</ele><time>2026-04-28T07:29:13Z</time></trkpt><trkpt lat="38.412542588828146" lon="16.17708668603968"><ele>899.0</ele><time>2026-04-28T07:29:14Z</time></trkpt><trkpt lat="38.41241812521387" lon="16.177129929447275"><ele>899.0</ele><time>2026-04-28T07:29:15Z</time></trkpt><trkpt lat="38.412272854331725" lon="16.177153057351184"><ele>899.0</ele><time>2026-04-28T07:29:16Z</time></trkpt><trkpt lat="38.41211401681858" lon="16.17713670223972"><ele>895.75</ele><time>2026-04-28T07:29:17Z</time></trkpt><trkpt lat="38.411948606689855" lon="16.177141782330892"><ele>892.5</ele><time>2026-04-28T07:29:18Z</time></trkpt><trkpt lat="38.41180338809213" lon="16.17713153580308"><ele>889.25</ele><time>2026-04-28T07:29:19Z</time></trkpt><trkpt lat="38.41167359956978" lon="16.177144234575724"><ele>886.0</ele><time>2026-04-28T07:29:20Z</time></trkpt><trkpt lat="38.411547693211915" lon="16.17721294910962"><ele>886.0</ele><time>2026-04-28T07:29:21Z</time></trkpt><trkpt lat="38.411423402319095" lon="16.17734182563685"><ele>886.0</ele><time>2026-04-28T07:29:22Z</time></trkpt><trkpt lat="38.4112837654835" lon="16.17748504361086"><ele>886.0</ele><time>2026-04-28T07:29:23Z</time></trkpt><trkpt lat="38.41112656358079" lon="16.17764156639939"><ele>886.0</ele><time>2026-04-28T07:29:24Z</time></trkpt><trkpt lat="38.41094774508293" lon="16.17781675799618"><ele>886.0</ele><time>2026-04-28T07:29:25Z</time></trkpt><trkpt lat="38.41077336768331" lon="16.177990239627285"><ele>886.0</ele><time>2026-04-28T07:29:26Z</time></trkpt><trkpt lat="38.41061451446209" lon="16.178151238132408"><ele>886.0</ele><time>2026-04-28T07:29:27Z</time></trkpt><trkpt lat="38.410470531581886" lon="16.17829588954948"><ele>886.0</ele><time>2026-04-28T07:29:28Z</time></trkpt><trkpt lat="38.41036930758301" lon="16.1784418141703"><ele>886.0</ele><time>2026-04-28T07:29:29Z</time></trkpt><trkpt lat="38.41024780772656" lon="16.178518101815104"><ele>886.0</ele><time>2026-04-28T07:29:29.999Z</time></trkpt><trkpt lat="38.41011219865061" lon="16.178561352885644"><ele>886.0</ele><time>2026-04-28T07:29:30.999Z</time></trkpt><trkpt lat="38.40995232340761" lon="16.178562364260557"><ele>886.0</ele><time>2026-04-28T07:29:31.999Z</time></trkpt><trkpt lat="38.40977064411142" lon="16.178550587381135"><ele>886.3333333333333</ele><time>2026-04-28T07:29:32.999Z</time></trkpt><trkpt lat="38.40957632930435" lon="16.178552487587105"><ele>886.6666666666667</ele><time>2026-04-28T07:29:33.999Z</time></trkpt><trkpt lat="38.4093694604247" lon="16.178552937194333"><ele>887.0</ele><time>2026-04-28T07:29:34.999Z</time></trkpt><trkpt lat="38.40915990217951" lon="16.178550794825867"><ele>887.0</ele><time>2026-04-28T07:29:35.999Z</time></trkpt><trkpt lat="38.40896089188545" lon="16.178550821667272"><ele>887.0</ele><time>2026-04-28T07:29:36.999Z</time></trkpt><trkpt lat="38.40877818196612" lon="16.17855331625227"><ele>887.0</ele><time>2026-04-28T07:29:37.999Z</time></trkpt><trkpt lat="38.408605898121074" lon="16.178537185444153"><ele>885.6666666666667</ele><time>2026-04-28T07:29:38.999Z</time></trkpt><trkpt lat="38.40843562387565" lon="16.17856317658411"><ele>884.3333333333333</ele><time>2026-04-28T07:29:39.999Z</time></trkpt><trkpt lat="38.408264603221184" lon="16.17858965443385"><ele>883.0</ele><time>2026-04-28T07:29:40.999Z</time></trkpt><trkpt lat="38.40810175855638" lon="16.17865319205412"><ele>883.0</ele><time>2026-04-28T07:29:41.999Z</time></trkpt><trkpt lat="38.40795070929006" lon="16.17875646787368"><ele>883.0</ele><time>2026-04-28T07:29:42.999Z</time></trkpt><trkpt lat="38.40778480801317" lon="16.178880253683946"><ele>883.0</ele><time>2026-04-28T07:29:43.999Z</time></trkpt><trkpt lat="38.40760660126715" lon="16.179037694221478"><ele>883.0</ele><time>2026-04-28T07:29:44.999Z</time></trkpt><trkpt lat="38.40741148333758" lon="16.179210074996956"><ele>883.0</ele><time>2026-04-28T07:29:45.999Z</time></trkpt><trkpt lat="38.40720770485995" lon="16.17939010846465"><ele>883.0</ele><time>2026-04-28T07:29:46.999Z</time></trkpt><trkpt lat="38.40701877639791" lon="16.179557811162315"><ele>883.0</ele><time>2026-04-28T07:29:47.999Z</time></trkpt><trkpt lat="38.406848048264216" lon="16.17970935869161"><ele>883.0</ele><time>2026-04-28T07:29:48.999Z</time></trkpt><trkpt lat="38.40669138213819" lon="16.179848424106126"><ele>883.6666666666666</ele><time>2026-04-28T07:29:49.999Z</time></trkpt><trkpt lat="38.40654075325101" lon="16.17998182316201"><ele>884.3333333333333</ele><time>2026-04-28T07:29:50.999Z</time></trkpt><trkpt lat="38.406387875099526" lon="16.18011583251291"><ele>885.0</ele><time>2026-04-28T07:29:51.999Z</time></trkpt><trkpt lat="38.40624297196906" lon="16.180246800646874"><ele>886.6666666666667</ele><time>2026-04-28T07:29:52.999Z</time></trkpt><trkpt lat="38.406108392116785" lon="16.18037906242762"><ele>888.3333333333334</ele><time>2026-04-28T07:29:53.999Z</time></trkpt><trkpt lat="38.40595008141271" lon="16.180494479903153"><ele>890.0</ele><time>2026-04-28T07:29:54.999Z</time></trkpt><trkpt lat="38.405775984022604" lon="16.18058147274207"><ele>890.0</ele><time>2026-04-28T07:29:55.999Z</time></trkpt><trkpt lat="38.40561391498091" lon="16.180677682035295"><ele>890.0</ele><time>2026-04-28T07:29:56.999Z</time></trkpt><trkpt lat="38.40544866417379" lon="16.18074521262047"><ele>890.0</ele><time>2026-04-28T07:29:57.999Z</time></trkpt><trkpt lat="38.40528530096174" lon="16.180788142467307"><ele>892.3333333333334</ele><time>2026-04-28T07:29:58.999Z</time></trkpt><trkpt lat="38.40511628358662" lon="16.18081820273808"><ele>894.6666666666667</ele><time>2026-04-28T07:29:59.999Z</time></trkpt><trkpt lat="38.40495217940441" lon="16.18084551038801"><ele>897.0</ele><time>2026-04-28T07:30:00.999Z</time></trkpt><trkpt lat="38.404791298038525" lon="16.180878048729305"><ele>893.3333333333333</ele><time>2026-04-28T07:30:01.999Z</time></trkpt><trkpt lat="38.40464922250777" lon="16.180909902269093"><ele>889.6666666666666</ele><time>2026-04-28T07:30:02.999Z</time></trkpt><trkpt lat="38.4045157942472" lon="16.18095874697155"><ele>886.0</ele><time>2026-04-28T07:30:03.999Z</time></trkpt><trkpt lat="38.40436114018705" lon="16.18104451534618"><ele>886.0</ele><time>2026-04-28T07:30:04.999Z</time></trkpt><trkpt lat="38.40420396047204" lon="16.18116500795835"><ele>886.0</ele><time>2026-04-28T07:30:05.999Z</time></trkpt><trkpt lat="38.404037893691594" lon="16.181288564075015"><ele>886.0</ele><time>2026-04-28T07:30:06.999Z</time></trkpt><trkpt lat="38.40386602089566" lon="16.18140868429223"><ele>883.0</ele><time>2026-04-28T07:30:07.999Z</time></trkpt><trkpt lat="38.40371034883326" lon="16.181532291420577"><ele>880.0</ele><time>2026-04-28T07:30:08.999Z</time></trkpt><trkpt lat="38.40355816546644" lon="16.181644658816293"><ele>877.0</ele><time>2026-04-28T07:30:09.999Z</time></trkpt><trkpt lat="38.4034162011151" lon="16.181765476689108"><ele>877.0</ele><time>2026-04-28T07:30:10.999Z</time></trkpt><trkpt lat="38.4032776821865" lon="16.181875149335188"><ele>877.0</ele><time>2026-04-28T07:30:11.999Z</time></trkpt><trkpt lat="38.40313915893629" lon="16.18197588016946"><ele>877.0</ele><time>2026-04-28T07:30:12.999Z</time></trkpt><trkpt lat="38.40300004978285" lon="16.182063246839686"><ele>874.3333333333333</ele><time>2026-04-28T07:30:13.999Z</time></trkpt><trkpt lat="38.40285698638338" lon="16.182128500169174"><ele>871.6666666666667</ele><time>2026-04-28T07:30:14.999Z</time></trkpt><trkpt lat="38.402717517870386" lon="16.182185770797343"><ele>869.0</ele><time>2026-04-28T07:30:15.999Z</time></trkpt><trkpt lat="38.40256688389052" lon="16.182206564941726"><ele>869.0</ele><time>2026-04-28T07:30:16.999Z</time></trkpt><trkpt lat="38.40240889287596" lon="16.18220064686821"><ele>869.0</ele><time>2026-04-28T07:30:17.999Z</time></trkpt><trkpt lat="38.40224449862048" lon="16.18217245786501"><ele>869.0</ele><time>2026-04-28T07:30:18.999Z</time></trkpt><trkpt lat="38.402072448557746" lon="16.182135780222623"><ele>866.3333333333334</ele><time>2026-04-28T07:30:19.999Z</time></trkpt><trkpt lat="38.401907626930694" lon="16.182110783894412"><ele>863.6666666666667</ele><time>2026-04-28T07:30:20.999Z</time></trkpt><trkpt lat="38.401748273416125" lon="16.182105464463145"><ele>861.0</ele><time>2026-04-28T07:30:21.999Z</time></trkpt><trkpt lat="38.40159806317878" lon="16.182063836518072"><ele>861.0</ele><time>2026-04-28T07:30:22.999Z</time></trkpt><trkpt lat="38.40145086056958" lon="16.182103871641942"><ele>861.0</ele><time>2026-04-28T07:30:23.999Z</time></trkpt><trkpt lat="38.401315530501705" lon="16.182155760013323"><ele>861.0</ele><time>2026-04-28T07:30:24.999Z</time></trkpt><trkpt lat="38.4011725069674" lon="16.182260291827106"><ele>859.0</ele><time>2026-04-28T07:30:25.999Z</time></trkpt><trkpt lat="38.40103342992923" lon="16.182405219235857"><ele>857.0</ele><time>2026-04-28T07:30:26.999Z</time></trkpt><trkpt lat="38.4009054921135" lon="16.18255485192935"><ele>855.0</ele><time>2026-04-28T07:30:27.999Z</time></trkpt><trkpt lat="38.40078456802423" lon="16.182695582888613"><ele>855.0</ele><time>2026-04-28T07:30:28.999Z</time></trkpt><trkpt lat="38.40067653975383" lon="16.182842491555334"><ele>855.0</ele><time>2026-04-28T07:30:29.999Z</time></trkpt><trkpt lat="38.400588497208574" lon="16.18304005179485"><ele>855.0</ele><time>2026-04-28T07:30:30.999Z</time></trkpt><trkpt lat="38.40052310231303" lon="16.183237894495715"><ele>851.6666666666667</ele><time>2026-04-28T07:30:31.999Z</time></trkpt><trkpt lat="38.40045313331874" lon="16.18342147887647"><ele>848.3333333333334</ele><time>2026-04-28T07:30:32.999Z</time></trkpt><trkpt lat="38.4003697233379" lon="16.183601368367583"><ele>845.0</ele><time>2026-04-28T07:30:33.999Z</time></trkpt><trkpt lat="38.400264313151524" lon="16.183769161573213"><ele>845.0</ele><time>2026-04-28T07:30:35Z</time></trkpt><trkpt lat="38.40014872013302" lon="16.18393162200566"><ele>845.0</ele><time>2026-04-28T07:30:36Z</time></trkpt><trkpt lat="38.40002018808707" lon="16.184079007270228"><ele>845.0</ele><time>2026-04-28T07:30:37Z</time></trkpt><trkpt lat="38.39988421398572" lon="16.184213438564463"><ele>841.6666666666667</ele><time>2026-04-28T07:30:38Z</time></trkpt><trkpt lat="38.39975204436672" lon="16.184337417511475"><ele>838.3333333333333</ele><time>2026-04-28T07:30:39Z</time></trkpt><trkpt lat="38.399626948445565" lon="16.184466840894913"><ele>835.0</ele><time>2026-04-28T07:30:40Z</time></trkpt><trkpt lat="38.39952426017036" lon="16.18461884366899"><ele>834.0</ele><time>2026-04-28T07:30:41Z</time></trkpt><trkpt lat="38.399453574929076" lon="16.18479777077432"><ele>833.0</ele><time>2026-04-28T07:30:42Z</time></trkpt><trkpt lat="38.3993998210526" lon="16.184980667473734"><ele>832.0</ele><time>2026-04-28T07:30:43Z</time></trkpt><trkpt lat="38.39933452934595" lon="16.185144025064115"><ele>832.0</ele><time>2026-04-28T07:30:44Z</time></trkpt><trkpt lat="38.399249504938275" lon="16.18528308791765"><ele>832.0</ele><time>2026-04-28T07:30:45Z</time></trkpt><trkpt lat="38.39914390557297" lon="16.185397395232183"><ele>832.0</ele><time>2026-04-28T07:30:46Z</time></trkpt><trkpt lat="38.399022027031705" lon="16.1854937608572"><ele>832.0</ele><time>2026-04-28T07:30:47Z</time></trkpt><trkpt lat="38.39888661096966" lon="16.185570107855344"><ele>830.3333333333333</ele><time>2026-04-28T07:30:48Z</time></trkpt><trkpt lat="38.39873033612995" lon="16.18562486757998"><ele>828.6666666666667</ele><time>2026-04-28T07:30:49Z</time></trkpt><trkpt lat="38.39853781717402" lon="16.1856787158402"><ele>827.0</ele><time>2026-04-28T07:30:50Z</time></trkpt><trkpt lat="38.39832331597464" lon="16.185725479643207"><ele>827.0</ele><time>2026-04-28T07:30:51Z</time></trkpt><trkpt lat="38.398126664084906" lon="16.185760941887896"><ele>827.0</ele><time>2026-04-28T07:30:52Z</time></trkpt><trkpt lat="38.39794716636421" lon="16.185785305751775"><ele>827.0</ele><time>2026-04-28T07:30:53Z</time></trkpt><trkpt lat="38.39777529833891" lon="16.185797449898274"><ele>825.3333333333334</ele><time>2026-04-28T07:30:54Z</time></trkpt><trkpt lat="38.39760993902903" lon="16.185809280896713"><ele>823.6666666666667</ele><time>2026-04-28T07:30:55Z</time></trkpt><trkpt lat="38.39746075246783" lon="16.18584517151058"><ele>822.0</ele><time>2026-04-28T07:30:56Z</time></trkpt><trkpt lat="38.397328294676136" lon="16.18592279949991"><ele>822.0</ele><time>2026-04-28T07:30:57Z</time></trkpt><trkpt lat="38.39720495926568" lon="16.186050913547774"><ele>822.0</ele><time>2026-04-28T07:30:58Z</time></trkpt><trkpt lat="38.39708989579304" lon="16.18622244569897"><ele>822.0</ele><time>2026-04-28T07:30:59Z</time></trkpt><trkpt lat="38.396987543799185" lon="16.186391321356474"><ele>822.6666666666667</ele><time>2026-04-28T07:31:00Z</time></trkpt><trkpt lat="38.39688466088275" lon="16.18654008483243"><ele>823.3333333333334</ele><time>2026-04-28T07:31:01Z</time></trkpt><trkpt lat="38.39677590587851" lon="16.18667809621671"><ele>824.0</ele><time>2026-04-28T07:31:02Z</time></trkpt><trkpt lat="38.39666001097497" lon="16.186810153832976"><ele>824.0</ele><time>2026-04-28T07:31:03Z</time></trkpt><trkpt lat="38.396539807263665" lon="16.186937287699877"><ele>824.0</ele><time>2026-04-28T07:31:04Z</time></trkpt><trkpt lat="38.39641979451266" lon="16.18704462814512"><ele>824.0</ele><time>2026-04-28T07:31:05Z</time></trkpt><trkpt lat="38.39630251794285" lon="16.187141173149424"><ele>824.0</ele><time>2026-04-28T07:31:06Z</time></trkpt><trkpt lat="38.396177356944534" lon="16.187237893659155"><ele>822.6666666666667</ele><time>2026-04-28T07:31:07Z</time></trkpt><trkpt lat="38.396051096407604" lon="16.18733030712507"><ele>821.3333333333333</ele><time>2026-04-28T07:31:08Z</time></trkpt><trkpt lat="38.3959099443554" lon="16.187400897358387"><ele>820.0</ele><time>2026-04-28T07:31:09Z</time></trkpt><trkpt lat="38.39576173807101" lon="16.187473184139392"><ele>820.0</ele><time>2026-04-28T07:31:10Z</time></trkpt><trkpt lat="38.39560991339282" lon="16.187549076477104"><ele>820.0</ele><time>2026-04-28T07:31:11Z</time></trkpt><trkpt lat="38.39545775987733" lon="16.187615814481312"><ele>820.0</ele><time>2026-04-28T07:31:12Z</time></trkpt><trkpt lat="38.39530412242323" lon="16.187680053268494"><ele>820.0</ele><time>2026-04-28T07:31:13Z</time></trkpt><trkpt lat="38.395153600769206" lon="16.1877468347251"><ele>820.0</ele><time>2026-04-28T07:31:14Z</time></trkpt><trkpt lat="38.39500645263728" lon="16.187813998239786"><ele>820.0</ele><time>2026-04-28T07:31:15Z</time></trkpt><trkpt lat="38.39485559908883" lon="16.187874674571262"><ele>820.0</ele><time>2026-04-28T07:31:16Z</time></trkpt><trkpt lat="38.39471019630608" lon="16.187931327630007"><ele>820.0</ele><time>2026-04-28T07:31:17Z</time></trkpt><trkpt lat="38.394559743894504" lon="16.1879945997651"><ele>820.0</ele><time>2026-04-28T07:31:18Z</time></trkpt><trkpt lat="38.39439528496473" lon="16.18804900577151"><ele>819.3333333333333</ele><time>2026-04-28T07:31:19Z</time></trkpt><trkpt lat="38.39423371384395" lon="16.188093084181315"><ele>818.6666666666667</ele><time>2026-04-28T07:31:20Z</time></trkpt><trkpt lat="38.3940826261008" lon="16.188130336791833"><ele>818.0</ele><time>2026-04-28T07:31:21Z</time></trkpt><trkpt lat="38.393934056616075" lon="16.18816741712021"><ele>817.0</ele><time>2026-04-28T07:31:22Z</time></trkpt><trkpt lat="38.39378999899662" lon="16.188202555096364"><ele>816.0</ele><time>2026-04-28T07:31:23Z</time></trkpt><trkpt lat="38.393656677761186" lon="16.188230199962042"><ele>815.0</ele><time>2026-04-28T07:31:24Z</time></trkpt><trkpt lat="38.39355406550712" lon="16.188252512420735"><ele>814.0</ele><time>2026-04-28T07:31:25Z</time></trkpt><trkpt lat="38.39348107411397" lon="16.188270878640086"><ele>813.9999999999999</ele><time>2026-04-28T07:31:26Z</time></trkpt><trkpt lat="38.39341870750821" lon="16.188291931128195"><ele>814.0</ele><time>2026-04-28T07:31:27Z</time></trkpt><trkpt lat="38.393343916696395" lon="16.18831351288656"><ele>814.0</ele><time>2026-04-28T07:31:28Z</time></trkpt><trkpt lat="38.39326478549029" lon="16.188314099675758"><ele>814.0</ele><time>2026-04-28T07:31:29Z</time></trkpt><trkpt lat="38.39320194100065" lon="16.18830049253586"><ele>813.9999999999999</ele><time>2026-04-28T07:31:30Z</time></trkpt><trkpt lat="38.393171080575755" lon="16.188207837722345"><ele>814.0</ele><time>2026-04-28T07:31:32Z</time></trkpt><trkpt lat="38.39319466875658" lon="16.18810159292014"><ele>813.4000000000001</ele><time>2026-04-28T07:31:33Z</time></trkpt><trkpt lat="38.39320675892524" lon="16.1879815756623"><ele>812.8</ele><time>2026-04-28T07:31:34Z</time></trkpt><trkpt lat="38.3931775861489" lon="16.18784800160883"><ele>812.2</ele><time>2026-04-28T07:31:34.999Z</time></trkpt><trkpt lat="38.39314262524003" lon="16.187729833252014"><ele>811.5999999999999</ele><time>2026-04-28T07:31:35.999Z</time></trkpt><trkpt lat="38.39311981046443" lon="16.18762443624943"><ele>811.0</ele><time>2026-04-28T07:31:36.999Z</time></trkpt><trkpt lat="38.39309448671966" lon="16.187549130414574"><ele>812.75</ele><time>2026-04-28T07:31:37.999Z</time></trkpt><trkpt lat="38.39298004939302" lon="16.187461913170807"><ele>814.5</ele><time>2026-04-28T07:31:39.999Z</time></trkpt><trkpt lat="38.39287830719456" lon="16.187445781847995"><ele>816.25</ele><time>2026-04-28T07:31:40.999Z</time></trkpt><trkpt lat="38.39275421387316" lon="16.18745010351639"><ele>818.0</ele><time>2026-04-28T07:31:41.999Z</time></trkpt><trkpt lat="38.392660414082826" lon="16.187407684539618"><ele>817.0</ele><time>2026-04-28T07:31:42.999Z</time></trkpt><trkpt lat="38.39259356682966" lon="16.187310215386557"><ele>816.0</ele><time>2026-04-28T07:31:43.999Z</time></trkpt><trkpt lat="38.39254429954558" lon="16.187163503397787"><ele>815.0</ele><time>2026-04-28T07:31:44.999Z</time></trkpt><trkpt lat="38.3924973350855" lon="16.18695201187953"><ele>814.0</ele><time>2026-04-28T07:31:45.999Z</time></trkpt><trkpt lat="38.39245215056342" lon="16.186682253764804"><ele>814.5</ele><time>2026-04-28T07:31:46.999Z</time></trkpt><trkpt lat="38.39239085346866" lon="16.186392806656237"><ele>815.0</ele><time>2026-04-28T07:31:47.999Z</time></trkpt><trkpt lat="38.392319363289246" lon="16.186097310568414"><ele>815.0</ele><time>2026-04-28T07:31:48.999Z</time></trkpt><trkpt lat="38.3922375146282" lon="16.185787550256588"><ele>815.0</ele><time>2026-04-28T07:31:49.999Z</time></trkpt><trkpt lat="38.39214423327165" lon="16.1855041539406"><ele>814.0</ele><time>2026-04-28T07:31:50.999Z</time></trkpt><trkpt lat="38.392061181851915" lon="16.185264525933036"><ele>813.0</ele><time>2026-04-28T07:31:51.999Z</time></trkpt><trkpt lat="38.39199947626872" lon="16.18505213510017"><ele>812.0</ele><time>2026-04-28T07:31:52.999Z</time></trkpt><trkpt lat="38.391955447382806" lon="16.184875288624664"><ele>810.5</ele><time>2026-04-28T07:31:53.999Z</time></trkpt><trkpt lat="38.391903550689214" lon="16.184716185060957"><ele>809.0</ele><time>2026-04-28T07:31:54.999Z</time></trkpt><trkpt lat="38.39182297972702" lon="16.184577549009813"><ele>807.5</ele><time>2026-04-28T07:31:55.999Z</time></trkpt><trkpt lat="38.391709894840616" lon="16.18446595099353"><ele>806.0</ele><time>2026-04-28T07:31:56.999Z</time></trkpt><trkpt lat="38.391571154994715" lon="16.18439880634381"><ele>806.0</ele><time>2026-04-28T07:31:57.999Z</time></trkpt><trkpt lat="38.39139790181629" lon="16.184376935949143"><ele>806.0</ele><time>2026-04-28T07:31:58.999Z</time></trkpt><trkpt lat="38.39119741085809" lon="16.18438131880306"><ele>806.0</ele><time>2026-04-28T07:31:59.999Z</time></trkpt><trkpt lat="38.390976272304506" lon="16.18437828941051"><ele>804.6666666666667</ele><time>2026-04-28T07:32:00.999Z</time></trkpt><trkpt lat="38.3907703865416" lon="16.184357631966183"><ele>803.3333333333333</ele><time>2026-04-28T07:32:01.999Z</time></trkpt><trkpt lat="38.3905891643345" lon="16.184337368705158"><ele>802.0</ele><time>2026-04-28T07:32:02.999Z</time></trkpt><trkpt lat="38.3904172770793" lon="16.184316623699225"><ele>801.0</ele><time>2026-04-28T07:32:03.999Z</time></trkpt><trkpt lat="38.39024923851982" lon="16.184290986264944"><ele>800.0</ele><time>2026-04-28T07:32:04.999Z</time></trkpt><trkpt lat="38.39008409548468" lon="16.184272708577303"><ele>799.0</ele><time>2026-04-28T07:32:05.999Z</time></trkpt><trkpt lat="38.38992337386271" lon="16.18424579468534"><ele>799.0</ele><time>2026-04-28T07:32:06.999Z</time></trkpt><trkpt lat="38.38975639425451" lon="16.184192870769508"><ele>799.0</ele><time>2026-04-28T07:32:07.999Z</time></trkpt><trkpt lat="38.389604215661834" lon="16.184117368677963"><ele>799.0</ele><time>2026-04-28T07:32:08.999Z</time></trkpt><trkpt lat="38.3894598865727" lon="16.18401273606208"><ele>795.6666666666666</ele><time>2026-04-28T07:32:09.999Z</time></trkpt><trkpt lat="38.38932168527112" lon="16.18387206322287"><ele>792.3333333333333</ele><time>2026-04-28T07:32:10.999Z</time></trkpt><trkpt lat="38.389194854298445" lon="16.18373370246908"><ele>789.0</ele><time>2026-04-28T07:32:11.999Z</time></trkpt><trkpt lat="38.38908184069778" lon="16.18359834447157"><ele>789.0</ele><time>2026-04-28T07:32:12.999Z</time></trkpt><trkpt lat="38.38899152958383" lon="16.18344608912813"><ele>789.0</ele><time>2026-04-28T07:32:13.999Z</time></trkpt><trkpt lat="38.38891420168344" lon="16.18328512842116"><ele>789.0</ele><time>2026-04-28T07:32:14.999Z</time></trkpt><trkpt lat="38.3888300919575" lon="16.183138740197087"><ele>789.0</ele><time>2026-04-28T07:32:15.999Z</time></trkpt><trkpt lat="38.38873972804521" lon="16.183005950758687"><ele>788.75</ele><time>2026-04-28T07:32:16.999Z</time></trkpt><trkpt lat="38.38864978670549" lon="16.182892681215872"><ele>788.5</ele><time>2026-04-28T07:32:17.999Z</time></trkpt><trkpt lat="38.38854895893649" lon="16.182803802012142"><ele>788.25</ele><time>2026-04-28T07:32:18.999Z</time></trkpt><trkpt lat="38.388432184540505" lon="16.182763697743827"><ele>788.0</ele><time>2026-04-28T07:32:19.999Z</time></trkpt><trkpt lat="38.38830599661352" lon="16.182777370886654"><ele>788.0</ele><time>2026-04-28T07:32:20.999Z</time></trkpt><trkpt lat="38.3881830532267" lon="16.182839834735805"><ele>788.0</ele><time>2026-04-28T07:32:21.999Z</time></trkpt><trkpt lat="38.38808285657422" lon="16.182958707469314"><ele>788.0</ele><time>2026-04-28T07:32:22.999Z</time></trkpt><trkpt lat="38.38800430968872" lon="16.18311858018128"><ele>788.0</ele><time>2026-04-28T07:32:23.999Z</time></trkpt><trkpt lat="38.38794613499636" lon="16.183300474597274"><ele>786.75</ele><time>2026-04-28T07:32:24.999Z</time></trkpt><trkpt lat="38.387879385686276" lon="16.183499886779984"><ele>785.5</ele><time>2026-04-28T07:32:25.999Z</time></trkpt><trkpt lat="38.38780987384702" lon="16.183670468419017"><ele>784.25</ele><time>2026-04-28T07:32:26.999Z</time></trkpt><trkpt lat="38.38773201374956" lon="16.18379848154227"><ele>783.0</ele><time>2026-04-28T07:32:27.999Z</time></trkpt><trkpt lat="38.38763319635939" lon="16.183886529304132"><ele>783.0</ele><time>2026-04-28T07:32:28.999Z</time></trkpt><trkpt lat="38.38751333724588" lon="16.183925682626636"><ele>783.0</ele><time>2026-04-28T07:32:29.999Z</time></trkpt><trkpt lat="38.38738534538171" lon="16.183909483913762"><ele>783.0</ele><time>2026-04-28T07:32:30.999Z</time></trkpt><trkpt lat="38.38726576506066" lon="16.183837818146685"><ele>783.0</ele><time>2026-04-28T07:32:31.999Z</time></trkpt><trkpt lat="38.38714324233834" lon="16.18372753781149"><ele>781.6666666666667</ele><time>2026-04-28T07:32:32.999Z</time></trkpt><trkpt lat="38.38703048557007" lon="16.183605512657795"><ele>780.3333333333334</ele><time>2026-04-28T07:32:33.999Z</time></trkpt><trkpt lat="38.38690856428431" lon="16.18345961697117"><ele>779.0</ele><time>2026-04-28T07:32:34.999Z</time></trkpt><trkpt lat="38.386775811407134" lon="16.183292707770814"><ele>778.0</ele><time>2026-04-28T07:32:35.999Z</time></trkpt><trkpt lat="38.386633873020756" lon="16.183126498275236"><ele>777.0</ele><time>2026-04-28T07:32:36.999Z</time></trkpt><trkpt lat="38.3865013937375" lon="16.182975231240228"><ele>776.0</ele><time>2026-04-28T07:32:37.999Z</time></trkpt><trkpt lat="38.386367874416315" lon="16.18282904476981"><ele>776.0</ele><time>2026-04-28T07:32:38.999Z</time></trkpt><trkpt lat="38.38623728646755" lon="16.182681919613028"><ele>776.0</ele><time>2026-04-28T07:32:40Z</time></trkpt><trkpt lat="38.38612562451983" lon="16.18254972124855"><ele>776.0</ele><time>2026-04-28T07:32:41Z</time></trkpt><trkpt lat="38.386044127897065" lon="16.18242603210573"><ele>776.0</ele><time>2026-04-28T07:32:42Z</time></trkpt><trkpt lat="38.3859788951466" lon="16.182268627527076"><ele>776.0</ele><time>2026-04-28T07:32:43Z</time></trkpt><trkpt lat="38.38592570002382" lon="16.18207952939697"><ele>776.0</ele><time>2026-04-28T07:32:44Z</time></trkpt><trkpt lat="38.3858965929167" lon="16.181880175776598"><ele>776.0</ele><time>2026-04-28T07:32:45Z</time></trkpt><trkpt lat="38.38589183682277" lon="16.181682704093753"><ele>776.0</ele><time>2026-04-28T07:32:46Z</time></trkpt><trkpt lat="38.38592319180002" lon="16.181475540934837"><ele>776.0</ele><time>2026-04-28T07:32:47Z</time></trkpt><trkpt lat="38.38597931571994" lon="16.181260301861087"><ele>777.0</ele><time>2026-04-28T07:32:48Z</time></trkpt><trkpt lat="38.38604839138869" lon="16.181035987830175"><ele>778.0</ele><time>2026-04-28T07:32:49Z</time></trkpt><trkpt lat="38.38611247319157" lon="16.180797897474495"><ele>779.0</ele><time>2026-04-28T07:32:50Z</time></trkpt><trkpt lat="38.38617084898759" lon="16.180569282790685"><ele>780.6666666666667</ele><time>2026-04-28T07:32:51Z</time></trkpt><trkpt lat="38.3862286141416" lon="16.18034721630156"><ele>782.3333333333333</ele><time>2026-04-28T07:32:52Z</time></trkpt><trkpt lat="38.386280805923185" lon="16.18013920268733"><ele>784.0</ele><time>2026-04-28T07:32:53Z</time></trkpt><trkpt lat="38.386326861183235" lon="16.17993937442882"><ele>781.6666666666666</ele><time>2026-04-28T07:32:54Z</time></trkpt><trkpt lat="38.38638396096606" lon="16.179745722963656"><ele>779.3333333333333</ele><time>2026-04-28T07:32:55Z</time></trkpt><trkpt lat="38.38644540155723" lon="16.179560023928268"><ele>777.0</ele><time>2026-04-28T07:32:56Z</time></trkpt><trkpt lat="38.38649122404354" lon="16.179359835028578"><ele>777.0</ele><time>2026-04-28T07:32:57Z</time></trkpt><trkpt lat="38.38651587381441" lon="16.179139953227146"><ele>777.0</ele><time>2026-04-28T07:32:58Z</time></trkpt><trkpt lat="38.386519642076" lon="16.17893072982369"><ele>777.0</ele><time>2026-04-28T07:32:59Z</time></trkpt><trkpt lat="38.386514188591484" lon="16.178731506016234"><ele>777.6666666666667</ele><time>2026-04-28T07:33:00Z</time></trkpt><trkpt lat="38.3865149810542" lon="16.17852956709788"><ele>778.3333333333334</ele><time>2026-04-28T07:33:01Z</time></trkpt><trkpt lat="38.38651819396749" lon="16.17830563381815"><ele>779.0</ele><time>2026-04-28T07:33:02Z</time></trkpt><trkpt lat="38.38654080765652" lon="16.178089110082265"><ele>779.25</ele><time>2026-04-28T07:33:03Z</time></trkpt><trkpt lat="38.386559433759004" lon="16.177893254898688"><ele>779.5</ele><time>2026-04-28T07:33:04Z</time></trkpt><trkpt lat="38.38655151685834" lon="16.177708471116993"><ele>779.75</ele><time>2026-04-28T07:33:05Z</time></trkpt><trkpt lat="38.386542423659826" lon="16.17752840423406"><ele>780.0</ele><time>2026-04-28T07:33:06Z</time></trkpt><trkpt lat="38.386547926961796" lon="16.17736783960368"><ele>779.75</ele><time>2026-04-28T07:33:07Z</time></trkpt><trkpt lat="38.38656157818908" lon="16.177178991505574"><ele>779.5</ele><time>2026-04-28T07:33:08Z</time></trkpt><trkpt lat="38.38657402796998" lon="16.17701372214413"><ele>779.25</ele><time>2026-04-28T07:33:09Z</time></trkpt><trkpt lat="38.38657545283416" lon="16.176848948504492"><ele>779.0</ele><time>2026-04-28T07:33:10Z</time></trkpt><trkpt lat="38.38657307987561" lon="16.176693428172786"><ele>779.0</ele><time>2026-04-28T07:33:11Z</time></trkpt><trkpt lat="38.38655417860354" lon="16.176528179951816"><ele>779.0</ele><time>2026-04-28T07:33:12Z</time></trkpt><trkpt lat="38.38650628022274" lon="16.17634801984663"><ele>779.0</ele><time>2026-04-28T07:33:13Z</time></trkpt><trkpt lat="38.38642580286247" lon="16.17617164228056"><ele>779.0</ele><time>2026-04-28T07:33:14Z</time></trkpt><trkpt lat="38.3863302954659" lon="16.175998149036335"><ele>778.0</ele><time>2026-04-28T07:33:15Z</time></trkpt><trkpt lat="38.386250318744416" lon="16.17584163869016"><ele>777.0</ele><time>2026-04-28T07:33:16Z</time></trkpt><trkpt lat="38.38617921208615" lon="16.175690987053287"><ele>776.0</ele><time>2026-04-28T07:33:17Z</time></trkpt><trkpt lat="38.386109958550115" lon="16.17554167329647"><ele>775.0</ele><time>2026-04-28T07:33:18Z</time></trkpt><trkpt lat="38.38604098003856" lon="16.175391875927247"><ele>777.6666666666666</ele><time>2026-04-28T07:33:19Z</time></trkpt><trkpt lat="38.385962712864625" lon="16.175229507663243"><ele>780.3333333333333</ele><time>2026-04-28T07:33:20Z</time></trkpt><trkpt lat="38.3858825137636" lon="16.175058218629168"><ele>783.0</ele><time>2026-04-28T07:33:21Z</time></trkpt><trkpt lat="38.385801423155506" lon="16.174884568141103"><ele>783.0</ele><time>2026-04-28T07:33:22Z</time></trkpt><trkpt lat="38.38571001890108" lon="16.174714171021986"><ele>783.0</ele><time>2026-04-28T07:33:23Z</time></trkpt><trkpt lat="38.38559993472869" lon="16.174571719659518"><ele>783.0</ele><time>2026-04-28T07:33:24Z</time></trkpt><trkpt lat="38.3854716303102" lon="16.174453496868725"><ele>783.0</ele><time>2026-04-28T07:33:25Z</time></trkpt><trkpt lat="38.385346669362065" lon="16.174338414631"><ele>783.0</ele><time>2026-04-28T07:33:26Z</time></trkpt><trkpt lat="38.3852497006514" lon="16.174239218186457"><ele>783.0</ele><time>2026-04-28T07:33:27Z</time></trkpt><trkpt lat="38.38517817483691" lon="16.17414254927657"><ele>783.0</ele><time>2026-04-28T07:33:28Z</time></trkpt><trkpt lat="38.385119482246225" lon="16.17401205666424"><ele>784.0</ele><time>2026-04-28T07:33:29Z</time></trkpt><trkpt lat="38.3850780177894" lon="16.173850917726586"><ele>785.0</ele><time>2026-04-28T07:33:30Z</time></trkpt><trkpt lat="38.385050167540946" lon="16.173684144083968"><ele>786.0</ele><time>2026-04-28T07:33:31Z</time></trkpt><trkpt lat="38.3850328931003" lon="16.17349871242884"><ele>787.0</ele><time>2026-04-28T07:33:32Z</time></trkpt><trkpt lat="38.385007239365216" lon="16.1732932960147"><ele>787.3333333333333</ele><time>2026-04-28T07:33:33Z</time></trkpt><trkpt lat="38.38497457049321" lon="16.173088575565703"><ele>787.6666666666667</ele><time>2026-04-28T07:33:34Z</time></trkpt><trkpt lat="38.38494188479053" lon="16.17288930472276"><ele>788.0</ele><time>2026-04-28T07:33:35Z</time></trkpt><trkpt lat="38.384913690073226" lon="16.172686232414094"><ele>788.0</ele><time>2026-04-28T07:33:36Z</time></trkpt><trkpt lat="38.38488678443096" lon="16.172488672599393"><ele>788.0</ele><time>2026-04-28T07:33:37Z</time></trkpt><trkpt lat="38.384865028731724" lon="16.17229494144667"><ele>788.0</ele><time>2026-04-28T07:33:38Z</time></trkpt><trkpt lat="38.384839511249275" lon="16.17209818819748"><ele>789.6666666666667</ele><time>2026-04-28T07:33:39Z</time></trkpt><trkpt lat="38.38480162789793" lon="16.171881448748653"><ele>791.3333333333333</ele><time>2026-04-28T07:33:40Z</time></trkpt><trkpt lat="38.3847689310783" lon="16.171659386830253"><ele>793.0</ele><time>2026-04-28T07:33:41Z</time></trkpt><trkpt lat="38.38473207748972" lon="16.171436673206408"><ele>793.0</ele><time>2026-04-28T07:33:42Z</time></trkpt><trkpt lat="38.38470000161338" lon="16.1712120873326"><ele>793.0</ele><time>2026-04-28T07:33:42.999Z</time></trkpt><trkpt lat="38.384663368080865" lon="16.170987072632524"><ele>793.0</ele><time>2026-04-28T07:33:43.999Z</time></trkpt><trkpt lat="38.38462735346978" lon="16.17076132165653"><ele>796.0</ele><time>2026-04-28T07:33:44.999Z</time></trkpt><trkpt lat="38.38459427615782" lon="16.17053659686106"><ele>799.0</ele><time>2026-04-28T07:33:45.999Z</time></trkpt><trkpt lat="38.38456548593896" lon="16.17032871473858"><ele>802.0</ele><time>2026-04-28T07:33:46.999Z</time></trkpt><trkpt lat="38.384534674051466" lon="16.170134034754305"><ele>802.0</ele><time>2026-04-28T07:33:47.999Z</time></trkpt><trkpt lat="38.38450728782067" lon="16.169932179354568"><ele>802.0</ele><time>2026-04-28T07:33:48.999Z</time></trkpt><trkpt lat="38.3844756699583" lon="16.169719637430305"><ele>802.0</ele><time>2026-04-28T07:33:49.999Z</time></trkpt><trkpt lat="38.38444070337779" lon="16.169498706390986"><ele>808.0</ele><time>2026-04-28T07:33:50.999Z</time></trkpt><trkpt lat="38.38441027363711" lon="16.169280448899237"><ele>814.0</ele><time>2026-04-28T07:33:51.999Z</time></trkpt><trkpt lat="38.384376883686855" lon="16.169056374710348"><ele>820.0</ele><time>2026-04-28T07:33:52.999Z</time></trkpt><trkpt lat="38.38434898876723" lon="16.168853248090432"><ele>823.5</ele><time>2026-04-28T07:33:53.999Z</time></trkpt><trkpt lat="38.38431844067456" lon="16.168662330087358"><ele>827.0</ele><time>2026-04-28T07:33:54.999Z</time></trkpt><trkpt lat="38.384302501032124" lon="16.168465727294084"><ele>830.5</ele><time>2026-04-28T07:33:55.999Z</time></trkpt><trkpt lat="38.38428438949027" lon="16.168347473091092"><ele>834.0</ele><time>2026-04-28T07:33:56.999Z</time></trkpt><trkpt lat="38.38429029447992" lon="16.168239197718822"><ele>834.2</ele><time>2026-04-28T07:33:57.999Z</time></trkpt><trkpt lat="38.384323029973054" lon="16.16814302017994"><ele>834.4000000000001</ele><time>2026-04-28T07:33:58.999Z</time></trkpt><trkpt lat="38.384369315028316" lon="16.168049335537514"><ele>834.6</ele><time>2026-04-28T07:33:59.999Z</time></trkpt><trkpt lat="38.38444255032964" lon="16.16795452846976"><ele>834.8</ele><time>2026-04-28T07:34:00.999Z</time></trkpt><trkpt lat="38.384560597854346" lon="16.167865279037915"><ele>835.0</ele><time>2026-04-28T07:34:01.999Z</time></trkpt><trkpt lat="38.38469011760235" lon="16.167740525692835"><ele>835.0</ele><time>2026-04-28T07:34:02.999Z</time></trkpt><trkpt lat="38.384806533547774" lon="16.167607757813514"><ele>835.0</ele><time>2026-04-28T07:34:03.999Z</time></trkpt><trkpt lat="38.384913051300764" lon="16.16750480314262"><ele>835.0</ele><time>2026-04-28T07:34:04.999Z</time></trkpt><trkpt lat="38.3849937574522" lon="16.167429351960916"><ele>835.0</ele><time>2026-04-28T07:34:05.999Z</time></trkpt><trkpt lat="38.38508292180828" lon="16.167331065107188"><ele>837.8</ele><time>2026-04-28T07:34:06.999Z</time></trkpt><trkpt lat="38.38514804123609" lon="16.167204982860145"><ele>840.6</ele><time>2026-04-28T07:34:07.999Z</time></trkpt><trkpt lat="38.385191303105074" lon="16.167056481002504"><ele>843.4000000000001</ele><time>2026-04-28T07:34:08.999Z</time></trkpt><trkpt lat="38.3852294423666" lon="16.166939737367453"><ele>846.2</ele><time>2026-04-28T07:34:09.999Z</time></trkpt><trkpt lat="38.385259246673314" lon="16.16683209786732"><ele>849.0</ele><time>2026-04-28T07:34:10.999Z</time></trkpt><trkpt lat="38.38522688635883" lon="16.166762429045512"><ele>849.0</ele><time>2026-04-28T07:34:11.999Z</time></trkpt><trkpt lat="38.38515757711022" lon="16.16674230306323"><ele>849.0</ele><time>2026-04-28T07:34:12.999Z</time></trkpt><trkpt lat="38.38509815807301" lon="16.16679075743172"><ele>849.0</ele><time>2026-04-28T07:34:13.999Z</time></trkpt><trkpt lat="38.38506175769698" lon="16.166875595668532"><ele>849.0</ele><time>2026-04-28T07:34:14.999Z</time></trkpt><trkpt lat="38.385034960848834" lon="16.166984498207654"><ele>849.0</ele><time>2026-04-28T07:34:15.999Z</time></trkpt><trkpt lat="38.384973319442004" lon="16.167101512151554"><ele>849.0</ele><time>2026-04-28T07:34:16.999Z</time></trkpt><trkpt lat="38.38490193243434" lon="16.167208133923012"><ele>849.0</ele><time>2026-04-28T07:34:17.999Z</time></trkpt><trkpt lat="38.38483463273555" lon="16.1672735985352"><ele>849.0</ele><time>2026-04-28T07:34:18.999Z</time></trkpt><trkpt lat="38.38476315569964" lon="16.167310341762164"><ele>849.0</ele><time>2026-04-28T07:34:19.999Z</time></trkpt><trkpt lat="38.384675231375276" lon="16.16736769978609"><ele>849.0</ele><time>2026-04-28T07:34:20.999Z</time></trkpt><trkpt lat="38.384580360016464" lon="16.16741668402874"><ele>849.0</ele><time>2026-04-28T07:34:21.999Z</time></trkpt><trkpt lat="38.38445676979536" lon="16.16746020798163"><ele>850.0</ele><time>2026-04-28T07:34:22.999Z</time></trkpt><trkpt lat="38.38426986046104" lon="16.167525024973894"><ele>851.0</ele><time>2026-04-28T07:34:23.999Z</time></trkpt><trkpt lat="38.38404681276691" lon="16.1676500602097"><ele>852.0</ele><time>2026-04-28T07:34:24.999Z</time></trkpt><trkpt lat="38.38388095165262" lon="16.167840914860466"><ele>849.0</ele><time>2026-04-28T07:34:25.999Z</time></trkpt><trkpt lat="38.38376539066801" lon="16.168024498078303"><ele>846.0</ele><time>2026-04-28T07:34:26.999Z</time></trkpt><trkpt lat="38.38365567862268" lon="16.168198354457456"><ele>843.0</ele><time>2026-04-28T07:34:27.999Z</time></trkpt><trkpt lat="38.38357476193332" lon="16.16833171862772"><ele>843.0</ele><time>2026-04-28T07:34:28.999Z</time></trkpt><trkpt lat="38.383514604919384" lon="16.168415611591293"><ele>843.0</ele><time>2026-04-28T07:34:29.999Z</time></trkpt><trkpt lat="38.38341750658896" lon="16.168485247506347"><ele>843.0</ele><time>2026-04-28T07:34:31.999Z</time></trkpt><trkpt lat="38.383334871295055" lon="16.16843008527707"><ele>843.0</ele><time>2026-04-28T07:34:33.999Z</time></trkpt><trkpt lat="38.383355093182786" lon="16.168320152866734"><ele>843.0</ele><time>2026-04-28T07:34:34.999Z</time></trkpt><trkpt lat="38.38345398759976" lon="16.168261350382124"><ele>843.0</ele><time>2026-04-28T07:34:35.999Z</time></trkpt><trkpt lat="38.38352913522201" lon="16.16820561523756"><ele>843.0</ele><time>2026-04-28T07:34:36.999Z</time></trkpt><trkpt lat="38.383594569145274" lon="16.168095615639235"><ele>843.0</ele><time>2026-04-28T07:34:37.999Z</time></trkpt><trkpt lat="38.38364200230455" lon="16.16792294887352"><ele>843.0</ele><time>2026-04-28T07:34:38.999Z</time></trkpt><trkpt lat="38.38367057442155" lon="16.167728532912346"><ele>850.5</ele><time>2026-04-28T07:34:39.999Z</time></trkpt><trkpt lat="38.38369836619596" lon="16.167546988423528"><ele>858.0</ele><time>2026-04-28T07:34:40.999Z</time></trkpt><trkpt lat="38.38374568542526" lon="16.167401209355738"><ele>865.5</ele><time>2026-04-28T07:34:41.999Z</time></trkpt><trkpt lat="38.383804446422424" lon="16.167291936578387"><ele>873.0</ele><time>2026-04-28T07:34:42.999Z</time></trkpt><trkpt lat="38.38388814892223" lon="16.167224801978296"><ele>874.75</ele><time>2026-04-28T07:34:43.999Z</time></trkpt><trkpt lat="38.38400472419857" lon="16.16717582297814"><ele>876.5</ele><time>2026-04-28T07:34:45Z</time></trkpt><trkpt lat="38.38415304760281" lon="16.167133209026414"><ele>878.25</ele><time>2026-04-28T07:34:46Z</time></trkpt><trkpt lat="38.38429288432475" lon="16.167069700550933"><ele>880.0</ele><time>2026-04-28T07:34:47Z</time></trkpt><trkpt lat="38.38439931455557" lon="16.166969892466962"><ele>880.0</ele><time>2026-04-28T07:34:48Z</time></trkpt><trkpt lat="38.38447940303921" lon="16.166812960102277"><ele>880.0</ele><time>2026-04-28T07:34:49Z</time></trkpt><trkpt lat="38.38454088404499" lon="16.166630500512497"><ele>880.0</ele><time>2026-04-28T07:34:50Z</time></trkpt><trkpt lat="38.384582529612466" lon="16.166473806806167"><ele>880.0</ele><time>2026-04-28T07:34:51Z</time></trkpt><trkpt lat="38.384600947175784" lon="16.16633254904984"><ele>879.75</ele><time>2026-04-28T07:34:52Z</time></trkpt><trkpt lat="38.38459872192192" lon="16.16617322611578"><ele>879.5</ele><time>2026-04-28T07:34:53Z</time></trkpt><trkpt lat="38.38456432417086" lon="16.16599599745557"><ele>879.25</ele><time>2026-04-28T07:34:54Z</time></trkpt><trkpt lat="38.384487242561605" lon="16.165827518190294"><ele>879.0</ele><time>2026-04-28T07:34:55Z</time></trkpt><trkpt lat="38.384405439886834" lon="16.165650903254356"><ele>879.0</ele><time>2026-04-28T07:34:56Z</time></trkpt><trkpt lat="38.38429382809252" lon="16.165483466732166"><ele>879.0</ele><time>2026-04-28T07:34:57Z</time></trkpt><trkpt lat="38.38418375307411" lon="16.16539038755212"><ele>879.0</ele><time>2026-04-28T07:34:58Z</time></trkpt><trkpt lat="38.38407472061508" lon="16.16532270552423"><ele>879.0</ele><time>2026-04-28T07:34:59Z</time></trkpt><trkpt lat="38.38400098952201" lon="16.165214968366808"><ele>879.0</ele><time>2026-04-28T07:35:00Z</time></trkpt><trkpt lat="38.3839390145987" lon="16.16511837563261"><ele>879.0000000000001</ele><time>2026-04-28T07:35:01Z</time></trkpt><trkpt lat="38.3839141401434" lon="16.165013504960992"><ele>879.0000000000001</ele><time>2026-04-28T07:35:02Z</time></trkpt><trkpt lat="38.38391691993771" lon="16.164924268288463"><ele>879.0</ele><time>2026-04-28T07:35:03Z</time></trkpt><trkpt lat="38.383949353670054" lon="16.164781322706112"><ele>879.0</ele><time>2026-04-28T07:35:05Z</time></trkpt><trkpt lat="38.38397290038143" lon="16.164640396510144"><ele>880.25</ele><time>2026-04-28T07:35:07Z</time></trkpt><trkpt lat="38.383988911887215" lon="16.164540444412875"><ele>881.5</ele><time>2026-04-28T07:35:08Z</time></trkpt><trkpt lat="38.38397374957306" lon="16.164404504208562"><ele>882.75</ele><time>2026-04-28T07:35:09Z</time></trkpt><trkpt lat="38.38396245905484" lon="16.16423990469231"><ele>884.0</ele><time>2026-04-28T07:35:10Z</time></trkpt><trkpt lat="38.38393586839293" lon="16.16400799756806"><ele>885.5</ele><time>2026-04-28T07:35:11Z</time></trkpt><trkpt lat="38.38395534301851" lon="16.163821743546006"><ele>887.0</ele><time>2026-04-28T07:35:12Z</time></trkpt><trkpt lat="38.383979810817266" lon="16.16365671633145"><ele>888.5</ele><time>2026-04-28T07:35:13Z</time></trkpt><trkpt lat="38.38398595116846" lon="16.163478488115363"><ele>890.0</ele><time>2026-04-28T07:35:14Z</time></trkpt><trkpt lat="38.38396213725205" lon="16.16330254034415"><ele>887.0</ele><time>2026-04-28T07:35:15Z</time></trkpt><trkpt lat="38.383942961561885" lon="16.16310219286766"><ele>884.0</ele><time>2026-04-28T07:35:16Z</time></trkpt><trkpt lat="38.38390405539344" lon="16.162902542695836"><ele>881.0</ele><time>2026-04-28T07:35:17Z</time></trkpt><trkpt lat="38.38385163037311" lon="16.162695744644093"><ele>887.75</ele><time>2026-04-28T07:35:18Z</time></trkpt><trkpt lat="38.38380788082604" lon="16.16252778850309"><ele>894.5</ele><time>2026-04-28T07:35:19Z</time></trkpt><trkpt lat="38.3837797338873" lon="16.162364209462464"><ele>901.25</ele><time>2026-04-28T07:35:20Z</time></trkpt><trkpt lat="38.383740493212386" lon="16.16222689786836"><ele>908.0</ele><time>2026-04-28T07:35:21Z</time></trkpt><trkpt lat="38.38367511709256" lon="16.162074232278975"><ele>908.0</ele><time>2026-04-28T07:35:22Z</time></trkpt><trkpt lat="38.38359833529234" lon="16.161905402652224"><ele>908.0</ele><time>2026-04-28T07:35:23Z</time></trkpt><trkpt lat="38.383512198028505" lon="16.161707209352578"><ele>908.0</ele><time>2026-04-28T07:35:24Z</time></trkpt><trkpt lat="38.38346347026286" lon="16.161573995838296"><ele>908.0</ele><time>2026-04-28T07:35:25Z</time></trkpt><trkpt lat="38.3834290911587" lon="16.161486587388804"><ele>905.4</ele><time>2026-04-28T07:35:26Z</time></trkpt><trkpt lat="38.38339643749844" lon="16.161386713662885"><ele>902.8</ele><time>2026-04-28T07:35:27Z</time></trkpt><trkpt lat="38.38334139027573" lon="16.16127551089261"><ele>900.2</ele><time>2026-04-28T07:35:28Z</time></trkpt><trkpt lat="38.38326054671784" lon="16.16116967922918"><ele>897.6</ele><time>2026-04-28T07:35:29Z</time></trkpt><trkpt lat="38.38319144279727" lon="16.161094311763737"><ele>895.0</ele><time>2026-04-28T07:35:30Z</time></trkpt><trkpt lat="38.38312249253759" lon="16.161053926485923"><ele>895.0</ele><time>2026-04-28T07:35:31Z</time></trkpt><trkpt lat="38.383021427385565" lon="16.161040907050563"><ele>895.0</ele><time>2026-04-28T07:35:32Z</time></trkpt><trkpt lat="38.38288481793427" lon="16.161038515809793"><ele>895.0</ele><time>2026-04-28T07:35:33Z</time></trkpt><trkpt lat="38.38273593018224" lon="16.161046041342146"><ele>895.0</ele><time>2026-04-28T07:35:34Z</time></trkpt><trkpt lat="38.38258529581067" lon="16.16105770860003"><ele>895.0</ele><time>2026-04-28T07:35:35Z</time></trkpt><trkpt lat="38.38243647526082" lon="16.16103746705714"><ele>895.0</ele><time>2026-04-28T07:35:36Z</time></trkpt><trkpt lat="38.38230766953675" lon="16.161027388397567"><ele>895.0</ele><time>2026-04-28T07:35:37Z</time></trkpt><trkpt lat="38.38218637262918" lon="16.161022705022685"><ele>895.0</ele><time>2026-04-28T07:35:38Z</time></trkpt><trkpt lat="38.382050242615875" lon="16.160990340240538"><ele>896.25</ele><time>2026-04-28T07:35:39Z</time></trkpt><trkpt lat="38.38190130902905" lon="16.16095200836421"><ele>897.5</ele><time>2026-04-28T07:35:40Z</time></trkpt><trkpt lat="38.38174832162348" lon="16.16092090533386"><ele>898.75</ele><time>2026-04-28T07:35:41Z</time></trkpt><trkpt lat="38.3816161595103" lon="16.160903927506226"><ele>900.0</ele><time>2026-04-28T07:35:42Z</time></trkpt><trkpt lat="38.38150762042326" lon="16.16087916086419"><ele>900.0</ele><time>2026-04-28T07:35:43Z</time></trkpt><trkpt lat="38.38143254912628" lon="16.160806950547293"><ele>900.0</ele><time>2026-04-28T07:35:44Z</time></trkpt><trkpt lat="38.3813783184228" lon="16.160741188805375"><ele>900.0</ele><time>2026-04-28T07:35:45Z</time></trkpt><trkpt lat="38.38132106630453" lon="16.160642648812242"><ele>900.0</ele><time>2026-04-28T07:35:46Z</time></trkpt><trkpt lat="38.38128958571437" lon="16.16053200669324"><ele>900.0</ele><time>2026-04-28T07:35:46.999Z</time></trkpt><trkpt lat="38.381268972350675" lon="16.16036220240381"><ele>902.5</ele><time>2026-04-28T07:35:47.999Z</time></trkpt><trkpt lat="38.38125731326183" lon="16.160160765839485"><ele>905.0</ele><time>2026-04-28T07:35:48.999Z</time></trkpt><trkpt lat="38.38128859084715" lon="16.16003191044611"><ele>907.5</ele><time>2026-04-28T07:35:49.999Z</time></trkpt><trkpt lat="38.381310082958414" lon="16.159917009855217"><ele>910.0</ele><time>2026-04-28T07:35:50.999Z</time></trkpt><trkpt lat="38.381328872368144" lon="16.15979246725291"><ele>905.0</ele><time>2026-04-28T07:35:51.999Z</time></trkpt><trkpt lat="38.38140110620447" lon="16.159651600045965"><ele>900.0</ele><time>2026-04-28T07:35:52.999Z</time></trkpt><trkpt lat="38.381487945921" lon="16.1595055825204"><ele>895.0</ele><time>2026-04-28T07:35:53.999Z</time></trkpt><trkpt lat="38.38154976677" lon="16.15936759194976"><ele>890.0</ele><time>2026-04-28T07:35:54.999Z</time></trkpt><trkpt lat="38.38159987733086" lon="16.15921406401919"><ele>890.0</ele><time>2026-04-28T07:35:55.999Z</time></trkpt><trkpt lat="38.38163392799338" lon="16.159062577064816"><ele>890.0</ele><time>2026-04-28T07:35:56.999Z</time></trkpt><trkpt lat="38.381628631263396" lon="16.15891222372246"><ele>890.0</ele><time>2026-04-28T07:35:57.999Z</time></trkpt><trkpt lat="38.38162178509652" lon="16.158776363608602"><ele>890.0</ele><time>2026-04-28T07:35:58.999Z</time></trkpt><trkpt lat="38.381612687828174" lon="16.158658597001434"><ele>890.0</ele><time>2026-04-28T07:35:59.999Z</time></trkpt><trkpt lat="38.381586295168525" lon="16.158540669469737"><ele>888.75</ele><time>2026-04-28T07:36:00.999Z</time></trkpt><trkpt lat="38.38152131163394" lon="16.15843455487899"><ele>887.5</ele><time>2026-04-28T07:36:01.999Z</time></trkpt><trkpt lat="38.38138142801249" lon="16.158380900998406"><ele>886.25</ele><time>2026-04-28T07:36:02.999Z</time></trkpt><trkpt lat="38.38123618023368" lon="16.158355917876932"><ele>885.0</ele><time>2026-04-28T07:36:03.999Z</time></trkpt><trkpt lat="38.3810944398507" lon="16.158359964344424"><ele>888.5</ele><time>2026-04-28T07:36:04.999Z</time></trkpt><trkpt lat="38.380958960414965" lon="16.158361875871112"><ele>892.0</ele><time>2026-04-28T07:36:05.999Z</time></trkpt><trkpt lat="38.380833450827254" lon="16.158343369280512"><ele>895.5</ele><time>2026-04-28T07:36:06.999Z</time></trkpt><trkpt lat="38.380690863457545" lon="16.158319034324023"><ele>899.0</ele><time>2026-04-28T07:36:07.999Z</time></trkpt><trkpt lat="38.380582390150145" lon="16.15829109413548"><ele>897.3333333333334</ele><time>2026-04-28T07:36:08.999Z</time></trkpt><trkpt lat="38.380503084685394" lon="16.158285647503345"><ele>895.6666666666667</ele><time>2026-04-28T07:36:09.999Z</time></trkpt><trkpt lat="38.38042816701274" lon="16.158308975483507"><ele>894.0</ele><time>2026-04-28T07:36:10.999Z</time></trkpt><trkpt lat="38.3803508564741" lon="16.15834203417585"><ele>892.3333333333333</ele><time>2026-04-28T07:36:11.999Z</time></trkpt><trkpt lat="38.38029082102589" lon="16.15839791555198"><ele>890.6666666666666</ele><time>2026-04-28T07:36:12.999Z</time></trkpt><trkpt lat="38.380252256782406" lon="16.15849480643808"><ele>889.0</ele><time>2026-04-28T07:36:13.999Z</time></trkpt><trkpt lat="38.380213804091035" lon="16.15860347556638"><ele>889.0</ele><time>2026-04-28T07:36:14.999Z</time></trkpt><trkpt lat="38.380175087582955" lon="16.158709280363016"><ele>889.0000000000001</ele><time>2026-04-28T07:36:15.999Z</time></trkpt><trkpt lat="38.380107549242545" lon="16.158811414365903"><ele>889.0000000000001</ele><time>2026-04-28T07:36:16.999Z</time></trkpt><trkpt lat="38.38003041309772" lon="16.158890260375408"><ele>889.0</ele><time>2026-04-28T07:36:17.999Z</time></trkpt><trkpt lat="38.379936190374586" lon="16.15891911523669"><ele>889.0</ele><time>2026-04-28T07:36:18.999Z</time></trkpt><trkpt lat="38.37984285122902" lon="16.1589281380595"><ele>889.0</ele><time>2026-04-28T07:36:19.999Z</time></trkpt><trkpt lat="38.3797462325171" lon="16.158943795525825"><ele>889.0</ele><time>2026-04-28T07:36:20.999Z</time></trkpt><trkpt lat="38.37963924973123" lon="16.158901836853087"><ele>889.0</ele><time>2026-04-28T07:36:21.999Z</time></trkpt><trkpt lat="38.37953587213113" lon="16.158815710265436"><ele>889.0</ele><time>2026-04-28T07:36:22.999Z</time></trkpt><trkpt lat="38.37944714942778" lon="16.158693523443727"><ele>888.6</ele><time>2026-04-28T07:36:23.999Z</time></trkpt><trkpt lat="38.37935894923118" lon="16.158582504472754"><ele>888.2</ele><time>2026-04-28T07:36:24.999Z</time></trkpt><trkpt lat="38.37929328373035" lon="16.15848478627573"><ele>887.8000000000001</ele><time>2026-04-28T07:36:25.999Z</time></trkpt><trkpt lat="38.379245933879986" lon="16.158425627594273"><ele>887.4000000000001</ele><time>2026-04-28T07:36:26.999Z</time></trkpt><trkpt lat="38.37914408260297" lon="16.158382295129194"><ele>887.0</ele><time>2026-04-28T07:36:28.999Z</time></trkpt><trkpt lat="38.37906756280664" lon="16.158407345377785"><ele>887.0</ele><time>2026-04-28T07:36:29.999Z</time></trkpt><trkpt lat="38.37897350308757" lon="16.158468797727352"><ele>887.0</ele><time>2026-04-28T07:36:30.999Z</time></trkpt><trkpt lat="38.37886652284934" lon="16.158559282800724"><ele>887.0</ele><time>2026-04-28T07:36:31.999Z</time></trkpt><trkpt lat="38.37877723549831" lon="16.158667946264405"><ele>887.0</ele><time>2026-04-28T07:36:32.999Z</time></trkpt><trkpt lat="38.37867728666348" lon="16.158745244751735"><ele>886.8</ele><time>2026-04-28T07:36:33.999Z</time></trkpt><trkpt lat="38.37856405341776" lon="16.15879617770594"><ele>886.6</ele><time>2026-04-28T07:36:34.999Z</time></trkpt><trkpt lat="38.378464908835824" lon="16.158831598233398"><ele>886.3999999999999</ele><time>2026-04-28T07:36:35.999Z</time></trkpt><trkpt lat="38.37839216178578" lon="16.158853414363413"><ele>886.1999999999999</ele><time>2026-04-28T07:36:36.999Z</time></trkpt><trkpt lat="38.378284645133824" lon="16.158874133928443"><ele>886.0</ele><time>2026-04-28T07:36:38.999Z</time></trkpt><trkpt lat="38.378209308357015" lon="16.158878580404483"><ele>886.0</ele><time>2026-04-28T07:36:39.999Z</time></trkpt><trkpt lat="38.37812598477081" lon="16.158879285581506"><ele>885.9999999999999</ele><time>2026-04-28T07:36:40.999Z</time></trkpt><trkpt lat="38.37804141308222" lon="16.15882223665312"><ele>885.9999999999999</ele><time>2026-04-28T07:36:41.999Z</time></trkpt><trkpt lat="38.377955470856044" lon="16.158740366175483"><ele>886.0</ele><time>2026-04-28T07:36:42.999Z</time></trkpt><trkpt lat="38.37787212607355" lon="16.158634841736653"><ele>886.0</ele><time>2026-04-28T07:36:43.999Z</time></trkpt><trkpt lat="38.37778327294768" lon="16.158542878558436"><ele>887.0</ele><time>2026-04-28T07:36:44.999Z</time></trkpt><trkpt lat="38.37770603131276" lon="16.158462498740665"><ele>887.9999999999999</ele><time>2026-04-28T07:36:45.999Z</time></trkpt><trkpt lat="38.3776343300368" lon="16.15839231494281"><ele>888.9999999999999</ele><time>2026-04-28T07:36:46.999Z</time></trkpt><trkpt lat="38.377550882500444" lon="16.158322332932993"><ele>890.0</ele><time>2026-04-28T07:36:47.999Z</time></trkpt><trkpt lat="38.37744413798424" lon="16.158275902324092"><ele>891.0</ele><time>2026-04-28T07:36:48.999Z</time></trkpt><trkpt lat="38.37731416929489" lon="16.158230063456543"><ele>889.5</ele><time>2026-04-28T07:36:49.999Z</time></trkpt><trkpt lat="38.37717658936517" lon="16.15820265401663"><ele>888.0</ele><time>2026-04-28T07:36:51Z</time></trkpt><trkpt lat="38.37703531769892" lon="16.158188466339507"><ele>886.5</ele><time>2026-04-28T07:36:52Z</time></trkpt><trkpt lat="38.3768950650105" lon="16.158224017531094"><ele>885.0</ele><time>2026-04-28T07:36:53Z</time></trkpt><trkpt lat="38.37677149339834" lon="16.15826208398097"><ele>885.0</ele><time>2026-04-28T07:36:54Z</time></trkpt><trkpt lat="38.3766708162699" lon="16.15828108298287"><ele>885.0</ele><time>2026-04-28T07:36:55Z</time></trkpt><trkpt lat="38.37658912304179" lon="16.158301124462117"><ele>885.0</ele><time>2026-04-28T07:36:56Z</time></trkpt><trkpt lat="38.376510712877995" lon="16.158321280091297"><ele>885.0</ele><time>2026-04-28T07:36:57Z</time></trkpt><trkpt lat="38.37643163640575" lon="16.15832108193721"><ele>885.0</ele><time>2026-04-28T07:36:58Z</time></trkpt><trkpt lat="38.376356379307836" lon="16.158294206521862"><ele>885.0</ele><time>2026-04-28T07:36:59Z</time></trkpt><trkpt lat="38.376278976630815" lon="16.15823096057384"><ele>885.0</ele><time>2026-04-28T07:37:00Z</time></trkpt><trkpt lat="38.376202196885686" lon="16.158137024184263"><ele>885.0</ele><time>2026-04-28T07:37:01Z</time></trkpt><trkpt lat="38.37614670085453" lon="16.158036535725678"><ele>885.0</ele><time>2026-04-28T07:37:02Z</time></trkpt><trkpt lat="38.37609890566474" lon="16.157945203483457"><ele>885.0</ele><time>2026-04-28T07:37:03Z</time></trkpt><trkpt lat="38.376062514417626" lon="16.157852074717418"><ele>885.0</ele><time>2026-04-28T07:37:04Z</time></trkpt><trkpt lat="38.37604059901761" lon="16.157759532907743"><ele>885.0</ele><time>2026-04-28T07:37:05Z</time></trkpt><trkpt lat="38.37603394778842" lon="16.15765970211921"><ele>885.0</ele><time>2026-04-28T07:37:06Z</time></trkpt><trkpt lat="38.37603564382346" lon="16.157550649694663"><ele>885.0</ele><time>2026-04-28T07:37:08Z</time></trkpt><trkpt lat="38.375945477160464" lon="16.15749796596825"><ele>885.0</ele><time>2026-04-28T07:37:10Z</time></trkpt><trkpt lat="38.37580787160336" lon="16.15743408415701"><ele>885.0</ele><time>2026-04-28T07:37:12Z</time></trkpt><trkpt lat="38.37572187251282" lon="16.157383903211052"><ele>885.0</ele><time>2026-04-28T07:37:13Z</time></trkpt><trkpt lat="38.37563209433847" lon="16.157353615428242"><ele>888.0</ele><time>2026-04-28T07:37:14Z</time></trkpt><trkpt lat="38.37553927543967" lon="16.15733917651571"><ele>891.0</ele><time>2026-04-28T07:37:15Z</time></trkpt><trkpt lat="38.37544821319662" lon="16.15729706356891"><ele>894.0</ele><time>2026-04-28T07:37:16Z</time></trkpt><trkpt lat="38.37536000527035" lon="16.15728019529932"><ele>897.0</ele><time>2026-04-28T07:37:17Z</time></trkpt><trkpt lat="38.37526351829738" lon="16.157305680526534"><ele>900.0</ele><time>2026-04-28T07:37:18Z</time></trkpt><trkpt lat="38.3751943022206" lon="16.15729314752912"><ele>903.0</ele><time>2026-04-28T07:37:19Z</time></trkpt><trkpt lat="38.37513826229747" lon="16.157332698895335"><ele>899.2</ele><time>2026-04-28T07:37:20Z</time></trkpt><trkpt lat="38.37507257581254" lon="16.15739323917782"><ele>895.4</ele><time>2026-04-28T07:37:21Z</time></trkpt><trkpt lat="38.37502729660395" lon="16.157499373077655"><ele>891.6000000000001</ele><time>2026-04-28T07:37:22Z</time></trkpt><trkpt lat="38.37499385011369" lon="16.15758916883458"><ele>887.8000000000001</ele><time>2026-04-28T07:37:23Z</time></trkpt><trkpt lat="38.37484149387065" lon="16.157745322390177"><ele>884.0</ele><time>2026-04-28T07:37:25Z</time></trkpt><trkpt lat="38.37474937702094" lon="16.157806325853866"><ele>881.75</ele><time>2026-04-28T07:37:26Z</time></trkpt><trkpt lat="38.374670165216614" lon="16.157814718698862"><ele>879.5</ele><time>2026-04-28T07:37:27Z</time></trkpt><trkpt lat="38.37455284155287" lon="16.157836827893256"><ele>877.25</ele><time>2026-04-28T07:37:29Z</time></trkpt><trkpt lat="38.37443513301645" lon="16.157936874424966"><ele>875.0</ele><time>2026-04-28T07:37:31Z</time></trkpt><trkpt lat="38.37451475470877" lon="16.157469419440716"><ele>877.3333333333334</ele><time>2026-04-28T07:37:34Z</time></trkpt><trkpt lat="38.374502789664476" lon="16.157367612933264"><ele>879.6666666666667</ele><time>2026-04-28T07:37:35Z</time></trkpt><trkpt lat="38.37446519349193" lon="16.157286406907087"><ele>882.0</ele><time>2026-04-28T07:37:36Z</time></trkpt><trkpt lat="38.37441902724546" lon="16.1572178810535"><ele>884.3333333333333</ele><time>2026-04-28T07:37:37Z</time></trkpt><trkpt lat="38.3743770824752" lon="16.15711684722913"><ele>886.6666666666666</ele><time>2026-04-28T07:37:38Z</time></trkpt><trkpt lat="38.374343595342374" lon="16.157006323966915"><ele>889.0</ele><time>2026-04-28T07:37:39Z</time></trkpt><trkpt lat="38.374302397589624" lon="16.156901443777095"><ele>888.9999999999999</ele><time>2026-04-28T07:37:40Z</time></trkpt><trkpt lat="38.37426855604579" lon="16.15682717677621"><ele>889.0</ele><time>2026-04-28T07:37:41Z</time></trkpt><trkpt lat="38.37419695771763" lon="16.15680404464068"><ele>889.0</ele><time>2026-04-28T07:37:43Z</time></trkpt><trkpt lat="38.37411968258138" lon="16.156839403977667"><ele>889.0</ele><time>2026-04-28T07:37:44Z</time></trkpt><trkpt lat="38.374022082969326" lon="16.156905371391442"><ele>888.9999999999999</ele><time>2026-04-28T07:37:45Z</time></trkpt><trkpt lat="38.37392576608072" lon="16.156966705495527"><ele>889.0</ele><time>2026-04-28T07:37:46Z</time></trkpt><trkpt lat="38.37384781521971" lon="16.15701663906854"><ele>884.0</ele><time>2026-04-28T07:37:47Z</time></trkpt><trkpt lat="38.3737489974175" lon="16.157050455628912"><ele>879.0000000000001</ele><time>2026-04-28T07:37:49Z</time></trkpt><trkpt lat="38.37366168930877" lon="16.15702644662047"><ele>874.0000000000001</ele><time>2026-04-28T07:37:51Z</time></trkpt><trkpt lat="38.37358572957626" lon="16.156981538028248"><ele>869.0</ele><time>2026-04-28T07:37:52Z</time></trkpt><trkpt lat="38.373461963017014" lon="16.156934267859242"><ele>864.0</ele><time>2026-04-28T07:37:53.999Z</time></trkpt><trkpt lat="38.373412969543025" lon="16.156872076214157"><ele>864.0</ele><time>2026-04-28T07:37:54.999Z</time></trkpt><trkpt lat="38.37341350261463" lon="16.156747238853452"><ele>864.0000000000001</ele><time>2026-04-28T07:37:56.999Z</time></trkpt><trkpt lat="38.37348836940842" lon="16.156647405833837"><ele>864.0000000000001</ele><time>2026-04-28T07:37:59.999Z</time></trkpt><trkpt lat="38.37357244260655" lon="16.1565644187764"><ele>864.0</ele><time>2026-04-28T07:38:00.999Z</time></trkpt><trkpt lat="38.37363556727511" lon="16.156482463885244"><ele>864.0</ele><time>2026-04-28T07:38:01.999Z</time></trkpt><trkpt lat="38.37371838797711" lon="16.156387209139908"><ele>861.8000000000001</ele><time>2026-04-28T07:38:03.999Z</time></trkpt><trkpt lat="38.373789974911205" lon="16.156257054461154"><ele>859.6000000000001</ele><time>2026-04-28T07:38:05.999Z</time></trkpt><trkpt lat="38.37382513540092" lon="16.156160247362724"><ele>857.4</ele><time>2026-04-28T07:38:06.999Z</time></trkpt><trkpt lat="38.373833691204936" lon="16.15606334012181"><ele>855.2</ele><time>2026-04-28T07:38:07.999Z</time></trkpt><trkpt lat="38.37381816050762" lon="16.15593161222704"><ele>853.0</ele><time>2026-04-28T07:38:08.999Z</time></trkpt><trkpt lat="38.3738034615059" lon="16.155827580577775"><ele>853.0</ele><time>2026-04-28T07:38:09.999Z</time></trkpt><trkpt lat="38.37382778758063" lon="16.155744887657345"><ele>853.0</ele><time>2026-04-28T07:38:10.999Z</time></trkpt><trkpt lat="38.37388732543482" lon="16.15567195820941"><ele>853.0</ele><time>2026-04-28T07:38:11.999Z</time></trkpt><trkpt lat="38.37394405430239" lon="16.155571126198794"><ele>853.0</ele><time>2026-04-28T07:38:12.999Z</time></trkpt><trkpt lat="38.37400796601367" lon="16.155445361194097"><ele>853.0</ele><time>2026-04-28T07:38:13.999Z</time></trkpt><trkpt lat="38.374054255966165" lon="16.155307955890446"><ele>860.4</ele><time>2026-04-28T07:38:14.999Z</time></trkpt><trkpt lat="38.37407443089634" lon="16.15519321520396"><ele>867.8</ele><time>2026-04-28T07:38:15.999Z</time></trkpt><trkpt lat="38.374073932585276" lon="16.1550988452276"><ele>875.2</ele><time>2026-04-28T07:38:16.999Z</time></trkpt><trkpt lat="38.37404832292667" lon="16.154966689831827"><ele>882.6</ele><time>2026-04-28T07:38:17.999Z</time></trkpt><trkpt lat="38.37404112365748" lon="16.154845828986566"><ele>890.0</ele><time>2026-04-28T07:38:18.999Z</time></trkpt><trkpt lat="38.37407105007076" lon="16.154724974829712"><ele>890.6</ele><time>2026-04-28T07:38:19.999Z</time></trkpt><trkpt lat="38.37410547358677" lon="16.154582445486234"><ele>891.2</ele><time>2026-04-28T07:38:20.999Z</time></trkpt><trkpt lat="38.37412664235581" lon="16.154455429947053"><ele>891.8</ele><time>2026-04-28T07:38:21.999Z</time></trkpt><trkpt lat="38.37414866100302" lon="16.15436299958146"><ele>892.4</ele><time>2026-04-28T07:38:22.999Z</time></trkpt><trkpt lat="38.37417495016871" lon="16.154269340342033"><ele>893.0</ele><time>2026-04-28T07:38:23.999Z</time></trkpt><trkpt lat="38.37417207501924" lon="16.154153588556525"><ele>893.0000000000001</ele><time>2026-04-28T07:38:24.999Z</time></trkpt><trkpt lat="38.37414606896658" lon="16.154058819358774"><ele>893.0</ele><time>2026-04-28T07:38:25.999Z</time></trkpt><trkpt lat="38.37411149732866" lon="16.15398091606172"><ele>893.0</ele><time>2026-04-28T07:38:26.999Z</time></trkpt><trkpt lat="38.37406312204545" lon="16.15391315112695"><ele>893.0</ele><time>2026-04-28T07:38:27.999Z</time></trkpt><trkpt lat="38.37401780363231" lon="16.15383850254062"><ele>893.0000000000001</ele><time>2026-04-28T07:38:28.999Z</time></trkpt><trkpt lat="38.37399447084916" lon="16.153735350184483"><ele>893.0</ele><time>2026-04-28T07:38:29.999Z</time></trkpt><trkpt lat="38.37400425608983" lon="16.153623281281476"><ele>894.0000000000001</ele><time>2026-04-28T07:38:30.999Z</time></trkpt><trkpt lat="38.37398740492344" lon="16.153541139199156"><ele>895.0</ele><time>2026-04-28T07:38:31.999Z</time></trkpt><trkpt lat="38.3739087705316" lon="16.153435610001562"><ele>896.0</ele><time>2026-04-28T07:38:33.999Z</time></trkpt><trkpt lat="38.37384513477001" lon="16.153386381357915"><ele>897.0</ele><time>2026-04-28T07:38:34.999Z</time></trkpt><trkpt lat="38.373767996233724" lon="16.15332530484541"><ele>898.0000000000001</ele><time>2026-04-28T07:38:35.999Z</time></trkpt><trkpt lat="38.37369620684642" lon="16.153286244123652"><ele>899.0</ele><time>2026-04-28T07:38:36.999Z</time></trkpt><trkpt lat="38.37363795134008" lon="16.15322524237929"><ele>899.1666666666667</ele><time>2026-04-28T07:38:37.999Z</time></trkpt><trkpt lat="38.37358290538646" lon="16.15317649461926"><ele>899.3333333333334</ele><time>2026-04-28T07:38:38.999Z</time></trkpt><trkpt lat="38.37352601125086" lon="16.15313294309565"><ele>899.5</ele><time>2026-04-28T07:38:39.999Z</time></trkpt><trkpt lat="38.37340953810335" lon="16.153108272156782"><ele>899.6666666666667</ele><time>2026-04-28T07:38:41.999Z</time></trkpt><trkpt lat="38.373342937263395" lon="16.153077520243883"><ele>899.8333333333334</ele><time>2026-04-28T07:38:42.999Z</time></trkpt><trkpt lat="38.373262429050236" lon="16.15304534082233"><ele>900.0</ele><time>2026-04-28T07:38:43.999Z</time></trkpt><trkpt lat="38.37318921980032" lon="16.15299045047115"><ele>900.0</ele><time>2026-04-28T07:38:44.999Z</time></trkpt><trkpt lat="38.37313007463646" lon="16.152932988284242"><ele>900.0</ele><time>2026-04-28T07:38:45.999Z</time></trkpt><trkpt lat="38.37307488513464" lon="16.152871650786054"><ele>900.0</ele><time>2026-04-28T07:38:46.999Z</time></trkpt><trkpt lat="38.37302418570251" lon="16.152819425961972"><ele>900.0</ele><time>2026-04-28T07:38:47.999Z</time></trkpt><trkpt lat="38.372909589513135" lon="16.15279356129555"><ele>900.0</ele><time>2026-04-28T07:38:49.999Z</time></trkpt><trkpt lat="38.37281322505454" lon="16.152748488401347"><ele>900.0</ele><time>2026-04-28T07:38:51.999Z</time></trkpt><trkpt lat="38.37271971392661" lon="16.152703738322003"><ele>896.0</ele><time>2026-04-28T07:38:53.999Z</time></trkpt><trkpt lat="38.37262008310352" lon="16.152706962475346"><ele>892.0</ele><time>2026-04-28T07:38:54.999Z</time></trkpt><trkpt lat="38.37253372686282" lon="16.152702911606426"><ele>888.0</ele><time>2026-04-28T07:38:56Z</time></trkpt><trkpt lat="38.37245678027126" lon="16.15267165254414"><ele>884.0</ele><time>2026-04-28T07:38:57Z</time></trkpt><trkpt lat="38.372402543636085" lon="16.152625855176904"><ele>880.0</ele><time>2026-04-28T07:38:58Z</time></trkpt><trkpt lat="38.372354878235726" lon="16.152572718922418"><ele>876.0</ele><time>2026-04-28T07:38:59Z</time></trkpt><trkpt lat="38.372316182778654" lon="16.152508998069347"><ele>876.0</ele><time>2026-04-28T07:39:00Z</time></trkpt><trkpt lat="38.37229297086907" lon="16.15241990717704"><ele>876.0</ele><time>2026-04-28T07:39:02Z</time></trkpt><trkpt lat="38.37231309943433" lon="16.152337579411828"><ele>876.0</ele><time>2026-04-28T07:39:04Z</time></trkpt><trkpt lat="38.37237627252069" lon="16.152201996699695"><ele>876.0</ele><time>2026-04-28T07:39:06Z</time></trkpt><trkpt lat="38.37241430463079" lon="16.152095752858518"><ele>876.0</ele><time>2026-04-28T07:39:07Z</time></trkpt><trkpt lat="38.37243507121416" lon="16.15200226167198"><ele>876.0</ele><time>2026-04-28T07:39:08Z</time></trkpt><trkpt lat="38.37242889637304" lon="16.15185358243665"><ele>878.1666666666666</ele><time>2026-04-28T07:39:10Z</time></trkpt><trkpt lat="38.372419052313916" lon="16.151766848217985"><ele>880.3333333333333</ele><time>2026-04-28T07:39:11Z</time></trkpt><trkpt lat="38.37239571290326" lon="16.151664048017256"><ele>882.5</ele><time>2026-04-28T07:39:12Z</time></trkpt><trkpt lat="38.37236681802176" lon="16.15155543434296"><ele>884.6666666666666</ele><time>2026-04-28T07:39:13Z</time></trkpt><trkpt lat="38.37235789656125" lon="16.1514622485403"><ele>886.8333333333333</ele><time>2026-04-28T07:39:14Z</time></trkpt><trkpt lat="38.372350087154565" lon="16.15135319707717"><ele>889.0</ele><time>2026-04-28T07:39:15Z</time></trkpt><trkpt lat="38.372332935337674" lon="16.15125901773108"><ele>889.2</ele><time>2026-04-28T07:39:16Z</time></trkpt><trkpt lat="38.37226098927825" lon="16.151140144965183"><ele>889.4000000000001</ele><time>2026-04-28T07:39:18Z</time></trkpt><trkpt lat="38.37219009670111" lon="16.151090632650043"><ele>889.6</ele><time>2026-04-28T07:39:19Z</time></trkpt><trkpt lat="38.37211388766338" lon="16.15106194415986"><ele>889.8</ele><time>2026-04-28T07:39:20Z</time></trkpt><trkpt lat="38.37200976819353" lon="16.15105215196474"><ele>890.0</ele><time>2026-04-28T07:39:21Z</time></trkpt><trkpt lat="38.371924480499324" lon="16.151047234190678"><ele>888.8</ele><time>2026-04-28T07:39:22Z</time></trkpt><trkpt lat="38.37181891940685" lon="16.151078915879303"><ele>887.6</ele><time>2026-04-28T07:39:24Z</time></trkpt><trkpt lat="38.37172766345046" lon="16.151177502988855"><ele>886.4000000000001</ele><time>2026-04-28T07:39:26Z</time></trkpt><trkpt lat="38.371678670785684" lon="16.151291076391978"><ele>885.2</ele><time>2026-04-28T07:39:28Z</time></trkpt><trkpt lat="38.37167152185797" lon="16.15139253671861"><ele>884.0</ele><time>2026-04-28T07:39:30Z</time></trkpt><trkpt lat="38.371658683966906" lon="16.15148521803243"><ele>884.0000000000001</ele><time>2026-04-28T07:39:32Z</time></trkpt><trkpt lat="38.371578509229714" lon="16.151535325236196"><ele>884.0</ele><time>2026-04-28T07:39:35Z</time></trkpt><trkpt lat="38.37149282659423" lon="16.151546671586566"><ele>884.0</ele><time>2026-04-28T07:39:38Z</time></trkpt><trkpt lat="38.371445565796044" lon="16.151438724813143"><ele>884.0</ele><time>2026-04-28T07:39:41Z</time></trkpt><trkpt lat="38.371432387319174" lon="16.15135977064576"><ele>884.0000000000001</ele><time>2026-04-28T07:39:42Z</time></trkpt><trkpt lat="38.37142947861254" lon="16.151277606160267"><ele>884.0</ele><time>2026-04-28T07:39:44Z</time></trkpt><trkpt lat="38.37144057750984" lon="16.1511931111237"><ele>884.0000000000001</ele><time>2026-04-28T07:39:55Z</time></trkpt><trkpt lat="38.371411311353505" lon="16.151096667125287"><ele>884.0</ele><time>2026-04-28T07:39:58Z</time></trkpt><trkpt lat="38.37140215812805" lon="16.151004535159377"><ele>884.0</ele><time>2026-04-28T07:39:59.999Z</time></trkpt><trkpt lat="38.37140098688191" lon="16.150897862964325"><ele>884.0</ele><time>2026-04-28T07:40:02.999Z</time></trkpt><trkpt lat="38.37139273646528" lon="16.15081127390954"><ele>884.0000000000001</ele><time>2026-04-28T07:40:04.999Z</time></trkpt><trkpt lat="38.37133595559502" lon="16.15064951981039"><ele>884.0</ele><time>2026-04-28T07:40:08.999Z</time></trkpt><trkpt lat="38.371272557651835" lon="16.150608074275794"><ele>886.8333333333334</ele><time>2026-04-28T07:40:09.999Z</time></trkpt><trkpt lat="38.37119561938049" lon="16.15059383448227"><ele>889.6666666666667</ele><time>2026-04-28T07:40:11.999Z</time></trkpt><trkpt lat="38.371107183469455" lon="16.150592506413204"><ele>892.5</ele><time>2026-04-28T07:40:14.999Z</time></trkpt><trkpt lat="38.37102791073332" lon="16.150618440220274"><ele>895.3333333333333</ele><time>2026-04-28T07:40:16.999Z</time></trkpt><trkpt lat="38.37094542154149" lon="16.150645426246495"><ele>898.1666666666666</ele><time>2026-04-28T07:40:18.999Z</time></trkpt><trkpt lat="38.37083447158726" lon="16.15066852282624"><ele>901.0</ele><time>2026-04-28T07:40:20.999Z</time></trkpt><trkpt lat="38.37073498052329" lon="16.15069041604839"><ele>897.9999999999999</ele><time>2026-04-28T07:40:22.999Z</time></trkpt><trkpt lat="38.37066080849967" lon="16.150712166559885"><ele>895.0</ele><time>2026-04-28T07:40:25.999Z</time></trkpt><trkpt lat="38.37059331662947" lon="16.150733120396623"><ele>892.0</ele><time>2026-04-28T07:40:26.999Z</time></trkpt><trkpt lat="38.37048993701222" lon="16.1508143152692"><ele>889.0</ele><time>2026-04-28T07:40:28.999Z</time></trkpt><trkpt lat="38.370438625097215" lon="16.150886869606683"><ele>885.9999999999999</ele><time>2026-04-28T07:40:30.999Z</time></trkpt><trkpt lat="38.37035132959751" lon="16.150961522894118"><ele>883.0</ele><time>2026-04-28T07:40:32.999Z</time></trkpt><trkpt lat="38.37029447749362" lon="16.151002986909674"><ele>883.0</ele><time>2026-04-28T07:40:33.999Z</time></trkpt><trkpt lat="38.37021565670844" lon="16.15104727990074"><ele>883.0</ele><time>2026-04-28T07:40:34.999Z</time></trkpt><trkpt lat="38.37015056973998" lon="16.151087454518155"><ele>883.0</ele><time>2026-04-28T07:40:35.999Z</time></trkpt><trkpt lat="38.37005383228193" lon="16.15112675412495"><ele>883.0</ele><time>2026-04-28T07:40:37.999Z</time></trkpt><trkpt lat="38.3699898109209" lon="16.151148127525715"><ele>883.0</ele><time>2026-04-28T07:40:39.999Z</time></trkpt><trkpt lat="38.3698488633983" lon="16.151172068529743"><ele>882.9999999999999</ele><time>2026-04-28T07:40:41.999Z</time></trkpt><trkpt lat="38.36977344081422" lon="16.151174980235577"><ele>883.0</ele><time>2026-04-28T07:40:43.999Z</time></trkpt><trkpt lat="38.36968634567812" lon="16.15118466414552"><ele>883.0</ele><time>2026-04-28T07:40:56.999Z</time></trkpt><trkpt lat="38.36962368383602" lon="16.15116327961336"><ele>883.0</ele><time>2026-04-28T07:40:59.999Z</time></trkpt><trkpt lat="38.369550750252564" lon="16.151093627834623"><ele>882.9999999999999</ele><time>2026-04-28T07:41:02Z</time></trkpt><trkpt lat="38.36948630105564" lon="16.15102845146274"><ele>883.0</ele><time>2026-04-28T07:41:03Z</time></trkpt><trkpt lat="38.36941163986561" lon="16.150981246517514"><ele>883.3333333333333</ele><time>2026-04-28T07:41:05Z</time></trkpt><trkpt lat="38.36935771193185" lon="16.150889786676522"><ele>883.6666666666666</ele><time>2026-04-28T07:41:07Z</time></trkpt><trkpt lat="38.36933705060767" lon="16.150808138745063"><ele>884.0</ele><time>2026-04-28T07:41:11Z</time></trkpt><trkpt lat="38.36929074092907" lon="16.150735861504472"><ele>884.3333333333333</ele><time>2026-04-28T07:41:14Z</time></trkpt><trkpt lat="38.369228310006314" lon="16.150661347612143"><ele>884.6666666666666</ele><time>2026-04-28T07:41:17Z</time></trkpt><trkpt lat="38.369148312579675" lon="16.15059253289217"><ele>885.0</ele><time>2026-04-28T07:41:19Z</time></trkpt><trkpt lat="38.36907664535263" lon="16.150496252115428"><ele>885.0</ele><time>2026-04-28T07:41:21Z</time></trkpt><trkpt lat="38.369023991002535" lon="16.15042693858452"><ele>885.0</ele><time>2026-04-28T07:41:23Z</time></trkpt><trkpt lat="38.36895966092278" lon="16.150382450951803"><ele>885.0</ele><time>2026-04-28T07:41:25Z</time></trkpt><trkpt lat="38.368879564238355" lon="16.15031373571673"><ele>885.0</ele><time>2026-04-28T07:41:27Z</time></trkpt><trkpt lat="38.36881825256206" lon="16.15026121056393"><ele>885.0</ele><time>2026-04-28T07:41:28Z</time></trkpt><trkpt lat="38.36875178924104" lon="16.150225701166303"><ele>885.0</ele><time>2026-04-28T07:41:29Z</time></trkpt><trkpt lat="38.36868708967415" lon="16.150196346353784"><ele>884.8333333333334</ele><time>2026-04-28T07:41:30Z</time></trkpt><trkpt lat="38.3686177394387" lon="16.15017280575327"><ele>884.6666666666667</ele><time>2026-04-28T07:41:31Z</time></trkpt><trkpt lat="38.36853519259814" lon="16.15016339661438"><ele>884.5</ele><time>2026-04-28T07:41:32Z</time></trkpt><trkpt lat="38.36845656617148" lon="16.150161809217533"><ele>884.3333333333334</ele><time>2026-04-28T07:41:33Z</time></trkpt><trkpt lat="38.368382483939904" lon="16.150146756625027"><ele>884.1666666666667</ele><time>2026-04-28T07:41:34Z</time></trkpt><trkpt lat="38.3683006726879" lon="16.150139237782824"><ele>884.0</ele><time>2026-04-28T07:41:35Z</time></trkpt><trkpt lat="38.368184452611416" lon="16.150131502507033"><ele>882.6666666666667</ele><time>2026-04-28T07:41:36Z</time></trkpt><trkpt lat="38.36802441332994" lon="16.150114927471144"><ele>881.3333333333333</ele><time>2026-04-28T07:41:37Z</time></trkpt><trkpt lat="38.367851730114694" lon="16.150099820962314"><ele>880.0</ele><time>2026-04-28T07:41:38Z</time></trkpt><trkpt lat="38.36769231167747" lon="16.150088009861214"><ele>880.0</ele><time>2026-04-28T07:41:39Z</time></trkpt><trkpt lat="38.36752431884028" lon="16.150057485565704"><ele>880.0</ele><time>2026-04-28T07:41:40Z</time></trkpt><trkpt lat="38.36738262644866" lon="16.149996118267946"><ele>880.0</ele><time>2026-04-28T07:41:41Z</time></trkpt><trkpt lat="38.36722120445285" lon="16.149901469024464"><ele>880.6666666666666</ele><time>2026-04-28T07:41:42Z</time></trkpt><trkpt lat="38.36705256276967" lon="16.14978536712061"><ele>881.3333333333333</ele><time>2026-04-28T07:41:43Z</time></trkpt><trkpt lat="38.36690340027071" lon="16.149658473408905"><ele>882.0</ele><time>2026-04-28T07:41:44Z</time></trkpt><trkpt lat="38.36677450390857" lon="16.14955521872592"><ele>882.0</ele><time>2026-04-28T07:41:45Z</time></trkpt><trkpt lat="38.366663017211" lon="16.149469232209864"><ele>882.0</ele><time>2026-04-28T07:41:46Z</time></trkpt><trkpt lat="38.36658030985525" lon="16.149383548100165"><ele>882.0</ele><time>2026-04-28T07:41:47Z</time></trkpt><trkpt lat="38.366521293473404" lon="16.149281324609678"><ele>882.0</ele><time>2026-04-28T07:41:48Z</time></trkpt><trkpt lat="38.36649515570099" lon="16.149181578190802"><ele>882.0</ele><time>2026-04-28T07:41:49Z</time></trkpt><trkpt lat="38.36650399391045" lon="16.149063626676792"><ele>883.0</ele><time>2026-04-28T07:41:50Z</time></trkpt><trkpt lat="38.36656676718577" lon="16.148951740253022"><ele>884.0</ele><time>2026-04-28T07:41:51Z</time></trkpt><trkpt lat="38.366687311095816" lon="16.148844647533586"><ele>885.0</ele><time>2026-04-28T07:41:52Z</time></trkpt><trkpt lat="38.36680026651938" lon="16.14874555866617"><ele>886.0</ele><time>2026-04-28T07:41:53Z</time></trkpt><trkpt lat="38.36687466766946" lon="16.148625074102938"><ele>886.0</ele><time>2026-04-28T07:41:54Z</time></trkpt><trkpt lat="38.36693028832551" lon="16.148557918570447"><ele>886.0</ele><time>2026-04-28T07:41:55Z</time></trkpt><trkpt lat="38.366975532021584" lon="16.14849445010925"><ele>886.0</ele><time>2026-04-28T07:41:56Z</time></trkpt><trkpt lat="38.36702268127835" lon="16.148432315227087"><ele>886.0</ele><time>2026-04-28T07:41:57Z</time></trkpt><trkpt lat="38.36686021396951" lon="16.148199838537554"><ele>883.25</ele><time>2026-04-28T07:41:58Z</time></trkpt><trkpt lat="38.366884240985726" lon="16.148022120965603"><ele>880.5</ele><time>2026-04-28T07:41:59Z</time></trkpt><trkpt lat="38.36690236023875" lon="16.147852050293345"><ele>877.75</ele><time>2026-04-28T07:42:00Z</time></trkpt><trkpt lat="38.36693030303559" lon="16.147681040283906"><ele>875.0</ele><time>2026-04-28T07:42:01Z</time></trkpt><trkpt lat="38.36684574755744" lon="16.147528578310197"><ele>875.0</ele><time>2026-04-28T07:42:02Z</time></trkpt><trkpt lat="38.36675070022175" lon="16.147413595201396"><ele>875.0</ele><time>2026-04-28T07:42:03Z</time></trkpt><trkpt lat="38.36662691914644" lon="16.147305508141724"><ele>875.0</ele><time>2026-04-28T07:42:04Z</time></trkpt><trkpt lat="38.36654601155807" lon="16.1472495108191"><ele>875.0</ele><time>2026-04-28T07:42:04.999Z</time></trkpt><trkpt lat="38.366446872025655" lon="16.14722615590022"><ele>876.2</ele><time>2026-04-28T07:42:05.999Z</time></trkpt><trkpt lat="38.36635097753984" lon="16.147201272091294"><ele>877.4</ele><time>2026-04-28T07:42:06.999Z</time></trkpt><trkpt lat="38.36625544902489" lon="16.147181626295964"><ele>878.5999999999999</ele><time>2026-04-28T07:42:07.999Z</time></trkpt><trkpt lat="38.36614654737715" lon="16.147164832560215"><ele>879.8</ele><time>2026-04-28T07:42:08.999Z</time></trkpt><trkpt lat="38.3660255845643" lon="16.14714776266456"><ele>881.0</ele><time>2026-04-28T07:42:09.999Z</time></trkpt><trkpt lat="38.36588046821244" lon="16.147140154500036"><ele>881.0</ele><time>2026-04-28T07:42:10.999Z</time></trkpt><trkpt lat="38.3657396764758" lon="16.147123461721957"><ele>881.0</ele><time>2026-04-28T07:42:11.999Z</time></trkpt><trkpt lat="38.36559000409104" lon="16.147105264011397"><ele>881.0</ele><time>2026-04-28T07:42:12.999Z</time></trkpt><trkpt lat="38.36544333267781" lon="16.14708669437737"><ele>881.0</ele><time>2026-04-28T07:42:13.999Z</time></trkpt><trkpt lat="38.365287267531706" lon="16.147069872137795"><ele>883.0</ele><time>2026-04-28T07:42:14.999Z</time></trkpt><trkpt lat="38.365140166385096" lon="16.147054413249275"><ele>885.0</ele><time>2026-04-28T07:42:15.999Z</time></trkpt><trkpt lat="38.3649983464014" lon="16.147042917443958"><ele>887.0</ele><time>2026-04-28T07:42:16.999Z</time></trkpt><trkpt lat="38.36484518253088" lon="16.147030006445547"><ele>889.0</ele><time>2026-04-28T07:42:17.999Z</time></trkpt><trkpt lat="38.36469764206969" lon="16.147035218738566"><ele>887.25</ele><time>2026-04-28T07:42:18.999Z</time></trkpt><trkpt lat="38.36462494407388" lon="16.14713007581682"><ele>885.5</ele><time>2026-04-28T07:42:19.999Z</time></trkpt><trkpt lat="38.36449020309512" lon="16.147150640852228"><ele>883.75</ele><time>2026-04-28T07:42:20.999Z</time></trkpt><trkpt lat="38.36434445623988" lon="16.147175107051844"><ele>882.0</ele><time>2026-04-28T07:42:21.999Z</time></trkpt><trkpt lat="38.36419785313389" lon="16.147194985872467"><ele>882.0</ele><time>2026-04-28T07:42:22.999Z</time></trkpt><trkpt lat="38.36404244308365" lon="16.147223951486687"><ele>882.0</ele><time>2026-04-28T07:42:23.999Z</time></trkpt><trkpt lat="38.36387042415965" lon="16.14725022094798"><ele>882.0</ele><time>2026-04-28T07:42:24.999Z</time></trkpt><trkpt lat="38.363701898256934" lon="16.14728636417528"><ele>884.6666666666667</ele><time>2026-04-28T07:42:25.999Z</time></trkpt><trkpt lat="38.36352803626564" lon="16.147322448551765"><ele>887.3333333333334</ele><time>2026-04-28T07:42:26.999Z</time></trkpt><trkpt lat="38.36336122278644" lon="16.147347210475967"><ele>890.0</ele><time>2026-04-28T07:42:27.999Z</time></trkpt><trkpt lat="38.36319843575991" lon="16.1473852325666"><ele>892.0</ele><time>2026-04-28T07:42:28.999Z</time></trkpt><trkpt lat="38.363047957971446" lon="16.147454987033875"><ele>894.0</ele><time>2026-04-28T07:42:29.999Z</time></trkpt><trkpt lat="38.36289482176857" lon="16.147559029443087"><ele>896.0</ele><time>2026-04-28T07:42:30.999Z</time></trkpt><trkpt lat="38.362754241253455" lon="16.14770640225637"><ele>899.6666666666667</ele><time>2026-04-28T07:42:31.999Z</time></trkpt><trkpt lat="38.36261596707416" lon="16.14785865132144"><ele>903.3333333333333</ele><time>2026-04-28T07:42:32.999Z</time></trkpt><trkpt lat="38.36248742114852" lon="16.14801383757324"><ele>907.0</ele><time>2026-04-28T07:42:33.999Z</time></trkpt><trkpt lat="38.36237794208854" lon="16.14817827499098"><ele>907.6666666666666</ele><time>2026-04-28T07:42:34.999Z</time></trkpt><trkpt lat="38.36227805370837" lon="16.148336952563756"><ele>908.3333333333333</ele><time>2026-04-28T07:42:35.999Z</time></trkpt><trkpt lat="38.36220006867785" lon="16.14849805950303"><ele>909.0</ele><time>2026-04-28T07:42:36.999Z</time></trkpt><trkpt lat="38.36212369914816" lon="16.148667852556933"><ele>910.75</ele><time>2026-04-28T07:42:37.999Z</time></trkpt><trkpt lat="38.36204301060706" lon="16.148827727190522"><ele>912.5</ele><time>2026-04-28T07:42:38.999Z</time></trkpt><trkpt lat="38.36197377912914" lon="16.148984180906908"><ele>914.25</ele><time>2026-04-28T07:42:39.999Z</time></trkpt><trkpt lat="38.36189651463183" lon="16.149111410865114"><ele>916.0</ele><time>2026-04-28T07:42:40.999Z</time></trkpt><trkpt lat="38.36180162712438" lon="16.149217745100046"><ele>916.0</ele><time>2026-04-28T07:42:41.999Z</time></trkpt><trkpt lat="38.36171641513629" lon="16.14933984827798"><ele>916.0</ele><time>2026-04-28T07:42:42.999Z</time></trkpt><trkpt lat="38.361617462909145" lon="16.149478842399414"><ele>916.0</ele><time>2026-04-28T07:42:43.999Z</time></trkpt><trkpt lat="38.361527964251245" lon="16.149595662092207"><ele>916.0</ele><time>2026-04-28T07:42:44.999Z</time></trkpt><trkpt lat="38.36144231344392" lon="16.14971554902506"><ele>916.0</ele><time>2026-04-28T07:42:45.999Z</time></trkpt><trkpt lat="38.361377491509245" lon="16.14985816452859"><ele>916.0</ele><time>2026-04-28T07:42:46.999Z</time></trkpt><trkpt lat="38.361329595487064" lon="16.150003203195343"><ele>916.0</ele><time>2026-04-28T07:42:47.999Z</time></trkpt><trkpt lat="38.36130145069276" lon="16.150146559573653"><ele>916.0</ele><time>2026-04-28T07:42:48.999Z</time></trkpt><trkpt lat="38.36128726011746" lon="16.15031414521788"><ele>917.0</ele><time>2026-04-28T07:42:49.999Z</time></trkpt><trkpt lat="38.36127164630564" lon="16.150471555915004"><ele>918.0</ele><time>2026-04-28T07:42:50.999Z</time></trkpt><trkpt lat="38.36125204411806" lon="16.150613357704366"><ele>919.0</ele><time>2026-04-28T07:42:51.999Z</time></trkpt><trkpt lat="38.36123307857871" lon="16.15076353646775"><ele>920.0</ele><time>2026-04-28T07:42:52.999Z</time></trkpt><trkpt lat="38.36122363898088" lon="16.15090183212942"><ele>920.0</ele><time>2026-04-28T07:42:53.999Z</time></trkpt><trkpt lat="38.361218573810106" lon="16.151040640187183"><ele>920.0</ele><time>2026-04-28T07:42:54.999Z</time></trkpt><trkpt lat="38.361222391041395" lon="16.151175612760113"><ele>920.0</ele><time>2026-04-28T07:42:55.999Z</time></trkpt><trkpt lat="38.36123118847509" lon="16.15129843277901"><ele>920.0</ele><time>2026-04-28T07:42:56.999Z</time></trkpt><trkpt lat="38.361247151161564" lon="16.151479531567347"><ele>919.6</ele><time>2026-04-28T07:42:58.999Z</time></trkpt><trkpt lat="38.36128319811783" lon="16.151611873157673"><ele>919.2</ele><time>2026-04-28T07:42:59.999Z</time></trkpt><trkpt lat="38.36131215463601" lon="16.151752360623277"><ele>918.8</ele><time>2026-04-28T07:43:00.999Z</time></trkpt><trkpt lat="38.361349831983595" lon="16.15187455847075"><ele>918.4</ele><time>2026-04-28T07:43:01.999Z</time></trkpt><trkpt lat="38.361375642166855" lon="16.151994316787746"><ele>918.0</ele><time>2026-04-28T07:43:02.999Z</time></trkpt><trkpt lat="38.36139872210484" lon="16.15209876093026"><ele>918.0</ele><time>2026-04-28T07:43:03.999Z</time></trkpt><trkpt lat="38.36139968571826" lon="16.15221109318583"><ele>918.0</ele><time>2026-04-28T07:43:05.999Z</time></trkpt><trkpt lat="38.361364691949014" lon="16.152321058114723"><ele>918.0</ele><time>2026-04-28T07:43:08Z</time></trkpt><trkpt lat="38.36137330756825" lon="16.152408960996713"><ele>918.0</ele><time>2026-04-28T07:43:09Z</time></trkpt><trkpt lat="38.361386761987305" lon="16.152508132957248"><ele>918.0</ele><time>2026-04-28T07:43:10Z</time></trkpt><trkpt lat="38.36139401160588" lon="16.152616007049808"><ele>918.0</ele><time>2026-04-28T07:43:11Z</time></trkpt><trkpt lat="38.36140607446574" lon="16.1527358949955"><ele>914.3333333333334</ele><time>2026-04-28T07:43:12Z</time></trkpt><trkpt lat="38.3614222426333" lon="16.152857864770297"><ele>910.6666666666667</ele><time>2026-04-28T07:43:13Z</time></trkpt><trkpt lat="38.36144043064628" lon="16.152973898723957"><ele>907.0</ele><time>2026-04-28T07:43:14Z</time></trkpt><trkpt lat="38.36146094844478" lon="16.153073613845635"><ele>903.3333333333334</ele><time>2026-04-28T07:43:15Z</time></trkpt><trkpt lat="38.361490973136114" lon="16.153162985534568"><ele>899.6666666666667</ele><time>2026-04-28T07:43:16Z</time></trkpt><trkpt lat="38.361535511267256" lon="16.153237900866927"><ele>896.0</ele><time>2026-04-28T07:43:17Z</time></trkpt><trkpt lat="38.36157954717816" lon="16.153310208587648"><ele>896.0</ele><time>2026-04-28T07:43:18Z</time></trkpt><trkpt lat="38.36164446339826" lon="16.153400572067085"><ele>895.9999999999999</ele><time>2026-04-28T07:43:19Z</time></trkpt><trkpt lat="38.36168170892151" lon="16.153514008368983"><ele>895.9999999999999</ele><time>2026-04-28T07:43:20Z</time></trkpt><trkpt lat="38.36174407553833" lon="16.153638732693672"><ele>896.0</ele><time>2026-04-28T07:43:21Z</time></trkpt><trkpt lat="38.36180863037511" lon="16.15377440871546"><ele>896.0</ele><time>2026-04-28T07:43:22Z</time></trkpt><trkpt lat="38.36185479564184" lon="16.153906383236674"><ele>897.5</ele><time>2026-04-28T07:43:23Z</time></trkpt><trkpt lat="38.36189585507001" lon="16.154039413139024"><ele>899.0</ele><time>2026-04-28T07:43:24Z</time></trkpt><trkpt lat="38.36193741919648" lon="16.15417401016439"><ele>900.5</ele><time>2026-04-28T07:43:25Z</time></trkpt><trkpt lat="38.361977435755506" lon="16.15432537638662"><ele>902.0</ele><time>2026-04-28T07:43:26Z</time></trkpt><trkpt lat="38.36198472458082" lon="16.154478823758833"><ele>902.0</ele><time>2026-04-28T07:43:27Z</time></trkpt><trkpt lat="38.361990027977" lon="16.154628298965502"><ele>902.0</ele><time>2026-04-28T07:43:28Z</time></trkpt><trkpt lat="38.36200638233209" lon="16.15477336289007"><ele>902.0</ele><time>2026-04-28T07:43:29Z</time></trkpt><trkpt lat="38.36203483969463" lon="16.154932668760484"><ele>902.0</ele><time>2026-04-28T07:43:30Z</time></trkpt><trkpt lat="38.36205342738705" lon="16.15511697596529"><ele>903.5</ele><time>2026-04-28T07:43:31Z</time></trkpt><trkpt lat="38.36207390572456" lon="16.15528823063034"><ele>905.0</ele><time>2026-04-28T07:43:32Z</time></trkpt><trkpt lat="38.36208940242854" lon="16.155452993611576"><ele>906.5</ele><time>2026-04-28T07:43:33Z</time></trkpt><trkpt lat="38.36210119104732" lon="16.155625658963974"><ele>908.0</ele><time>2026-04-28T07:43:34Z</time></trkpt><trkpt lat="38.36211390615227" lon="16.155797510749952"><ele>908.25</ele><time>2026-04-28T07:43:35Z</time></trkpt><trkpt lat="38.362131266611456" lon="16.15596045615047"><ele>908.5</ele><time>2026-04-28T07:43:36Z</time></trkpt><trkpt lat="38.3621620106835" lon="16.15610039052421"><ele>908.75</ele><time>2026-04-28T07:43:37Z</time></trkpt><trkpt lat="38.36218190159876" lon="16.156231991937364"><ele>909.0</ele><time>2026-04-28T07:43:38Z</time></trkpt><trkpt lat="38.36219255216667" lon="16.156362263205377"><ele>896.25</ele><time>2026-04-28T07:43:39Z</time></trkpt><trkpt lat="38.362199927296594" lon="16.15651759762464"><ele>883.5</ele><time>2026-04-28T07:43:40Z</time></trkpt><trkpt lat="38.36220555538629" lon="16.156678975934458"><ele>870.75</ele><time>2026-04-28T07:43:41Z</time></trkpt><trkpt lat="38.362227020960496" lon="16.156824096800207"><ele>858.0</ele><time>2026-04-28T07:43:42Z</time></trkpt><trkpt lat="38.362261471673236" lon="16.15696421315794"><ele>858.0</ele><time>2026-04-28T07:43:43Z</time></trkpt><trkpt lat="38.3622888543537" lon="16.157107905223366"><ele>858.0</ele><time>2026-04-28T07:43:44Z</time></trkpt><trkpt lat="38.36231094325748" lon="16.157236937693277"><ele>858.0</ele><time>2026-04-28T07:43:45Z</time></trkpt><trkpt lat="38.3623243488476" lon="16.157327636280083"><ele>858.0</ele><time>2026-04-28T07:43:46Z</time></trkpt><trkpt lat="38.36233805354635" lon="16.15747345305128"><ele>858.0</ele><time>2026-04-28T07:43:48Z</time></trkpt><trkpt lat="38.36227864405255" lon="16.157592455485275"><ele>859.1428571428571</ele><time>2026-04-28T07:43:50Z</time></trkpt><trkpt lat="38.36224371844228" lon="16.157669419790874"><ele>860.2857142857143</ele><time>2026-04-28T07:43:51Z</time></trkpt><trkpt lat="38.362229829952156" lon="16.157752756586852"><ele>861.4285714285713</ele><time>2026-04-28T07:43:52Z</time></trkpt><trkpt lat="38.36222788913495" lon="16.157834811424753"><ele>862.5714285714286</ele><time>2026-04-28T07:43:53Z</time></trkpt><trkpt lat="38.36222289466206" lon="16.15792155431064"><ele>863.7142857142857</ele><time>2026-04-28T07:43:54Z</time></trkpt><trkpt lat="38.36218994393396" lon="16.15799088167042"><ele>864.8571428571428</ele><time>2026-04-28T07:43:55Z</time></trkpt><trkpt lat="38.36213275608545" lon="16.158044533695243"><ele>866.0</ele><time>2026-04-28T07:43:56Z</time></trkpt><trkpt lat="38.36207000759772" lon="16.15807810296227"><ele>872.4</ele><time>2026-04-28T07:43:57Z</time></trkpt><trkpt lat="38.3619855505183" lon="16.15808656390406"><ele>878.8</ele><time>2026-04-28T07:43:58Z</time></trkpt><trkpt lat="38.36189394660765" lon="16.158074331665745"><ele>885.1999999999999</ele><time>2026-04-28T07:43:59Z</time></trkpt><trkpt lat="38.36179284093903" lon="16.15806087124488"><ele>891.5999999999999</ele><time>2026-04-28T07:44:00Z</time></trkpt><trkpt lat="38.36169117215575" lon="16.158037593463526"><ele>898.0</ele><time>2026-04-28T07:44:01Z</time></trkpt><trkpt lat="38.36158700687363" lon="16.158035381206112"><ele>897.9999999999999</ele><time>2026-04-28T07:44:02Z</time></trkpt><trkpt lat="38.36149610562951" lon="16.158030331844955"><ele>898.0</ele><time>2026-04-28T07:44:03Z</time></trkpt><trkpt lat="38.36141795155728" lon="16.158035283619828"><ele>898.0</ele><time>2026-04-28T07:44:04Z</time></trkpt><trkpt lat="38.361354991033174" lon="16.158043758784164"><ele>898.0</ele><time>2026-04-28T07:44:05Z</time></trkpt><trkpt lat="38.36124700061838" lon="16.15802801209444"><ele>897.9999999999999</ele><time>2026-04-28T07:44:07Z</time></trkpt><trkpt lat="38.3611820134687" lon="16.157941324870166"><ele>898.0</ele><time>2026-04-28T07:44:09Z</time></trkpt><trkpt lat="38.3611526370659" lon="16.157857205863802"><ele>899.0</ele><time>2026-04-28T07:44:09.999Z</time></trkpt><trkpt lat="38.361112490472486" lon="16.15773322574179"><ele>900.0</ele><time>2026-04-28T07:44:10.999Z</time></trkpt><trkpt lat="38.36106001322478" lon="16.157602577027742"><ele>901.0</ele><time>2026-04-28T07:44:11.999Z</time></trkpt><trkpt lat="38.36101640213789" lon="16.157502607191734"><ele>902.0</ele><time>2026-04-28T07:44:12.999Z</time></trkpt><trkpt lat="38.360964255938846" lon="16.15739007489552"><ele>903.0</ele><time>2026-04-28T07:44:13.999Z</time></trkpt><trkpt lat="38.36091017678068" lon="16.157281022932672"><ele>903.8</ele><time>2026-04-28T07:44:14.999Z</time></trkpt><trkpt lat="38.36087094696043" lon="16.157161197690755"><ele>904.5999999999999</ele><time>2026-04-28T07:44:15.999Z</time></trkpt><trkpt lat="38.36084052880112" lon="16.15702374526198"><ele>905.4000000000001</ele><time>2026-04-28T07:44:16.999Z</time></trkpt><trkpt lat="38.360804787134235" lon="16.156898995820104"><ele>906.2</ele><time>2026-04-28T07:44:17.999Z</time></trkpt><trkpt lat="38.36077019452718" lon="16.156781970271627"><ele>907.0</ele><time>2026-04-28T07:44:18.999Z</time></trkpt><trkpt lat="38.36073947099876" lon="16.156693783128414"><ele>907.0</ele><time>2026-04-28T07:44:19.999Z</time></trkpt><trkpt lat="38.360704707190756" lon="16.156570552498557"><ele>907.0</ele><time>2026-04-28T07:44:20.999Z</time></trkpt><trkpt lat="38.36065375857305" lon="16.156437549409816"><ele>907.0</ele><time>2026-04-28T07:44:21.999Z</time></trkpt><trkpt lat="38.360614715652545" lon="16.156315152000737"><ele>907.0</ele><time>2026-04-28T07:44:22.999Z</time></trkpt><trkpt lat="38.36057825672245" lon="16.15620385631944"><ele>907.0</ele><time>2026-04-28T07:44:23.999Z</time></trkpt><trkpt lat="38.36054417442785" lon="16.156097769785234"><ele>906.2</ele><time>2026-04-28T07:44:24.999Z</time></trkpt><trkpt lat="38.36049604950092" lon="16.15598237523816"><ele>905.4000000000001</ele><time>2026-04-28T07:44:25.999Z</time></trkpt><trkpt lat="38.36044067032013" lon="16.155882671688026"><ele>904.5999999999999</ele><time>2026-04-28T07:44:26.999Z</time></trkpt><trkpt lat="38.36038215699933" lon="16.155780809986933"><ele>903.8</ele><time>2026-04-28T07:44:27.999Z</time></trkpt><trkpt lat="38.360331669067584" lon="16.155691794036507"><ele>903.0</ele><time>2026-04-28T07:44:28.999Z</time></trkpt><trkpt lat="38.360302418303185" lon="16.15558522959055"><ele>903.0</ele><time>2026-04-28T07:44:29.999Z</time></trkpt><trkpt lat="38.360295612845505" lon="16.15546878938133"><ele>903.0</ele><time>2026-04-28T07:44:30.999Z</time></trkpt><trkpt lat="38.360308060822376" lon="16.15533689217964"><ele>903.0</ele><time>2026-04-28T07:44:31.999Z</time></trkpt><trkpt lat="38.360329903546216" lon="16.15520415409675"><ele>903.0</ele><time>2026-04-28T07:44:32.999Z</time></trkpt><trkpt lat="38.36034639123259" lon="16.155070367612876"><ele>903.0</ele><time>2026-04-28T07:44:33.999Z</time></trkpt><trkpt lat="38.3603773372966" lon="16.154956978797"><ele>904.75</ele><time>2026-04-28T07:44:34.999Z</time></trkpt><trkpt lat="38.36040762663814" lon="16.154837918371665"><ele>906.5</ele><time>2026-04-28T07:44:35.999Z</time></trkpt><trkpt lat="38.36045458420568" lon="16.154694435303487"><ele>908.25</ele><time>2026-04-28T07:44:36.999Z</time></trkpt><trkpt lat="38.36048975236485" lon="16.15454518159167"><ele>910.0</ele><time>2026-04-28T07:44:37.999Z</time></trkpt><trkpt lat="38.360530785141854" lon="16.154407332175083"><ele>910.8333333333333</ele><time>2026-04-28T07:44:38.999Z</time></trkpt><trkpt lat="38.36055669792961" lon="16.154294015878136"><ele>911.6666666666666</ele><time>2026-04-28T07:44:39.999Z</time></trkpt><trkpt lat="38.360568414730835" lon="16.15418692999492"><ele>912.5</ele><time>2026-04-28T07:44:40.999Z</time></trkpt><trkpt lat="38.36057344486692" lon="16.154078856028608"><ele>913.3333333333333</ele><time>2026-04-28T07:44:41.999Z</time></trkpt><trkpt lat="38.36057061559553" lon="16.15397444203851"><ele>914.1666666666666</ele><time>2026-04-28T07:44:42.999Z</time></trkpt><trkpt lat="38.36055093176637" lon="16.15386675452368"><ele>915.0</ele><time>2026-04-28T07:44:43.999Z</time></trkpt><trkpt lat="38.360504433520646" lon="16.15378524384008"><ele>917.4</ele><time>2026-04-28T07:44:44.999Z</time></trkpt><trkpt lat="38.36045903804305" lon="16.15368409741628"><ele>919.8</ele><time>2026-04-28T07:44:45.999Z</time></trkpt><trkpt lat="38.36040725627342" lon="16.15357804599895"><ele>922.2</ele><time>2026-04-28T07:44:46.999Z</time></trkpt><trkpt lat="38.36036971311421" lon="16.153455831592794"><ele>924.6</ele><time>2026-04-28T07:44:47.999Z</time></trkpt><trkpt lat="38.36035706783936" lon="16.153339021300464"><ele>927.0</ele><time>2026-04-28T07:44:48.999Z</time></trkpt><trkpt lat="38.3603456303903" lon="16.153222282275056"><ele>929.25</ele><time>2026-04-28T07:44:49.999Z</time></trkpt><trkpt lat="38.36028649284943" lon="16.153111391524597"><ele>931.5</ele><time>2026-04-28T07:44:51.999Z</time></trkpt><trkpt lat="38.36013645887426" lon="16.153123226721398"><ele>933.75</ele><time>2026-04-28T07:44:53.999Z</time></trkpt><trkpt lat="38.3600501325196" lon="16.153152659213063"><ele>936.0</ele><time>2026-04-28T07:44:54.999Z</time></trkpt><trkpt lat="38.35994647224858" lon="16.153197089349366"><ele>936.0</ele><time>2026-04-28T07:44:55.999Z</time></trkpt><trkpt lat="38.35985395668921" lon="16.153213614463112"><ele>935.9999999999999</ele><time>2026-04-28T07:44:56.999Z</time></trkpt><trkpt lat="38.3597840531944" lon="16.153209793790502"><ele>935.9999999999999</ele><time>2026-04-28T07:44:57.999Z</time></trkpt><trkpt lat="38.35969446436516" lon="16.153127575970025"><ele>936.0</ele><time>2026-04-28T07:44:59.999Z</time></trkpt><trkpt lat="38.35966593320986" lon="16.15298113656371"><ele>936.0</ele><time>2026-04-28T07:45:01.999Z</time></trkpt><trkpt lat="38.359712799422454" lon="16.152884571622018"><ele>936.0</ele><time>2026-04-28T07:45:03.999Z</time></trkpt><trkpt lat="38.35973731396407" lon="16.152765222089542"><ele>936.0</ele><time>2026-04-28T07:45:05.999Z</time></trkpt><trkpt lat="38.359748412298" lon="16.15266529733197"><ele>936.0</ele><time>2026-04-28T07:45:06.999Z</time></trkpt><trkpt lat="38.35976415638564" lon="16.152560784368927"><ele>936.0</ele><time>2026-04-28T07:45:07.999Z</time></trkpt><trkpt lat="38.3597621106441" lon="16.15242034109073"><ele>936.0</ele><time>2026-04-28T07:45:09.999Z</time></trkpt><trkpt lat="38.359763661463994" lon="16.152339747331176"><ele>936.0</ele><time>2026-04-28T07:45:10.999Z</time></trkpt><trkpt lat="38.35976734405139" lon="16.15223031875721"><ele>936.4</ele><time>2026-04-28T07:45:11.999Z</time></trkpt><trkpt lat="38.35978011036773" lon="16.15213722798029"><ele>936.8</ele><time>2026-04-28T07:45:12.999Z</time></trkpt><trkpt lat="38.3598053540342" lon="16.152014971248523"><ele>937.1999999999999</ele><time>2026-04-28T07:45:14Z</time></trkpt><trkpt lat="38.35983675087813" lon="16.151862759840206"><ele>937.5999999999999</ele><time>2026-04-28T07:45:15Z</time></trkpt><trkpt lat="38.35986228739828" lon="16.15174425408957"><ele>938.0</ele><time>2026-04-28T07:45:16Z</time></trkpt><trkpt lat="38.35986447209513" lon="16.15166016997442"><ele>938.0</ele><time>2026-04-28T07:45:17Z</time></trkpt><trkpt lat="38.35987635146456" lon="16.151577702777804"><ele>938.0</ele><time>2026-04-28T07:45:18Z</time></trkpt><trkpt lat="38.359886754815186" lon="16.151177148544797"><ele>938.0</ele><time>2026-04-28T07:45:19Z</time></trkpt><trkpt lat="38.35985721397212" lon="16.151106013535255"><ele>938.0</ele><time>2026-04-28T07:45:21Z</time></trkpt><trkpt lat="38.35973236002007" lon="16.151044042358528"><ele>937.4</ele><time>2026-04-28T07:45:23Z</time></trkpt><trkpt lat="38.359644030141276" lon="16.150985854940096"><ele>936.8</ele><time>2026-04-28T07:45:24Z</time></trkpt><trkpt lat="38.359568305050665" lon="16.15091871354533"><ele>936.2</ele><time>2026-04-28T07:45:25Z</time></trkpt><trkpt lat="38.35949970077645" lon="16.150854819544815"><ele>935.6</ele><time>2026-04-28T07:45:26Z</time></trkpt><trkpt lat="38.35942933694988" lon="16.150777640049508"><ele>935.0</ele><time>2026-04-28T07:45:27Z</time></trkpt><trkpt lat="38.35934982739251" lon="16.15069211958675"><ele>934.4</ele><time>2026-04-28T07:45:28Z</time></trkpt><trkpt lat="38.35926569358764" lon="16.15061406603369"><ele>933.8</ele><time>2026-04-28T07:45:29Z</time></trkpt><trkpt lat="38.35914705157099" lon="16.150534132043006"><ele>933.2</ele><time>2026-04-28T07:45:30Z</time></trkpt><trkpt lat="38.35905604043095" lon="16.150458962649623"><ele>932.6</ele><time>2026-04-28T07:45:31Z</time></trkpt><trkpt lat="38.35897185407722" lon="16.15040030070641"><ele>932.0</ele><time>2026-04-28T07:45:32Z</time></trkpt><trkpt lat="38.35887309819247" lon="16.150345237781945"><ele>932.25</ele><time>2026-04-28T07:45:33Z</time></trkpt><trkpt lat="38.35877194836458" lon="16.15027606753119"><ele>932.5</ele><time>2026-04-28T07:45:34Z</time></trkpt><trkpt lat="38.35865038438401" lon="16.15015928952879"><ele>932.75</ele><time>2026-04-28T07:45:35Z</time></trkpt><trkpt lat="38.35854245349579" lon="16.150065291204758"><ele>933.0</ele><time>2026-04-28T07:45:36Z</time></trkpt><trkpt lat="38.358454318066116" lon="16.149969700748734"><ele>933.0</ele><time>2026-04-28T07:45:37Z</time></trkpt><trkpt lat="38.35838233494737" lon="16.149890742385516"><ele>933.0</ele><time>2026-04-28T07:45:38Z</time></trkpt><trkpt lat="38.358260275336846" lon="16.14985251394307"><ele>933.0</ele><time>2026-04-28T07:45:40Z</time></trkpt><trkpt lat="38.35819013408836" lon="16.14985813844757"><ele>933.0</ele><time>2026-04-28T07:45:41Z</time></trkpt><trkpt lat="38.35811755974804" lon="16.14985159789091"><ele>933.0</ele><time>2026-04-28T07:45:42Z</time></trkpt><trkpt lat="38.35802427758109" lon="16.14983511535846"><ele>934.0</ele><time>2026-04-28T07:45:43Z</time></trkpt><trkpt lat="38.35792195856218" lon="16.14982522936646"><ele>935.0</ele><time>2026-04-28T07:45:44Z</time></trkpt><trkpt lat="38.35782554020205" lon="16.14982484538523"><ele>936.0</ele><time>2026-04-28T07:45:45Z</time></trkpt><trkpt lat="38.35772941590607" lon="16.149809243222617"><ele>937.0</ele><time>2026-04-28T07:45:46Z</time></trkpt><trkpt lat="38.35764037000654" lon="16.149806274760568"><ele>938.0</ele><time>2026-04-28T07:45:47Z</time></trkpt><trkpt lat="38.35752009062495" lon="16.149839577429336"><ele>937.0</ele><time>2026-04-28T07:45:49Z</time></trkpt><trkpt lat="38.35744489785642" lon="16.14989987137468"><ele>936.0</ele><time>2026-04-28T07:45:50Z</time></trkpt><trkpt lat="38.35736610762012" lon="16.14996524793698"><ele>935.0</ele><time>2026-04-28T07:45:51Z</time></trkpt><trkpt lat="38.35728908811493" lon="16.150015067733683"><ele>934.0</ele><time>2026-04-28T07:45:52Z</time></trkpt><trkpt lat="38.35720161439455" lon="16.150062939493907"><ele>933.0</ele><time>2026-04-28T07:45:53Z</time></trkpt><trkpt lat="38.35711154831526" lon="16.150103702642014"><ele>933.0</ele><time>2026-04-28T07:45:54Z</time></trkpt><trkpt lat="38.35702075234596" lon="16.15013425815927"><ele>933.0</ele><time>2026-04-28T07:45:55Z</time></trkpt><trkpt lat="38.35692367100423" lon="16.150167879554324"><ele>933.0</ele><time>2026-04-28T07:45:56Z</time></trkpt><trkpt lat="38.356832204206974" lon="16.15021230146162"><ele>933.0</ele><time>2026-04-28T07:45:57Z</time></trkpt><trkpt lat="38.35674955038325" lon="16.15026737018581"><ele>933.0</ele><time>2026-04-28T07:45:58Z</time></trkpt><trkpt lat="38.35664376109237" lon="16.150339514167836"><ele>933.0</ele><time>2026-04-28T07:45:59Z</time></trkpt><trkpt lat="38.35655509385741" lon="16.150448086643113"><ele>933.0</ele><time>2026-04-28T07:46:00Z</time></trkpt><trkpt lat="38.35648570376139" lon="16.15054407288937"><ele>933.0</ele><time>2026-04-28T07:46:01Z</time></trkpt><trkpt lat="38.35641948292647" lon="16.150632132094042"><ele>933.0</ele><time>2026-04-28T07:46:02Z</time></trkpt><trkpt lat="38.35635646041598" lon="16.150736933034285"><ele>933.0</ele><time>2026-04-28T07:46:03Z</time></trkpt><trkpt lat="38.35631001927384" lon="16.150836321923045"><ele>931.5999999999999</ele><time>2026-04-28T07:46:04Z</time></trkpt><trkpt lat="38.35626428759486" lon="16.15092116108063"><ele>930.1999999999999</ele><time>2026-04-28T07:46:05Z</time></trkpt><trkpt lat="38.356212197014074" lon="16.151020047191867"><ele>928.8</ele><time>2026-04-28T07:46:06Z</time></trkpt><trkpt lat="38.35616177456424" lon="16.15112782038856"><ele>927.4</ele><time>2026-04-28T07:46:07Z</time></trkpt><trkpt lat="38.356104694647065" lon="16.15124048042743"><ele>926.0</ele><time>2026-04-28T07:46:08Z</time></trkpt><trkpt lat="38.35603094227977" lon="16.151357831440407"><ele>926.0000000000001</ele><time>2026-04-28T07:46:09Z</time></trkpt><trkpt lat="38.3559598706418" lon="16.151451803432103"><ele>926.0</ele><time>2026-04-28T07:46:10Z</time></trkpt><trkpt lat="38.35590407792726" lon="16.1515434217547"><ele>926.0</ele><time>2026-04-28T07:46:11Z</time></trkpt><trkpt lat="38.355860922586054" lon="16.151636131048605"><ele>926.0</ele><time>2026-04-28T07:46:12Z</time></trkpt><trkpt lat="38.35580212845798" lon="16.15171504991995"><ele>926.0000000000001</ele><time>2026-04-28T07:46:13Z</time></trkpt><trkpt lat="38.35573253860053" lon="16.15177214194192"><ele>926.0</ele><time>2026-04-28T07:46:14Z</time></trkpt><trkpt lat="38.355658428662984" lon="16.15181445243845"><ele>926.0000000000001</ele><time>2026-04-28T07:46:15Z</time></trkpt><trkpt lat="38.355577058025226" lon="16.15182835182739"><ele>926.0</ele><time>2026-04-28T07:46:16Z</time></trkpt><trkpt lat="38.355488612908054" lon="16.15182793988891"><ele>926.0</ele><time>2026-04-28T07:46:17Z</time></trkpt><trkpt lat="38.35540616337764" lon="16.151823822638644"><ele>926.0</ele><time>2026-04-28T07:46:17.999Z</time></trkpt><trkpt lat="38.35532514818343" lon="16.151815639065262"><ele>926.0000000000001</ele><time>2026-04-28T07:46:18.999Z</time></trkpt><trkpt lat="38.35525120059564" lon="16.151802527157322"><ele>926.0</ele><time>2026-04-28T07:46:19.999Z</time></trkpt><trkpt lat="38.35517759523977" lon="16.151774827510355"><ele>926.1666666666667</ele><time>2026-04-28T07:46:20.999Z</time></trkpt><trkpt lat="38.35512145432705" lon="16.1517344207622"><ele>926.3333333333334</ele><time>2026-04-28T07:46:21.999Z</time></trkpt><trkpt lat="38.35506743486841" lon="16.151681577481572"><ele>926.5</ele><time>2026-04-28T07:46:22.999Z</time></trkpt><trkpt lat="38.355010373630414" lon="16.15162378736324"><ele>926.6666666666667</ele><time>2026-04-28T07:46:23.999Z</time></trkpt><trkpt lat="38.35495661708395" lon="16.151560964670747"><ele>926.8333333333334</ele><time>2026-04-28T07:46:24.999Z</time></trkpt><trkpt lat="38.354921417044174" lon="16.151491998040832"><ele>927.0</ele><time>2026-04-28T07:46:25.999Z</time></trkpt><trkpt lat="38.3548842788965" lon="16.151331235773736"><ele>927.0</ele><time>2026-04-28T07:46:27.999Z</time></trkpt><trkpt lat="38.35484861310306" lon="16.151196009944957"><ele>927.0</ele><time>2026-04-28T07:46:29.999Z</time></trkpt><trkpt lat="38.354766082175985" lon="16.15117041214669"><ele>927.0</ele><time>2026-04-28T07:46:31.999Z</time></trkpt><trkpt lat="38.35471288165726" lon="16.15128216248204"><ele>927.0</ele><time>2026-04-28T07:46:33.999Z</time></trkpt><trkpt lat="38.35472701454477" lon="16.151379577873215"><ele>927.0</ele><time>2026-04-28T07:46:34.999Z</time></trkpt><trkpt lat="38.3547559087396" lon="16.151473773817315"><ele>925.8333333333334</ele><time>2026-04-28T07:46:35.999Z</time></trkpt><trkpt lat="38.354772032784915" lon="16.151558251990647"><ele>924.6666666666667</ele><time>2026-04-28T07:46:36.999Z</time></trkpt><trkpt lat="38.354767275677425" lon="16.151639604690534"><ele>923.5</ele><time>2026-04-28T07:46:37.999Z</time></trkpt><trkpt lat="38.35475329236899" lon="16.15172587265017"><ele>922.3333333333334</ele><time>2026-04-28T07:46:38.999Z</time></trkpt><trkpt lat="38.35473347168936" lon="16.151810984786238"><ele>921.1666666666667</ele><time>2026-04-28T07:46:39.999Z</time></trkpt><trkpt lat="38.35471950667867" lon="16.151959339078417"><ele>920.0</ele><time>2026-04-28T07:46:41.999Z</time></trkpt><trkpt lat="38.3547154185953" lon="16.15209117507418"><ele>920.0000000000001</ele><time>2026-04-28T07:46:43.999Z</time></trkpt><trkpt lat="38.35474229245499" lon="16.152240723301567"><ele>920.0</ele><time>2026-04-28T07:46:45.999Z</time></trkpt><trkpt lat="38.354789607433666" lon="16.152328377500016"><ele>920.0</ele><time>2026-04-28T07:46:46.999Z</time></trkpt><trkpt lat="38.35481948728552" lon="16.152407531682574"><ele>920.0</ele><time>2026-04-28T07:46:47.999Z</time></trkpt><trkpt lat="38.35484625015245" lon="16.152485721611"><ele>920.0000000000001</ele><time>2026-04-28T07:46:48.999Z</time></trkpt><trkpt lat="38.354867458192125" lon="16.152574295337757"><ele>920.0</ele><time>2026-04-28T07:46:49.999Z</time></trkpt><trkpt lat="38.3549058718662" lon="16.1526713976259"><ele>919.6666666666667</ele><time>2026-04-28T07:46:50.999Z</time></trkpt><trkpt lat="38.35494158258439" lon="16.1527727786021"><ele>919.3333333333334</ele><time>2026-04-28T07:46:51.999Z</time></trkpt><trkpt lat="38.35496936365863" lon="16.152866936487133"><ele>919.0</ele><time>2026-04-28T07:46:52.999Z</time></trkpt><trkpt lat="38.35501154676117" lon="16.15294365175707"><ele>918.6666666666667</ele><time>2026-04-28T07:46:53.999Z</time></trkpt><trkpt lat="38.35506004342179" lon="16.15303892849732"><ele>918.3333333333334</ele><time>2026-04-28T07:46:54.999Z</time></trkpt><trkpt lat="38.355098562674705" lon="16.153124156570957"><ele>918.0</ele><time>2026-04-28T07:46:55.999Z</time></trkpt><trkpt lat="38.355145338430276" lon="16.153220921470666"><ele>917.5</ele><time>2026-04-28T07:46:56.999Z</time></trkpt><trkpt lat="38.355188393738395" lon="16.153292727846978"><ele>917.0</ele><time>2026-04-28T07:46:57.999Z</time></trkpt><trkpt lat="38.35522988231093" lon="16.153370320932925"><ele>916.5</ele><time>2026-04-28T07:46:58.999Z</time></trkpt><trkpt lat="38.355281555123" lon="16.153437113388687"><ele>916.0</ele><time>2026-04-28T07:46:59.999Z</time></trkpt><trkpt lat="38.355344045117064" lon="16.15348514813978"><ele>915.5</ele><time>2026-04-28T07:47:00.999Z</time></trkpt><trkpt lat="38.35541932736212" lon="16.153526717443153"><ele>915.0</ele><time>2026-04-28T07:47:01.999Z</time></trkpt><trkpt lat="38.355501643598124" lon="16.153559148248682"><ele>915.6666666666666</ele><time>2026-04-28T07:47:02.999Z</time></trkpt><trkpt lat="38.355563692677535" lon="16.153602746606172"><ele>916.3333333333333</ele><time>2026-04-28T07:47:03.999Z</time></trkpt><trkpt lat="38.35561658492068" lon="16.15365103544421"><ele>917.0</ele><time>2026-04-28T07:47:04.999Z</time></trkpt><trkpt lat="38.3556752797787" lon="16.15371485414165"><ele>917.6666666666666</ele><time>2026-04-28T07:47:05.999Z</time></trkpt><trkpt lat="38.35573514988042" lon="16.153798453512255"><ele>918.3333333333333</ele><time>2026-04-28T07:47:06.999Z</time></trkpt><trkpt lat="38.35578563926101" lon="16.153896989464755"><ele>919.0</ele><time>2026-04-28T07:47:07.999Z</time></trkpt><trkpt lat="38.355823390843675" lon="16.15398954259313"><ele>917.1666666666666</ele><time>2026-04-28T07:47:08.999Z</time></trkpt><trkpt lat="38.355861765777725" lon="16.15407469834095"><ele>915.3333333333333</ele><time>2026-04-28T07:47:09.999Z</time></trkpt><trkpt lat="38.35589296168252" lon="16.15415754557844"><ele>913.5</ele><time>2026-04-28T07:47:10.999Z</time></trkpt><trkpt lat="38.35590271743194" lon="16.154260092741048"><ele>911.6666666666667</ele><time>2026-04-28T07:47:11.999Z</time></trkpt><trkpt lat="38.35589559384928" lon="16.154372956735426"><ele>909.8333333333334</ele><time>2026-04-28T07:47:12.999Z</time></trkpt><trkpt lat="38.35588196784867" lon="16.154482321244664"><ele>908.0</ele><time>2026-04-28T07:47:13.999Z</time></trkpt><trkpt lat="38.355891356131316" lon="16.1546005421443"><ele>908.0000000000001</ele><time>2026-04-28T07:47:14.999Z</time></trkpt><trkpt lat="38.35589609890521" lon="16.15471175387047"><ele>908.0</ele><time>2026-04-28T07:47:15.999Z</time></trkpt><trkpt lat="38.355889743056075" lon="16.154820168468593"><ele>908.0</ele><time>2026-04-28T07:47:16.999Z</time></trkpt><trkpt lat="38.35584900914765" lon="16.154924487711977"><ele>908.0</ele><time>2026-04-28T07:47:17.999Z</time></trkpt><trkpt lat="38.35581269828071" lon="16.155022447182137"><ele>908.0000000000001</ele><time>2026-04-28T07:47:18.999Z</time></trkpt><trkpt lat="38.35579470761691" lon="16.15510053747725"><ele>908.0</ele><time>2026-04-28T07:47:20Z</time></trkpt><trkpt lat="38.35577702268402" lon="16.15524766809269"><ele>905.2</ele><time>2026-04-28T07:47:22Z</time></trkpt><trkpt lat="38.35578200365506" lon="16.15535321273636"><ele>902.4</ele><time>2026-04-28T07:47:23Z</time></trkpt><trkpt lat="38.355746397324275" lon="16.15544422750707"><ele>899.6000000000001</ele><time>2026-04-28T07:47:25Z</time></trkpt><trkpt lat="38.35563692646969" lon="16.155501459834202"><ele>896.8000000000001</ele><time>2026-04-28T07:47:27Z</time></trkpt><trkpt lat="38.355550054067045" lon="16.15552934463177"><ele>894.0</ele><time>2026-04-28T07:47:29Z</time></trkpt><trkpt lat="38.355462032094856" lon="16.15557355882023"><ele>892.0</ele><time>2026-04-28T07:47:31Z</time></trkpt><trkpt lat="38.35536349993668" lon="16.15571144897427"><ele>890.0000000000001</ele><time>2026-04-28T07:47:33Z</time></trkpt><trkpt lat="38.355301239154834" lon="16.15580082961622"><ele>888.0000000000001</ele><time>2026-04-28T07:47:34Z</time></trkpt><trkpt lat="38.35524860062707" lon="16.15589159944853"><ele>886.0</ele><time>2026-04-28T07:47:35Z</time></trkpt><trkpt lat="38.35519956392809" lon="16.155978288709818"><ele>884.0</ele><time>2026-04-28T07:47:36Z</time></trkpt><trkpt lat="38.35514168224329" lon="16.156058309421766"><ele>884.0000000000001</ele><time>2026-04-28T07:47:37Z</time></trkpt><trkpt lat="38.355075023893164" lon="16.156120329872778"><ele>884.0</ele><time>2026-04-28T07:47:38Z</time></trkpt><trkpt lat="38.35500693173544" lon="16.156160888677622"><ele>884.0</ele><time>2026-04-28T07:47:39Z</time></trkpt><trkpt lat="38.354932267962226" lon="16.156193668731547"><ele>884.0</ele><time>2026-04-28T07:47:40Z</time></trkpt><trkpt lat="38.354859588528015" lon="16.156205333519388"><ele>884.0000000000001</ele><time>2026-04-28T07:47:41Z</time></trkpt><trkpt lat="38.354785108948974" lon="16.156209895833143"><ele>884.0</ele><time>2026-04-28T07:47:42Z</time></trkpt><trkpt lat="38.354707853631844" lon="16.156209292243293"><ele>882.8333333333334</ele><time>2026-04-28T07:47:43Z</time></trkpt><trkpt lat="38.35464345809261" lon="16.156221047167953"><ele>881.6666666666667</ele><time>2026-04-28T07:47:44Z</time></trkpt><trkpt lat="38.354567910527805" lon="16.156236489066583"><ele>880.5</ele><time>2026-04-28T07:47:47Z</time></trkpt><trkpt lat="38.35446338433726" lon="16.15631144088057"><ele>879.3333333333333</ele><time>2026-04-28T07:47:51Z</time></trkpt><trkpt lat="38.354399876721004" lon="16.156418355820225"><ele>878.1666666666666</ele><time>2026-04-28T07:47:53Z</time></trkpt><trkpt lat="38.35436597350985" lon="16.156495083593644"><ele>877.0</ele><time>2026-04-28T07:47:54Z</time></trkpt><trkpt lat="38.35432922199781" lon="16.15657288455055"><ele>875.6666666666666</ele><time>2026-04-28T07:47:55Z</time></trkpt><trkpt lat="38.354281758084" lon="16.156640125559406"><ele>874.3333333333333</ele><time>2026-04-28T07:47:56Z</time></trkpt><trkpt lat="38.35422475823339" lon="16.156691472529978"><ele>873.0</ele><time>2026-04-28T07:47:57Z</time></trkpt><trkpt lat="38.35414628590876" lon="16.156713831277383"><ele>871.6666666666667</ele><time>2026-04-28T07:47:59Z</time></trkpt><trkpt lat="38.35405806176101" lon="16.15666176596993"><ele>870.3333333333334</ele><time>2026-04-28T07:48:01Z</time></trkpt><trkpt lat="38.353979005978786" lon="16.156679496943084"><ele>869.0</ele><time>2026-04-28T07:48:03Z</time></trkpt><trkpt lat="38.353876032691275" lon="16.156739327669538"><ele>869.0000000000001</ele><time>2026-04-28T07:48:05Z</time></trkpt><trkpt lat="38.35379471529078" lon="16.15681974851106"><ele>869.0</ele><time>2026-04-28T07:48:07Z</time></trkpt><trkpt lat="38.353768929695285" lon="16.1568971609313"><ele>869.0</ele><time>2026-04-28T07:48:08Z</time></trkpt><trkpt lat="38.35376324602562" lon="16.156979009616382"><ele>869.0</ele><time>2026-04-28T07:48:09Z</time></trkpt><trkpt lat="38.353795754658215" lon="16.157073040802047"><ele>869.0000000000001</ele><time>2026-04-28T07:48:11Z</time></trkpt><trkpt lat="38.35384445555268" lon="16.157136013968447"><ele>869.0</ele><time>2026-04-28T07:48:42.999Z</time></trkpt><trkpt lat="38.353900261261586" lon="16.15720835205652"><ele>869.0000000000001</ele><time>2026-04-28T07:48:47.999Z</time></trkpt><trkpt lat="38.35394775519953" lon="16.15731060153388"><ele>869.0</ele><time>2026-04-28T07:55:48Z</time></trkpt><trkpt lat="38.35397612445899" lon="16.157386955811198"><ele>869.0</ele><time>2026-04-28T07:55:49Z</time></trkpt><trkpt lat="38.35398598255322" lon="16.157479032956328"><ele>869.0</ele><time>2026-04-28T07:55:50Z</time></trkpt><trkpt lat="38.35397458584525" lon="16.15760952575895"><ele>869.0000000000001</ele><time>2026-04-28T07:55:52Z</time></trkpt><trkpt lat="38.353949540707035" lon="16.157732893211655"><ele>869.0</ele><time>2026-04-28T07:55:54Z</time></trkpt><trkpt lat="38.35392107794462" lon="16.15782245034742"><ele>868.6</ele><time>2026-04-28T07:55:55Z</time></trkpt><trkpt lat="38.35387556380379" lon="16.157924222886834"><ele>868.2</ele><time>2026-04-28T07:55:57Z</time></trkpt><trkpt lat="38.353800736531966" lon="16.157975511567294"><ele>867.8000000000001</ele><time>2026-04-28T07:56:19Z</time></trkpt><trkpt lat="38.35370270121872" lon="16.157955026286846"><ele>867.4000000000001</ele><time>2026-04-28T07:56:22Z</time></trkpt><trkpt lat="38.353603097407806" lon="16.157967200839455"><ele>867.0</ele><time>2026-04-28T07:56:24Z</time></trkpt><trkpt lat="38.353480375711214" lon="16.158068021620643"><ele>870.1666666666666</ele><time>2026-04-28T07:56:26Z</time></trkpt><trkpt lat="38.353413069638684" lon="16.158130212318298"><ele>873.3333333333333</ele><time>2026-04-28T07:56:27Z</time></trkpt><trkpt lat="38.35335291475968" lon="16.158154736856638"><ele>876.5</ele><time>2026-04-28T07:56:28Z</time></trkpt><trkpt lat="38.353253344241814" lon="16.15814162873227"><ele>879.6666666666666</ele><time>2026-04-28T07:56:30Z</time></trkpt><trkpt lat="38.35320059071176" lon="16.158068154237505"><ele>882.8333333333333</ele><time>2026-04-28T07:56:33Z</time></trkpt><trkpt lat="38.353177033316236" lon="16.15794193662112"><ele>886.0</ele><time>2026-04-28T07:56:34.999Z</time></trkpt><trkpt lat="38.35318309887783" lon="16.15784765350087"><ele>885.9999999999999</ele><time>2026-04-28T07:56:35.999Z</time></trkpt><trkpt lat="38.35320091167738" lon="16.157763399925887"><ele>886.0</ele><time>2026-04-28T07:56:36.999Z</time></trkpt><trkpt lat="38.35320822513426" lon="16.15761357690025"><ele>886.0</ele><time>2026-04-28T07:56:38.999Z</time></trkpt><trkpt lat="38.35320258826513" lon="16.157522581117057"><ele>886.0</ele><time>2026-04-28T07:56:39.999Z</time></trkpt><trkpt lat="38.35320815111475" lon="16.157434805158534"><ele>885.9999999999999</ele><time>2026-04-28T07:56:40.999Z</time></trkpt><trkpt lat="38.35322581882583" lon="16.1573178615693"><ele>886.0</ele><time>2026-04-28T07:56:42.999Z</time></trkpt><trkpt lat="38.353229025642776" lon="16.157218108779386"><ele>886.4</ele><time>2026-04-28T07:56:43.999Z</time></trkpt><trkpt lat="38.35324526939186" lon="16.157069138244843"><ele>886.8</ele><time>2026-04-28T07:56:45.999Z</time></trkpt><trkpt lat="38.353219604320515" lon="16.15694198146085"><ele>887.1999999999999</ele><time>2026-04-28T07:56:47.999Z</time></trkpt><trkpt lat="38.35318792863137" lon="16.156855725755197"><ele>887.5999999999999</ele><time>2026-04-28T07:56:48.999Z</time></trkpt><trkpt lat="38.35315240466054" lon="16.156769770611586"><ele>888.0</ele><time>2026-04-28T07:56:49.999Z</time></trkpt><trkpt lat="38.3531185692935" lon="16.1566792740966"><ele>888.0</ele><time>2026-04-28T07:56:50.999Z</time></trkpt><trkpt lat="38.35309229408945" lon="16.156603872838367"><ele>888.0</ele><time>2026-04-28T07:56:51.999Z</time></trkpt><trkpt lat="38.35302175764623" lon="16.156476220365814"><ele>888.0</ele><time>2026-04-28T07:56:53.999Z</time></trkpt><trkpt lat="38.3529781575711" lon="16.156396893715456"><ele>888.0</ele><time>2026-04-28T07:56:54.999Z</time></trkpt><trkpt lat="38.352931853315475" lon="16.156335429099553"><ele>888.0</ele><time>2026-04-28T07:56:55.999Z</time></trkpt><trkpt lat="38.352894663384895" lon="16.156268764792863"><ele>888.0</ele><time>2026-04-28T07:56:56.999Z</time></trkpt><trkpt lat="38.35286588765917" lon="16.156097969799852"><ele>890.3333333333334</ele><time>2026-04-28T07:56:58.999Z</time></trkpt><trkpt lat="38.35283828732467" lon="16.155996172264352"><ele>892.6666666666667</ele><time>2026-04-28T07:56:59.999Z</time></trkpt><trkpt lat="38.35280242520801" lon="16.155915814274437"><ele>895.0</ele><time>2026-04-28T07:57:00.999Z</time></trkpt><trkpt lat="38.35269679567465" lon="16.15587133610546"><ele>897.3333333333334</ele><time>2026-04-28T07:57:02.999Z</time></trkpt><trkpt lat="38.352632903000604" lon="16.155910494417054"><ele>899.6666666666667</ele><time>2026-04-28T07:57:03.999Z</time></trkpt><trkpt lat="38.35256227747882" lon="16.15599495231353"><ele>902.0</ele><time>2026-04-28T07:57:04.999Z</time></trkpt><trkpt lat="38.35248004229384" lon="16.156095932400305"><ele>902.0</ele><time>2026-04-28T07:57:05.999Z</time></trkpt><trkpt lat="38.35239311136433" lon="16.15619720404308"><ele>902.0</ele><time>2026-04-28T07:57:06.999Z</time></trkpt><trkpt lat="38.3523103802778" lon="16.156294327862128"><ele>902.0</ele><time>2026-04-28T07:57:07.999Z</time></trkpt><trkpt lat="38.35224397086422" lon="16.15636874615082"><ele>902.0</ele><time>2026-04-28T07:57:08.999Z</time></trkpt><trkpt lat="38.35218143576475" lon="16.156425878803795"><ele>902.0</ele><time>2026-04-28T07:57:09.999Z</time></trkpt><trkpt lat="38.35211573457587" lon="16.156494434578267"><ele>903.8</ele><time>2026-04-28T07:57:10.999Z</time></trkpt><trkpt lat="38.35204301930165" lon="16.15659160935823"><ele>905.6</ele><time>2026-04-28T07:57:11.999Z</time></trkpt><trkpt lat="38.35198552338428" lon="16.156687229488902"><ele>907.3999999999999</ele><time>2026-04-28T07:57:12.999Z</time></trkpt><trkpt lat="38.35193068212789" lon="16.156770711926352"><ele>909.1999999999999</ele><time>2026-04-28T07:57:13.999Z</time></trkpt><trkpt lat="38.35188265185753" lon="16.156844775700673"><ele>911.0</ele><time>2026-04-28T07:57:14.999Z</time></trkpt><trkpt lat="38.35185448698183" lon="16.156993758221144"><ele>911.0000000000001</ele><time>2026-04-28T07:57:16.999Z</time></trkpt><trkpt lat="38.35184661837672" lon="16.157106738861728"><ele>911.0</ele><time>2026-04-28T07:57:17.999Z</time></trkpt><trkpt lat="38.35184858392781" lon="16.15719635892711"><ele>911.0</ele><time>2026-04-28T07:57:18.999Z</time></trkpt><trkpt lat="38.3518026707737" lon="16.15731984679451"><ele>911.0</ele><time>2026-04-28T07:57:20.999Z</time></trkpt><trkpt lat="38.35173991401134" lon="16.1573470905856"><ele>911.0000000000001</ele><time>2026-04-28T07:57:22.999Z</time></trkpt><trkpt lat="38.35166853829848" lon="16.157267168190202"><ele>911.0</ele><time>2026-04-28T07:57:24.999Z</time></trkpt><trkpt lat="38.351633084561506" lon="16.157180767560078"><ele>911.0000000000001</ele><time>2026-04-28T07:57:25.999Z</time></trkpt><trkpt lat="38.35159930302242" lon="16.15710936482014"><ele>911.0</ele><time>2026-04-28T07:57:26.999Z</time></trkpt><trkpt lat="38.35154129402013" lon="16.157039265518087"><ele>911.0</ele><time>2026-04-28T07:57:27.999Z</time></trkpt><trkpt lat="38.35148765689992" lon="16.156994969533905"><ele>911.0</ele><time>2026-04-28T07:57:28.999Z</time></trkpt><trkpt lat="38.3514098023932" lon="16.15696966205372"><ele>911.0000000000001</ele><time>2026-04-28T07:57:29.999Z</time></trkpt><trkpt lat="38.35132666897171" lon="16.156949964489424"><ele>911.0</ele><time>2026-04-28T07:57:30.999Z</time></trkpt><trkpt lat="38.35123871354234" lon="16.15692819730279"><ele>912.6666666666667</ele><time>2026-04-28T07:57:31.999Z</time></trkpt><trkpt lat="38.351153290100974" lon="16.156922098461504"><ele>914.3333333333334</ele><time>2026-04-28T07:57:32.999Z</time></trkpt><trkpt lat="38.351076864139465" lon="16.156928159472486"><ele>916.0</ele><time>2026-04-28T07:57:33.999Z</time></trkpt><trkpt lat="38.35099329253016" lon="16.15693829756895"><ele>917.6666666666667</ele><time>2026-04-28T07:57:34.999Z</time></trkpt><trkpt lat="38.35090565822146" lon="16.156964695392993"><ele>919.3333333333334</ele><time>2026-04-28T07:57:35.999Z</time></trkpt><trkpt lat="38.35080794357222" lon="16.157010447556917"><ele>921.0</ele><time>2026-04-28T07:57:36.999Z</time></trkpt><trkpt lat="38.35070593399361" lon="16.1570520020861"><ele>921.0</ele><time>2026-04-28T07:57:37.999Z</time></trkpt><trkpt lat="38.35061073085681" lon="16.157080233109024"><ele>920.9999999999999</ele><time>2026-04-28T07:57:38.999Z</time></trkpt><trkpt lat="38.35052500396131" lon="16.157115173464"><ele>920.9999999999999</ele><time>2026-04-28T07:57:39.999Z</time></trkpt><trkpt lat="38.35043326131864" lon="16.157147875716483"><ele>921.0</ele><time>2026-04-28T07:57:40.999Z</time></trkpt><trkpt lat="38.3503535553379" lon="16.15716603912138"><ele>921.0</ele><time>2026-04-28T07:57:41.999Z</time></trkpt><trkpt lat="38.350266536514276" lon="16.157196246220863"><ele>922.5</ele><time>2026-04-28T07:57:42.999Z</time></trkpt><trkpt lat="38.350179926480294" lon="16.157239145370454"><ele>924.0</ele><time>2026-04-28T07:57:43.999Z</time></trkpt><trkpt lat="38.3501026177838" lon="16.157300081159228"><ele>925.5</ele><time>2026-04-28T07:57:44.999Z</time></trkpt><trkpt lat="38.35005100203361" lon="16.15737134732529"><ele>927.0</ele><time>2026-04-28T07:57:45.999Z</time></trkpt><trkpt lat="38.350003901217924" lon="16.157439846113572"><ele>928.5</ele><time>2026-04-28T07:57:46.999Z</time></trkpt><trkpt lat="38.3499608172161" lon="16.157503678602104"><ele>930.0</ele><time>2026-04-28T07:57:47.999Z</time></trkpt><trkpt lat="38.34989721200944" lon="16.157551916110684"><ele>930.8</ele><time>2026-04-28T07:57:48.999Z</time></trkpt><trkpt lat="38.34981264328881" lon="16.157609849280128"><ele>931.6</ele><time>2026-04-28T07:57:50Z</time></trkpt><trkpt lat="38.34972885349807" lon="16.15768605301481"><ele>932.4000000000001</ele><time>2026-04-28T07:57:51Z</time></trkpt><trkpt lat="38.34966966713707" lon="16.15776235515908"><ele>933.2</ele><time>2026-04-28T07:57:52Z</time></trkpt><trkpt lat="38.349620246762136" lon="16.157814105629072"><ele>934.0</ele><time>2026-04-28T07:57:53Z</time></trkpt><trkpt lat="38.34949719725597" lon="16.15782949664092"><ele>935.2</ele><time>2026-04-28T07:57:55Z</time></trkpt><trkpt lat="38.34942088455593" lon="16.15781828813411"><ele>936.4000000000001</ele><time>2026-04-28T07:57:56Z</time></trkpt><trkpt lat="38.349352800105436" lon="16.15780306624224"><ele>937.6</ele><time>2026-04-28T07:57:57Z</time></trkpt><trkpt lat="38.3492780389598" lon="16.157849367565877"><ele>938.8</ele><time>2026-04-28T07:57:59Z</time></trkpt><trkpt lat="38.349212662574445" lon="16.15797174536843"><ele>940.0</ele><time>2026-04-28T07:58:01Z</time></trkpt><trkpt lat="38.3491535873429" lon="16.158125143828407"><ele>939.8</ele><time>2026-04-28T07:58:03Z</time></trkpt><trkpt lat="38.34913165590509" lon="16.158209311810623"><ele>939.6</ele><time>2026-04-28T07:58:04Z</time></trkpt><trkpt lat="38.34903441523116" lon="16.158295986303433"><ele>939.4000000000001</ele><time>2026-04-28T07:58:06Z</time></trkpt><trkpt lat="38.34894675054859" lon="16.158316335564326"><ele>939.2</ele><time>2026-04-28T07:58:07Z</time></trkpt><trkpt lat="38.348879850814114" lon="16.158320043359637"><ele>939.0</ele><time>2026-04-28T07:58:08Z</time></trkpt><trkpt lat="38.34875272701603" lon="16.158263591559873"><ele>939.8333333333334</ele><time>2026-04-28T07:58:10Z</time></trkpt><trkpt lat="38.3486642781877" lon="16.158201227936242"><ele>940.6666666666667</ele><time>2026-04-28T07:58:11Z</time></trkpt><trkpt lat="38.3485648229208" lon="16.158135462075986"><ele>941.5</ele><time>2026-04-28T07:58:12Z</time></trkpt><trkpt lat="38.34849726941791" lon="16.158092574271677"><ele>942.3333333333334</ele><time>2026-04-28T07:58:13Z</time></trkpt><trkpt lat="38.34843619328912" lon="16.15807160048143"><ele>943.1666666666667</ele><time>2026-04-28T08:01:58.999Z</time></trkpt><trkpt lat="38.34837066090277" lon="16.158057354013064"><ele>944.0</ele><time>2026-04-28T08:02:00.999Z</time></trkpt><trkpt lat="38.348268434025236" lon="16.158018374328364"><ele>944.0000000000001</ele><time>2026-04-28T08:05:47.999Z</time></trkpt><trkpt lat="38.34812950223579" lon="16.157994677678666"><ele>944.0</ele><time>2026-04-28T08:05:49.999Z</time></trkpt><trkpt lat="38.348053608733785" lon="16.1579769838028"><ele>944.0</ele><time>2026-04-28T08:05:50.999Z</time></trkpt><trkpt lat="38.34797701554375" lon="16.157952233821455"><ele>944.0</ele><time>2026-04-28T08:05:51.999Z</time></trkpt><trkpt lat="38.34790987944361" lon="16.157925118118587"><ele>944.0000000000001</ele><time>2026-04-28T08:05:52.999Z</time></trkpt><trkpt lat="38.34784119141734" lon="16.157886155297618"><ele>944.0</ele><time>2026-04-28T08:05:53.999Z</time></trkpt><trkpt lat="38.34777071167677" lon="16.157841829273217"><ele>944.2</ele><time>2026-04-28T08:05:54.999Z</time></trkpt><trkpt lat="38.34770490714689" lon="16.157797613474095"><ele>944.4000000000001</ele><time>2026-04-28T08:05:55.999Z</time></trkpt><trkpt lat="38.34762117505647" lon="16.157756350370303"><ele>944.6</ele><time>2026-04-28T08:05:56.999Z</time></trkpt><trkpt lat="38.34752582959973" lon="16.157731734866328"><ele>944.8</ele><time>2026-04-28T08:05:57.999Z</time></trkpt><trkpt lat="38.34741903410209" lon="16.15772590845279"><ele>945.0</ele><time>2026-04-28T08:05:58.999Z</time></trkpt><trkpt lat="38.34732292667155" lon="16.157727231563264"><ele>945.0</ele><time>2026-04-28T08:05:59.999Z</time></trkpt><trkpt lat="38.34725606562298" lon="16.157733006408538"><ele>945.0</ele><time>2026-04-28T08:06:00.999Z</time></trkpt><trkpt lat="38.347181559110176" lon="16.157728086366042"><ele>945.0</ele><time>2026-04-28T08:06:02.999Z</time></trkpt><trkpt lat="38.347127749055026" lon="16.157686403106798"><ele>945.0</ele><time>2026-04-28T08:06:55.999Z</time></trkpt><trkpt lat="38.347021217571694" lon="16.157565340626714"><ele>945.0</ele><time>2026-04-28T08:06:57.999Z</time></trkpt><trkpt lat="38.34697200168147" lon="16.1574996090238"><ele>945.0</ele><time>2026-04-28T08:06:58.999Z</time></trkpt><trkpt lat="38.34694677376799" lon="16.15734467999765"><ele>946.3333333333334</ele><time>2026-04-28T08:07:00.999Z</time></trkpt><trkpt lat="38.34695916576592" lon="16.15725555607524"><ele>947.6666666666667</ele><time>2026-04-28T08:07:01.999Z</time></trkpt><trkpt lat="38.34696506690875" lon="16.157156200144914"><ele>949.0</ele><time>2026-04-28T08:07:02.999Z</time></trkpt><trkpt lat="38.34697781672719" lon="16.15706170479056"><ele>950.3333333333334</ele><time>2026-04-28T08:07:03.999Z</time></trkpt><trkpt lat="38.34697954576979" lon="16.156940256051655"><ele>951.6666666666667</ele><time>2026-04-28T08:07:05.999Z</time></trkpt><trkpt lat="38.34692877895606" lon="16.15688261717708"><ele>953.0</ele><time>2026-04-28T08:07:06.999Z</time></trkpt><trkpt lat="38.34687108691504" lon="16.15680746786068"><ele>953.0</ele><time>2026-04-28T08:07:07.999Z</time></trkpt><trkpt lat="38.34679508345339" lon="16.156731410638113"><ele>953.0</ele><time>2026-04-28T08:07:08.999Z</time></trkpt><trkpt lat="38.34671169209151" lon="16.156661928786033"><ele>953.0</ele><time>2026-04-28T08:07:09.999Z</time></trkpt><trkpt lat="38.34662750135706" lon="16.15660058955259"><ele>953.0</ele><time>2026-04-28T08:07:10.999Z</time></trkpt><trkpt lat="38.3465299398176" lon="16.156551156173762"><ele>953.0</ele><time>2026-04-28T08:07:11.999Z</time></trkpt><trkpt lat="38.34645655347761" lon="16.156489366189632"><ele>953.0</ele><time>2026-04-28T08:07:12.999Z</time></trkpt><trkpt lat="38.346391835610895" lon="16.156439431998972"><ele>953.0</ele><time>2026-04-28T08:07:13.999Z</time></trkpt><trkpt lat="38.346327788263274" lon="16.15635176924571"><ele>953.0</ele><time>2026-04-28T08:07:14.999Z</time></trkpt><trkpt lat="38.34624845005985" lon="16.15623011942834"><ele>953.0</ele><time>2026-04-28T08:07:15.999Z</time></trkpt><trkpt lat="38.346171771896614" lon="16.156123579151966"><ele>953.0</ele><time>2026-04-28T08:07:16.999Z</time></trkpt><trkpt lat="38.346126311614476" lon="16.15605159026452"><ele>953.5999999999999</ele><time>2026-04-28T08:07:17.999Z</time></trkpt><trkpt lat="38.34607232225885" lon="16.155971787167225"><ele>954.1999999999999</ele><time>2026-04-28T08:07:19.999Z</time></trkpt><trkpt lat="38.3460357023821" lon="16.155872440784794"><ele>954.8</ele><time>2026-04-28T08:07:20.999Z</time></trkpt><trkpt lat="38.34596889749889" lon="16.155757793286227"><ele>955.4</ele><time>2026-04-28T08:07:21.999Z</time></trkpt><trkpt lat="38.34587257607038" lon="16.155656492491353"><ele>956.0</ele><time>2026-04-28T08:07:22.999Z</time></trkpt><trkpt lat="38.34577566367263" lon="16.155574945270185"><ele>956.1999999999999</ele><time>2026-04-28T08:07:23.999Z</time></trkpt><trkpt lat="38.3457077658365" lon="16.155500182600257"><ele>956.3999999999999</ele><time>2026-04-28T08:07:24.999Z</time></trkpt><trkpt lat="38.345652975422865" lon="16.155403797006855"><ele>956.6</ele><time>2026-04-28T08:07:25.999Z</time></trkpt><trkpt lat="38.34560569983492" lon="16.155273999825372"><ele>956.8</ele><time>2026-04-28T08:07:26.999Z</time></trkpt><trkpt lat="38.34553864884941" lon="16.155142615052387"><ele>957.0</ele><time>2026-04-28T08:07:27.999Z</time></trkpt><trkpt lat="38.345472742232396" lon="16.15501528718111"><ele>956.6</ele><time>2026-04-28T08:07:28.999Z</time></trkpt><trkpt lat="38.34539430618521" lon="16.154900340365"><ele>956.2</ele><time>2026-04-28T08:07:29.999Z</time></trkpt><trkpt lat="38.34533845671593" lon="16.154787060758263"><ele>955.8</ele><time>2026-04-28T08:07:30.999Z</time></trkpt><trkpt lat="38.34528050777555" lon="16.154694124014654"><ele>955.4</ele><time>2026-04-28T08:07:31.999Z</time></trkpt><trkpt lat="38.345202366033455" lon="16.154597489747093"><ele>955.0</ele><time>2026-04-28T08:07:32.999Z</time></trkpt><trkpt lat="38.34514605804959" lon="16.15446602490783"><ele>955.0</ele><time>2026-04-28T08:07:33.999Z</time></trkpt><trkpt lat="38.34508111307453" lon="16.154344132948577"><ele>955.0</ele><time>2026-04-28T08:07:34.999Z</time></trkpt><trkpt lat="38.344996097286725" lon="16.154239684424848"><ele>955.0</ele><time>2026-04-28T08:07:35.999Z</time></trkpt><trkpt lat="38.34493297040808" lon="16.15412482496328"><ele>955.0</ele><time>2026-04-28T08:07:36.999Z</time></trkpt><trkpt lat="38.34487318031544" lon="16.15403415426451"><ele>955.0</ele><time>2026-04-28T08:07:37.999Z</time></trkpt><trkpt lat="38.3448150540141" lon="16.15394722174195"><ele>955.3333333333333</ele><time>2026-04-28T08:07:38.999Z</time></trkpt><trkpt lat="38.34477185582394" lon="16.153852736124865"><ele>955.6666666666666</ele><time>2026-04-28T08:07:39.999Z</time></trkpt><trkpt lat="38.34471074007298" lon="16.15379427493536"><ele>956.0</ele><time>2026-04-28T08:07:40.999Z</time></trkpt><trkpt lat="38.3446672996247" lon="16.15372789728971"><ele>956.3333333333333</ele><time>2026-04-28T08:07:41.999Z</time></trkpt><trkpt lat="38.34460631130506" lon="16.15361371630515"><ele>956.6666666666666</ele><time>2026-04-28T08:07:43.999Z</time></trkpt><trkpt lat="38.34454908213854" lon="16.153551886310684"><ele>957.0</ele><time>2026-04-28T08:09:04.999Z</time></trkpt><trkpt lat="38.34444563369864" lon="16.153485844775698"><ele>957.5</ele><time>2026-04-28T08:13:54Z</time></trkpt><trkpt lat="38.344340711716406" lon="16.153446264414754"><ele>958.0</ele><time>2026-04-28T08:13:56Z</time></trkpt><trkpt lat="38.344279053605526" lon="16.153416409445843"><ele>958.5</ele><time>2026-04-28T08:13:57Z</time></trkpt><trkpt lat="38.34421083688087" lon="16.153381054790202"><ele>959.0</ele><time>2026-04-28T08:13:58Z</time></trkpt><trkpt lat="38.344148925779436" lon="16.15335071034022"><ele>959.5</ele><time>2026-04-28T08:13:59Z</time></trkpt><trkpt lat="38.34408463665391" lon="16.15331416426239"><ele>960.0</ele><time>2026-04-28T08:14:00Z</time></trkpt><trkpt lat="38.34401387618809" lon="16.153275412000156"><ele>960.0</ele><time>2026-04-28T08:14:01Z</time></trkpt><trkpt lat="38.34393771817362" lon="16.153237763669324"><ele>960.0</ele><time>2026-04-28T08:14:02Z</time></trkpt><trkpt lat="38.34386499031993" lon="16.153195933767527"><ele>960.0</ele><time>2026-04-28T08:14:03Z</time></trkpt><trkpt lat="38.34379636072732" lon="16.15315823246262"><ele>960.0</ele><time>2026-04-28T08:14:04Z</time></trkpt><trkpt lat="38.34372664325551" lon="16.15312168498541"><ele>960.0</ele><time>2026-04-28T08:14:05Z</time></trkpt><trkpt lat="38.34366188610518" lon="16.153094942886"><ele>960.0</ele><time>2026-04-28T08:14:06Z</time></trkpt><trkpt lat="38.34356064942361" lon="16.153052375487498"><ele>960.8</ele><time>2026-04-28T08:14:08Z</time></trkpt><trkpt lat="38.343456756256444" lon="16.152990385196894"><ele>961.6</ele><time>2026-04-28T08:14:10Z</time></trkpt><trkpt lat="38.34338894289914" lon="16.152952150081422"><ele>962.4000000000001</ele><time>2026-04-28T08:14:11Z</time></trkpt><trkpt lat="38.34331093343632" lon="16.15291047800804"><ele>963.2</ele><time>2026-04-28T08:14:12Z</time></trkpt><trkpt lat="38.34322524014554" lon="16.15286418022903"><ele>964.0</ele><time>2026-04-28T08:14:13Z</time></trkpt><trkpt lat="38.34313227981879" lon="16.152819904199372"><ele>963.8000000000001</ele><time>2026-04-28T08:14:14Z</time></trkpt><trkpt lat="38.34304304013226" lon="16.15277090776684"><ele>963.6000000000001</ele><time>2026-04-28T08:14:15Z</time></trkpt><trkpt lat="38.34295393110414" lon="16.152723544709364"><ele>963.4</ele><time>2026-04-28T08:14:16Z</time></trkpt><trkpt lat="38.34286450991461" lon="16.152677769227292"><ele>963.2</ele><time>2026-04-28T08:14:17Z</time></trkpt><trkpt lat="38.342779369146015" lon="16.15263055265364"><ele>963.0</ele><time>2026-04-28T08:14:18Z</time></trkpt><trkpt lat="38.34269908296465" lon="16.152589016104162"><ele>963.0</ele><time>2026-04-28T08:14:19Z</time></trkpt><trkpt lat="38.342624380115346" lon="16.1525499915235"><ele>963.0</ele><time>2026-04-28T08:14:20Z</time></trkpt><trkpt lat="38.34255073895545" lon="16.152505824000325"><ele>963.0</ele><time>2026-04-28T08:14:21Z</time></trkpt><trkpt lat="38.34247346587305" lon="16.152470054640045"><ele>963.0</ele><time>2026-04-28T08:14:22Z</time></trkpt><trkpt lat="38.34240068576444" lon="16.152432307824967"><ele>963.0</ele><time>2026-04-28T08:14:23Z</time></trkpt><trkpt lat="38.342324698383344" lon="16.15238822885012"><ele>963.0</ele><time>2026-04-28T08:14:24Z</time></trkpt><trkpt lat="38.34224296472167" lon="16.152342331389185"><ele>963.8</ele><time>2026-04-28T08:14:25Z</time></trkpt><trkpt lat="38.342162179127875" lon="16.152295435049165"><ele>964.5999999999999</ele><time>2026-04-28T08:14:26Z</time></trkpt><trkpt lat="38.34207668006688" lon="16.152247184939117"><ele>965.4000000000001</ele><time>2026-04-28T08:14:27Z</time></trkpt><trkpt lat="38.34199277371403" lon="16.15220475570393"><ele>966.2</ele><time>2026-04-28T08:14:28Z</time></trkpt><trkpt lat="38.34190705531845" lon="16.152161495592175"><ele>967.0</ele><time>2026-04-28T08:14:29Z</time></trkpt><trkpt lat="38.341823400232094" lon="16.15209938534846"><ele>967.0</ele><time>2026-04-28T08:14:30Z</time></trkpt><trkpt lat="38.341740552599056" lon="16.152043659107605"><ele>967.0</ele><time>2026-04-28T08:14:31Z</time></trkpt><trkpt lat="38.3416509576693" lon="16.15199282253311"><ele>967.0</ele><time>2026-04-28T08:14:32Z</time></trkpt><trkpt lat="38.34156608642863" lon="16.15192232650761"><ele>967.0</ele><time>2026-04-28T08:14:33Z</time></trkpt><trkpt lat="38.34148162184988" lon="16.151859051200592"><ele>967.0</ele><time>2026-04-28T08:14:34Z</time></trkpt><trkpt lat="38.34140560446897" lon="16.15179065715527"><ele>966.4000000000001</ele><time>2026-04-28T08:14:35Z</time></trkpt><trkpt lat="38.341332378958896" lon="16.151724865263734"><ele>965.8000000000001</ele><time>2026-04-28T08:14:36Z</time></trkpt><trkpt lat="38.34124819828902" lon="16.1516594486547"><ele>965.2</ele><time>2026-04-28T08:14:37Z</time></trkpt><trkpt lat="38.341162476361184" lon="16.151592753498146"><ele>964.6</ele><time>2026-04-28T08:14:38Z</time></trkpt><trkpt lat="38.34108405355217" lon="16.15152189344491"><ele>964.0</ele><time>2026-04-28T08:14:39Z</time></trkpt><trkpt lat="38.34100426339031" lon="16.151448763675454"><ele>963.8333333333333</ele><time>2026-04-28T08:14:40Z</time></trkpt><trkpt lat="38.34092472414615" lon="16.151386348683356"><ele>963.6666666666666</ele><time>2026-04-28T08:14:41Z</time></trkpt><trkpt lat="38.34085042070894" lon="16.151330985189748"><ele>963.5</ele><time>2026-04-28T08:14:42Z</time></trkpt><trkpt lat="38.34077908068436" lon="16.15128150681847"><ele>963.3333333333333</ele><time>2026-04-28T08:14:43Z</time></trkpt><trkpt lat="38.34071760100259" lon="16.151232594415745"><ele>963.1666666666666</ele><time>2026-04-28T08:14:44Z</time></trkpt><trkpt lat="38.340659657358444" lon="16.151184476117407"><ele>963.0</ele><time>2026-04-28T08:14:45Z</time></trkpt><trkpt lat="38.34058968202124" lon="16.15112820166188"><ele>963.0</ele><time>2026-04-28T08:14:46Z</time></trkpt><trkpt lat="38.3405210870002" lon="16.151065186755176"><ele>963.0</ele><time>2026-04-28T08:14:47Z</time></trkpt><trkpt lat="38.34044614458148" lon="16.151015512886946"><ele>963.0</ele><time>2026-04-28T08:14:48Z</time></trkpt><trkpt lat="38.340372776912446" lon="16.150956837169208"><ele>963.0</ele><time>2026-04-28T08:14:49Z</time></trkpt><trkpt lat="38.34029651588305" lon="16.15088938800849"><ele>963.0</ele><time>2026-04-28T08:14:50Z</time></trkpt><trkpt lat="38.34021489325037" lon="16.150821839947763"><ele>963.0</ele><time>2026-04-28T08:14:51Z</time></trkpt><trkpt lat="38.340126323772196" lon="16.15075156181495"><ele>964.0</ele><time>2026-04-28T08:14:52Z</time></trkpt><trkpt lat="38.340028191278975" lon="16.150683826146242"><ele>965.0</ele><time>2026-04-28T08:14:53Z</time></trkpt><trkpt lat="38.3399263136045" lon="16.150610252926743"><ele>966.0</ele><time>2026-04-28T08:14:54Z</time></trkpt><trkpt lat="38.339823956330044" lon="16.15053414039729"><ele>967.0</ele><time>2026-04-28T08:14:55Z</time></trkpt><trkpt lat="38.339718733784714" lon="16.150450628566663"><ele>965.5</ele><time>2026-04-28T08:14:56Z</time></trkpt><trkpt lat="38.33961341692897" lon="16.150372801072997"><ele>964.0</ele><time>2026-04-28T08:14:57Z</time></trkpt><trkpt lat="38.33951129932575" lon="16.150295759463887"><ele>962.5</ele><time>2026-04-28T08:14:58Z</time></trkpt><trkpt lat="38.339409191299794" lon="16.150224161920214"><ele>961.0</ele><time>2026-04-28T08:14:59Z</time></trkpt><trkpt lat="38.339304930863705" lon="16.150149953653482"><ele>961.0</ele><time>2026-04-28T08:15:00Z</time></trkpt><trkpt lat="38.33920531036066" lon="16.15007786316619"><ele>960.9999999999999</ele><time>2026-04-28T08:15:01Z</time></trkpt><trkpt lat="38.33911019796428" lon="16.15001300025669"><ele>960.9999999999999</ele><time>2026-04-28T08:15:02Z</time></trkpt><trkpt lat="38.33902367951276" lon="16.1499495052421"><ele>961.0</ele><time>2026-04-28T08:15:03Z</time></trkpt><trkpt lat="38.33894543177903" lon="16.149894003113488"><ele>961.0</ele><time>2026-04-28T08:15:04Z</time></trkpt><trkpt lat="38.33886649242137" lon="16.149834903413016"><ele>962.6666666666666</ele><time>2026-04-28T08:15:05Z</time></trkpt><trkpt lat="38.33878404340607" lon="16.149776940327776"><ele>964.3333333333333</ele><time>2026-04-28T08:15:06Z</time></trkpt><trkpt lat="38.33869899750942" lon="16.14971472990097"><ele>966.0</ele><time>2026-04-28T08:15:07Z</time></trkpt><trkpt lat="38.33862396406076" lon="16.149664091545965"><ele>967.6666666666667</ele><time>2026-04-28T08:15:08Z</time></trkpt><trkpt lat="38.3385564069019" lon="16.14961918704536"><ele>969.3333333333334</ele><time>2026-04-28T08:15:09Z</time></trkpt><trkpt lat="38.338480522707755" lon="16.149573685214563"><ele>971.0</ele><time>2026-04-28T08:15:10Z</time></trkpt><trkpt lat="38.33842610554342" lon="16.149529533073018"><ele>971.0</ele><time>2026-04-28T08:15:11Z</time></trkpt><trkpt lat="38.338346906445544" lon="16.149441128264023"><ele>970.9999999999999</ele><time>2026-04-28T08:15:13Z</time></trkpt><trkpt lat="38.33825795028707" lon="16.14936401030053"><ele>970.9999999999999</ele><time>2026-04-28T08:15:15Z</time></trkpt><trkpt lat="38.33820313366893" lon="16.149310098914114"><ele>971.0</ele><time>2026-04-28T08:15:18Z</time></trkpt><trkpt lat="38.3381102830949" lon="16.14926089679846"><ele>971.0</ele><time>2026-04-28T08:16:18Z</time></trkpt><trkpt lat="38.338030685156475" lon="16.14920436513674"><ele>971.25</ele><time>2026-04-28T08:16:19Z</time></trkpt><trkpt lat="38.337941311299176" lon="16.149138146758"><ele>971.5</ele><time>2026-04-28T08:16:20Z</time></trkpt><trkpt lat="38.337839131052625" lon="16.149053833632316"><ele>971.75</ele><time>2026-04-28T08:16:21Z</time></trkpt><trkpt lat="38.337697631898855" lon="16.1489564827489"><ele>972.0</ele><time>2026-04-28T08:16:22Z</time></trkpt><trkpt lat="38.33756181560057" lon="16.14884335407672"><ele>972.0</ele><time>2026-04-28T08:16:23Z</time></trkpt><trkpt lat="38.337399478279075" lon="16.148721655741127"><ele>972.0</ele><time>2026-04-28T08:16:24Z</time></trkpt><trkpt lat="38.33723902609758" lon="16.148595412773638"><ele>972.0</ele><time>2026-04-28T08:16:25Z</time></trkpt><trkpt lat="38.337085463597006" lon="16.148483867622605"><ele>972.0</ele><time>2026-04-28T08:16:26Z</time></trkpt><trkpt lat="38.33695340024794" lon="16.148378401568817"><ele>972.0</ele><time>2026-04-28T08:16:27Z</time></trkpt><trkpt lat="38.33682368756284" lon="16.148286216530067"><ele>972.0</ele><time>2026-04-28T08:16:28Z</time></trkpt><trkpt lat="38.33669111524089" lon="16.148194622306757"><ele>972.5</ele><time>2026-04-28T08:16:29Z</time></trkpt><trkpt lat="38.33656046500834" lon="16.148100478177135"><ele>973.0</ele><time>2026-04-28T08:16:30Z</time></trkpt><trkpt lat="38.33644234940976" lon="16.148008280064477"><ele>973.5</ele><time>2026-04-28T08:16:31Z</time></trkpt><trkpt lat="38.33633487905963" lon="16.147938116293584"><ele>974.0</ele><time>2026-04-28T08:16:32Z</time></trkpt><trkpt lat="38.336236817534655" lon="16.14785174672466"><ele>972.75</ele><time>2026-04-28T08:16:33Z</time></trkpt><trkpt lat="38.33614067381817" lon="16.14775850200511"><ele>971.5</ele><time>2026-04-28T08:16:34Z</time></trkpt><trkpt lat="38.33605597530979" lon="16.14764898917401"><ele>970.25</ele><time>2026-04-28T08:16:35Z</time></trkpt><trkpt lat="38.33596786788671" lon="16.14751730634891"><ele>969.0</ele><time>2026-04-28T08:16:36Z</time></trkpt><trkpt lat="38.33587445994595" lon="16.147383778301997"><ele>969.6666666666667</ele><time>2026-04-28T08:16:37Z</time></trkpt><trkpt lat="38.335770742061214" lon="16.14724592933377"><ele>970.3333333333334</ele><time>2026-04-28T08:16:38Z</time></trkpt><trkpt lat="38.33565054445727" lon="16.14709259822375"><ele>971.0</ele><time>2026-04-28T08:16:39Z</time></trkpt><trkpt lat="38.33551845674533" lon="16.146932474608953"><ele>969.6666666666667</ele><time>2026-04-28T08:16:40Z</time></trkpt><trkpt lat="38.335382097062094" lon="16.14678334613809"><ele>968.3333333333333</ele><time>2026-04-28T08:16:41Z</time></trkpt><trkpt lat="38.335222703184584" lon="16.14666264089272"><ele>967.0</ele><time>2026-04-28T08:16:42Z</time></trkpt><trkpt lat="38.33505316723371" lon="16.146549725479233"><ele>968.0</ele><time>2026-04-28T08:16:43.001Z</time></trkpt><trkpt lat="38.33486682652693" lon="16.146456469277684"><ele>969.0</ele><time>2026-04-28T08:16:44.001Z</time></trkpt><trkpt lat="38.33467564028599" lon="16.146374354785397"><ele>970.0</ele><time>2026-04-28T08:16:45.001Z</time></trkpt><trkpt lat="38.334486250471805" lon="16.146290305726314"><ele>967.0</ele><time>2026-04-28T08:16:46.001Z</time></trkpt><trkpt lat="38.33429692676295" lon="16.146204787705685"><ele>964.0</ele><time>2026-04-28T08:16:47.001Z</time></trkpt><trkpt lat="38.33410429995641" lon="16.1461190869124"><ele>961.0</ele><time>2026-04-28T08:16:48.001Z</time></trkpt><trkpt lat="38.33391138274228" lon="16.14603241912107"><ele>958.3333333333333</ele><time>2026-04-28T08:16:49.001Z</time></trkpt><trkpt lat="38.33372923228064" lon="16.145949806927838"><ele>955.6666666666667</ele><time>2026-04-28T08:16:50.001Z</time></trkpt><trkpt lat="38.33356154376097" lon="16.145873000082474"><ele>953.0</ele><time>2026-04-28T08:16:51.001Z</time></trkpt><trkpt lat="38.33340413239041" lon="16.145799870962527"><ele>953.0</ele><time>2026-04-28T08:16:52.001Z</time></trkpt><trkpt lat="38.33325268270402" lon="16.145734619810817"><ele>953.0</ele><time>2026-04-28T08:16:53.001Z</time></trkpt><trkpt lat="38.333106025963694" lon="16.1456691048474"><ele>953.0</ele><time>2026-04-28T08:16:54.001Z</time></trkpt><trkpt lat="38.33296680380343" lon="16.145611423633216"><ele>953.6666666666667</ele><time>2026-04-28T08:16:55.001Z</time></trkpt><trkpt lat="38.33283113201314" lon="16.14554807044333"><ele>954.3333333333333</ele><time>2026-04-28T08:16:56.001Z</time></trkpt><trkpt lat="38.33268246303633" lon="16.145471061849538"><ele>955.0</ele><time>2026-04-28T08:16:57.001Z</time></trkpt><trkpt lat="38.33252804671895" lon="16.145404344649194"><ele>955.0</ele><time>2026-04-28T08:16:58.001Z</time></trkpt><trkpt lat="38.332388336689334" lon="16.14533598381542"><ele>955.0</ele><time>2026-04-28T08:16:59.001Z</time></trkpt><trkpt lat="38.33225773356609" lon="16.145266239837014"><ele>955.0</ele><time>2026-04-28T08:17:00Z</time></trkpt><trkpt lat="38.33213399690969" lon="16.14518993615904"><ele>955.0</ele><time>2026-04-28T08:17:01Z</time></trkpt><trkpt lat="38.332018222406255" lon="16.145103019037197"><ele>955.25</ele><time>2026-04-28T08:17:02Z</time></trkpt><trkpt lat="38.33191848183587" lon="16.144999086522784"><ele>955.5</ele><time>2026-04-28T08:17:03Z</time></trkpt><trkpt lat="38.33183451044563" lon="16.14488293361216"><ele>955.75</ele><time>2026-04-28T08:17:04Z</time></trkpt><trkpt lat="38.331743017675464" lon="16.144766599107303"><ele>956.0</ele><time>2026-04-28T08:17:05Z</time></trkpt><trkpt lat="38.33162629629472" lon="16.144639652201903"><ele>956.0</ele><time>2026-04-28T08:17:06Z</time></trkpt><trkpt lat="38.33150730727524" lon="16.144508245800267"><ele>956.0</ele><time>2026-04-28T08:17:07Z</time></trkpt><trkpt lat="38.3314030205512" lon="16.144402581005142"><ele>956.0</ele><time>2026-04-28T08:17:08Z</time></trkpt><trkpt lat="38.3313033809293" lon="16.144347033283335"><ele>956.0</ele><time>2026-04-28T08:17:09Z</time></trkpt><trkpt lat="38.331196723662075" lon="16.14435591381676"><ele>955.0</ele><time>2026-04-28T08:17:10Z</time></trkpt><trkpt lat="38.33107678637186" lon="16.144406270563046"><ele>953.9999999999999</ele><time>2026-04-28T08:17:11Z</time></trkpt><trkpt lat="38.3309726645836" lon="16.144451882158126"><ele>952.9999999999999</ele><time>2026-04-28T08:17:12Z</time></trkpt><trkpt lat="38.3308864155417" lon="16.144448345359695"><ele>952.0</ele><time>2026-04-28T08:17:13Z</time></trkpt><trkpt lat="38.33080743680337" lon="16.14440462909594"><ele>951.0</ele><time>2026-04-28T08:17:14Z</time></trkpt><trkpt lat="38.330745145447345" lon="16.144339165569942"><ele>951.0</ele><time>2026-04-28T08:17:15Z</time></trkpt><trkpt lat="38.33069581420321" lon="16.144240696188138"><ele>951.0</ele><time>2026-04-28T08:17:16Z</time></trkpt><trkpt lat="38.33064991049182" lon="16.144102240436844"><ele>951.0</ele><time>2026-04-28T08:17:17Z</time></trkpt><trkpt lat="38.33060532117755" lon="16.14393133345558"><ele>951.0</ele><time>2026-04-28T08:17:18Z</time></trkpt><trkpt lat="38.33056476225793" lon="16.143723771870555"><ele>951.0</ele><time>2026-04-28T08:17:19Z</time></trkpt><trkpt lat="38.33051051162157" lon="16.143542413520482"><ele>951.0</ele><time>2026-04-28T08:17:20Z</time></trkpt><trkpt lat="38.330448571617865" lon="16.143374402692466"><ele>951.0</ele><time>2026-04-28T08:17:21Z</time></trkpt><trkpt lat="38.3304037187774" lon="16.143210601520575"><ele>951.0</ele><time>2026-04-28T08:17:22Z</time></trkpt><trkpt lat="38.33035386919209" lon="16.143039073875872"><ele>952.75</ele><time>2026-04-28T08:17:23Z</time></trkpt><trkpt lat="38.33029312764837" lon="16.142859407509626"><ele>954.5</ele><time>2026-04-28T08:17:24Z</time></trkpt><trkpt lat="38.33024540127541" lon="16.142695601847972"><ele>956.25</ele><time>2026-04-28T08:17:25Z</time></trkpt><trkpt lat="38.33019674894202" lon="16.14252342635464"><ele>958.0</ele><time>2026-04-28T08:17:26Z</time></trkpt><trkpt lat="38.330143079652544" lon="16.142351289085134"><ele>959.3333333333333</ele><time>2026-04-28T08:17:27Z</time></trkpt><trkpt lat="38.33009266469609" lon="16.1421662973237"><ele>960.6666666666667</ele><time>2026-04-28T08:17:28Z</time></trkpt><trkpt lat="38.33003067959016" lon="16.14197380854455"><ele>962.0</ele><time>2026-04-28T08:17:29Z</time></trkpt><trkpt lat="38.3299765873036" lon="16.14178238673766"><ele>962.0</ele><time>2026-04-28T08:17:30Z</time></trkpt><trkpt lat="38.32992330263995" lon="16.141604605165657"><ele>962.0</ele><time>2026-04-28T08:17:31Z</time></trkpt><trkpt lat="38.32987074522517" lon="16.141425342503954"><ele>962.0</ele><time>2026-04-28T08:17:32Z</time></trkpt><trkpt lat="38.32982071112357" lon="16.141240821833023"><ele>962.0</ele><time>2026-04-28T08:17:33Z</time></trkpt><trkpt lat="38.32976032171899" lon="16.141067158986935"><ele>962.0</ele><time>2026-04-28T08:17:34Z</time></trkpt><trkpt lat="38.32970241452998" lon="16.140884468216502"><ele>962.0</ele><time>2026-04-28T08:17:35Z</time></trkpt><trkpt lat="38.329647789812306" lon="16.140712874601146"><ele>962.0</ele><time>2026-04-28T08:17:36Z</time></trkpt><trkpt lat="38.32959679183518" lon="16.140529616675387"><ele>962.5</ele><time>2026-04-28T08:17:37Z</time></trkpt><trkpt lat="38.32954440183998" lon="16.14034929777953"><ele>963.0</ele><time>2026-04-28T08:17:38Z</time></trkpt><trkpt lat="38.329496866683996" lon="16.140176153886042"><ele>963.5</ele><time>2026-04-28T08:17:39Z</time></trkpt><trkpt lat="38.32945112887771" lon="16.139994461390557"><ele>964.0</ele><time>2026-04-28T08:17:40Z</time></trkpt><trkpt lat="38.32940228373874" lon="16.139806494449804"><ele>962.0</ele><time>2026-04-28T08:17:41Z</time></trkpt><trkpt lat="38.32934560248138" lon="16.139621627818492"><ele>960.0</ele><time>2026-04-28T08:17:42Z</time></trkpt><trkpt lat="38.32929404238159" lon="16.13942693505762"><ele>958.0</ele><time>2026-04-28T08:17:43Z</time></trkpt><trkpt lat="38.32923797460987" lon="16.139227079897676"><ele>958.6666666666666</ele><time>2026-04-28T08:17:44Z</time></trkpt><trkpt lat="38.32917657760181" lon="16.13903061477301"><ele>959.3333333333333</ele><time>2026-04-28T08:17:45Z</time></trkpt><trkpt lat="38.329111733161916" lon="16.138827903141156"><ele>960.0</ele><time>2026-04-28T08:17:46Z</time></trkpt><trkpt lat="38.329056708073615" lon="16.138630116221208"><ele>960.0</ele><time>2026-04-28T08:17:47Z</time></trkpt><trkpt lat="38.32900832601618" lon="16.138456799357968"><ele>960.0</ele><time>2026-04-28T08:17:48Z</time></trkpt><trkpt lat="38.328955812071555" lon="16.138297105878024"><ele>960.0</ele><time>2026-04-28T08:17:49Z</time></trkpt><trkpt lat="38.32891317092252" lon="16.138134258894897"><ele>960.0</ele><time>2026-04-28T08:17:50Z</time></trkpt><trkpt lat="38.328861729879634" lon="16.13799019604189"><ele>959.5</ele><time>2026-04-28T08:17:51Z</time></trkpt><trkpt lat="38.328824033135" lon="16.137865904821865"><ele>959.0</ele><time>2026-04-28T08:17:52Z</time></trkpt><trkpt lat="38.328802738767656" lon="16.137754388149098"><ele>958.5</ele><time>2026-04-28T08:17:53Z</time></trkpt><trkpt lat="38.3287749742227" lon="16.13767444797212"><ele>958.0</ele><time>2026-04-28T08:17:54Z</time></trkpt><trkpt lat="38.32876526454677" lon="16.137549552578605"><ele>957.5</ele><time>2026-04-28T08:17:56Z</time></trkpt><trkpt lat="38.32877069602399" lon="16.13745244025114"><ele>957.0</ele><time>2026-04-28T08:17:58Z</time></trkpt><trkpt lat="38.328729945822836" lon="16.137386942717797"><ele>957.2</ele><time>2026-04-28T08:17:59Z</time></trkpt><trkpt lat="38.32865483453171" lon="16.13734143924597"><ele>957.4000000000001</ele><time>2026-04-28T08:18:00Z</time></trkpt><trkpt lat="38.3285667071489" lon="16.13729774337953"><ele>957.5999999999999</ele><time>2026-04-28T08:18:01Z</time></trkpt><trkpt lat="38.32847749742993" lon="16.137248437269086"><ele>957.8</ele><time>2026-04-28T08:18:02Z</time></trkpt><trkpt lat="38.32839257518597" lon="16.137192769286408"><ele>958.0</ele><time>2026-04-28T08:18:03Z</time></trkpt><trkpt lat="38.32830487059867" lon="16.13712713575616"><ele>958.0</ele><time>2026-04-28T08:18:04Z</time></trkpt><trkpt lat="38.32820128792337" lon="16.137060807998573"><ele>958.0</ele><time>2026-04-28T08:18:05Z</time></trkpt><trkpt lat="38.3280941678319" lon="16.13698530138593"><ele>958.0</ele><time>2026-04-28T08:18:06Z</time></trkpt><trkpt lat="38.327981433929644" lon="16.136905441026226"><ele>958.0</ele><time>2026-04-28T08:18:07Z</time></trkpt><trkpt lat="38.32786563798341" lon="16.13682431637424"><ele>958.0</ele><time>2026-04-28T08:18:08Z</time></trkpt><trkpt lat="38.32774589778546" lon="16.136738777070224"><ele>958.0</ele><time>2026-04-28T08:18:09Z</time></trkpt><trkpt lat="38.32761992017104" lon="16.13665331769189"><ele>958.0</ele><time>2026-04-28T08:18:10Z</time></trkpt><trkpt lat="38.32749544295418" lon="16.136567070427386"><ele>958.0</ele><time>2026-04-28T08:18:11Z</time></trkpt><trkpt lat="38.327367134092995" lon="16.136479757499103"><ele>958.0</ele><time>2026-04-28T08:18:12Z</time></trkpt><trkpt lat="38.32723648143897" lon="16.13638817649552"><ele>958.0</ele><time>2026-04-28T08:18:13Z</time></trkpt><trkpt lat="38.32710046024759" lon="16.136298296531052"><ele>958.0</ele><time>2026-04-28T08:18:14Z</time></trkpt><trkpt lat="38.32696330810902" lon="16.13620453879259"><ele>956.3333333333333</ele><time>2026-04-28T08:18:15Z</time></trkpt><trkpt lat="38.32682014727368" lon="16.136108783004655"><ele>954.6666666666667</ele><time>2026-04-28T08:18:16Z</time></trkpt><trkpt lat="38.32667622829557" lon="16.136008261179764"><ele>953.0</ele><time>2026-04-28T08:18:17Z</time></trkpt><trkpt lat="38.326531858755025" lon="16.135907395030817"><ele>952.6666666666667</ele><time>2026-04-28T08:18:18Z</time></trkpt><trkpt lat="38.326388914871906" lon="16.135808519113294"><ele>952.3333333333333</ele><time>2026-04-28T08:18:19Z</time></trkpt><trkpt lat="38.3262447609544" lon="16.135716149895647"><ele>952.0</ele><time>2026-04-28T08:18:20Z</time></trkpt><trkpt lat="38.326100693458436" lon="16.13561971839953"><ele>951.6666666666666</ele><time>2026-04-28T08:18:21Z</time></trkpt><trkpt lat="38.32595346066491" lon="16.135521693952718"><ele>951.3333333333333</ele><time>2026-04-28T08:18:22Z</time></trkpt><trkpt lat="38.32581048890608" lon="16.135420361022835"><ele>951.0</ele><time>2026-04-28T08:18:23Z</time></trkpt><trkpt lat="38.32566130241106" lon="16.13532539516329"><ele>951.0</ele><time>2026-04-28T08:18:24Z</time></trkpt><trkpt lat="38.32550773929574" lon="16.13521478551885"><ele>951.0</ele><time>2026-04-28T08:18:25Z</time></trkpt><trkpt lat="38.32535370681012" lon="16.135114467662262"><ele>951.0</ele><time>2026-04-28T08:18:26Z</time></trkpt><trkpt lat="38.32519499006385" lon="16.135013301850268"><ele>951.0</ele><time>2026-04-28T08:18:27Z</time></trkpt><trkpt lat="38.325039560368054" lon="16.13490864880678"><ele>951.0</ele><time>2026-04-28T08:18:28Z</time></trkpt><trkpt lat="38.32488535727552" lon="16.134794883690073"><ele>951.0</ele><time>2026-04-28T08:18:29Z</time></trkpt><trkpt lat="38.32473266478243" lon="16.13470220833109"><ele>949.6666666666667</ele><time>2026-04-28T08:18:30Z</time></trkpt><trkpt lat="38.324586018390775" lon="16.134613006861063"><ele>948.3333333333334</ele><time>2026-04-28T08:18:31Z</time></trkpt><trkpt lat="38.324442978755165" lon="16.13450603681611"><ele>947.0</ele><time>2026-04-28T08:18:32Z</time></trkpt><trkpt lat="38.32429824095475" lon="16.134401258503367"><ele>947.0</ele><time>2026-04-28T08:18:33Z</time></trkpt><trkpt lat="38.32414846305562" lon="16.134306564838084"><ele>947.0</ele><time>2026-04-28T08:18:34Z</time></trkpt><trkpt lat="38.32399572368178" lon="16.134210114005956"><ele>947.0</ele><time>2026-04-28T08:18:35Z</time></trkpt><trkpt lat="38.323839302907544" lon="16.134103260487638"><ele>946.6666666666667</ele><time>2026-04-28T08:18:36Z</time></trkpt><trkpt lat="38.323688726052524" lon="16.133998619578403"><ele>946.3333333333333</ele><time>2026-04-28T08:18:37Z</time></trkpt><trkpt lat="38.32353477287908" lon="16.133896975924113"><ele>946.0</ele><time>2026-04-28T08:18:38Z</time></trkpt><trkpt lat="38.32338167878419" lon="16.133795780108827"><ele>946.0</ele><time>2026-04-28T08:18:39Z</time></trkpt><trkpt lat="38.32322864695993" lon="16.133693471106994"><ele>946.0</ele><time>2026-04-28T08:18:40Z</time></trkpt><trkpt lat="38.32307429670214" lon="16.133591120129843"><ele>946.0</ele><time>2026-04-28T08:18:41Z</time></trkpt><trkpt lat="38.322919952763705" lon="16.13349363043571"><ele>945.6666666666666</ele><time>2026-04-28T08:18:42Z</time></trkpt><trkpt lat="38.322774289179605" lon="16.133395422810587"><ele>945.3333333333333</ele><time>2026-04-28T08:18:43Z</time></trkpt><trkpt lat="38.322628519926575" lon="16.133296442110506"><ele>945.0</ele><time>2026-04-28T08:18:44Z</time></trkpt><trkpt lat="38.32248231031563" lon="16.133193203963437"><ele>944.6666666666667</ele><time>2026-04-28T08:18:45Z</time></trkpt><trkpt lat="38.32233395929339" lon="16.1330965383505"><ele>944.3333333333334</ele><time>2026-04-28T08:18:46Z</time></trkpt><trkpt lat="38.32218680948708" lon="16.13299773345415"><ele>944.0</ele><time>2026-04-28T08:18:47Z</time></trkpt><trkpt lat="38.322041461328666" lon="16.132902340030697"><ele>944.0</ele><time>2026-04-28T08:18:48Z</time></trkpt><trkpt lat="38.32189757037338" lon="16.132806503367593"><ele>944.0</ele><time>2026-04-28T08:18:49.001Z</time></trkpt><trkpt lat="38.321752213911665" lon="16.132712018685687"><ele>944.0</ele><time>2026-04-28T08:18:50.001Z</time></trkpt><trkpt lat="38.32160752365181" lon="16.13262033365976"><ele>944.0</ele><time>2026-04-28T08:18:51.001Z</time></trkpt><trkpt lat="38.32146288542979" lon="16.132525970203584"><ele>944.0</ele><time>2026-04-28T08:18:52.001Z</time></trkpt><trkpt lat="38.321321500679936" lon="16.132435676772946"><ele>944.0</ele><time>2026-04-28T08:18:53.001Z</time></trkpt><trkpt lat="38.321181019667726" lon="16.13234967851959"><ele>945.6666666666667</ele><time>2026-04-28T08:18:54.001Z</time></trkpt><trkpt lat="38.32103735563113" lon="16.132268861025164"><ele>947.3333333333333</ele><time>2026-04-28T08:18:55.001Z</time></trkpt><trkpt lat="38.32090119967673" lon="16.132178221573547"><ele>949.0</ele><time>2026-04-28T08:18:56.001Z</time></trkpt><trkpt lat="38.32076471464284" lon="16.13208742945492"><ele>949.0</ele><time>2026-04-28T08:18:57.001Z</time></trkpt><trkpt lat="38.32062645646943" lon="16.131998542844123"><ele>949.0</ele><time>2026-04-28T08:18:58.001Z</time></trkpt><trkpt lat="38.32049064591887" lon="16.13191085619919"><ele>949.0</ele><time>2026-04-28T08:18:59.001Z</time></trkpt><trkpt lat="38.32035421251921" lon="16.131829450276275"><ele>948.0</ele><time>2026-04-28T08:19:00.001Z</time></trkpt><trkpt lat="38.320219771667546" lon="16.131741900166357"><ele>947.0</ele><time>2026-04-28T08:19:01.001Z</time></trkpt><trkpt lat="38.320086252728245" lon="16.13164843612462"><ele>946.0</ele><time>2026-04-28T08:19:02.001Z</time></trkpt><trkpt lat="38.31995158266956" lon="16.131554601992175"><ele>945.6666666666666</ele><time>2026-04-28T08:19:03.001Z</time></trkpt><trkpt lat="38.319815940710896" lon="16.131462669698237"><ele>945.3333333333333</ele><time>2026-04-28T08:19:04.001Z</time></trkpt><trkpt lat="38.31967695991432" lon="16.13137712558792"><ele>945.0</ele><time>2026-04-28T08:19:05.001Z</time></trkpt><trkpt lat="38.3195406821144" lon="16.131293320605582"><ele>944.3333333333333</ele><time>2026-04-28T08:19:06.001Z</time></trkpt><trkpt lat="38.31940474668498" lon="16.131202730270175"><ele>943.6666666666666</ele><time>2026-04-28T08:19:07Z</time></trkpt><trkpt lat="38.31926854581522" lon="16.13111257218849"><ele>943.0</ele><time>2026-04-28T08:19:08Z</time></trkpt><trkpt lat="38.31913077137771" lon="16.131019624706383"><ele>943.0</ele><time>2026-04-28T08:19:09Z</time></trkpt><trkpt lat="38.318991719051" lon="16.13093437595537"><ele>943.0</ele><time>2026-04-28T08:19:10Z</time></trkpt><trkpt lat="38.3188505485478" lon="16.13084299938815"><ele>943.0</ele><time>2026-04-28T08:19:11Z</time></trkpt><trkpt lat="38.31870857989772" lon="16.130750402582606"><ele>941.6666666666666</ele><time>2026-04-28T08:19:12Z</time></trkpt><trkpt lat="38.31856548826189" lon="16.130658351868412"><ele>940.3333333333333</ele><time>2026-04-28T08:19:13Z</time></trkpt><trkpt lat="38.31842256795862" lon="16.130562568083402"><ele>939.0</ele><time>2026-04-28T08:19:14Z</time></trkpt><trkpt lat="38.318279999252425" lon="16.130468777132723"><ele>939.0</ele><time>2026-04-28T08:19:15Z</time></trkpt><trkpt lat="38.318142479890874" lon="16.130377272881326"><ele>939.0</ele><time>2026-04-28T08:19:16Z</time></trkpt><trkpt lat="38.3180003865282" lon="16.13028798542618"><ele>939.0</ele><time>2026-04-28T08:19:17Z</time></trkpt><trkpt lat="38.31785664636604" lon="16.13019669041255"><ele>939.6666666666667</ele><time>2026-04-28T08:19:18Z</time></trkpt><trkpt lat="38.3177117048236" lon="16.130101138882544"><ele>940.3333333333334</ele><time>2026-04-28T08:19:19Z</time></trkpt><trkpt lat="38.317563842719935" lon="16.130004957771277"><ele>941.0</ele><time>2026-04-28T08:19:20Z</time></trkpt><trkpt lat="38.31741723108093" lon="16.129917945019205"><ele>940.6666666666667</ele><time>2026-04-28T08:19:21Z</time></trkpt><trkpt lat="38.317270455088014" lon="16.129829410403918"><ele>940.3333333333333</ele><time>2026-04-28T08:19:22Z</time></trkpt><trkpt lat="38.3171237629441" lon="16.1297369444096"><ele>940.0</ele><time>2026-04-28T08:19:23Z</time></trkpt><trkpt lat="38.31697873659122" lon="16.129637973457587"><ele>941.0</ele><time>2026-04-28T08:19:24Z</time></trkpt><trkpt lat="38.316829543518935" lon="16.12953786014111"><ele>942.0</ele><time>2026-04-28T08:19:25Z</time></trkpt><trkpt lat="38.31667884684921" lon="16.129437359007735"><ele>943.0</ele><time>2026-04-28T08:19:26Z</time></trkpt><trkpt lat="38.31652844711743" lon="16.129338743599977"><ele>942.3333333333333</ele><time>2026-04-28T08:19:27Z</time></trkpt><trkpt lat="38.31637746224939" lon="16.129243048043524"><ele>941.6666666666667</ele><time>2026-04-28T08:19:28Z</time></trkpt><trkpt lat="38.316227985361635" lon="16.129143195086645"><ele>941.0</ele><time>2026-04-28T08:19:29Z</time></trkpt><trkpt lat="38.31607712639089" lon="16.12904464136355"><ele>941.0</ele><time>2026-04-28T08:19:30Z</time></trkpt><trkpt lat="38.315926058451765" lon="16.12894745152326"><ele>941.0</ele><time>2026-04-28T08:19:31Z</time></trkpt><trkpt lat="38.31577544311154" lon="16.128853326401185"><ele>941.0</ele><time>2026-04-28T08:19:32Z</time></trkpt><trkpt lat="38.315625681385335" lon="16.12876212858113"><ele>941.6666666666667</ele><time>2026-04-28T08:19:33Z</time></trkpt><trkpt lat="38.31547837064208" lon="16.128669797551943"><ele>942.3333333333333</ele><time>2026-04-28T08:19:34Z</time></trkpt><trkpt lat="38.31533209637045" lon="16.128581606888016"><ele>943.0</ele><time>2026-04-28T08:19:35Z</time></trkpt><trkpt lat="38.315185504803786" lon="16.12849017915436"><ele>943.0</ele><time>2026-04-28T08:19:36Z</time></trkpt><trkpt lat="38.31504021390306" lon="16.128398978892097"><ele>943.0</ele><time>2026-04-28T08:19:37Z</time></trkpt><trkpt lat="38.31489611881499" lon="16.12830489390846"><ele>943.0</ele><time>2026-04-28T08:19:38Z</time></trkpt><trkpt lat="38.314752417733395" lon="16.128207213002412"><ele>943.0</ele><time>2026-04-28T08:19:39Z</time></trkpt><trkpt lat="38.31460916733589" lon="16.12810137914507"><ele>943.0</ele><time>2026-04-28T08:19:40Z</time></trkpt><trkpt lat="38.31446316054677" lon="16.128005669003155"><ele>943.0</ele><time>2026-04-28T08:19:41Z</time></trkpt><trkpt lat="38.31431871378785" lon="16.12791490264635"><ele>943.0</ele><time>2026-04-28T08:19:42Z</time></trkpt><trkpt lat="38.31417251419906" lon="16.12782518789503"><ele>943.0</ele><time>2026-04-28T08:19:43Z</time></trkpt><trkpt lat="38.31403146381253" lon="16.127725754471335"><ele>943.0</ele><time>2026-04-28T08:19:44Z</time></trkpt><trkpt lat="38.31388798874679" lon="16.127629061599286"><ele>943.3333333333333</ele><time>2026-04-28T08:19:45Z</time></trkpt><trkpt lat="38.31374620676582" lon="16.127535448630436"><ele>943.6666666666667</ele><time>2026-04-28T08:19:46Z</time></trkpt><trkpt lat="38.31360749033754" lon="16.127443002165133"><ele>944.0</ele><time>2026-04-28T08:19:47Z</time></trkpt><trkpt lat="38.31346648984135" lon="16.127348999177162"><ele>944.0</ele><time>2026-04-28T08:19:48Z</time></trkpt><trkpt lat="38.31332763558954" lon="16.127258657176505"><ele>944.0</ele><time>2026-04-28T08:19:49Z</time></trkpt><trkpt lat="38.31318260827256" lon="16.12717112271631"><ele>944.0</ele><time>2026-04-28T08:19:50Z</time></trkpt><trkpt lat="38.313043061468655" lon="16.12708109151569"><ele>944.3333333333334</ele><time>2026-04-28T08:19:51Z</time></trkpt><trkpt lat="38.31290582052882" lon="16.1269796180768"><ele>944.6666666666667</ele><time>2026-04-28T08:19:52Z</time></trkpt><trkpt lat="38.312767542822705" lon="16.12687874516401"><ele>945.0</ele><time>2026-04-28T08:19:53Z</time></trkpt><trkpt lat="38.312625714222975" lon="16.12678458738074"><ele>945.0</ele><time>2026-04-28T08:19:54Z</time></trkpt><trkpt lat="38.31248358198637" lon="16.126688365622517"><ele>945.0</ele><time>2026-04-28T08:19:55Z</time></trkpt><trkpt lat="38.312340337040574" lon="16.126594083835307"><ele>945.0</ele><time>2026-04-28T08:19:56Z</time></trkpt><trkpt lat="38.31219654247346" lon="16.12650041721195"><ele>945.6666666666667</ele><time>2026-04-28T08:19:57Z</time></trkpt><trkpt lat="38.31205183433306" lon="16.126406739029193"><ele>946.3333333333334</ele><time>2026-04-28T08:19:58Z</time></trkpt><trkpt lat="38.31191053486858" lon="16.126306408318555"><ele>947.0</ele><time>2026-04-28T08:19:59Z</time></trkpt><trkpt lat="38.3117671179649" lon="16.12620474305415"><ele>947.0</ele><time>2026-04-28T08:20:00Z</time></trkpt><trkpt lat="38.31162570788153" lon="16.12610134671604"><ele>947.0</ele><time>2026-04-28T08:20:01Z</time></trkpt><trkpt lat="38.311483014639066" lon="16.12600279488495"><ele>947.0</ele><time>2026-04-28T08:20:02Z</time></trkpt><trkpt lat="38.31134261865137" lon="16.125905539861723"><ele>948.6666666666667</ele><time>2026-04-28T08:20:03Z</time></trkpt><trkpt lat="38.311204496655826" lon="16.125807598823062"><ele>950.3333333333333</ele><time>2026-04-28T08:20:04Z</time></trkpt><trkpt lat="38.311068668570854" lon="16.125699182336422"><ele>952.0</ele><time>2026-04-28T08:20:05Z</time></trkpt><trkpt lat="38.3109432528077" lon="16.12557185972771"><ele>952.0</ele><time>2026-04-28T08:20:06Z</time></trkpt><trkpt lat="38.31082622873301" lon="16.125432179808463"><ele>952.0</ele><time>2026-04-28T08:20:07Z</time></trkpt><trkpt lat="38.31072488483915" lon="16.125277093452"><ele>952.0</ele><time>2026-04-28T08:20:08Z</time></trkpt><trkpt lat="38.3106315168617" lon="16.12510788819551"><ele>954.3333333333333</ele><time>2026-04-28T08:20:09Z</time></trkpt><trkpt lat="38.31055007496069" lon="16.124935953681902"><ele>956.6666666666667</ele><time>2026-04-28T08:20:10Z</time></trkpt><trkpt lat="38.31047711274313" lon="16.124756828143695"><ele>959.0</ele><time>2026-04-28T08:20:11Z</time></trkpt><trkpt lat="38.31041810073455" lon="16.12457171055696"><ele>959.5</ele><time>2026-04-28T08:20:12Z</time></trkpt><trkpt lat="38.31037449890257" lon="16.12439044458574"><ele>960.0</ele><time>2026-04-28T08:20:13Z</time></trkpt><trkpt lat="38.31033580360575" lon="16.124208673719505"><ele>960.5</ele><time>2026-04-28T08:20:14Z</time></trkpt><trkpt lat="38.3102961525829" lon="16.12403161774479"><ele>961.0</ele><time>2026-04-28T08:20:15Z</time></trkpt><trkpt lat="38.310256338490035" lon="16.123871965436177"><ele>960.0</ele><time>2026-04-28T08:20:16Z</time></trkpt><trkpt lat="38.310205939240305" lon="16.123719482049374"><ele>959.0</ele><time>2026-04-28T08:20:17Z</time></trkpt><trkpt lat="38.31014325988413" lon="16.123575568857145"><ele>958.0</ele><time>2026-04-28T08:20:18Z</time></trkpt><trkpt lat="38.310058705109086" lon="16.123439086256848"><ele>957.0</ele><time>2026-04-28T08:20:19Z</time></trkpt><trkpt lat="38.309958635945456" lon="16.12332198584739"><ele>956.75</ele><time>2026-04-28T08:20:20Z</time></trkpt><trkpt lat="38.30984247773958" lon="16.12321897671811"><ele>956.5</ele><time>2026-04-28T08:20:21Z</time></trkpt><trkpt lat="38.30970712644489" lon="16.12313275840079"><ele>956.25</ele><time>2026-04-28T08:20:22Z</time></trkpt><trkpt lat="38.30958046256513" lon="16.123056438259496"><ele>956.0</ele><time>2026-04-28T08:20:23Z</time></trkpt><trkpt lat="38.30946510619437" lon="16.122972271935957"><ele>958.1999999999999</ele><time>2026-04-28T08:20:24Z</time></trkpt><trkpt lat="38.30936303476221" lon="16.122891360411316"><ele>960.3999999999999</ele><time>2026-04-28T08:20:25Z</time></trkpt><trkpt lat="38.30927368548403" lon="16.12281240837543"><ele>962.6</ele><time>2026-04-28T08:20:26Z</time></trkpt><trkpt lat="38.30919363004043" lon="16.122719156991373"><ele>964.8</ele><time>2026-04-28T08:20:27Z</time></trkpt><trkpt lat="38.30912122479493" lon="16.122611405097047"><ele>967.0</ele><time>2026-04-28T08:20:28Z</time></trkpt><trkpt lat="38.309063662046064" lon="16.122486041294472"><ele>968.0</ele><time>2026-04-28T08:20:29Z</time></trkpt><trkpt lat="38.30902771699308" lon="16.122327363436074"><ele>969.0</ele><time>2026-04-28T08:20:30Z</time></trkpt><trkpt lat="38.309017085312426" lon="16.122166977121157"><ele>970.0</ele><time>2026-04-28T08:20:31Z</time></trkpt><trkpt lat="38.309018901892976" lon="16.122012215341435"><ele>971.0</ele><time>2026-04-28T08:20:32Z</time></trkpt><trkpt lat="38.30902633093131" lon="16.1218623817835"><ele>971.0</ele><time>2026-04-28T08:20:33Z</time></trkpt><trkpt lat="38.30903138498695" lon="16.121706052008065"><ele>971.0</ele><time>2026-04-28T08:20:34Z</time></trkpt><trkpt lat="38.3090391905193" lon="16.12156760699728"><ele>971.0</ele><time>2026-04-28T08:20:35Z</time></trkpt><trkpt lat="38.30904633130589" lon="16.121422357125365"><ele>971.0</ele><time>2026-04-28T08:20:36Z</time></trkpt><trkpt lat="38.309045885961964" lon="16.121266432206195"><ele>970.75</ele><time>2026-04-28T08:20:37Z</time></trkpt><trkpt lat="38.30905149887878" lon="16.121109439767597"><ele>970.5</ele><time>2026-04-28T08:20:38Z</time></trkpt><trkpt lat="38.30904608435666" lon="16.12097011806572"><ele>970.25</ele><time>2026-04-28T08:20:39Z</time></trkpt><trkpt lat="38.30903189188623" lon="16.120822159476436"><ele>970.0</ele><time>2026-04-28T08:20:40Z</time></trkpt><trkpt lat="38.309012598370266" lon="16.12067553643007"><ele>970.0</ele><time>2026-04-28T08:20:41Z</time></trkpt><trkpt lat="38.308989912914114" lon="16.120529063771656"><ele>970.0</ele><time>2026-04-28T08:20:42Z</time></trkpt><trkpt lat="38.30895447885938" lon="16.120379914335064"><ele>970.0</ele><time>2026-04-28T08:20:43Z</time></trkpt><trkpt lat="38.30891157824245" lon="16.120232907731793"><ele>970.0</ele><time>2026-04-28T08:20:44Z</time></trkpt><trkpt lat="38.308861947618155" lon="16.120094456496194"><ele>970.25</ele><time>2026-04-28T08:20:45Z</time></trkpt><trkpt lat="38.30879135011227" lon="16.11996417442196"><ele>970.5</ele><time>2026-04-28T08:20:46Z</time></trkpt><trkpt lat="38.30871608079128" lon="16.119821445700346"><ele>970.75</ele><time>2026-04-28T08:20:47Z</time></trkpt><trkpt lat="38.30863228397132" lon="16.1196828137131"><ele>971.0</ele><time>2026-04-28T08:20:48Z</time></trkpt><trkpt lat="38.30855988821018" lon="16.119549963092226"><ele>971.0</ele><time>2026-04-28T08:20:49Z</time></trkpt><trkpt lat="38.30849252282817" lon="16.119408548254057"><ele>971.0</ele><time>2026-04-28T08:20:50Z</time></trkpt><trkpt lat="38.30842220318832" lon="16.119253815877048"><ele>971.0</ele><time>2026-04-28T08:20:51Z</time></trkpt><trkpt lat="38.308348301311376" lon="16.119092368832295"><ele>971.0</ele><time>2026-04-28T08:20:52Z</time></trkpt><trkpt lat="38.30829487923171" lon="16.118920599447833"><ele>971.75</ele><time>2026-04-28T08:20:53Z</time></trkpt><trkpt lat="38.308235265415576" lon="16.118753486989803"><ele>972.5</ele><time>2026-04-28T08:20:54Z</time></trkpt><trkpt lat="38.30816024049029" lon="16.118590978235304"><ele>973.25</ele><time>2026-04-28T08:20:55.001Z</time></trkpt><trkpt lat="38.308086701607294" lon="16.118438175852727"><ele>974.0</ele><time>2026-04-28T08:20:56.001Z</time></trkpt><trkpt lat="38.30802333506231" lon="16.118282397467155"><ele>974.25</ele><time>2026-04-28T08:20:57.001Z</time></trkpt><trkpt lat="38.307962284368166" lon="16.118115224261228"><ele>974.5</ele><time>2026-04-28T08:20:58.001Z</time></trkpt><trkpt lat="38.30791181008088" lon="16.11795654441901"><ele>974.75</ele><time>2026-04-28T08:20:59.001Z</time></trkpt><trkpt lat="38.30788127329263" lon="16.117805312497683"><ele>975.0</ele><time>2026-04-28T08:21:00.001Z</time></trkpt><trkpt lat="38.307864253460814" lon="16.11765162998186"><ele>975.0</ele><time>2026-04-28T08:21:01.001Z</time></trkpt><trkpt lat="38.307857499468604" lon="16.117496701986408"><ele>975.0</ele><time>2026-04-28T08:21:02.001Z</time></trkpt><trkpt lat="38.307867301477955" lon="16.117336731946413"><ele>975.0</ele><time>2026-04-28T08:21:03.001Z</time></trkpt><trkpt lat="38.3078853741688" lon="16.117171768889502"><ele>975.0</ele><time>2026-04-28T08:21:04Z</time></trkpt><trkpt lat="38.307906810212714" lon="16.117005179702325"><ele>974.0</ele><time>2026-04-28T08:21:05Z</time></trkpt><trkpt lat="38.30793067428547" lon="16.11682206786817"><ele>973.0</ele><time>2026-04-28T08:21:06Z</time></trkpt><trkpt lat="38.30794035845363" lon="16.11665450558563"><ele>972.0</ele><time>2026-04-28T08:21:07Z</time></trkpt><trkpt lat="38.30795006276896" lon="16.116487786589474"><ele>971.0</ele><time>2026-04-28T08:21:08Z</time></trkpt><trkpt lat="38.30795577964711" lon="16.116319921394236"><ele>970.75</ele><time>2026-04-28T08:21:09Z</time></trkpt><trkpt lat="38.30795698483222" lon="16.116141143913133"><ele>970.5</ele><time>2026-04-28T08:21:10Z</time></trkpt><trkpt lat="38.307943479880436" lon="16.115958773974"><ele>970.25</ele><time>2026-04-28T08:21:11Z</time></trkpt><trkpt lat="38.307922890717144" lon="16.11578286407509"><ele>970.0</ele><time>2026-04-28T08:21:12Z</time></trkpt><trkpt lat="38.307899800023186" lon="16.115602139242352"><ele>970.0</ele><time>2026-04-28T08:21:13Z</time></trkpt><trkpt lat="38.307873240016384" lon="16.11542364167289"><ele>970.0</ele><time>2026-04-28T08:21:14Z</time></trkpt><trkpt lat="38.30784228659786" lon="16.115249293949727"><ele>970.0</ele><time>2026-04-28T08:21:15Z</time></trkpt><trkpt lat="38.30781884081142" lon="16.115071021340228"><ele>970.0</ele><time>2026-04-28T08:21:16Z</time></trkpt><trkpt lat="38.3077773404423" lon="16.11489321615234"><ele>969.5</ele><time>2026-04-28T08:21:17Z</time></trkpt><trkpt lat="38.307717360857055" lon="16.114718410451516"><ele>969.0</ele><time>2026-04-28T08:21:18Z</time></trkpt><trkpt lat="38.30765592273046" lon="16.114550926700403"><ele>968.5</ele><time>2026-04-28T08:21:19Z</time></trkpt><trkpt lat="38.30759095568867" lon="16.11438861554489"><ele>968.0</ele><time>2026-04-28T08:21:20Z</time></trkpt><trkpt lat="38.30752595643199" lon="16.114227406983794"><ele>967.75</ele><time>2026-04-28T08:21:21Z</time></trkpt><trkpt lat="38.30746147332523" lon="16.114065342049745"><ele>967.5</ele><time>2026-04-28T08:21:22Z</time></trkpt><trkpt lat="38.30739627035623" lon="16.11390580294311"><ele>967.25</ele><time>2026-04-28T08:21:23Z</time></trkpt><trkpt lat="38.307322235603245" lon="16.11377264328329"><ele>967.0</ele><time>2026-04-28T08:21:24Z</time></trkpt><trkpt lat="38.30723301122109" lon="16.11366207853634"><ele>967.0</ele><time>2026-04-28T08:21:25Z</time></trkpt><trkpt lat="38.30712777336635" lon="16.1135987851774"><ele>967.0</ele><time>2026-04-28T08:21:26Z</time></trkpt><trkpt lat="38.307010976646744" lon="16.11356348726498"><ele>967.0</ele><time>2026-04-28T08:21:27Z</time></trkpt><trkpt lat="38.306890633021865" lon="16.113571531802002"><ele>967.0</ele><time>2026-04-28T08:21:28Z</time></trkpt><trkpt lat="38.306779941602436" lon="16.113592810317428"><ele>967.0</ele><time>2026-04-28T08:21:29Z</time></trkpt><trkpt lat="38.30666538936546" lon="16.11360644331618"><ele>967.0</ele><time>2026-04-28T08:21:30Z</time></trkpt><trkpt lat="38.30654596645455" lon="16.113615869600228"><ele>967.0</ele><time>2026-04-28T08:21:31Z</time></trkpt><trkpt lat="38.30642169324955" lon="16.11363018091135"><ele>967.0</ele><time>2026-04-28T08:21:32Z</time></trkpt><trkpt lat="38.30629695526135" lon="16.11364535997135"><ele>967.75</ele><time>2026-04-28T08:21:33Z</time></trkpt><trkpt lat="38.30616640852275" lon="16.11365656243419"><ele>968.5</ele><time>2026-04-28T08:21:34Z</time></trkpt><trkpt lat="38.30603570532204" lon="16.113668306488833"><ele>969.25</ele><time>2026-04-28T08:21:35Z</time></trkpt><trkpt lat="38.305909022356914" lon="16.113678397044502"><ele>970.0</ele><time>2026-04-28T08:21:36Z</time></trkpt><trkpt lat="38.30578623691762" lon="16.113690918217397"><ele>970.0</ele><time>2026-04-28T08:21:37Z</time></trkpt><trkpt lat="38.30567145525779" lon="16.113707344132333"><ele>970.0</ele><time>2026-04-28T08:21:38Z</time></trkpt><trkpt lat="38.30556072544697" lon="16.11373573416157"><ele>970.0</ele><time>2026-04-28T08:21:39Z</time></trkpt><trkpt lat="38.30543852576988" lon="16.113775105718997"><ele>970.0</ele><time>2026-04-28T08:21:40Z</time></trkpt><trkpt lat="38.30531272478108" lon="16.11384300264921"><ele>972.25</ele><time>2026-04-28T08:21:41Z</time></trkpt><trkpt lat="38.30520871439034" lon="16.113920029860886"><ele>974.5</ele><time>2026-04-28T08:21:42Z</time></trkpt><trkpt lat="38.305096827049326" lon="16.113972658042897"><ele>976.75</ele><time>2026-04-28T08:21:43Z</time></trkpt><trkpt lat="38.30499396103928" lon="16.114019072521007"><ele>979.0</ele><time>2026-04-28T08:21:44Z</time></trkpt><trkpt lat="38.304886376064786" lon="16.11403567186585"><ele>979.0</ele><time>2026-04-28T08:21:45Z</time></trkpt><trkpt lat="38.30478468823798" lon="16.11403447372321"><ele>979.0</ele><time>2026-04-28T08:21:46Z</time></trkpt><trkpt lat="38.30467959813265" lon="16.114016800389276"><ele>979.0</ele><time>2026-04-28T08:21:47Z</time></trkpt><trkpt lat="38.304560732433764" lon="16.113979756172665"><ele>979.0</ele><time>2026-04-28T08:21:48Z</time></trkpt><trkpt lat="38.30443000855937" lon="16.113939252861872"><ele>979.75</ele><time>2026-04-28T08:21:49Z</time></trkpt><trkpt lat="38.304283710470436" lon="16.11389241354848"><ele>980.5</ele><time>2026-04-28T08:21:50Z</time></trkpt><trkpt lat="38.30415064329123" lon="16.113857091039673"><ele>981.25</ele><time>2026-04-28T08:21:51Z</time></trkpt><trkpt lat="38.304017190307725" lon="16.11380766417215"><ele>982.0</ele><time>2026-04-28T08:21:52Z</time></trkpt><trkpt lat="38.30389559160347" lon="16.113773349711103"><ele>982.5</ele><time>2026-04-28T08:21:53Z</time></trkpt><trkpt lat="38.30376987008858" lon="16.11371903424397"><ele>983.0</ele><time>2026-04-28T08:21:54Z</time></trkpt><trkpt lat="38.3036508688077" lon="16.11366189262891"><ele>983.5</ele><time>2026-04-28T08:21:55Z</time></trkpt><trkpt lat="38.30353228390736" lon="16.11360117021704"><ele>984.0</ele><time>2026-04-28T08:21:56Z</time></trkpt><trkpt lat="38.30340503745427" lon="16.113543539556108"><ele>984.0</ele><time>2026-04-28T08:21:57Z</time></trkpt><trkpt lat="38.303264844346465" lon="16.11352551916212"><ele>984.0</ele><time>2026-04-28T08:21:58Z</time></trkpt><trkpt lat="38.30311678275519" lon="16.113532683909355"><ele>984.0</ele><time>2026-04-28T08:21:59Z</time></trkpt><trkpt lat="38.30298402048472" lon="16.113555807187282"><ele>984.0</ele><time>2026-04-28T08:22:00Z</time></trkpt><trkpt lat="38.30284488214321" lon="16.113582766085063"><ele>983.75</ele><time>2026-04-28T08:22:01Z</time></trkpt><trkpt lat="38.30271008998361" lon="16.113598594683605"><ele>983.5</ele><time>2026-04-28T08:22:02Z</time></trkpt><trkpt lat="38.302580402402754" lon="16.11362027903971"><ele>983.25</ele><time>2026-04-28T08:22:03Z</time></trkpt><trkpt lat="38.30244693044709" lon="16.11364752035624"><ele>983.0</ele><time>2026-04-28T08:22:04Z</time></trkpt><trkpt lat="38.30230204849946" lon="16.11366107286161"><ele>983.5</ele><time>2026-04-28T08:22:05Z</time></trkpt><trkpt lat="38.30216531190406" lon="16.113677978086926"><ele>984.0</ele><time>2026-04-28T08:22:06Z</time></trkpt><trkpt lat="38.302032586523694" lon="16.113699937116834"><ele>984.5</ele><time>2026-04-28T08:22:07Z</time></trkpt><trkpt lat="38.30189979397506" lon="16.11371355479943"><ele>985.0</ele><time>2026-04-28T08:22:08Z</time></trkpt><trkpt lat="38.3017635589531" lon="16.113731031361368"><ele>985.0</ele><time>2026-04-28T08:22:09Z</time></trkpt><trkpt lat="38.30162109329571" lon="16.113746663055082"><ele>985.0</ele><time>2026-04-28T08:22:10Z</time></trkpt><trkpt lat="38.30147917587925" lon="16.11376982662169"><ele>985.0</ele><time>2026-04-28T08:22:11Z</time></trkpt><trkpt lat="38.30134089158958" lon="16.11378994593699"><ele>985.0</ele><time>2026-04-28T08:22:12Z</time></trkpt><trkpt lat="38.30120231743247" lon="16.113807800182155"><ele>986.5</ele><time>2026-04-28T08:22:13Z</time></trkpt><trkpt lat="38.30106165085288" lon="16.11382893310267"><ele>988.0</ele><time>2026-04-28T08:22:14Z</time></trkpt><trkpt lat="38.30091927628132" lon="16.113849257161366"><ele>989.5</ele><time>2026-04-28T08:22:15Z</time></trkpt><trkpt lat="38.30078063885458" lon="16.113874171049304"><ele>991.0</ele><time>2026-04-28T08:22:16Z</time></trkpt><trkpt lat="38.30064648619633" lon="16.11389284329265"><ele>990.25</ele><time>2026-04-28T08:22:17Z</time></trkpt><trkpt lat="38.30052068593358" lon="16.113915904831266"><ele>989.5</ele><time>2026-04-28T08:22:18Z</time></trkpt><trkpt lat="38.30038913186828" lon="16.113919839856734"><ele>988.75</ele><time>2026-04-28T08:22:19Z</time></trkpt><trkpt lat="38.300266218770524" lon="16.113922559263703"><ele>988.0</ele><time>2026-04-28T08:22:20Z</time></trkpt><trkpt lat="38.30014892519996" lon="16.113899332647893"><ele>988.0</ele><time>2026-04-28T08:22:21Z</time></trkpt><trkpt lat="38.30003546945286" lon="16.113832087553067"><ele>988.0</ele><time>2026-04-28T08:22:22Z</time></trkpt><trkpt lat="38.29992888925427" lon="16.11374556354821"><ele>988.0</ele><time>2026-04-28T08:22:23Z</time></trkpt><trkpt lat="38.299828331658716" lon="16.11364079108319"><ele>988.0</ele><time>2026-04-28T08:22:24Z</time></trkpt><trkpt lat="38.299734224178906" lon="16.11353160452604"><ele>989.0</ele><time>2026-04-28T08:22:25Z</time></trkpt><trkpt lat="38.299644147550026" lon="16.113392618454778"><ele>990.0</ele><time>2026-04-28T08:22:26Z</time></trkpt><trkpt lat="38.299554772440835" lon="16.113251008759804"><ele>991.0</ele><time>2026-04-28T08:22:27Z</time></trkpt><trkpt lat="38.29946754603878" lon="16.113117672734827"><ele>992.0</ele><time>2026-04-28T08:22:28Z</time></trkpt><trkpt lat="38.299403985693935" lon="16.11295618483874"><ele>992.0</ele><time>2026-04-28T08:22:29Z</time></trkpt><trkpt lat="38.299314312327716" lon="16.112821096391347"><ele>992.0</ele><time>2026-04-28T08:22:30Z</time></trkpt><trkpt lat="38.2992219490538" lon="16.112681955733745"><ele>992.0</ele><time>2026-04-28T08:22:31Z</time></trkpt><trkpt lat="38.299129328818786" lon="16.112542427941797"><ele>992.0</ele><time>2026-04-28T08:22:32Z</time></trkpt><trkpt lat="38.299035134941434" lon="16.112402592625664"><ele>993.25</ele><time>2026-04-28T08:22:33Z</time></trkpt><trkpt lat="38.29894257713498" lon="16.11227176762633"><ele>994.5</ele><time>2026-04-28T08:22:34Z</time></trkpt><trkpt lat="38.29884452321397" lon="16.112143296150833"><ele>995.75</ele><time>2026-04-28T08:22:35Z</time></trkpt><trkpt lat="38.298743179524294" lon="16.112021840081457"><ele>997.0</ele><time>2026-04-28T08:22:36Z</time></trkpt><trkpt lat="38.29863152920999" lon="16.111913912856725"><ele>998.0</ele><time>2026-04-28T08:22:37Z</time></trkpt><trkpt lat="38.29851883970536" lon="16.111820141086152"><ele>999.0</ele><time>2026-04-28T08:22:38Z</time></trkpt><trkpt lat="38.29840412653425" lon="16.111729804862996"><ele>1000.0</ele><time>2026-04-28T08:22:39Z</time></trkpt><trkpt lat="38.29829546974442" lon="16.111651935208922"><ele>1001.0</ele><time>2026-04-28T08:22:40Z</time></trkpt><trkpt lat="38.29818090857101" lon="16.11160006788303"><ele>1001.5</ele><time>2026-04-28T08:22:41Z</time></trkpt><trkpt lat="38.298063753367344" lon="16.111569452059243"><ele>1002.0</ele><time>2026-04-28T08:22:42Z</time></trkpt><trkpt lat="38.29794824954994" lon="16.11155746949535"><ele>1002.5</ele><time>2026-04-28T08:22:43Z</time></trkpt><trkpt lat="38.29782218694397" lon="16.1115610521159"><ele>1003.0</ele><time>2026-04-28T08:22:44Z</time></trkpt><trkpt lat="38.29769402676153" lon="16.111579903369694"><ele>1003.0</ele><time>2026-04-28T08:22:45Z</time></trkpt><trkpt lat="38.29755139968992" lon="16.11161123828513"><ele>1003.0</ele><time>2026-04-28T08:22:46Z</time></trkpt><trkpt lat="38.29741838155844" lon="16.111642714713273"><ele>1003.0</ele><time>2026-04-28T08:22:47Z</time></trkpt><trkpt lat="38.297282308008675" lon="16.111674914145564"><ele>1003.0</ele><time>2026-04-28T08:22:48Z</time></trkpt><trkpt lat="38.29715060364931" lon="16.111706825317256"><ele>1003.5</ele><time>2026-04-28T08:22:49Z</time></trkpt><trkpt lat="38.29702739138285" lon="16.111736833216046"><ele>1004.0</ele><time>2026-04-28T08:22:50Z</time></trkpt><trkpt lat="38.29691618743364" lon="16.11175956468319"><ele>1004.5</ele><time>2026-04-28T08:22:51Z</time></trkpt><trkpt lat="38.29679245680009" lon="16.11177584237061"><ele>1005.0</ele><time>2026-04-28T08:22:52Z</time></trkpt><trkpt lat="38.29666724867501" lon="16.111784005046612"><ele>1005.0</ele><time>2026-04-28T08:22:53Z</time></trkpt><trkpt lat="38.29654418254026" lon="16.111775450210832"><ele>1005.0</ele><time>2026-04-28T08:22:54Z</time></trkpt><trkpt lat="38.2964203237668" lon="16.11174755571572"><ele>1005.0</ele><time>2026-04-28T08:22:55Z</time></trkpt><trkpt lat="38.296296218905134" lon="16.111704191003977"><ele>1005.0</ele><time>2026-04-28T08:22:56Z</time></trkpt><trkpt lat="38.29616198967494" lon="16.11165406364148"><ele>1004.75</ele><time>2026-04-28T08:22:57Z</time></trkpt><trkpt lat="38.296029841254814" lon="16.11160258992293"><ele>1004.5</ele><time>2026-04-28T08:22:58Z</time></trkpt><trkpt lat="38.29590535256483" lon="16.1115538688594"><ele>1004.25</ele><time>2026-04-28T08:22:59Z</time></trkpt><trkpt lat="38.295783558935604" lon="16.111506559842546"><ele>1004.0</ele><time>2026-04-28T08:23:00Z</time></trkpt><trkpt lat="38.29566183772549" lon="16.11146120627909"><ele>1005.25</ele><time>2026-04-28T08:23:01Z</time></trkpt><trkpt lat="38.29553758229445" lon="16.111415810952813"><ele>1006.5</ele><time>2026-04-28T08:23:02Z</time></trkpt><trkpt lat="38.29541750232625" lon="16.111371260899926"><ele>1007.75</ele><time>2026-04-28T08:23:03Z</time></trkpt><trkpt lat="38.295292504105895" lon="16.111321563632142"><ele>1009.0</ele><time>2026-04-28T08:23:04Z</time></trkpt><trkpt lat="38.29517425093906" lon="16.111272569793748"><ele>1009.0</ele><time>2026-04-28T08:23:05Z</time></trkpt><trkpt lat="38.29505667265201" lon="16.111221425376755"><ele>1009.0</ele><time>2026-04-28T08:23:06Z</time></trkpt><trkpt lat="38.29494159124961" lon="16.111168664930783"><ele>1009.0</ele><time>2026-04-28T08:23:07Z</time></trkpt><trkpt lat="38.29482409153488" lon="16.111111886870134"><ele>1009.0</ele><time>2026-04-28T08:23:08Z</time></trkpt><trkpt lat="38.29470321060627" lon="16.111052155414217"><ele>1009.5</ele><time>2026-04-28T08:23:09Z</time></trkpt><trkpt lat="38.294580518798675" lon="16.110990189140313"><ele>1010.0</ele><time>2026-04-28T08:23:10Z</time></trkpt><trkpt lat="38.294466852186105" lon="16.110930984656427"><ele>1010.5</ele><time>2026-04-28T08:23:11Z</time></trkpt><trkpt lat="38.2943549355475" lon="16.110872500849144"><ele>1011.0</ele><time>2026-04-28T08:23:12Z</time></trkpt><trkpt lat="38.294248993267864" lon="16.110813475138336"><ele>1011.0</ele><time>2026-04-28T08:23:13Z</time></trkpt><trkpt lat="38.294146935280395" lon="16.110752354396272"><ele>1011.0</ele><time>2026-04-28T08:23:14Z</time></trkpt><trkpt lat="38.29404103451222" lon="16.110682735793187"><ele>1011.0</ele><time>2026-04-28T08:23:15Z</time></trkpt><trkpt lat="38.29394057355238" lon="16.110604482794145"><ele>1011.0</ele><time>2026-04-28T08:23:16Z</time></trkpt><trkpt lat="38.29384068798849" lon="16.11051217941196"><ele>1010.5</ele><time>2026-04-28T08:23:17Z</time></trkpt><trkpt lat="38.293734813995755" lon="16.110418337443303"><ele>1010.0</ele><time>2026-04-28T08:23:18Z</time></trkpt><trkpt lat="38.293634870494486" lon="16.11033473948471"><ele>1009.5</ele><time>2026-04-28T08:23:19Z</time></trkpt><trkpt lat="38.293524869405914" lon="16.110250803196195"><ele>1009.0</ele><time>2026-04-28T08:23:20Z</time></trkpt><trkpt lat="38.29340208742315" lon="16.110180319978824"><ele>1009.0</ele><time>2026-04-28T08:23:21Z</time></trkpt><trkpt lat="38.293264540751046" lon="16.110125645477634"><ele>1009.0</ele><time>2026-04-28T08:23:22Z</time></trkpt><trkpt lat="38.29312651609608" lon="16.110073894108595"><ele>1009.0</ele><time>2026-04-28T08:23:23Z</time></trkpt><trkpt lat="38.29299018320838" lon="16.110027987211662"><ele>1009.0</ele><time>2026-04-28T08:23:24Z</time></trkpt><trkpt lat="38.29286953339751" lon="16.10998900228651"><ele>1008.0</ele><time>2026-04-28T08:23:25Z</time></trkpt><trkpt lat="38.29275816201238" lon="16.10995339550188"><ele>1007.0</ele><time>2026-04-28T08:23:26Z</time></trkpt><trkpt lat="38.29264323874636" lon="16.109931089627217"><ele>1006.0</ele><time>2026-04-28T08:23:27Z</time></trkpt><trkpt lat="38.29252463478473" lon="16.109948373210347"><ele>1005.0</ele><time>2026-04-28T08:23:28Z</time></trkpt><trkpt lat="38.2924033170359" lon="16.109976513555324"><ele>1005.0</ele><time>2026-04-28T08:23:29Z</time></trkpt><trkpt lat="38.29229984800875" lon="16.110003372482694"><ele>1005.0</ele><time>2026-04-28T08:23:30Z</time></trkpt><trkpt lat="38.29219917714408" lon="16.11002110227538"><ele>1005.0</ele><time>2026-04-28T08:23:31Z</time></trkpt><trkpt lat="38.29210292504346" lon="16.11001313119351"><ele>1005.0</ele><time>2026-04-28T08:23:32Z</time></trkpt><trkpt lat="38.29199855334817" lon="16.10997379656938"><ele>1005.0</ele><time>2026-04-28T08:23:33Z</time></trkpt><trkpt lat="38.2918743777026" lon="16.109922492039242"><ele>1004.0</ele><time>2026-04-28T08:23:34Z</time></trkpt><trkpt lat="38.29175248152736" lon="16.10986624510822"><ele>1003.0</ele><time>2026-04-28T08:23:35Z</time></trkpt><trkpt lat="38.29164096947824" lon="16.10980911757943"><ele>1002.0</ele><time>2026-04-28T08:23:36Z</time></trkpt><trkpt lat="38.29155397219135" lon="16.10975510525799"><ele>1001.0</ele><time>2026-04-28T08:23:37Z</time></trkpt><trkpt lat="38.29147426947103" lon="16.109694793386318"><ele>1000.0</ele><time>2026-04-28T08:23:38Z</time></trkpt><trkpt lat="38.29138818766703" lon="16.10961182373656"><ele>997.0</ele><time>2026-04-28T08:23:39Z</time></trkpt><trkpt lat="38.29132165955177" lon="16.10952591782564"><ele>994.0</ele><time>2026-04-28T08:23:40Z</time></trkpt><trkpt lat="38.29126405704292" lon="16.10941613404203"><ele>991.0</ele><time>2026-04-28T08:23:41Z</time></trkpt><trkpt lat="38.29121167561491" lon="16.109292907465314"><ele>988.0</ele><time>2026-04-28T08:23:42Z</time></trkpt><trkpt lat="38.29118086983976" lon="16.109159600151855"><ele>985.0</ele><time>2026-04-28T08:23:43Z</time></trkpt><trkpt lat="38.291151727381845" lon="16.109013792731165"><ele>985.0</ele><time>2026-04-28T08:23:44Z</time></trkpt><trkpt lat="38.29115125601953" lon="16.10888650899027"><ele>985.0</ele><time>2026-04-28T08:23:45Z</time></trkpt><trkpt lat="38.291137041834915" lon="16.10876162798967"><ele>985.0</ele><time>2026-04-28T08:23:46Z</time></trkpt><trkpt lat="38.291121742623936" lon="16.108620139275498"><ele>985.0</ele><time>2026-04-28T08:23:47Z</time></trkpt><trkpt lat="38.291106007395484" lon="16.108468016924274"><ele>985.0</ele><time>2026-04-28T08:23:48Z</time></trkpt><trkpt lat="38.29109087180596" lon="16.108321691672426"><ele>986.5</ele><time>2026-04-28T08:23:49Z</time></trkpt><trkpt lat="38.291073264475685" lon="16.10815147061236"><ele>988.0</ele><time>2026-04-28T08:23:50Z</time></trkpt><trkpt lat="38.29105787208319" lon="16.107995167691307"><ele>989.5</ele><time>2026-04-28T08:23:51Z</time></trkpt><trkpt lat="38.29104370080927" lon="16.107819966405"><ele>991.0</ele><time>2026-04-28T08:23:52Z</time></trkpt><trkpt lat="38.291029821487754" lon="16.10764837453312"><ele>991.0</ele><time>2026-04-28T08:23:53Z</time></trkpt><trkpt lat="38.29101307061961" lon="16.10748652504587"><ele>991.0</ele><time>2026-04-28T08:23:54Z</time></trkpt><trkpt lat="38.290983607921156" lon="16.107327658163662"><ele>991.0</ele><time>2026-04-28T08:23:55Z</time></trkpt><trkpt lat="38.29093579350097" lon="16.107165923656705"><ele>991.0</ele><time>2026-04-28T08:23:56Z</time></trkpt><trkpt lat="38.29085046140895" lon="16.10700804703857"><ele>991.75</ele><time>2026-04-28T08:23:57Z</time></trkpt><trkpt lat="38.290758137783094" lon="16.10685403696624"><ele>992.5</ele><time>2026-04-28T08:23:58Z</time></trkpt><trkpt lat="38.290678171938346" lon="16.106725795800426"><ele>993.25</ele><time>2026-04-28T08:23:59Z</time></trkpt><trkpt lat="38.29060378150506" lon="16.106606800351745"><ele>994.0</ele><time>2026-04-28T08:24:00Z</time></trkpt><trkpt lat="38.29052734038915" lon="16.10648708248686"><ele>995.5</ele><time>2026-04-28T08:24:01Z</time></trkpt><trkpt lat="38.29045185276972" lon="16.106363095788968"><ele>997.0</ele><time>2026-04-28T08:24:02Z</time></trkpt><trkpt lat="38.290380743942194" lon="16.10622398309896"><ele>998.5</ele><time>2026-04-28T08:24:03Z</time></trkpt><trkpt lat="38.290319871618415" lon="16.10607901032181"><ele>1000.0</ele><time>2026-04-28T08:24:04Z</time></trkpt><trkpt lat="38.29025687281314" lon="16.10592972785599"><ele>1000.0</ele><time>2026-04-28T08:24:05Z</time></trkpt><trkpt lat="38.290196485174995" lon="16.105783045144527"><ele>1000.0</ele><time>2026-04-28T08:24:06Z</time></trkpt><trkpt lat="38.29013736991638" lon="16.105639453073042"><ele>1000.0</ele><time>2026-04-28T08:24:07Z</time></trkpt><trkpt lat="38.29007942391381" lon="16.105498701149394"><ele>1000.0</ele><time>2026-04-28T08:24:08Z</time></trkpt><trkpt lat="38.29002592953316" lon="16.105365821351437"><ele>1000.0</ele><time>2026-04-28T08:24:09Z</time></trkpt><trkpt lat="38.28997283406461" lon="16.105233499827275"><ele>1000.0</ele><time>2026-04-28T08:24:10Z</time></trkpt><trkpt lat="38.28992611812828" lon="16.10511635572359"><ele>1000.0</ele><time>2026-04-28T08:24:11Z</time></trkpt><trkpt lat="38.28987449944842" lon="16.104986245897106"><ele>1000.0</ele><time>2026-04-28T08:24:12Z</time></trkpt><trkpt lat="38.28982190686596" lon="16.10485483033239"><ele>999.0</ele><time>2026-04-28T08:24:13Z</time></trkpt><trkpt lat="38.289773521085266" lon="16.104734464327308"><ele>998.0</ele><time>2026-04-28T08:24:14Z</time></trkpt><trkpt lat="38.28972200213531" lon="16.104606303698056"><ele>997.0</ele><time>2026-04-28T08:24:15Z</time></trkpt><trkpt lat="38.289665366978056" lon="16.10446541614708"><ele>996.0</ele><time>2026-04-28T08:24:16Z</time></trkpt><trkpt lat="38.289604908922634" lon="16.104319044491564"><ele>991.75</ele><time>2026-04-28T08:24:17Z</time></trkpt><trkpt lat="38.289552996049835" lon="16.104175332278864"><ele>987.5</ele><time>2026-04-28T08:24:18Z</time></trkpt><trkpt lat="38.28951584706594" lon="16.104024143015486"><ele>983.25</ele><time>2026-04-28T08:24:19Z</time></trkpt><trkpt lat="38.28947779410644" lon="16.10384882486511"><ele>979.0</ele><time>2026-04-28T08:24:20Z</time></trkpt><trkpt lat="38.28944516834892" lon="16.103683833746405"><ele>975.25</ele><time>2026-04-28T08:24:21Z</time></trkpt><trkpt lat="38.289424457441505" lon="16.103523454122612"><ele>971.5</ele><time>2026-04-28T08:24:22Z</time></trkpt><trkpt lat="38.28940354933667" lon="16.10336834006617"><ele>967.75</ele><time>2026-04-28T08:24:23Z</time></trkpt><trkpt lat="38.28944521231572" lon="16.103209138316195"><ele>964.0</ele><time>2026-04-28T08:24:24Z</time></trkpt><trkpt lat="38.28948561608329" lon="16.10304767372993"><ele>959.0</ele><time>2026-04-28T08:24:25Z</time></trkpt><trkpt lat="38.2895225806018" lon="16.102899953002495"><ele>954.0</ele><time>2026-04-28T08:24:26Z</time></trkpt><trkpt lat="38.28954591652547" lon="16.102744634094353"><ele>949.0</ele><time>2026-04-28T08:24:27Z</time></trkpt><trkpt lat="38.28959134372682" lon="16.10258803624419"><ele>944.0</ele><time>2026-04-28T08:24:28Z</time></trkpt><trkpt lat="38.289651734250526" lon="16.10243459523638"><ele>941.75</ele><time>2026-04-28T08:24:29Z</time></trkpt><trkpt lat="38.28973951872195" lon="16.102300441256332"><ele>939.5</ele><time>2026-04-28T08:24:30Z</time></trkpt><trkpt lat="38.28980302889171" lon="16.102146686987307"><ele>937.25</ele><time>2026-04-28T08:24:31Z</time></trkpt><trkpt lat="38.28988039302149" lon="16.10201527000941"><ele>935.0</ele><time>2026-04-28T08:24:32Z</time></trkpt><trkpt lat="38.289951617919456" lon="16.101875785788973"><ele>940.0</ele><time>2026-04-28T08:24:33Z</time></trkpt><trkpt lat="38.290023759922484" lon="16.101763746014022"><ele>945.0</ele><time>2026-04-28T08:24:34Z</time></trkpt><trkpt lat="38.29006688440281" lon="16.10164898683611"><ele>950.0</ele><time>2026-04-28T08:24:35Z</time></trkpt><trkpt lat="38.29006358680155" lon="16.101510554103456"><ele>955.0</ele><time>2026-04-28T08:24:36Z</time></trkpt><trkpt lat="38.29000137009113" lon="16.101387951302844"><ele>960.0</ele><time>2026-04-28T08:24:37Z</time></trkpt><trkpt lat="38.289897801684454" lon="16.101315909511488"><ele>960.0</ele><time>2026-04-28T08:24:38Z</time></trkpt><trkpt lat="38.289762614519034" lon="16.10134725624208"><ele>960.0</ele><time>2026-04-28T08:24:39Z</time></trkpt><trkpt lat="38.289672092838835" lon="16.10145453112773"><ele>960.0</ele><time>2026-04-28T08:24:40Z</time></trkpt><trkpt lat="38.28961024710545" lon="16.101578721682987"><ele>960.0</ele><time>2026-04-28T08:24:41Z</time></trkpt><trkpt lat="38.28961617531463" lon="16.101732405065775"><ele>955.0</ele><time>2026-04-28T08:24:42Z</time></trkpt><trkpt lat="38.2896003674903" lon="16.10186851286225"><ele>950.0</ele><time>2026-04-28T08:24:43Z</time></trkpt><trkpt lat="38.289588689676705" lon="16.101985336763434"><ele>945.0</ele><time>2026-04-28T08:24:44Z</time></trkpt><trkpt lat="38.28956134010442" lon="16.10206294297911"><ele>940.0</ele><time>2026-04-28T08:24:45Z</time></trkpt><trkpt lat="38.28945248716119" lon="16.102068483447812"><ele>935.0</ele><time>2026-04-28T08:24:47Z</time></trkpt><trkpt lat="38.28943429288743" lon="16.101931016436343"><ele>935.0</ele><time>2026-04-28T08:24:49Z</time></trkpt><trkpt lat="38.28949447273964" lon="16.101831717120064"><ele>935.0</ele><time>2026-04-28T08:24:50Z</time></trkpt><trkpt lat="38.28953509505237" lon="16.101704234474393"><ele>935.0</ele><time>2026-04-28T08:24:51Z</time></trkpt><trkpt lat="38.28952546011303" lon="16.101546514764046"><ele>935.0</ele><time>2026-04-28T08:24:52Z</time></trkpt><trkpt lat="38.289491751253586" lon="16.101387007946066"><ele>937.75</ele><time>2026-04-28T08:24:53Z</time></trkpt><trkpt lat="38.28946865790791" lon="16.10122977437767"><ele>940.5</ele><time>2026-04-28T08:24:54Z</time></trkpt><trkpt lat="38.2895128071717" lon="16.101077135244452"><ele>943.25</ele><time>2026-04-28T08:24:55Z</time></trkpt><trkpt lat="38.28954491236289" lon="16.100913433656288"><ele>946.0</ele><time>2026-04-28T08:24:56Z</time></trkpt><trkpt lat="38.289552765308045" lon="16.10075301815201"><ele>950.5</ele><time>2026-04-28T08:24:57Z</time></trkpt><trkpt lat="38.28955821480707" lon="16.100610531882243"><ele>955.0</ele><time>2026-04-28T08:24:58Z</time></trkpt><trkpt lat="38.28954389868536" lon="16.100465889508772"><ele>959.5</ele><time>2026-04-28T08:24:59Z</time></trkpt><trkpt lat="38.28945311053959" lon="16.100354051382855"><ele>964.0</ele><time>2026-04-28T08:25:00Z</time></trkpt><trkpt lat="38.28937389560607" lon="16.100251160580715"><ele>964.0</ele><time>2026-04-28T08:25:01Z</time></trkpt><trkpt lat="38.28931230576213" lon="16.100145036902425"><ele>964.0000000000001</ele><time>2026-04-28T08:25:02Z</time></trkpt><trkpt lat="38.28925616179132" lon="16.100034923376064"><ele>964.0000000000001</ele><time>2026-04-28T08:25:03Z</time></trkpt><trkpt lat="38.28921835734902" lon="16.099910726190867"><ele>964.0</ele><time>2026-04-28T08:25:04Z</time></trkpt><trkpt lat="38.289208471764205" lon="16.09976767158577"><ele>964.0</ele><time>2026-04-28T08:25:05Z</time></trkpt><trkpt lat="38.28920561739404" lon="16.099655072829815"><ele>966.4999999999999</ele><time>2026-04-28T08:25:06Z</time></trkpt><trkpt lat="38.28920794289765" lon="16.09956061839583"><ele>969.0</ele><time>2026-04-28T08:25:07Z</time></trkpt><trkpt lat="38.28921520340875" lon="16.099475284563663"><ele>971.5</ele><time>2026-04-28T08:25:08Z</time></trkpt><trkpt lat="38.28918160240594" lon="16.099393989822104"><ele>974.0</ele><time>2026-04-28T08:25:09Z</time></trkpt><trkpt lat="38.28911201883773" lon="16.099350819797138"><ele>976.4999999999999</ele><time>2026-04-28T08:25:10Z</time></trkpt><trkpt lat="38.28901548145447" lon="16.09939218905375"><ele>979.0</ele><time>2026-04-28T08:25:11Z</time></trkpt><trkpt lat="38.288975315360226" lon="16.09951417979032"><ele>979.0</ele><time>2026-04-28T08:25:12Z</time></trkpt><trkpt lat="38.288957569087934" lon="16.099633147623685"><ele>979.0000000000001</ele><time>2026-04-28T08:25:13Z</time></trkpt><trkpt lat="38.28891456301739" lon="16.09974682020309"><ele>979.0000000000001</ele><time>2026-04-28T08:25:14Z</time></trkpt><trkpt lat="38.288866068859846" lon="16.099833276857684"><ele>979.0</ele><time>2026-04-28T08:25:15Z</time></trkpt><trkpt lat="38.28881136176033" lon="16.099909993064472"><ele>979.0</ele><time>2026-04-28T08:25:16Z</time></trkpt><trkpt lat="38.28872619605629" lon="16.099971280692273"><ele>980.6</ele><time>2026-04-28T08:25:17Z</time></trkpt><trkpt lat="38.28863196825659" lon="16.10004053906868"><ele>982.2</ele><time>2026-04-28T08:25:18Z</time></trkpt><trkpt lat="38.28853103105218" lon="16.10010971491209"><ele>983.8000000000001</ele><time>2026-04-28T08:25:19Z</time></trkpt><trkpt lat="38.28843476932858" lon="16.100161069854106"><ele>985.4000000000001</ele><time>2026-04-28T08:25:20Z</time></trkpt><trkpt lat="38.28834856538923" lon="16.1001814964481"><ele>987.0</ele><time>2026-04-28T08:25:21Z</time></trkpt><trkpt lat="38.288237088919786" lon="16.100185470303902"><ele>987.0</ele><time>2026-04-28T08:25:22Z</time></trkpt><trkpt lat="38.288147184387135" lon="16.10016788461467"><ele>987.0</ele><time>2026-04-28T08:25:23Z</time></trkpt><trkpt lat="38.2880340453321" lon="16.100103715988336"><ele>987.0</ele><time>2026-04-28T08:25:24Z</time></trkpt><trkpt lat="38.287932390160265" lon="16.100041195534953"><ele>987.0</ele><time>2026-04-28T08:25:25Z</time></trkpt><trkpt lat="38.28785208260526" lon="16.099976477471476"><ele>987.0</ele><time>2026-04-28T08:25:26Z</time></trkpt><trkpt lat="38.28779457570902" lon="16.099913476461257"><ele>991.75</ele><time>2026-04-28T08:25:27Z</time></trkpt><trkpt lat="38.28772904126764" lon="16.099818953612193"><ele>996.5</ele><time>2026-04-28T08:25:28Z</time></trkpt><trkpt lat="38.28763816448575" lon="16.099684727596127"><ele>1001.25</ele><time>2026-04-28T08:25:29Z</time></trkpt><trkpt lat="38.28752513190313" lon="16.099605674859845"><ele>1006.0</ele><time>2026-04-28T08:25:30Z</time></trkpt><trkpt lat="38.28737672008276" lon="16.099592853111"><ele>1006.0</ele><time>2026-04-28T08:25:31Z</time></trkpt><trkpt lat="38.28728115538863" lon="16.099576946050774"><ele>1005.9999999999999</ele><time>2026-04-28T08:25:32Z</time></trkpt><trkpt lat="38.287181557399556" lon="16.099549904811468"><ele>1005.9999999999999</ele><time>2026-04-28T08:25:33Z</time></trkpt><trkpt lat="38.28707559260523" lon="16.09952269755177"><ele>1006.0</ele><time>2026-04-28T08:25:34Z</time></trkpt><trkpt lat="38.2869542127305" lon="16.099495584820044"><ele>1006.0</ele><time>2026-04-28T08:25:35Z</time></trkpt><trkpt lat="38.286814867804424" lon="16.099499953172757"><ele>1006.0</ele><time>2026-04-28T08:25:36Z</time></trkpt><trkpt lat="38.28667404318965" lon="16.099564221303293"><ele>1006.0</ele><time>2026-04-28T08:25:37Z</time></trkpt><trkpt lat="38.28655287310722" lon="16.09961705697822"><ele>1006.0</ele><time>2026-04-28T08:25:38Z</time></trkpt><trkpt lat="38.28644457757563" lon="16.099662993156343"><ele>1006.0</ele><time>2026-04-28T08:25:39Z</time></trkpt><trkpt lat="38.286358780392284" lon="16.09969469760349"><ele>1005.9999999999999</ele><time>2026-04-28T08:25:40Z</time></trkpt><trkpt lat="38.286259582105494" lon="16.09966823455109"><ele>1006.0</ele><time>2026-04-28T08:25:42Z</time></trkpt><trkpt lat="38.28626187160919" lon="16.09956267467276"><ele>1006.0</ele><time>2026-04-28T08:25:44Z</time></trkpt><trkpt lat="38.2863226080827" lon="16.099480513288952"><ele>1006.0</ele><time>2026-04-28T08:25:45Z</time></trkpt><trkpt lat="38.28642050968096" lon="16.099513428934298"><ele>1005.9999999999999</ele><time>2026-04-28T08:25:46Z</time></trkpt><trkpt lat="38.28649264636845" lon="16.099494185991517"><ele>1006.0</ele><time>2026-04-28T08:25:47Z</time></trkpt><trkpt lat="38.286582314194526" lon="16.099425416094242"><ele>1006.0</ele><time>2026-04-28T08:25:49Z</time></trkpt><trkpt lat="38.286503799626466" lon="16.099188441910616"><ele>1006.0</ele><time>2026-04-28T08:25:51Z</time></trkpt><trkpt lat="38.286344059420244" lon="16.099194842145437"><ele>1006.0</ele><time>2026-04-28T08:25:52Z</time></trkpt><trkpt lat="38.28622426827059" lon="16.09921360945901"><ele>1002.25</ele><time>2026-04-28T08:25:53Z</time></trkpt><trkpt lat="38.28612511815195" lon="16.099215988961515"><ele>998.5</ele><time>2026-04-28T08:25:54Z</time></trkpt><trkpt lat="38.28601189818436" lon="16.09913538281882"><ele>994.75</ele><time>2026-04-28T08:25:56Z</time></trkpt><trkpt lat="38.28597842345843" lon="16.098990105596073"><ele>991.0</ele><time>2026-04-28T08:25:59Z</time></trkpt><trkpt lat="38.28595361719269" lon="16.098848820708465"><ele>999.0</ele><time>2026-04-28T08:26:00Z</time></trkpt><trkpt lat="38.28593021324979" lon="16.09871145392049"><ele>1007.0</ele><time>2026-04-28T08:26:01Z</time></trkpt><trkpt lat="38.28588894429592" lon="16.098537478675016"><ele>1015.0</ele><time>2026-04-28T08:26:02Z</time></trkpt><trkpt lat="38.285775996681494" lon="16.09839240338072"><ele>1023.0</ele><time>2026-04-28T08:26:03Z</time></trkpt><trkpt lat="38.28562627652163" lon="16.098355815966634"><ele>1021.8333333333334</ele><time>2026-04-28T08:26:04Z</time></trkpt><trkpt lat="38.28554849222352" lon="16.098335468180277"><ele>1020.6666666666667</ele><time>2026-04-28T08:26:05Z</time></trkpt><trkpt lat="38.28547139979914" lon="16.098315301371827"><ele>1019.5</ele><time>2026-04-28T08:26:06Z</time></trkpt><trkpt lat="38.285373516823135" lon="16.09828969590779"><ele>1018.3333333333334</ele><time>2026-04-28T08:26:07Z</time></trkpt><trkpt lat="38.28527753018991" lon="16.098256904988524"><ele>1017.1666666666667</ele><time>2026-04-28T08:26:08Z</time></trkpt><trkpt lat="38.2851957947119" lon="16.09820840369578"><ele>1016.0</ele><time>2026-04-28T08:26:09Z</time></trkpt><trkpt lat="38.285093013910746" lon="16.098130881753644"><ele>1017.25</ele><time>2026-04-28T08:26:10Z</time></trkpt><trkpt lat="38.28498918734413" lon="16.098053966985443"><ele>1018.5</ele><time>2026-04-28T08:26:11Z</time></trkpt><trkpt lat="38.28487943030858" lon="16.097976702727067"><ele>1019.75</ele><time>2026-04-28T08:26:12Z</time></trkpt><trkpt lat="38.28473231457172" lon="16.097880322546295"><ele>1021.0</ele><time>2026-04-28T08:26:14Z</time></trkpt><trkpt lat="38.284663504233386" lon="16.097827937948676"><ele>1021.0</ele><time>2026-04-28T08:26:15Z</time></trkpt><trkpt lat="38.284615231306" lon="16.097776212253354"><ele>1020.9999999999999</ele><time>2026-04-28T08:26:16Z</time></trkpt><trkpt lat="38.2845619854638" lon="16.097623625842434"><ele>1020.9999999999999</ele><time>2026-04-28T08:26:18Z</time></trkpt><trkpt lat="38.2845405993179" lon="16.097487280806583"><ele>1021.0</ele><time>2026-04-28T08:26:19Z</time></trkpt><trkpt lat="38.28445510278047" lon="16.097338000211174"><ele>1021.0</ele><time>2026-04-28T08:26:20Z</time></trkpt><trkpt lat="38.28433019895964" lon="16.097239921865736"><ele>1022.0</ele><time>2026-04-28T08:26:21Z</time></trkpt><trkpt lat="38.284227329579245" lon="16.097168666134593"><ele>1022.9999999999999</ele><time>2026-04-28T08:26:22Z</time></trkpt><trkpt lat="38.28413002082782" lon="16.097127604073847"><ele>1023.9999999999999</ele><time>2026-04-28T08:26:23Z</time></trkpt><trkpt lat="38.28401037349759" lon="16.09714710266568"><ele>1025.0</ele><time>2026-04-28T08:26:24Z</time></trkpt><trkpt lat="38.28392318037806" lon="16.097161761423084"><ele>1026.0</ele><time>2026-04-28T08:26:25Z</time></trkpt><trkpt lat="38.28383057307518" lon="16.097173514970425"><ele>1024.0</ele><time>2026-04-28T08:26:26Z</time></trkpt><trkpt lat="38.28375726586744" lon="16.097167120496945"><ele>1021.9999999999999</ele><time>2026-04-28T08:26:27Z</time></trkpt><trkpt lat="38.28365622462767" lon="16.09714286904149"><ele>1019.9999999999999</ele><time>2026-04-28T08:26:28Z</time></trkpt><trkpt lat="38.2835587475743" lon="16.097100141709134"><ele>1018.0</ele><time>2026-04-28T08:26:29Z</time></trkpt><trkpt lat="38.28346118034019" lon="16.097045000145343"><ele>1016.0</ele><time>2026-04-28T08:26:30Z</time></trkpt><trkpt lat="38.28337672758262" lon="16.09699097169748"><ele>1016.0</ele><time>2026-04-28T08:26:31Z</time></trkpt><trkpt lat="38.28329899873548" lon="16.096910045481"><ele>1016.0</ele><time>2026-04-28T08:26:32Z</time></trkpt><trkpt lat="38.28323118951747" lon="16.096786164652027"><ele>1016.0</ele><time>2026-04-28T08:26:33Z</time></trkpt><trkpt lat="38.28315933548351" lon="16.096646266980986"><ele>1016.0</ele><time>2026-04-28T08:26:34Z</time></trkpt><trkpt lat="38.283082995287955" lon="16.096498101182995"><ele>1015.5</ele><time>2026-04-28T08:26:35Z</time></trkpt><trkpt lat="38.28301022817967" lon="16.096356870275077"><ele>1015.0</ele><time>2026-04-28T08:26:36Z</time></trkpt><trkpt lat="38.282940740815754" lon="16.096222004895278"><ele>1014.5</ele><time>2026-04-28T08:26:37Z</time></trkpt><trkpt lat="38.28286736088544" lon="16.096080650883533"><ele>1014.0</ele><time>2026-04-28T08:26:38Z</time></trkpt><trkpt lat="38.2827907639216" lon="16.09593363800372"><ele>1014.0</ele><time>2026-04-28T08:26:39Z</time></trkpt><trkpt lat="38.282716792404436" lon="16.09579166407177"><ele>1014.0</ele><time>2026-04-28T08:26:40Z</time></trkpt><trkpt lat="38.28263965706673" lon="16.095646896558517"><ele>1014.0</ele><time>2026-04-28T08:26:41Z</time></trkpt><trkpt lat="38.28255884698322" lon="16.09551480178462"><ele>1014.0</ele><time>2026-04-28T08:26:42Z</time></trkpt><trkpt lat="38.282458487687" lon="16.09536972346518"><ele>1013.75</ele><time>2026-04-28T08:26:43Z</time></trkpt><trkpt lat="38.282357456269885" lon="16.095237666672602"><ele>1013.5</ele><time>2026-04-28T08:26:44Z</time></trkpt><trkpt lat="38.28224912758536" lon="16.095096414231783"><ele>1013.25</ele><time>2026-04-28T08:26:44.999Z</time></trkpt><trkpt lat="38.28214437337626" lon="16.094964195055795"><ele>1013.0</ele><time>2026-04-28T08:26:45.999Z</time></trkpt><trkpt lat="38.282040531905416" lon="16.094833322971166"><ele>1014.75</ele><time>2026-04-28T08:26:46.999Z</time></trkpt><trkpt lat="38.28194002395336" lon="16.09470666522328"><ele>1016.5</ele><time>2026-04-28T08:26:47.999Z</time></trkpt><trkpt lat="38.281842174356726" lon="16.094583357415083"><ele>1018.25</ele><time>2026-04-28T08:26:48.999Z</time></trkpt><trkpt lat="38.28174713646" lon="16.09447079673636"><ele>1020.0</ele><time>2026-04-28T08:26:49.999Z</time></trkpt><trkpt lat="38.28168921876055" lon="16.094335671854815"><ele>1020.0</ele><time>2026-04-28T08:26:50.999Z</time></trkpt><trkpt lat="38.281649482237945" lon="16.094204130345233"><ele>1020.0</ele><time>2026-04-28T08:26:51.999Z</time></trkpt><trkpt lat="38.28160913481882" lon="16.094077764200094"><ele>1020.0</ele><time>2026-04-28T08:26:52.999Z</time></trkpt><trkpt lat="38.28159117779679" lon="16.093792102469603"><ele>1020.0</ele><time>2026-04-28T08:26:53.999Z</time></trkpt><trkpt lat="38.28156786815325" lon="16.09362470884035"><ele>1021.25</ele><time>2026-04-28T08:26:54.999Z</time></trkpt><trkpt lat="38.2815447312762" lon="16.093458555893296"><ele>1022.5</ele><time>2026-04-28T08:26:55.999Z</time></trkpt><trkpt lat="38.2815224146965" lon="16.093298293700474"><ele>1023.75</ele><time>2026-04-28T08:26:56.999Z</time></trkpt><trkpt lat="38.28150090031659" lon="16.09314003835339"><ele>1025.0</ele><time>2026-04-28T08:26:57.999Z</time></trkpt><trkpt lat="38.281477954147974" lon="16.092970748544502"><ele>1025.75</ele><time>2026-04-28T08:26:58.999Z</time></trkpt><trkpt lat="38.28145378406473" lon="16.09279242911563"><ele>1026.5</ele><time>2026-04-28T08:26:59.999Z</time></trkpt><trkpt lat="38.2814309648312" lon="16.09261361024179"><ele>1027.25</ele><time>2026-04-28T08:27:00.999Z</time></trkpt><trkpt lat="38.28141114540058" lon="16.092433970425464"><ele>1028.0</ele><time>2026-04-28T08:27:01.999Z</time></trkpt><trkpt lat="38.28139116180267" lon="16.092253562457906"><ele>1028.75</ele><time>2026-04-28T08:27:02.999Z</time></trkpt><trkpt lat="38.28136762664413" lon="16.092071300101953"><ele>1029.5</ele><time>2026-04-28T08:27:03.999Z</time></trkpt><trkpt lat="38.28134513680524" lon="16.091897133088423"><ele>1030.25</ele><time>2026-04-28T08:27:04.999Z</time></trkpt><trkpt lat="38.281323337923794" lon="16.091732821461694"><ele>1031.0</ele><time>2026-04-28T08:27:05.999Z</time></trkpt><trkpt lat="38.28130002543116" lon="16.091559286903923"><ele>1031.8</ele><time>2026-04-28T08:27:06.999Z</time></trkpt><trkpt lat="38.281278785566094" lon="16.09140113167922"><ele>1032.6</ele><time>2026-04-28T08:27:07.999Z</time></trkpt><trkpt lat="38.2812591917152" lon="16.09125523279752"><ele>1033.4</ele><time>2026-04-28T08:27:08.999Z</time></trkpt><trkpt lat="38.28122945709693" lon="16.09112106136925"><ele>1034.2</ele><time>2026-04-28T08:27:09.999Z</time></trkpt><trkpt lat="38.2812136422506" lon="16.09100433738447"><ele>1035.0</ele><time>2026-04-28T08:27:10.999Z</time></trkpt><trkpt lat="38.28119994953478" lon="16.090887888617324"><ele>1035.0</ele><time>2026-04-28T08:27:12Z</time></trkpt><trkpt lat="38.281183277005795" lon="16.090771345099686"><ele>1035.0</ele><time>2026-04-28T08:27:13Z</time></trkpt><trkpt lat="38.2811843538948" lon="16.090645010086142"><ele>1035.0</ele><time>2026-04-28T08:27:14Z</time></trkpt><trkpt lat="38.281168367351285" lon="16.090505229584434"><ele>1035.0</ele><time>2026-04-28T08:27:15Z</time></trkpt><trkpt lat="38.281133974070144" lon="16.090345845061"><ele>1035.0</ele><time>2026-04-28T08:27:16Z</time></trkpt><trkpt lat="38.28112777719658" lon="16.09018972105819"><ele>1036.0</ele><time>2026-04-28T08:27:17Z</time></trkpt><trkpt lat="38.28109676223519" lon="16.09004679741548"><ele>1037.0</ele><time>2026-04-28T08:27:18Z</time></trkpt><trkpt lat="38.2810613991757" lon="16.089897655210866"><ele>1038.0</ele><time>2026-04-28T08:27:19Z</time></trkpt><trkpt lat="38.281017846844684" lon="16.089742836343707"><ele>1039.0</ele><time>2026-04-28T08:27:20Z</time></trkpt><trkpt lat="38.28093749756171" lon="16.089594820212564"><ele>1039.25</ele><time>2026-04-28T08:27:21Z</time></trkpt><trkpt lat="38.28083141512592" lon="16.08944637088552"><ele>1039.5</ele><time>2026-04-28T08:27:22Z</time></trkpt><trkpt lat="38.28072517306716" lon="16.08931305415928"><ele>1039.75</ele><time>2026-04-28T08:27:23Z</time></trkpt><trkpt lat="38.2806240166578" lon="16.08918592825844"><ele>1040.0</ele><time>2026-04-28T08:27:24Z</time></trkpt><trkpt lat="38.280522831766945" lon="16.089058767533693"><ele>1039.3333333333335</ele><time>2026-04-28T08:27:25Z</time></trkpt><trkpt lat="38.28040897608065" lon="16.08891476632907"><ele>1038.6666666666667</ele><time>2026-04-28T08:27:26Z</time></trkpt><trkpt lat="38.28029921077252" lon="16.088774944354537"><ele>1038.0</ele><time>2026-04-28T08:27:27Z</time></trkpt><trkpt lat="38.28019675868195" lon="16.088644438979728"><ele>1038.0</ele><time>2026-04-28T08:27:28Z</time></trkpt><trkpt lat="38.28009642207512" lon="16.088515681131433"><ele>1038.0</ele><time>2026-04-28T08:27:29Z</time></trkpt><trkpt lat="38.279994868647336" lon="16.088384026429978"><ele>1038.0</ele><time>2026-04-28T08:27:30Z</time></trkpt><trkpt lat="38.279894174090664" lon="16.088252945013657"><ele>1038.0</ele><time>2026-04-28T08:27:31Z</time></trkpt><trkpt lat="38.27979528546272" lon="16.088119679185777"><ele>1037.6666666666667</ele><time>2026-04-28T08:27:32Z</time></trkpt><trkpt lat="38.27969304713924" lon="16.087981899053336"><ele>1037.3333333333335</ele><time>2026-04-28T08:27:33Z</time></trkpt><trkpt lat="38.27958538415336" lon="16.08784066181142"><ele>1037.0</ele><time>2026-04-28T08:27:34Z</time></trkpt><trkpt lat="38.279465503047824" lon="16.087714695311796"><ele>1037.0</ele><time>2026-04-28T08:27:35Z</time></trkpt><trkpt lat="38.27936643350583" lon="16.087567852434518"><ele>1037.0</ele><time>2026-04-28T08:27:36Z</time></trkpt><trkpt lat="38.27925396637604" lon="16.08743229420118"><ele>1037.0</ele><time>2026-04-28T08:27:37Z</time></trkpt><trkpt lat="38.27914362909681" lon="16.087284520123642"><ele>1036.0</ele><time>2026-04-28T08:27:38Z</time></trkpt><trkpt lat="38.27902812578665" lon="16.087138458370685"><ele>1035.0</ele><time>2026-04-28T08:27:39Z</time></trkpt><trkpt lat="38.27891269631859" lon="16.0869990987298"><ele>1034.0</ele><time>2026-04-28T08:27:40Z</time></trkpt><trkpt lat="38.27881284847721" lon="16.08683716079637"><ele>1034.0</ele><time>2026-04-28T08:27:41Z</time></trkpt><trkpt lat="38.27870063300395" lon="16.086688159075294"><ele>1034.0</ele><time>2026-04-28T08:27:42Z</time></trkpt><trkpt lat="38.2785775579858" lon="16.086554139035076"><ele>1034.0</ele><time>2026-04-28T08:27:43Z</time></trkpt><trkpt lat="38.2784778975312" lon="16.08639240687157"><ele>1032.0</ele><time>2026-04-28T08:27:44Z</time></trkpt><trkpt lat="38.27836605188423" lon="16.086243896191093"><ele>1030.0</ele><time>2026-04-28T08:27:45Z</time></trkpt><trkpt lat="38.2782559471182" lon="16.086097697074763"><ele>1028.0</ele><time>2026-04-28T08:27:46Z</time></trkpt><trkpt lat="38.278143751507876" lon="16.085950352243916"><ele>1029.0</ele><time>2026-04-28T08:27:47Z</time></trkpt><trkpt lat="38.27803071216139" lon="16.085802089294745"><ele>1030.0</ele><time>2026-04-28T08:27:48Z</time></trkpt><trkpt lat="38.277920944314815" lon="16.085658117348746"><ele>1031.0</ele><time>2026-04-28T08:27:49Z</time></trkpt><trkpt lat="38.27781060328673" lon="16.08551440673732"><ele>1028.6666666666667</ele><time>2026-04-28T08:27:50Z</time></trkpt><trkpt lat="38.277699949772995" lon="16.085370714387043"><ele>1026.3333333333333</ele><time>2026-04-28T08:27:51Z</time></trkpt><trkpt lat="38.27758337091074" lon="16.085219325137835"><ele>1024.0</ele><time>2026-04-28T08:27:52Z</time></trkpt><trkpt lat="38.277467416724775" lon="16.085068747094958"><ele>1023.3333333333333</ele><time>2026-04-28T08:27:53Z</time></trkpt><trkpt lat="38.27734983420583" lon="16.08491605450136"><ele>1022.6666666666667</ele><time>2026-04-28T08:27:54Z</time></trkpt><trkpt lat="38.27715508845284" lon="16.084861188572678"><ele>1022.0</ele><time>2026-04-28T08:27:55Z</time></trkpt><trkpt lat="38.277014715531074" lon="16.084737344830664"><ele>1022.0</ele><time>2026-04-28T08:27:56Z</time></trkpt><trkpt lat="38.27686958509959" lon="16.0846185138085"><ele>1022.0</ele><time>2026-04-28T08:27:57Z</time></trkpt><trkpt lat="38.27671979194864" lon="16.08450386442869"><ele>1022.0</ele><time>2026-04-28T08:27:58Z</time></trkpt><trkpt lat="38.27656610600913" lon="16.08438675190042"><ele>1022.3333333333334</ele><time>2026-04-28T08:27:59Z</time></trkpt><trkpt lat="38.27641465299468" lon="16.084266936546772"><ele>1022.6666666666667</ele><time>2026-04-28T08:28:00Z</time></trkpt><trkpt lat="38.27626276914607" lon="16.084151115071332"><ele>1023.0</ele><time>2026-04-28T08:28:01Z</time></trkpt><trkpt lat="38.27611961766256" lon="16.08403123073048"><ele>1023.0</ele><time>2026-04-28T08:28:02Z</time></trkpt><trkpt lat="38.27598308874468" lon="16.08391505432722"><ele>1023.0</ele><time>2026-04-28T08:28:03Z</time></trkpt><trkpt lat="38.27585552248001" lon="16.08380464137704"><ele>1023.0</ele><time>2026-04-28T08:28:04Z</time></trkpt><trkpt lat="38.27572079147387" lon="16.083701953639952"><ele>1021.0</ele><time>2026-04-28T08:28:05Z</time></trkpt><trkpt lat="38.27558427608551" lon="16.083591789906983"><ele>1019.0</ele><time>2026-04-28T08:28:06Z</time></trkpt><trkpt lat="38.27544767847493" lon="16.08348321281015"><ele>1017.0</ele><time>2026-04-28T08:28:07Z</time></trkpt><trkpt lat="38.27531283125425" lon="16.083374381074613"><ele>1017.0</ele><time>2026-04-28T08:28:08Z</time></trkpt><trkpt lat="38.27518076119694" lon="16.083266032751453"><ele>1017.0</ele><time>2026-04-28T08:28:09Z</time></trkpt><trkpt lat="38.27504869722554" lon="16.0831555578663"><ele>1017.0</ele><time>2026-04-28T08:28:10Z</time></trkpt><trkpt lat="38.27491565474816" lon="16.083045600489598"><ele>1017.0</ele><time>2026-04-28T08:28:11Z</time></trkpt><trkpt lat="38.274786092583575" lon="16.082928072690883"><ele>1017.0</ele><time>2026-04-28T08:28:12Z</time></trkpt><trkpt lat="38.27466186310079" lon="16.082811871446005"><ele>1017.0</ele><time>2026-04-28T08:28:13Z</time></trkpt><trkpt lat="38.27453924546002" lon="16.08269158614594"><ele>1017.3333333333333</ele><time>2026-04-28T08:28:14Z</time></trkpt><trkpt lat="38.27442379704317" lon="16.082572208540995"><ele>1017.6666666666666</ele><time>2026-04-28T08:28:15Z</time></trkpt><trkpt lat="38.274306735110244" lon="16.082457193710365"><ele>1018.0</ele><time>2026-04-28T08:28:16Z</time></trkpt><trkpt lat="38.27419209479653" lon="16.08232738874626"><ele>1018.6666666666666</ele><time>2026-04-28T08:28:17Z</time></trkpt><trkpt lat="38.27407970983272" lon="16.08218902387753"><ele>1019.3333333333333</ele><time>2026-04-28T08:28:18Z</time></trkpt><trkpt lat="38.27397073631644" lon="16.0820499524175"><ele>1020.0</ele><time>2026-04-28T08:28:19Z</time></trkpt><trkpt lat="38.27385804335609" lon="16.08191151932238"><ele>1020.0</ele><time>2026-04-28T08:28:20Z</time></trkpt><trkpt lat="38.2737431737256" lon="16.081784345944218"><ele>1020.0</ele><time>2026-04-28T08:28:21Z</time></trkpt><trkpt lat="38.273624550573466" lon="16.081648939807494"><ele>1020.0</ele><time>2026-04-28T08:28:22Z</time></trkpt><trkpt lat="38.273506578506776" lon="16.081515795617758"><ele>1020.0</ele><time>2026-04-28T08:28:23Z</time></trkpt><trkpt lat="38.27339713962084" lon="16.081382406711672"><ele>1020.0</ele><time>2026-04-28T08:28:24Z</time></trkpt><trkpt lat="38.273288377752756" lon="16.08125185298578"><ele>1020.0</ele><time>2026-04-28T08:28:25Z</time></trkpt><trkpt lat="38.273183602708926" lon="16.0811191660794"><ele>1020.0</ele><time>2026-04-28T08:28:26Z</time></trkpt><trkpt lat="38.273081688962584" lon="16.080990144045284"><ele>1020.0</ele><time>2026-04-28T08:28:27Z</time></trkpt><trkpt lat="38.272976882659734" lon="16.08086570565721"><ele>1020.0</ele><time>2026-04-28T08:28:28Z</time></trkpt><trkpt lat="38.27286996079604" lon="16.080735936932136"><ele>1020.0</ele><time>2026-04-28T08:28:29Z</time></trkpt><trkpt lat="38.2727650722662" lon="16.080597628708258"><ele>1020.0</ele><time>2026-04-28T08:28:30Z</time></trkpt><trkpt lat="38.272662931955104" lon="16.080439481918415"><ele>1019.6666666666667</ele><time>2026-04-28T08:28:31Z</time></trkpt><trkpt lat="38.27256304838513" lon="16.080282989276903"><ele>1019.3333333333334</ele><time>2026-04-28T08:28:32Z</time></trkpt><trkpt lat="38.27246942002927" lon="16.08010642645526"><ele>1019.0</ele><time>2026-04-28T08:28:33Z</time></trkpt><trkpt lat="38.27238078671079" lon="16.079921652476177"><ele>1018.6666666666667</ele><time>2026-04-28T08:28:34Z</time></trkpt><trkpt lat="38.272289414262914" lon="16.079729704087022"><ele>1018.3333333333333</ele><time>2026-04-28T08:28:35Z</time></trkpt><trkpt lat="38.272196779379634" lon="16.079524457768834"><ele>1018.0</ele><time>2026-04-28T08:28:36Z</time></trkpt><trkpt lat="38.27210603819327" lon="16.079318593928246"><ele>1018.0</ele><time>2026-04-28T08:28:37Z</time></trkpt><trkpt lat="38.27201771351251" lon="16.079110895314642"><ele>1018.0</ele><time>2026-04-28T08:28:38Z</time></trkpt><trkpt lat="38.27192656878559" lon="16.078898888607494"><ele>1018.0</ele><time>2026-04-28T08:28:39Z</time></trkpt><trkpt lat="38.27182942021366" lon="16.078691858715384"><ele>1017.3333333333333</ele><time>2026-04-28T08:28:40Z</time></trkpt><trkpt lat="38.27173666615754" lon="16.078483259215123"><ele>1016.6666666666667</ele><time>2026-04-28T08:28:41Z</time></trkpt><trkpt lat="38.27164635212249" lon="16.07827515077423"><ele>1016.0</ele><time>2026-04-28T08:28:42Z</time></trkpt><trkpt lat="38.27155509638783" lon="16.078068111128804"><ele>1016.3333333333334</ele><time>2026-04-28T08:28:43Z</time></trkpt><trkpt lat="38.27146158485033" lon="16.07786017129177"><ele>1016.6666666666667</ele><time>2026-04-28T08:28:44Z</time></trkpt><trkpt lat="38.2713688335258" lon="16.07765609957324"><ele>1017.0</ele><time>2026-04-28T08:28:45Z</time></trkpt><trkpt lat="38.271279337864904" lon="16.077450672681355"><ele>1017.0</ele><time>2026-04-28T08:28:46Z</time></trkpt><trkpt lat="38.27118618026553" lon="16.077252431086222"><ele>1017.0</ele><time>2026-04-28T08:28:47Z</time></trkpt><trkpt lat="38.27109932593377" lon="16.077047232653957"><ele>1017.0</ele><time>2026-04-28T08:28:48Z</time></trkpt><trkpt lat="38.27101003664294" lon="16.076848963697234"><ele>1017.0</ele><time>2026-04-28T08:28:49Z</time></trkpt><trkpt lat="38.270925848122104" lon="16.07664771403295"><ele>1017.0</ele><time>2026-04-28T08:28:50Z</time></trkpt><trkpt lat="38.270838818589844" lon="16.07644876670017"><ele>1017.0</ele><time>2026-04-28T08:28:51Z</time></trkpt><trkpt lat="38.27075128431174" lon="16.076249487468466"><ele>1016.3333333333333</ele><time>2026-04-28T08:28:52Z</time></trkpt><trkpt lat="38.270664639569695" lon="16.076049827550108"><ele>1015.6666666666666</ele><time>2026-04-28T08:28:53Z</time></trkpt><trkpt lat="38.27057931080846" lon="16.075851986454506"><ele>1015.0</ele><time>2026-04-28T08:28:54Z</time></trkpt><trkpt lat="38.2704927230192" lon="16.07566603876522"><ele>1015.0</ele><time>2026-04-28T08:28:55Z</time></trkpt><trkpt lat="38.27040729663263" lon="16.075489806368807"><ele>1015.0</ele><time>2026-04-28T08:28:55.999Z</time></trkpt><trkpt lat="38.27031953513758" lon="16.07533342394124"><ele>1015.0</ele><time>2026-04-28T08:28:56.999Z</time></trkpt><trkpt lat="38.27021676373393" lon="16.075197731952002"><ele>1015.0</ele><time>2026-04-28T08:28:57.999Z</time></trkpt><trkpt lat="38.27009374373369" lon="16.0750923415177"><ele>1015.0</ele><time>2026-04-28T08:28:58.999Z</time></trkpt><trkpt lat="38.26995489858031" lon="16.075016351290486"><ele>1015.0</ele><time>2026-04-28T08:28:59.999Z</time></trkpt><trkpt lat="38.269804320376984" lon="16.074964143372505"><ele>1016.0</ele><time>2026-04-28T08:29:00.999Z</time></trkpt><trkpt lat="38.26964074765403" lon="16.074929765480828"><ele>1017.0</ele><time>2026-04-28T08:29:01.999Z</time></trkpt><trkpt lat="38.2694760892116" lon="16.074911586717345"><ele>1018.0</ele><time>2026-04-28T08:29:02.999Z</time></trkpt><trkpt lat="38.269317124079585" lon="16.07489474858686"><ele>1018.0</ele><time>2026-04-28T08:29:03.999Z</time></trkpt><trkpt lat="38.26915683919361" lon="16.074872396908336"><ele>1018.0</ele><time>2026-04-28T08:29:04.999Z</time></trkpt><trkpt lat="38.26900018912295" lon="16.074845610590994"><ele>1018.0</ele><time>2026-04-28T08:29:05.999Z</time></trkpt><trkpt lat="38.26884693667316" lon="16.07482145187912"><ele>1020.0</ele><time>2026-04-28T08:29:06.999Z</time></trkpt><trkpt lat="38.268684305660145" lon="16.07479634082811"><ele>1022.0</ele><time>2026-04-28T08:29:07.999Z</time></trkpt><trkpt lat="38.26852063307803" lon="16.07476377099925"><ele>1024.0</ele><time>2026-04-28T08:29:08.999Z</time></trkpt><trkpt lat="38.268361435682415" lon="16.074737528153417"><ele>1024.0</ele><time>2026-04-28T08:29:09.999Z</time></trkpt><trkpt lat="38.268208093374135" lon="16.074718547084547"><ele>1024.0</ele><time>2026-04-28T08:29:10.999Z</time></trkpt><trkpt lat="38.268059126013036" lon="16.07470547754438"><ele>1024.0</ele><time>2026-04-28T08:29:11.999Z</time></trkpt><trkpt lat="38.26791572369734" lon="16.074684998438453"><ele>1024.0</ele><time>2026-04-28T08:29:12.999Z</time></trkpt><trkpt lat="38.267780772694195" lon="16.074651453910782"><ele>1025.25</ele><time>2026-04-28T08:29:13.999Z</time></trkpt><trkpt lat="38.26765831246504" lon="16.074593178142372"><ele>1026.5</ele><time>2026-04-28T08:29:14.999Z</time></trkpt><trkpt lat="38.26753938878037" lon="16.0745247811046"><ele>1027.75</ele><time>2026-04-28T08:29:15.999Z</time></trkpt><trkpt lat="38.26742680343446" lon="16.074438609582103"><ele>1029.0</ele><time>2026-04-28T08:29:16.999Z</time></trkpt><trkpt lat="38.267320384795575" lon="16.07434598410244"><ele>1029.75</ele><time>2026-04-28T08:29:18Z</time></trkpt><trkpt lat="38.267229487080805" lon="16.074239456587613"><ele>1030.5</ele><time>2026-04-28T08:29:19Z</time></trkpt><trkpt lat="38.267139155221805" lon="16.07413966245601"><ele>1031.25</ele><time>2026-04-28T08:29:20Z</time></trkpt><trkpt lat="38.267059817251535" lon="16.074052767044417"><ele>1032.0</ele><time>2026-04-28T08:29:21Z</time></trkpt><trkpt lat="38.26699072967092" lon="16.073957170867825"><ele>1032.0</ele><time>2026-04-28T08:29:22Z</time></trkpt><trkpt lat="38.266918211577" lon="16.073849032604173"><ele>1032.0</ele><time>2026-04-28T08:29:23Z</time></trkpt><trkpt lat="38.26682802806053" lon="16.07374097672326"><ele>1032.0</ele><time>2026-04-28T08:29:24Z</time></trkpt><trkpt lat="38.26674311637152" lon="16.073628821377227"><ele>1032.0</ele><time>2026-04-28T08:29:25Z</time></trkpt><trkpt lat="38.26665440944286" lon="16.073510972919905"><ele>1032.0</ele><time>2026-04-28T08:29:26Z</time></trkpt><trkpt lat="38.26657344021157" lon="16.07338887842096"><ele>1032.0</ele><time>2026-04-28T08:29:27Z</time></trkpt><trkpt lat="38.26648012512022" lon="16.07327573787188"><ele>1032.0</ele><time>2026-04-28T08:29:28Z</time></trkpt><trkpt lat="38.26638359603037" lon="16.073160766773714"><ele>1032.0</ele><time>2026-04-28T08:29:29Z</time></trkpt><trkpt lat="38.26628700530256" lon="16.073038848105806"><ele>1032.0</ele><time>2026-04-28T08:29:30Z</time></trkpt><trkpt lat="38.266182512541306" lon="16.07291044189768"><ele>1032.0</ele><time>2026-04-28T08:29:31Z</time></trkpt><trkpt lat="38.26607319950517" lon="16.07278362068415"><ele>1032.0</ele><time>2026-04-28T08:29:32Z</time></trkpt><trkpt lat="38.26596952983757" lon="16.072639824019003"><ele>1032.0</ele><time>2026-04-28T08:29:33Z</time></trkpt><trkpt lat="38.26586023374482" lon="16.072494469130383"><ele>1033.0</ele><time>2026-04-28T08:29:34Z</time></trkpt><trkpt lat="38.265751953500214" lon="16.072356059870867"><ele>1034.0</ele><time>2026-04-28T08:29:35Z</time></trkpt><trkpt lat="38.26564900957027" lon="16.072219314859453"><ele>1035.0</ele><time>2026-04-28T08:29:36Z</time></trkpt><trkpt lat="38.265543570811126" lon="16.072085004695097"><ele>1035.0</ele><time>2026-04-28T08:29:37Z</time></trkpt><trkpt lat="38.26542646729611" lon="16.07195782990101"><ele>1035.0</ele><time>2026-04-28T08:29:38Z</time></trkpt><trkpt lat="38.26531199879392" lon="16.071824034613194"><ele>1035.0</ele><time>2026-04-28T08:29:39Z</time></trkpt><trkpt lat="38.265201491812185" lon="16.071675634010912"><ele>1035.5</ele><time>2026-04-28T08:29:40Z</time></trkpt><trkpt lat="38.26509134056077" lon="16.07153400393633"><ele>1036.0</ele><time>2026-04-28T08:29:41Z</time></trkpt><trkpt lat="38.26499284593414" lon="16.071405354993022"><ele>1036.5</ele><time>2026-04-28T08:29:42Z</time></trkpt><trkpt lat="38.26490935165456" lon="16.071272133665296"><ele>1037.0</ele><time>2026-04-28T08:29:43Z</time></trkpt><trkpt lat="38.26481698583969" lon="16.071144472607855"><ele>1032.5</ele><time>2026-04-28T08:29:44Z</time></trkpt><trkpt lat="38.26472920098554" lon="16.0710054800009"><ele>1028.0</ele><time>2026-04-28T08:29:45Z</time></trkpt><trkpt lat="38.26464334387914" lon="16.070860485426234"><ele>1023.5</ele><time>2026-04-28T08:29:46Z</time></trkpt><trkpt lat="38.2645618318535" lon="16.070704432033754"><ele>1019.0</ele><time>2026-04-28T08:29:47Z</time></trkpt><trkpt lat="38.26448746876657" lon="16.070536397656785"><ele>1019.0</ele><time>2026-04-28T08:29:48Z</time></trkpt><trkpt lat="38.264410925300524" lon="16.0703871204237"><ele>1019.0</ele><time>2026-04-28T08:29:49Z</time></trkpt><trkpt lat="38.26436982421902" lon="16.070190135003003"><ele>1019.0</ele><time>2026-04-28T08:29:50Z</time></trkpt><trkpt lat="38.26430858971418" lon="16.06999809523407"><ele>1020.75</ele><time>2026-04-28T08:29:51Z</time></trkpt><trkpt lat="38.26426706656514" lon="16.06981531880192"><ele>1022.5</ele><time>2026-04-28T08:29:52Z</time></trkpt><trkpt lat="38.2642234549281" lon="16.069647657666568"><ele>1024.25</ele><time>2026-04-28T08:29:53Z</time></trkpt><trkpt lat="38.264179348020754" lon="16.069480468163533"><ele>1026.0</ele><time>2026-04-28T08:29:54Z</time></trkpt><trkpt lat="38.264141405116874" lon="16.069303955457876"><ele>1026.0</ele><time>2026-04-28T08:29:55Z</time></trkpt><trkpt lat="38.26409779796072" lon="16.069121042449193"><ele>1026.0</ele><time>2026-04-28T08:29:56Z</time></trkpt><trkpt lat="38.26405295345076" lon="16.068932636724075"><ele>1026.0</ele><time>2026-04-28T08:29:57Z</time></trkpt><trkpt lat="38.264004950347875" lon="16.068743264776174"><ele>1025.6666666666667</ele><time>2026-04-28T08:29:58Z</time></trkpt><trkpt lat="38.26396203312887" lon="16.068558114252088"><ele>1025.3333333333335</ele><time>2026-04-28T08:29:59Z</time></trkpt><trkpt lat="38.263923180410316" lon="16.06836234064965"><ele>1025.0</ele><time>2026-04-28T08:30:00Z</time></trkpt><trkpt lat="38.263879106965035" lon="16.068174207116044"><ele>1026.3333333333335</ele><time>2026-04-28T08:30:01Z</time></trkpt><trkpt lat="38.26382948199651" lon="16.067983226868524"><ele>1027.6666666666667</ele><time>2026-04-28T08:30:02Z</time></trkpt><trkpt lat="38.26378471780192" lon="16.06779983918671"><ele>1029.0</ele><time>2026-04-28T08:30:03Z</time></trkpt><trkpt lat="38.26373816950042" lon="16.06761438540479"><ele>1029.0</ele><time>2026-04-28T08:30:04Z</time></trkpt><trkpt lat="38.26369093497918" lon="16.067423277220716"><ele>1029.0</ele><time>2026-04-28T08:30:05Z</time></trkpt><trkpt lat="38.26365061558611" lon="16.06723760709439"><ele>1029.0</ele><time>2026-04-28T08:30:06Z</time></trkpt><trkpt lat="38.263609113154956" lon="16.067064517771836"><ele>1029.0</ele><time>2026-04-28T08:30:07Z</time></trkpt><trkpt lat="38.263568185873844" lon="16.066883009764016"><ele>1029.0</ele><time>2026-04-28T08:30:08Z</time></trkpt><trkpt lat="38.26352286618814" lon="16.066705461685025"><ele>1029.0</ele><time>2026-04-28T08:30:09Z</time></trkpt><trkpt lat="38.26347586294916" lon="16.06651590551294"><ele>1029.6666666666667</ele><time>2026-04-28T08:30:10Z</time></trkpt><trkpt lat="38.2634192722858" lon="16.066320495981746"><ele>1030.3333333333335</ele><time>2026-04-28T08:30:11Z</time></trkpt><trkpt lat="38.26335633046445" lon="16.066127842276455"><ele>1031.0</ele><time>2026-04-28T08:30:12Z</time></trkpt><trkpt lat="38.26328556502731" lon="16.065948066359297"><ele>1031.0</ele><time>2026-04-28T08:30:13Z</time></trkpt><trkpt lat="38.263211723218255" lon="16.065779916851437"><ele>1031.0</ele><time>2026-04-28T08:30:14Z</time></trkpt><trkpt lat="38.26313805521529" lon="16.065615263680375"><ele>1031.0</ele><time>2026-04-28T08:30:15Z</time></trkpt><trkpt lat="38.2630614654105" lon="16.065457426707194"><ele>1031.0</ele><time>2026-04-28T08:30:16Z</time></trkpt><trkpt lat="38.26296951571341" lon="16.065312930768737"><ele>1032.3333333333335</ele><time>2026-04-28T08:30:17Z</time></trkpt><trkpt lat="38.26286295423778" lon="16.065170042638577"><ele>1033.6666666666667</ele><time>2026-04-28T08:30:18Z</time></trkpt><trkpt lat="38.26275010124287" lon="16.0650280538739"><ele>1035.0</ele><time>2026-04-28T08:30:19Z</time></trkpt><trkpt lat="38.262632008527966" lon="16.064886109819934"><ele>1035.0</ele><time>2026-04-28T08:30:20Z</time></trkpt><trkpt lat="38.26251038193995" lon="16.06473899449483"><ele>1035.0</ele><time>2026-04-28T08:30:21Z</time></trkpt><trkpt lat="38.26238678029837" lon="16.064591804976267"><ele>1035.0</ele><time>2026-04-28T08:30:22Z</time></trkpt><trkpt lat="38.26225948656925" lon="16.06444417826277"><ele>1034.3333333333333</ele><time>2026-04-28T08:30:23Z</time></trkpt><trkpt lat="38.26212803051793" lon="16.064298021816473"><ele>1033.6666666666665</ele><time>2026-04-28T08:30:24Z</time></trkpt><trkpt lat="38.26204471072739" lon="16.064087246521915"><ele>1033.0</ele><time>2026-04-28T08:30:25Z</time></trkpt><trkpt lat="38.26191698616146" lon="16.06393820975012"><ele>1033.0</ele><time>2026-04-28T08:30:26Z</time></trkpt><trkpt lat="38.26179283573864" lon="16.063789617733992"><ele>1033.0</ele><time>2026-04-28T08:30:27Z</time></trkpt><trkpt lat="38.261665033260414" lon="16.06363665467179"><ele>1033.0</ele><time>2026-04-28T08:30:28Z</time></trkpt><trkpt lat="38.261541173004154" lon="16.063488410068285"><ele>1033.6666666666665</ele><time>2026-04-28T08:30:29Z</time></trkpt><trkpt lat="38.26141522965733" lon="16.063338913525993"><ele>1034.3333333333333</ele><time>2026-04-28T08:30:30Z</time></trkpt><trkpt lat="38.26128996645972" lon="16.06319334304499"><ele>1035.0</ele><time>2026-04-28T08:30:31Z</time></trkpt><trkpt lat="38.26116829067297" lon="16.063051941495125"><ele>1035.0</ele><time>2026-04-28T08:30:32Z</time></trkpt><trkpt lat="38.26104711006987" lon="16.062911115456583"><ele>1035.0</ele><time>2026-04-28T08:30:33Z</time></trkpt><trkpt lat="38.26093156708098" lon="16.0627730791198"><ele>1035.0</ele><time>2026-04-28T08:30:34Z</time></trkpt><trkpt lat="38.260820592861556" lon="16.062639858299722"><ele>1035.0</ele><time>2026-04-28T08:30:35Z</time></trkpt><trkpt lat="38.26070720351218" lon="16.062505275182865"><ele>1035.0</ele><time>2026-04-28T08:30:36Z</time></trkpt><trkpt lat="38.260592728820704" lon="16.062372309389524"><ele>1035.0</ele><time>2026-04-28T08:30:37Z</time></trkpt><trkpt lat="38.260475728946076" lon="16.062238405053616"><ele>1036.3333333333333</ele><time>2026-04-28T08:30:38Z</time></trkpt><trkpt lat="38.26035864348364" lon="16.062106404113248"><ele>1037.6666666666665</ele><time>2026-04-28T08:30:39Z</time></trkpt><trkpt lat="38.260245002810485" lon="16.061976014862218"><ele>1039.0</ele><time>2026-04-28T08:30:40Z</time></trkpt><trkpt lat="38.260139297531666" lon="16.06184146940961"><ele>1039.0</ele><time>2026-04-28T08:30:41Z</time></trkpt><trkpt lat="38.260042589823016" lon="16.061721471031355"><ele>1039.0</ele><time>2026-04-28T08:30:42Z</time></trkpt><trkpt lat="38.25994630130443" lon="16.06160808724861"><ele>1039.0</ele><time>2026-04-28T08:30:43Z</time></trkpt><trkpt lat="38.25984273430892" lon="16.06149334885913"><ele>1039.0</ele><time>2026-04-28T08:30:44Z</time></trkpt><trkpt lat="38.259738281679844" lon="16.061379205859982"><ele>1039.75</ele><time>2026-04-28T08:30:45Z</time></trkpt><trkpt lat="38.259635361331505" lon="16.06126286275562"><ele>1040.5</ele><time>2026-04-28T08:30:46Z</time></trkpt><trkpt lat="38.25953384428072" lon="16.061145932096462"><ele>1041.25</ele><time>2026-04-28T08:30:47Z</time></trkpt><trkpt lat="38.25942962422305" lon="16.061025703495712"><ele>1042.0</ele><time>2026-04-28T08:30:48Z</time></trkpt><trkpt lat="38.2593257543424" lon="16.06090587889507"><ele>1042.0</ele><time>2026-04-28T08:30:49Z</time></trkpt><trkpt lat="38.25922067749475" lon="16.060784687536593"><ele>1042.0</ele><time>2026-04-28T08:30:50Z</time></trkpt><trkpt lat="38.259117106036435" lon="16.060665310156377"><ele>1042.0</ele><time>2026-04-28T08:30:51Z</time></trkpt><trkpt lat="38.259022562058334" lon="16.060556337889253"><ele>1042.0</ele><time>2026-04-28T08:30:52Z</time></trkpt><trkpt lat="38.25893120231443" lon="16.06045064202326"><ele>1042.75</ele><time>2026-04-28T08:30:53Z</time></trkpt><trkpt lat="38.25883693423842" lon="16.060341373126807"><ele>1043.5</ele><time>2026-04-28T08:30:54Z</time></trkpt><trkpt lat="38.25874412297181" lon="16.06023379295695"><ele>1044.25</ele><time>2026-04-28T08:30:55Z</time></trkpt><trkpt lat="38.25865023194339" lon="16.060124961163353"><ele>1045.0</ele><time>2026-04-28T08:30:56Z</time></trkpt><trkpt lat="38.25855994338144" lon="16.060020388895804"><ele>1045.75</ele><time>2026-04-28T08:30:57Z</time></trkpt><trkpt lat="38.25847347047212" lon="16.059920928308433"><ele>1046.5</ele><time>2026-04-28T08:30:58Z</time></trkpt><trkpt lat="38.25838690834567" lon="16.059821365067894"><ele>1047.25</ele><time>2026-04-28T08:30:59Z</time></trkpt><trkpt lat="38.25830139137569" lon="16.059724384123644"><ele>1048.0</ele><time>2026-04-28T08:31:00Z</time></trkpt><trkpt lat="38.258217592861435" lon="16.059629881450658"><ele>1048.0</ele><time>2026-04-28T08:31:01Z</time></trkpt><trkpt lat="38.25813148731325" lon="16.059534178096243"><ele>1048.0</ele><time>2026-04-28T08:31:02Z</time></trkpt><trkpt lat="38.25804893004219" lon="16.059444124462615"><ele>1048.0</ele><time>2026-04-28T08:31:03Z</time></trkpt><trkpt lat="38.25797073871227" lon="16.059362218265992"><ele>1048.0</ele><time>2026-04-28T08:31:04Z</time></trkpt><trkpt lat="38.25787877203979" lon="16.059276123926114"><ele>1048.0</ele><time>2026-04-28T08:31:05Z</time></trkpt><trkpt lat="38.25778486258742" lon="16.05919881060213"><ele>1047.8</ele><time>2026-04-28T08:31:06Z</time></trkpt><trkpt lat="38.25769695760858" lon="16.059133824177138"><ele>1047.6</ele><time>2026-04-28T08:31:06.999Z</time></trkpt><trkpt lat="38.257603562768125" lon="16.059070213022533"><ele>1047.4</ele><time>2026-04-28T08:31:07.999Z</time></trkpt><trkpt lat="38.2574966993067" lon="16.059004900737467"><ele>1047.2</ele><time>2026-04-28T08:31:08.999Z</time></trkpt><trkpt lat="38.25738562105968" lon="16.05894185792887"><ele>1047.0</ele><time>2026-04-28T08:31:09.999Z</time></trkpt><trkpt lat="38.25727588598952" lon="16.05887495469635"><ele>1043.75</ele><time>2026-04-28T08:31:10.999Z</time></trkpt><trkpt lat="38.257170659136165" lon="16.05880608068461"><ele>1040.5</ele><time>2026-04-28T08:31:11.999Z</time></trkpt><trkpt lat="38.257064849115075" lon="16.058730721765045"><ele>1037.25</ele><time>2026-04-28T08:31:12.999Z</time></trkpt><trkpt lat="38.25695878855542" lon="16.0586464350265"><ele>1034.0</ele><time>2026-04-28T08:31:13.999Z</time></trkpt><trkpt lat="38.256849980072154" lon="16.058548340203295"><ele>1034.0</ele><time>2026-04-28T08:31:14.999Z</time></trkpt><trkpt lat="38.25673395352474" lon="16.058431576490122"><ele>1034.0</ele><time>2026-04-28T08:31:15.999Z</time></trkpt><trkpt lat="38.256618025095904" lon="16.058304894724216"><ele>1034.0</ele><time>2026-04-28T08:31:16.999Z</time></trkpt><trkpt lat="38.25650011598047" lon="16.05816421454946"><ele>1028.3333333333335</ele><time>2026-04-28T08:31:17.999Z</time></trkpt><trkpt lat="38.25638677212169" lon="16.058030715318576"><ele>1022.6666666666667</ele><time>2026-04-28T08:31:18.999Z</time></trkpt><trkpt lat="38.25626470714577" lon="16.0579047558785"><ele>1017.0</ele><time>2026-04-28T08:31:19.999Z</time></trkpt><trkpt lat="38.25613996009592" lon="16.057794124489483"><ele>1017.0</ele><time>2026-04-28T08:31:20.999Z</time></trkpt><trkpt lat="38.25601244828656" lon="16.05769298324969"><ele>1017.0</ele><time>2026-04-28T08:31:21.999Z</time></trkpt><trkpt lat="38.25588363498663" lon="16.057647715231326"><ele>1017.0</ele><time>2026-04-28T08:31:22.999Z</time></trkpt><trkpt lat="38.255790650778806" lon="16.05760240608764"><ele>1017.0</ele><time>2026-04-28T08:31:24Z</time></trkpt><trkpt lat="38.25568361614233" lon="16.05759880585997"><ele>1015.5</ele><time>2026-04-28T08:31:25Z</time></trkpt><trkpt lat="38.25554839338723" lon="16.057603416556862"><ele>1014.0</ele><time>2026-04-28T08:31:26Z</time></trkpt><trkpt lat="38.255406253661796" lon="16.057660966995734"><ele>1012.5</ele><time>2026-04-28T08:31:27Z</time></trkpt><trkpt lat="38.25526701478372" lon="16.057722244107843"><ele>1011.0</ele><time>2026-04-28T08:31:28Z</time></trkpt><trkpt lat="38.255128384003015" lon="16.05778071054099"><ele>1011.0</ele><time>2026-04-28T08:31:29Z</time></trkpt><trkpt lat="38.2549919524562" lon="16.057838249424734"><ele>1011.0</ele><time>2026-04-28T08:31:30Z</time></trkpt><trkpt lat="38.25485799491634" lon="16.057891030561958"><ele>1011.0</ele><time>2026-04-28T08:31:31Z</time></trkpt><trkpt lat="38.25472142715824" lon="16.057929125071745"><ele>1011.0</ele><time>2026-04-28T08:31:32Z</time></trkpt><trkpt lat="38.25457614942362" lon="16.057953117897394"><ele>1016.0</ele><time>2026-04-28T08:31:33Z</time></trkpt><trkpt lat="38.254427703826934" lon="16.057960525881626"><ele>1021.0</ele><time>2026-04-28T08:31:34Z</time></trkpt><trkpt lat="38.254281385172625" lon="16.05797295822593"><ele>1026.0</ele><time>2026-04-28T08:31:35Z</time></trkpt><trkpt lat="38.25413793480682" lon="16.058013739370267"><ele>1031.0</ele><time>2026-04-28T08:31:36Z</time></trkpt><trkpt lat="38.254004436178164" lon="16.05808429125874"><ele>1037.0</ele><time>2026-04-28T08:31:37Z</time></trkpt><trkpt lat="38.25387748132873" lon="16.058191835261034"><ele>1043.0</ele><time>2026-04-28T08:31:38Z</time></trkpt><trkpt lat="38.253760811995996" lon="16.058331600896143"><ele>1049.0</ele><time>2026-04-28T08:31:39Z</time></trkpt><trkpt lat="38.2536555727416" lon="16.058459654643226"><ele>1049.0</ele><time>2026-04-28T08:31:40Z</time></trkpt><trkpt lat="38.2535537859976" lon="16.058580994191182"><ele>1049.0</ele><time>2026-04-28T08:31:41Z</time></trkpt><trkpt lat="38.253451865975855" lon="16.058705887635515"><ele>1049.0</ele><time>2026-04-28T08:31:42Z</time></trkpt><trkpt lat="38.25334751707665" lon="16.058834538437793"><ele>1049.0</ele><time>2026-04-28T08:31:43Z</time></trkpt><trkpt lat="38.25324828688367" lon="16.058969330562253"><ele>1047.25</ele><time>2026-04-28T08:31:44Z</time></trkpt><trkpt lat="38.25317180660067" lon="16.05914132869908"><ele>1045.5</ele><time>2026-04-28T08:31:45Z</time></trkpt><trkpt lat="38.25311228896336" lon="16.059317013798577"><ele>1043.75</ele><time>2026-04-28T08:31:46Z</time></trkpt><trkpt lat="38.25305736579628" lon="16.059472851121654"><ele>1042.0</ele><time>2026-04-28T08:31:47Z</time></trkpt><trkpt lat="38.25300900508318" lon="16.05959797906748"><ele>1043.2</ele><time>2026-04-28T08:31:48Z</time></trkpt><trkpt lat="38.25295040265085" lon="16.059697246003143"><ele>1044.4</ele><time>2026-04-28T08:31:49Z</time></trkpt><trkpt lat="38.25286668103165" lon="16.059780776286136"><ele>1045.6</ele><time>2026-04-28T08:31:50Z</time></trkpt><trkpt lat="38.25276822121044" lon="16.059865163084144"><ele>1046.8</ele><time>2026-04-28T08:31:51Z</time></trkpt><trkpt lat="38.25266338434208" lon="16.059938092349668"><ele>1048.0</ele><time>2026-04-28T08:31:52Z</time></trkpt><trkpt lat="38.25257876966396" lon="16.059982964083922"><ele>1048.0</ele><time>2026-04-28T08:31:53Z</time></trkpt><trkpt lat="38.252496957904256" lon="16.059998414465557"><ele>1048.0</ele><time>2026-04-28T08:31:54Z</time></trkpt><trkpt lat="38.25240619104245" lon="16.059979751472806"><ele>1048.0</ele><time>2026-04-28T08:31:55Z</time></trkpt><trkpt lat="38.25232788715666" lon="16.059919913226963"><ele>1048.0</ele><time>2026-04-28T08:31:56Z</time></trkpt><trkpt lat="38.252249793171515" lon="16.059847482911575"><ele>1048.0</ele><time>2026-04-28T08:31:57Z</time></trkpt><trkpt lat="38.252208324280474" lon="16.059723399535763"><ele>1049.25</ele><time>2026-04-28T08:31:58Z</time></trkpt><trkpt lat="38.252178123345" lon="16.059586015975075"><ele>1050.5</ele><time>2026-04-28T08:31:59Z</time></trkpt><trkpt lat="38.25215168041252" lon="16.059431547051997"><ele>1051.75</ele><time>2026-04-28T08:32:00Z</time></trkpt><trkpt lat="38.252121095003886" lon="16.059283526206094"><ele>1053.0</ele><time>2026-04-28T08:32:01Z</time></trkpt><trkpt lat="38.25208236345956" lon="16.059136831274365"><ele>1054.25</ele><time>2026-04-28T08:32:02Z</time></trkpt><trkpt lat="38.252042807376085" lon="16.05898578790795"><ele>1055.5</ele><time>2026-04-28T08:32:03Z</time></trkpt><trkpt lat="38.25200548678262" lon="16.05883882782535"><ele>1056.75</ele><time>2026-04-28T08:32:04Z</time></trkpt><trkpt lat="38.251968376107534" lon="16.05868607776176"><ele>1058.0</ele><time>2026-04-28T08:32:05Z</time></trkpt><trkpt lat="38.251938082416075" lon="16.058533394190007"><ele>1058.0</ele><time>2026-04-28T08:32:06Z</time></trkpt><trkpt lat="38.25190518352128" lon="16.058371069498172"><ele>1058.0</ele><time>2026-04-28T08:32:07Z</time></trkpt><trkpt lat="38.251868817831564" lon="16.058218192254376"><ele>1058.0</ele><time>2026-04-28T08:32:08Z</time></trkpt><trkpt lat="38.25183217298575" lon="16.058064290283916"><ele>1058.0</ele><time>2026-04-28T08:32:09Z</time></trkpt><trkpt lat="38.25181075325262" lon="16.0578966781722"><ele>1058.3333333333335</ele><time>2026-04-28T08:32:10Z</time></trkpt><trkpt lat="38.25175454550202" lon="16.057708278572377"><ele>1058.6666666666667</ele><time>2026-04-28T08:32:11Z</time></trkpt><trkpt lat="38.25172959527854" lon="16.057526931588324"><ele>1059.0</ele><time>2026-04-28T08:32:12Z</time></trkpt><trkpt lat="38.25168972001475" lon="16.057345931983008"><ele>1059.0</ele><time>2026-04-28T08:32:13Z</time></trkpt><trkpt lat="38.25164978292271" lon="16.057165521678847"><ele>1059.0</ele><time>2026-04-28T08:32:14Z</time></trkpt><trkpt lat="38.25160842432042" lon="16.056980920314942"><ele>1059.0</ele><time>2026-04-28T08:32:15Z</time></trkpt><trkpt lat="38.25156701021356" lon="16.05680141232878"><ele>1059.0</ele><time>2026-04-28T08:32:16Z</time></trkpt><trkpt lat="38.25152619866384" lon="16.056625123087564"><ele>1058.75</ele><time>2026-04-28T08:32:17Z</time></trkpt><trkpt lat="38.25148443762832" lon="16.056448422096757"><ele>1058.5</ele><time>2026-04-28T08:32:18Z</time></trkpt><trkpt lat="38.251441544337844" lon="16.056272392436078"><ele>1058.25</ele><time>2026-04-28T08:32:19Z</time></trkpt><trkpt lat="38.251397741775484" lon="16.05610007323807"><ele>1058.0</ele><time>2026-04-28T08:32:20Z</time></trkpt><trkpt lat="38.251349580420225" lon="16.05592686567401"><ele>1059.5</ele><time>2026-04-28T08:32:21Z</time></trkpt><trkpt lat="38.251299500413964" lon="16.055756405845475"><ele>1061.0</ele><time>2026-04-28T08:32:22Z</time></trkpt><trkpt lat="38.251248701304775" lon="16.055585820986604"><ele>1062.5</ele><time>2026-04-28T08:32:23Z</time></trkpt><trkpt lat="38.251197670582094" lon="16.05541742075364"><ele>1064.0</ele><time>2026-04-28T08:32:24Z</time></trkpt><trkpt lat="38.25114145438291" lon="16.055247869419315"><ele>1064.0</ele><time>2026-04-28T08:32:25Z</time></trkpt><trkpt lat="38.25108597549379" lon="16.055074694507056"><ele>1064.0</ele><time>2026-04-28T08:32:26Z</time></trkpt><trkpt lat="38.25102965067995" lon="16.05489881407812"><ele>1064.0</ele><time>2026-04-28T08:32:27Z</time></trkpt><trkpt lat="38.250971751952775" lon="16.054725699141663"><ele>1064.0</ele><time>2026-04-28T08:32:28Z</time></trkpt><trkpt lat="38.250914135513554" lon="16.054553428005157"><ele>1066.0</ele><time>2026-04-28T08:32:29Z</time></trkpt><trkpt lat="38.25085512629783" lon="16.05437699269182"><ele>1068.0</ele><time>2026-04-28T08:32:30Z</time></trkpt><trkpt lat="38.25079650481967" lon="16.054201716923014"><ele>1070.0</ele><time>2026-04-28T08:32:31Z</time></trkpt><trkpt lat="38.25073671585223" lon="16.054028972924396"><ele>1072.0</ele><time>2026-04-28T08:32:32Z</time></trkpt><trkpt lat="38.250674400917305" lon="16.053853961900938"><ele>1072.5</ele><time>2026-04-28T08:32:33Z</time></trkpt><trkpt lat="38.2506146241776" lon="16.053686285982604"><ele>1073.0</ele><time>2026-04-28T08:32:34Z</time></trkpt><trkpt lat="38.25055321128298" lon="16.053510935710708"><ele>1073.5</ele><time>2026-04-28T08:32:35Z</time></trkpt><trkpt lat="38.25049348992585" lon="16.053336308678922"><ele>1074.0</ele><time>2026-04-28T08:32:36Z</time></trkpt><trkpt lat="38.2504393381385" lon="16.05317282246772"><ele>1074.5</ele><time>2026-04-28T08:32:37Z</time></trkpt><trkpt lat="38.25039136738926" lon="16.05301646622431"><ele>1075.0</ele><time>2026-04-28T08:32:38Z</time></trkpt><trkpt lat="38.25034410942955" lon="16.05284783382413"><ele>1075.5</ele><time>2026-04-28T08:32:39Z</time></trkpt><trkpt lat="38.25030390138428" lon="16.052677000551977"><ele>1076.0</ele><time>2026-04-28T08:32:40Z</time></trkpt><trkpt lat="38.250275888121045" lon="16.052506241243144"><ele>1076.75</ele><time>2026-04-28T08:32:41Z</time></trkpt><trkpt lat="38.25026120752878" lon="16.052343676049272"><ele>1077.5</ele><time>2026-04-28T08:32:42Z</time></trkpt><trkpt lat="38.250251282202576" lon="16.052172598191408"><ele>1078.25</ele><time>2026-04-28T08:32:43Z</time></trkpt><trkpt lat="38.250247151281215" lon="16.0520049500734"><ele>1079.0</ele><time>2026-04-28T08:32:44Z</time></trkpt><trkpt lat="38.25023501894194" lon="16.051829546287554"><ele>1079.0</ele><time>2026-04-28T08:32:45Z</time></trkpt><trkpt lat="38.250246027452754" lon="16.051664877049667"><ele>1079.0</ele><time>2026-04-28T08:32:46Z</time></trkpt><trkpt lat="38.25025159310366" lon="16.051505979353983"><ele>1079.0</ele><time>2026-04-28T08:32:47Z</time></trkpt><trkpt lat="38.25025534260451" lon="16.05134890293144"><ele>1079.0</ele><time>2026-04-28T08:32:48Z</time></trkpt><trkpt lat="38.25027071377695" lon="16.051190847180116"><ele>1079.75</ele><time>2026-04-28T08:32:49Z</time></trkpt><trkpt lat="38.25029776013367" lon="16.051006900908956"><ele>1080.5</ele><time>2026-04-28T08:32:50Z</time></trkpt><trkpt lat="38.25031232021739" lon="16.050828253080876"><ele>1081.25</ele><time>2026-04-28T08:32:51Z</time></trkpt><trkpt lat="38.25032775251238" lon="16.050638903484778"><ele>1082.0</ele><time>2026-04-28T08:32:52Z</time></trkpt><trkpt lat="38.25030988147601" lon="16.050475590350448"><ele>1082.75</ele><time>2026-04-28T08:32:53Z</time></trkpt><trkpt lat="38.25031509623688" lon="16.050312958012714"><ele>1083.5</ele><time>2026-04-28T08:32:54Z</time></trkpt><trkpt lat="38.25032930038149" lon="16.050153709000114"><ele>1084.25</ele><time>2026-04-28T08:32:55Z</time></trkpt><trkpt lat="38.250342815222716" lon="16.04998932369941"><ele>1085.0</ele><time>2026-04-28T08:32:56Z</time></trkpt><trkpt lat="38.25034865782166" lon="16.04982080358346"><ele>1085.0</ele><time>2026-04-28T08:32:57Z</time></trkpt><trkpt lat="38.25035499378349" lon="16.04965247277451"><ele>1085.0</ele><time>2026-04-28T08:32:58Z</time></trkpt><trkpt lat="38.25036809158213" lon="16.04948187484473"><ele>1085.0</ele><time>2026-04-28T08:32:59Z</time></trkpt><trkpt lat="38.25038000405776" lon="16.049313245729326"><ele>1085.0</ele><time>2026-04-28T08:33:00Z</time></trkpt><trkpt lat="38.25038774663127" lon="16.049133747788634"><ele>1085.25</ele><time>2026-04-28T08:33:01Z</time></trkpt><trkpt lat="38.25039830998692" lon="16.048952960545286"><ele>1085.5</ele><time>2026-04-28T08:33:02Z</time></trkpt><trkpt lat="38.25041300899779" lon="16.0487601505449"><ele>1085.75</ele><time>2026-04-28T08:33:03Z</time></trkpt><trkpt lat="38.25042106510057" lon="16.048568979496903"><ele>1086.0</ele><time>2026-04-28T08:33:04Z</time></trkpt><trkpt lat="38.250433981440096" lon="16.04838226639128"><ele>1085.5</ele><time>2026-04-28T08:33:05Z</time></trkpt><trkpt lat="38.250447124054055" lon="16.048198657278828"><ele>1085.0</ele><time>2026-04-28T08:33:06Z</time></trkpt><trkpt lat="38.250459135249855" lon="16.048013206728726"><ele>1084.5</ele><time>2026-04-28T08:33:07Z</time></trkpt><trkpt lat="38.25046729351008" lon="16.04782303953885"><ele>1084.0</ele><time>2026-04-28T08:33:08Z</time></trkpt><trkpt lat="38.25047932874088" lon="16.04763139122462"><ele>1084.6666666666665</ele><time>2026-04-28T08:33:09Z</time></trkpt><trkpt lat="38.25049153725063" lon="16.047431874293338"><ele>1085.3333333333333</ele><time>2026-04-28T08:33:10Z</time></trkpt><trkpt lat="38.25049582759665" lon="16.04724078025932"><ele>1086.0</ele><time>2026-04-28T08:33:11Z</time></trkpt><trkpt lat="38.25049748932036" lon="16.04704592703015"><ele>1086.0</ele><time>2026-04-28T08:33:11.999Z</time></trkpt><trkpt lat="38.250489949545944" lon="16.04685621306341"><ele>1086.0</ele><time>2026-04-28T08:33:12.999Z</time></trkpt><trkpt lat="38.25045802516125" lon="16.04667103857716"><ele>1086.0</ele><time>2026-04-28T08:33:13.999Z</time></trkpt><trkpt lat="38.25041454732947" lon="16.04648845005872"><ele>1086.0</ele><time>2026-04-28T08:33:14.999Z</time></trkpt><trkpt lat="38.25035967995414" lon="16.04631554903101"><ele>1086.75</ele><time>2026-04-28T08:33:15.999Z</time></trkpt><trkpt lat="38.25029798881465" lon="16.046142667195337"><ele>1087.5</ele><time>2026-04-28T08:33:16.999Z</time></trkpt><trkpt lat="38.250234431017546" lon="16.04598087092463"><ele>1088.25</ele><time>2026-04-28T08:33:17.999Z</time></trkpt><trkpt lat="38.25017224569918" lon="16.045839722835467"><ele>1089.0</ele><time>2026-04-28T08:33:18.999Z</time></trkpt><trkpt lat="38.250101893545065" lon="16.045699008901625"><ele>1089.0</ele><time>2026-04-28T08:33:19.999Z</time></trkpt><trkpt lat="38.2500209494168" lon="16.045568503549525"><ele>1089.0</ele><time>2026-04-28T08:33:20.999Z</time></trkpt><trkpt lat="38.24992853343328" lon="16.04544913864839"><ele>1089.0</ele><time>2026-04-28T08:33:21.999Z</time></trkpt><trkpt lat="38.2498391554065" lon="16.045336947731215"><ele>1089.0</ele><time>2026-04-28T08:33:22.999Z</time></trkpt><trkpt lat="38.24972511996056" lon="16.045231799602085"><ele>1089.0</ele><time>2026-04-28T08:33:23.999Z</time></trkpt><trkpt lat="38.24960386475857" lon="16.04513496836383"><ele>1089.0</ele><time>2026-04-28T08:33:24.999Z</time></trkpt><trkpt lat="38.24947700534157" lon="16.04504999987539"><ele>1089.0</ele><time>2026-04-28T08:33:25.999Z</time></trkpt><trkpt lat="38.24935945093747" lon="16.044972190118223"><ele>1089.0</ele><time>2026-04-28T08:33:26.999Z</time></trkpt><trkpt lat="38.24925171066056" lon="16.044905292004803"><ele>1088.75</ele><time>2026-04-28T08:33:27.999Z</time></trkpt><trkpt lat="38.24915017319396" lon="16.044828768562187"><ele>1088.5</ele><time>2026-04-28T08:33:28.999Z</time></trkpt><trkpt lat="38.249064327648334" lon="16.04473996148415"><ele>1088.25</ele><time>2026-04-28T08:33:30Z</time></trkpt><trkpt lat="38.24899300496059" lon="16.04462461798933"><ele>1088.0</ele><time>2026-04-28T08:33:31Z</time></trkpt><trkpt lat="38.24893653508212" lon="16.04449843504986"><ele>1086.0</ele><time>2026-04-28T08:33:32Z</time></trkpt><trkpt lat="38.248905158590226" lon="16.044354896532735"><ele>1084.0</ele><time>2026-04-28T08:33:33Z</time></trkpt><trkpt lat="38.24890710772193" lon="16.044206868085734"><ele>1082.0</ele><time>2026-04-28T08:33:34Z</time></trkpt><trkpt lat="38.24893808180119" lon="16.04406160307325"><ele>1080.0</ele><time>2026-04-28T08:33:35Z</time></trkpt><trkpt lat="38.24899299848268" lon="16.0439260437213"><ele>1080.0</ele><time>2026-04-28T08:33:36Z</time></trkpt><trkpt lat="38.24905871390126" lon="16.04381479930887"><ele>1080.0</ele><time>2026-04-28T08:33:37Z</time></trkpt><trkpt lat="38.24913673005069" lon="16.043703803332143"><ele>1080.0</ele><time>2026-04-28T08:33:38Z</time></trkpt><trkpt lat="38.24921472009553" lon="16.043593985349688"><ele>1080.0</ele><time>2026-04-28T08:33:39Z</time></trkpt><trkpt lat="38.24930559476129" lon="16.043477817721545"><ele>1080.0</ele><time>2026-04-28T08:33:40Z</time></trkpt><trkpt lat="38.24940129946888" lon="16.04336328100325"><ele>1080.0</ele><time>2026-04-28T08:33:41Z</time></trkpt><trkpt lat="38.24949218841131" lon="16.043232609007486"><ele>1080.0</ele><time>2026-04-28T08:33:42Z</time></trkpt><trkpt lat="38.24957736428812" lon="16.043108039320146"><ele>1080.0</ele><time>2026-04-28T08:33:43Z</time></trkpt><trkpt lat="38.24965609864049" lon="16.04298827045342"><ele>1080.0</ele><time>2026-04-28T08:33:44Z</time></trkpt><trkpt lat="38.24973567739823" lon="16.04286838135493"><ele>1080.0</ele><time>2026-04-28T08:33:45Z</time></trkpt><trkpt lat="38.24982119509823" lon="16.04274979313267"><ele>1080.0</ele><time>2026-04-28T08:33:46Z</time></trkpt><trkpt lat="38.249894871021546" lon="16.04262845659227"><ele>1080.0</ele><time>2026-04-28T08:33:47Z</time></trkpt><trkpt lat="38.24996765369105" lon="16.042512634573203"><ele>1073.0</ele><time>2026-04-28T08:33:48Z</time></trkpt><trkpt lat="38.250049259619935" lon="16.042404929802565"><ele>1066.0</ele><time>2026-04-28T08:33:49Z</time></trkpt><trkpt lat="38.250143165052975" lon="16.04230206422997"><ele>1059.0</ele><time>2026-04-28T08:33:50Z</time></trkpt><trkpt lat="38.250248109410194" lon="16.042220135526716"><ele>1052.0</ele><time>2026-04-28T08:33:51Z</time></trkpt><trkpt lat="38.25034447239716" lon="16.042136322956125"><ele>1052.0</ele><time>2026-04-28T08:33:52Z</time></trkpt><trkpt lat="38.25042499928884" lon="16.04203025413805"><ele>1052.0</ele><time>2026-04-28T08:33:53Z</time></trkpt><trkpt lat="38.25050848544947" lon="16.041938616151413"><ele>1052.0</ele><time>2026-04-28T08:33:54Z</time></trkpt><trkpt lat="38.250601836039095" lon="16.041840931739223"><ele>1052.0</ele><time>2026-04-28T08:33:55Z</time></trkpt><trkpt lat="38.25069757562408" lon="16.041745646131005"><ele>1054.0</ele><time>2026-04-28T08:33:56Z</time></trkpt><trkpt lat="38.250791323314765" lon="16.041648741619"><ele>1056.0</ele><time>2026-04-28T08:33:57Z</time></trkpt><trkpt lat="38.25088205854464" lon="16.04155347330872"><ele>1058.0</ele><time>2026-04-28T08:33:58Z</time></trkpt><trkpt lat="38.25096092699575" lon="16.041464085287803"><ele>1060.0</ele><time>2026-04-28T08:33:59Z</time></trkpt><trkpt lat="38.25104586050919" lon="16.041407836241167"><ele>1062.0</ele><time>2026-04-28T08:34:00Z</time></trkpt><trkpt lat="38.251129939053726" lon="16.04139381217773"><ele>1062.0</ele><time>2026-04-28T08:34:01Z</time></trkpt><trkpt lat="38.25119974987978" lon="16.041426567448873"><ele>1062.0</ele><time>2026-04-28T08:34:02Z</time></trkpt><trkpt lat="38.251260605492256" lon="16.041470707217336"><ele>1062.0</ele><time>2026-04-28T08:34:03Z</time></trkpt><trkpt lat="38.25131834288601" lon="16.041557048747972"><ele>1062.0</ele><time>2026-04-28T08:34:04Z</time></trkpt><trkpt lat="38.25130152077331" lon="16.04167483983609"><ele>1062.0</ele><time>2026-04-28T08:34:05Z</time></trkpt><trkpt lat="38.25124527538422" lon="16.041757021643804"><ele>1062.0</ele><time>2026-04-28T08:34:06Z</time></trkpt><trkpt lat="38.2512009529712" lon="16.041828713455793"><ele>1062.0</ele><time>2026-04-28T08:34:07Z</time></trkpt><trkpt lat="38.251146487234465" lon="16.041923577165555"><ele>1062.0</ele><time>2026-04-28T08:34:08Z</time></trkpt><trkpt lat="38.25115050242279" lon="16.042041506030312"><ele>1062.0</ele><time>2026-04-28T08:34:09Z</time></trkpt><trkpt lat="38.25117781744564" lon="16.042149305284916"><ele>1062.0</ele><time>2026-04-28T08:34:10Z</time></trkpt><trkpt lat="38.25123366874008" lon="16.042226620974038"><ele>1062.0</ele><time>2026-04-28T08:34:11Z</time></trkpt><trkpt lat="38.2512738691521" lon="16.042316521573017"><ele>1062.0</ele><time>2026-04-28T08:34:12Z</time></trkpt><trkpt lat="38.25135785123038" lon="16.04210117520995"><ele>1062.0</ele><time>2026-04-28T08:34:13Z</time></trkpt><trkpt lat="38.25142968293548" lon="16.041943784770503"><ele>1062.0</ele><time>2026-04-28T08:34:14Z</time></trkpt><trkpt lat="38.25147660397958" lon="16.04185489678818"><ele>1062.0</ele><time>2026-04-28T08:34:15Z</time></trkpt><trkpt lat="38.25152376081305" lon="16.041757939751406"><ele>1062.0</ele><time>2026-04-28T08:34:16Z</time></trkpt><trkpt lat="38.25155381401824" lon="16.04165167774632"><ele>1062.0</ele><time>2026-04-28T08:34:17Z</time></trkpt><trkpt lat="38.25155035933076" lon="16.04155531247212"><ele>1057.0</ele><time>2026-04-28T08:34:18Z</time></trkpt><trkpt lat="38.25152955294222" lon="16.04146766381409"><ele>1052.0</ele><time>2026-04-28T08:34:19Z</time></trkpt><trkpt lat="38.251487664698296" lon="16.04137255732589"><ele>1047.0</ele><time>2026-04-28T08:34:20Z</time></trkpt><trkpt lat="38.251405444670205" lon="16.041276488335946"><ele>1042.0</ele><time>2026-04-28T08:34:21Z</time></trkpt><trkpt lat="38.2513181282734" lon="16.041186940142268"><ele>1037.0</ele><time>2026-04-28T08:34:22Z</time></trkpt><trkpt lat="38.2512311489169" lon="16.041110716625404"><ele>1037.0</ele><time>2026-04-28T08:34:23Z</time></trkpt><trkpt lat="38.25112925404489" lon="16.04106147607367"><ele>1037.0</ele><time>2026-04-28T08:34:24Z</time></trkpt><trkpt lat="38.251034783944114" lon="16.04102454211246"><ele>1037.0</ele><time>2026-04-28T08:34:25Z</time></trkpt><trkpt lat="38.25094597964873" lon="16.04102746946525"><ele>1037.0</ele><time>2026-04-28T08:34:26Z</time></trkpt><trkpt lat="38.250855005536124" lon="16.041050967412065"><ele>1037.0</ele><time>2026-04-28T08:34:27Z</time></trkpt><trkpt lat="38.250781698759475" lon="16.041123181396415"><ele>1037.0</ele><time>2026-04-28T08:34:28Z</time></trkpt><trkpt lat="38.250724512697225" lon="16.041203235568528"><ele>1037.0</ele><time>2026-04-28T08:34:29Z</time></trkpt><trkpt lat="38.250659072116086" lon="16.04128498511837"><ele>1037.0</ele><time>2026-04-28T08:34:30Z</time></trkpt><trkpt lat="38.25057207699016" lon="16.041344159260454"><ele>1037.0</ele><time>2026-04-28T08:34:31Z</time></trkpt><trkpt lat="38.250484742103" lon="16.041404336569112"><ele>1037.0</ele><time>2026-04-28T08:34:32Z</time></trkpt><trkpt lat="38.250403323557364" lon="16.041448111526236"><ele>1036.3333333333335</ele><time>2026-04-28T08:34:33Z</time></trkpt><trkpt lat="38.25032148252303" lon="16.041497636449645"><ele>1035.6666666666667</ele><time>2026-04-28T08:34:34Z</time></trkpt><trkpt lat="38.25023187531928" lon="16.041501128495135"><ele>1035.0</ele><time>2026-04-28T08:34:35Z</time></trkpt><trkpt lat="38.25016682606309" lon="16.04148414600166"><ele>1034.3333333333333</ele><time>2026-04-28T08:34:36Z</time></trkpt><trkpt lat="38.25009208631982" lon="16.041420572352767"><ele>1033.6666666666665</ele><time>2026-04-28T08:34:37Z</time></trkpt><trkpt lat="38.250029682712736" lon="16.041327639547276"><ele>1033.0</ele><time>2026-04-28T08:34:38Z</time></trkpt><trkpt lat="38.24997269858682" lon="16.041202612335756"><ele>1033.0</ele><time>2026-04-28T08:34:39Z</time></trkpt><trkpt lat="38.249949891265295" lon="16.041056566190544"><ele>1033.0</ele><time>2026-04-28T08:34:40Z</time></trkpt><trkpt lat="38.24991515382797" lon="16.040938622488444"><ele>1033.0</ele><time>2026-04-28T08:34:41Z</time></trkpt><trkpt lat="38.249871544464284" lon="16.040808755785815"><ele>1033.0</ele><time>2026-04-28T08:34:42Z</time></trkpt><trkpt lat="38.24980135054358" lon="16.04069526046649"><ele>1033.0</ele><time>2026-04-28T08:34:43Z</time></trkpt><trkpt lat="38.24967883999427" lon="16.040637031671846"><ele>1028.4</ele><time>2026-04-28T08:34:44Z</time></trkpt><trkpt lat="38.249561453373154" lon="16.04062887425381"><ele>1023.8</ele><time>2026-04-28T08:34:45Z</time></trkpt><trkpt lat="38.24946377754462" lon="16.04058313253133"><ele>1019.2</ele><time>2026-04-28T08:34:46Z</time></trkpt><trkpt lat="38.24937487242967" lon="16.04053427992968"><ele>1014.6</ele><time>2026-04-28T08:34:47Z</time></trkpt><trkpt lat="38.2493372358877" lon="16.04040411275109"><ele>1010.0</ele><time>2026-04-28T08:34:49Z</time></trkpt><trkpt lat="38.249328212273724" lon="16.04029329773532"><ele>1010.0</ele><time>2026-04-28T08:34:50Z</time></trkpt><trkpt lat="38.24931201326992" lon="16.04018594132193"><ele>1010.0</ele><time>2026-04-28T08:34:51Z</time></trkpt><trkpt lat="38.249307821542764" lon="16.04007517742198"><ele>1010.0</ele><time>2026-04-28T08:34:52Z</time></trkpt><trkpt lat="38.24931209985465" lon="16.039968367179224"><ele>1010.0</ele><time>2026-04-28T08:34:53Z</time></trkpt><trkpt lat="38.24931586643231" lon="16.039832249860073"><ele>1010.0</ele><time>2026-04-28T08:34:54Z</time></trkpt><trkpt lat="38.249325678273976" lon="16.03969926669305"><ele>1013.2</ele><time>2026-04-28T08:34:55Z</time></trkpt><trkpt lat="38.249322110137626" lon="16.03955562066424"><ele>1016.4</ele><time>2026-04-28T08:34:56Z</time></trkpt><trkpt lat="38.24930261813094" lon="16.039415924202146"><ele>1019.5999999999999</ele><time>2026-04-28T08:34:57Z</time></trkpt><trkpt lat="38.24926770982496" lon="16.039290960205822"><ele>1022.8</ele><time>2026-04-28T08:34:58Z</time></trkpt><trkpt lat="38.249233542888234" lon="16.039171833826753"><ele>1026.0</ele><time>2026-04-28T08:34:59Z</time></trkpt><trkpt lat="38.24921547970504" lon="16.039026850929798"><ele>1026.0</ele><time>2026-04-28T08:35:00Z</time></trkpt><trkpt lat="38.249187821259305" lon="16.038906464130726"><ele>1026.0</ele><time>2026-04-28T08:35:01Z</time></trkpt><trkpt lat="38.249187389132324" lon="16.038771957571416"><ele>1026.0</ele><time>2026-04-28T08:35:02Z</time></trkpt><trkpt lat="38.24921511002398" lon="16.0386415408168"><ele>1026.0</ele><time>2026-04-28T08:35:03Z</time></trkpt><trkpt lat="38.24926167325635" lon="16.038498799380513"><ele>1026.0</ele><time>2026-04-28T08:35:04Z</time></trkpt><trkpt lat="38.24932335302198" lon="16.038365442430948"><ele>1023.5</ele><time>2026-04-28T08:35:05Z</time></trkpt><trkpt lat="38.249413763663476" lon="16.0382589659774"><ele>1021.0</ele><time>2026-04-28T08:35:06Z</time></trkpt><trkpt lat="38.2495183680184" lon="16.038153578552997"><ele>1018.5</ele><time>2026-04-28T08:35:07Z</time></trkpt><trkpt lat="38.24961422369073" lon="16.03806121474977"><ele>1016.0</ele><time>2026-04-28T08:35:08Z</time></trkpt><trkpt lat="38.249713839536575" lon="16.037967522907454"><ele>1016.75</ele><time>2026-04-28T08:35:09Z</time></trkpt><trkpt lat="38.249794876615226" lon="16.037864975950704"><ele>1017.5</ele><time>2026-04-28T08:35:10Z</time></trkpt><trkpt lat="38.249852519260386" lon="16.037737372835025"><ele>1018.25</ele><time>2026-04-28T08:35:11Z</time></trkpt><trkpt lat="38.249903265307196" lon="16.037591374655126"><ele>1019.0</ele><time>2026-04-28T08:35:12Z</time></trkpt><trkpt lat="38.249951469836994" lon="16.03742385397948"><ele>1019.0</ele><time>2026-04-28T08:35:13Z</time></trkpt><trkpt lat="38.250021748682826" lon="16.037266908011695"><ele>1019.0</ele><time>2026-04-28T08:35:14Z</time></trkpt><trkpt lat="38.25010608681043" lon="16.037097367216553"><ele>1019.0</ele><time>2026-04-28T08:35:15Z</time></trkpt><trkpt lat="38.25017680385414" lon="16.03692033724027"><ele>1019.0</ele><time>2026-04-28T08:35:16Z</time></trkpt><trkpt lat="38.25023381383493" lon="16.0367282743593"><ele>1019.0</ele><time>2026-04-28T08:35:17Z</time></trkpt><trkpt lat="38.25029032854475" lon="16.036533146370303"><ele>1019.0</ele><time>2026-04-28T08:35:18Z</time></trkpt><trkpt lat="38.25035387061903" lon="16.036356946699772"><ele>1016.75</ele><time>2026-04-28T08:35:19Z</time></trkpt><trkpt lat="38.25042140635687" lon="16.036189419813493"><ele>1014.5</ele><time>2026-04-28T08:35:20Z</time></trkpt><trkpt lat="38.25051044391438" lon="16.03606026002995"><ele>1012.25</ele><time>2026-04-28T08:35:21Z</time></trkpt><trkpt lat="38.25059092877566" lon="16.035924992677803"><ele>1010.0</ele><time>2026-04-28T08:35:22Z</time></trkpt><trkpt lat="38.2506618098353" lon="16.03577986837052"><ele>1010.0</ele><time>2026-04-28T08:35:23Z</time></trkpt><trkpt lat="38.25071833707676" lon="16.035615895368917"><ele>1010.0</ele><time>2026-04-28T08:35:23.999Z</time></trkpt><trkpt lat="38.25076291208534" lon="16.03543132847194"><ele>1010.0</ele><time>2026-04-28T08:35:24.999Z</time></trkpt><trkpt lat="38.250801120357096" lon="16.035243295559894"><ele>1010.0</ele><time>2026-04-28T08:35:25.999Z</time></trkpt><trkpt lat="38.250848129526595" lon="16.03507879297842"><ele>1007.75</ele><time>2026-04-28T08:35:26.999Z</time></trkpt><trkpt lat="38.25091587709194" lon="16.03492025798283"><ele>1005.5</ele><time>2026-04-28T08:35:27.999Z</time></trkpt><trkpt lat="38.25100107605059" lon="16.034763330559375"><ele>1003.25</ele><time>2026-04-28T08:35:28.999Z</time></trkpt><trkpt lat="38.25109220914515" lon="16.034612049543156"><ele>1001.0</ele><time>2026-04-28T08:35:29.999Z</time></trkpt><trkpt lat="38.2511829446398" lon="16.034468569186068"><ele>1001.0</ele><time>2026-04-28T08:35:30.999Z</time></trkpt><trkpt lat="38.25126327858256" lon="16.034339134430116"><ele>1001.0</ele><time>2026-04-28T08:35:31.999Z</time></trkpt><trkpt lat="38.251338380544375" lon="16.034224476214163"><ele>1001.0</ele><time>2026-04-28T08:35:32.999Z</time></trkpt><trkpt lat="38.25141063020057" lon="16.034122280786242"><ele>1001.0</ele><time>2026-04-28T08:35:33.999Z</time></trkpt><trkpt lat="38.251497163562945" lon="16.034059647297934"><ele>1007.8</ele><time>2026-04-28T08:35:34.999Z</time></trkpt><trkpt lat="38.25158752802105" lon="16.034030595566268"><ele>1014.5999999999999</ele><time>2026-04-28T08:35:36Z</time></trkpt><trkpt lat="38.25170767026532" lon="16.034034110598167"><ele>1021.4</ele><time>2026-04-28T08:35:37Z</time></trkpt><trkpt lat="38.251821107046766" lon="16.034046185487473"><ele>1028.2</ele><time>2026-04-28T08:35:38Z</time></trkpt><trkpt lat="38.251902667758095" lon="16.034030105520188"><ele>1035.0</ele><time>2026-04-28T08:35:39Z</time></trkpt><trkpt lat="38.252064786670665" lon="16.034109753548595"><ele>1033.3333333333333</ele><time>2026-04-28T08:35:40Z</time></trkpt><trkpt lat="38.252200135687495" lon="16.03422107633203"><ele>1031.6666666666665</ele><time>2026-04-28T08:35:41Z</time></trkpt><trkpt lat="38.25236995012416" lon="16.034283729971893"><ele>1030.0</ele><time>2026-04-28T08:35:42Z</time></trkpt><trkpt lat="38.252524760620666" lon="16.034364972546786"><ele>1030.0</ele><time>2026-04-28T08:35:43Z</time></trkpt><trkpt lat="38.25266130888091" lon="16.034435156112842"><ele>1030.0</ele><time>2026-04-28T08:35:44Z</time></trkpt><trkpt lat="38.25277621281947" lon="16.034496002577896"><ele>1030.0</ele><time>2026-04-28T08:35:45Z</time></trkpt><trkpt lat="38.25286467266113" lon="16.034509413517306"><ele>1030.0</ele><time>2026-04-28T08:35:46Z</time></trkpt><trkpt lat="38.25296786782758" lon="16.034507064264297"><ele>1030.0</ele><time>2026-04-28T08:35:47Z</time></trkpt><trkpt lat="38.25303558540196" lon="16.0344571210939"><ele>1030.0</ele><time>2026-04-28T08:35:48Z</time></trkpt><trkpt lat="38.253090371541916" lon="16.03436196784227"><ele>1030.0</ele><time>2026-04-28T08:35:49Z</time></trkpt><trkpt lat="38.2531131847156" lon="16.03426511498213"><ele>1030.0</ele><time>2026-04-28T08:35:50Z</time></trkpt><trkpt lat="38.253110018377306" lon="16.034177080077196"><ele>1030.0</ele><time>2026-04-28T08:35:51Z</time></trkpt><trkpt lat="38.25303309519738" lon="16.03407363341228"><ele>1030.0</ele><time>2026-04-28T08:35:52Z</time></trkpt><trkpt lat="38.25294844626782" lon="16.033995979371873"><ele>1031.25</ele><time>2026-04-28T08:35:53Z</time></trkpt><trkpt lat="38.252837852285346" lon="16.033895842529112"><ele>1032.5</ele><time>2026-04-28T08:35:54Z</time></trkpt><trkpt lat="38.2527452061654" lon="16.03378932427221"><ele>1033.75</ele><time>2026-04-28T08:35:55Z</time></trkpt><trkpt lat="38.25269520026213" lon="16.03363766515468"><ele>1035.0</ele><time>2026-04-28T08:35:56Z</time></trkpt><trkpt lat="38.25262572364854" lon="16.03351374222881"><ele>1035.0</ele><time>2026-04-28T08:35:57Z</time></trkpt><trkpt lat="38.252529631443856" lon="16.033429750385057"><ele>1035.0</ele><time>2026-04-28T08:35:58Z</time></trkpt><trkpt lat="38.25243200952553" lon="16.03337134626001"><ele>1035.0</ele><time>2026-04-28T08:35:59Z</time></trkpt><trkpt lat="38.25230621645655" lon="16.033376739229386"><ele>1035.0</ele><time>2026-04-28T08:36:00Z</time></trkpt><trkpt lat="38.25215930646537" lon="16.033355469547406"><ele>1035.0</ele><time>2026-04-28T08:36:01Z</time></trkpt><trkpt lat="38.252024852658856" lon="16.03332765386132"><ele>1035.0</ele><time>2026-04-28T08:36:02Z</time></trkpt><trkpt lat="38.251924526830656" lon="16.033230801010195"><ele>1035.0</ele><time>2026-04-28T08:36:03Z</time></trkpt><trkpt lat="38.25182192188885" lon="16.03313453891089"><ele>1035.0</ele><time>2026-04-28T08:36:04Z</time></trkpt><trkpt lat="38.251721638033224" lon="16.03302638776402"><ele>1034.75</ele><time>2026-04-28T08:36:05Z</time></trkpt><trkpt lat="38.25161500731773" lon="16.032903312302082"><ele>1034.5</ele><time>2026-04-28T08:36:06Z</time></trkpt><trkpt lat="38.25151138043118" lon="16.03277873665174"><ele>1034.25</ele><time>2026-04-28T08:36:07Z</time></trkpt><trkpt lat="38.25141344192422" lon="16.032665466613437"><ele>1034.0</ele><time>2026-04-28T08:36:08Z</time></trkpt><trkpt lat="38.25131427498552" lon="16.032553258124768"><ele>1037.5</ele><time>2026-04-28T08:36:09Z</time></trkpt><trkpt lat="38.25120944756877" lon="16.0324346449597"><ele>1041.0</ele><time>2026-04-28T08:36:10Z</time></trkpt><trkpt lat="38.25114534835486" lon="16.032362116371928"><ele>1044.5</ele><time>2026-04-28T08:36:11Z</time></trkpt><trkpt lat="38.25102990996461" lon="16.032230669644342"><ele>1048.0</ele><time>2026-04-28T08:36:12Z</time></trkpt><trkpt lat="38.25092981791207" lon="16.03211986919944"><ele>1048.0</ele><time>2026-04-28T08:36:13Z</time></trkpt><trkpt lat="38.250822847038116" lon="16.03199072356652"><ele>1048.0</ele><time>2026-04-28T08:36:14Z</time></trkpt><trkpt lat="38.25074031251753" lon="16.031859895865953"><ele>1048.0</ele><time>2026-04-28T08:36:15Z</time></trkpt><trkpt lat="38.25066172790448" lon="16.03171318217214"><ele>1048.0</ele><time>2026-04-28T08:36:16Z</time></trkpt><trkpt lat="38.25058539026507" lon="16.03156935965356"><ele>1047.0</ele><time>2026-04-28T08:36:17Z</time></trkpt><trkpt lat="38.25051273382913" lon="16.031438239020545"><ele>1046.0</ele><time>2026-04-28T08:36:18Z</time></trkpt><trkpt lat="38.25044294460768" lon="16.03131229273525"><ele>1045.0</ele><time>2026-04-28T08:36:19Z</time></trkpt><trkpt lat="38.25038053026361" lon="16.031195886639164"><ele>1044.0</ele><time>2026-04-28T08:36:20Z</time></trkpt><trkpt lat="38.250321386673896" lon="16.031081386629676"><ele>1044.0</ele><time>2026-04-28T08:36:21Z</time></trkpt><trkpt lat="38.25027937987943" lon="16.03097469695817"><ele>1044.0</ele><time>2026-04-28T08:36:22Z</time></trkpt><trkpt lat="38.250253903905225" lon="16.030858103933845"><ele>1044.0</ele><time>2026-04-28T08:36:23Z</time></trkpt><trkpt lat="38.25024684386691" lon="16.030712332524363"><ele>1044.0</ele><time>2026-04-28T08:36:24Z</time></trkpt><trkpt lat="38.25027936334218" lon="16.0305756386229"><ele>1044.0</ele><time>2026-04-28T08:36:25Z</time></trkpt><trkpt lat="38.25030743398564" lon="16.03043229811096"><ele>1045.5</ele><time>2026-04-28T08:36:26Z</time></trkpt><trkpt lat="38.25034147696457" lon="16.030285259686686"><ele>1047.0</ele><time>2026-04-28T08:36:27Z</time></trkpt><trkpt lat="38.250372722654134" lon="16.030127402071724"><ele>1048.5</ele><time>2026-04-28T08:36:28Z</time></trkpt><trkpt lat="38.25039181908571" lon="16.029972579322365"><ele>1050.0</ele><time>2026-04-28T08:36:29Z</time></trkpt><trkpt lat="38.250409476850045" lon="16.029812695705296"><ele>1051.25</ele><time>2026-04-28T08:36:30Z</time></trkpt><trkpt lat="38.25041058361357" lon="16.0296471545517"><ele>1052.5</ele><time>2026-04-28T08:36:31Z</time></trkpt><trkpt lat="38.25040656756417" lon="16.029492707368714"><ele>1053.75</ele><time>2026-04-28T08:36:32Z</time></trkpt><trkpt lat="38.250399916632794" lon="16.029323547939835"><ele>1055.0</ele><time>2026-04-28T08:36:33Z</time></trkpt><trkpt lat="38.250392492039644" lon="16.029182663595066"><ele>1057.25</ele><time>2026-04-28T08:36:34Z</time></trkpt><trkpt lat="38.25038469859613" lon="16.029026816781656"><ele>1059.5</ele><time>2026-04-28T08:36:35Z</time></trkpt><trkpt lat="38.25038246386486" lon="16.028875885128326"><ele>1061.75</ele><time>2026-04-28T08:36:36Z</time></trkpt><trkpt lat="38.25038519644669" lon="16.028736676094272"><ele>1064.0</ele><time>2026-04-28T08:36:37Z</time></trkpt><trkpt lat="38.250390603779756" lon="16.02859843442079"><ele>1064.0</ele><time>2026-04-28T08:36:38Z</time></trkpt><trkpt lat="38.25037266658639" lon="16.028471335658885"><ele>1064.0</ele><time>2026-04-28T08:36:39Z</time></trkpt><trkpt lat="38.250343829694515" lon="16.02836445888975"><ele>1064.0</ele><time>2026-04-28T08:36:40Z</time></trkpt><trkpt lat="38.250311249446796" lon="16.028273192565425"><ele>1064.0</ele><time>2026-04-28T08:36:41Z</time></trkpt><trkpt lat="38.25026837659252" lon="16.028187175400426"><ele>1064.0</ele><time>2026-04-28T08:36:42Z</time></trkpt><trkpt lat="38.25020942723114" lon="16.028073386604255"><ele>1065.2</ele><time>2026-04-28T08:36:44Z</time></trkpt><trkpt lat="38.250136526246635" lon="16.028033607546835"><ele>1066.4</ele><time>2026-04-28T08:37:32.999Z</time></trkpt><trkpt lat="38.25014900328595" lon="16.027941327021956"><ele>1067.6</ele><time>2026-04-28T08:38:03Z</time></trkpt><trkpt lat="38.25019876663781" lon="16.027865704543597"><ele>1068.8</ele><time>2026-04-28T08:38:04Z</time></trkpt><trkpt lat="38.250291955731235" lon="16.027784365663152"><ele>1070.0</ele><time>2026-04-28T08:38:05Z</time></trkpt><trkpt lat="38.25040060246959" lon="16.02768779140023"><ele>1070.0</ele><time>2026-04-28T08:38:06Z</time></trkpt><trkpt lat="38.250508227595844" lon="16.02758274354576"><ele>1070.0</ele><time>2026-04-28T08:38:07Z</time></trkpt><trkpt lat="38.250598735054375" lon="16.027483091510437"><ele>1070.0</ele><time>2026-04-28T08:38:08Z</time></trkpt><trkpt lat="38.25068471123603" lon="16.027395983107965"><ele>1070.0</ele><time>2026-04-28T08:38:09Z</time></trkpt><trkpt lat="38.25077013002549" lon="16.027313833614915"><ele>1069.1666666666667</ele><time>2026-04-28T08:38:10Z</time></trkpt><trkpt lat="38.250847666583915" lon="16.02723709041537"><ele>1068.3333333333335</ele><time>2026-04-28T08:38:11Z</time></trkpt><trkpt lat="38.250917188870666" lon="16.0271717695528"><ele>1067.5</ele><time>2026-04-28T08:38:12Z</time></trkpt><trkpt lat="38.25097813331802" lon="16.02712716308997"><ele>1066.6666666666667</ele><time>2026-04-28T08:38:13Z</time></trkpt><trkpt lat="38.251044657300454" lon="16.027062262824256"><ele>1065.8333333333333</ele><time>2026-04-28T08:38:15Z</time></trkpt><trkpt lat="38.25108081014397" lon="16.026968230536177"><ele>1065.0</ele><time>2026-04-28T08:38:18Z</time></trkpt><trkpt lat="38.25104466984643" lon="16.02687530502875"><ele>1065.0</ele><time>2026-04-28T08:42:49Z</time></trkpt><trkpt lat="38.250984588489295" lon="16.026823464792198"><ele>1065.0</ele><time>2026-04-28T08:44:43Z</time></trkpt><trkpt lat="38.25090202067524" lon="16.026730646688357"><ele>1065.0</ele><time>2026-04-28T08:44:44Z</time></trkpt><trkpt lat="38.25080896099652" lon="16.02659614390816"><ele>1065.0</ele><time>2026-04-28T08:44:45Z</time></trkpt><trkpt lat="38.25071620621535" lon="16.026414913600806"><ele>1068.0</ele><time>2026-04-28T08:44:46Z</time></trkpt><trkpt lat="38.2505853601021" lon="16.026270102214685"><ele>1071.0</ele><time>2026-04-28T08:44:47Z</time></trkpt><trkpt lat="38.2504757993466" lon="16.026125682515648"><ele>1074.0</ele><time>2026-04-28T08:44:48Z</time></trkpt><trkpt lat="38.250374002406666" lon="16.026009033204847"><ele>1074.0</ele><time>2026-04-28T08:44:49Z</time></trkpt><trkpt lat="38.25028168878997" lon="16.025932375769973"><ele>1074.0</ele><time>2026-04-28T08:44:50Z</time></trkpt><trkpt lat="38.25017407840613" lon="16.025901682396537"><ele>1074.0</ele><time>2026-04-28T08:44:51Z</time></trkpt><trkpt lat="38.2500407591951" lon="16.02591906971236"><ele>1074.0</ele><time>2026-04-28T08:44:52Z</time></trkpt><trkpt lat="38.24988507911667" lon="16.025951528008907"><ele>1074.75</ele><time>2026-04-28T08:44:53Z</time></trkpt><trkpt lat="38.24973675476753" lon="16.025971841419754"><ele>1075.5</ele><time>2026-04-28T08:44:54Z</time></trkpt><trkpt lat="38.2496205127685" lon="16.0259279652154"><ele>1076.25</ele><time>2026-04-28T08:44:55Z</time></trkpt><trkpt lat="38.24953851391202" lon="16.025790857460933"><ele>1077.0</ele><time>2026-04-28T08:44:56Z</time></trkpt><trkpt lat="38.24942008443504" lon="16.02564998776959"><ele>1077.6666666666667</ele><time>2026-04-28T08:44:57Z</time></trkpt><trkpt lat="38.2492913954663" lon="16.02549105779411"><ele>1078.3333333333335</ele><time>2026-04-28T08:44:58Z</time></trkpt><trkpt lat="38.249167303586965" lon="16.02533780520521"><ele>1079.0</ele><time>2026-04-28T08:44:59Z</time></trkpt><trkpt lat="38.24904542914309" lon="16.025187290942927"><ele>1079.0</ele><time>2026-04-28T08:45:00Z</time></trkpt><trkpt lat="38.248909564412045" lon="16.025021304263287"><ele>1079.0</ele><time>2026-04-28T08:45:01Z</time></trkpt><trkpt lat="38.24875935061637" lon="16.02483990678301"><ele>1079.0</ele><time>2026-04-28T08:45:02Z</time></trkpt><trkpt lat="38.24859449679866" lon="16.024640830036223"><ele>1079.0</ele><time>2026-04-28T08:45:03Z</time></trkpt><trkpt lat="38.24841757562512" lon="16.024428520908167"><ele>1079.0</ele><time>2026-04-28T08:45:04Z</time></trkpt><trkpt lat="38.24823366861246" lon="16.024209202884382"><ele>1081.0</ele><time>2026-04-28T08:45:05Z</time></trkpt><trkpt lat="38.248048736089615" lon="16.023981061818574"><ele>1083.0</ele><time>2026-04-28T08:45:06Z</time></trkpt><trkpt lat="38.24787692273582" lon="16.02375508042018"><ele>1083.0</ele><time>2026-04-28T08:45:07Z</time></trkpt><trkpt lat="38.247709002969096" lon="16.023529305649106"><ele>1083.0</ele><time>2026-04-28T08:45:07.999Z</time></trkpt><trkpt lat="38.2475354071925" lon="16.023300771841555"><ele>1083.5</ele><time>2026-04-28T08:45:08.999Z</time></trkpt><trkpt lat="38.24735361247516" lon="16.023073182829428"><ele>1084.0</ele><time>2026-04-28T08:45:09.999Z</time></trkpt><trkpt lat="38.247181500882974" lon="16.022853423674526"><ele>1086.0</ele><time>2026-04-28T08:45:10.999Z</time></trkpt><trkpt lat="38.24702205610041" lon="16.022644742388646"><ele>1088.0</ele><time>2026-04-28T08:45:11.999Z</time></trkpt><trkpt lat="38.2468674691582" lon="16.022442419159873"><ele>1089.0</ele><time>2026-04-28T08:45:12.999Z</time></trkpt><trkpt lat="38.246708058136356" lon="16.02223957922542"><ele>1090.0</ele><time>2026-04-28T08:45:13.999Z</time></trkpt><trkpt lat="38.246534470054016" lon="16.022027340702238"><ele>1089.0</ele><time>2026-04-28T08:45:14.999Z</time></trkpt><trkpt lat="38.24635089746779" lon="16.02180585689928"><ele>1088.0</ele><time>2026-04-28T08:45:15.999Z</time></trkpt><trkpt lat="38.24616262974137" lon="16.02157377976081"><ele>1088.0</ele><time>2026-04-28T08:45:16.999Z</time></trkpt><trkpt lat="38.24597578220943" lon="16.021330223866276"><ele>1088.0</ele><time>2026-04-28T08:45:17.999Z</time></trkpt><trkpt lat="38.24579671345309" lon="16.021099197783176"><ele>1088.0</ele><time>2026-04-28T08:45:18.999Z</time></trkpt><trkpt lat="38.24563378519201" lon="16.020898960429662"><ele>1088.0</ele><time>2026-04-28T08:45:19.999Z</time></trkpt><trkpt lat="38.245473509446256" lon="16.020701982956375"><ele>1088.0</ele><time>2026-04-28T08:45:20.999Z</time></trkpt><trkpt lat="38.24531843529681" lon="16.020511398056712"><ele>1089.0</ele><time>2026-04-28T08:45:21.999Z</time></trkpt><trkpt lat="38.2451754652064" lon="16.02033489179353"><ele>1090.0</ele><time>2026-04-28T08:45:22.999Z</time></trkpt><trkpt lat="38.24503565389384" lon="16.02015817889637"><ele>1091.0</ele><time>2026-04-28T08:45:23.999Z</time></trkpt><trkpt lat="38.244894925222916" lon="16.019980743311866"><ele>1093.0</ele><time>2026-04-28T08:45:24.999Z</time></trkpt><trkpt lat="38.24475498234573" lon="16.01980692165659"><ele>1095.0</ele><time>2026-04-28T08:45:25.999Z</time></trkpt><trkpt lat="38.24462563150364" lon="16.019642719519943"><ele>1097.0</ele><time>2026-04-28T08:45:26.999Z</time></trkpt><trkpt lat="38.24450213782279" lon="16.019467736272297"><ele>1097.0</ele><time>2026-04-28T08:45:27.999Z</time></trkpt><trkpt lat="38.244387474756344" lon="16.019275947411174"><ele>1097.0</ele><time>2026-04-28T08:45:28.999Z</time></trkpt><trkpt lat="38.24429930452978" lon="16.019068644054357"><ele>1097.0</ele><time>2026-04-28T08:45:29.999Z</time></trkpt><trkpt lat="38.244220297724716" lon="16.01884994436898"><ele>1097.6666666666667</ele><time>2026-04-28T08:45:30.999Z</time></trkpt><trkpt lat="38.24412337144478" lon="16.01863873037686"><ele>1098.3333333333333</ele><time>2026-04-28T08:45:31.999Z</time></trkpt><trkpt lat="38.244004252889994" lon="16.01844814678153"><ele>1099.0</ele><time>2026-04-28T08:45:32.999Z</time></trkpt><trkpt lat="38.243855077269615" lon="16.018255314050837"><ele>1102.3333333333333</ele><time>2026-04-28T08:45:33.999Z</time></trkpt><trkpt lat="38.24370858932584" lon="16.01809102308361"><ele>1105.6666666666667</ele><time>2026-04-28T08:45:34.999Z</time></trkpt><trkpt lat="38.2435815612419" lon="16.017949656996375"><ele>1109.0</ele><time>2026-04-28T08:45:35.999Z</time></trkpt><trkpt lat="38.24346514827338" lon="16.017820102553703"><ele>1109.0</ele><time>2026-04-28T08:45:36.999Z</time></trkpt><trkpt lat="38.24337840234888" lon="16.017723564170264"><ele>1109.0</ele><time>2026-04-28T08:45:37.999Z</time></trkpt><trkpt lat="38.243236835349535" lon="16.017739009933134"><ele>1109.0</ele><time>2026-04-28T08:45:38.999Z</time></trkpt><trkpt lat="38.24311326814338" lon="16.017759404903824"><ele>1109.0</ele><time>2026-04-28T08:45:39.999Z</time></trkpt><trkpt lat="38.24297270324587" lon="16.017813678312635"><ele>1110.5</ele><time>2026-04-28T08:45:40.999Z</time></trkpt><trkpt lat="38.242843410665124" lon="16.01784016378261"><ele>1112.0</ele><time>2026-04-28T08:45:41.999Z</time></trkpt><trkpt lat="38.24271812807573" lon="16.01781893584851"><ele>1113.5</ele><time>2026-04-28T08:45:42.999Z</time></trkpt><trkpt lat="38.24256876679027" lon="16.017749934550874"><ele>1115.0</ele><time>2026-04-28T08:45:43.999Z</time></trkpt><trkpt lat="38.24240761523022" lon="16.017628233854452"><ele>1117.0</ele><time>2026-04-28T08:45:44.999Z</time></trkpt><trkpt lat="38.24223098655178" lon="16.017518221388553"><ele>1119.0</ele><time>2026-04-28T08:45:45.999Z</time></trkpt><trkpt lat="38.242030257610814" lon="16.017393767973388"><ele>1121.0</ele><time>2026-04-28T08:45:46.999Z</time></trkpt><trkpt lat="38.241808204377044" lon="16.017271663126056"><ele>1121.5</ele><time>2026-04-28T08:45:47.999Z</time></trkpt><trkpt lat="38.241575028937085" lon="16.017137762703225"><ele>1122.0</ele><time>2026-04-28T08:45:48.999Z</time></trkpt><trkpt lat="38.24134795071512" lon="16.01699976452925"><ele>1123.5</ele><time>2026-04-28T08:45:49.999Z</time></trkpt><trkpt lat="38.241134103933014" lon="16.016885924985523"><ele>1125.0</ele><time>2026-04-28T08:45:50.999Z</time></trkpt><trkpt lat="38.240920314383224" lon="16.016763867171647"><ele>1125.0</ele><time>2026-04-28T08:45:51.999Z</time></trkpt><trkpt lat="38.240699701955435" lon="16.016633661948223"><ele>1125.0</ele><time>2026-04-28T08:45:52.999Z</time></trkpt><trkpt lat="38.240474637149575" lon="16.01650532644733"><ele>1126.5</ele><time>2026-04-28T08:45:53.999Z</time></trkpt><trkpt lat="38.240256613967645" lon="16.01637427631048"><ele>1128.0</ele><time>2026-04-28T08:45:54.999Z</time></trkpt><trkpt lat="38.240043455274495" lon="16.016252093078535"><ele>1128.0</ele><time>2026-04-28T08:45:55.999Z</time></trkpt><trkpt lat="38.239834483449734" lon="16.016132449367554"><ele>1128.0</ele><time>2026-04-28T08:45:56.999Z</time></trkpt><trkpt lat="38.23962022128039" lon="16.01600822000678"><ele>1129.5</ele><time>2026-04-28T08:45:57.999Z</time></trkpt><trkpt lat="38.23939579071645" lon="16.01587682642533"><ele>1131.0</ele><time>2026-04-28T08:45:58.999Z</time></trkpt><trkpt lat="38.2391772829224" lon="16.015746413248614"><ele>1132.5</ele><time>2026-04-28T08:45:59.999Z</time></trkpt><trkpt lat="38.23896500224621" lon="16.01562062240329"><ele>1134.0</ele><time>2026-04-28T08:46:00.999Z</time></trkpt><trkpt lat="38.23875952996266" lon="16.015502466064213"><ele>1134.0</ele><time>2026-04-28T08:46:01.999Z</time></trkpt><trkpt lat="38.238557620906995" lon="16.015385946340942"><ele>1134.0</ele><time>2026-04-28T08:46:02.999Z</time></trkpt><trkpt lat="38.2383574119922" lon="16.01526737471027"><ele>1134.0</ele><time>2026-04-28T08:46:03.999Z</time></trkpt><trkpt lat="38.238144162973" lon="16.015147470349692"><ele>1134.5</ele><time>2026-04-28T08:46:05Z</time></trkpt><trkpt lat="38.237918940447784" lon="16.0150219065034"><ele>1135.0</ele><time>2026-04-28T08:46:06Z</time></trkpt><trkpt lat="38.23768044566531" lon="16.014892982868236"><ele>1135.0</ele><time>2026-04-28T08:46:07Z</time></trkpt><trkpt lat="38.23743630331987" lon="16.014766630258848"><ele>1135.0</ele><time>2026-04-28T08:46:08Z</time></trkpt><trkpt lat="38.23719631928792" lon="16.01465298931267"><ele>1136.0</ele><time>2026-04-28T08:46:09Z</time></trkpt><trkpt lat="38.23697284622672" lon="16.014548361437914"><ele>1137.0</ele><time>2026-04-28T08:46:10Z</time></trkpt><trkpt lat="38.236749518224364" lon="16.014442979845878"><ele>1137.0</ele><time>2026-04-28T08:46:11Z</time></trkpt><trkpt lat="38.23650874578424" lon="16.01434393512531"><ele>1137.0</ele><time>2026-04-28T08:46:12Z</time></trkpt><trkpt lat="38.23627285925113" lon="16.014242167198855"><ele>1134.0</ele><time>2026-04-28T08:46:13Z</time></trkpt><trkpt lat="38.23603773966411" lon="16.014133827856973"><ele>1131.0</ele><time>2026-04-28T08:46:14Z</time></trkpt><trkpt lat="38.23579311184453" lon="16.014030181838145"><ele>1132.0</ele><time>2026-04-28T08:46:15Z</time></trkpt><trkpt lat="38.23554524961954" lon="16.013908761832614"><ele>1133.0</ele><time>2026-04-28T08:46:16Z</time></trkpt><trkpt lat="38.235304519849095" lon="16.013794045749513"><ele>1133.0</ele><time>2026-04-28T08:46:17Z</time></trkpt><trkpt lat="38.23505239613737" lon="16.013670231248494"><ele>1133.0</ele><time>2026-04-28T08:46:18Z</time></trkpt><trkpt lat="38.23480000881711" lon="16.013555113604017"><ele>1133.5</ele><time>2026-04-28T08:46:19Z</time></trkpt><trkpt lat="38.234541871465815" lon="16.01343836007184"><ele>1134.0</ele><time>2026-04-28T08:46:20Z</time></trkpt><trkpt lat="38.23428610271595" lon="16.01331815477951"><ele>1137.0</ele><time>2026-04-28T08:46:21Z</time></trkpt><trkpt lat="38.23404420226155" lon="16.013204330476757"><ele>1140.0</ele><time>2026-04-28T08:46:22Z</time></trkpt><trkpt lat="38.23380136236606" lon="16.013092697168275"><ele>1142.0</ele><time>2026-04-28T08:46:23Z</time></trkpt><trkpt lat="38.23356248549584" lon="16.01298099832475"><ele>1144.0</ele><time>2026-04-28T08:46:24Z</time></trkpt><trkpt lat="38.23332206864901" lon="16.012864916168823"><ele>1145.6666666666665</ele><time>2026-04-28T08:46:25Z</time></trkpt><trkpt lat="38.233100688495846" lon="16.012765733091424"><ele>1147.3333333333333</ele><time>2026-04-28T08:46:26Z</time></trkpt><trkpt lat="38.23291197257439" lon="16.012684969548054"><ele>1149.0</ele><time>2026-04-28T08:46:27Z</time></trkpt><trkpt lat="38.23274501068241" lon="16.012618482538922"><ele>1149.0</ele><time>2026-04-28T08:46:28Z</time></trkpt><trkpt lat="38.23258131162686" lon="16.012545325453686"><ele>1149.0</ele><time>2026-04-28T08:46:29Z</time></trkpt><trkpt lat="38.23241245397202" lon="16.012461661003407"><ele>1149.0</ele><time>2026-04-28T08:46:30Z</time></trkpt><trkpt lat="38.23224548035909" lon="16.012380952196498"><ele>1150.0</ele><time>2026-04-28T08:46:31Z</time></trkpt><trkpt lat="38.23207863704313" lon="16.01231200301481"><ele>1151.0</ele><time>2026-04-28T08:46:32Z</time></trkpt><trkpt lat="38.231905854959315" lon="16.012224548094665"><ele>1152.0</ele><time>2026-04-28T08:46:33Z</time></trkpt><trkpt lat="38.231726170118684" lon="16.012129572341554"><ele>1152.0</ele><time>2026-04-28T08:46:34Z</time></trkpt><trkpt lat="38.23153179876815" lon="16.01203348584899"><ele>1152.0</ele><time>2026-04-28T08:46:35Z</time></trkpt><trkpt lat="38.23132251779352" lon="16.011932018953274"><ele>1152.0</ele><time>2026-04-28T08:46:36Z</time></trkpt><trkpt lat="38.23110585583084" lon="16.0118264932704"><ele>1151.5</ele><time>2026-04-28T08:46:37Z</time></trkpt><trkpt lat="38.23087853816703" lon="16.01172157508924"><ele>1151.0</ele><time>2026-04-28T08:46:38Z</time></trkpt><trkpt lat="38.23065366218067" lon="16.011617074185715"><ele>1153.0</ele><time>2026-04-28T08:46:39Z</time></trkpt><trkpt lat="38.23041994472963" lon="16.01151233267401"><ele>1155.0</ele><time>2026-04-28T08:46:40Z</time></trkpt><trkpt lat="38.23019509246966" lon="16.011404812506697"><ele>1155.0</ele><time>2026-04-28T08:46:41Z</time></trkpt><trkpt lat="38.229979218130346" lon="16.01130073488409"><ele>1155.0</ele><time>2026-04-28T08:46:42Z</time></trkpt><trkpt lat="38.22977764757366" lon="16.011205824329362"><ele>1155.0</ele><time>2026-04-28T08:46:43Z</time></trkpt><trkpt lat="38.22958444378314" lon="16.01112270824934"><ele>1157.3333333333333</ele><time>2026-04-28T08:46:44Z</time></trkpt><trkpt lat="38.22937572094628" lon="16.01102774652068"><ele>1159.6666666666665</ele><time>2026-04-28T08:46:45Z</time></trkpt><trkpt lat="38.229172025313055" lon="16.010941151651465"><ele>1162.0</ele><time>2026-04-28T08:46:46Z</time></trkpt><trkpt lat="38.22897608393223" lon="16.010861593504654"><ele>1162.6666666666665</ele><time>2026-04-28T08:46:47Z</time></trkpt><trkpt lat="38.228790134041034" lon="16.010785639269184"><ele>1163.3333333333333</ele><time>2026-04-28T08:46:48Z</time></trkpt><trkpt lat="38.228622968285784" lon="16.010717622263485"><ele>1164.0</ele><time>2026-04-28T08:46:49Z</time></trkpt><trkpt lat="38.22848232619645" lon="16.0106529835259"><ele>1164.0</ele><time>2026-04-28T08:46:50Z</time></trkpt><trkpt lat="38.22835473134331" lon="16.010589235867364"><ele>1164.0</ele><time>2026-04-28T08:46:51Z</time></trkpt><trkpt lat="38.228245117145995" lon="16.010517189459822"><ele>1164.0</ele><time>2026-04-28T08:46:52Z</time></trkpt><trkpt lat="38.22815184395572" lon="16.010406987348418"><ele>1164.0</ele><time>2026-04-28T08:46:53Z</time></trkpt><trkpt lat="38.22806329975875" lon="16.010259571673032"><ele>1169.0</ele><time>2026-04-28T08:46:54Z</time></trkpt><trkpt lat="38.22797167155581" lon="16.01008669973536"><ele>1174.0</ele><time>2026-04-28T08:46:55Z</time></trkpt><trkpt lat="38.227876809133555" lon="16.00988693460275"><ele>1179.0</ele><time>2026-04-28T08:46:56Z</time></trkpt><trkpt lat="38.22776010562353" lon="16.00967811193549"><ele>1179.0</ele><time>2026-04-28T08:46:57Z</time></trkpt><trkpt lat="38.22763692268167" lon="16.009440563470594"><ele>1179.0</ele><time>2026-04-28T08:46:58Z</time></trkpt><trkpt lat="38.22751341161758" lon="16.009204880208483"><ele>1179.0</ele><time>2026-04-28T08:46:59Z</time></trkpt><trkpt lat="38.22739571402781" lon="16.008992735611706"><ele>1185.0</ele><time>2026-04-28T08:47:00Z</time></trkpt><trkpt lat="38.22728532106116" lon="16.00879886335583"><ele>1191.0</ele><time>2026-04-28T08:47:01Z</time></trkpt><trkpt lat="38.22719961961619" lon="16.008650931419577"><ele>1197.0</ele><time>2026-04-28T08:47:02Z</time></trkpt><trkpt lat="38.22713108439906" lon="16.008515785377085"><ele>1197.0</ele><time>2026-04-28T08:47:03Z</time></trkpt><trkpt lat="38.22703180148818" lon="16.008365322789185"><ele>1197.0</ele><time>2026-04-28T08:47:04Z</time></trkpt><trkpt lat="38.22695405762374" lon="16.008177185746955"><ele>1197.0</ele><time>2026-04-28T08:47:05Z</time></trkpt><trkpt lat="38.226889285816526" lon="16.007977631201427"><ele>1197.0</ele><time>2026-04-28T08:47:06Z</time></trkpt><trkpt lat="38.22684440629693" lon="16.00774245397148"><ele>1197.0</ele><time>2026-04-28T08:47:07Z</time></trkpt><trkpt lat="38.22680700399397" lon="16.007522242192763"><ele>1197.0</ele><time>2026-04-28T08:47:08Z</time></trkpt><trkpt lat="38.22676145897273" lon="16.007345403371815"><ele>1197.0</ele><time>2026-04-28T08:47:09Z</time></trkpt><trkpt lat="38.22670254553215" lon="16.007189029681864"><ele>1197.0</ele><time>2026-04-28T08:47:10Z</time></trkpt><trkpt lat="38.22663529733616" lon="16.007018176718486"><ele>1197.0</ele><time>2026-04-28T08:47:11Z</time></trkpt><trkpt lat="38.22653239673793" lon="16.006822675654046"><ele>1200.3333333333333</ele><time>2026-04-28T08:47:12Z</time></trkpt><trkpt lat="38.22643885794828" lon="16.00664576362317"><ele>1203.6666666666665</ele><time>2026-04-28T08:47:13Z</time></trkpt><trkpt lat="38.22635564551392" lon="16.006470393819647"><ele>1207.0</ele><time>2026-04-28T08:47:14Z</time></trkpt><trkpt lat="38.226276847859694" lon="16.006274156246793"><ele>1207.0</ele><time>2026-04-28T08:47:15Z</time></trkpt><trkpt lat="38.22620850701437" lon="16.00610264211451"><ele>1207.0</ele><time>2026-04-28T08:47:16Z</time></trkpt><trkpt lat="38.22609806554919" lon="16.005945100319884"><ele>1207.0</ele><time>2026-04-28T08:47:17Z</time></trkpt><trkpt lat="38.22596492287461" lon="16.005763482306527"><ele>1204.6666666666665</ele><time>2026-04-28T08:47:18Z</time></trkpt><trkpt lat="38.22581679296012" lon="16.005590546160374"><ele>1202.3333333333333</ele><time>2026-04-28T08:47:19Z</time></trkpt><trkpt lat="38.22567697715997" lon="16.005455983955024"><ele>1200.0</ele><time>2026-04-28T08:47:20Z</time></trkpt><trkpt lat="38.225559347594604" lon="16.005353665326297"><ele>1201.25</ele><time>2026-04-28T08:47:21Z</time></trkpt><trkpt lat="38.225433788592674" lon="16.005253271163564"><ele>1202.5</ele><time>2026-04-28T08:47:22Z</time></trkpt><trkpt lat="38.22532516700584" lon="16.005151110824805"><ele>1203.75</ele><time>2026-04-28T08:47:23Z</time></trkpt><trkpt lat="38.225229389813954" lon="16.005008623416373"><ele>1205.0</ele><time>2026-04-28T08:47:24Z</time></trkpt><trkpt lat="38.22515949958024" lon="16.004824848675153"><ele>1205.0</ele><time>2026-04-28T08:47:25Z</time></trkpt><trkpt lat="38.22509830942684" lon="16.004635444455097"><ele>1205.0</ele><time>2026-04-28T08:47:26Z</time></trkpt><trkpt lat="38.22503701922421" lon="16.004504503353942"><ele>1205.0</ele><time>2026-04-28T08:47:27Z</time></trkpt><trkpt lat="38.22492701042636" lon="16.00439880970613"><ele>1205.0</ele><time>2026-04-28T08:47:28Z</time></trkpt><trkpt lat="38.22477671149973" lon="16.00429447379176"><ele>1203.6666666666667</ele><time>2026-04-28T08:47:29Z</time></trkpt><trkpt lat="38.22464035662815" lon="16.00416938712719"><ele>1202.3333333333333</ele><time>2026-04-28T08:47:30Z</time></trkpt><trkpt lat="38.22450770290822" lon="16.00408024923825"><ele>1201.0</ele><time>2026-04-28T08:47:31Z</time></trkpt><trkpt lat="38.22436714026954" lon="16.003983342515276"><ele>1201.0</ele><time>2026-04-28T08:47:32Z</time></trkpt><trkpt lat="38.224222793776654" lon="16.003912513060992"><ele>1201.0</ele><time>2026-04-28T08:47:33Z</time></trkpt><trkpt lat="38.22409143573539" lon="16.003853678028715"><ele>1201.0</ele><time>2026-04-28T08:47:34Z</time></trkpt><trkpt lat="38.22397028629005" lon="16.00379149878087"><ele>1201.0</ele><time>2026-04-28T08:47:35Z</time></trkpt><trkpt lat="38.223856648970425" lon="16.003678564182596"><ele>1203.6666666666665</ele><time>2026-04-28T08:47:36Z</time></trkpt><trkpt lat="38.223750448379924" lon="16.003514552102576"><ele>1206.3333333333333</ele><time>2026-04-28T08:47:37Z</time></trkpt><trkpt lat="38.223659015635384" lon="16.003331242068487"><ele>1209.0</ele><time>2026-04-28T08:47:38Z</time></trkpt><trkpt lat="38.223567486876455" lon="16.003118135293377"><ele>1209.0</ele><time>2026-04-28T08:47:39Z</time></trkpt><trkpt lat="38.22350348707024" lon="16.00293779087405"><ele>1209.0</ele><time>2026-04-28T08:47:40Z</time></trkpt><trkpt lat="38.22345952737094" lon="16.002737803818775"><ele>1209.0</ele><time>2026-04-28T08:47:41Z</time></trkpt><trkpt lat="38.22343197645678" lon="16.00254290816863"><ele>1207.25</ele><time>2026-04-28T08:47:42Z</time></trkpt><trkpt lat="38.223411990450984" lon="16.002359927082907"><ele>1205.5</ele><time>2026-04-28T08:47:43Z</time></trkpt><trkpt lat="38.22337025598115" lon="16.002199143297283"><ele>1203.75</ele><time>2026-04-28T08:47:44Z</time></trkpt><trkpt lat="38.22329591103977" lon="16.00205776383847"><ele>1202.0</ele><time>2026-04-28T08:47:45Z</time></trkpt><trkpt lat="38.22317040339474" lon="16.00189990705099"><ele>1202.0</ele><time>2026-04-28T08:47:46Z</time></trkpt><trkpt lat="38.22302705800904" lon="16.001737807646844"><ele>1202.0</ele><time>2026-04-28T08:47:47Z</time></trkpt><trkpt lat="38.222914106071926" lon="16.001560771934248"><ele>1202.0</ele><time>2026-04-28T08:47:48Z</time></trkpt><trkpt lat="38.22281254683925" lon="16.00133632414034"><ele>1202.0</ele><time>2026-04-28T08:47:49Z</time></trkpt><trkpt lat="38.222714056195194" lon="16.00112781762552"><ele>1202.0</ele><time>2026-04-28T08:47:50Z</time></trkpt><trkpt lat="38.22263606447576" lon="16.000941812833204"><ele>1202.0</ele><time>2026-04-28T08:47:51Z</time></trkpt><trkpt lat="38.22257303902189" lon="16.000763442057117"><ele>1200.25</ele><time>2026-04-28T08:47:52Z</time></trkpt><trkpt lat="38.2225123656062" lon="16.00057825699154"><ele>1198.5</ele><time>2026-04-28T08:47:53Z</time></trkpt><trkpt lat="38.22246732048458" lon="16.000420865184037"><ele>1196.75</ele><time>2026-04-28T08:47:54Z</time></trkpt><trkpt lat="38.22241765946427" lon="16.000279845401693"><ele>1195.0</ele><time>2026-04-28T08:47:55Z</time></trkpt><trkpt lat="38.22227910384966" lon="16.00016406146545"><ele>1195.0</ele><time>2026-04-28T08:47:56Z</time></trkpt><trkpt lat="38.22217476570172" lon="16.000092759287952"><ele>1195.0</ele><time>2026-04-28T08:47:57Z</time></trkpt><trkpt lat="38.22207980765643" lon="16.000014996067808"><ele>1195.0</ele><time>2026-04-28T08:47:58Z</time></trkpt><trkpt lat="38.221815198901616" lon="15.99992723565876"><ele>1195.0</ele><time>2026-04-28T08:47:59Z</time></trkpt><trkpt lat="38.22171431014641" lon="15.999900758770757"><ele>1195.0</ele><time>2026-04-28T08:48:00Z</time></trkpt><trkpt lat="38.22165226994293" lon="15.999817331858727"><ele>1195.0</ele><time>2026-04-28T08:48:01Z</time></trkpt><trkpt lat="38.22163983058993" lon="15.999701585815554"><ele>1195.0</ele><time>2026-04-28T08:48:02Z</time></trkpt><trkpt lat="38.221691027251055" lon="15.999589666494117"><ele>1195.0</ele><time>2026-04-28T08:48:03Z</time></trkpt><trkpt lat="38.22175028442301" lon="15.999452862126459"><ele>1195.0</ele><time>2026-04-28T08:48:04Z</time></trkpt><trkpt lat="38.22177164010171" lon="15.999304558278522"><ele>1195.0</ele><time>2026-04-28T08:48:05Z</time></trkpt><trkpt lat="38.22174560924073" lon="15.999143555997644"><ele>1195.0</ele><time>2026-04-28T08:48:06Z</time></trkpt><trkpt lat="38.22169493155246" lon="15.998945640074227"><ele>1195.0</ele><time>2026-04-28T08:48:07Z</time></trkpt><trkpt lat="38.22161866492126" lon="15.998690206465286"><ele>1193.8</ele><time>2026-04-28T08:48:08Z</time></trkpt><trkpt lat="38.221581723297135" lon="15.998525867001288"><ele>1192.6</ele><time>2026-04-28T08:48:09Z</time></trkpt><trkpt lat="38.22157221079938" lon="15.998396603224434"><ele>1191.4</ele><time>2026-04-28T08:48:10Z</time></trkpt><trkpt lat="38.22156546448694" lon="15.99829798702709"><ele>1190.2</ele><time>2026-04-28T08:48:11Z</time></trkpt><trkpt lat="38.221590509929044" lon="15.998217728699295"><ele>1189.0</ele><time>2026-04-28T08:48:14Z</time></trkpt><trkpt lat="38.22169211293974" lon="15.99808680060278"><ele>1188.6000000000001</ele><time>2026-04-28T08:48:16Z</time></trkpt><trkpt lat="38.22178264329954" lon="15.997996307571885"><ele>1188.2</ele><time>2026-04-28T08:48:17Z</time></trkpt><trkpt lat="38.221836317153844" lon="15.997922625288965"><ele>1187.8000000000002</ele><time>2026-04-28T08:48:18Z</time></trkpt><trkpt lat="38.221867119927815" lon="15.997830541172993"><ele>1187.4</ele><time>2026-04-28T08:48:19Z</time></trkpt><trkpt lat="38.22180245164665" lon="15.997717468510885"><ele>1187.0</ele><time>2026-04-28T08:48:20Z</time></trkpt><trkpt lat="38.221745274101465" lon="15.997605156610826"><ele>1187.0</ele><time>2026-04-28T08:48:21Z</time></trkpt><trkpt lat="38.22164918038412" lon="15.997553394238391"><ele>1187.0</ele><time>2026-04-28T08:48:22Z</time></trkpt><trkpt lat="38.22147341845401" lon="15.997491830578427"><ele>1187.0</ele><time>2026-04-28T08:48:23Z</time></trkpt><trkpt lat="38.22130322508135" lon="15.997437418681946"><ele>1189.8</ele><time>2026-04-28T08:48:24Z</time></trkpt><trkpt lat="38.22116436748207" lon="15.997409578550867"><ele>1192.6</ele><time>2026-04-28T08:48:25Z</time></trkpt><trkpt lat="38.22105638120196" lon="15.997392840149365"><ele>1195.3999999999999</ele><time>2026-04-28T08:48:26Z</time></trkpt><trkpt lat="38.22099431022858" lon="15.997347967510217"><ele>1198.2</ele><time>2026-04-28T08:48:27Z</time></trkpt><trkpt lat="38.220898535327564" lon="15.997335488456326"><ele>1201.0</ele><time>2026-04-28T08:48:28Z</time></trkpt><trkpt lat="38.22080413888923" lon="15.997314771078763"><ele>1201.0</ele><time>2026-04-28T08:48:29Z</time></trkpt><trkpt lat="38.220724905397425" lon="15.997293313088198"><ele>1201.0</ele><time>2026-04-28T08:48:30Z</time></trkpt><trkpt lat="38.2206580289725" lon="15.997289183371839"><ele>1201.0</ele><time>2026-04-28T08:48:31Z</time></trkpt><trkpt lat="38.22069582210203" lon="15.997361082220014"><ele>1201.0</ele><time>2026-04-28T08:49:13Z</time></trkpt><trkpt lat="38.220628431999586" lon="15.997361183227014"><ele>1201.0</ele><time>2026-04-28T08:49:14Z</time></trkpt><trkpt lat="38.2204976379785" lon="15.997327497879434"><ele>1201.0</ele><time>2026-04-28T08:49:15Z</time></trkpt><trkpt lat="38.220352444858854" lon="15.997307720897902"><ele>1202.75</ele><time>2026-04-28T08:49:16Z</time></trkpt><trkpt lat="38.22020272513252" lon="15.997262922943408"><ele>1204.5</ele><time>2026-04-28T08:49:17Z</time></trkpt><trkpt lat="38.22008627058287" lon="15.997181074193005"><ele>1206.25</ele><time>2026-04-28T08:49:18Z</time></trkpt><trkpt lat="38.21996915016136" lon="15.997058116817918"><ele>1208.0</ele><time>2026-04-28T08:49:19Z</time></trkpt><trkpt lat="38.21984517274761" lon="15.996924234508823"><ele>1209.3333333333335</ele><time>2026-04-28T08:49:20Z</time></trkpt><trkpt lat="38.219741890304086" lon="15.996734593173775"><ele>1210.6666666666667</ele><time>2026-04-28T08:49:21Z</time></trkpt><trkpt lat="38.21960656938858" lon="15.996596565631766"><ele>1212.0</ele><time>2026-04-28T08:49:22Z</time></trkpt><trkpt lat="38.219453905961664" lon="15.99645007899149"><ele>1212.0</ele><time>2026-04-28T08:49:23Z</time></trkpt><trkpt lat="38.21929778315422" lon="15.996330522272071"><ele>1212.0</ele><time>2026-04-28T08:49:24Z</time></trkpt><trkpt lat="38.21913938650919" lon="15.996227985250345"><ele>1212.0</ele><time>2026-04-28T08:49:25Z</time></trkpt><trkpt lat="38.218998713552324" lon="15.996145133351826"><ele>1213.0</ele><time>2026-04-28T08:49:26Z</time></trkpt><trkpt lat="38.21886409784931" lon="15.996060170451393"><ele>1214.0</ele><time>2026-04-28T08:49:27Z</time></trkpt><trkpt lat="38.21873365246256" lon="15.995978126876848"><ele>1215.0</ele><time>2026-04-28T08:49:28Z</time></trkpt><trkpt lat="38.218616484506036" lon="15.995908573177438"><ele>1216.0</ele><time>2026-04-28T08:49:29Z</time></trkpt><trkpt lat="38.21850610708237" lon="15.995850248867479"><ele>1213.75</ele><time>2026-04-28T08:49:30Z</time></trkpt><trkpt lat="38.21838742404023" lon="15.995779337865192"><ele>1211.5</ele><time>2026-04-28T08:49:31Z</time></trkpt><trkpt lat="38.21829307711677" lon="15.995691008219184"><ele>1209.25</ele><time>2026-04-28T08:49:32Z</time></trkpt><trkpt lat="38.21822323110023" lon="15.995584488979434"><ele>1207.0</ele><time>2026-04-28T08:49:33Z</time></trkpt><trkpt lat="38.21815309574598" lon="15.995370028227104"><ele>1209.0</ele><time>2026-04-28T08:49:35Z</time></trkpt><trkpt lat="38.218103567150095" lon="15.995189370064438"><ele>1211.0</ele><time>2026-04-28T08:49:36Z</time></trkpt><trkpt lat="38.21806454965436" lon="15.995003264466565"><ele>1213.0</ele><time>2026-04-28T08:49:37Z</time></trkpt><trkpt lat="38.21803155397228" lon="15.994798315516501"><ele>1213.0</ele><time>2026-04-28T08:49:38Z</time></trkpt><trkpt lat="38.21801270912857" lon="15.99457669754075"><ele>1213.0</ele><time>2026-04-28T08:49:39Z</time></trkpt><trkpt lat="38.218012425063044" lon="15.994349034535263"><ele>1213.0</ele><time>2026-04-28T08:49:40Z</time></trkpt><trkpt lat="38.218026635744266" lon="15.99413422592371"><ele>1212.3333333333333</ele><time>2026-04-28T08:49:41Z</time></trkpt><trkpt lat="38.21805503763594" lon="15.993932814362449"><ele>1211.6666666666667</ele><time>2026-04-28T08:49:42Z</time></trkpt><trkpt lat="38.21810595113414" lon="15.993741429070141"><ele>1211.0</ele><time>2026-04-28T08:49:43Z</time></trkpt><trkpt lat="38.21818637045379" lon="15.993582825044378"><ele>1208.0</ele><time>2026-04-28T08:49:44Z</time></trkpt><trkpt lat="38.21831070545616" lon="15.993442383931441"><ele>1205.0</ele><time>2026-04-28T08:49:45Z</time></trkpt><trkpt lat="38.21844339322304" lon="15.993279650602847"><ele>1202.0</ele><time>2026-04-28T08:49:46Z</time></trkpt><trkpt lat="38.21855679409525" lon="15.993149235860217"><ele>1202.0</ele><time>2026-04-28T08:49:47Z</time></trkpt><trkpt lat="38.21864036580498" lon="15.993026783630784"><ele>1202.0</ele><time>2026-04-28T08:49:48Z</time></trkpt><trkpt lat="38.218707476703926" lon="15.992844536724316"><ele>1202.0</ele><time>2026-04-28T08:49:49Z</time></trkpt><trkpt lat="38.21876143319625" lon="15.992619856352476"><ele>1202.5</ele><time>2026-04-28T08:49:50Z</time></trkpt><trkpt lat="38.21879713050773" lon="15.992429095946985"><ele>1203.0</ele><time>2026-04-28T08:49:51Z</time></trkpt><trkpt lat="38.218823416945895" lon="15.992286983962032"><ele>1203.5</ele><time>2026-04-28T08:49:52Z</time></trkpt><trkpt lat="38.21881347458866" lon="15.99215656602652"><ele>1204.0</ele><time>2026-04-28T08:49:53Z</time></trkpt><trkpt lat="38.2187572960039" lon="15.992036373275214"><ele>1204.0</ele><time>2026-04-28T08:49:54Z</time></trkpt><trkpt lat="38.21866826213423" lon="15.991943218986462"><ele>1204.0</ele><time>2026-04-28T08:49:55Z</time></trkpt><trkpt lat="38.21851708106456" lon="15.991874353112378"><ele>1204.0</ele><time>2026-04-28T08:49:56Z</time></trkpt><trkpt lat="38.21835532462247" lon="15.991790346517165"><ele>1204.0</ele><time>2026-04-28T08:49:57Z</time></trkpt><trkpt lat="38.21823196231177" lon="15.991724740750508"><ele>1204.0</ele><time>2026-04-28T08:49:58Z</time></trkpt><trkpt lat="38.21813554986244" lon="15.991664600702437"><ele>1204.0</ele><time>2026-04-28T08:49:59Z</time></trkpt><trkpt lat="38.21804787371882" lon="15.991572945482408"><ele>1204.0</ele><time>2026-04-28T08:50:00Z</time></trkpt><trkpt lat="38.21799300660537" lon="15.991430884761618"><ele>1204.75</ele><time>2026-04-28T08:50:01Z</time></trkpt><trkpt lat="38.21791576311801" lon="15.991279240349893"><ele>1205.5</ele><time>2026-04-28T08:50:02Z</time></trkpt><trkpt lat="38.217868776290636" lon="15.991145931911522"><ele>1206.25</ele><time>2026-04-28T08:50:03Z</time></trkpt><trkpt lat="38.21778185812779" lon="15.991061610313439"><ele>1207.0</ele><time>2026-04-28T08:50:04Z</time></trkpt><trkpt lat="38.21767332842418" lon="15.990988775364311"><ele>1207.0</ele><time>2026-04-28T08:50:05Z</time></trkpt><trkpt lat="38.21754739030684" lon="15.990938237797947"><ele>1207.0</ele><time>2026-04-28T08:50:06Z</time></trkpt><trkpt lat="38.21740843685653" lon="15.990890376666226"><ele>1207.0</ele><time>2026-04-28T08:50:07Z</time></trkpt><trkpt lat="38.21727961195096" lon="15.990833913316566"><ele>1207.0</ele><time>2026-04-28T08:50:08Z</time></trkpt><trkpt lat="38.21719021273088" lon="15.990774101438271"><ele>1206.6</ele><time>2026-04-28T08:50:09Z</time></trkpt><trkpt lat="38.2171218328018" lon="15.99067654119717"><ele>1206.2</ele><time>2026-04-28T08:50:10Z</time></trkpt><trkpt lat="38.21711455322195" lon="15.990546172538606"><ele>1205.8</ele><time>2026-04-28T08:50:11Z</time></trkpt><trkpt lat="38.217147314938984" lon="15.990438100412769"><ele>1205.4</ele><time>2026-04-28T08:50:12Z</time></trkpt><trkpt lat="38.21720711462304" lon="15.990328168932459"><ele>1205.0</ele><time>2026-04-28T08:50:13Z</time></trkpt><trkpt lat="38.21730198338475" lon="15.99021307912951"><ele>1202.5</ele><time>2026-04-28T08:50:14Z</time></trkpt><trkpt lat="38.217409136557244" lon="15.990080363117471"><ele>1200.0</ele><time>2026-04-28T08:50:15Z</time></trkpt><trkpt lat="38.21746885184171" lon="15.989952625198372"><ele>1197.5</ele><time>2026-04-28T08:50:16Z</time></trkpt><trkpt lat="38.21747694954561" lon="15.989813776576042"><ele>1195.0</ele><time>2026-04-28T08:50:17Z</time></trkpt><trkpt lat="38.21744361258031" lon="15.989699768211313"><ele>1193.8</ele><time>2026-04-28T08:50:18Z</time></trkpt><trkpt lat="38.21737197853924" lon="15.989614737278432"><ele>1192.6</ele><time>2026-04-28T08:50:19Z</time></trkpt><trkpt lat="38.217280451333906" lon="15.989585264049229"><ele>1191.4</ele><time>2026-04-28T08:50:20Z</time></trkpt><trkpt lat="38.21717696495028" lon="15.989617055621677"><ele>1190.2</ele><time>2026-04-28T08:50:21Z</time></trkpt><trkpt lat="38.21706305371135" lon="15.989695778972452"><ele>1189.0</ele><time>2026-04-28T08:50:22Z</time></trkpt><trkpt lat="38.21694077908815" lon="15.98979157606392"><ele>1192.2</ele><time>2026-04-28T08:50:23Z</time></trkpt><trkpt lat="38.21681279040739" lon="15.989878095339082"><ele>1195.4</ele><time>2026-04-28T08:50:24Z</time></trkpt><trkpt lat="38.21668706310628" lon="15.989889983865112"><ele>1198.6</ele><time>2026-04-28T08:50:25Z</time></trkpt><trkpt lat="38.21660776823993" lon="15.989904039451545"><ele>1201.8</ele><time>2026-04-28T08:50:26Z</time></trkpt><trkpt lat="38.21651878967115" lon="15.989898409687983"><ele>1205.0</ele><time>2026-04-28T08:50:27Z</time></trkpt><trkpt lat="38.21642320502542" lon="15.989831789689058"><ele>1209.3333333333335</ele><time>2026-04-28T08:50:28Z</time></trkpt><trkpt lat="38.21633168378223" lon="15.989720872299426"><ele>1213.6666666666667</ele><time>2026-04-28T08:50:29Z</time></trkpt><trkpt lat="38.216206347252005" lon="15.989582851714898"><ele>1218.0</ele><time>2026-04-28T08:50:30Z</time></trkpt><trkpt lat="38.21605687889035" lon="15.989447063986937"><ele>1218.0</ele><time>2026-04-28T08:50:31Z</time></trkpt><trkpt lat="38.21589040771008" lon="15.989321519631622"><ele>1218.0</ele><time>2026-04-28T08:50:32Z</time></trkpt><trkpt lat="38.215677160325555" lon="15.989229298331463"><ele>1218.0</ele><time>2026-04-28T08:50:33Z</time></trkpt><trkpt lat="38.21546211723677" lon="15.989137777686345"><ele>1222.3333333333333</ele><time>2026-04-28T08:50:34Z</time></trkpt><trkpt lat="38.215271919179536" lon="15.989032157210975"><ele>1226.6666666666665</ele><time>2026-04-28T08:50:35Z</time></trkpt><trkpt lat="38.21510807053784" lon="15.98894140584465"><ele>1231.0</ele><time>2026-04-28T08:50:36Z</time></trkpt><trkpt lat="38.21495656296114" lon="15.988866276042861"><ele>1231.0</ele><time>2026-04-28T08:50:37Z</time></trkpt><trkpt lat="38.21482140251491" lon="15.988796363562123"><ele>1231.0</ele><time>2026-04-28T08:50:38Z</time></trkpt><trkpt lat="38.214705582238054" lon="15.988722233679502"><ele>1231.0</ele><time>2026-04-28T08:50:39Z</time></trkpt><trkpt lat="38.21460275209529" lon="15.988661198928883"><ele>1231.0</ele><time>2026-04-28T08:50:40Z</time></trkpt><trkpt lat="38.21449850797022" lon="15.988602601790115"><ele>1233.0</ele><time>2026-04-28T08:50:41Z</time></trkpt><trkpt lat="38.21441318311167" lon="15.988477377924413"><ele>1235.0</ele><time>2026-04-28T08:50:42Z</time></trkpt><trkpt lat="38.214361118866385" lon="15.988351198347942"><ele>1237.0</ele><time>2026-04-28T08:50:43Z</time></trkpt><trkpt lat="38.21432159935599" lon="15.988206451503434"><ele>1239.0</ele><time>2026-04-28T08:50:44Z</time></trkpt><trkpt lat="38.21428942372467" lon="15.98803430573379"><ele>1239.0</ele><time>2026-04-28T08:50:45Z</time></trkpt><trkpt lat="38.21426237550664" lon="15.987830150163125"><ele>1239.0</ele><time>2026-04-28T08:50:46Z</time></trkpt><trkpt lat="38.214245821612806" lon="15.987597643270028"><ele>1239.0</ele><time>2026-04-28T08:50:47Z</time></trkpt><trkpt lat="38.21421183468087" lon="15.98734097784968"><ele>1237.6666666666667</ele><time>2026-04-28T08:50:48Z</time></trkpt><trkpt lat="38.21416417208387" lon="15.987095101432931"><ele>1236.3333333333335</ele><time>2026-04-28T08:50:49Z</time></trkpt><trkpt lat="38.214111827007535" lon="15.986866667531684"><ele>1235.0</ele><time>2026-04-28T08:50:50Z</time></trkpt><trkpt lat="38.21405453047646" lon="15.986637004797021"><ele>1235.0</ele><time>2026-04-28T08:50:51Z</time></trkpt><trkpt lat="38.21399726453032" lon="15.986415363534514"><ele>1235.0</ele><time>2026-04-28T08:50:52Z</time></trkpt><trkpt lat="38.21394159294243" lon="15.986225633033078"><ele>1235.0</ele><time>2026-04-28T08:50:53Z</time></trkpt><trkpt lat="38.21388109853647" lon="15.986063353448875"><ele>1236.6</ele><time>2026-04-28T08:50:54Z</time></trkpt><trkpt lat="38.21381052621867" lon="15.985940262630288"><ele>1238.2</ele><time>2026-04-28T08:50:55Z</time></trkpt><trkpt lat="38.213747403338516" lon="15.98584589992451"><ele>1239.8</ele><time>2026-04-28T08:50:56Z</time></trkpt><trkpt lat="38.213661961854726" lon="15.985787411398555"><ele>1241.4</ele><time>2026-04-28T08:50:57Z</time></trkpt><trkpt lat="38.21355237512856" lon="15.985745502160986"><ele>1243.0</ele><time>2026-04-28T08:50:58Z</time></trkpt><trkpt lat="38.21343281646496" lon="15.98568217796939"><ele>1245.0</ele><time>2026-04-28T08:50:59Z</time></trkpt><trkpt lat="38.213293106318524" lon="15.985614241880382"><ele>1247.0</ele><time>2026-04-28T08:51:00Z</time></trkpt><trkpt lat="38.213035803370985" lon="15.985845983808503"><ele>1247.0</ele><time>2026-04-28T08:51:01Z</time></trkpt><trkpt lat="38.21285375649482" lon="15.98584183311366"><ele>1247.0</ele><time>2026-04-28T08:51:02Z</time></trkpt><trkpt lat="38.21271932790598" lon="15.985876671364107"><ele>1247.0</ele><time>2026-04-28T08:51:03Z</time></trkpt><trkpt lat="38.21261795669092" lon="15.985879155640282"><ele>1247.0</ele><time>2026-04-28T08:51:04Z</time></trkpt><trkpt lat="38.21254675379321" lon="15.985834859180459"><ele>1242.8</ele><time>2026-04-28T08:51:05Z</time></trkpt><trkpt lat="38.2124816340531" lon="15.985783158798835"><ele>1238.6</ele><time>2026-04-28T08:51:06Z</time></trkpt><trkpt lat="38.212427759971696" lon="15.985687299488086"><ele>1234.3999999999999</ele><time>2026-04-28T08:51:07Z</time></trkpt><trkpt lat="38.21239956325459" lon="15.98555207002506"><ele>1230.2</ele><time>2026-04-28T08:51:08Z</time></trkpt><trkpt lat="38.21237729966897" lon="15.9854244226171"><ele>1226.0</ele><time>2026-04-28T08:51:09Z</time></trkpt><trkpt lat="38.21238572922747" lon="15.98531830332916"><ele>1226.0</ele><time>2026-04-28T08:51:10Z</time></trkpt><trkpt lat="38.21241610988823" lon="15.985223109866032"><ele>1226.0</ele><time>2026-04-28T08:51:11Z</time></trkpt><trkpt lat="38.21250520818491" lon="15.985130787008528"><ele>1226.0</ele><time>2026-04-28T08:51:12Z</time></trkpt><trkpt lat="38.21262079735178" lon="15.985013836854888"><ele>1226.0</ele><time>2026-04-28T08:51:13Z</time></trkpt><trkpt lat="38.21274109220938" lon="15.984864764997107"><ele>1226.0</ele><time>2026-04-28T08:51:14Z</time></trkpt><trkpt lat="38.21286081302375" lon="15.984722848180857"><ele>1226.0</ele><time>2026-04-28T08:51:15Z</time></trkpt><trkpt lat="38.21291827670041" lon="15.984576997741293"><ele>1226.0</ele><time>2026-04-28T08:51:16Z</time></trkpt><trkpt lat="38.21295618113792" lon="15.984445034382757"><ele>1226.0</ele><time>2026-04-28T08:51:17Z</time></trkpt><trkpt lat="38.212982709483754" lon="15.984284464781288"><ele>1228.6666666666667</ele><time>2026-04-28T08:51:18Z</time></trkpt><trkpt lat="38.21300512360503" lon="15.984091594945422"><ele>1231.3333333333333</ele><time>2026-04-28T08:51:19Z</time></trkpt><trkpt lat="38.213024454494494" lon="15.98383825485982"><ele>1234.0</ele><time>2026-04-28T08:51:20Z</time></trkpt><trkpt lat="38.2130633536352" lon="15.983669155462627"><ele>1234.0</ele><time>2026-04-28T08:51:21Z</time></trkpt><trkpt lat="38.213078805572714" lon="15.983540893888238"><ele>1234.0</ele><time>2026-04-28T08:51:22Z</time></trkpt><trkpt lat="38.21307149268803" lon="15.983437157471117"><ele>1234.0</ele><time>2026-04-28T08:51:23Z</time></trkpt><trkpt lat="38.21302137271662" lon="15.983332351890478"><ele>1234.0</ele><time>2026-04-28T08:51:24Z</time></trkpt><trkpt lat="38.21293659895554" lon="15.983239316517718"><ele>1234.0</ele><time>2026-04-28T08:51:25Z</time></trkpt><trkpt lat="38.21284991461983" lon="15.983091636484815"><ele>1229.3333333333333</ele><time>2026-04-28T08:51:26Z</time></trkpt><trkpt lat="38.21274121539819" lon="15.982908896299794"><ele>1224.6666666666667</ele><time>2026-04-28T08:51:27Z</time></trkpt><trkpt lat="38.21260300778114" lon="15.982675863955704"><ele>1220.0</ele><time>2026-04-28T08:51:28Z</time></trkpt><trkpt lat="38.212540323796425" lon="15.982516267439825"><ele>1218.2</ele><time>2026-04-28T08:51:29Z</time></trkpt><trkpt lat="38.2125155738942" lon="15.982399488923415"><ele>1216.4</ele><time>2026-04-28T08:51:30Z</time></trkpt><trkpt lat="38.21253142369525" lon="15.982275034695496"><ele>1214.6</ele><time>2026-04-28T08:51:31Z</time></trkpt><trkpt lat="38.2125718118925" lon="15.982160492364015"><ele>1212.8</ele><time>2026-04-28T08:51:32Z</time></trkpt><trkpt lat="38.21265408297658" lon="15.98207396040069"><ele>1211.0</ele><time>2026-04-28T08:51:33Z</time></trkpt><trkpt lat="38.21276847563915" lon="15.98204859396021"><ele>1211.0</ele><time>2026-04-28T08:51:34Z</time></trkpt><trkpt lat="38.212887368290716" lon="15.982038492743317"><ele>1211.0</ele><time>2026-04-28T08:51:35Z</time></trkpt><trkpt lat="38.213014758806644" lon="15.982012221274957"><ele>1211.0</ele><time>2026-04-28T08:51:36Z</time></trkpt><trkpt lat="38.21312041200942" lon="15.9819719023778"><ele>1211.0</ele><time>2026-04-28T08:51:37Z</time></trkpt><trkpt lat="38.21317481556512" lon="15.981870469963464"><ele>1213.25</ele><time>2026-04-28T08:51:38Z</time></trkpt><trkpt lat="38.21316946787256" lon="15.98171791039599"><ele>1215.5</ele><time>2026-04-28T08:51:39Z</time></trkpt><trkpt lat="38.21311793269004" lon="15.98158240802817"><ele>1217.75</ele><time>2026-04-28T08:51:40Z</time></trkpt><trkpt lat="38.21304230205049" lon="15.981452029994372"><ele>1220.0</ele><time>2026-04-28T08:51:41Z</time></trkpt><trkpt lat="38.212984731712865" lon="15.98128257261706"><ele>1220.0</ele><time>2026-04-28T08:51:42Z</time></trkpt><trkpt lat="38.21287202257412" lon="15.98105290177548"><ele>1220.0</ele><time>2026-04-28T08:51:43Z</time></trkpt><trkpt lat="38.212808166919174" lon="15.98087769445218"><ele>1220.0</ele><time>2026-04-28T08:51:44Z</time></trkpt><trkpt lat="38.21277693335892" lon="15.980679168734776"><ele>1221.25</ele><time>2026-04-28T08:51:45Z</time></trkpt><trkpt lat="38.212747621081355" lon="15.980480285773222"><ele>1222.5</ele><time>2026-04-28T08:51:46Z</time></trkpt><trkpt lat="38.2127288428161" lon="15.98030395849132"><ele>1223.75</ele><time>2026-04-28T08:51:47Z</time></trkpt><trkpt lat="38.21270205751485" lon="15.980152784736486"><ele>1225.0</ele><time>2026-04-28T08:51:48Z</time></trkpt><trkpt lat="38.21267904288959" lon="15.980013634252668"><ele>1225.0</ele><time>2026-04-28T08:51:49Z</time></trkpt><trkpt lat="38.2126141662515" lon="15.97988229621193"><ele>1225.0</ele><time>2026-04-28T08:51:50Z</time></trkpt><trkpt lat="38.21253877035959" lon="15.979792187273894"><ele>1225.0</ele><time>2026-04-28T08:51:51Z</time></trkpt><trkpt lat="38.21242879866293" lon="15.979708591471189"><ele>1225.0</ele><time>2026-04-28T08:51:52Z</time></trkpt><trkpt lat="38.2122803366398" lon="15.979650084712578"><ele>1229.0</ele><time>2026-04-28T08:51:53Z</time></trkpt><trkpt lat="38.2121182909252" lon="15.979556081390072"><ele>1233.0</ele><time>2026-04-28T08:51:54Z</time></trkpt><trkpt lat="38.2119415851544" lon="15.97948492722038"><ele>1237.0</ele><time>2026-04-28T08:51:55Z</time></trkpt><trkpt lat="38.211808050385656" lon="15.979428860523704"><ele>1237.0</ele><time>2026-04-28T08:51:56Z</time></trkpt><trkpt lat="38.21174165332564" lon="15.979329706749228"><ele>1237.0</ele><time>2026-04-28T08:51:57Z</time></trkpt><trkpt lat="38.21168046173127" lon="15.979241952453515"><ele>1237.0</ele><time>2026-04-28T08:51:58Z</time></trkpt><trkpt lat="38.21160157111924" lon="15.979122385520736"><ele>1237.0</ele><time>2026-04-28T08:51:59Z</time></trkpt><trkpt lat="38.21150705545868" lon="15.97897789447018"><ele>1236.6666666666665</ele><time>2026-04-28T08:52:00Z</time></trkpt><trkpt lat="38.211394926960175" lon="15.978797579853827"><ele>1236.3333333333333</ele><time>2026-04-28T08:52:01Z</time></trkpt><trkpt lat="38.21125508415501" lon="15.978591112341427"><ele>1236.0</ele><time>2026-04-28T08:52:02Z</time></trkpt><trkpt lat="38.211189896534364" lon="15.978391916781726"><ele>1234.3333333333333</ele><time>2026-04-28T08:52:03Z</time></trkpt><trkpt lat="38.21115871368062" lon="15.978208987205294"><ele>1232.6666666666665</ele><time>2026-04-28T08:52:04Z</time></trkpt><trkpt lat="38.211124595221825" lon="15.977994945144706"><ele>1231.0</ele><time>2026-04-28T08:52:05Z</time></trkpt><trkpt lat="38.21110120249793" lon="15.977802612891507"><ele>1231.0</ele><time>2026-04-28T08:52:06Z</time></trkpt><trkpt lat="38.211054238075704" lon="15.977670747103941"><ele>1231.0</ele><time>2026-04-28T08:52:07Z</time></trkpt><trkpt lat="38.210949029658494" lon="15.977585402438113"><ele>1231.0</ele><time>2026-04-28T08:52:08Z</time></trkpt><trkpt lat="38.210830463922214" lon="15.977481976607574"><ele>1231.0</ele><time>2026-04-28T08:52:09Z</time></trkpt><trkpt lat="38.210686470113224" lon="15.977371424003609"><ele>1236.3333333333333</ele><time>2026-04-28T08:52:10Z</time></trkpt><trkpt lat="38.21053191484519" lon="15.977213544232173"><ele>1241.6666666666667</ele><time>2026-04-28T08:52:11Z</time></trkpt><trkpt lat="38.21036334993666" lon="15.977030280205094"><ele>1247.0</ele><time>2026-04-28T08:52:12Z</time></trkpt><trkpt lat="38.21021179791435" lon="15.976857178700856"><ele>1247.0</ele><time>2026-04-28T08:52:13Z</time></trkpt><trkpt lat="38.210115364122196" lon="15.976719529153268"><ele>1247.0</ele><time>2026-04-28T08:52:14Z</time></trkpt><trkpt lat="38.21004032909434" lon="15.976608440916294"><ele>1247.0</ele><time>2026-04-28T08:52:15Z</time></trkpt><trkpt lat="38.20998999357963" lon="15.976510158890397"><ele>1247.0</ele><time>2026-04-28T08:52:16Z</time></trkpt><trkpt lat="38.209954991319215" lon="15.976419900540579"><ele>1247.0</ele><time>2026-04-28T08:52:17Z</time></trkpt><trkpt lat="38.209933657249124" lon="15.976317186662337"><ele>1245.5</ele><time>2026-04-28T08:52:18Z</time></trkpt><trkpt lat="38.20992804651276" lon="15.976186302907726"><ele>1244.0</ele><time>2026-04-28T08:52:19Z</time></trkpt><trkpt lat="38.209990395930504" lon="15.976055034249033"><ele>1242.5</ele><time>2026-04-28T08:52:20Z</time></trkpt><trkpt lat="38.21006567718683" lon="15.975888334350863"><ele>1241.0</ele><time>2026-04-28T08:52:21Z</time></trkpt><trkpt lat="38.210153352453055" lon="15.975713992334084"><ele>1241.0</ele><time>2026-04-28T08:52:22Z</time></trkpt><trkpt lat="38.21024766762784" lon="15.975536229890636"><ele>1241.0</ele><time>2026-04-28T08:52:23.001Z</time></trkpt><trkpt lat="38.21030235468993" lon="15.97541191402356"><ele>1241.0</ele><time>2026-04-28T08:52:24.001Z</time></trkpt><trkpt lat="38.21034062107953" lon="15.975330299659635"><ele>1241.0</ele><time>2026-04-28T08:52:25.001Z</time></trkpt><trkpt lat="38.210368765102736" lon="15.975227911378706"><ele>1241.0</ele><time>2026-04-28T08:52:26.001Z</time></trkpt><trkpt lat="38.210323135541714" lon="15.975079941388799"><ele>1242.6666666666667</ele><time>2026-04-28T08:52:27.001Z</time></trkpt><trkpt lat="38.21020117693702" lon="15.974951172010426"><ele>1244.3333333333333</ele><time>2026-04-28T08:52:28.001Z</time></trkpt><trkpt lat="38.21009042230682" lon="15.974803256200397"><ele>1246.0</ele><time>2026-04-28T08:52:29.001Z</time></trkpt><trkpt lat="38.20996431187277" lon="15.974655191842794"><ele>1246.0</ele><time>2026-04-28T08:52:30.001Z</time></trkpt><trkpt lat="38.20988352608268" lon="15.974529773692852"><ele>1246.0</ele><time>2026-04-28T08:52:31.001Z</time></trkpt><trkpt lat="38.20984021755552" lon="15.97442831162516"><ele>1246.0</ele><time>2026-04-28T08:52:32.001Z</time></trkpt><trkpt lat="38.20980599279705" lon="15.974320393577852"><ele>1246.0</ele><time>2026-04-28T08:52:33.001Z</time></trkpt><trkpt lat="38.20976489745684" lon="15.974165232887032"><ele>1246.0</ele><time>2026-04-28T08:52:34Z</time></trkpt><trkpt lat="38.209757175526555" lon="15.973962762964332"><ele>1249.5</ele><time>2026-04-28T08:52:35Z</time></trkpt><trkpt lat="38.20969166045798" lon="15.97378594112311"><ele>1253.0</ele><time>2026-04-28T08:52:36Z</time></trkpt><trkpt lat="38.20964983702908" lon="15.973621575291954"><ele>1256.5</ele><time>2026-04-28T08:52:37Z</time></trkpt><trkpt lat="38.209626152533055" lon="15.973476458516235"><ele>1260.0</ele><time>2026-04-28T08:52:38Z</time></trkpt><trkpt lat="38.209582826410575" lon="15.973379166428336"><ele>1258.8</ele><time>2026-04-28T08:52:39Z</time></trkpt><trkpt lat="38.20958548184436" lon="15.97329018039508"><ele>1257.6</ele><time>2026-04-28T08:52:40Z</time></trkpt><trkpt lat="38.20963552553904" lon="15.97317862614458"><ele>1256.4</ele><time>2026-04-28T08:52:42Z</time></trkpt><trkpt lat="38.20969434714517" lon="15.97308995455906"><ele>1255.2</ele><time>2026-04-28T08:52:43Z</time></trkpt><trkpt lat="38.20976879040084" lon="15.97297689412848"><ele>1254.0</ele><time>2026-04-28T08:52:44Z</time></trkpt><trkpt lat="38.20984601671752" lon="15.972865516760907"><ele>1254.25</ele><time>2026-04-28T08:52:45Z</time></trkpt><trkpt lat="38.20988549905214" lon="15.972725365810772"><ele>1254.5</ele><time>2026-04-28T08:52:46Z</time></trkpt><trkpt lat="38.20988378570635" lon="15.972552333449386"><ele>1254.75</ele><time>2026-04-28T08:52:47Z</time></trkpt><trkpt lat="38.209862178500664" lon="15.972388237023349"><ele>1255.0</ele><time>2026-04-28T08:52:48Z</time></trkpt><trkpt lat="38.20979815345969" lon="15.972227541773844"><ele>1255.0</ele><time>2026-04-28T08:52:49Z</time></trkpt><trkpt lat="38.20968149321965" lon="15.972057319984247"><ele>1255.0</ele><time>2026-04-28T08:52:50Z</time></trkpt><trkpt lat="38.20951785880181" lon="15.971884190873473"><ele>1255.0</ele><time>2026-04-28T08:52:51Z</time></trkpt><trkpt lat="38.20940491313489" lon="15.971668238604636"><ele>1253.25</ele><time>2026-04-28T08:52:52Z</time></trkpt><trkpt lat="38.2092937561852" lon="15.971492362486778"><ele>1251.5</ele><time>2026-04-28T08:52:53Z</time></trkpt><trkpt lat="38.20920292035403" lon="15.971359573018473"><ele>1249.75</ele><time>2026-04-28T08:52:54Z</time></trkpt><trkpt lat="38.2091466029223" lon="15.971259015673477"><ele>1248.0</ele><time>2026-04-28T08:52:55Z</time></trkpt><trkpt lat="38.209107055816844" lon="15.971151727416304"><ele>1248.0</ele><time>2026-04-28T08:52:56Z</time></trkpt><trkpt lat="38.20908533492901" lon="15.971038107692463"><ele>1248.0</ele><time>2026-04-28T08:52:57Z</time></trkpt><trkpt lat="38.209075168609765" lon="15.970904283899664"><ele>1248.0</ele><time>2026-04-28T08:52:58Z</time></trkpt><trkpt lat="38.209088190914045" lon="15.970746651651561"><ele>1248.0</ele><time>2026-04-28T08:52:59Z</time></trkpt><trkpt lat="38.209114212172125" lon="15.970539933727318"><ele>1247.0</ele><time>2026-04-28T08:53:00Z</time></trkpt><trkpt lat="38.209149431964725" lon="15.970335463246412"><ele>1246.0</ele><time>2026-04-28T08:53:01Z</time></trkpt><trkpt lat="38.20915891049475" lon="15.97016177939536"><ele>1245.0</ele><time>2026-04-28T08:53:02Z</time></trkpt><trkpt lat="38.209173859951115" lon="15.970011007270317"><ele>1244.0</ele><time>2026-04-28T08:53:03Z</time></trkpt><trkpt lat="38.20915663229003" lon="15.969874410225763"><ele>1242.75</ele><time>2026-04-28T08:53:04Z</time></trkpt><trkpt lat="38.209119409475264" lon="15.96974890730257"><ele>1241.5</ele><time>2026-04-28T08:53:05Z</time></trkpt><trkpt lat="38.209088988341314" lon="15.969606040111456"><ele>1240.25</ele><time>2026-04-28T08:53:06Z</time></trkpt><trkpt lat="38.20905517692232" lon="15.969443708085173"><ele>1239.0</ele><time>2026-04-28T08:53:07Z</time></trkpt><trkpt lat="38.20898408069283" lon="15.969269366092657"><ele>1243.3333333333333</ele><time>2026-04-28T08:53:08Z</time></trkpt><trkpt lat="38.20888102486651" lon="15.969091563515503"><ele>1247.6666666666665</ele><time>2026-04-28T08:53:09Z</time></trkpt><trkpt lat="38.208765675332835" lon="15.968917735794523"><ele>1252.0</ele><time>2026-04-28T08:53:10Z</time></trkpt><trkpt lat="38.20865929451503" lon="15.968769450421666"><ele>1252.0</ele><time>2026-04-28T08:53:11Z</time></trkpt><trkpt lat="38.208558711893545" lon="15.9686555634295"><ele>1252.0</ele><time>2026-04-28T08:53:12Z</time></trkpt><trkpt lat="38.20845392582296" lon="15.968573321392409"><ele>1252.0</ele><time>2026-04-28T08:53:13Z</time></trkpt><trkpt lat="38.208318986484166" lon="15.96851161154019"><ele>1252.0</ele><time>2026-04-28T08:53:14Z</time></trkpt><trkpt lat="38.20815999711919" lon="15.968434983721295"><ele>1246.0</ele><time>2026-04-28T08:53:15Z</time></trkpt><trkpt lat="38.208029263653735" lon="15.968327482937273"><ele>1240.0</ele><time>2026-04-28T08:53:16Z</time></trkpt><trkpt lat="38.20791058669769" lon="15.968286387007378"><ele>1234.0</ele><time>2026-04-28T08:53:17Z</time></trkpt><trkpt lat="38.20780669342383" lon="15.968240757629612"><ele>1228.0</ele><time>2026-04-28T08:53:18Z</time></trkpt><trkpt lat="38.20768644448628" lon="15.968247757717076"><ele>1228.0</ele><time>2026-04-28T08:53:19Z</time></trkpt><trkpt lat="38.20758022800202" lon="15.968296917302876"><ele>1228.0</ele><time>2026-04-28T08:53:20Z</time></trkpt><trkpt lat="38.20750623818317" lon="15.968360302799281"><ele>1228.0</ele><time>2026-04-28T08:53:21Z</time></trkpt><trkpt lat="38.207450136548154" lon="15.968467969034412"><ele>1228.0</ele><time>2026-04-28T08:53:22Z</time></trkpt><trkpt lat="38.20739781626353" lon="15.968631641884771"><ele>1228.0</ele><time>2026-04-28T08:53:23Z</time></trkpt><trkpt lat="38.20735449237828" lon="15.968833425023202"><ele>1229.0</ele><time>2026-04-28T08:53:24Z</time></trkpt><trkpt lat="38.20729362606151" lon="15.968998152350357"><ele>1230.0</ele><time>2026-04-28T08:53:25Z</time></trkpt><trkpt lat="38.20720743363358" lon="15.969132230084877"><ele>1231.0</ele><time>2026-04-28T08:53:26Z</time></trkpt><trkpt lat="38.20709353657283" lon="15.969236456817356"><ele>1232.0</ele><time>2026-04-28T08:53:27Z</time></trkpt><trkpt lat="38.20694398180024" lon="15.969311092530269"><ele>1239.3333333333335</ele><time>2026-04-28T08:53:28Z</time></trkpt><trkpt lat="38.20678089231494" lon="15.969414107872371"><ele>1246.6666666666667</ele><time>2026-04-28T08:53:29Z</time></trkpt><trkpt lat="38.20661310309823" lon="15.96951816831461"><ele>1254.0</ele><time>2026-04-28T08:53:30Z</time></trkpt><trkpt lat="38.206479461861726" lon="15.969637541085916"><ele>1254.2</ele><time>2026-04-28T08:53:31Z</time></trkpt><trkpt lat="38.20638114601431" lon="15.969731182085113"><ele>1254.4</ele><time>2026-04-28T08:53:32Z</time></trkpt><trkpt lat="38.20630199100154" lon="15.96979544158673"><ele>1254.6</ele><time>2026-04-28T08:53:33Z</time></trkpt><trkpt lat="38.206233213517216" lon="15.969820495684813"><ele>1254.8</ele><time>2026-04-28T08:53:34Z</time></trkpt><trkpt lat="38.20617397285177" lon="15.96978900899905"><ele>1255.0</ele><time>2026-04-28T08:53:35Z</time></trkpt><trkpt lat="38.206111613604634" lon="15.969597883755563"><ele>1255.0</ele><time>2026-04-28T08:53:37Z</time></trkpt><trkpt lat="38.206101722640696" lon="15.969502943705432"><ele>1255.0</ele><time>2026-04-28T08:53:38Z</time></trkpt><trkpt lat="38.20614200225195" lon="15.969318363982364"><ele>1255.0</ele><time>2026-04-28T08:53:40Z</time></trkpt><trkpt lat="38.206192671130395" lon="15.969164626594267"><ele>1255.0</ele><time>2026-04-28T08:53:41Z</time></trkpt><trkpt lat="38.2062355583683" lon="15.968991521529167"><ele>1254.75</ele><time>2026-04-28T08:53:42Z</time></trkpt><trkpt lat="38.206264551851646" lon="15.968828688167703"><ele>1254.5</ele><time>2026-04-28T08:53:43Z</time></trkpt><trkpt lat="38.20626765031466" lon="15.968651994055765"><ele>1254.25</ele><time>2026-04-28T08:53:44Z</time></trkpt><trkpt lat="38.20623966550606" lon="15.968457646222177"><ele>1254.0</ele><time>2026-04-28T08:53:45Z</time></trkpt><trkpt lat="38.206197099275116" lon="15.968263965529605"><ele>1251.0</ele><time>2026-04-28T08:53:46Z</time></trkpt><trkpt lat="38.2061376987412" lon="15.968096234101013"><ele>1248.0</ele><time>2026-04-28T08:53:47Z</time></trkpt><trkpt lat="38.20608189987664" lon="15.967978227664839"><ele>1245.0</ele><time>2026-04-28T08:53:48Z</time></trkpt><trkpt lat="38.20601483916478" lon="15.967884950900682"><ele>1242.0</ele><time>2026-04-28T08:53:49Z</time></trkpt><trkpt lat="38.20589608071561" lon="15.967844859322087"><ele>1242.0</ele><time>2026-04-28T08:53:50Z</time></trkpt><trkpt lat="38.20579165090913" lon="15.967825786626818"><ele>1242.0</ele><time>2026-04-28T08:53:51Z</time></trkpt><trkpt lat="38.20569415526681" lon="15.967875043325728"><ele>1242.0</ele><time>2026-04-28T08:53:52Z</time></trkpt><trkpt lat="38.20558045724248" lon="15.967941033175022"><ele>1242.0</ele><time>2026-04-28T08:53:53Z</time></trkpt><trkpt lat="38.205482401817" lon="15.967995077030729"><ele>1242.0</ele><time>2026-04-28T08:53:54Z</time></trkpt><trkpt lat="38.20541827824456" lon="15.967981699723088"><ele>1246.0</ele><time>2026-04-28T08:53:55Z</time></trkpt><trkpt lat="38.20536724261576" lon="15.967917647070836"><ele>1250.0</ele><time>2026-04-28T08:53:56Z</time></trkpt><trkpt lat="38.205335996044816" lon="15.967806797356305"><ele>1254.0</ele><time>2026-04-28T08:53:57Z</time></trkpt><trkpt lat="38.20531554027353" lon="15.967708032719472"><ele>1258.0</ele><time>2026-04-28T08:53:58Z</time></trkpt><trkpt lat="38.2053528996405" lon="15.967633646196818"><ele>1262.0</ele><time>2026-04-28T08:53:59Z</time></trkpt><trkpt lat="38.20541268259861" lon="15.967557025500632"><ele>1266.0</ele><time>2026-04-28T08:54:00Z</time></trkpt><trkpt lat="38.205513267458656" lon="15.96740613683582"><ele>1266.0</ele><time>2026-04-28T08:54:01Z</time></trkpt><trkpt lat="38.20561669977372" lon="15.967210660493343"><ele>1266.0</ele><time>2026-04-28T08:54:02Z</time></trkpt><trkpt lat="38.20568588359423" lon="15.967029467675612"><ele>1266.0</ele><time>2026-04-28T08:54:03Z</time></trkpt><trkpt lat="38.20575585273116" lon="15.966910203292226"><ele>1259.5</ele><time>2026-04-28T08:54:04Z</time></trkpt><trkpt lat="38.20582292341607" lon="15.966825600930651"><ele>1253.0</ele><time>2026-04-28T08:54:05Z</time></trkpt><trkpt lat="38.205918460378754" lon="15.966798714147677"><ele>1246.5</ele><time>2026-04-28T08:54:06Z</time></trkpt><trkpt lat="38.20604943727508" lon="15.966732567686321"><ele>1240.0</ele><time>2026-04-28T08:54:07Z</time></trkpt><trkpt lat="38.20615588952561" lon="15.966660932681958"><ele>1240.0</ele><time>2026-04-28T08:54:08Z</time></trkpt><trkpt lat="38.206229855668155" lon="15.966606883981294"><ele>1240.0</ele><time>2026-04-28T08:54:09Z</time></trkpt><trkpt lat="38.2062805416751" lon="15.966546405737699"><ele>1240.0</ele><time>2026-04-28T08:54:10Z</time></trkpt><trkpt lat="38.206341188539724" lon="15.966516276150692"><ele>1240.0</ele><time>2026-04-28T08:54:11Z</time></trkpt><trkpt lat="38.20639754534554" lon="15.966468622104488"><ele>1240.0</ele><time>2026-04-28T08:54:12Z</time></trkpt><trkpt lat="38.206458159899505" lon="15.96638419050556"><ele>1240.0</ele><time>2026-04-28T08:54:13Z</time></trkpt><trkpt lat="38.20652337927364" lon="15.966278445255458"><ele>1238.0</ele><time>2026-04-28T08:54:14Z</time></trkpt><trkpt lat="38.20659732815579" lon="15.966160196081425"><ele>1236.0</ele><time>2026-04-28T08:54:15Z</time></trkpt><trkpt lat="38.20668632139615" lon="15.966014110228498"><ele>1234.0</ele><time>2026-04-28T08:54:16Z</time></trkpt><trkpt lat="38.20677078881509" lon="15.965878394490616"><ele>1232.0</ele><time>2026-04-28T08:54:17Z</time></trkpt><trkpt lat="38.2068245024612" lon="15.965762731585492"><ele>1232.0</ele><time>2026-04-28T08:54:18Z</time></trkpt><trkpt lat="38.206869891484494" lon="15.965677672743851"><ele>1232.0</ele><time>2026-04-28T08:54:19Z</time></trkpt><trkpt lat="38.20686881878713" lon="15.965574019530786"><ele>1232.0</ele><time>2026-04-28T08:54:20Z</time></trkpt><trkpt lat="38.20681117864103" lon="15.96544086736122"><ele>1232.0</ele><time>2026-04-28T08:54:21Z</time></trkpt><trkpt lat="38.20674433745236" lon="15.965291725999606"><ele>1232.0</ele><time>2026-04-28T08:54:22Z</time></trkpt><trkpt lat="38.206728109191204" lon="15.965171042090065"><ele>1232.0</ele><time>2026-04-28T08:54:23Z</time></trkpt><trkpt lat="38.206724263394094" lon="15.965047889022316"><ele>1232.0</ele><time>2026-04-28T08:54:24Z</time></trkpt><trkpt lat="38.206724183966266" lon="15.964885675431406"><ele>1232.0</ele><time>2026-04-28T08:54:25Z</time></trkpt><trkpt lat="38.20674524169763" lon="15.964755919555106"><ele>1232.0</ele><time>2026-04-28T08:54:26Z</time></trkpt><trkpt lat="38.206719044053095" lon="15.964651241821993"><ele>1232.0</ele><time>2026-04-28T08:54:27Z</time></trkpt><trkpt lat="38.20662961851484" lon="15.964571667792436"><ele>1230.5</ele><time>2026-04-28T08:54:28Z</time></trkpt><trkpt lat="38.206530272764496" lon="15.964522486667805"><ele>1229.0</ele><time>2026-04-28T08:54:29.001Z</time></trkpt><trkpt lat="38.20643069586693" lon="15.964540715672795"><ele>1227.5</ele><time>2026-04-28T08:54:30.001Z</time></trkpt><trkpt lat="38.20632346954287" lon="15.964633419489331"><ele>1226.0</ele><time>2026-04-28T08:54:31.001Z</time></trkpt><trkpt lat="38.20623147421988" lon="15.96471663987658"><ele>1228.8333333333335</ele><time>2026-04-28T08:54:32.001Z</time></trkpt><trkpt lat="38.206158561145315" lon="15.964717157089021"><ele>1231.6666666666667</ele><time>2026-04-28T08:54:33.001Z</time></trkpt><trkpt lat="38.206105793386016" lon="15.964645692840884"><ele>1234.5</ele><time>2026-04-28T08:54:34.001Z</time></trkpt><trkpt lat="38.2060827964537" lon="15.964559521088008"><ele>1237.3333333333333</ele><time>2026-04-28T08:54:35.001Z</time></trkpt><trkpt lat="38.20608570858085" lon="15.96446028322622"><ele>1240.1666666666665</ele><time>2026-04-28T08:54:36.001Z</time></trkpt><trkpt lat="38.20610855497707" lon="15.964328977970279"><ele>1243.0</ele><time>2026-04-28T08:54:37.001Z</time></trkpt><trkpt lat="38.20613972438392" lon="15.964150321969411"><ele>1243.0</ele><time>2026-04-28T08:54:38.001Z</time></trkpt><trkpt lat="38.2061810164528" lon="15.963981524420385"><ele>1243.0</ele><time>2026-04-28T08:54:39.001Z</time></trkpt><trkpt lat="38.20623264444987" lon="15.963838075837407"><ele>1243.0</ele><time>2026-04-28T08:54:40.001Z</time></trkpt><trkpt lat="38.20630774830227" lon="15.963704182282502"><ele>1243.0</ele><time>2026-04-28T08:54:41.001Z</time></trkpt><trkpt lat="38.20639849530152" lon="15.963600583484403"><ele>1243.0</ele><time>2026-04-28T08:54:42.001Z</time></trkpt><trkpt lat="38.206475440003324" lon="15.963544835241985"><ele>1243.0</ele><time>2026-04-28T08:54:43.001Z</time></trkpt><trkpt lat="38.20656017803759" lon="15.96349333222727"><ele>1243.0</ele><time>2026-04-28T08:54:44Z</time></trkpt><trkpt lat="38.206678189488315" lon="15.963469074147783"><ele>1243.0</ele><time>2026-04-28T08:54:45Z</time></trkpt><trkpt lat="38.206827417511214" lon="15.963428487866166"><ele>1237.0</ele><time>2026-04-28T08:54:46Z</time></trkpt><trkpt lat="38.20697271444929" lon="15.963381263007925"><ele>1231.0</ele><time>2026-04-28T08:54:47Z</time></trkpt><trkpt lat="38.20715836005948" lon="15.963320923911443"><ele>1225.0</ele><time>2026-04-28T08:54:48Z</time></trkpt><trkpt lat="38.20734160391076" lon="15.963261176114676"><ele>1222.3333333333333</ele><time>2026-04-28T08:54:49Z</time></trkpt><trkpt lat="38.20751141930476" lon="15.963205758889085"><ele>1219.6666666666667</ele><time>2026-04-28T08:54:50Z</time></trkpt><trkpt lat="38.20768660181484" lon="15.963143091682412"><ele>1217.0</ele><time>2026-04-28T08:54:51Z</time></trkpt><trkpt lat="38.207899756438614" lon="15.963058018936145"><ele>1217.0</ele><time>2026-04-28T08:54:52Z</time></trkpt><trkpt lat="38.20809857197546" lon="15.962978669126295"><ele>1217.0</ele><time>2026-04-28T08:54:53Z</time></trkpt><trkpt lat="38.208303105481306" lon="15.962897037169707"><ele>1217.0</ele><time>2026-04-28T08:54:54Z</time></trkpt><trkpt lat="38.20849373871778" lon="15.962820952964389"><ele>1217.25</ele><time>2026-04-28T08:54:55Z</time></trkpt><trkpt lat="38.20864661500208" lon="15.962744520964762"><ele>1217.5</ele><time>2026-04-28T08:54:56Z</time></trkpt><trkpt lat="38.20879989450051" lon="15.96269256223394"><ele>1217.75</ele><time>2026-04-28T08:54:57Z</time></trkpt><trkpt lat="38.20891203435705" lon="15.962644184636066"><ele>1218.0</ele><time>2026-04-28T08:54:58Z</time></trkpt><trkpt lat="38.20898189660682" lon="15.962594221366402"><ele>1217.8333333333333</ele><time>2026-04-28T08:54:59Z</time></trkpt><trkpt lat="38.20904190735681" lon="15.962555551729137"><ele>1217.6666666666667</ele><time>2026-04-28T08:55:00Z</time></trkpt><trkpt lat="38.2090495612069" lon="15.962463717335051"><ele>1217.5</ele><time>2026-04-28T08:55:01Z</time></trkpt><trkpt lat="38.209035617778966" lon="15.962355895401469"><ele>1217.3333333333335</ele><time>2026-04-28T08:55:02Z</time></trkpt><trkpt lat="38.208958398668436" lon="15.962298779138866"><ele>1217.1666666666667</ele><time>2026-04-28T08:55:03Z</time></trkpt><trkpt lat="38.20887606976688" lon="15.962272947249568"><ele>1217.0</ele><time>2026-04-28T08:55:04Z</time></trkpt><trkpt lat="38.20875469401821" lon="15.962288198302534"><ele>1217.0</ele><time>2026-04-28T08:55:05Z</time></trkpt><trkpt lat="38.208555205756326" lon="15.962334245503225"><ele>1217.0</ele><time>2026-04-28T08:55:06Z</time></trkpt><trkpt lat="38.20835736262796" lon="15.962419770160162"><ele>1217.0</ele><time>2026-04-28T08:55:07Z</time></trkpt><trkpt lat="38.20818609753514" lon="15.962480710475752"><ele>1217.0</ele><time>2026-04-28T08:55:08Z</time></trkpt><trkpt lat="38.208034874733606" lon="15.962548789542383"><ele>1217.0</ele><time>2026-04-28T08:55:09Z</time></trkpt><trkpt lat="38.20791649390313" lon="15.962558591220509"><ele>1217.0</ele><time>2026-04-28T08:55:10Z</time></trkpt><trkpt lat="38.20778188661397" lon="15.962494994230896"><ele>1217.0</ele><time>2026-04-28T08:55:12Z</time></trkpt><trkpt lat="38.20773922367795" lon="15.96235289930819"><ele>1218.0</ele><time>2026-04-28T08:55:14Z</time></trkpt><trkpt lat="38.20776103787381" lon="15.962260634185386"><ele>1219.0</ele><time>2026-04-28T08:55:15Z</time></trkpt><trkpt lat="38.2077660918759" lon="15.962131487404589"><ele>1220.0</ele><time>2026-04-28T08:55:16Z</time></trkpt><trkpt lat="38.20780755781085" lon="15.962018186573111"><ele>1221.0</ele><time>2026-04-28T08:55:17Z</time></trkpt><trkpt lat="38.20787730621103" lon="15.961896300058262"><ele>1222.0</ele><time>2026-04-28T08:55:18Z</time></trkpt><trkpt lat="38.20794963543837" lon="15.961721471301818"><ele>1224.5</ele><time>2026-04-28T08:55:19Z</time></trkpt><trkpt lat="38.20801839910004" lon="15.961568933488662"><ele>1227.0</ele><time>2026-04-28T08:55:20Z</time></trkpt><trkpt lat="38.208050455227216" lon="15.961450683648682"><ele>1229.5</ele><time>2026-04-28T08:55:21Z</time></trkpt><trkpt lat="38.20807004152915" lon="15.961314854477914"><ele>1232.0</ele><time>2026-04-28T08:55:22Z</time></trkpt><trkpt lat="38.207995425739945" lon="15.961164978266755"><ele>1232.0</ele><time>2026-04-28T08:55:23Z</time></trkpt><trkpt lat="38.207941043795266" lon="15.960993020567805"><ele>1232.0</ele><time>2026-04-28T08:55:24Z</time></trkpt><trkpt lat="38.20787588269238" lon="15.960793780233331"><ele>1232.0</ele><time>2026-04-28T08:55:25Z</time></trkpt><trkpt lat="38.20777722249389" lon="15.960628405280834"><ele>1235.3333333333335</ele><time>2026-04-28T08:55:26Z</time></trkpt><trkpt lat="38.207675057796514" lon="15.960522268878607"><ele>1238.6666666666667</ele><time>2026-04-28T08:55:27Z</time></trkpt><trkpt lat="38.207608386142795" lon="15.96046321004323"><ele>1242.0</ele><time>2026-04-28T08:55:28Z</time></trkpt><trkpt lat="38.20739548949332" lon="15.96030501351733"><ele>1244.3333333333333</ele><time>2026-04-28T08:55:29Z</time></trkpt><trkpt lat="38.20719674199066" lon="15.960194966121493"><ele>1246.6666666666665</ele><time>2026-04-28T08:55:30Z</time></trkpt><trkpt lat="38.20700980718018" lon="15.960100357667251"><ele>1249.0</ele><time>2026-04-28T08:55:31Z</time></trkpt><trkpt lat="38.206841666170526" lon="15.9600224160085"><ele>1249.0</ele><time>2026-04-28T08:55:32Z</time></trkpt><trkpt lat="38.20672931688564" lon="15.959962838373272"><ele>1249.0</ele><time>2026-04-28T08:55:33Z</time></trkpt><trkpt lat="38.20665309317085" lon="15.959898546202778"><ele>1249.0</ele><time>2026-04-28T08:55:34Z</time></trkpt><trkpt lat="38.20658451679555" lon="15.95982974640785"><ele>1249.0</ele><time>2026-04-28T08:55:35Z</time></trkpt><trkpt lat="38.20653603255656" lon="15.959765656017629"><ele>1249.0</ele><time>2026-04-28T08:55:36Z</time></trkpt><trkpt lat="38.206490036759874" lon="15.959660216391068"><ele>1249.0</ele><time>2026-04-28T08:55:37Z</time></trkpt><trkpt lat="38.206476168392875" lon="15.959527735935602"><ele>1249.0</ele><time>2026-04-28T08:55:38Z</time></trkpt><trkpt lat="38.20650396072305" lon="15.959355372693155"><ele>1249.0</ele><time>2026-04-28T08:55:39Z</time></trkpt><trkpt lat="38.20653330768356" lon="15.9591573045502"><ele>1249.0</ele><time>2026-04-28T08:55:40Z</time></trkpt><trkpt lat="38.20653606046072" lon="15.95898650362145"><ele>1247.5</ele><time>2026-04-28T08:55:41Z</time></trkpt><trkpt lat="38.20651048828641" lon="15.958834444081281"><ele>1246.0</ele><time>2026-04-28T08:55:42Z</time></trkpt><trkpt lat="38.206459395565574" lon="15.958719411742635"><ele>1244.5</ele><time>2026-04-28T08:55:43Z</time></trkpt><trkpt lat="38.206354462496556" lon="15.958644621293601"><ele>1243.0</ele><time>2026-04-28T08:55:44Z</time></trkpt><trkpt lat="38.20625089247395" lon="15.958559116844544"><ele>1250.3333333333333</ele><time>2026-04-28T08:55:45Z</time></trkpt><trkpt lat="38.20611746283956" lon="15.958499086758328"><ele>1257.6666666666667</ele><time>2026-04-28T08:55:46Z</time></trkpt><trkpt lat="38.20593594156856" lon="15.958485465328843"><ele>1265.0</ele><time>2026-04-28T08:55:47Z</time></trkpt><trkpt lat="38.20578967898498" lon="15.958459911317597"><ele>1263.8</ele><time>2026-04-28T08:55:48Z</time></trkpt><trkpt lat="38.205657950471675" lon="15.958423862265999"><ele>1262.6</ele><time>2026-04-28T08:55:49Z</time></trkpt><trkpt lat="38.20557260685604" lon="15.958379683461253"><ele>1261.4</ele><time>2026-04-28T08:55:50Z</time></trkpt><trkpt lat="38.205529504916576" lon="15.958297003400178"><ele>1260.2</ele><time>2026-04-28T08:55:51Z</time></trkpt><trkpt lat="38.205512321971945" lon="15.958209825544312"><ele>1259.0</ele><time>2026-04-28T08:55:52Z</time></trkpt><trkpt lat="38.20555427547124" lon="15.958130033568294"><ele>1259.0</ele><time>2026-04-28T08:55:53Z</time></trkpt><trkpt lat="38.20557478095473" lon="15.958027401183593"><ele>1259.0</ele><time>2026-04-28T08:55:54Z</time></trkpt><trkpt lat="38.20559600438605" lon="15.9578965945239"><ele>1259.0</ele><time>2026-04-28T08:55:55Z</time></trkpt><trkpt lat="38.2057033837557" lon="15.957846643878701"><ele>1259.0</ele><time>2026-04-28T08:55:56Z</time></trkpt><trkpt lat="38.205818495037995" lon="15.957796170894696"><ele>1259.0</ele><time>2026-04-28T08:55:57Z</time></trkpt><trkpt lat="38.205962683819564" lon="15.95772993429993"><ele>1255.3333333333335</ele><time>2026-04-28T08:55:58Z</time></trkpt><trkpt lat="38.206142081176836" lon="15.95766627665379"><ele>1251.6666666666667</ele><time>2026-04-28T08:55:59Z</time></trkpt><trkpt lat="38.20631110965371" lon="15.957618942904643"><ele>1248.0</ele><time>2026-04-28T08:56:00Z</time></trkpt><trkpt lat="38.20647573217907" lon="15.957609719116986"><ele>1245.0</ele><time>2026-04-28T08:56:01Z</time></trkpt><trkpt lat="38.20664787993247" lon="15.957622257233007"><ele>1242.0</ele><time>2026-04-28T08:56:02Z</time></trkpt><trkpt lat="38.206796408153714" lon="15.957616089624976"><ele>1239.0</ele><time>2026-04-28T08:56:03Z</time></trkpt><trkpt lat="38.20690626972139" lon="15.957638941115146"><ele>1236.0</ele><time>2026-04-28T08:56:04Z</time></trkpt><trkpt lat="38.207001028872824" lon="15.957648442364276"><ele>1236.0</ele><time>2026-04-28T08:56:05Z</time></trkpt><trkpt lat="38.20706410243131" lon="15.957645946574853"><ele>1236.0</ele><time>2026-04-28T08:56:06Z</time></trkpt><trkpt lat="38.207166146932536" lon="15.957607330440265"><ele>1236.0</ele><time>2026-04-28T08:56:08Z</time></trkpt><trkpt lat="38.20725349719313" lon="15.95759814297345"><ele>1236.0</ele><time>2026-04-28T08:56:10Z</time></trkpt><trkpt lat="38.20733053231334" lon="15.957552367250392"><ele>1236.0</ele><time>2026-04-28T08:56:12Z</time></trkpt><trkpt lat="38.207384612255616" lon="15.957490907326324"><ele>1236.0</ele><time>2026-04-28T08:56:14Z</time></trkpt><trkpt lat="38.207431557610185" lon="15.957398312468994"><ele>1237.5</ele><time>2026-04-28T08:56:17Z</time></trkpt><trkpt lat="38.20746425658817" lon="15.957221408583239"><ele>1239.0</ele><time>2026-04-28T08:56:19Z</time></trkpt><trkpt lat="38.20744019216924" lon="15.957080988372152"><ele>1240.5</ele><time>2026-04-28T08:56:20Z</time></trkpt><trkpt lat="38.20737575491021" lon="15.956935404505373"><ele>1242.0</ele><time>2026-04-28T08:56:21Z</time></trkpt><trkpt lat="38.207319067683656" lon="15.9567510874753"><ele>1245.3333333333333</ele><time>2026-04-28T08:56:22Z</time></trkpt><trkpt lat="38.20724363639927" lon="15.956552711668584"><ele>1248.6666666666665</ele><time>2026-04-28T08:56:23Z</time></trkpt><trkpt lat="38.20714768864044" lon="15.956320211895088"><ele>1252.0</ele><time>2026-04-28T08:56:24Z</time></trkpt><trkpt lat="38.207061492499996" lon="15.956065709636354"><ele>1251.6666666666665</ele><time>2026-04-28T08:56:25Z</time></trkpt><trkpt lat="38.206960262203594" lon="15.955820689290286"><ele>1251.3333333333333</ele><time>2026-04-28T08:56:25.999Z</time></trkpt><trkpt lat="38.20686846965832" lon="15.955596456489793"><ele>1251.0</ele><time>2026-04-28T08:56:26.999Z</time></trkpt><trkpt lat="38.206816468873775" lon="15.95537088802792"><ele>1251.0</ele><time>2026-04-28T08:56:27.999Z</time></trkpt><trkpt lat="38.20675984654541" lon="15.95514590568975"><ele>1251.0</ele><time>2026-04-28T08:56:28.999Z</time></trkpt><trkpt lat="38.20671123362989" lon="15.954918840582998"><ele>1251.0</ele><time>2026-04-28T08:56:29.999Z</time></trkpt><trkpt lat="38.20666688142049" lon="15.954664478645077"><ele>1249.6666666666667</ele><time>2026-04-28T08:56:30.999Z</time></trkpt><trkpt lat="38.206626310565404" lon="15.954421408923006"><ele>1248.3333333333335</ele><time>2026-04-28T08:56:31.999Z</time></trkpt><trkpt lat="38.20658857147516" lon="15.954200579361025"><ele>1247.0</ele><time>2026-04-28T08:56:32.999Z</time></trkpt><trkpt lat="38.206543337701625" lon="15.954016218752406"><ele>1247.0</ele><time>2026-04-28T08:56:34.001Z</time></trkpt><trkpt lat="38.206530340708554" lon="15.953847454215706"><ele>1247.0</ele><time>2026-04-28T08:56:35.001Z</time></trkpt><trkpt lat="38.206532332445434" lon="15.95367213189352"><ele>1247.0</ele><time>2026-04-28T08:56:36.001Z</time></trkpt><trkpt lat="38.20656094429795" lon="15.953467577517852"><ele>1247.0</ele><time>2026-04-28T08:56:37.001Z</time></trkpt><trkpt lat="38.20662347920655" lon="15.95325030749838"><ele>1246.0</ele><time>2026-04-28T08:56:38Z</time></trkpt><trkpt lat="38.20669563290522" lon="15.95300748751281"><ele>1245.0</ele><time>2026-04-28T08:56:39Z</time></trkpt><trkpt lat="38.20676372904543" lon="15.952744476528878"><ele>1244.0</ele><time>2026-04-28T08:56:40Z</time></trkpt><trkpt lat="38.20685407384347" lon="15.952471075818604"><ele>1242.6666666666667</ele><time>2026-04-28T08:56:41Z</time></trkpt><trkpt lat="38.206941125617966" lon="15.95219589366607"><ele>1241.3333333333333</ele><time>2026-04-28T08:56:42Z</time></trkpt><trkpt lat="38.20701706582822" lon="15.95195219274562"><ele>1240.0</ele><time>2026-04-28T08:56:43Z</time></trkpt><trkpt lat="38.2070743630905" lon="15.951759159969638"><ele>1240.0</ele><time>2026-04-28T08:56:44Z</time></trkpt><trkpt lat="38.20711723825059" lon="15.951581316944464"><ele>1240.0</ele><time>2026-04-28T08:56:45Z</time></trkpt><trkpt lat="38.207153496789374" lon="15.951396103175284"><ele>1240.0</ele><time>2026-04-28T08:56:46Z</time></trkpt><trkpt lat="38.20718026855519" lon="15.951213383404578"><ele>1240.0</ele><time>2026-04-28T08:56:47Z</time></trkpt><trkpt lat="38.207205450064414" lon="15.95099792216384"><ele>1238.6666666666665</ele><time>2026-04-28T08:56:48Z</time></trkpt><trkpt lat="38.2072346325215" lon="15.950747394476302"><ele>1237.3333333333333</ele><time>2026-04-28T08:56:49Z</time></trkpt><trkpt lat="38.20729470555209" lon="15.950482911332621"><ele>1236.0</ele><time>2026-04-28T08:56:50Z</time></trkpt><trkpt lat="38.207339532588136" lon="15.950191417275796"><ele>1233.5</ele><time>2026-04-28T08:56:51Z</time></trkpt><trkpt lat="38.20738383363292" lon="15.949879000672306"><ele>1231.0</ele><time>2026-04-28T08:56:52Z</time></trkpt><trkpt lat="38.207409015907665" lon="15.949576517894833"><ele>1231.0</ele><time>2026-04-28T08:56:53Z</time></trkpt><trkpt lat="38.20744926572231" lon="15.94930331166611"><ele>1231.0</ele><time>2026-04-28T08:56:54Z</time></trkpt><trkpt lat="38.20748895846947" lon="15.94904663039111"><ele>1231.0</ele><time>2026-04-28T08:56:55Z</time></trkpt><trkpt lat="38.207525597697526" lon="15.948808256620934"><ele>1230.6666666666665</ele><time>2026-04-28T08:56:56Z</time></trkpt><trkpt lat="38.20760277405994" lon="15.94859952499819"><ele>1230.3333333333333</ele><time>2026-04-28T08:56:57Z</time></trkpt><trkpt lat="38.20767780544443" lon="15.948367454346277"><ele>1230.0</ele><time>2026-04-28T08:56:58Z</time></trkpt><trkpt lat="38.207761972521155" lon="15.948115365261712"><ele>1230.0</ele><time>2026-04-28T08:56:59Z</time></trkpt><trkpt lat="38.20783122474109" lon="15.947866490890728"><ele>1230.0</ele><time>2026-04-28T08:57:00Z</time></trkpt><trkpt lat="38.20791569558619" lon="15.947678001974126"><ele>1230.0</ele><time>2026-04-28T08:57:01Z</time></trkpt><trkpt lat="38.207951719133014" lon="15.947504719801547"><ele>1230.2</ele><time>2026-04-28T08:57:02Z</time></trkpt><trkpt lat="38.20799780781311" lon="15.947365620856644"><ele>1230.4</ele><time>2026-04-28T08:57:03Z</time></trkpt><trkpt lat="38.208018200419744" lon="15.947228972454353"><ele>1230.6</ele><time>2026-04-28T08:57:04Z</time></trkpt><trkpt lat="38.20800179423785" lon="15.947096584998118"><ele>1230.8</ele><time>2026-04-28T08:57:05Z</time></trkpt><trkpt lat="38.20796580881464" lon="15.946974353092866"><ele>1231.0</ele><time>2026-04-28T08:57:06Z</time></trkpt><trkpt lat="38.20790246835086" lon="15.946843163432485"><ele>1231.0</ele><time>2026-04-28T08:57:07Z</time></trkpt><trkpt lat="38.20780400845725" lon="15.946703137195005"><ele>1231.0</ele><time>2026-04-28T08:57:08Z</time></trkpt><trkpt lat="38.20768218382817" lon="15.946548735474735"><ele>1231.0</ele><time>2026-04-28T08:57:09Z</time></trkpt><trkpt lat="38.20758141115873" lon="15.94636375255474"><ele>1231.0</ele><time>2026-04-28T08:57:10Z</time></trkpt><trkpt lat="38.207452019694536" lon="15.946244527459793"><ele>1231.0</ele><time>2026-04-28T08:57:11Z</time></trkpt><trkpt lat="38.20733445789317" lon="15.946125417480612"><ele>1231.0</ele><time>2026-04-28T08:57:12Z</time></trkpt><trkpt lat="38.20719326858546" lon="15.946003888879265"><ele>1233.0</ele><time>2026-04-28T08:57:13Z</time></trkpt><trkpt lat="38.20702763875353" lon="15.94591826309807"><ele>1235.0</ele><time>2026-04-28T08:57:14Z</time></trkpt><trkpt lat="38.206877744738506" lon="15.945813494930274"><ele>1237.0</ele><time>2026-04-28T08:57:15Z</time></trkpt><trkpt lat="38.20671689812932" lon="15.945743111328756"><ele>1234.6666666666665</ele><time>2026-04-28T08:57:16Z</time></trkpt><trkpt lat="38.20652582111728" lon="15.945722420867774"><ele>1232.3333333333333</ele><time>2026-04-28T08:57:17Z</time></trkpt><trkpt lat="38.206355751125386" lon="15.94573436878153"><ele>1230.0</ele><time>2026-04-28T08:57:18Z</time></trkpt><trkpt lat="38.20622536759093" lon="15.94567614107522"><ele>1230.0</ele><time>2026-04-28T08:57:19Z</time></trkpt><trkpt lat="38.20611742530587" lon="15.945598886886915"><ele>1230.0</ele><time>2026-04-28T08:57:20Z</time></trkpt><trkpt lat="38.20600209331466" lon="15.94548846935213"><ele>1230.0</ele><time>2026-04-28T08:57:21Z</time></trkpt><trkpt lat="38.20589575361399" lon="15.945367285050803"><ele>1230.0</ele><time>2026-04-28T08:57:22Z</time></trkpt><trkpt lat="38.20581581460431" lon="15.945261487077715"><ele>1230.0</ele><time>2026-04-28T08:57:23Z</time></trkpt><trkpt lat="38.20577050861726" lon="15.945185209172777"><ele>1230.0</ele><time>2026-04-28T08:57:24Z</time></trkpt><trkpt lat="38.20576613310247" lon="15.945051071243439"><ele>1230.0</ele><time>2026-04-28T08:57:26Z</time></trkpt><trkpt lat="38.20580694948077" lon="15.944983080313024"><ele>1230.0</ele><time>2026-04-28T08:57:27Z</time></trkpt><trkpt lat="38.20589619775356" lon="15.944930407921573"><ele>1230.0</ele><time>2026-04-28T08:57:28Z</time></trkpt><trkpt lat="38.20602132193722" lon="15.944877685722673"><ele>1228.0</ele><time>2026-04-28T08:57:29Z</time></trkpt><trkpt lat="38.20617169277676" lon="15.944804721900535"><ele>1226.0</ele><time>2026-04-28T08:57:30Z</time></trkpt><trkpt lat="38.20631616101157" lon="15.944653318820048"><ele>1224.0</ele><time>2026-04-28T08:57:31Z</time></trkpt><trkpt lat="38.20642853885163" lon="15.94453285274088"><ele>1222.0</ele><time>2026-04-28T08:57:32Z</time></trkpt><trkpt lat="38.206529723544854" lon="15.944475129699951"><ele>1220.0</ele><time>2026-04-28T08:57:33Z</time></trkpt><trkpt lat="38.20663838628168" lon="15.944447750729163"><ele>1218.0</ele><time>2026-04-28T08:57:34Z</time></trkpt><trkpt lat="38.20678176373561" lon="15.944484700193218"><ele>1216.0</ele><time>2026-04-28T08:57:35Z</time></trkpt><trkpt lat="38.20690935530124" lon="15.944463341643017"><ele>1216.0</ele><time>2026-04-28T08:57:36Z</time></trkpt><trkpt lat="38.20702250863466" lon="15.944402967817318"><ele>1216.0</ele><time>2026-04-28T08:57:37Z</time></trkpt><trkpt lat="38.20715732700992" lon="15.944278983246075"><ele>1216.0</ele><time>2026-04-28T08:57:38Z</time></trkpt><trkpt lat="38.20730302589347" lon="15.94412976023481"><ele>1216.75</ele><time>2026-04-28T08:57:39Z</time></trkpt><trkpt lat="38.20741627650496" lon="15.944008269877287"><ele>1217.5</ele><time>2026-04-28T08:57:40Z</time></trkpt><trkpt lat="38.20749843640933" lon="15.943905216360447"><ele>1218.25</ele><time>2026-04-28T08:57:41Z</time></trkpt><trkpt lat="38.207541222995296" lon="15.943787377617042"><ele>1219.0</ele><time>2026-04-28T08:57:42Z</time></trkpt><trkpt lat="38.20756862642867" lon="15.943649953813772"><ele>1219.0</ele><time>2026-04-28T08:57:43Z</time></trkpt><trkpt lat="38.20757531182084" lon="15.943508535802158"><ele>1219.0</ele><time>2026-04-28T08:57:44Z</time></trkpt><trkpt lat="38.20753269637752" lon="15.943362220656251"><ele>1219.0</ele><time>2026-04-28T08:57:45Z</time></trkpt><trkpt lat="38.20746749994443" lon="15.943250781984267"><ele>1219.0</ele><time>2026-04-28T08:57:46Z</time></trkpt><trkpt lat="38.20738866650492" lon="15.943141481313996"><ele>1223.75</ele><time>2026-04-28T08:57:47Z</time></trkpt><trkpt lat="38.207268271637204" lon="15.943106440518882"><ele>1228.5</ele><time>2026-04-28T08:57:48Z</time></trkpt><trkpt lat="38.20713945495422" lon="15.943086862140298"><ele>1233.25</ele><time>2026-04-28T08:57:49Z</time></trkpt><trkpt lat="38.20700355851565" lon="15.94308951796863"><ele>1238.0</ele><time>2026-04-28T08:57:50Z</time></trkpt><trkpt lat="38.20684812328194" lon="15.943120478533984"><ele>1238.0</ele><time>2026-04-28T08:57:51Z</time></trkpt><trkpt lat="38.206659751402725" lon="15.94314252080467"><ele>1238.0</ele><time>2026-04-28T08:57:52Z</time></trkpt><trkpt lat="38.206478227841956" lon="15.94317661642437"><ele>1238.0</ele><time>2026-04-28T08:57:53Z</time></trkpt><trkpt lat="38.20631986994782" lon="15.943164938310144"><ele>1240.6666666666667</ele><time>2026-04-28T08:57:54Z</time></trkpt><trkpt lat="38.20616372684169" lon="15.943163186773267"><ele>1243.3333333333333</ele><time>2026-04-28T08:57:55Z</time></trkpt><trkpt lat="38.20598113592923" lon="15.943137826411945"><ele>1246.0</ele><time>2026-04-28T08:57:56Z</time></trkpt><trkpt lat="38.205768286313194" lon="15.94312114084234"><ele>1249.6666666666665</ele><time>2026-04-28T08:57:57Z</time></trkpt><trkpt lat="38.20557168049071" lon="15.943059491250121"><ele>1253.3333333333333</ele><time>2026-04-28T08:57:58Z</time></trkpt><trkpt lat="38.205420059866896" lon="15.943022270483414"><ele>1257.0</ele><time>2026-04-28T08:57:59Z</time></trkpt><trkpt lat="38.20530366192663" lon="15.94298794229728"><ele>1257.0</ele><time>2026-04-28T08:58:00Z</time></trkpt><trkpt lat="38.20520615340539" lon="15.942947552872788"><ele>1257.0</ele><time>2026-04-28T08:58:01Z</time></trkpt><trkpt lat="38.20512392163754" lon="15.942895862787033"><ele>1257.0</ele><time>2026-04-28T08:58:02Z</time></trkpt><trkpt lat="38.20505540822997" lon="15.942798550137285"><ele>1257.0</ele><time>2026-04-28T08:58:03Z</time></trkpt><trkpt lat="38.204997824696925" lon="15.942652328250636"><ele>1257.0</ele><time>2026-04-28T08:58:04Z</time></trkpt><trkpt lat="38.204934064479055" lon="15.942461899319902"><ele>1259.3333333333333</ele><time>2026-04-28T08:58:05Z</time></trkpt><trkpt lat="38.20485803423764" lon="15.942225655920744"><ele>1261.6666666666665</ele><time>2026-04-28T08:58:05.999Z</time></trkpt><trkpt lat="38.20476332996788" lon="15.942040385047928"><ele>1264.0</ele><time>2026-04-28T08:58:06.999Z</time></trkpt><trkpt lat="38.20470329496605" lon="15.941895274539574"><ele>1264.0</ele><time>2026-04-28T08:58:07.999Z</time></trkpt><trkpt lat="38.20467339870247" lon="15.941779019715879"><ele>1264.0</ele><time>2026-04-28T08:58:08.999Z</time></trkpt><trkpt lat="38.204673084808" lon="15.941642971650726"><ele>1264.0</ele><time>2026-04-28T08:58:09.999Z</time></trkpt><trkpt lat="38.20469935376966" lon="15.94149167881826"><ele>1264.0</ele><time>2026-04-28T08:58:10.999Z</time></trkpt><trkpt lat="38.20477147288495" lon="15.94134947623606"><ele>1257.0</ele><time>2026-04-28T08:58:11.999Z</time></trkpt><trkpt lat="38.204873838449444" lon="15.941209284556312"><ele>1250.0</ele><time>2026-04-28T08:58:12.999Z</time></trkpt><trkpt lat="38.204974571686776" lon="15.941080459940295"><ele>1243.0</ele><time>2026-04-28T08:58:13.999Z</time></trkpt><trkpt lat="38.205008627591425" lon="15.940948720915086"><ele>1236.0</ele><time>2026-04-28T08:58:14.999Z</time></trkpt><trkpt lat="38.20501453602343" lon="15.940837412826907"><ele>1236.0</ele><time>2026-04-28T08:58:15.999Z</time></trkpt><trkpt lat="38.20497351813462" lon="15.940717129385265"><ele>1236.0</ele><time>2026-04-28T08:58:16.999Z</time></trkpt><trkpt lat="38.204885765183185" lon="15.940614916712837"><ele>1236.0</ele><time>2026-04-28T08:58:17.999Z</time></trkpt><trkpt lat="38.20477825621102" lon="15.940536423827519"><ele>1236.0</ele><time>2026-04-28T08:58:18.999Z</time></trkpt><trkpt lat="38.20462001701784" lon="15.940496357367598"><ele>1242.3333333333333</ele><time>2026-04-28T08:58:19.999Z</time></trkpt><trkpt lat="38.20444855165898" lon="15.940457628452817"><ele>1248.6666666666665</ele><time>2026-04-28T08:58:20.999Z</time></trkpt><trkpt lat="38.20426551482099" lon="15.940438688659125"><ele>1255.0</ele><time>2026-04-28T08:58:21.999Z</time></trkpt><trkpt lat="38.204056867996954" lon="15.940468191466556"><ele>1256.6666666666665</ele><time>2026-04-28T08:58:22.999Z</time></trkpt><trkpt lat="38.203838204071396" lon="15.940513446611046"><ele>1258.3333333333333</ele><time>2026-04-28T08:58:23.999Z</time></trkpt><trkpt lat="38.203657177383974" lon="15.940520871680276"><ele>1260.0</ele><time>2026-04-28T08:58:24.999Z</time></trkpt><trkpt lat="38.20353247794183" lon="15.940535213198567"><ele>1260.0</ele><time>2026-04-28T08:58:25.999Z</time></trkpt><trkpt lat="38.20344703595241" lon="15.94053251741657"><ele>1260.0</ele><time>2026-04-28T08:58:26.999Z</time></trkpt><trkpt lat="38.20337233177291" lon="15.94051369742159"><ele>1260.0</ele><time>2026-04-28T08:58:27.999Z</time></trkpt><trkpt lat="38.20330668076285" lon="15.940458057103159"><ele>1260.0</ele><time>2026-04-28T08:58:28.999Z</time></trkpt><trkpt lat="38.203303842120555" lon="15.94032293411332"><ele>1260.0</ele><time>2026-04-28T08:58:29.999Z</time></trkpt><trkpt lat="38.20328547887569" lon="15.940191890688167"><ele>1260.0</ele><time>2026-04-28T08:58:30.999Z</time></trkpt><trkpt lat="38.203329404104515" lon="15.940062140962416"><ele>1260.0</ele><time>2026-04-28T08:58:31.999Z</time></trkpt><trkpt lat="38.203408965707965" lon="15.939966325925967"><ele>1260.0</ele><time>2026-04-28T08:58:32.999Z</time></trkpt><trkpt lat="38.20352391624722" lon="15.939933691399105"><ele>1260.0</ele><time>2026-04-28T08:58:33.999Z</time></trkpt><trkpt lat="38.20361946658494" lon="15.939875539159319"><ele>1260.0</ele><time>2026-04-28T08:58:34.999Z</time></trkpt><trkpt lat="38.20368798111331" lon="15.939825100120167"><ele>1259.4</ele><time>2026-04-28T08:58:35.999Z</time></trkpt><trkpt lat="38.20372575800164" lon="15.939742721669818"><ele>1258.8</ele><time>2026-04-28T08:58:36.999Z</time></trkpt><trkpt lat="38.20371220495785" lon="15.939615823085765"><ele>1258.2</ele><time>2026-04-28T08:58:37.999Z</time></trkpt><trkpt lat="38.20366610989413" lon="15.939479377111953"><ele>1257.6</ele><time>2026-04-28T08:58:38.999Z</time></trkpt><trkpt lat="38.2035896437637" lon="15.939305889500908"><ele>1257.0</ele><time>2026-04-28T08:58:40Z</time></trkpt><trkpt lat="38.203515513300474" lon="15.939162399675077"><ele>1257.0</ele><time>2026-04-28T08:58:41Z</time></trkpt><trkpt lat="38.20347361133839" lon="15.939049898475206"><ele>1257.0</ele><time>2026-04-28T08:58:42Z</time></trkpt><trkpt lat="38.20345463133404" lon="15.938957943823224"><ele>1257.0</ele><time>2026-04-28T08:58:43Z</time></trkpt><trkpt lat="38.20349898690774" lon="15.938853925789385"><ele>1257.0</ele><time>2026-04-28T08:58:44Z</time></trkpt><trkpt lat="38.203607929719254" lon="15.938803465355864"><ele>1257.0</ele><time>2026-04-28T08:58:45Z</time></trkpt><trkpt lat="38.20372737435515" lon="15.938703740669625"><ele>1257.0</ele><time>2026-04-28T08:58:46Z</time></trkpt><trkpt lat="38.20381544660393" lon="15.93860226155983"><ele>1257.0</ele><time>2026-04-28T08:58:47Z</time></trkpt><trkpt lat="38.20386025630835" lon="15.93847657576434"><ele>1257.0</ele><time>2026-04-28T08:58:48Z</time></trkpt><trkpt lat="38.20386785725099" lon="15.938324015422156"><ele>1257.0</ele><time>2026-04-28T08:58:49Z</time></trkpt><trkpt lat="38.20382491388563" lon="15.938161234730625"><ele>1260.3333333333333</ele><time>2026-04-28T08:58:50Z</time></trkpt><trkpt lat="38.20376209035774" lon="15.93797005793444"><ele>1263.6666666666665</ele><time>2026-04-28T08:58:51Z</time></trkpt><trkpt lat="38.2036823637969" lon="15.937755585364362"><ele>1267.0</ele><time>2026-04-28T08:58:52Z</time></trkpt><trkpt lat="38.20358453321384" lon="15.93750754005316"><ele>1268.3333333333333</ele><time>2026-04-28T08:58:53Z</time></trkpt><trkpt lat="38.2034872378373" lon="15.937274101316333"><ele>1269.6666666666667</ele><time>2026-04-28T08:58:54Z</time></trkpt><trkpt lat="38.2034150858786" lon="15.93710710967272"><ele>1271.0</ele><time>2026-04-28T08:58:55Z</time></trkpt><trkpt lat="38.20334883226276" lon="15.936968238782166"><ele>1271.0</ele><time>2026-04-28T08:58:56Z</time></trkpt><trkpt lat="38.20332479398994" lon="15.936821943519998"><ele>1271.0</ele><time>2026-04-28T08:58:57Z</time></trkpt><trkpt lat="38.203356282452084" lon="15.936646740771014"><ele>1271.0</ele><time>2026-04-28T08:58:58Z</time></trkpt><trkpt lat="38.20336205268191" lon="15.93648412615626"><ele>1271.0</ele><time>2026-04-28T08:58:59Z</time></trkpt><trkpt lat="38.20336826121101" lon="15.936361054193952"><ele>1269.25</ele><time>2026-04-28T08:59:00Z</time></trkpt><trkpt lat="38.20332568531853" lon="15.936264001010194"><ele>1267.5</ele><time>2026-04-28T08:59:01Z</time></trkpt><trkpt lat="38.20324197524919" lon="15.936206376548553"><ele>1265.75</ele><time>2026-04-28T08:59:02Z</time></trkpt><trkpt lat="38.203117035927235" lon="15.936194345340724"><ele>1264.0</ele><time>2026-04-28T08:59:03Z</time></trkpt><trkpt lat="38.20296127381663" lon="15.936206173315224"><ele>1270.3333333333333</ele><time>2026-04-28T08:59:04Z</time></trkpt><trkpt lat="38.20278274564923" lon="15.936168943016613"><ele>1276.6666666666667</ele><time>2026-04-28T08:59:05Z</time></trkpt><trkpt lat="38.202582282068086" lon="15.9361623019501"><ele>1283.0</ele><time>2026-04-28T08:59:06Z</time></trkpt><trkpt lat="38.20242075329353" lon="15.93611511872992"><ele>1284.2</ele><time>2026-04-28T08:59:07Z</time></trkpt><trkpt lat="38.20230530129664" lon="15.936077429165527"><ele>1285.4</ele><time>2026-04-28T08:59:08Z</time></trkpt><trkpt lat="38.2022338264149" lon="15.936028393313364"><ele>1286.6000000000001</ele><time>2026-04-28T08:59:09Z</time></trkpt><trkpt lat="38.202177344186005" lon="15.935947826971297"><ele>1287.8000000000002</ele><time>2026-04-28T08:59:10Z</time></trkpt><trkpt lat="38.20213449763699" lon="15.935827306408983"><ele>1289.0</ele><time>2026-04-28T08:59:11Z</time></trkpt><trkpt lat="38.20210963120855" lon="15.93566879292275"><ele>1289.0</ele><time>2026-04-28T08:59:12Z</time></trkpt><trkpt lat="38.202116198794236" lon="15.935508667675403"><ele>1289.0</ele><time>2026-04-28T08:59:13Z</time></trkpt><trkpt lat="38.20215490695492" lon="15.935388484315814"><ele>1289.0</ele><time>2026-04-28T08:59:14Z</time></trkpt><trkpt lat="38.20222587743717" lon="15.935274883414712"><ele>1289.0</ele><time>2026-04-28T08:59:15Z</time></trkpt><trkpt lat="38.20234531572398" lon="15.935158687516669"><ele>1287.0</ele><time>2026-04-28T08:59:16Z</time></trkpt><trkpt lat="38.20249282720592" lon="15.935080704614249"><ele>1285.0</ele><time>2026-04-28T08:59:17Z</time></trkpt><trkpt lat="38.20262035635304" lon="15.934984168065252"><ele>1283.0</ele><time>2026-04-28T08:59:18Z</time></trkpt><trkpt lat="38.202744438824396" lon="15.934869799727213"><ele>1283.0</ele><time>2026-04-28T08:59:19Z</time></trkpt><trkpt lat="38.20288186657329" lon="15.934719315159914"><ele>1283.0</ele><time>2026-04-28T08:59:20Z</time></trkpt><trkpt lat="38.20301382146486" lon="15.9345795152852"><ele>1283.0</ele><time>2026-04-28T08:59:21Z</time></trkpt><trkpt lat="38.20311451993976" lon="15.93444884870403"><ele>1279.25</ele><time>2026-04-28T08:59:22Z</time></trkpt><trkpt lat="38.20320133076159" lon="15.934363012613101"><ele>1275.5</ele><time>2026-04-28T08:59:23Z</time></trkpt><trkpt lat="38.203299291861285" lon="15.934306292427413"><ele>1271.75</ele><time>2026-04-28T08:59:24Z</time></trkpt><trkpt lat="38.203435308002746" lon="15.934277189192205"><ele>1268.0</ele><time>2026-04-28T08:59:25Z</time></trkpt><trkpt lat="38.20359333177569" lon="15.934265936095748"><ele>1268.0</ele><time>2026-04-28T08:59:26Z</time></trkpt><trkpt lat="38.203725820843644" lon="15.934251991246501"><ele>1268.0</ele><time>2026-04-28T08:59:27Z</time></trkpt><trkpt lat="38.20382297996025" lon="15.93422214356217"><ele>1268.0</ele><time>2026-04-28T08:59:28Z</time></trkpt><trkpt lat="38.203895994983085" lon="15.934152749752814"><ele>1268.0</ele><time>2026-04-28T08:59:29Z</time></trkpt><trkpt lat="38.20394442138786" lon="15.934048607157516"><ele>1268.0</ele><time>2026-04-28T08:59:30Z</time></trkpt><trkpt lat="38.20395381753458" lon="15.933943624786655"><ele>1273.25</ele><time>2026-04-28T08:59:31Z</time></trkpt><trkpt lat="38.20390521219" lon="15.93382177500764"><ele>1278.5</ele><time>2026-04-28T08:59:32Z</time></trkpt><trkpt lat="38.20381226659112" lon="15.933685320131195"><ele>1283.75</ele><time>2026-04-28T08:59:33Z</time></trkpt><trkpt lat="38.20366632120403" lon="15.93358836539889"><ele>1289.0</ele><time>2026-04-28T08:59:34Z</time></trkpt><trkpt lat="38.20359918731792" lon="15.93343640688054"><ele>1292.5</ele><time>2026-04-28T08:59:35Z</time></trkpt><trkpt lat="38.2035767237711" lon="15.933300011496323"><ele>1296.0</ele><time>2026-04-28T08:59:36Z</time></trkpt><trkpt lat="38.203564656673" lon="15.93317397958112"><ele>1299.5</ele><time>2026-04-28T08:59:37Z</time></trkpt><trkpt lat="38.20356007454654" lon="15.93302622130242"><ele>1303.0</ele><time>2026-04-28T08:59:38Z</time></trkpt><trkpt lat="38.20355928990294" lon="15.932842977544343"><ele>1303.0</ele><time>2026-04-28T08:59:39Z</time></trkpt><trkpt lat="38.203556905803026" lon="15.932647907169727"><ele>1303.0</ele><time>2026-04-28T08:59:40Z</time></trkpt><trkpt lat="38.20355052254076" lon="15.932462643110773"><ele>1303.0</ele><time>2026-04-28T08:59:41Z</time></trkpt><trkpt lat="38.203532210265124" lon="15.932293731785757"><ele>1303.0</ele><time>2026-04-28T08:59:42Z</time></trkpt><trkpt lat="38.20346509844153" lon="15.932154668467719"><ele>1301.6666666666665</ele><time>2026-04-28T08:59:43Z</time></trkpt><trkpt lat="38.20333200464644" lon="15.932061177354774"><ele>1300.3333333333333</ele><time>2026-04-28T08:59:44Z</time></trkpt><trkpt lat="38.203202282678056" lon="15.931933552460215"><ele>1299.0</ele><time>2026-04-28T08:59:45Z</time></trkpt><trkpt lat="38.20308774883235" lon="15.931809888063482"><ele>1300.5</ele><time>2026-04-28T08:59:46Z</time></trkpt><trkpt lat="38.203008579459954" lon="15.931687111682658"><ele>1302.0</ele><time>2026-04-28T08:59:47Z</time></trkpt><trkpt lat="38.20299581604278" lon="15.931532013076989"><ele>1303.5</ele><time>2026-04-28T08:59:48Z</time></trkpt><trkpt lat="38.20299925861499" lon="15.931346702861228"><ele>1305.0</ele><time>2026-04-28T08:59:49Z</time></trkpt><trkpt lat="38.20298502400434" lon="15.93119549109252"><ele>1305.0</ele><time>2026-04-28T08:59:50Z</time></trkpt><trkpt lat="38.20290507799499" lon="15.931083994466768"><ele>1305.0</ele><time>2026-04-28T08:59:51Z</time></trkpt><trkpt lat="38.20279778962297" lon="15.930988285412553"><ele>1305.0</ele><time>2026-04-28T08:59:52Z</time></trkpt><trkpt lat="38.202657378716985" lon="15.930884733015285"><ele>1305.0</ele><time>2026-04-28T08:59:53Z</time></trkpt><trkpt lat="38.20254186463776" lon="15.930801368043028"><ele>1303.0</ele><time>2026-04-28T08:59:54Z</time></trkpt><trkpt lat="38.20247695460609" lon="15.930728804092286"><ele>1301.0</ele><time>2026-04-28T08:59:55Z</time></trkpt><trkpt lat="38.20243503077527" lon="15.930648656044209"><ele>1299.0</ele><time>2026-04-28T08:59:55.999Z</time></trkpt><trkpt lat="38.20243186479441" lon="15.930533035196458"><ele>1297.0</ele><time>2026-04-28T08:59:56.999Z</time></trkpt><trkpt lat="38.2024938194541" lon="15.930398342783723"><ele>1295.0</ele><time>2026-04-28T08:59:57.999Z</time></trkpt><trkpt lat="38.2025550285974" lon="15.930213248449185"><ele>1294.3333333333335</ele><time>2026-04-28T08:59:58.999Z</time></trkpt><trkpt lat="38.20262649144024" lon="15.930017529745117"><ele>1293.6666666666667</ele><time>2026-04-28T08:59:59.999Z</time></trkpt><trkpt lat="38.20270385191965" lon="15.929794503696733"><ele>1293.0</ele><time>2026-04-28T09:00:00.999Z</time></trkpt><trkpt lat="38.202774372108344" lon="15.929570908180773"><ele>1293.0</ele><time>2026-04-28T09:00:01.999Z</time></trkpt><trkpt lat="38.202848391700094" lon="15.929370966243706"><ele>1293.0</ele><time>2026-04-28T09:00:02.999Z</time></trkpt><trkpt lat="38.2029204226791" lon="15.929197836389715"><ele>1293.0</ele><time>2026-04-28T09:00:03.999Z</time></trkpt><trkpt lat="38.20297370079207" lon="15.929041906985058"><ele>1294.3333333333333</ele><time>2026-04-28T09:00:04.999Z</time></trkpt><trkpt lat="38.20300128574598" lon="15.928871122116668"><ele>1295.6666666666665</ele><time>2026-04-28T09:00:05.999Z</time></trkpt><trkpt lat="38.2030031202256" lon="15.928674158359208"><ele>1297.0</ele><time>2026-04-28T09:00:06.999Z</time></trkpt><trkpt lat="38.202966205139866" lon="15.928448153788299"><ele>1297.6666666666665</ele><time>2026-04-28T09:00:07.999Z</time></trkpt><trkpt lat="38.2029328155262" lon="15.928198593747263"><ele>1298.3333333333333</ele><time>2026-04-28T09:00:08.999Z</time></trkpt><trkpt lat="38.202901589246174" lon="15.9279282905169"><ele>1299.0</ele><time>2026-04-28T09:00:09.999Z</time></trkpt><trkpt lat="38.20286779702994" lon="15.927632846114085"><ele>1301.5</ele><time>2026-04-28T09:00:10.999Z</time></trkpt><trkpt lat="38.2028289387567" lon="15.927318486288058"><ele>1304.0</ele><time>2026-04-28T09:00:11.999Z</time></trkpt><trkpt lat="38.20277022350684" lon="15.927001302897104"><ele>1306.5</ele><time>2026-04-28T09:00:12.999Z</time></trkpt><trkpt lat="38.20271683952343" lon="15.926696995126536"><ele>1309.0</ele><time>2026-04-28T09:00:13.999Z</time></trkpt><trkpt lat="38.202664829771244" lon="15.9264066183261"><ele>1309.0</ele><time>2026-04-28T09:00:14.999Z</time></trkpt><trkpt lat="38.202614119872806" lon="15.926124622890882"><ele>1309.0</ele><time>2026-04-28T09:00:15.999Z</time></trkpt><trkpt lat="38.20257149896551" lon="15.925865136788389"><ele>1309.0</ele><time>2026-04-28T09:00:16.999Z</time></trkpt><trkpt lat="38.202524369525875" lon="15.925641154753032"><ele>1309.6666666666665</ele><time>2026-04-28T09:00:17.999Z</time></trkpt><trkpt lat="38.202486649322736" lon="15.925399415568112"><ele>1310.3333333333333</ele><time>2026-04-28T09:00:18.999Z</time></trkpt><trkpt lat="38.20243284683916" lon="15.925191077889606"><ele>1311.0</ele><time>2026-04-28T09:00:19.999Z</time></trkpt><trkpt lat="38.2023710241958" lon="15.925017182088485"><ele>1311.8</ele><time>2026-04-28T09:00:20.999Z</time></trkpt><trkpt lat="38.20233002267709" lon="15.924865581489842"><ele>1312.6</ele><time>2026-04-28T09:00:21.999Z</time></trkpt><trkpt lat="38.20230421845187" lon="15.924740270657594"><ele>1313.4</ele><time>2026-04-28T09:00:22.999Z</time></trkpt><trkpt lat="38.202300556491984" lon="15.924637150859253"><ele>1314.2</ele><time>2026-04-28T09:00:23.999Z</time></trkpt><trkpt lat="38.20232874503471" lon="15.924525101747275"><ele>1315.0</ele><time>2026-04-28T09:00:24.999Z</time></trkpt><trkpt lat="38.20238547866562" lon="15.924407221422419"><ele>1315.0</ele><time>2026-04-28T09:00:25.999Z</time></trkpt><trkpt lat="38.20249157525034" lon="15.924268921302858"><ele>1315.0</ele><time>2026-04-28T09:00:26.999Z</time></trkpt><trkpt lat="38.20259849964545" lon="15.924098362983202"><ele>1315.0</ele><time>2026-04-28T09:00:27.999Z</time></trkpt><trkpt lat="38.202655207585586" lon="15.923903422537032"><ele>1315.25</ele><time>2026-04-28T09:00:28.999Z</time></trkpt><trkpt lat="38.202674958889666" lon="15.923749049268569"><ele>1315.5</ele><time>2026-04-28T09:00:29.999Z</time></trkpt><trkpt lat="38.202699937138284" lon="15.923607308821577"><ele>1315.75</ele><time>2026-04-28T09:00:30.999Z</time></trkpt><trkpt lat="38.202696305206075" lon="15.923439320564652"><ele>1316.0</ele><time>2026-04-28T09:00:31.999Z</time></trkpt><trkpt lat="38.20264654541509" lon="15.92324155695466"><ele>1315.5</ele><time>2026-04-28T09:00:32.999Z</time></trkpt><trkpt lat="38.20261907874377" lon="15.923074373907975"><ele>1315.0</ele><time>2026-04-28T09:00:33.999Z</time></trkpt><trkpt lat="38.20260589072753" lon="15.922900737987051"><ele>1314.5</ele><time>2026-04-28T09:00:34.999Z</time></trkpt><trkpt lat="38.20262838639455" lon="15.92275026665895"><ele>1314.0</ele><time>2026-04-28T09:00:35.999Z</time></trkpt><trkpt lat="38.20268753591214" lon="15.922605965650122"><ele>1314.2</ele><time>2026-04-28T09:00:36.999Z</time></trkpt><trkpt lat="38.20277323400144" lon="15.922462050349317"><ele>1314.4</ele><time>2026-04-28T09:00:37.999Z</time></trkpt><trkpt lat="38.20283717592389" lon="15.922311991435057"><ele>1314.6</ele><time>2026-04-28T09:00:38.999Z</time></trkpt><trkpt lat="38.202863943344845" lon="15.922200385587326"><ele>1314.8</ele><time>2026-04-28T09:00:39.999Z</time></trkpt><trkpt lat="38.202853926344936" lon="15.922106710345432"><ele>1315.0</ele><time>2026-04-28T09:00:40.999Z</time></trkpt><trkpt lat="38.20280160585201" lon="15.922009793255704"><ele>1315.0</ele><time>2026-04-28T09:00:41.999Z</time></trkpt><trkpt lat="38.20272206708569" lon="15.921879356311054"><ele>1315.0</ele><time>2026-04-28T09:00:42.999Z</time></trkpt><trkpt lat="38.202605401728604" lon="15.921744581209644"><ele>1315.0</ele><time>2026-04-28T09:00:43.999Z</time></trkpt><trkpt lat="38.20248963426508" lon="15.921574711777449"><ele>1315.6666666666665</ele><time>2026-04-28T09:00:45Z</time></trkpt><trkpt lat="38.202359572806046" lon="15.921374992144894"><ele>1316.3333333333333</ele><time>2026-04-28T09:00:46Z</time></trkpt><trkpt lat="38.20223109223863" lon="15.921183005773509"><ele>1317.0</ele><time>2026-04-28T09:00:47Z</time></trkpt><trkpt lat="38.20210474854361" lon="15.921024080438876"><ele>1318.5</ele><time>2026-04-28T09:00:48Z</time></trkpt><trkpt lat="38.20197749862759" lon="15.920892987763537"><ele>1320.0</ele><time>2026-04-28T09:00:49Z</time></trkpt><trkpt lat="38.20185943553243" lon="15.920783805145039"><ele>1321.5</ele><time>2026-04-28T09:00:50Z</time></trkpt><trkpt lat="38.20176237038994" lon="15.920674529858974"><ele>1323.0</ele><time>2026-04-28T09:00:51Z</time></trkpt><trkpt lat="38.20169995417364" lon="15.920552852476797"><ele>1323.0</ele><time>2026-04-28T09:00:52Z</time></trkpt><trkpt lat="38.20165685590804" lon="15.920428150605806"><ele>1323.0</ele><time>2026-04-28T09:00:53Z</time></trkpt><trkpt lat="38.201652372009626" lon="15.920283435769896"><ele>1323.0</ele><time>2026-04-28T09:00:54Z</time></trkpt><trkpt lat="38.20163805669831" lon="15.920096462939002"><ele>1323.0</ele><time>2026-04-28T09:00:55Z</time></trkpt><trkpt lat="38.20163441398231" lon="15.919892475096344"><ele>1323.3333333333333</ele><time>2026-04-28T09:00:56Z</time></trkpt><trkpt lat="38.20164454732972" lon="15.919655985653385"><ele>1323.6666666666665</ele><time>2026-04-28T09:00:57Z</time></trkpt><trkpt lat="38.20160643119097" lon="15.919408302072636"><ele>1324.0</ele><time>2026-04-28T09:00:58Z</time></trkpt><trkpt lat="38.20156483245718" lon="15.919178400555111"><ele>1324.0</ele><time>2026-04-28T09:00:59Z</time></trkpt><trkpt lat="38.20152363783968" lon="15.918969447331419"><ele>1324.0</ele><time>2026-04-28T09:01:00Z</time></trkpt><trkpt lat="38.20147883597546" lon="15.918807596017553"><ele>1324.0</ele><time>2026-04-28T09:01:01Z</time></trkpt><trkpt lat="38.20145382071633" lon="15.918695099679772"><ele>1324.0</ele><time>2026-04-28T09:01:02Z</time></trkpt><trkpt lat="38.20144773571887" lon="15.9186144120059"><ele>1324.0</ele><time>2026-04-28T09:01:03Z</time></trkpt><trkpt lat="38.20150493536578" lon="15.918498073689332"><ele>1324.0</ele><time>2026-04-28T09:01:07Z</time></trkpt><trkpt lat="38.201575572397104" lon="15.918454312600117"><ele>1324.0</ele><time>2026-04-28T09:01:08Z</time></trkpt><trkpt lat="38.20167443703107" lon="15.918410431584947"><ele>1324.0</ele><time>2026-04-28T09:01:09Z</time></trkpt><trkpt lat="38.20180487687153" lon="15.918352249030669"><ele>1324.0</ele><time>2026-04-28T09:01:10Z</time></trkpt><trkpt lat="38.20195189799503" lon="15.918297760916628"><ele>1323.3333333333333</ele><time>2026-04-28T09:01:11Z</time></trkpt><trkpt lat="38.202126381040536" lon="15.918245915347903"><ele>1322.6666666666667</ele><time>2026-04-28T09:01:12Z</time></trkpt><trkpt lat="38.20231208857647" lon="15.918189442072487"><ele>1322.0</ele><time>2026-04-28T09:01:13Z</time></trkpt><trkpt lat="38.20250569705962" lon="15.91813806026597"><ele>1322.0</ele><time>2026-04-28T09:01:14Z</time></trkpt><trkpt lat="38.20269603113074" lon="15.918095984797578"><ele>1322.0</ele><time>2026-04-28T09:01:15Z</time></trkpt><trkpt lat="38.202879286686965" lon="15.918061630825632"><ele>1322.0</ele><time>2026-04-28T09:01:16Z</time></trkpt><trkpt lat="38.20307015273443" lon="15.918027464044712"><ele>1320.0</ele><time>2026-04-28T09:01:17Z</time></trkpt><trkpt lat="38.20325501864263" lon="15.917977788486787"><ele>1318.0</ele><time>2026-04-28T09:01:18Z</time></trkpt><trkpt lat="38.203435373361415" lon="15.917931721543079"><ele>1316.0</ele><time>2026-04-28T09:01:19Z</time></trkpt><trkpt lat="38.20360236240342" lon="15.917892683085109"><ele>1316.0</ele><time>2026-04-28T09:01:20Z</time></trkpt><trkpt lat="38.20377179004372" lon="15.917853521482558"><ele>1316.0</ele><time>2026-04-28T09:01:21Z</time></trkpt><trkpt lat="38.203939750886505" lon="15.917817918517768"><ele>1316.0</ele><time>2026-04-28T09:01:22Z</time></trkpt><trkpt lat="38.2040907746514" lon="15.917785195278048"><ele>1315.3333333333335</ele><time>2026-04-28T09:01:23Z</time></trkpt><trkpt lat="38.20419595799116" lon="15.91776374340995"><ele>1314.6666666666667</ele><time>2026-04-28T09:01:24Z</time></trkpt><trkpt lat="38.204267144656555" lon="15.917745548440582"><ele>1314.0</ele><time>2026-04-28T09:01:25Z</time></trkpt><trkpt lat="38.20432567018426" lon="15.91767416567259"><ele>1313.3333333333333</ele><time>2026-04-28T09:01:27Z</time></trkpt><trkpt lat="38.20439299114063" lon="15.917680909536042"><ele>1312.6666666666665</ele><time>2026-04-28T09:01:37Z</time></trkpt><trkpt lat="38.20430904505788" lon="15.917702125168042"><ele>1312.0</ele><time>2026-04-28T09:02:57Z</time></trkpt><trkpt lat="38.2042433691882" lon="15.917606835518892"><ele>1313.0</ele><time>2026-04-28T09:02:58Z</time></trkpt><trkpt lat="38.20416715767894" lon="15.917529788324675"><ele>1314.0</ele><time>2026-04-28T09:02:59Z</time></trkpt><trkpt lat="38.20408479226785" lon="15.917461866626876"><ele>1315.0</ele><time>2026-04-28T09:03:00Z</time></trkpt><trkpt lat="38.203998072225545" lon="15.91739791116844"><ele>1316.0</ele><time>2026-04-28T09:03:01Z</time></trkpt><trkpt lat="38.20391336295594" lon="15.917341571800904"><ele>1317.0</ele><time>2026-04-28T09:03:02Z</time></trkpt><trkpt lat="38.203812013557645" lon="15.91730827762204"><ele>1318.25</ele><time>2026-04-28T09:03:03Z</time></trkpt><trkpt lat="38.20369028756888" lon="15.9172974986963"><ele>1319.5</ele><time>2026-04-28T09:03:04Z</time></trkpt><trkpt lat="38.20355849864976" lon="15.917296078458293"><ele>1320.75</ele><time>2026-04-28T09:03:05Z</time></trkpt><trkpt lat="38.20341483061255" lon="15.917292997510708"><ele>1322.0</ele><time>2026-04-28T09:03:06Z</time></trkpt><trkpt lat="38.20328706410787" lon="15.917299332347232"><ele>1323.0</ele><time>2026-04-28T09:03:07Z</time></trkpt><trkpt lat="38.20315757941428" lon="15.917311496841595"><ele>1324.0</ele><time>2026-04-28T09:03:08Z</time></trkpt><trkpt lat="38.203039965585575" lon="15.917308666670845"><ele>1325.0</ele><time>2026-04-28T09:03:09Z</time></trkpt><trkpt lat="38.20293322553093" lon="15.917307220781899"><ele>1326.0</ele><time>2026-04-28T09:03:10Z</time></trkpt><trkpt lat="38.202829596582106" lon="15.917312940898993"><ele>1326.0</ele><time>2026-04-28T09:03:11Z</time></trkpt><trkpt lat="38.20272667774326" lon="15.917310391248389"><ele>1326.0</ele><time>2026-04-28T09:03:12Z</time></trkpt><trkpt lat="38.20259064468915" lon="15.917309521358668"><ele>1326.0</ele><time>2026-04-28T09:03:13Z</time></trkpt><trkpt lat="38.20242201880545" lon="15.917309457821458"><ele>1326.0</ele><time>2026-04-28T09:03:14Z</time></trkpt><trkpt lat="38.20223142190697" lon="15.917279643189188"><ele>1325.3333333333333</ele><time>2026-04-28T09:03:15Z</time></trkpt><trkpt lat="38.20205588831705" lon="15.917278646919643"><ele>1324.6666666666665</ele><time>2026-04-28T09:03:16Z</time></trkpt><trkpt lat="38.201902419024556" lon="15.917280994363228"><ele>1324.0</ele><time>2026-04-28T09:03:17Z</time></trkpt><trkpt lat="38.20176981315103" lon="15.9172816103929"><ele>1324.0</ele><time>2026-04-28T09:03:18Z</time></trkpt><trkpt lat="38.201634278851834" lon="15.917286806794909"><ele>1324.0</ele><time>2026-04-28T09:03:19Z</time></trkpt><trkpt lat="38.201516643523505" lon="15.917297297425348"><ele>1324.0</ele><time>2026-04-28T09:03:20Z</time></trkpt><trkpt lat="38.20140991326473" lon="15.917289572537149"><ele>1324.0</ele><time>2026-04-28T09:03:21Z</time></trkpt><trkpt lat="38.20128863736693" lon="15.917268170726944"><ele>1323.5</ele><time>2026-04-28T09:03:22Z</time></trkpt><trkpt lat="38.20117019500122" lon="15.917209992905704"><ele>1323.0</ele><time>2026-04-28T09:03:23Z</time></trkpt><trkpt lat="38.20107303817119" lon="15.917126942237873"><ele>1322.5</ele><time>2026-04-28T09:03:24Z</time></trkpt><trkpt lat="38.20098514985787" lon="15.917013566157586"><ele>1322.0</ele><time>2026-04-28T09:03:25Z</time></trkpt><trkpt lat="38.20090728662817" lon="15.916932271359144"><ele>1322.0</ele><time>2026-04-28T09:03:26Z</time></trkpt><trkpt lat="38.200828017874954" lon="15.916890114689362"><ele>1322.0</ele><time>2026-04-28T09:03:27Z</time></trkpt><trkpt lat="38.20073391433032" lon="15.91690805347456"><ele>1322.0</ele><time>2026-04-28T09:03:28Z</time></trkpt><trkpt lat="38.20064182176655" lon="15.916956094460494"><ele>1322.0</ele><time>2026-04-28T09:03:29Z</time></trkpt><trkpt lat="38.20054891016342" lon="15.917059612801712"><ele>1322.0</ele><time>2026-04-28T09:03:30Z</time></trkpt><trkpt lat="38.20047774183839" lon="15.917185408891795"><ele>1320.75</ele><time>2026-04-28T09:03:31Z</time></trkpt><trkpt lat="38.200414469592836" lon="15.917257760171683"><ele>1319.5</ele><time>2026-04-28T09:03:32Z</time></trkpt><trkpt lat="38.20025608257935" lon="15.917216669199826"><ele>1318.25</ele><time>2026-04-28T09:03:34Z</time></trkpt><trkpt lat="38.200160443790956" lon="15.9171208629115"><ele>1317.0</ele><time>2026-04-28T09:03:35Z</time></trkpt><trkpt lat="38.2000989065044" lon="15.916997675371189"><ele>1317.0</ele><time>2026-04-28T09:03:36Z</time></trkpt><trkpt lat="38.20005975551283" lon="15.916868268977998"><ele>1317.0</ele><time>2026-04-28T09:03:37Z</time></trkpt><trkpt lat="38.20001427826737" lon="15.916787916268973"><ele>1317.0</ele><time>2026-04-28T09:03:38Z</time></trkpt><trkpt lat="38.19997785591905" lon="15.916679765276504"><ele>1317.0</ele><time>2026-04-28T09:03:40Z</time></trkpt><trkpt lat="38.19998046238085" lon="15.916588077850205"><ele>1317.0</ele><time>2026-04-28T09:03:42Z</time></trkpt><trkpt lat="38.199958919936506" lon="15.916469098324345"><ele>1317.0</ele><time>2026-04-28T09:03:44Z</time></trkpt><trkpt lat="38.199944657002085" lon="15.916388694133227"><ele>1315.6666666666667</ele><time>2026-04-28T09:03:46Z</time></trkpt><trkpt lat="38.19990623431223" lon="15.916301714640817"><ele>1314.3333333333333</ele><time>2026-04-28T09:03:52Z</time></trkpt><trkpt lat="38.19997196988886" lon="15.916214315280087"><ele>1313.0</ele><time>2026-04-28T09:03:55Z</time></trkpt><trkpt lat="38.20003922563615" lon="15.916183063703949"><ele>1311.6666666666665</ele><time>2026-04-28T09:03:56Z</time></trkpt><trkpt lat="38.20010627604361" lon="15.916173774973927"><ele>1310.3333333333333</ele><time>2026-04-28T09:03:56.999Z</time></trkpt><trkpt lat="38.200204737540425" lon="15.916177641859054"><ele>1309.0</ele><time>2026-04-28T09:03:57.999Z</time></trkpt><trkpt lat="38.200320425140056" lon="15.916179388885777"><ele>1309.0</ele><time>2026-04-28T09:03:58.999Z</time></trkpt><trkpt lat="38.200404372479994" lon="15.916144553126578"><ele>1309.0</ele><time>2026-04-28T09:03:59.999Z</time></trkpt><trkpt lat="38.200465451804675" lon="15.916107688799467"><ele>1309.0</ele><time>2026-04-28T09:04:00.999Z</time></trkpt><trkpt lat="38.20057979193344" lon="15.91598947598944"><ele>1309.0</ele><time>2026-04-28T09:04:02.999Z</time></trkpt><trkpt lat="38.200644494437945" lon="15.915937384632997"><ele>1309.0</ele><time>2026-04-28T09:04:03.999Z</time></trkpt><trkpt lat="38.20072041484794" lon="15.915886462874695"><ele>1309.4</ele><time>2026-04-28T09:04:04.999Z</time></trkpt><trkpt lat="38.20082769233922" lon="15.915854253461104"><ele>1309.8000000000002</ele><time>2026-04-28T09:04:05.999Z</time></trkpt><trkpt lat="38.200916121728774" lon="15.915834500173121"><ele>1310.1999999999998</ele><time>2026-04-28T09:04:06.999Z</time></trkpt><trkpt lat="38.20100436408969" lon="15.91584798417827"><ele>1310.6</ele><time>2026-04-28T09:04:07.999Z</time></trkpt><trkpt lat="38.20109389950835" lon="15.915880306838796"><ele>1311.0</ele><time>2026-04-28T09:04:08.999Z</time></trkpt><trkpt lat="38.20118256574337" lon="15.915902223880932"><ele>1311.0</ele><time>2026-04-28T09:04:09.999Z</time></trkpt><trkpt lat="38.20124840348515" lon="15.91591580836464"><ele>1311.0</ele><time>2026-04-28T09:04:10.999Z</time></trkpt><trkpt lat="38.201327369270444" lon="15.915893664912296"><ele>1311.0</ele><time>2026-04-28T09:04:11.999Z</time></trkpt><trkpt lat="38.201389830368335" lon="15.915842471700453"><ele>1311.0</ele><time>2026-04-28T09:04:12.999Z</time></trkpt><trkpt lat="38.20143290766458" lon="15.915758965909989"><ele>1311.0</ele><time>2026-04-28T09:04:13.999Z</time></trkpt><trkpt lat="38.2014710660091" lon="15.915648668738212"><ele>1311.0</ele><time>2026-04-28T09:04:14.999Z</time></trkpt><trkpt lat="38.201493050695866" lon="15.915526821048918"><ele>1308.6</ele><time>2026-04-28T09:04:15.999Z</time></trkpt><trkpt lat="38.20150478571864" lon="15.915418110623119"><ele>1306.1999999999998</ele><time>2026-04-28T09:04:16.999Z</time></trkpt><trkpt lat="38.201505034448715" lon="15.915324752649207"><ele>1303.8000000000002</ele><time>2026-04-28T09:04:17.999Z</time></trkpt><trkpt lat="38.201562894372735" lon="15.915233046521902"><ele>1301.4</ele><time>2026-04-28T09:04:19.999Z</time></trkpt><trkpt lat="38.20167478657516" lon="15.915231318911824"><ele>1299.0</ele><time>2026-04-28T09:04:21.999Z</time></trkpt><trkpt lat="38.20177468821497" lon="15.915242132185126"><ele>1299.0</ele><time>2026-04-28T09:04:22.999Z</time></trkpt><trkpt lat="38.20186668068176" lon="15.915223121090648"><ele>1299.0</ele><time>2026-04-28T09:04:23.999Z</time></trkpt><trkpt lat="38.20194855356594" lon="15.915191452825459"><ele>1299.0</ele><time>2026-04-28T09:04:24.999Z</time></trkpt><trkpt lat="38.20204268509694" lon="15.915129264223896"><ele>1299.0</ele><time>2026-04-28T09:04:25.999Z</time></trkpt><trkpt lat="38.20212994982008" lon="15.915049747662682"><ele>1299.0</ele><time>2026-04-28T09:04:26.999Z</time></trkpt><trkpt lat="38.20221504633775" lon="15.914931111083101"><ele>1298.2</ele><time>2026-04-28T09:04:27.999Z</time></trkpt><trkpt lat="38.20229412495937" lon="15.914842237005152"><ele>1297.4</ele><time>2026-04-28T09:04:28.999Z</time></trkpt><trkpt lat="38.202387476328276" lon="15.91478176305565"><ele>1296.6</ele><time>2026-04-28T09:04:29.999Z</time></trkpt><trkpt lat="38.20249085946309" lon="15.914740201701493"><ele>1295.8</ele><time>2026-04-28T09:04:30.999Z</time></trkpt><trkpt lat="38.202591530947835" lon="15.914697441646156"><ele>1295.0</ele><time>2026-04-28T09:04:31.999Z</time></trkpt><trkpt lat="38.202667924597435" lon="15.914644121542958"><ele>1295.0</ele><time>2026-04-28T09:04:32.999Z</time></trkpt><trkpt lat="38.20273969731038" lon="15.9145700664096"><ele>1295.0</ele><time>2026-04-28T09:04:33.999Z</time></trkpt><trkpt lat="38.20282641089065" lon="15.914435805674472"><ele>1295.0</ele><time>2026-04-28T09:04:34.999Z</time></trkpt><trkpt lat="38.20291328476292" lon="15.914307404666"><ele>1295.0</ele><time>2026-04-28T09:04:35.999Z</time></trkpt><trkpt lat="38.20301775522719" lon="15.914207825302896"><ele>1292.75</ele><time>2026-04-28T09:04:36.999Z</time></trkpt><trkpt lat="38.203104181823164" lon="15.914112692803245"><ele>1290.5</ele><time>2026-04-28T09:04:37.999Z</time></trkpt><trkpt lat="38.20318818239273" lon="15.913999836264367"><ele>1288.25</ele><time>2026-04-28T09:04:38.999Z</time></trkpt><trkpt lat="38.20325935346998" lon="15.913888316264435"><ele>1286.0</ele><time>2026-04-28T09:04:39.999Z</time></trkpt><trkpt lat="38.20331620190794" lon="15.913765384810619"><ele>1286.0</ele><time>2026-04-28T09:04:40.999Z</time></trkpt><trkpt lat="38.20336587272031" lon="15.913682098688687"><ele>1286.0</ele><time>2026-04-28T09:04:41.999Z</time></trkpt><trkpt lat="38.203441588660475" lon="15.913631825594708"><ele>1286.0</ele><time>2026-04-28T09:04:42.999Z</time></trkpt><trkpt lat="38.20355722912554" lon="15.913592590378867"><ele>1286.0</ele><time>2026-04-28T09:04:43.999Z</time></trkpt><trkpt lat="38.20369618336297" lon="15.913536127365767"><ele>1286.0</ele><time>2026-04-28T09:04:44.999Z</time></trkpt><trkpt lat="38.203838857084826" lon="15.913473791304106"><ele>1286.0</ele><time>2026-04-28T09:04:45.999Z</time></trkpt><trkpt lat="38.20394609860239" lon="15.91342116448986"><ele>1286.0</ele><time>2026-04-28T09:04:46.999Z</time></trkpt><trkpt lat="38.20401830733658" lon="15.913380523059423"><ele>1286.0</ele><time>2026-04-28T09:04:47.999Z</time></trkpt><trkpt lat="38.204077090182416" lon="15.91328963916396"><ele>1286.0</ele><time>2026-04-28T09:04:49.999Z</time></trkpt><trkpt lat="38.20406282943076" lon="15.913208774405192"><ele>1286.0</ele><time>2026-04-28T09:04:50.999Z</time></trkpt><trkpt lat="38.20400403678558" lon="15.913108607679085"><ele>1288.0</ele><time>2026-04-28T09:04:51.999Z</time></trkpt><trkpt lat="38.20391769625574" lon="15.912990183907763"><ele>1290.0</ele><time>2026-04-28T09:04:52.999Z</time></trkpt><trkpt lat="38.203849553872104" lon="15.912867284884449"><ele>1292.0</ele><time>2026-04-28T09:04:53.999Z</time></trkpt><trkpt lat="38.20379833264344" lon="15.912766241984025"><ele>1294.0</ele><time>2026-04-28T09:04:54.999Z</time></trkpt><trkpt lat="38.20375909345579" lon="15.91268874033908"><ele>1296.0</ele><time>2026-04-28T09:04:55.999Z</time></trkpt><trkpt lat="38.20369144395265" lon="15.912644095996411"><ele>1296.0</ele><time>2026-04-28T09:04:57Z</time></trkpt><trkpt lat="38.203587036514776" lon="15.912634530330273"><ele>1296.0</ele><time>2026-04-28T09:04:58Z</time></trkpt><trkpt lat="38.20345604307035" lon="15.912629929108679"><ele>1296.0</ele><time>2026-04-28T09:04:59Z</time></trkpt><trkpt lat="38.203337288684736" lon="15.91261141910445"><ele>1296.0</ele><time>2026-04-28T09:05:00Z</time></trkpt><trkpt lat="38.20325623191967" lon="15.912575025033538"><ele>1296.0</ele><time>2026-04-28T09:05:01Z</time></trkpt><trkpt lat="38.20315711889232" lon="15.912523906958876"><ele>1292.6</ele><time>2026-04-28T09:05:03Z</time></trkpt><trkpt lat="38.203167069735834" lon="15.912406757210066"><ele>1289.1999999999998</ele><time>2026-04-28T09:05:05Z</time></trkpt><trkpt lat="38.203226206412026" lon="15.912347853702983"><ele>1285.8000000000002</ele><time>2026-04-28T09:05:06Z</time></trkpt><trkpt lat="38.20332100758085" lon="15.912316041112737"><ele>1282.4</ele><time>2026-04-28T09:05:07Z</time></trkpt><trkpt lat="38.20346019443473" lon="15.912298894909721"><ele>1279.0</ele><time>2026-04-28T09:05:08Z</time></trkpt><trkpt lat="38.20357357681724" lon="15.912278591598625"><ele>1279.0</ele><time>2026-04-28T09:05:09Z</time></trkpt><trkpt lat="38.20366614161888" lon="15.912247861722623"><ele>1279.0</ele><time>2026-04-28T09:05:10Z</time></trkpt><trkpt lat="38.203744570419765" lon="15.912164540538146"><ele>1279.0</ele><time>2026-04-28T09:05:12Z</time></trkpt><trkpt lat="38.20367618471082" lon="15.912043456492121"><ele>1279.0</ele><time>2026-04-28T09:05:14Z</time></trkpt><trkpt lat="38.20359724902508" lon="15.912046634082863"><ele>1279.0</ele><time>2026-04-28T09:05:15Z</time></trkpt><trkpt lat="38.203496321631576" lon="15.912098914212416"><ele>1279.0</ele><time>2026-04-28T09:05:16Z</time></trkpt><trkpt lat="38.203369701063075" lon="15.91214441269103"><ele>1279.0</ele><time>2026-04-28T09:05:17Z</time></trkpt><trkpt lat="38.203287591780864" lon="15.91213600385726"><ele>1279.0</ele><time>2026-04-28T09:05:18Z</time></trkpt><trkpt lat="38.20319279304569" lon="15.912078921147222"><ele>1279.0</ele><time>2026-04-28T09:05:19Z</time></trkpt><trkpt lat="38.20308544533516" lon="15.912049050743114"><ele>1279.0</ele><time>2026-04-28T09:05:20Z</time></trkpt><trkpt lat="38.202985713826855" lon="15.911995630915127"><ele>1278.6000000000001</ele><time>2026-04-28T09:05:21Z</time></trkpt><trkpt lat="38.20288746007065" lon="15.911941328134347"><ele>1278.2</ele><time>2026-04-28T09:05:22Z</time></trkpt><trkpt lat="38.20280475464178" lon="15.911875080786817"><ele>1277.8000000000002</ele><time>2026-04-28T09:05:23Z</time></trkpt><trkpt lat="38.202742571262036" lon="15.91178625849026"><ele>1277.4</ele><time>2026-04-28T09:05:24Z</time></trkpt><trkpt lat="38.20269409731446" lon="15.911707968727361"><ele>1277.0</ele><time>2026-04-28T09:05:25Z</time></trkpt><trkpt lat="38.202655617432974" lon="15.91162516640145"><ele>1277.0</ele><time>2026-04-28T09:05:26Z</time></trkpt><trkpt lat="38.20263205982236" lon="15.91152916159813"><ele>1277.0</ele><time>2026-04-28T09:05:27Z</time></trkpt><trkpt lat="38.20263645247636" lon="15.911414359492035"><ele>1277.0</ele><time>2026-04-28T09:05:28Z</time></trkpt><trkpt lat="38.202685885879596" lon="15.91128945410664"><ele>1277.0</ele><time>2026-04-28T09:05:30Z</time></trkpt><trkpt lat="38.20273519241723" lon="15.911237682889897"><ele>1277.0</ele><time>2026-04-28T09:05:31Z</time></trkpt><trkpt lat="38.202794589412754" lon="15.911202081485289"><ele>1277.0</ele><time>2026-04-28T09:05:32Z</time></trkpt><trkpt lat="38.20287985999919" lon="15.911186893777534"><ele>1277.0</ele><time>2026-04-28T09:05:33Z</time></trkpt><trkpt lat="38.20299271758491" lon="15.911227730473163"><ele>1277.0</ele><time>2026-04-28T09:05:34Z</time></trkpt><trkpt lat="38.203084057751575" lon="15.911263871380786"><ele>1277.0</ele><time>2026-04-28T09:05:35Z</time></trkpt><trkpt lat="38.20314845216596" lon="15.91126753339486"><ele>1277.0</ele><time>2026-04-28T09:05:36Z</time></trkpt><trkpt lat="38.20322102541057" lon="15.911252188099608"><ele>1277.0</ele><time>2026-04-28T09:05:37Z</time></trkpt><trkpt lat="38.203328849918364" lon="15.911140919563394"><ele>1276.0</ele><time>2026-04-28T09:05:39Z</time></trkpt><trkpt lat="38.20339109310407" lon="15.911036659397952"><ele>1275.0</ele><time>2026-04-28T09:05:40Z</time></trkpt><trkpt lat="38.20347293618694" lon="15.91094570339855"><ele>1274.0</ele><time>2026-04-28T09:05:41Z</time></trkpt><trkpt lat="38.203529736340585" lon="15.910892732837713"><ele>1273.0</ele><time>2026-04-28T09:05:42Z</time></trkpt><trkpt lat="38.203588373212774" lon="15.910762737359464"><ele>1272.0</ele><time>2026-04-28T09:05:44Z</time></trkpt><trkpt lat="38.20360748579948" lon="15.910676918963695"><ele>1272.0</ele><time>2026-04-28T09:05:45Z</time></trkpt><trkpt lat="38.203627215326044" lon="15.910580791641733"><ele>1272.0</ele><time>2026-04-28T09:05:46Z</time></trkpt><trkpt lat="38.203758161900176" lon="15.910579110025324"><ele>1272.0</ele><time>2026-04-28T09:05:49Z</time></trkpt><trkpt lat="38.20384932122207" lon="15.910623868194342"><ele>1272.0</ele><time>2026-04-28T09:05:50Z</time></trkpt><trkpt lat="38.20396784222444" lon="15.910706207381514"><ele>1272.0</ele><time>2026-04-28T09:05:51Z</time></trkpt><trkpt lat="38.204109068048304" lon="15.910780195170027"><ele>1270.75</ele><time>2026-04-28T09:05:52Z</time></trkpt><trkpt lat="38.20424789884344" lon="15.910831016065513"><ele>1269.5</ele><time>2026-04-28T09:05:53Z</time></trkpt><trkpt lat="38.20437281412978" lon="15.910893268235364"><ele>1268.25</ele><time>2026-04-28T09:05:54Z</time></trkpt><trkpt lat="38.20450125227984" lon="15.910990629005395"><ele>1267.0</ele><time>2026-04-28T09:05:55Z</time></trkpt><trkpt lat="38.204614828416155" lon="15.911084619268657"><ele>1263.2</ele><time>2026-04-28T09:05:56Z</time></trkpt><trkpt lat="38.204709696147376" lon="15.911117596236762"><ele>1259.4</ele><time>2026-04-28T09:05:56.999Z</time></trkpt><trkpt lat="38.20477512459181" lon="15.911136970007052"><ele>1255.6</ele><time>2026-04-28T09:05:57.999Z</time></trkpt><trkpt lat="38.204897703124736" lon="15.911180327410525"><ele>1251.8</ele><time>2026-04-28T09:05:59.999Z</time></trkpt><trkpt lat="38.20500150112113" lon="15.911165591806128"><ele>1248.0</ele><time>2026-04-28T09:06:00.999Z</time></trkpt><trkpt lat="38.20511202687937" lon="15.911157215356162"><ele>1248.0</ele><time>2026-04-28T09:06:01.999Z</time></trkpt><trkpt lat="38.20522768265297" lon="15.911195691335813"><ele>1248.0</ele><time>2026-04-28T09:06:02.999Z</time></trkpt><trkpt lat="38.205316253956674" lon="15.91124518801053"><ele>1248.0</ele><time>2026-04-28T09:06:03.999Z</time></trkpt><trkpt lat="38.205400025092" lon="15.911262536968698"><ele>1248.0</ele><time>2026-04-28T09:06:04.999Z</time></trkpt><trkpt lat="38.205509684626676" lon="15.911260105865873"><ele>1248.0</ele><time>2026-04-28T09:06:05.999Z</time></trkpt><trkpt lat="38.205622569956454" lon="15.91123409920375"><ele>1249.6666666666667</ele><time>2026-04-28T09:06:06.999Z</time></trkpt><trkpt lat="38.20572951342391" lon="15.911231475288865"><ele>1251.3333333333333</ele><time>2026-04-28T09:06:07.999Z</time></trkpt><trkpt lat="38.20581704005395" lon="15.911231980795746"><ele>1253.0</ele><time>2026-04-28T09:06:08.999Z</time></trkpt><trkpt lat="38.205896164743464" lon="15.911228643622383"><ele>1254.6666666666665</ele><time>2026-04-28T09:06:09.999Z</time></trkpt><trkpt lat="38.205975178004906" lon="15.91120310405791"><ele>1256.3333333333333</ele><time>2026-04-28T09:06:10.999Z</time></trkpt><trkpt lat="38.20604828135666" lon="15.911142419141598"><ele>1258.0</ele><time>2026-04-28T09:06:11.999Z</time></trkpt><trkpt lat="38.20611951838215" lon="15.911076427678875"><ele>1258.0</ele><time>2026-04-28T09:06:12.999Z</time></trkpt><trkpt lat="38.20622294092077" lon="15.910949061737412"><ele>1258.0</ele><time>2026-04-28T09:06:13.999Z</time></trkpt><trkpt lat="38.20630810620455" lon="15.91084661243627"><ele>1258.0</ele><time>2026-04-28T09:06:14.999Z</time></trkpt><trkpt lat="38.20637837456838" lon="15.910754168632927"><ele>1258.0</ele><time>2026-04-28T09:06:15.999Z</time></trkpt><trkpt lat="38.20642973128978" lon="15.910626437805133"><ele>1261.0</ele><time>2026-04-28T09:06:16.999Z</time></trkpt><trkpt lat="38.2064694576548" lon="15.910521593652355"><ele>1264.0</ele><time>2026-04-28T09:06:17.999Z</time></trkpt><trkpt lat="38.20651105430361" lon="15.91042516053921"><ele>1267.0</ele><time>2026-04-28T09:06:18.999Z</time></trkpt><trkpt lat="38.20656499531589" lon="15.910335761283775"><ele>1270.0</ele><time>2026-04-28T09:06:19.999Z</time></trkpt><trkpt lat="38.20664890894521" lon="15.910254987443755"><ele>1273.0</ele><time>2026-04-28T09:06:20.999Z</time></trkpt><trkpt lat="38.20673673401225" lon="15.910164606868928"><ele>1273.0</ele><time>2026-04-28T09:06:21.999Z</time></trkpt><trkpt lat="38.20679665610664" lon="15.910091147805273"><ele>1273.0</ele><time>2026-04-28T09:06:22.999Z</time></trkpt><trkpt lat="38.20683278332754" lon="15.909994271602619"><ele>1273.0</ele><time>2026-04-28T09:06:23.999Z</time></trkpt><trkpt lat="38.206846766178934" lon="15.909884115799752"><ele>1273.0</ele><time>2026-04-28T09:06:24.999Z</time></trkpt><trkpt lat="38.20683775383257" lon="15.909754556694457"><ele>1273.0</ele><time>2026-04-28T09:06:25.999Z</time></trkpt><trkpt lat="38.20682368169822" lon="15.909667677977833"><ele>1273.0</ele><time>2026-04-28T09:06:26.999Z</time></trkpt><trkpt lat="38.20678271256604" lon="15.90959075441885"><ele>1276.6666666666665</ele><time>2026-04-28T09:06:28.999Z</time></trkpt><trkpt lat="38.20668569542803" lon="15.909520668863758"><ele>1280.3333333333333</ele><time>2026-04-28T09:06:30.999Z</time></trkpt><trkpt lat="38.20661702577775" lon="15.909471465535452"><ele>1284.0</ele><time>2026-04-28T09:06:31.999Z</time></trkpt><trkpt lat="38.2065487719544" lon="15.909450204620939"><ele>1287.6666666666667</ele><time>2026-04-28T09:06:32.999Z</time></trkpt><trkpt lat="38.206465285676686" lon="15.909448568658854"><ele>1291.3333333333335</ele><time>2026-04-28T09:06:33.999Z</time></trkpt><trkpt lat="38.20637833114915" lon="15.909438083551613"><ele>1295.0</ele><time>2026-04-28T09:06:34.999Z</time></trkpt><trkpt lat="38.20629997525722" lon="15.909425024426453"><ele>1298.0</ele><time>2026-04-28T09:06:35.999Z</time></trkpt><trkpt lat="38.20623664031934" lon="15.909360036101145"><ele>1301.0</ele><time>2026-04-28T09:06:36.999Z</time></trkpt><trkpt lat="38.20617974922918" lon="15.909260080675924"><ele>1304.0</ele><time>2026-04-28T09:06:37.999Z</time></trkpt><trkpt lat="38.206144938382856" lon="15.909115510505183"><ele>1307.0</ele><time>2026-04-28T09:06:38.999Z</time></trkpt><trkpt lat="38.20612222217486" lon="15.908944854123616"><ele>1310.0</ele><time>2026-04-28T09:06:39.999Z</time></trkpt><trkpt lat="38.20611016353656" lon="15.908775013104709"><ele>1310.25</ele><time>2026-04-28T09:06:40.999Z</time></trkpt><trkpt lat="38.20610621415009" lon="15.908615659206832"><ele>1310.5</ele><time>2026-04-28T09:06:41.999Z</time></trkpt><trkpt lat="38.20610606858208" lon="15.90845149603665"><ele>1310.75</ele><time>2026-04-28T09:06:42.999Z</time></trkpt><trkpt lat="38.206084238339706" lon="15.908289341471493"><ele>1311.0</ele><time>2026-04-28T09:06:43.999Z</time></trkpt><trkpt lat="38.20605792510658" lon="15.908115282082887"><ele>1311.0</ele><time>2026-04-28T09:06:44.999Z</time></trkpt><trkpt lat="38.20601604510961" lon="15.907935741880609"><ele>1311.0</ele><time>2026-04-28T09:06:45.999Z</time></trkpt><trkpt lat="38.20597094917405" lon="15.9077605123099"><ele>1311.0</ele><time>2026-04-28T09:06:46.999Z</time></trkpt><trkpt lat="38.20592495762078" lon="15.907599039639816"><ele>1311.0</ele><time>2026-04-28T09:06:47.999Z</time></trkpt><trkpt lat="38.20588730192921" lon="15.907434957015376"><ele>1311.5</ele><time>2026-04-28T09:06:48.999Z</time></trkpt><trkpt lat="38.20584736886867" lon="15.90728407716498"><ele>1312.0</ele><time>2026-04-28T09:06:49.999Z</time></trkpt><trkpt lat="38.205793903092925" lon="15.907139610835314"><ele>1312.5</ele><time>2026-04-28T09:06:50.999Z</time></trkpt><trkpt lat="38.205714891717186" lon="15.906982574619624"><ele>1313.0</ele><time>2026-04-28T09:06:51.999Z</time></trkpt><trkpt lat="38.20561773999045" lon="15.906812670345674"><ele>1316.0</ele><time>2026-04-28T09:06:52.999Z</time></trkpt><trkpt lat="38.20553158783551" lon="15.906626390365947"><ele>1319.0</ele><time>2026-04-28T09:06:53.999Z</time></trkpt><trkpt lat="38.205451567500724" lon="15.906460132357676"><ele>1322.0</ele><time>2026-04-28T09:06:54.999Z</time></trkpt><trkpt lat="38.205382104655826" lon="15.90631685023809"><ele>1322.0</ele><time>2026-04-28T09:06:55.999Z</time></trkpt><trkpt lat="38.205310946141395" lon="15.906192229696261"><ele>1322.0</ele><time>2026-04-28T09:06:56.999Z</time></trkpt><trkpt lat="38.205246253257265" lon="15.906077710048622"><ele>1322.0</ele><time>2026-04-28T09:06:57.999Z</time></trkpt><trkpt lat="38.20518511017236" lon="15.905955865472789"><ele>1322.0</ele><time>2026-04-28T09:06:58.999Z</time></trkpt><trkpt lat="38.20512898370106" lon="15.90585951544819"><ele>1322.0</ele><time>2026-04-28T09:06:59.999Z</time></trkpt><trkpt lat="38.20506897915073" lon="15.905763370789703"><ele>1322.6</ele><time>2026-04-28T09:07:00.999Z</time></trkpt><trkpt lat="38.20500994532888" lon="15.905672194404753"><ele>1323.1999999999998</ele><time>2026-04-28T09:07:01.999Z</time></trkpt><trkpt lat="38.20492838516599" lon="15.905599152175263"><ele>1323.8</ele><time>2026-04-28T09:07:03Z</time></trkpt><trkpt lat="38.20482820018601" lon="15.905532701933572"><ele>1324.4</ele><time>2026-04-28T09:07:04Z</time></trkpt><trkpt lat="38.204707759660046" lon="15.905475686891515"><ele>1325.0</ele><time>2026-04-28T09:07:05Z</time></trkpt><trkpt lat="38.204567027207396" lon="15.905430620899725"><ele>1325.0</ele><time>2026-04-28T09:07:06Z</time></trkpt><trkpt lat="38.204446012455826" lon="15.905397369933977"><ele>1325.0</ele><time>2026-04-28T09:07:07Z</time></trkpt><trkpt lat="38.20433503017528" lon="15.905339938936336"><ele>1325.0</ele><time>2026-04-28T09:07:08Z</time></trkpt><trkpt lat="38.204217336788304" lon="15.905312822107783"><ele>1325.0</ele><time>2026-04-28T09:07:09Z</time></trkpt><trkpt lat="38.20411905320568" lon="15.905283943929712"><ele>1325.0</ele><time>2026-04-28T09:07:10Z</time></trkpt><trkpt lat="38.20402847582931" lon="15.905280634252014"><ele>1325.0</ele><time>2026-04-28T09:07:11Z</time></trkpt><trkpt lat="38.2039368461889" lon="15.905306424764875"><ele>1325.0</ele><time>2026-04-28T09:07:12Z</time></trkpt><trkpt lat="38.203835490608576" lon="15.905384650157352"><ele>1325.0</ele><time>2026-04-28T09:07:13Z</time></trkpt><trkpt lat="38.20375756133356" lon="15.905465872101942"><ele>1325.0</ele><time>2026-04-28T09:07:14Z</time></trkpt><trkpt lat="38.20368555799381" lon="15.905527634459865"><ele>1324.6666666666667</ele><time>2026-04-28T09:07:15Z</time></trkpt><trkpt lat="38.203581034059496" lon="15.90553400975601"><ele>1324.3333333333335</ele><time>2026-04-28T09:07:17Z</time></trkpt><trkpt lat="38.20352303577461" lon="15.905499624869263"><ele>1324.0</ele><time>2026-04-28T09:07:18Z</time></trkpt><trkpt lat="38.20349278537791" lon="15.905424261198467"><ele>1323.6666666666667</ele><time>2026-04-28T09:07:19Z</time></trkpt><trkpt lat="38.20347941357071" lon="15.905342729898866"><ele>1323.3333333333333</ele><time>2026-04-28T09:07:20Z</time></trkpt><trkpt lat="38.203497096872866" lon="15.905252286769342"><ele>1323.0</ele><time>2026-04-28T09:07:21Z</time></trkpt><trkpt lat="38.20353983587015" lon="15.905166120507666"><ele>1323.0</ele><time>2026-04-28T09:07:22Z</time></trkpt><trkpt lat="38.2035848876528" lon="15.905091011465608"><ele>1323.0</ele><time>2026-04-28T09:07:23Z</time></trkpt><trkpt lat="38.20359491551143" lon="15.905005216865696"><ele>1323.0</ele><time>2026-04-28T09:07:24Z</time></trkpt><trkpt lat="38.20355404916976" lon="15.904914233992896"><ele>1323.0</ele><time>2026-04-28T09:07:25Z</time></trkpt><trkpt lat="38.20348288270017" lon="15.904825702026349"><ele>1323.0</ele><time>2026-04-28T09:07:26Z</time></trkpt><trkpt lat="38.203421222970334" lon="15.90472181997519"><ele>1323.0</ele><time>2026-04-28T09:07:27Z</time></trkpt><trkpt lat="38.20336862444868" lon="15.904606304096854"><ele>1322.5</ele><time>2026-04-28T09:07:28Z</time></trkpt><trkpt lat="38.203338790908" lon="15.904522252919406"><ele>1322.0</ele><time>2026-04-28T09:07:29Z</time></trkpt><trkpt lat="38.203239149620586" lon="15.904382800794847"><ele>1321.5</ele><time>2026-04-28T09:07:31Z</time></trkpt><trkpt lat="38.20313300942938" lon="15.904344028889787"><ele>1321.0</ele><time>2026-04-28T09:07:32Z</time></trkpt><trkpt lat="38.203014288262764" lon="15.904309807407705"><ele>1322.4</ele><time>2026-04-28T09:07:33Z</time></trkpt><trkpt lat="38.20289461874779" lon="15.904335862614097"><ele>1323.8</ele><time>2026-04-28T09:07:34Z</time></trkpt><trkpt lat="38.20279099945129" lon="15.904326711555939"><ele>1325.2</ele><time>2026-04-28T09:07:35Z</time></trkpt><trkpt lat="38.20270343832522" lon="15.904306371652137"><ele>1326.6000000000001</ele><time>2026-04-28T09:07:36Z</time></trkpt><trkpt lat="38.20260102176686" lon="15.90425403307604"><ele>1328.0</ele><time>2026-04-28T09:07:37Z</time></trkpt><trkpt lat="38.20249858246861" lon="15.904173452343954"><ele>1328.0</ele><time>2026-04-28T09:07:38Z</time></trkpt><trkpt lat="38.2023968664013" lon="15.904065416991422"><ele>1328.0</ele><time>2026-04-28T09:07:39Z</time></trkpt><trkpt lat="38.20231286349828" lon="15.903970828492172"><ele>1328.0</ele><time>2026-04-28T09:07:40Z</time></trkpt><trkpt lat="38.202220033750805" lon="15.903933740831702"><ele>1328.0</ele><time>2026-04-28T09:07:41Z</time></trkpt><trkpt lat="38.202116930144136" lon="15.903921111688824"><ele>1328.0</ele><time>2026-04-28T09:07:42Z</time></trkpt><trkpt lat="38.20203004674896" lon="15.903928643395924"><ele>1329.4</ele><time>2026-04-28T09:07:43Z</time></trkpt><trkpt lat="38.20195498700741" lon="15.903964964110926"><ele>1330.8000000000002</ele><time>2026-04-28T09:07:45Z</time></trkpt><trkpt lat="38.201933796745784" lon="15.904168053190915"><ele>1332.2</ele><time>2026-04-28T09:07:47Z</time></trkpt><trkpt lat="38.201914182136996" lon="15.904295833545351"><ele>1333.6</ele><time>2026-04-28T09:07:48Z</time></trkpt><trkpt lat="38.20190073484046" lon="15.904377179632883"><ele>1335.0</ele><time>2026-04-28T09:07:49Z</time></trkpt><trkpt lat="38.20183969742166" lon="15.904401214072733"><ele>1335.75</ele><time>2026-04-28T09:07:51Z</time></trkpt><trkpt lat="38.20175384892493" lon="15.904390454396511"><ele>1336.5</ele><time>2026-04-28T09:07:52Z</time></trkpt><trkpt lat="38.20161580765499" lon="15.904357286640966"><ele>1337.25</ele><time>2026-04-28T09:07:53Z</time></trkpt><trkpt lat="38.201466434007386" lon="15.90433572921633"><ele>1338.0</ele><time>2026-04-28T09:07:54Z</time></trkpt><trkpt lat="38.20130664299097" lon="15.904320468495118"><ele>1339.0</ele><time>2026-04-28T09:07:55Z</time></trkpt><trkpt lat="38.20115967164261" lon="15.904310498538512"><ele>1340.0</ele><time>2026-04-28T09:07:56Z</time></trkpt><trkpt lat="38.20103641785029" lon="15.904280775582935"><ele>1341.0</ele><time>2026-04-28T09:07:57Z</time></trkpt><trkpt lat="38.200913534781" lon="15.904214159610959"><ele>1342.0</ele><time>2026-04-28T09:07:57.999Z</time></trkpt><trkpt lat="38.20077769326997" lon="15.904116276845164"><ele>1344.0</ele><time>2026-04-28T09:07:58.999Z</time></trkpt><trkpt lat="38.200644502605556" lon="15.90402716846626"><ele>1346.0</ele><time>2026-04-28T09:07:59.999Z</time></trkpt><trkpt lat="38.200529276090606" lon="15.903954908293453"><ele>1348.0</ele><time>2026-04-28T09:08:00.999Z</time></trkpt><trkpt lat="38.20043027609762" lon="15.903888583577253"><ele>1350.0</ele><time>2026-04-28T09:08:01.999Z</time></trkpt><trkpt lat="38.2003338453617" lon="15.903847774512244"><ele>1350.0</ele><time>2026-04-28T09:08:02.999Z</time></trkpt><trkpt lat="38.20024886603166" lon="15.903840726049417"><ele>1350.0</ele><time>2026-04-28T09:08:03.999Z</time></trkpt><trkpt lat="38.200152736675435" lon="15.90385782503956"><ele>1350.0</ele><time>2026-04-28T09:08:04.999Z</time></trkpt><trkpt lat="38.200036477576425" lon="15.903885066002832"><ele>1350.0</ele><time>2026-04-28T09:08:05.999Z</time></trkpt><trkpt lat="38.19992319570163" lon="15.903914871789294"><ele>1350.0</ele><time>2026-04-28T09:08:06.999Z</time></trkpt><trkpt lat="38.199853988298244" lon="15.9039416764113"><ele>1350.0</ele><time>2026-04-28T09:08:07.999Z</time></trkpt><trkpt lat="38.19982452122751" lon="15.904065622308593"><ele>1350.0</ele><time>2026-04-28T09:08:09.999Z</time></trkpt><trkpt lat="38.199839907716346" lon="15.904156344562773"><ele>1350.0</ele><time>2026-04-28T09:08:10.999Z</time></trkpt><trkpt lat="38.19978990736747" lon="15.904271853804726"><ele>1350.0</ele><time>2026-04-28T09:08:12.999Z</time></trkpt><trkpt lat="38.19971024231782" lon="15.904282902188143"><ele>1350.0</ele><time>2026-04-28T09:08:13.999Z</time></trkpt><trkpt lat="38.199622470607316" lon="15.904288916990646"><ele>1350.0</ele><time>2026-04-28T09:08:14.999Z</time></trkpt><trkpt lat="38.19947644728433" lon="15.90429823185831"><ele>1350.5</ele><time>2026-04-28T09:08:15.999Z</time></trkpt><trkpt lat="38.19935945191504" lon="15.904366349608246"><ele>1351.0</ele><time>2026-04-28T09:08:16.999Z</time></trkpt><trkpt lat="38.19925152857863" lon="15.90445776824705"><ele>1351.5</ele><time>2026-04-28T09:08:17.999Z</time></trkpt><trkpt lat="38.199116017628704" lon="15.904564484281627"><ele>1352.0</ele><time>2026-04-28T09:08:18.999Z</time></trkpt><trkpt lat="38.19898288116161" lon="15.904676673689963"><ele>1352.0</ele><time>2026-04-28T09:08:19.999Z</time></trkpt><trkpt lat="38.19885560143802" lon="15.904780705895984"><ele>1352.0</ele><time>2026-04-28T09:08:20.999Z</time></trkpt><trkpt lat="38.19874809864863" lon="15.904915820948357"><ele>1352.0</ele><time>2026-04-28T09:08:21.999Z</time></trkpt><trkpt lat="38.19863749896846" lon="15.90505850279109"><ele>1355.0</ele><time>2026-04-28T09:08:22.999Z</time></trkpt><trkpt lat="38.19852280234917" lon="15.905189735383702"><ele>1358.0</ele><time>2026-04-28T09:08:23.999Z</time></trkpt><trkpt lat="38.19842318346702" lon="15.90530292927439"><ele>1361.0</ele><time>2026-04-28T09:08:24.999Z</time></trkpt><trkpt lat="38.19831889153073" lon="15.905405751453534"><ele>1364.0</ele><time>2026-04-28T09:08:25.999Z</time></trkpt><trkpt lat="38.19821276209096" lon="15.905491177900828"><ele>1363.8000000000002</ele><time>2026-04-28T09:08:26.999Z</time></trkpt><trkpt lat="38.1981068919032" lon="15.905558729149313"><ele>1363.6000000000001</ele><time>2026-04-28T09:08:27.999Z</time></trkpt><trkpt lat="38.19801737652443" lon="15.9056184726246"><ele>1363.4</ele><time>2026-04-28T09:08:28.999Z</time></trkpt><trkpt lat="38.197939647335076" lon="15.90568518116098"><ele>1363.2</ele><time>2026-04-28T09:08:29.999Z</time></trkpt><trkpt lat="38.19785089415415" lon="15.905797254731292"><ele>1363.0</ele><time>2026-04-28T09:08:30.999Z</time></trkpt><trkpt lat="38.197766773436605" lon="15.905922273517847"><ele>1365.0</ele><time>2026-04-28T09:08:31.999Z</time></trkpt><trkpt lat="38.1976953530115" lon="15.906019497177345"><ele>1367.0</ele><time>2026-04-28T09:08:32.999Z</time></trkpt><trkpt lat="38.197624774409256" lon="15.906091174124674"><ele>1369.0</ele><time>2026-04-28T09:08:33.999Z</time></trkpt><trkpt lat="38.19756577013603" lon="15.90612609684913"><ele>1371.0</ele><time>2026-04-28T09:08:34.999Z</time></trkpt><trkpt lat="38.19746661083187" lon="15.906098393399366"><ele>1373.0</ele><time>2026-04-28T09:08:36.999Z</time></trkpt><trkpt lat="38.19736233881347" lon="15.906065143976567"><ele>1372.25</ele><time>2026-04-28T09:08:38.999Z</time></trkpt><trkpt lat="38.197274163410064" lon="15.906003772117474"><ele>1371.5</ele><time>2026-04-28T09:08:39.999Z</time></trkpt><trkpt lat="38.197150527604734" lon="15.905917677107624"><ele>1370.75</ele><time>2026-04-28T09:08:40.999Z</time></trkpt><trkpt lat="38.19700223698082" lon="15.905831853097467"><ele>1370.0</ele><time>2026-04-28T09:08:41.999Z</time></trkpt><trkpt lat="38.19686795033682" lon="15.905758341639988"><ele>1370.0</ele><time>2026-04-28T09:08:42.999Z</time></trkpt><trkpt lat="38.19675889084629" lon="15.905696279257132"><ele>1370.0</ele><time>2026-04-28T09:08:43.999Z</time></trkpt><trkpt lat="38.196673242448924" lon="15.905638972473032"><ele>1370.0</ele><time>2026-04-28T09:08:44.999Z</time></trkpt><trkpt lat="38.1965627406559" lon="15.905582511849612"><ele>1370.0</ele><time>2026-04-28T09:08:45.999Z</time></trkpt><trkpt lat="38.196440236010964" lon="15.90549627335255"><ele>1372.4</ele><time>2026-04-28T09:08:46.999Z</time></trkpt><trkpt lat="38.196340274499406" lon="15.905428314296564"><ele>1374.8</ele><time>2026-04-28T09:08:47.999Z</time></trkpt><trkpt lat="38.19623456164559" lon="15.905387648161193"><ele>1377.1999999999998</ele><time>2026-04-28T09:08:48.999Z</time></trkpt><trkpt lat="38.196136387308584" lon="15.90534908173416"><ele>1379.6</ele><time>2026-04-28T09:08:49.999Z</time></trkpt><trkpt lat="38.19603086951466" lon="15.905317162572135"><ele>1382.0</ele><time>2026-04-28T09:08:50.999Z</time></trkpt><trkpt lat="38.19595477343965" lon="15.90527784578715"><ele>1382.0</ele><time>2026-04-28T09:08:51.999Z</time></trkpt><trkpt lat="38.195905127299795" lon="15.905213414145068"><ele>1382.0</ele><time>2026-04-28T09:08:52.999Z</time></trkpt><trkpt lat="38.19587857615724" lon="15.905107167398292"><ele>1382.0</ele><time>2026-04-28T09:08:53.999Z</time></trkpt><trkpt lat="38.1958691758767" lon="15.904954445483638"><ele>1382.0</ele><time>2026-04-28T09:08:54.999Z</time></trkpt><trkpt lat="38.19586066050569" lon="15.904778174140722"><ele>1382.0</ele><time>2026-04-28T09:08:55.999Z</time></trkpt><trkpt lat="38.1958650653878" lon="15.904606214377988"><ele>1379.5</ele><time>2026-04-28T09:08:56.999Z</time></trkpt><trkpt lat="38.1958674166447" lon="15.904453353638159"><ele>1377.0</ele><time>2026-04-28T09:08:57.999Z</time></trkpt><trkpt lat="38.195780381479025" lon="15.90436259650625"><ele>1374.5</ele><time>2026-04-28T09:08:58.999Z</time></trkpt><trkpt lat="38.19574089405296" lon="15.90420456167516"><ele>1372.0</ele><time>2026-04-28T09:08:59.999Z</time></trkpt><trkpt lat="38.195743467216886" lon="15.904081238764926"><ele>1371.3999999999999</ele><time>2026-04-28T09:09:00.999Z</time></trkpt><trkpt lat="38.19571408301606" lon="15.903945475117906"><ele>1370.8</ele><time>2026-04-28T09:09:02.999Z</time></trkpt><trkpt lat="38.19571909026314" lon="15.903826482747396"><ele>1370.2</ele><time>2026-04-28T09:09:03.999Z</time></trkpt><trkpt lat="38.19574958651967" lon="15.903683146681526"><ele>1369.6</ele><time>2026-04-28T09:09:04.999Z</time></trkpt><trkpt lat="38.19577020682096" lon="15.903592022146555"><ele>1369.0</ele><time>2026-04-28T09:09:05.999Z</time></trkpt><trkpt lat="38.19575765177524" lon="15.903474400101222"><ele>1368.5</ele><time>2026-04-28T09:09:08Z</time></trkpt><trkpt lat="38.195634372258866" lon="15.90346210196263"><ele>1368.0</ele><time>2026-04-28T09:09:10Z</time></trkpt><trkpt lat="38.19552688089525" lon="15.903525908556032"><ele>1367.5</ele><time>2026-04-28T09:09:12Z</time></trkpt><trkpt lat="38.19541344148395" lon="15.903588426392668"><ele>1367.0</ele><time>2026-04-28T09:09:13Z</time></trkpt><trkpt lat="38.19528192286896" lon="15.903639613546428"><ele>1367.0</ele><time>2026-04-28T09:09:14Z</time></trkpt><trkpt lat="38.19513994602124" lon="15.903685855293832"><ele>1367.0</ele><time>2026-04-28T09:09:15Z</time></trkpt><trkpt lat="38.194999466800894" lon="15.903719090703852"><ele>1367.0</ele><time>2026-04-28T09:09:16Z</time></trkpt><trkpt lat="38.194888332041636" lon="15.903748621643762"><ele>1367.0</ele><time>2026-04-28T09:09:17Z</time></trkpt><trkpt lat="38.19480357633039" lon="15.903786336613097"><ele>1369.1999999999998</ele><time>2026-04-28T09:09:18Z</time></trkpt><trkpt lat="38.19472249120903" lon="15.90385838840327"><ele>1371.4</ele><time>2026-04-28T09:09:19Z</time></trkpt><trkpt lat="38.19466377570432" lon="15.903935512312636"><ele>1373.6</ele><time>2026-04-28T09:09:20Z</time></trkpt><trkpt lat="38.19459922781193" lon="15.903935905454091"><ele>1375.8000000000002</ele><time>2026-04-28T09:09:22Z</time></trkpt><trkpt lat="38.19455505498585" lon="15.903764461881078"><ele>1378.0</ele><time>2026-04-28T09:09:24Z</time></trkpt><trkpt lat="38.19453544610411" lon="15.903642514313436"><ele>1378.0</ele><time>2026-04-28T09:09:25Z</time></trkpt><trkpt lat="38.1945309269169" lon="15.903508437405865"><ele>1378.0</ele><time>2026-04-28T09:09:26Z</time></trkpt><trkpt lat="38.194554627187394" lon="15.903387791257197"><ele>1378.0</ele><time>2026-04-28T09:09:27Z</time></trkpt><trkpt lat="38.194589319178945" lon="15.903228050741419"><ele>1378.0</ele><time>2026-04-28T09:09:28Z</time></trkpt><trkpt lat="38.194643709142426" lon="15.903071912693088"><ele>1378.6000000000001</ele><time>2026-04-28T09:09:29Z</time></trkpt><trkpt lat="38.19469429489366" lon="15.902919040559267"><ele>1379.2</ele><time>2026-04-28T09:09:30Z</time></trkpt><trkpt lat="38.19473645983388" lon="15.90276041570713"><ele>1379.8</ele><time>2026-04-28T09:09:31Z</time></trkpt><trkpt lat="38.194762351497474" lon="15.902628273507485"><ele>1380.4</ele><time>2026-04-28T09:09:32Z</time></trkpt><trkpt lat="38.194757074370955" lon="15.902528762747481"><ele>1381.0</ele><time>2026-04-28T09:09:33Z</time></trkpt><trkpt lat="38.1947191671904" lon="15.902408499150907"><ele>1381.0</ele><time>2026-04-28T09:09:34Z</time></trkpt><trkpt lat="38.19466348742667" lon="15.902271929009395"><ele>1381.0</ele><time>2026-04-28T09:09:35Z</time></trkpt><trkpt lat="38.194613505112514" lon="15.90214273977722"><ele>1381.0</ele><time>2026-04-28T09:09:36Z</time></trkpt><trkpt lat="38.194560146532204" lon="15.901976535129993"><ele>1381.0</ele><time>2026-04-28T09:09:37Z</time></trkpt><trkpt lat="38.19451328510438" lon="15.901808023829876"><ele>1379.5</ele><time>2026-04-28T09:09:38Z</time></trkpt><trkpt lat="38.19446168287952" lon="15.901648343669207"><ele>1378.0</ele><time>2026-04-28T09:09:39Z</time></trkpt><trkpt lat="38.19438961268945" lon="15.901509577872945"><ele>1376.5</ele><time>2026-04-28T09:09:40Z</time></trkpt><trkpt lat="38.19432984111652" lon="15.90137262466173"><ele>1375.0</ele><time>2026-04-28T09:09:41Z</time></trkpt><trkpt lat="38.19426823348242" lon="15.901246767255286"><ele>1375.0</ele><time>2026-04-28T09:09:42Z</time></trkpt><trkpt lat="38.194191322567086" lon="15.901142784163953"><ele>1375.0</ele><time>2026-04-28T09:09:43Z</time></trkpt><trkpt lat="38.19409941567619" lon="15.901040181230945"><ele>1375.0</ele><time>2026-04-28T09:09:44Z</time></trkpt><trkpt lat="38.19401476661284" lon="15.900951893324516"><ele>1375.0</ele><time>2026-04-28T09:09:45Z</time></trkpt><trkpt lat="38.19395727134304" lon="15.900862464931446"><ele>1375.0</ele><time>2026-04-28T09:09:46Z</time></trkpt><trkpt lat="38.1939017706057" lon="15.90073427451524"><ele>1374.6</ele><time>2026-04-28T09:09:47Z</time></trkpt><trkpt lat="38.19384087739573" lon="15.900582097815407"><ele>1374.2</ele><time>2026-04-28T09:09:48Z</time></trkpt><trkpt lat="38.19378245478916" lon="15.900437908086516"><ele>1373.8000000000002</ele><time>2026-04-28T09:09:49Z</time></trkpt><trkpt lat="38.193727149499495" lon="15.900368342810888"><ele>1373.4</ele><time>2026-04-28T09:09:50Z</time></trkpt><trkpt lat="38.193651237876246" lon="15.90031223573855"><ele>1373.0</ele><time>2026-04-28T09:09:51Z</time></trkpt><trkpt lat="38.193547069894166" lon="15.900268651777077"><ele>1373.0</ele><time>2026-04-28T09:09:52Z</time></trkpt><trkpt lat="38.19340835037678" lon="15.900261211705438"><ele>1373.0</ele><time>2026-04-28T09:09:53Z</time></trkpt><trkpt lat="38.193283667759836" lon="15.900254812874172"><ele>1373.0</ele><time>2026-04-28T09:09:54Z</time></trkpt><trkpt lat="38.19319735348157" lon="15.900282223241875"><ele>1373.0</ele><time>2026-04-28T09:09:55Z</time></trkpt><trkpt lat="38.193084998371965" lon="15.900317289497139"><ele>1374.0</ele><time>2026-04-28T09:09:57Z</time></trkpt><trkpt lat="38.193061521524314" lon="15.90019743584517"><ele>1375.0</ele><time>2026-04-28T09:09:59Z</time></trkpt><trkpt lat="38.193071488608226" lon="15.900096418022748"><ele>1376.0</ele><time>2026-04-28T09:10:00Z</time></trkpt><trkpt lat="38.19311177506858" lon="15.899991488834727"><ele>1377.0</ele><time>2026-04-28T09:10:01Z</time></trkpt><trkpt lat="38.193177537154945" lon="15.899853926346982"><ele>1378.0</ele><time>2026-04-28T09:10:02Z</time></trkpt><trkpt lat="38.19323677110046" lon="15.899723684744984"><ele>1376.4</ele><time>2026-04-28T09:10:02.999Z</time></trkpt><trkpt lat="38.19328375739775" lon="15.899600827403571"><ele>1374.8000000000002</ele><time>2026-04-28T09:10:03.999Z</time></trkpt><trkpt lat="38.19335755943768" lon="15.899489030438932"><ele>1373.2</ele><time>2026-04-28T09:10:04.999Z</time></trkpt><trkpt lat="38.19343218926695" lon="15.899400531742161"><ele>1371.6</ele><time>2026-04-28T09:10:05.999Z</time></trkpt><trkpt lat="38.193499707706536" lon="15.89929970770183"><ele>1370.0</ele><time>2026-04-28T09:10:06.999Z</time></trkpt><trkpt lat="38.193551224915524" lon="15.899144213906833"><ele>1370.0</ele><time>2026-04-28T09:10:07.999Z</time></trkpt><trkpt lat="38.193595222977436" lon="15.89897534385648"><ele>1370.0</ele><time>2026-04-28T09:10:08.999Z</time></trkpt><trkpt lat="38.19366560488777" lon="15.89882297496447"><ele>1370.0</ele><time>2026-04-28T09:10:09.999Z</time></trkpt><trkpt lat="38.19370420627856" lon="15.898687654868066"><ele>1370.0</ele><time>2026-04-28T09:10:10.999Z</time></trkpt><trkpt lat="38.19374591648964" lon="15.89855504958456"><ele>1370.0</ele><time>2026-04-28T09:10:11.999Z</time></trkpt><trkpt lat="38.19378946539522" lon="15.898411158761556"><ele>1370.0</ele><time>2026-04-28T09:10:12.999Z</time></trkpt><trkpt lat="38.193829646802016" lon="15.898273743996105"><ele>1370.0</ele><time>2026-04-28T09:10:13.999Z</time></trkpt><trkpt lat="38.19386326034074" lon="15.898156877541291"><ele>1370.0</ele><time>2026-04-28T09:10:14.999Z</time></trkpt><trkpt lat="38.19390374599908" lon="15.898021356527183"><ele>1370.0</ele><time>2026-04-28T09:10:15.999Z</time></trkpt><trkpt lat="38.19393068659532" lon="15.897918460343561"><ele>1370.0</ele><time>2026-04-28T09:10:16.999Z</time></trkpt><trkpt lat="38.19397602798879" lon="15.897820067631637"><ele>1370.0</ele><time>2026-04-28T09:10:17.999Z</time></trkpt><trkpt lat="38.19405306486719" lon="15.89775705372813"><ele>1370.0</ele><time>2026-04-28T09:10:18.999Z</time></trkpt><trkpt lat="38.19414632814337" lon="15.897731544665724"><ele>1370.0</ele><time>2026-04-28T09:10:19.999Z</time></trkpt><trkpt lat="38.19423858043846" lon="15.897707523255898"><ele>1370.0</ele><time>2026-04-28T09:10:20.999Z</time></trkpt><trkpt lat="38.194382854241155" lon="15.89762724513795"><ele>1368.3333333333335</ele><time>2026-04-28T09:10:21.999Z</time></trkpt><trkpt lat="38.19452184968126" lon="15.897580799392088"><ele>1366.6666666666667</ele><time>2026-04-28T09:10:22.999Z</time></trkpt><trkpt lat="38.1946861377291" lon="15.897528089199431"><ele>1365.0</ele><time>2026-04-28T09:10:23.999Z</time></trkpt><trkpt lat="38.19485337822688" lon="15.897480343818357"><ele>1361.3333333333333</ele><time>2026-04-28T09:10:24.999Z</time></trkpt><trkpt lat="38.195020644404586" lon="15.897440654526884"><ele>1357.6666666666665</ele><time>2026-04-28T09:10:25.999Z</time></trkpt><trkpt lat="38.1951889895695" lon="15.897404272985337"><ele>1354.0</ele><time>2026-04-28T09:10:26.999Z</time></trkpt><trkpt lat="38.19534699143365" lon="15.897354361517374"><ele>1354.0</ele><time>2026-04-28T09:10:27.999Z</time></trkpt><trkpt lat="38.19551300123265" lon="15.897323058040474"><ele>1354.0</ele><time>2026-04-28T09:10:28.999Z</time></trkpt><trkpt lat="38.19567529666488" lon="15.897282531976952"><ele>1354.0</ele><time>2026-04-28T09:10:29.999Z</time></trkpt><trkpt lat="38.195826606637425" lon="15.897244814025568"><ele>1353.75</ele><time>2026-04-28T09:10:30.999Z</time></trkpt><trkpt lat="38.195966033585734" lon="15.897207852478896"><ele>1353.5</ele><time>2026-04-28T09:10:31.999Z</time></trkpt><trkpt lat="38.19609179488175" lon="15.897174678285849"><ele>1353.25</ele><time>2026-04-28T09:10:32.999Z</time></trkpt><trkpt lat="38.196206747166535" lon="15.897145362913028"><ele>1353.0</ele><time>2026-04-28T09:10:33.999Z</time></trkpt><trkpt lat="38.19631225959242" lon="15.89711237025116"><ele>1353.0</ele><time>2026-04-28T09:10:34.999Z</time></trkpt><trkpt lat="38.19640103246022" lon="15.897057619750052"><ele>1353.0</ele><time>2026-04-28T09:10:35.999Z</time></trkpt><trkpt lat="38.19648365538378" lon="15.896988509987938"><ele>1353.0</ele><time>2026-04-28T09:10:36.999Z</time></trkpt><trkpt lat="38.196544542863634" lon="15.896891038616472"><ele>1353.0</ele><time>2026-04-28T09:10:37.999Z</time></trkpt><trkpt lat="38.196581748703856" lon="15.896816812029101"><ele>1353.0</ele><time>2026-04-28T09:10:38.999Z</time></trkpt><trkpt lat="38.19660372694714" lon="15.896690367220861"><ele>1352.6000000000001</ele><time>2026-04-28T09:10:39.999Z</time></trkpt><trkpt lat="38.19658613629622" lon="15.896532629746833"><ele>1352.2</ele><time>2026-04-28T09:10:40.999Z</time></trkpt><trkpt lat="38.196588734178334" lon="15.896390240002926"><ele>1351.8</ele><time>2026-04-28T09:10:41.999Z</time></trkpt><trkpt lat="38.196631157191966" lon="15.896284615429302"><ele>1351.4</ele><time>2026-04-28T09:10:42.999Z</time></trkpt><trkpt lat="38.196718200173756" lon="15.896227560187937"><ele>1351.0</ele><time>2026-04-28T09:10:43.999Z</time></trkpt><trkpt lat="38.19684589853415" lon="15.896156950396058"><ele>1351.0</ele><time>2026-04-28T09:10:44.999Z</time></trkpt><trkpt lat="38.19698427022375" lon="15.896087353232398"><ele>1351.0</ele><time>2026-04-28T09:10:45.999Z</time></trkpt><trkpt lat="38.197117318749655" lon="15.896036824297115"><ele>1351.0</ele><time>2026-04-28T09:10:46.999Z</time></trkpt><trkpt lat="38.19725347647338" lon="15.896022144274914"><ele>1351.0</ele><time>2026-04-28T09:10:47.999Z</time></trkpt><trkpt lat="38.19737849151146" lon="15.896033228333625"><ele>1348.3333333333333</ele><time>2026-04-28T09:10:48.999Z</time></trkpt><trkpt lat="38.19751933951084" lon="15.896055829377723"><ele>1345.6666666666667</ele><time>2026-04-28T09:10:49.999Z</time></trkpt><trkpt lat="38.197671575372866" lon="15.896066669273178"><ele>1343.0</ele><time>2026-04-28T09:10:50.999Z</time></trkpt><trkpt lat="38.197856785850824" lon="15.896161636161597"><ele>1343.0</ele><time>2026-04-28T09:10:51.999Z</time></trkpt><trkpt lat="38.19802500454227" lon="15.896193299899725"><ele>1343.0</ele><time>2026-04-28T09:10:52.999Z</time></trkpt><trkpt lat="38.19816862504559" lon="15.896256976718924"><ele>1343.0</ele><time>2026-04-28T09:10:53.999Z</time></trkpt><trkpt lat="38.198342037835744" lon="15.896328681238211"><ele>1340.3333333333335</ele><time>2026-04-28T09:10:54.999Z</time></trkpt><trkpt lat="38.1984893469373" lon="15.89637803308699"><ele>1337.6666666666667</ele><time>2026-04-28T09:10:55.999Z</time></trkpt><trkpt lat="38.198661272103244" lon="15.896443919376798"><ele>1335.0</ele><time>2026-04-28T09:10:56.999Z</time></trkpt><trkpt lat="38.198812496198045" lon="15.896499987333694"><ele>1335.0</ele><time>2026-04-28T09:10:57.999Z</time></trkpt><trkpt lat="38.198914213668054" lon="15.896544372773981"><ele>1335.0</ele><time>2026-04-28T09:10:58.999Z</time></trkpt><trkpt lat="38.199029634116584" lon="15.89658934553677"><ele>1335.0</ele><time>2026-04-28T09:10:59.999Z</time></trkpt><trkpt lat="38.199132802206755" lon="15.89657883617141"><ele>1335.0</ele><time>2026-04-28T09:11:00.999Z</time></trkpt><trkpt lat="38.199239190169244" lon="15.896580609923793"><ele>1335.0</ele><time>2026-04-28T09:11:01.999Z</time></trkpt><trkpt lat="38.19933357705651" lon="15.896534881994372"><ele>1333.3333333333333</ele><time>2026-04-28T09:11:02.999Z</time></trkpt><trkpt lat="38.19945270762977" lon="15.896430036626157"><ele>1331.6666666666665</ele><time>2026-04-28T09:11:03.999Z</time></trkpt><trkpt lat="38.199574794957286" lon="15.896298201414442"><ele>1330.0</ele><time>2026-04-28T09:11:04.999Z</time></trkpt><trkpt lat="38.199716847894194" lon="15.896150580216252"><ele>1328.3333333333333</ele><time>2026-04-28T09:11:05.999Z</time></trkpt><trkpt lat="38.19986557231716" lon="15.896015396894704"><ele>1326.6666666666667</ele><time>2026-04-28T09:11:06.999Z</time></trkpt><trkpt lat="38.199993917270774" lon="15.895892814574585"><ele>1325.0</ele><time>2026-04-28T09:11:07.999Z</time></trkpt><trkpt lat="38.20009329276916" lon="15.895772185240236"><ele>1325.0</ele><time>2026-04-28T09:11:08.999Z</time></trkpt><trkpt lat="38.20019421695819" lon="15.895652040118616"><ele>1325.0</ele><time>2026-04-28T09:11:09.999Z</time></trkpt><trkpt lat="38.200282670327205" lon="15.895530574055789"><ele>1325.0</ele><time>2026-04-28T09:11:10.999Z</time></trkpt><trkpt lat="38.200360032014224" lon="15.895368429554159"><ele>1325.0</ele><time>2026-04-28T09:11:11.999Z</time></trkpt><trkpt lat="38.200427115871236" lon="15.895180757559835"><ele>1325.5</ele><time>2026-04-28T09:11:13Z</time></trkpt><trkpt lat="38.200516479451224" lon="15.894973590446277"><ele>1326.0</ele><time>2026-04-28T09:11:14Z</time></trkpt><trkpt lat="38.20059728264216" lon="15.89482722021839"><ele>1326.5</ele><time>2026-04-28T09:11:15Z</time></trkpt><trkpt lat="38.20064651377523" lon="15.894700892244618"><ele>1327.0</ele><time>2026-04-28T09:11:16Z</time></trkpt><trkpt lat="38.20070416321214" lon="15.894600650019578"><ele>1324.25</ele><time>2026-04-28T09:11:17Z</time></trkpt><trkpt lat="38.200770959935475" lon="15.894501087237213"><ele>1321.5</ele><time>2026-04-28T09:11:18Z</time></trkpt><trkpt lat="38.200869570383624" lon="15.894413728436588"><ele>1318.75</ele><time>2026-04-28T09:11:19Z</time></trkpt><trkpt lat="38.200980020297095" lon="15.894360036782293"><ele>1316.0</ele><time>2026-04-28T09:11:20Z</time></trkpt><trkpt lat="38.201091469482556" lon="15.894352234989315"><ele>1316.0</ele><time>2026-04-28T09:11:21Z</time></trkpt><trkpt lat="38.20120848123076" lon="15.894393542587498"><ele>1316.0</ele><time>2026-04-28T09:11:22Z</time></trkpt><trkpt lat="38.201312197455216" lon="15.894448374402753"><ele>1316.0</ele><time>2026-04-28T09:11:23Z</time></trkpt><trkpt lat="38.201440171325785" lon="15.8944411550821"><ele>1316.0</ele><time>2026-04-28T09:11:24Z</time></trkpt><trkpt lat="38.201558623652225" lon="15.894383727970862"><ele>1313.25</ele><time>2026-04-28T09:11:25Z</time></trkpt><trkpt lat="38.20168738190188" lon="15.894298410242712"><ele>1310.5</ele><time>2026-04-28T09:11:26Z</time></trkpt><trkpt lat="38.20180411087208" lon="15.8942205152837"><ele>1307.75</ele><time>2026-04-28T09:11:27Z</time></trkpt><trkpt lat="38.20190761003156" lon="15.894153671326894"><ele>1305.0</ele><time>2026-04-28T09:11:28Z</time></trkpt><trkpt lat="38.20201061691085" lon="15.894083698468474"><ele>1305.0</ele><time>2026-04-28T09:11:29Z</time></trkpt><trkpt lat="38.202116014465545" lon="15.894006782747224"><ele>1305.0</ele><time>2026-04-28T09:11:30Z</time></trkpt><trkpt lat="38.20220935260572" lon="15.893910284177997"><ele>1305.0</ele><time>2026-04-28T09:11:31Z</time></trkpt><trkpt lat="38.202303821707616" lon="15.893766397478922"><ele>1305.0</ele><time>2026-04-28T09:11:32Z</time></trkpt><trkpt lat="38.20241384769891" lon="15.893624663132314"><ele>1303.25</ele><time>2026-04-28T09:11:33Z</time></trkpt><trkpt lat="38.20250297546143" lon="15.893492590369453"><ele>1301.5</ele><time>2026-04-28T09:11:34Z</time></trkpt><trkpt lat="38.202585144912106" lon="15.89338675734015"><ele>1299.75</ele><time>2026-04-28T09:11:35Z</time></trkpt><trkpt lat="38.20266036801508" lon="15.893302074851066"><ele>1298.0</ele><time>2026-04-28T09:11:36Z</time></trkpt><trkpt lat="38.20275441237487" lon="15.893225420643237"><ele>1297.0</ele><time>2026-04-28T09:11:37Z</time></trkpt><trkpt lat="38.202875769715526" lon="15.893152896694748"><ele>1296.0</ele><time>2026-04-28T09:11:38Z</time></trkpt><trkpt lat="38.20298602517505" lon="15.893098150562976"><ele>1295.0</ele><time>2026-04-28T09:11:39Z</time></trkpt><trkpt lat="38.203064559666636" lon="15.893057268777781"><ele>1294.0</ele><time>2026-04-28T09:11:40Z</time></trkpt><trkpt lat="38.20314446057306" lon="15.893071489687197"><ele>1293.0</ele><time>2026-04-28T09:11:41Z</time></trkpt><trkpt lat="38.203269815471295" lon="15.893108156478368"><ele>1292.1666666666667</ele><time>2026-04-28T09:11:42Z</time></trkpt><trkpt lat="38.203385474780355" lon="15.8931173350216"><ele>1291.3333333333333</ele><time>2026-04-28T09:11:43Z</time></trkpt><trkpt lat="38.20345134264242" lon="15.893099904728734"><ele>1290.5</ele><time>2026-04-28T09:11:44Z</time></trkpt><trkpt lat="38.203507721005955" lon="15.892989489491"><ele>1289.6666666666665</ele><time>2026-04-28T09:11:46Z</time></trkpt><trkpt lat="38.2034797320747" lon="15.892916036436814"><ele>1288.8333333333333</ele><time>2026-04-28T09:11:47Z</time></trkpt><trkpt lat="38.20342071594935" lon="15.892850353096941"><ele>1288.0</ele><time>2026-04-28T09:11:48Z</time></trkpt><trkpt lat="38.203487338584196" lon="15.892853695921284"><ele>1288.0</ele><time>2026-04-28T09:11:49Z</time></trkpt><trkpt lat="38.203396865421794" lon="15.892797055627309"><ele>1288.0</ele><time>2026-04-28T09:11:50Z</time></trkpt><trkpt lat="38.203343796489285" lon="15.892714271570393"><ele>1288.0</ele><time>2026-04-28T09:11:51Z</time></trkpt><trkpt lat="38.20334290994251" lon="15.892578797605626"><ele>1288.0</ele><time>2026-04-28T09:11:53Z</time></trkpt><trkpt lat="38.20345277403322" lon="15.892541881854795"><ele>1288.0</ele><time>2026-04-28T09:11:55Z</time></trkpt><trkpt lat="38.2035411760141" lon="15.892550183456596"><ele>1288.0</ele><time>2026-04-28T09:11:56Z</time></trkpt><trkpt lat="38.20370139648372" lon="15.892611177424238"><ele>1288.0</ele><time>2026-04-28T09:11:57Z</time></trkpt><trkpt lat="38.20383913579438" lon="15.89270027504439"><ele>1288.0</ele><time>2026-04-28T09:11:58Z</time></trkpt><trkpt lat="38.20395064528432" lon="15.892757191163629"><ele>1288.0</ele><time>2026-04-28T09:11:59Z</time></trkpt><trkpt lat="38.20404419586157" lon="15.89281761205481"><ele>1285.6666666666665</ele><time>2026-04-28T09:12:00Z</time></trkpt><trkpt lat="38.204115316952596" lon="15.89282646195895"><ele>1283.3333333333333</ele><time>2026-04-28T09:12:01Z</time></trkpt><trkpt lat="38.20419852857408" lon="15.892766895350862"><ele>1281.0</ele><time>2026-04-28T09:12:03Z</time></trkpt><trkpt lat="38.20422600487761" lon="15.892673354188034"><ele>1278.6666666666667</ele><time>2026-04-28T09:12:04Z</time></trkpt><trkpt lat="38.20423708906788" lon="15.892575207750722"><ele>1276.3333333333335</ele><time>2026-04-28T09:12:04.999Z</time></trkpt><trkpt lat="38.204222191954734" lon="15.892470663549403"><ele>1274.0</ele><time>2026-04-28T09:12:05.999Z</time></trkpt><trkpt lat="38.20413064296746" lon="15.89237920048481"><ele>1274.0</ele><time>2026-04-28T09:12:06.999Z</time></trkpt><trkpt lat="38.204033625596836" lon="15.892273552478425"><ele>1274.0</ele><time>2026-04-28T09:12:07.999Z</time></trkpt><trkpt lat="38.20391796856207" lon="15.89216747287666"><ele>1274.0</ele><time>2026-04-28T09:12:08.999Z</time></trkpt><trkpt lat="38.20383209094157" lon="15.892127665586058"><ele>1274.0</ele><time>2026-04-28T09:12:09.999Z</time></trkpt><trkpt lat="38.2037628122706" lon="15.892147995662272"><ele>1274.0</ele><time>2026-04-28T09:12:10.999Z</time></trkpt><trkpt lat="38.20365262199199" lon="15.892116367561039"><ele>1274.0</ele><time>2026-04-28T09:12:12.999Z</time></trkpt><trkpt lat="38.20367852985178" lon="15.892025111664436"><ele>1274.0</ele><time>2026-04-28T09:12:14.999Z</time></trkpt><trkpt lat="38.20386786104102" lon="15.891936793181202"><ele>1274.0</ele><time>2026-04-28T09:12:16.999Z</time></trkpt><trkpt lat="38.20400162684928" lon="15.89188867909392"><ele>1274.0</ele><time>2026-04-28T09:12:17.999Z</time></trkpt><trkpt lat="38.20415896091745" lon="15.8918053274909"><ele>1267.0</ele><time>2026-04-28T09:12:18.999Z</time></trkpt><trkpt lat="38.204376934411016" lon="15.891660909436167"><ele>1260.0</ele><time>2026-04-28T09:12:19.999Z</time></trkpt><trkpt lat="38.20457001592442" lon="15.891555383885242"><ele>1260.0</ele><time>2026-04-28T09:12:20.999Z</time></trkpt><trkpt lat="38.20471396942188" lon="15.89145508083714"><ele>1260.0</ele><time>2026-04-28T09:12:21.999Z</time></trkpt><trkpt lat="38.20484327202646" lon="15.891379890235644"><ele>1260.0</ele><time>2026-04-28T09:12:22.999Z</time></trkpt><trkpt lat="38.204966715164936" lon="15.891345606313866"><ele>1260.0</ele><time>2026-04-28T09:12:23.999Z</time></trkpt><trkpt lat="38.205105959421076" lon="15.89132314423929"><ele>1256.6666666666667</ele><time>2026-04-28T09:12:24.999Z</time></trkpt><trkpt lat="38.20525701129407" lon="15.89127472322036"><ele>1253.3333333333335</ele><time>2026-04-28T09:12:25.999Z</time></trkpt><trkpt lat="38.20540254207013" lon="15.891222518911091"><ele>1250.0</ele><time>2026-04-28T09:12:26.999Z</time></trkpt><trkpt lat="38.20556656446252" lon="15.891155040174331"><ele>1247.3333333333335</ele><time>2026-04-28T09:12:27.999Z</time></trkpt><trkpt lat="38.205718874122844" lon="15.891091235854372"><ele>1244.6666666666667</ele><time>2026-04-28T09:12:28.999Z</time></trkpt><trkpt lat="38.205870428211206" lon="15.891028735907303"><ele>1242.0</ele><time>2026-04-28T09:12:29.999Z</time></trkpt><trkpt lat="38.2060026554461" lon="15.890973349794315"><ele>1241.75</ele><time>2026-04-28T09:12:30.999Z</time></trkpt><trkpt lat="38.20612994263278" lon="15.890914077919444"><ele>1241.5</ele><time>2026-04-28T09:12:31.999Z</time></trkpt><trkpt lat="38.20627702638891" lon="15.89084829874165"><ele>1241.25</ele><time>2026-04-28T09:12:32.999Z</time></trkpt><trkpt lat="38.20640019697012" lon="15.890787948679664"><ele>1241.0</ele><time>2026-04-28T09:12:33.999Z</time></trkpt><trkpt lat="38.20648268279649" lon="15.890759840210896"><ele>1241.3333333333335</ele><time>2026-04-28T09:12:34.999Z</time></trkpt><trkpt lat="38.20654882168712" lon="15.89070239919138"><ele>1241.6666666666667</ele><time>2026-04-28T09:12:35.999Z</time></trkpt><trkpt lat="38.20661996994068" lon="15.890670229719014"><ele>1242.0</ele><time>2026-04-28T09:12:36.999Z</time></trkpt><trkpt lat="38.20670364366878" lon="15.89069928817702"><ele>1242.3333333333333</ele><time>2026-04-28T09:12:38.999Z</time></trkpt><trkpt lat="38.20674141449948" lon="15.8908309531644"><ele>1242.6666666666665</ele><time>2026-04-28T09:12:40.999Z</time></trkpt><trkpt lat="38.206791458007125" lon="15.890905912126302"><ele>1243.0</ele><time>2026-04-28T09:12:41.999Z</time></trkpt><trkpt lat="38.206873974445095" lon="15.890866851481379"><ele>1243.0</ele><time>2026-04-28T09:12:43.999Z</time></trkpt><trkpt lat="38.20687704371668" lon="15.890726342055103"><ele>1243.0</ele><time>2026-04-28T09:12:45.999Z</time></trkpt><trkpt lat="38.20683991811974" lon="15.890644166346028"><ele>1243.0</ele><time>2026-04-28T09:12:46.999Z</time></trkpt><trkpt lat="38.20680207640573" lon="15.890566900337214"><ele>1243.0</ele><time>2026-04-28T09:12:47.999Z</time></trkpt><trkpt lat="38.206735450703675" lon="15.890513495938293"><ele>1243.0</ele><time>2026-04-28T09:12:48.999Z</time></trkpt><trkpt lat="38.206661363273035" lon="15.890480049813545"><ele>1243.0</ele><time>2026-04-28T09:12:49.999Z</time></trkpt><trkpt lat="38.20658250908211" lon="15.890450270412714"><ele>1243.0</ele><time>2026-04-28T09:12:50.999Z</time></trkpt><trkpt lat="38.20655700890706" lon="15.890340523970831"><ele>1243.0</ele><time>2026-04-28T09:12:52.999Z</time></trkpt><trkpt lat="38.20662030377957" lon="15.890235052138038"><ele>1243.0</ele><time>2026-04-28T09:12:54.999Z</time></trkpt><trkpt lat="38.20684172177615" lon="15.890200486260683"><ele>1243.0</ele><time>2026-04-28T09:12:56.999Z</time></trkpt><trkpt lat="38.20697991653386" lon="15.89019470761803"><ele>1243.0</ele><time>2026-04-28T09:12:57.999Z</time></trkpt><trkpt lat="38.207089346073516" lon="15.890192025420637"><ele>1243.0</ele><time>2026-04-28T09:12:58.999Z</time></trkpt><trkpt lat="38.20715899379856" lon="15.890256605189407"><ele>1243.0</ele><time>2026-04-28T09:12:59.999Z</time></trkpt><trkpt lat="38.20720868379295" lon="15.8903336547314"><ele>1243.0</ele><time>2026-04-28T09:13:00.999Z</time></trkpt><trkpt lat="38.20725346131635" lon="15.890459591150135"><ele>1243.0</ele><time>2026-04-28T09:13:01.999Z</time></trkpt><trkpt lat="38.20728226650286" lon="15.890572536115853"><ele>1243.0</ele><time>2026-04-28T09:13:02.999Z</time></trkpt><trkpt lat="38.207313516101806" lon="15.890700841499655"><ele>1243.0</ele><time>2026-04-28T09:13:03.999Z</time></trkpt><trkpt lat="38.207334206852806" lon="15.890790780761353"><ele>1243.0</ele><time>2026-04-28T09:13:04.999Z</time></trkpt><trkpt lat="38.20739637516914" lon="15.890882078465365"><ele>1243.0</ele><time>2026-04-28T09:13:06.999Z</time></trkpt><trkpt lat="38.207471709273086" lon="15.890804478244918"><ele>1243.0</ele><time>2026-04-28T09:13:08.999Z</time></trkpt><trkpt lat="38.207486060161756" lon="15.890720670569372"><ele>1243.0</ele><time>2026-04-28T09:13:09.999Z</time></trkpt><trkpt lat="38.20751349598491" lon="15.890583875539843"><ele>1239.0</ele><time>2026-04-28T09:13:10.999Z</time></trkpt><trkpt lat="38.20753428107438" lon="15.890440628150909"><ele>1235.0</ele><time>2026-04-28T09:13:11.999Z</time></trkpt><trkpt lat="38.20752050188785" lon="15.890345672308419"><ele>1231.0</ele><time>2026-04-28T09:13:12.999Z</time></trkpt><trkpt lat="38.20747478561164" lon="15.890199689447282"><ele>1227.0</ele><time>2026-04-28T09:13:13.999Z</time></trkpt><trkpt lat="38.207456281719814" lon="15.890062313029464"><ele>1223.0</ele><time>2026-04-28T09:13:14.999Z</time></trkpt><trkpt lat="38.20741656048188" lon="15.889938856845824"><ele>1223.2</ele><time>2026-04-28T09:13:15.999Z</time></trkpt><trkpt lat="38.207369659449746" lon="15.889798891847857"><ele>1223.4</ele><time>2026-04-28T09:13:16.999Z</time></trkpt><trkpt lat="38.20732847201553" lon="15.889685982524902"><ele>1223.6000000000001</ele><time>2026-04-28T09:13:17.999Z</time></trkpt><trkpt lat="38.20729718448904" lon="15.889586940754844"><ele>1223.8</ele><time>2026-04-28T09:13:19Z</time></trkpt><trkpt lat="38.2072157509272" lon="15.889522548898613"><ele>1224.0</ele><time>2026-04-28T09:13:21Z</time></trkpt><trkpt lat="38.2071233571413" lon="15.88950637961"><ele>1224.0</ele><time>2026-04-28T09:13:22Z</time></trkpt><trkpt lat="38.2069934114019" lon="15.889516098400362"><ele>1224.0</ele><time>2026-04-28T09:13:23Z</time></trkpt><trkpt lat="38.2068646629223" lon="15.889551367811874"><ele>1224.0</ele><time>2026-04-28T09:13:24Z</time></trkpt><trkpt lat="38.206767299225326" lon="15.88960787830589"><ele>1224.0</ele><time>2026-04-28T09:13:25Z</time></trkpt><trkpt lat="38.20669997215044" lon="15.88963517030617"><ele>1224.0</ele><time>2026-04-28T09:13:26Z</time></trkpt><trkpt lat="38.20662995693994" lon="15.889609573826256"><ele>1224.0</ele><time>2026-04-28T09:13:27Z</time></trkpt><trkpt lat="38.206542692330025" lon="15.889545967300831"><ele>1224.0</ele><time>2026-04-28T09:13:28Z</time></trkpt><trkpt lat="38.20645208002587" lon="15.889453742330755"><ele>1224.0</ele><time>2026-04-28T09:13:29Z</time></trkpt><trkpt lat="38.20638869867997" lon="15.889393080364808"><ele>1224.0</ele><time>2026-04-28T09:13:30Z</time></trkpt><trkpt lat="38.20622616836923" lon="15.889388256591031"><ele>1222.6000000000001</ele><time>2026-04-28T09:13:32Z</time></trkpt><trkpt lat="38.206133466303775" lon="15.889328988366177"><ele>1221.2</ele><time>2026-04-28T09:13:34Z</time></trkpt><trkpt lat="38.20609796484342" lon="15.889256301552537"><ele>1219.8000000000002</ele><time>2026-04-28T09:13:35Z</time></trkpt><trkpt lat="38.206136361252156" lon="15.889173752484469"><ele>1218.4</ele><time>2026-04-28T09:13:36Z</time></trkpt><trkpt lat="38.20621217349842" lon="15.889131154487801"><ele>1217.0</ele><time>2026-04-28T09:13:37Z</time></trkpt><trkpt lat="38.20636250957098" lon="15.889181517218132"><ele>1218.75</ele><time>2026-04-28T09:13:39Z</time></trkpt><trkpt lat="38.20647187174708" lon="15.889241006010458"><ele>1220.5</ele><time>2026-04-28T09:13:40Z</time></trkpt><trkpt lat="38.2065875351216" lon="15.889275170882895"><ele>1222.25</ele><time>2026-04-28T09:13:41Z</time></trkpt><trkpt lat="38.206698352384784" lon="15.889256233461188"><ele>1224.0</ele><time>2026-04-28T09:13:42Z</time></trkpt><trkpt lat="38.206801966816286" lon="15.889227491293635"><ele>1218.6000000000001</ele><time>2026-04-28T09:13:43Z</time></trkpt><trkpt lat="38.206899963094855" lon="15.88920630273011"><ele>1213.2</ele><time>2026-04-28T09:13:44Z</time></trkpt><trkpt lat="38.20699858397964" lon="15.889198841561857"><ele>1207.8000000000002</ele><time>2026-04-28T09:13:45Z</time></trkpt><trkpt lat="38.207105216449094" lon="15.889181174609288"><ele>1202.4</ele><time>2026-04-28T09:13:46Z</time></trkpt><trkpt lat="38.20719997016884" lon="15.889159510774263"><ele>1197.0</ele><time>2026-04-28T09:13:47Z</time></trkpt><trkpt lat="38.20729060046985" lon="15.889128037455594"><ele>1195.6</ele><time>2026-04-28T09:13:48Z</time></trkpt><trkpt lat="38.20739402747811" lon="15.889099734580522"><ele>1194.2</ele><time>2026-04-28T09:13:49Z</time></trkpt><trkpt lat="38.20750769279083" lon="15.88907489097975"><ele>1192.8</ele><time>2026-04-28T09:13:50Z</time></trkpt><trkpt lat="38.207608823274725" lon="15.88905334059636"><ele>1191.4</ele><time>2026-04-28T09:13:51Z</time></trkpt><trkpt lat="38.20769565107935" lon="15.889066738301334"><ele>1190.0</ele><time>2026-04-28T09:13:52Z</time></trkpt><trkpt lat="38.207780436481734" lon="15.88908927200221"><ele>1190.0</ele><time>2026-04-28T09:13:53Z</time></trkpt><trkpt lat="38.2078676810998" lon="15.889156322074694"><ele>1190.0</ele><time>2026-04-28T09:13:54Z</time></trkpt><trkpt lat="38.20796206191299" lon="15.889237810431858"><ele>1190.0</ele><time>2026-04-28T09:13:55Z</time></trkpt><trkpt lat="38.208034351790396" lon="15.88930648817486"><ele>1190.0</ele><time>2026-04-28T09:13:56Z</time></trkpt><trkpt lat="38.208097888116995" lon="15.889378830032411"><ele>1190.0</ele><time>2026-04-28T09:13:57Z</time></trkpt><trkpt lat="38.208126457608955" lon="15.88950003689637"><ele>1190.4</ele><time>2026-04-28T09:13:58Z</time></trkpt><trkpt lat="38.20814281578619" lon="15.889638603308242"><ele>1190.8</ele><time>2026-04-28T09:13:59Z</time></trkpt><trkpt lat="38.2081530332457" lon="15.889766177804999"><ele>1191.2</ele><time>2026-04-28T09:14:00Z</time></trkpt><trkpt lat="38.20817718618806" lon="15.88986873709753"><ele>1191.6</ele><time>2026-04-28T09:14:01Z</time></trkpt><trkpt lat="38.20818577797754" lon="15.88998339070363"><ele>1192.0</ele><time>2026-04-28T09:14:03Z</time></trkpt><trkpt lat="38.20826870272094" lon="15.889974160443675"><ele>1192.0</ele><time>2026-04-28T09:14:05Z</time></trkpt><trkpt lat="38.208270725006074" lon="15.889851352168867"><ele>1192.0</ele><time>2026-04-28T09:14:07Z</time></trkpt><trkpt lat="38.20821809050919" lon="15.889736098548724"><ele>1192.0</ele><time>2026-04-28T09:14:08Z</time></trkpt><trkpt lat="38.208191140012204" lon="15.889644415982662"><ele>1192.0</ele><time>2026-04-28T09:14:08.999Z</time></trkpt><trkpt lat="38.20817012410071" lon="15.889407601167997"><ele>1191.6</ele><time>2026-04-28T09:14:10.999Z</time></trkpt><trkpt lat="38.20813696092531" lon="15.889250402766244"><ele>1191.2</ele><time>2026-04-28T09:14:11.999Z</time></trkpt><trkpt lat="38.208103839511985" lon="15.889117169285292"><ele>1190.8</ele><time>2026-04-28T09:14:12.999Z</time></trkpt><trkpt lat="38.20807350837622" lon="15.888993460622784"><ele>1190.4</ele><time>2026-04-28T09:14:13.999Z</time></trkpt><trkpt lat="38.20803137258353" lon="15.888883589543175"><ele>1190.0</ele><time>2026-04-28T09:14:14.999Z</time></trkpt><trkpt lat="38.207961949282094" lon="15.888810669365938"><ele>1190.0</ele><time>2026-04-28T09:14:15.999Z</time></trkpt><trkpt lat="38.207884486003614" lon="15.888758665144026"><ele>1190.0</ele><time>2026-04-28T09:14:16.999Z</time></trkpt><trkpt lat="38.20787355987675" lon="15.88866954247584"><ele>1190.0</ele><time>2026-04-28T09:14:18.999Z</time></trkpt><trkpt lat="38.20794439994539" lon="15.888657316016296"><ele>1190.0</ele><time>2026-04-28T09:14:19.999Z</time></trkpt><trkpt lat="38.20799867820825" lon="15.888701337805559"><ele>1190.0</ele><time>2026-04-28T09:14:20.999Z</time></trkpt><trkpt lat="38.208092238627444" lon="15.88877903560534"><ele>1190.0</ele><time>2026-04-28T09:14:22.999Z</time></trkpt><trkpt lat="38.20815951442298" lon="15.8888982843338"><ele>1190.5</ele><time>2026-04-28T09:14:23.999Z</time></trkpt><trkpt lat="38.208235123150644" lon="15.889039166949308"><ele>1191.0</ele><time>2026-04-28T09:14:24.999Z</time></trkpt><trkpt lat="38.208326625206674" lon="15.88920530826668"><ele>1191.5</ele><time>2026-04-28T09:14:25.999Z</time></trkpt><trkpt lat="38.20839423912735" lon="15.889336489606118"><ele>1192.0</ele><time>2026-04-28T09:14:26.999Z</time></trkpt><trkpt lat="38.20844328221697" lon="15.889414453927179"><ele>1192.0</ele><time>2026-04-28T09:14:27.999Z</time></trkpt><trkpt lat="38.208497096180025" lon="15.88950303712707"><ele>1192.0</ele><time>2026-04-28T09:14:28.999Z</time></trkpt><trkpt lat="38.20853836335001" lon="15.88958076855562"><ele>1192.0</ele><time>2026-04-28T09:14:29.999Z</time></trkpt><trkpt lat="38.208558995371874" lon="15.889658446311746"><ele>1192.0</ele><time>2026-04-28T09:14:30.999Z</time></trkpt><trkpt lat="38.208570529631984" lon="15.889777266161287"><ele>1192.0</ele><time>2026-04-28T09:14:31.999Z</time></trkpt><trkpt lat="38.20860961620703" lon="15.889883484669209"><ele>1192.0</ele><time>2026-04-28T09:14:33.999Z</time></trkpt><trkpt lat="38.20870939091808" lon="15.889830256296484"><ele>1192.0</ele><time>2026-04-28T09:14:35.999Z</time></trkpt><trkpt lat="38.20873544061212" lon="15.889745501642654"><ele>1192.0</ele><time>2026-04-28T09:14:36.999Z</time></trkpt><trkpt lat="38.20871573958182" lon="15.889571896961874"><ele>1192.0</ele><time>2026-04-28T09:14:38.999Z</time></trkpt><trkpt lat="38.20871550423091" lon="15.889491034071582"><ele>1192.0</ele><time>2026-04-28T09:14:39.999Z</time></trkpt><trkpt lat="38.20868513909799" lon="15.889304798018332"><ele>1192.0</ele><time>2026-04-28T09:14:40.999Z</time></trkpt><trkpt lat="38.20865461355506" lon="15.889164799712177"><ele>1189.8</ele><time>2026-04-28T09:14:41.999Z</time></trkpt><trkpt lat="38.208630797840236" lon="15.889040558832248"><ele>1187.6</ele><time>2026-04-28T09:14:42.999Z</time></trkpt><trkpt lat="38.20859287967966" lon="15.888915295785136"><ele>1185.3999999999999</ele><time>2026-04-28T09:14:43.999Z</time></trkpt><trkpt lat="38.208553335642605" lon="15.888772862578861"><ele>1183.2</ele><time>2026-04-28T09:14:44.999Z</time></trkpt><trkpt lat="38.2085107472267" lon="15.888659581286348"><ele>1181.0</ele><time>2026-04-28T09:14:45.999Z</time></trkpt><trkpt lat="38.208459977116725" lon="15.888548771957701"><ele>1181.0</ele><time>2026-04-28T09:14:46.999Z</time></trkpt><trkpt lat="38.20839024258043" lon="15.888448483140046"><ele>1181.0</ele><time>2026-04-28T09:14:47.999Z</time></trkpt><trkpt lat="38.20830434646782" lon="15.888377048815636"><ele>1181.0</ele><time>2026-04-28T09:14:48.999Z</time></trkpt><trkpt lat="38.20821407156168" lon="15.88831948995362"><ele>1181.0</ele><time>2026-04-28T09:14:49.999Z</time></trkpt><trkpt lat="38.20815221029833" lon="15.88828371885072"><ele>1181.0</ele><time>2026-04-28T09:14:50.999Z</time></trkpt><trkpt lat="38.208087166996535" lon="15.888224645634644"><ele>1181.0</ele><time>2026-04-28T09:14:51.999Z</time></trkpt><trkpt lat="38.208172235406856" lon="15.88814654720358"><ele>1181.0</ele><time>2026-04-28T09:14:53.999Z</time></trkpt><trkpt lat="38.20824181192142" lon="15.888168679781723"><ele>1181.0</ele><time>2026-04-28T09:14:54.999Z</time></trkpt><trkpt lat="38.20831115773456" lon="15.888223608224386"><ele>1181.0</ele><time>2026-04-28T09:14:55.999Z</time></trkpt><trkpt lat="38.20836454181847" lon="15.888295445129637"><ele>1181.0</ele><time>2026-04-28T09:14:56.999Z</time></trkpt><trkpt lat="38.20842082383032" lon="15.888359730722563"><ele>1181.0</ele><time>2026-04-28T09:14:57.999Z</time></trkpt><trkpt lat="38.20851565393" lon="15.888468271802852"><ele>1181.0</ele><time>2026-04-28T09:14:58.999Z</time></trkpt><trkpt lat="38.208600895892054" lon="15.888589281626706"><ele>1181.0</ele><time>2026-04-28T09:14:59.999Z</time></trkpt><trkpt lat="38.20868813872454" lon="15.888668822675056"><ele>1181.0</ele><time>2026-04-28T09:15:00.999Z</time></trkpt><trkpt lat="38.2087642259463" lon="15.88872406998474"><ele>1181.0</ele><time>2026-04-28T09:15:01.999Z</time></trkpt><trkpt lat="38.20883345750698" lon="15.888764051132952"><ele>1181.0</ele><time>2026-04-28T09:15:02.999Z</time></trkpt><trkpt lat="38.2089047182018" lon="15.888816446299785"><ele>1181.0</ele><time>2026-04-28T09:15:03.999Z</time></trkpt><trkpt lat="38.208984787446404" lon="15.888850065709041"><ele>1181.0</ele><time>2026-04-28T09:15:04.999Z</time></trkpt><trkpt lat="38.20896962988945" lon="15.88906031967686"><ele>1181.0</ele><time>2026-04-28T09:15:05.999Z</time></trkpt><trkpt lat="38.20899608693418" lon="15.889136157140825"><ele>1181.0</ele><time>2026-04-28T09:15:06.999Z</time></trkpt><trkpt lat="38.20905762418831" lon="15.889202345497775"><ele>1181.0</ele><time>2026-04-28T09:15:08.999Z</time></trkpt><trkpt lat="38.20912637005977" lon="15.889107807969996"><ele>1181.0</ele><time>2026-04-28T09:15:10.999Z</time></trkpt><trkpt lat="38.20908046144939" lon="15.88895954767902"><ele>1181.0</ele><time>2026-04-28T09:15:12.999Z</time></trkpt><trkpt lat="38.20902292679289" lon="15.888816475205248"><ele>1181.0</ele><time>2026-04-28T09:15:13.999Z</time></trkpt><trkpt lat="38.208957837988685" lon="15.888673523993145"><ele>1181.0</ele><time>2026-04-28T09:15:14.999Z</time></trkpt><trkpt lat="38.20890368821418" lon="15.888550985925486"><ele>1181.0</ele><time>2026-04-28T09:15:15.999Z</time></trkpt><trkpt lat="38.20885855450878" lon="15.88846525692654"><ele>1181.0</ele><time>2026-04-28T09:15:16.999Z</time></trkpt><trkpt lat="38.20880021459446" lon="15.88838760225618"><ele>1181.0</ele><time>2026-04-28T09:15:17.999Z</time></trkpt><trkpt lat="38.20874400152879" lon="15.888303416217825"><ele>1181.0</ele><time>2026-04-28T09:15:18.999Z</time></trkpt><trkpt lat="38.20868462138229" lon="15.888246437087666"><ele>1181.0</ele><time>2026-04-28T09:15:19.999Z</time></trkpt><trkpt lat="38.20869212700003" lon="15.888136855686053"><ele>1181.0</ele><time>2026-04-28T09:15:21.999Z</time></trkpt><trkpt lat="38.20877507495281" lon="15.888118725533289"><ele>1174.75</ele><time>2026-04-28T09:15:23.999Z</time></trkpt><trkpt lat="38.20889036335207" lon="15.888163780287247"><ele>1168.5</ele><time>2026-04-28T09:15:26Z</time></trkpt><trkpt lat="38.208980648348685" lon="15.88828966419741"><ele>1162.25</ele><time>2026-04-28T09:15:27Z</time></trkpt><trkpt lat="38.209067046716655" lon="15.8884152663086"><ele>1156.0</ele><time>2026-04-28T09:15:28Z</time></trkpt><trkpt lat="38.209174668760824" lon="15.888560842538194"><ele>1156.0</ele><time>2026-04-28T09:15:29Z</time></trkpt><trkpt lat="38.2092569465541" lon="15.88867348316074"><ele>1156.0</ele><time>2026-04-28T09:15:30Z</time></trkpt><trkpt lat="38.209326215530666" lon="15.888784353086809"><ele>1156.0</ele><time>2026-04-28T09:15:31Z</time></trkpt><trkpt lat="38.209372738425934" lon="15.888890671705225"><ele>1156.0</ele><time>2026-04-28T09:15:32Z</time></trkpt><trkpt lat="38.20938965988307" lon="15.889007160649104"><ele>1156.0</ele><time>2026-04-28T09:15:33Z</time></trkpt><trkpt lat="38.20940519334566" lon="15.889086565440243"><ele>1156.0</ele><time>2026-04-28T09:15:34Z</time></trkpt><trkpt lat="38.20946788119977" lon="15.889168762347323"><ele>1156.0</ele><time>2026-04-28T09:15:36Z</time></trkpt><trkpt lat="38.20951659211418" lon="15.889077238173037"><ele>1156.0</ele><time>2026-04-28T09:15:38Z</time></trkpt><trkpt lat="38.20948431783026" lon="15.8889110960429"><ele>1156.0</ele><time>2026-04-28T09:15:40Z</time></trkpt><trkpt lat="38.209425784905264" lon="15.888780177696193"><ele>1156.0</ele><time>2026-04-28T09:15:41Z</time></trkpt><trkpt lat="38.20936737542011" lon="15.88864944865544"><ele>1156.0</ele><time>2026-04-28T09:15:42Z</time></trkpt><trkpt lat="38.209298515772815" lon="15.888489025534081"><ele>1156.0</ele><time>2026-04-28T09:15:43Z</time></trkpt><trkpt lat="38.209223598657765" lon="15.888374755124575"><ele>1156.0</ele><time>2026-04-28T09:15:44Z</time></trkpt><trkpt lat="38.20919802271178" lon="15.888257542107452"><ele>1156.0</ele><time>2026-04-28T09:15:45Z</time></trkpt><trkpt lat="38.20915445991958" lon="15.888157920249819"><ele>1156.0</ele><time>2026-04-28T09:15:46Z</time></trkpt><trkpt lat="38.20915476206303" lon="15.888020275985157"><ele>1151.5</ele><time>2026-04-28T09:15:48Z</time></trkpt><trkpt lat="38.20926756010332" lon="15.887905649054915"><ele>1147.0</ele><time>2026-04-28T09:15:50Z</time></trkpt><trkpt lat="38.20931767247006" lon="15.88784878271203"><ele>1142.5</ele><time>2026-04-28T09:15:51Z</time></trkpt><trkpt lat="38.209391637770366" lon="15.8877725579855"><ele>1138.0</ele><time>2026-04-28T09:15:52Z</time></trkpt><trkpt lat="38.20957570765075" lon="15.887789908417519"><ele>1138.0</ele><time>2026-04-28T09:15:53Z</time></trkpt><trkpt lat="38.20970014214555" lon="15.887660149639252"><ele>1138.0</ele><time>2026-04-28T09:15:54Z</time></trkpt><trkpt lat="38.20982519625613" lon="15.887508895041476"><ele>1138.0</ele><time>2026-04-28T09:15:55Z</time></trkpt><trkpt lat="38.20991883642633" lon="15.88739299117195"><ele>1131.4</ele><time>2026-04-28T09:15:56Z</time></trkpt><trkpt lat="38.20997512124473" lon="15.887317886854243"><ele>1124.8</ele><time>2026-04-28T09:15:57Z</time></trkpt><trkpt lat="38.210024243945064" lon="15.887196800529816"><ele>1118.2</ele><time>2026-04-28T09:15:59Z</time></trkpt><trkpt lat="38.21003881857184" lon="15.88711331093863"><ele>1111.6</ele><time>2026-04-28T09:16:00Z</time></trkpt><trkpt lat="38.21002306369641" lon="15.88702048797364"><ele>1105.0</ele><time>2026-04-28T09:16:01Z</time></trkpt><trkpt lat="38.209901033445625" lon="15.88701637895283"><ele>1107.3333333333333</ele><time>2026-04-28T09:16:03Z</time></trkpt><trkpt lat="38.20973659365688" lon="15.887187138771592"><ele>1109.6666666666667</ele><time>2026-04-28T09:16:05Z</time></trkpt><trkpt lat="38.20961853674269" lon="15.887304305397556"><ele>1112.0</ele><time>2026-04-28T09:16:06Z</time></trkpt><trkpt lat="38.209525156396104" lon="15.887355221917666"><ele>1112.0</ele><time>2026-04-28T09:16:07Z</time></trkpt><trkpt lat="38.20945847347682" lon="15.887381294071748"><ele>1112.0</ele><time>2026-04-28T09:16:08Z</time></trkpt><trkpt lat="38.20943716486291" lon="15.887258181786063"><ele>1112.0</ele><time>2026-04-28T09:16:10Z</time></trkpt><trkpt lat="38.20953742950834" lon="15.887133455183264"><ele>1112.0</ele><time>2026-04-28T09:16:11.999Z</time></trkpt><trkpt lat="38.20964388843332" lon="15.887057524162978"><ele>1112.0</ele><time>2026-04-28T09:16:12.999Z</time></trkpt><trkpt lat="38.20974745145491" lon="15.886974178349558"><ele>1110.6</ele><time>2026-04-28T09:16:13.999Z</time></trkpt><trkpt lat="38.20985362596743" lon="15.886888905198097"><ele>1109.2</ele><time>2026-04-28T09:16:14.999Z</time></trkpt><trkpt lat="38.209961784240015" lon="15.886806830149052"><ele>1107.8</ele><time>2026-04-28T09:16:15.999Z</time></trkpt><trkpt lat="38.21004054617086" lon="15.88675580966204"><ele>1106.4</ele><time>2026-04-28T09:16:16.999Z</time></trkpt><trkpt lat="38.210141507108695" lon="15.886765249373772"><ele>1105.0</ele><time>2026-04-28T09:16:18.999Z</time></trkpt><trkpt lat="38.210203341221934" lon="15.886875958514901"><ele>1105.0</ele><time>2026-04-28T09:16:20.999Z</time></trkpt><trkpt lat="38.21026797476856" lon="15.886995120045933"><ele>1105.0</ele><time>2026-04-28T09:16:21.999Z</time></trkpt><trkpt lat="38.21031821516244" lon="15.887111109982461"><ele>1105.0</ele><time>2026-04-28T09:16:22.999Z</time></trkpt><trkpt lat="38.21034640388079" lon="15.887211711094217"><ele>1105.0</ele><time>2026-04-28T09:16:23.999Z</time></trkpt><trkpt lat="38.210353019360205" lon="15.887298956956641"><ele>1105.0</ele><time>2026-04-28T09:16:24.999Z</time></trkpt><trkpt lat="38.21033668349685" lon="15.887379155592654"><ele>1105.0</ele><time>2026-04-28T09:16:25.999Z</time></trkpt><trkpt lat="38.21029967894215" lon="15.887455647349885"><ele>1105.0</ele><time>2026-04-28T09:16:26.999Z</time></trkpt><trkpt lat="38.21025874952931" lon="15.887538678932861"><ele>1105.0</ele><time>2026-04-28T09:16:27.999Z</time></trkpt><trkpt lat="38.210250036247814" lon="15.88767623053604"><ele>1105.0</ele><time>2026-04-28T09:16:29.999Z</time></trkpt><trkpt lat="38.210360708387164" lon="15.887723306882052"><ele>1105.0</ele><time>2026-04-28T09:16:30.999Z</time></trkpt><trkpt lat="38.2104368848786" lon="15.887665127872504"><ele>1105.0</ele><time>2026-04-28T09:16:31.999Z</time></trkpt><trkpt lat="38.21045675072658" lon="15.887588399368644"><ele>1105.0</ele><time>2026-04-28T09:16:32.999Z</time></trkpt><trkpt lat="38.210472792527796" lon="15.887508300834837"><ele>1105.0</ele><time>2026-04-28T09:16:33.999Z</time></trkpt><trkpt lat="38.21049756236432" lon="15.887389616696472"><ele>1105.0</ele><time>2026-04-28T09:16:34.999Z</time></trkpt><trkpt lat="38.21051012085617" lon="15.887243572735928"><ele>1105.0</ele><time>2026-04-28T09:16:35.999Z</time></trkpt><trkpt lat="38.21051039073699" lon="15.887074949510513"><ele>1105.0</ele><time>2026-04-28T09:16:36.999Z</time></trkpt><trkpt lat="38.210487259380216" lon="15.886890931642702"><ele>1102.6666666666665</ele><time>2026-04-28T09:16:37.999Z</time></trkpt><trkpt lat="38.210482383270495" lon="15.886732296307414"><ele>1100.3333333333333</ele><time>2026-04-28T09:16:38.999Z</time></trkpt><trkpt lat="38.21048256375494" lon="15.886616865641955"><ele>1098.0</ele><time>2026-04-28T09:16:39.999Z</time></trkpt><trkpt lat="38.210492415484914" lon="15.886515057590072"><ele>1095.6666666666667</ele><time>2026-04-28T09:16:40.999Z</time></trkpt><trkpt lat="38.21051652859483" lon="15.88643077014938"><ele>1093.3333333333335</ele><time>2026-04-28T09:16:41.999Z</time></trkpt><trkpt lat="38.21058980541171" lon="15.886381336883304"><ele>1091.0</ele><time>2026-04-28T09:16:42.999Z</time></trkpt><trkpt lat="38.21069564267053" lon="15.886304904672018"><ele>1086.6666666666667</ele><time>2026-04-28T09:16:43.999Z</time></trkpt><trkpt lat="38.21084079380925" lon="15.886194253354825"><ele>1082.3333333333333</ele><time>2026-04-28T09:16:44.999Z</time></trkpt><trkpt lat="38.210957316149646" lon="15.886077948183885"><ele>1078.0</ele><time>2026-04-28T09:16:45.999Z</time></trkpt><trkpt lat="38.21105220197417" lon="15.885956829697983"><ele>1078.0</ele><time>2026-04-28T09:16:46.999Z</time></trkpt><trkpt lat="38.21112741798703" lon="15.885862301416116"><ele>1078.0</ele><time>2026-04-28T09:16:47.999Z</time></trkpt><trkpt lat="38.211210670356564" lon="15.885808397776703"><ele>1078.0</ele><time>2026-04-28T09:16:49.999Z</time></trkpt><trkpt lat="38.21128006087452" lon="15.885913906878104"><ele>1078.0</ele><time>2026-04-28T09:16:51.999Z</time></trkpt><trkpt lat="38.211296573026026" lon="15.886044469476165"><ele>1078.0</ele><time>2026-04-28T09:16:52.999Z</time></trkpt><trkpt lat="38.211344154827536" lon="15.886212988767566"><ele>1078.0</ele><time>2026-04-28T09:16:53.999Z</time></trkpt><trkpt lat="38.21134921687053" lon="15.886339990187187"><ele>1078.0</ele><time>2026-04-28T09:16:54.999Z</time></trkpt><trkpt lat="38.21136284835856" lon="15.886449339113137"><ele>1078.0</ele><time>2026-04-28T09:16:55.999Z</time></trkpt><trkpt lat="38.21135080039179" lon="15.88657034054098"><ele>1078.0</ele><time>2026-04-28T09:16:56.999Z</time></trkpt><trkpt lat="38.21134873515098" lon="15.886686765628998"><ele>1078.0</ele><time>2026-04-28T09:16:57.999Z</time></trkpt><trkpt lat="38.21139163985788" lon="15.88681749181998"><ele>1077.6</ele><time>2026-04-28T09:16:59.999Z</time></trkpt><trkpt lat="38.211484436396546" lon="15.88680649553138"><ele>1077.1999999999998</ele><time>2026-04-28T09:17:00.999Z</time></trkpt><trkpt lat="38.211528729715035" lon="15.886731259210189"><ele>1076.8</ele><time>2026-04-28T09:17:01.999Z</time></trkpt><trkpt lat="38.21154076111171" lon="15.886636247928017"><ele>1076.3999999999999</ele><time>2026-04-28T09:17:02.999Z</time></trkpt><trkpt lat="38.211572577738806" lon="15.886486807911472"><ele>1076.0</ele><time>2026-04-28T09:17:03.999Z</time></trkpt><trkpt lat="38.21161936407377" lon="15.886325741895481"><ele>1073.8</ele><time>2026-04-28T09:17:04.999Z</time></trkpt><trkpt lat="38.211641427004835" lon="15.886170439676981"><ele>1071.6</ele><time>2026-04-28T09:17:05.999Z</time></trkpt><trkpt lat="38.21166490727818" lon="15.886061707557747"><ele>1069.4</ele><time>2026-04-28T09:17:06.999Z</time></trkpt><trkpt lat="38.21166960516504" lon="15.88592904378682"><ele>1067.2</ele><time>2026-04-28T09:17:07.999Z</time></trkpt><trkpt lat="38.21166395943609" lon="15.88581949133921"><ele>1065.0</ele><time>2026-04-28T09:17:08.999Z</time></trkpt><trkpt lat="38.21168201347313" lon="15.885704217779852"><ele>1065.0</ele><time>2026-04-28T09:17:10.999Z</time></trkpt><trkpt lat="38.211746844659906" lon="15.885715119869069"><ele>1065.0</ele><time>2026-04-28T09:17:12.999Z</time></trkpt><trkpt lat="38.21184090004332" lon="15.885844364737808"><ele>1065.0</ele><time>2026-04-28T09:17:14.999Z</time></trkpt><trkpt lat="38.21190412512434" lon="15.885986031998426"><ele>1065.0</ele><time>2026-04-28T09:17:15.999Z</time></trkpt><trkpt lat="38.21197240095172" lon="15.886146186757193"><ele>1065.0</ele><time>2026-04-28T09:17:16.999Z</time></trkpt><trkpt lat="38.212005516961604" lon="15.886236972771206"><ele>1065.0</ele><time>2026-04-28T09:17:17.999Z</time></trkpt><trkpt lat="38.21203503101195" lon="15.88636586610097"><ele>1065.0</ele><time>2026-04-28T09:17:18.999Z</time></trkpt><trkpt lat="38.21204519824431" lon="15.886484423287472"><ele>1065.0</ele><time>2026-04-28T09:17:19.999Z</time></trkpt><trkpt lat="38.212024343462964" lon="15.886596208245948"><ele>1065.0</ele><time>2026-04-28T09:17:20.999Z</time></trkpt><trkpt lat="38.211988203115524" lon="15.886734275768768"><ele>1061.6</ele><time>2026-04-28T09:17:21.999Z</time></trkpt><trkpt lat="38.21194086633232" lon="15.886875320575848"><ele>1058.2</ele><time>2026-04-28T09:17:22.999Z</time></trkpt><trkpt lat="38.21191197267768" lon="15.887010873006325"><ele>1054.8</ele><time>2026-04-28T09:17:23.999Z</time></trkpt><trkpt lat="38.21192246196238" lon="15.88715667738061"><ele>1051.4</ele><time>2026-04-28T09:17:25.999Z</time></trkpt><trkpt lat="38.21200925035795" lon="15.887186016609489"><ele>1048.0</ele><time>2026-04-28T09:17:26.999Z</time></trkpt><trkpt lat="38.212094247068634" lon="15.887149026882357"><ele>1048.0</ele><time>2026-04-28T09:17:28.999Z</time></trkpt><trkpt lat="38.212153152332256" lon="15.887044501507122"><ele>1048.0</ele><time>2026-04-28T09:17:29.999Z</time></trkpt><trkpt lat="38.212255102928914" lon="15.886880150081879"><ele>1048.0</ele><time>2026-04-28T09:17:31Z</time></trkpt><trkpt lat="38.21235107977793" lon="15.886743054519053"><ele>1048.0</ele><time>2026-04-28T09:17:32Z</time></trkpt><trkpt lat="38.21245423845699" lon="15.88663792042784"><ele>1047.8</ele><time>2026-04-28T09:17:33Z</time></trkpt><trkpt lat="38.21250673204238" lon="15.886540387894428"><ele>1047.6</ele><time>2026-04-28T09:17:34Z</time></trkpt><trkpt lat="38.212517097071576" lon="15.886418582079559"><ele>1047.4</ele><time>2026-04-28T09:17:35Z</time></trkpt><trkpt lat="38.21253949150157" lon="15.88629633208983"><ele>1047.2</ele><time>2026-04-28T09:17:36Z</time></trkpt><trkpt lat="38.21255702426316" lon="15.886167497281669"><ele>1047.0</ele><time>2026-04-28T09:17:37Z</time></trkpt><trkpt lat="38.21257498143911" lon="15.886057881345758"><ele>1047.0</ele><time>2026-04-28T09:17:38Z</time></trkpt><trkpt lat="38.21265158662971" lon="15.885949753898196"><ele>1047.0</ele><time>2026-04-28T09:17:40Z</time></trkpt><trkpt lat="38.21275702898671" lon="15.885967323489504"><ele>1047.0</ele><time>2026-04-28T09:17:41Z</time></trkpt><trkpt lat="38.212868974329346" lon="15.886024833627392"><ele>1047.0</ele><time>2026-04-28T09:17:42Z</time></trkpt><trkpt lat="38.21299388102935" lon="15.88606702498193"><ele>1047.0</ele><time>2026-04-28T09:17:43Z</time></trkpt><trkpt lat="38.213110450776405" lon="15.88611154090754"><ele>1047.0</ele><time>2026-04-28T09:17:44Z</time></trkpt><trkpt lat="38.213196654893245" lon="15.886131685146852"><ele>1047.0</ele><time>2026-04-28T09:17:45Z</time></trkpt><trkpt lat="38.21330814805065" lon="15.886112327531974"><ele>1047.0</ele><time>2026-04-28T09:17:46Z</time></trkpt><trkpt lat="38.213440204957756" lon="15.88606009715036"><ele>1042.6666666666667</ele><time>2026-04-28T09:17:47Z</time></trkpt><trkpt lat="38.21360104550433" lon="15.885999263305623"><ele>1038.3333333333335</ele><time>2026-04-28T09:17:48Z</time></trkpt><trkpt lat="38.213797185034146" lon="15.88592507845525"><ele>1034.0</ele><time>2026-04-28T09:17:49Z</time></trkpt><trkpt lat="38.21397704318395" lon="15.885855753024329"><ele>1030.0</ele><time>2026-04-28T09:17:50Z</time></trkpt><trkpt lat="38.214115999727454" lon="15.885780511432486"><ele>1026.0</ele><time>2026-04-28T09:17:51Z</time></trkpt><trkpt lat="38.21425489093617" lon="15.885727131684993"><ele>1022.0</ele><time>2026-04-28T09:17:52Z</time></trkpt><trkpt lat="38.214413164748954" lon="15.885669904854861"><ele>1022.0</ele><time>2026-04-28T09:17:53Z</time></trkpt><trkpt lat="38.21457345629977" lon="15.885624937378248"><ele>1022.0</ele><time>2026-04-28T09:17:54Z</time></trkpt><trkpt lat="38.21471847113868" lon="15.885569815411145"><ele>1022.0</ele><time>2026-04-28T09:17:55Z</time></trkpt><trkpt lat="38.21485158221665" lon="15.885519842117247"><ele>1022.4000000000001</ele><time>2026-04-28T09:17:56Z</time></trkpt><trkpt lat="38.214959808479314" lon="15.885499939949392"><ele>1022.8000000000001</ele><time>2026-04-28T09:17:57Z</time></trkpt><trkpt lat="38.21505249559292" lon="15.88550623697639"><ele>1023.2</ele><time>2026-04-28T09:17:58Z</time></trkpt><trkpt lat="38.21513054280004" lon="15.885562098172759"><ele>1023.6</ele><time>2026-04-28T09:17:59Z</time></trkpt><trkpt lat="38.21523782493059" lon="15.885628474574894"><ele>1024.0</ele><time>2026-04-28T09:18:00Z</time></trkpt><trkpt lat="38.21535355462304" lon="15.885731950082777"><ele>1024.0</ele><time>2026-04-28T09:18:01Z</time></trkpt><trkpt lat="38.21547875757842" lon="15.88583955547356"><ele>1024.0</ele><time>2026-04-28T09:18:02Z</time></trkpt><trkpt lat="38.215613273125754" lon="15.88596329897239"><ele>1024.0</ele><time>2026-04-28T09:18:03Z</time></trkpt><trkpt lat="38.21575749339275" lon="15.886089715010142"><ele>1021.6666666666666</ele><time>2026-04-28T09:18:04Z</time></trkpt><trkpt lat="38.21591055684233" lon="15.886215314251983"><ele>1019.3333333333333</ele><time>2026-04-28T09:18:05Z</time></trkpt><trkpt lat="38.21606763249419" lon="15.886340683356016"><ele>1017.0</ele><time>2026-04-28T09:18:06Z</time></trkpt><trkpt lat="38.216213514346265" lon="15.886481897884469"><ele>1017.0</ele><time>2026-04-28T09:18:07Z</time></trkpt><trkpt lat="38.21636358734847" lon="15.88659732052193"><ele>1017.0</ele><time>2026-04-28T09:18:08Z</time></trkpt><trkpt lat="38.216510838380536" lon="15.886712568330728"><ele>1017.0</ele><time>2026-04-28T09:18:09Z</time></trkpt><trkpt lat="38.21664053620504" lon="15.886811982214777"><ele>1015.0</ele><time>2026-04-28T09:18:10Z</time></trkpt><trkpt lat="38.216766854970096" lon="15.886909822785405"><ele>1013.0</ele><time>2026-04-28T09:18:11Z</time></trkpt><trkpt lat="38.21690288668606" lon="15.887018653873602"><ele>1011.0</ele><time>2026-04-28T09:18:12Z</time></trkpt><trkpt lat="38.21704283646281" lon="15.887130619707229"><ele>1011.0</ele><time>2026-04-28T09:18:13Z</time></trkpt><trkpt lat="38.21716967117222" lon="15.887232092858472"><ele>1011.0</ele><time>2026-04-28T09:18:14Z</time></trkpt><trkpt lat="38.217292791899" lon="15.887327961126942"><ele>1011.0</ele><time>2026-04-28T09:18:14.999Z</time></trkpt><trkpt lat="38.21740751139402" lon="15.887416827795002"><ele>1011.0</ele><time>2026-04-28T09:18:15.999Z</time></trkpt><trkpt lat="38.21751662653699" lon="15.887502575748561"><ele>1008.25</ele><time>2026-04-28T09:18:16.999Z</time></trkpt><trkpt lat="38.21761624225847" lon="15.887576618608316"><ele>1005.5</ele><time>2026-04-28T09:18:17.999Z</time></trkpt><trkpt lat="38.2177147393165" lon="15.887611061029178"><ele>1002.75</ele><time>2026-04-28T09:18:18.999Z</time></trkpt><trkpt lat="38.21785014712681" lon="15.887646928828474"><ele>1000.0</ele><time>2026-04-28T09:18:19.999Z</time></trkpt><trkpt lat="38.218000100104966" lon="15.887681116354338"><ele>999.5</ele><time>2026-04-28T09:18:20.999Z</time></trkpt><trkpt lat="38.218137829783224" lon="15.887749202701071"><ele>999.0</ele><time>2026-04-28T09:18:21.999Z</time></trkpt><trkpt lat="38.21826499529374" lon="15.887771187308463"><ele>998.5</ele><time>2026-04-28T09:18:22.999Z</time></trkpt><trkpt lat="38.21839240508465" lon="15.887782920113999"><ele>998.0</ele><time>2026-04-28T09:18:23.999Z</time></trkpt><trkpt lat="38.218518153863776" lon="15.887772617777264"><ele>996.4</ele><time>2026-04-28T09:18:24.999Z</time></trkpt><trkpt lat="38.218608676935034" lon="15.887824855772566"><ele>994.8</ele><time>2026-04-28T09:18:25.999Z</time></trkpt><trkpt lat="38.21869493731084" lon="15.887897485950049"><ele>993.2</ele><time>2026-04-28T09:18:26.999Z</time></trkpt><trkpt lat="38.218788654394764" lon="15.887923769422907"><ele>991.6</ele><time>2026-04-28T09:18:27.999Z</time></trkpt><trkpt lat="38.21886577975704" lon="15.887952206154214"><ele>990.0</ele><time>2026-04-28T09:18:28.999Z</time></trkpt><trkpt lat="38.21895659388613" lon="15.887932541258566"><ele>990.0</ele><time>2026-04-28T09:18:29.999Z</time></trkpt><trkpt lat="38.21902499603606" lon="15.887944404140661"><ele>990.0</ele><time>2026-04-28T09:18:30.999Z</time></trkpt><trkpt lat="38.21908312771634" lon="15.887885668415889"><ele>990.0</ele><time>2026-04-28T09:18:32.999Z</time></trkpt><trkpt lat="38.21901013435261" lon="15.88776777066227"><ele>990.0</ele><time>2026-04-28T09:18:34.999Z</time></trkpt><trkpt lat="38.21891740252881" lon="15.887723212228565"><ele>990.0</ele><time>2026-04-28T09:18:35.999Z</time></trkpt><trkpt lat="38.218799569379875" lon="15.887645596883354"><ele>989.6666666666667</ele><time>2026-04-28T09:18:36.999Z</time></trkpt><trkpt lat="38.21865227878992" lon="15.887507955436307"><ele>989.3333333333334</ele><time>2026-04-28T09:18:37.999Z</time></trkpt><trkpt lat="38.21850568197958" lon="15.88735098072436"><ele>989.0</ele><time>2026-04-28T09:18:38.999Z</time></trkpt><trkpt lat="38.218334467950264" lon="15.887249148316371"><ele>989.0</ele><time>2026-04-28T09:18:39.999Z</time></trkpt><trkpt lat="38.21816925237655" lon="15.887172446073771"><ele>989.0</ele><time>2026-04-28T09:18:40.999Z</time></trkpt><trkpt lat="38.21803995116669" lon="15.88708786601368"><ele>989.0</ele><time>2026-04-28T09:18:41.999Z</time></trkpt><trkpt lat="38.21793082593161" lon="15.88700335434114"><ele>989.0</ele><time>2026-04-28T09:18:42.999Z</time></trkpt><trkpt lat="38.21784236103146" lon="15.886915533566034"><ele>989.6</ele><time>2026-04-28T09:18:43.999Z</time></trkpt><trkpt lat="38.21777304682299" lon="15.886814350531486"><ele>990.2</ele><time>2026-04-28T09:18:44.999Z</time></trkpt><trkpt lat="38.21771500522229" lon="15.886710188097846"><ele>990.8000000000001</ele><time>2026-04-28T09:18:45.999Z</time></trkpt><trkpt lat="38.21765065554219" lon="15.886587604534748"><ele>991.4000000000001</ele><time>2026-04-28T09:18:46.999Z</time></trkpt><trkpt lat="38.217607628986194" lon="15.886457867409892"><ele>992.0</ele><time>2026-04-28T09:18:47.999Z</time></trkpt><trkpt lat="38.21758386540695" lon="15.886329209816818"><ele>992.0</ele><time>2026-04-28T09:18:48.999Z</time></trkpt><trkpt lat="38.217557144569476" lon="15.886204480293856"><ele>992.0</ele><time>2026-04-28T09:18:49.999Z</time></trkpt><trkpt lat="38.2175214101281" lon="15.88609710926308"><ele>992.0</ele><time>2026-04-28T09:18:50.999Z</time></trkpt><trkpt lat="38.217451291982066" lon="15.886018937429968"><ele>992.0</ele><time>2026-04-28T09:18:51.999Z</time></trkpt><trkpt lat="38.21732185631943" lon="15.885983289320926"><ele>992.0</ele><time>2026-04-28T09:18:52.999Z</time></trkpt><trkpt lat="38.217167652453185" lon="15.88596465845488"><ele>992.5</ele><time>2026-04-28T09:18:53.999Z</time></trkpt><trkpt lat="38.217029695555844" lon="15.885933419333917"><ele>993.0</ele><time>2026-04-28T09:18:54.999Z</time></trkpt><trkpt lat="38.216917029039315" lon="15.88589785210461"><ele>993.5</ele><time>2026-04-28T09:18:55.999Z</time></trkpt><trkpt lat="38.21682237274547" lon="15.885838133051196"><ele>994.0</ele><time>2026-04-28T09:18:56.999Z</time></trkpt><trkpt lat="38.216752784851806" lon="15.885714662493145"><ele>994.0</ele><time>2026-04-28T09:18:57.999Z</time></trkpt><trkpt lat="38.21666145075753" lon="15.885558961657756"><ele>994.0</ele><time>2026-04-28T09:18:58.999Z</time></trkpt><trkpt lat="38.21656353929937" lon="15.885408358648663"><ele>994.0</ele><time>2026-04-28T09:18:59.999Z</time></trkpt><trkpt lat="38.2164885159653" lon="15.885270399542264"><ele>994.0</ele><time>2026-04-28T09:19:00.999Z</time></trkpt><trkpt lat="38.216443818145486" lon="15.88513252965754"><ele>996.75</ele><time>2026-04-28T09:19:01.999Z</time></trkpt><trkpt lat="38.216416712425826" lon="15.884969289831798"><ele>999.5</ele><time>2026-04-28T09:19:02.999Z</time></trkpt><trkpt lat="38.21640661904141" lon="15.884771374448786"><ele>1002.25</ele><time>2026-04-28T09:19:03.999Z</time></trkpt><trkpt lat="38.21640961572767" lon="15.884570889316198"><ele>1005.0</ele><time>2026-04-28T09:19:04.999Z</time></trkpt><trkpt lat="38.21641431403589" lon="15.884416427812512"><ele>1005.0</ele><time>2026-04-28T09:19:05.999Z</time></trkpt><trkpt lat="38.21642755994111" lon="15.884284252681823"><ele>1005.0</ele><time>2026-04-28T09:19:06.999Z</time></trkpt><trkpt lat="38.216422214760044" lon="15.884178045637341"><ele>1005.0</ele><time>2026-04-28T09:19:07.999Z</time></trkpt><trkpt lat="38.21637336213662" lon="15.884094301786428"><ele>1005.0</ele><time>2026-04-28T09:19:08.999Z</time></trkpt><trkpt lat="38.21630489533318" lon="15.884049437171363"><ele>1005.0</ele><time>2026-04-28T09:19:09.999Z</time></trkpt><trkpt lat="38.21620712907234" lon="15.88402462197939"><ele>1005.0</ele><time>2026-04-28T09:19:10.999Z</time></trkpt><trkpt lat="38.2160905677355" lon="15.884055928844047"><ele>997.75</ele><time>2026-04-28T09:19:11.999Z</time></trkpt><trkpt lat="38.21595044729881" lon="15.884068671404448"><ele>990.5</ele><time>2026-04-28T09:19:12.999Z</time></trkpt><trkpt lat="38.2158228868737" lon="15.884072843126527"><ele>983.25</ele><time>2026-04-28T09:19:13.999Z</time></trkpt><trkpt lat="38.21568744763324" lon="15.884079710047896"><ele>976.0</ele><time>2026-04-28T09:19:14.999Z</time></trkpt><trkpt lat="38.215549659241184" lon="15.884046444643854"><ele>976.0</ele><time>2026-04-28T09:19:15.999Z</time></trkpt><trkpt lat="38.21540079134208" lon="15.883999253210325"><ele>976.0</ele><time>2026-04-28T09:19:16.999Z</time></trkpt><trkpt lat="38.21522705722262" lon="15.883932381278486"><ele>976.0</ele><time>2026-04-28T09:19:17.999Z</time></trkpt><trkpt lat="38.21504966898542" lon="15.883819910084686"><ele>976.0</ele><time>2026-04-28T09:19:18.999Z</time></trkpt><trkpt lat="38.214858711360854" lon="15.883739059742508"><ele>976.0</ele><time>2026-04-28T09:19:19.999Z</time></trkpt><trkpt lat="38.21469309308443" lon="15.883645951360092"><ele>976.0</ele><time>2026-04-28T09:19:20.999Z</time></trkpt><trkpt lat="38.214532433947326" lon="15.88357890411341"><ele>975.0</ele><time>2026-04-28T09:19:21.999Z</time></trkpt><trkpt lat="38.21438085376106" lon="15.883530097468407"><ele>974.0</ele><time>2026-04-28T09:19:22.999Z</time></trkpt><trkpt lat="38.214237204859906" lon="15.883506861946113"><ele>973.0</ele><time>2026-04-28T09:19:23.999Z</time></trkpt><trkpt lat="38.21412027620906" lon="15.88348649050572"><ele>972.0</ele><time>2026-04-28T09:19:24.999Z</time></trkpt><trkpt lat="38.21400067739137" lon="15.883488867890264"><ele>967.6666666666667</ele><time>2026-04-28T09:19:25.999Z</time></trkpt><trkpt lat="38.213875770682336" lon="15.883568860489692"><ele>963.3333333333334</ele><time>2026-04-28T09:19:26.999Z</time></trkpt><trkpt lat="38.213744707025604" lon="15.883696931778521"><ele>959.0</ele><time>2026-04-28T09:19:27.999Z</time></trkpt><trkpt lat="38.21362265276787" lon="15.883845313976192"><ele>959.0</ele><time>2026-04-28T09:19:28.999Z</time></trkpt><trkpt lat="38.213511584476684" lon="15.883926309658003"><ele>959.0000000000001</ele><time>2026-04-28T09:19:29.999Z</time></trkpt><trkpt lat="38.21343635792224" lon="15.884010222534053"><ele>959.0000000000001</ele><time>2026-04-28T09:19:30.999Z</time></trkpt><trkpt lat="38.213343835530296" lon="15.884045725768356"><ele>959.0</ele><time>2026-04-28T09:19:31.999Z</time></trkpt><trkpt lat="38.21323604791681" lon="15.88399976254373"><ele>959.0</ele><time>2026-04-28T09:19:32.999Z</time></trkpt><trkpt lat="38.213144841944825" lon="15.883900027191514"><ele>966.6666666666667</ele><time>2026-04-28T09:19:33.999Z</time></trkpt><trkpt lat="38.21306663604653" lon="15.88376260642727"><ele>974.3333333333333</ele><time>2026-04-28T09:19:34.999Z</time></trkpt><trkpt lat="38.21294989630444" lon="15.88361832297944"><ele>982.0</ele><time>2026-04-28T09:19:35.998Z</time></trkpt><trkpt lat="38.21284400400561" lon="15.883453180358917"><ele>973.3333333333333</ele><time>2026-04-28T09:19:37Z</time></trkpt><trkpt lat="38.2127489364546" lon="15.883280024324447"><ele>964.6666666666667</ele><time>2026-04-28T09:19:38Z</time></trkpt><trkpt lat="38.21268517153212" lon="15.883057724348125"><ele>956.0</ele><time>2026-04-28T09:19:39Z</time></trkpt><trkpt lat="38.21261864029498" lon="15.882815537187383"><ele>950.0</ele><time>2026-04-28T09:19:40Z</time></trkpt><trkpt lat="38.212537885857465" lon="15.882585688141479"><ele>944.0</ele><time>2026-04-28T09:19:41Z</time></trkpt><trkpt lat="38.21247923411447" lon="15.882373643948366"><ele>938.0</ele><time>2026-04-28T09:19:42Z</time></trkpt><trkpt lat="38.21245058334102" lon="15.882198556262452"><ele>938.0</ele><time>2026-04-28T09:19:43Z</time></trkpt><trkpt lat="38.21241441654329" lon="15.882066293990228"><ele>938.0</ele><time>2026-04-28T09:19:44Z</time></trkpt><trkpt lat="38.212416706850426" lon="15.881941245218462"><ele>938.0</ele><time>2026-04-28T09:19:45Z</time></trkpt><trkpt lat="38.2124755191569" lon="15.88184292054339"><ele>938.0</ele><time>2026-04-28T09:19:46Z</time></trkpt><trkpt lat="38.21253976348339" lon="15.881746342917422"><ele>938.0</ele><time>2026-04-28T09:19:47Z</time></trkpt><trkpt lat="38.21266387745385" lon="15.881716602984413"><ele>936.0</ele><time>2026-04-28T09:19:48Z</time></trkpt><trkpt lat="38.21277771468405" lon="15.881628595442702"><ele>934.0</ele><time>2026-04-28T09:19:49Z</time></trkpt><trkpt lat="38.21288338843077" lon="15.881575728528906"><ele>932.0</ele><time>2026-04-28T09:19:50Z</time></trkpt><trkpt lat="38.21297031829545" lon="15.881537355267081"><ele>930.0</ele><time>2026-04-28T09:19:51Z</time></trkpt><trkpt lat="38.21305881127479" lon="15.881552845818025"><ele>928.0</ele><time>2026-04-28T09:19:52Z</time></trkpt><trkpt lat="38.2131391858696" lon="15.881608416333695"><ele>929.75</ele><time>2026-04-28T09:19:53Z</time></trkpt><trkpt lat="38.21323993630106" lon="15.881673075786747"><ele>931.5</ele><time>2026-04-28T09:19:54Z</time></trkpt><trkpt lat="38.21336271670566" lon="15.881707596748626"><ele>933.25</ele><time>2026-04-28T09:19:55Z</time></trkpt><trkpt lat="38.213484395932475" lon="15.88173239185621"><ele>935.0</ele><time>2026-04-28T09:19:56Z</time></trkpt><trkpt lat="38.21361474192174" lon="15.881704862313384"><ele>935.0</ele><time>2026-04-28T09:19:57Z</time></trkpt><trkpt lat="38.21375306799916" lon="15.881651911347367"><ele>935.0</ele><time>2026-04-28T09:19:58Z</time></trkpt><trkpt lat="38.21389015721303" lon="15.881548931948322"><ele>935.0</ele><time>2026-04-28T09:19:59Z</time></trkpt><trkpt lat="38.21404510861207" lon="15.881424284530548"><ele>934.3333333333334</ele><time>2026-04-28T09:20:00Z</time></trkpt><trkpt lat="38.214210891411426" lon="15.881352943099207"><ele>933.6666666666667</ele><time>2026-04-28T09:20:01Z</time></trkpt><trkpt lat="38.21437928680005" lon="15.881300676108637"><ele>933.0</ele><time>2026-04-28T09:20:02Z</time></trkpt><trkpt lat="38.21454557861252" lon="15.881253018535759"><ele>933.0</ele><time>2026-04-28T09:20:03Z</time></trkpt><trkpt lat="38.21468604297846" lon="15.88119460249368"><ele>933.0</ele><time>2026-04-28T09:20:04Z</time></trkpt><trkpt lat="38.214806523329024" lon="15.881176423530745"><ele>933.0</ele><time>2026-04-28T09:20:05Z</time></trkpt><trkpt lat="38.21491440722463" lon="15.881181248830602"><ele>933.0</ele><time>2026-04-28T09:20:06Z</time></trkpt><trkpt lat="38.21501241517974" lon="15.881227621558898"><ele>933.6666666666667</ele><time>2026-04-28T09:20:07Z</time></trkpt><trkpt lat="38.215127203523686" lon="15.881331246018359"><ele>934.3333333333334</ele><time>2026-04-28T09:20:08Z</time></trkpt><trkpt lat="38.21526509457744" lon="15.881443863104906"><ele>935.0</ele><time>2026-04-28T09:20:09Z</time></trkpt><trkpt lat="38.21539798241536" lon="15.88158951463861"><ele>936.0</ele><time>2026-04-28T09:20:10Z</time></trkpt><trkpt lat="38.21555161472429" lon="15.881787768971037"><ele>937.0</ele><time>2026-04-28T09:20:11Z</time></trkpt><trkpt lat="38.2156874970197" lon="15.881967414794921"><ele>938.0</ele><time>2026-04-28T09:20:12Z</time></trkpt><trkpt lat="38.21579293056234" lon="15.88213868732084"><ele>938.0</ele><time>2026-04-28T09:20:13Z</time></trkpt><trkpt lat="38.21588650570924" lon="15.882278854714396"><ele>938.0</ele><time>2026-04-28T09:20:14Z</time></trkpt><trkpt lat="38.21596471991967" lon="15.882334816587885"><ele>938.0</ele><time>2026-04-28T09:20:15Z</time></trkpt><trkpt lat="38.21604192405592" lon="15.882375153783517"><ele>938.0</ele><time>2026-04-28T09:20:16Z</time></trkpt><trkpt lat="38.21613270133148" lon="15.8823728449549"><ele>938.0</ele><time>2026-04-28T09:20:17Z</time></trkpt><trkpt lat="38.21624884743631" lon="15.882341614106192"><ele>938.0</ele><time>2026-04-28T09:20:18Z</time></trkpt><trkpt lat="38.21636937811875" lon="15.88228339399171"><ele>938.0</ele><time>2026-04-28T09:20:18.999Z</time></trkpt><trkpt lat="38.21645970261445" lon="15.88217150339328"><ele>938.0</ele><time>2026-04-28T09:20:19.999Z</time></trkpt><trkpt lat="38.216545280769004" lon="15.882024403340072"><ele>938.0</ele><time>2026-04-28T09:20:20.999Z</time></trkpt><trkpt lat="38.216614102486375" lon="15.88183227729256"><ele>945.0</ele><time>2026-04-28T09:20:21.999Z</time></trkpt><trkpt lat="38.216714479705516" lon="15.881673047993816"><ele>952.0</ele><time>2026-04-28T09:20:22.999Z</time></trkpt><trkpt lat="38.21679235964174" lon="15.881511559530722"><ele>959.0</ele><time>2026-04-28T09:20:23.999Z</time></trkpt><trkpt lat="38.21686807118776" lon="15.881374971111333"><ele>966.0</ele><time>2026-04-28T09:20:24.999Z</time></trkpt><trkpt lat="38.21692906951804" lon="15.88130475907876"><ele>966.0</ele><time>2026-04-28T09:20:25.999Z</time></trkpt><trkpt lat="38.21702300620485" lon="15.88127665537745"><ele>966.0</ele><time>2026-04-28T09:20:26.999Z</time></trkpt><trkpt lat="38.2171301581883" lon="15.881276821245981"><ele>966.0</ele><time>2026-04-28T09:20:27.999Z</time></trkpt><trkpt lat="38.21726492525613" lon="15.881290444498205"><ele>966.0</ele><time>2026-04-28T09:20:28.999Z</time></trkpt><trkpt lat="38.21743904948136" lon="15.88130441039866"><ele>964.5</ele><time>2026-04-28T09:20:29.999Z</time></trkpt><trkpt lat="38.21757346963108" lon="15.88132916193971"><ele>963.0</ele><time>2026-04-28T09:20:30.999Z</time></trkpt><trkpt lat="38.21769028597114" lon="15.881383765300127"><ele>961.5</ele><time>2026-04-28T09:20:31.999Z</time></trkpt><trkpt lat="38.21779447225619" lon="15.881502219413477"><ele>960.0</ele><time>2026-04-28T09:20:32.999Z</time></trkpt><trkpt lat="38.21790421107513" lon="15.881631042220526"><ele>960.0</ele><time>2026-04-28T09:20:33.999Z</time></trkpt><trkpt lat="38.2179995675927" lon="15.88175755478022"><ele>960.0</ele><time>2026-04-28T09:20:34.999Z</time></trkpt><trkpt lat="38.218064768728674" lon="15.88191011685936"><ele>960.0</ele><time>2026-04-28T09:20:35.999Z</time></trkpt><trkpt lat="38.21810429395753" lon="15.882087627836214"><ele>960.0</ele><time>2026-04-28T09:20:36.999Z</time></trkpt><trkpt lat="38.21814159224271" lon="15.882272424515133"><ele>962.6</ele><time>2026-04-28T09:20:37.999Z</time></trkpt><trkpt lat="38.21818233198812" lon="15.88240313335262"><ele>965.2</ele><time>2026-04-28T09:20:38.999Z</time></trkpt><trkpt lat="38.21823316858851" lon="15.882501953779737"><ele>967.8</ele><time>2026-04-28T09:20:39.999Z</time></trkpt><trkpt lat="38.21830745755231" lon="15.88259581869066"><ele>970.4</ele><time>2026-04-28T09:20:40.999Z</time></trkpt><trkpt lat="38.2184464188196" lon="15.882613458341622"><ele>973.0</ele><time>2026-04-28T09:20:41.999Z</time></trkpt><trkpt lat="38.21859324557084" lon="15.882621728798561"><ele>973.0</ele><time>2026-04-28T09:20:42.999Z</time></trkpt><trkpt lat="38.21875312149591" lon="15.8826106799824"><ele>973.0</ele><time>2026-04-28T09:20:43.999Z</time></trkpt><trkpt lat="38.21892343547206" lon="15.882596344875648"><ele>973.0</ele><time>2026-04-28T09:20:44.999Z</time></trkpt><trkpt lat="38.21909590360353" lon="15.882571723642517"><ele>978.3333333333333</ele><time>2026-04-28T09:20:45.999Z</time></trkpt><trkpt lat="38.21927686085733" lon="15.882494955677059"><ele>983.6666666666667</ele><time>2026-04-28T09:20:46.999Z</time></trkpt><trkpt lat="38.219446990485416" lon="15.882407481880668"><ele>989.0</ele><time>2026-04-28T09:20:47.999Z</time></trkpt><trkpt lat="38.21958709905473" lon="15.882342947925228"><ele>989.0</ele><time>2026-04-28T09:20:48.999Z</time></trkpt><trkpt lat="38.219694851760664" lon="15.88227721358982"><ele>989.0</ele><time>2026-04-28T09:20:49.999Z</time></trkpt><trkpt lat="38.21979136607221" lon="15.882158956815084"><ele>989.0</ele><time>2026-04-28T09:20:50.999Z</time></trkpt><trkpt lat="38.219881174109" lon="15.881982911623163"><ele>989.0</ele><time>2026-04-28T09:20:51.999Z</time></trkpt><trkpt lat="38.219993058950024" lon="15.881857190983714"><ele>991.5</ele><time>2026-04-28T09:20:52.999Z</time></trkpt><trkpt lat="38.220107722222835" lon="15.881751070922624"><ele>994.0</ele><time>2026-04-28T09:20:53.999Z</time></trkpt><trkpt lat="38.22023580143752" lon="15.88173059074294"><ele>996.5</ele><time>2026-04-28T09:20:54.999Z</time></trkpt><trkpt lat="38.220320739481025" lon="15.881672597322641"><ele>999.0</ele><time>2026-04-28T09:20:55.999Z</time></trkpt><trkpt lat="38.22038783066345" lon="15.88158222927436"><ele>999.0</ele><time>2026-04-28T09:20:56.999Z</time></trkpt><trkpt lat="38.22045215744336" lon="15.881438022055448"><ele>999.0</ele><time>2026-04-28T09:20:57.999Z</time></trkpt><trkpt lat="38.22052186199748" lon="15.88128390647653"><ele>999.0</ele><time>2026-04-28T09:20:58.999Z</time></trkpt><trkpt lat="38.22060097242373" lon="15.881101792721246"><ele>999.0</ele><time>2026-04-28T09:20:59.999Z</time></trkpt><trkpt lat="38.220682489972035" lon="15.8808976195405"><ele>997.4000000000001</ele><time>2026-04-28T09:21:00.999Z</time></trkpt><trkpt lat="38.2207557120984" lon="15.880726150889249"><ele>995.8000000000001</ele><time>2026-04-28T09:21:01.999Z</time></trkpt><trkpt lat="38.2208070716526" lon="15.880600822584448"><ele>994.1999999999999</ele><time>2026-04-28T09:21:02.999Z</time></trkpt><trkpt lat="38.22082599502536" lon="15.880493228435567"><ele>992.5999999999999</ele><time>2026-04-28T09:21:03.999Z</time></trkpt><trkpt lat="38.22079442105542" lon="15.880386672835005"><ele>991.0</ele><time>2026-04-28T09:21:04.999Z</time></trkpt><trkpt lat="38.220711723565195" lon="15.880314025931007"><ele>994.0</ele><time>2026-04-28T09:21:05.999Z</time></trkpt><trkpt lat="38.220609255562195" lon="15.880300611242934"><ele>997.0</ele><time>2026-04-28T09:21:06.999Z</time></trkpt><trkpt lat="38.220506446735236" lon="15.88034573259392"><ele>1000.0</ele><time>2026-04-28T09:21:07.999Z</time></trkpt><trkpt lat="38.22039452431713" lon="15.88043970776738"><ele>1003.0</ele><time>2026-04-28T09:21:08.999Z</time></trkpt><trkpt lat="38.22025688230672" lon="15.880523712428134"><ele>1003.0</ele><time>2026-04-28T09:21:09.999Z</time></trkpt><trkpt lat="38.22009940695368" lon="15.880562911165356"><ele>1003.0</ele><time>2026-04-28T09:21:10.999Z</time></trkpt><trkpt lat="38.21993158109863" lon="15.88056668612889"><ele>1003.0</ele><time>2026-04-28T09:21:11.999Z</time></trkpt><trkpt lat="38.21976863590627" lon="15.880568651287273"><ele>1003.5</ele><time>2026-04-28T09:21:12.999Z</time></trkpt><trkpt lat="38.21961889431266" lon="15.880530129512497"><ele>1004.0</ele><time>2026-04-28T09:21:13.999Z</time></trkpt><trkpt lat="38.219485471566855" lon="15.880474079527081"><ele>1004.5</ele><time>2026-04-28T09:21:14.999Z</time></trkpt><trkpt lat="38.219368418990086" lon="15.880428625418492"><ele>1005.0</ele><time>2026-04-28T09:21:15.999Z</time></trkpt><trkpt lat="38.219245626069764" lon="15.880427829296583"><ele>1005.0</ele><time>2026-04-28T09:21:16.999Z</time></trkpt><trkpt lat="38.219118372812915" lon="15.88048194573042"><ele>1005.0</ele><time>2026-04-28T09:21:17.999Z</time></trkpt><trkpt lat="38.21897148448323" lon="15.880554662586881"><ele>1005.0</ele><time>2026-04-28T09:21:18.999Z</time></trkpt><trkpt lat="38.21884504146196" lon="15.880610473273412"><ele>1005.0</ele><time>2026-04-28T09:21:19.999Z</time></trkpt><trkpt lat="38.218729570384895" lon="15.880587064920007"><ele>1003.75</ele><time>2026-04-28T09:21:20.999Z</time></trkpt><trkpt lat="38.2186127546491" lon="15.880558477597955"><ele>1002.5</ele><time>2026-04-28T09:21:21.999Z</time></trkpt><trkpt lat="38.21848672019945" lon="15.88046852320161"><ele>1001.25</ele><time>2026-04-28T09:21:22.999Z</time></trkpt><trkpt lat="38.21834377206851" lon="15.880356381277807"><ele>1000.0</ele><time>2026-04-28T09:21:23.999Z</time></trkpt><trkpt lat="38.21818918150206" lon="15.880255185479035"><ele>998.0</ele><time>2026-04-28T09:21:24.999Z</time></trkpt><trkpt lat="38.2180568202842" lon="15.88015621978278"><ele>996.0</ele><time>2026-04-28T09:21:25.999Z</time></trkpt><trkpt lat="38.21793240736487" lon="15.880083827624416"><ele>994.0</ele><time>2026-04-28T09:21:26.999Z</time></trkpt><trkpt lat="38.21778502128216" lon="15.88004395785727"><ele>992.0</ele><time>2026-04-28T09:21:27.999Z</time></trkpt><trkpt lat="38.21761320226351" lon="15.880050913061885"><ele>996.25</ele><time>2026-04-28T09:21:28.999Z</time></trkpt><trkpt lat="38.217451278276606" lon="15.880083043609577"><ele>1000.5</ele><time>2026-04-28T09:21:29.999Z</time></trkpt><trkpt lat="38.21731481530925" lon="15.880085070703041"><ele>1004.75</ele><time>2026-04-28T09:21:30.999Z</time></trkpt><trkpt lat="38.217182437328255" lon="15.880007178762785"><ele>1009.0</ele><time>2026-04-28T09:21:31.999Z</time></trkpt><trkpt lat="38.21704237193952" lon="15.879900025480557"><ele>1010.3333333333333</ele><time>2026-04-28T09:21:32.999Z</time></trkpt><trkpt lat="38.21688511261033" lon="15.879781246332271"><ele>1011.6666666666667</ele><time>2026-04-28T09:21:33.999Z</time></trkpt><trkpt lat="38.21674670857601" lon="15.879676361434127"><ele>1013.0</ele><time>2026-04-28T09:21:34.999Z</time></trkpt><trkpt lat="38.21664164171376" lon="15.879596679220636"><ele>1013.0</ele><time>2026-04-28T09:21:35.999Z</time></trkpt><trkpt lat="38.21656015420386" lon="15.87953151199564"><ele>1013.0</ele><time>2026-04-28T09:21:36.999Z</time></trkpt><trkpt lat="38.21648837900243" lon="15.87945210083626"><ele>1013.0</ele><time>2026-04-28T09:21:37.999Z</time></trkpt><trkpt lat="38.21643648944751" lon="15.8793529187048"><ele>1013.0</ele><time>2026-04-28T09:21:38.999Z</time></trkpt><trkpt lat="38.216432992671926" lon="15.879214924030338"><ele>1013.0</ele><time>2026-04-28T09:21:39.998Z</time></trkpt><trkpt lat="38.21648106955227" lon="15.879080352130993"><ele>1012.5</ele><time>2026-04-28T09:21:40.998Z</time></trkpt><trkpt lat="38.216558164216046" lon="15.878945580730901"><ele>1012.0</ele><time>2026-04-28T09:21:41.998Z</time></trkpt><trkpt lat="38.21664634123068" lon="15.878786008351643"><ele>1011.5</ele><time>2026-04-28T09:21:43Z</time></trkpt><trkpt lat="38.21673497568459" lon="15.878629515777767"><ele>1011.0</ele><time>2026-04-28T09:21:44Z</time></trkpt><trkpt lat="38.21684432924382" lon="15.878524590664783"><ele>1011.0</ele><time>2026-04-28T09:21:45Z</time></trkpt><trkpt lat="38.21697124079024" lon="15.878442735248862"><ele>1011.0</ele><time>2026-04-28T09:21:46Z</time></trkpt><trkpt lat="38.217122811849634" lon="15.878385610535425"><ele>1011.0</ele><time>2026-04-28T09:21:47Z</time></trkpt><trkpt lat="38.21727870879546" lon="15.878358914239088"><ele>1013.5</ele><time>2026-04-28T09:21:48Z</time></trkpt><trkpt lat="38.217411305618754" lon="15.878355133847453"><ele>1016.0</ele><time>2026-04-28T09:21:49Z</time></trkpt><trkpt lat="38.217529885997216" lon="15.87830305776003"><ele>1018.5</ele><time>2026-04-28T09:21:50Z</time></trkpt><trkpt lat="38.217644067376625" lon="15.878171037926911"><ele>1021.0</ele><time>2026-04-28T09:21:51Z</time></trkpt><trkpt lat="38.217760506020284" lon="15.878016952889027"><ele>1021.0</ele><time>2026-04-28T09:21:52Z</time></trkpt><trkpt lat="38.217859028560994" lon="15.877871479560131"><ele>1021.0</ele><time>2026-04-28T09:21:53Z</time></trkpt><trkpt lat="38.21792008644141" lon="15.8777264567333"><ele>1021.0</ele><time>2026-04-28T09:21:54Z</time></trkpt><trkpt lat="38.21794944595632" lon="15.877539818161644"><ele>1021.0</ele><time>2026-04-28T09:21:55Z</time></trkpt><trkpt lat="38.217949458810054" lon="15.877311779437994"><ele>1022.3333333333333</ele><time>2026-04-28T09:21:56Z</time></trkpt><trkpt lat="38.217940176917345" lon="15.877089493731992"><ele>1023.6666666666667</ele><time>2026-04-28T09:21:57Z</time></trkpt><trkpt lat="38.2179048309102" lon="15.87688006541416"><ele>1025.0</ele><time>2026-04-28T09:21:58Z</time></trkpt><trkpt lat="38.217819829227594" lon="15.87665608549064"><ele>1028.5</ele><time>2026-04-28T09:21:59Z</time></trkpt><trkpt lat="38.217709939598336" lon="15.876414803394969"><ele>1032.0</ele><time>2026-04-28T09:22:00Z</time></trkpt><trkpt lat="38.2176129350003" lon="15.876139429641054"><ele>1032.5</ele><time>2026-04-28T09:22:01Z</time></trkpt><trkpt lat="38.21749550364069" lon="15.875847567258822"><ele>1033.0</ele><time>2026-04-28T09:22:02Z</time></trkpt><trkpt lat="38.217358072420986" lon="15.875543080848102"><ele>1035.5</ele><time>2026-04-28T09:22:03Z</time></trkpt><trkpt lat="38.21722824239195" lon="15.87522610062083"><ele>1038.0</ele><time>2026-04-28T09:22:04Z</time></trkpt><trkpt lat="38.21711086357952" lon="15.874945142102241"><ele>1038.3333333333333</ele><time>2026-04-28T09:22:05Z</time></trkpt><trkpt lat="38.21703415562001" lon="15.874703734023269"><ele>1038.6666666666665</ele><time>2026-04-28T09:22:06Z</time></trkpt><trkpt lat="38.21694852131825" lon="15.874520973171471"><ele>1039.0</ele><time>2026-04-28T09:22:07Z</time></trkpt><trkpt lat="38.21688761457553" lon="15.874375109975581"><ele>1039.5</ele><time>2026-04-28T09:22:08Z</time></trkpt><trkpt lat="38.21681394658538" lon="15.874261452592364"><ele>1040.0</ele><time>2026-04-28T09:22:09Z</time></trkpt><trkpt lat="38.21670429038907" lon="15.874173392399664"><ele>1040.5</ele><time>2026-04-28T09:22:10Z</time></trkpt><trkpt lat="38.21654874656028" lon="15.874131205110565"><ele>1041.0</ele><time>2026-04-28T09:22:11Z</time></trkpt><trkpt lat="38.21637992503475" lon="15.874080902325272"><ele>1043.0</ele><time>2026-04-28T09:22:12Z</time></trkpt><trkpt lat="38.2162308654633" lon="15.874036417547087"><ele>1045.0</ele><time>2026-04-28T09:22:13Z</time></trkpt><trkpt lat="38.216130837524894" lon="15.873995050146647"><ele>1047.0</ele><time>2026-04-28T09:22:14Z</time></trkpt><trkpt lat="38.21605142634074" lon="15.873930549780455"><ele>1049.0</ele><time>2026-04-28T09:22:15Z</time></trkpt><trkpt lat="38.21600047412362" lon="15.873836223525641"><ele>1051.0</ele><time>2026-04-28T09:22:16Z</time></trkpt><trkpt lat="38.21598933199606" lon="15.873719327428903"><ele>1051.0</ele><time>2026-04-28T09:22:17Z</time></trkpt><trkpt lat="38.216007121615924" lon="15.873587190055199"><ele>1051.0</ele><time>2026-04-28T09:22:18Z</time></trkpt><trkpt lat="38.21611570697129" lon="15.873474113942812"><ele>1051.0</ele><time>2026-04-28T09:22:19Z</time></trkpt><trkpt lat="38.21617377448605" lon="15.87333670994451"><ele>1051.0</ele><time>2026-04-28T09:22:20Z</time></trkpt><trkpt lat="38.21626603974726" lon="15.873268476335895"><ele>1051.0</ele><time>2026-04-28T09:22:21Z</time></trkpt><trkpt lat="38.216375514282" lon="15.873259591820794"><ele>1051.0</ele><time>2026-04-28T09:22:22Z</time></trkpt><trkpt lat="38.21649557685699" lon="15.873330306479987"><ele>1051.0</ele><time>2026-04-28T09:22:23Z</time></trkpt><trkpt lat="38.21662363221339" lon="15.87337121468166"><ele>1051.0</ele><time>2026-04-28T09:22:23.999Z</time></trkpt><trkpt lat="38.216735900145764" lon="15.873378311727471"><ele>1050.2</ele><time>2026-04-28T09:22:24.999Z</time></trkpt><trkpt lat="38.21682358923639" lon="15.873337371526581"><ele>1049.3999999999999</ele><time>2026-04-28T09:22:25.999Z</time></trkpt><trkpt lat="38.216884772526186" lon="15.873268605286203"><ele>1048.6</ele><time>2026-04-28T09:22:26.999Z</time></trkpt><trkpt lat="38.21690868920532" lon="15.873174508374191"><ele>1047.8</ele><time>2026-04-28T09:22:27.999Z</time></trkpt><trkpt lat="38.21689908364296" lon="15.873059200632676"><ele>1047.0</ele><time>2026-04-28T09:22:28.999Z</time></trkpt><trkpt lat="38.21684905263041" lon="15.872904434624973"><ele>1047.0</ele><time>2026-04-28T09:22:29.999Z</time></trkpt><trkpt lat="38.216793631084784" lon="15.872715846221627"><ele>1047.0</ele><time>2026-04-28T09:22:30.999Z</time></trkpt><trkpt lat="38.21673006005134" lon="15.872519161531017"><ele>1047.0</ele><time>2026-04-28T09:22:31.999Z</time></trkpt><trkpt lat="38.2166623056055" lon="15.872309533635198"><ele>1048.3333333333333</ele><time>2026-04-28T09:22:32.999Z</time></trkpt><trkpt lat="38.216571729185546" lon="15.872083593789077"><ele>1049.6666666666665</ele><time>2026-04-28T09:22:33.999Z</time></trkpt><trkpt lat="38.21649435190836" lon="15.871838718903454"><ele>1051.0</ele><time>2026-04-28T09:22:34.999Z</time></trkpt><trkpt lat="38.21641687415063" lon="15.87159798842394"><ele>1055.5</ele><time>2026-04-28T09:22:35.999Z</time></trkpt><trkpt lat="38.21633283853188" lon="15.871339206453797"><ele>1060.0</ele><time>2026-04-28T09:22:36.999Z</time></trkpt><trkpt lat="38.216235545355396" lon="15.871054303478372"><ele>1060.5</ele><time>2026-04-28T09:22:37.999Z</time></trkpt><trkpt lat="38.21616099502393" lon="15.870761921998376"><ele>1061.0</ele><time>2026-04-28T09:22:38.999Z</time></trkpt><trkpt lat="38.216058608386376" lon="15.870507756873986"><ele>1061.0</ele><time>2026-04-28T09:22:39.999Z</time></trkpt><trkpt lat="38.21597358508154" lon="15.870243675272723"><ele>1061.0</ele><time>2026-04-28T09:22:40.999Z</time></trkpt><trkpt lat="38.21588342947067" lon="15.869987090953876"><ele>1061.0</ele><time>2026-04-28T09:22:41.999Z</time></trkpt><trkpt lat="38.21578358884728" lon="15.869728763603689"><ele>1063.0</ele><time>2026-04-28T09:22:42.999Z</time></trkpt><trkpt lat="38.21567017142672" lon="15.869470496395444"><ele>1065.0</ele><time>2026-04-28T09:22:43.999Z</time></trkpt><trkpt lat="38.21555450879851" lon="15.869217916394087"><ele>1065.6666666666667</ele><time>2026-04-28T09:22:44.999Z</time></trkpt><trkpt lat="38.21544353343238" lon="15.86896858668019"><ele>1066.3333333333335</ele><time>2026-04-28T09:22:45.999Z</time></trkpt><trkpt lat="38.21535525445683" lon="15.868727645358666"><ele>1067.0</ele><time>2026-04-28T09:22:46.999Z</time></trkpt><trkpt lat="38.21523719030877" lon="15.868505918306907"><ele>1067.5</ele><time>2026-04-28T09:22:47.999Z</time></trkpt><trkpt lat="38.21512138218437" lon="15.868266769228828"><ele>1068.0</ele><time>2026-04-28T09:22:48.999Z</time></trkpt><trkpt lat="38.21498241986749" lon="15.86801928084877"><ele>1068.0</ele><time>2026-04-28T09:22:49.999Z</time></trkpt><trkpt lat="38.21483813183703" lon="15.867757377838082"><ele>1068.0</ele><time>2026-04-28T09:22:50.999Z</time></trkpt><trkpt lat="38.21468922089872" lon="15.867482032378813"><ele>1070.5</ele><time>2026-04-28T09:22:51.999Z</time></trkpt><trkpt lat="38.21453291244348" lon="15.867192981382175"><ele>1073.0</ele><time>2026-04-28T09:22:52.999Z</time></trkpt><trkpt lat="38.21437142511652" lon="15.866895611508133"><ele>1073.5</ele><time>2026-04-28T09:22:53.999Z</time></trkpt><trkpt lat="38.21422134570125" lon="15.866618195759038"><ele>1074.0</ele><time>2026-04-28T09:22:54.999Z</time></trkpt><trkpt lat="38.214092025194056" lon="15.866341834902101"><ele>1076.5</ele><time>2026-04-28T09:22:55.999Z</time></trkpt><trkpt lat="38.213946485240335" lon="15.866072278389737"><ele>1079.0</ele><time>2026-04-28T09:22:56.999Z</time></trkpt><trkpt lat="38.213810325124626" lon="15.865817329452184"><ele>1079.0</ele><time>2026-04-28T09:22:57.999Z</time></trkpt><trkpt lat="38.21366994539937" lon="15.865597003513816"><ele>1079.0</ele><time>2026-04-28T09:22:58.999Z</time></trkpt><trkpt lat="38.21356120503238" lon="15.865395787828696"><ele>1079.0</ele><time>2026-04-28T09:22:59.999Z</time></trkpt><trkpt lat="38.21347069034931" lon="15.865221367329777"><ele>1079.3333333333335</ele><time>2026-04-28T09:23:00.999Z</time></trkpt><trkpt lat="38.213389174722124" lon="15.865055530596255"><ele>1079.6666666666667</ele><time>2026-04-28T09:23:01.999Z</time></trkpt><trkpt lat="38.21332433627327" lon="15.864878151402207"><ele>1080.0</ele><time>2026-04-28T09:23:02.999Z</time></trkpt><trkpt lat="38.213289226648804" lon="15.86466384473477"><ele>1080.0</ele><time>2026-04-28T09:23:03.999Z</time></trkpt><trkpt lat="38.21327180907621" lon="15.864413192368163"><ele>1080.0</ele><time>2026-04-28T09:23:04.999Z</time></trkpt><trkpt lat="38.213257920257526" lon="15.86413367223145"><ele>1080.0</ele><time>2026-04-28T09:23:05.999Z</time></trkpt><trkpt lat="38.21324376208549" lon="15.863824792031757"><ele>1080.0</ele><time>2026-04-28T09:23:06.999Z</time></trkpt><trkpt lat="38.21323499516364" lon="15.863514285343305"><ele>1080.0</ele><time>2026-04-28T09:23:07.999Z</time></trkpt><trkpt lat="38.21322655055929" lon="15.863223709540119"><ele>1080.0</ele><time>2026-04-28T09:23:08.999Z</time></trkpt><trkpt lat="38.213220485483035" lon="15.862959283959864"><ele>1080.0</ele><time>2026-04-28T09:23:09.999Z</time></trkpt><trkpt lat="38.21321621927966" lon="15.862726760300992"><ele>1080.0</ele><time>2026-04-28T09:23:10.999Z</time></trkpt><trkpt lat="38.21320718467498" lon="15.862541106711324"><ele>1079.5</ele><time>2026-04-28T09:23:11.999Z</time></trkpt><trkpt lat="38.21318359805519" lon="15.86237591497385"><ele>1079.0</ele><time>2026-04-28T09:23:12.999Z</time></trkpt><trkpt lat="38.213124397719604" lon="15.862229657723848"><ele>1078.5</ele><time>2026-04-28T09:23:13.999Z</time></trkpt><trkpt lat="38.2130229444834" lon="15.862104270729363"><ele>1078.0</ele><time>2026-04-28T09:23:14.999Z</time></trkpt><trkpt lat="38.21287083641633" lon="15.862012210817165"><ele>1078.5</ele><time>2026-04-28T09:23:15.999Z</time></trkpt><trkpt lat="38.21271790962784" lon="15.861888546018232"><ele>1079.0</ele><time>2026-04-28T09:23:16.999Z</time></trkpt><trkpt lat="38.21258402250744" lon="15.861809076912989"><ele>1079.5</ele><time>2026-04-28T09:23:17.999Z</time></trkpt><trkpt lat="38.2124965033963" lon="15.861738964877834"><ele>1080.0</ele><time>2026-04-28T09:23:18.999Z</time></trkpt><trkpt lat="38.212419119239925" lon="15.861662967016926"><ele>1080.0</ele><time>2026-04-28T09:23:19.999Z</time></trkpt><trkpt lat="38.21242039271689" lon="15.861537122360218"><ele>1080.0</ele><time>2026-04-28T09:23:20.999Z</time></trkpt><trkpt lat="38.21244651625453" lon="15.861395851098532"><ele>1080.0</ele><time>2026-04-28T09:23:21.999Z</time></trkpt><trkpt lat="38.212500870698506" lon="15.86123728863838"><ele>1080.0</ele><time>2026-04-28T09:23:22.999Z</time></trkpt><trkpt lat="38.212548894879724" lon="15.861114754596619"><ele>1080.0</ele><time>2026-04-28T09:23:23.999Z</time></trkpt><trkpt lat="38.212603834193224" lon="15.861023541290871"><ele>1080.0</ele><time>2026-04-28T09:23:24.999Z</time></trkpt><trkpt lat="38.212704004614935" lon="15.860985308974321"><ele>1080.0</ele><time>2026-04-28T09:23:25.999Z</time></trkpt><trkpt lat="38.212828922161584" lon="15.86103025977876"><ele>1080.0</ele><time>2026-04-28T09:23:26.999Z</time></trkpt><trkpt lat="38.21295795199002" lon="15.86104135774993"><ele>1080.0</ele><time>2026-04-28T09:23:27.999Z</time></trkpt><trkpt lat="38.213054255308" lon="15.861015052424321"><ele>1080.0</ele><time>2026-04-28T09:23:28.999Z</time></trkpt><trkpt lat="38.21313695816934" lon="15.860927403567455"><ele>1080.0</ele><time>2026-04-28T09:23:29.999Z</time></trkpt><trkpt lat="38.21319361724354" lon="15.86078100659958"><ele>1080.0</ele><time>2026-04-28T09:23:30.999Z</time></trkpt><trkpt lat="38.213223014637954" lon="15.860575653115777"><ele>1081.0</ele><time>2026-04-28T09:23:31.999Z</time></trkpt><trkpt lat="38.21327991721849" lon="15.86038635518058"><ele>1082.0</ele><time>2026-04-28T09:23:32.999Z</time></trkpt><trkpt lat="38.21331855444288" lon="15.860146247218937"><ele>1083.0</ele><time>2026-04-28T09:23:33.999Z</time></trkpt><trkpt lat="38.21336911009267" lon="15.859934405041514"><ele>1084.0</ele><time>2026-04-28T09:23:34.999Z</time></trkpt><trkpt lat="38.213400104035635" lon="15.85976106764145"><ele>1085.0</ele><time>2026-04-28T09:23:35.999Z</time></trkpt><trkpt lat="38.21340237026433" lon="15.859610064111411"><ele>1086.0</ele><time>2026-04-28T09:23:36.999Z</time></trkpt><trkpt lat="38.213361183142524" lon="15.859461893450902"><ele>1087.0</ele><time>2026-04-28T09:23:37.999Z</time></trkpt><trkpt lat="38.21327656642773" lon="15.859323863028381"><ele>1086.75</ele><time>2026-04-28T09:23:38.999Z</time></trkpt><trkpt lat="38.21315672350078" lon="15.85922083277843"><ele>1086.5</ele><time>2026-04-28T09:23:39.999Z</time></trkpt><trkpt lat="38.21303234118016" lon="15.859144690453371"><ele>1086.25</ele><time>2026-04-28T09:23:40.999Z</time></trkpt><trkpt lat="38.212932197172236" lon="15.85905762222775"><ele>1086.0</ele><time>2026-04-28T09:23:41.999Z</time></trkpt><trkpt lat="38.21282820460926" lon="15.85895657076547"><ele>1087.3333333333333</ele><time>2026-04-28T09:23:42.998Z</time></trkpt><trkpt lat="38.212688314140166" lon="15.858844837895317"><ele>1088.6666666666665</ele><time>2026-04-28T09:23:43.998Z</time></trkpt><trkpt lat="38.21252749086799" lon="15.858710182093308"><ele>1090.0</ele><time>2026-04-28T09:23:44.998Z</time></trkpt><trkpt lat="38.21234619926292" lon="15.858544721229732"><ele>1091.3333333333333</ele><time>2026-04-28T09:23:45.998Z</time></trkpt><trkpt lat="38.2121682862131" lon="15.85837699955325"><ele>1092.6666666666667</ele><time>2026-04-28T09:23:46.998Z</time></trkpt><trkpt lat="38.21200701698912" lon="15.858227190683122"><ele>1094.0</ele><time>2026-04-28T09:23:47.998Z</time></trkpt><trkpt lat="38.21184947485553" lon="15.858097410101719"><ele>1094.0</ele><time>2026-04-28T09:23:49Z</time></trkpt><trkpt lat="38.21172738337301" lon="15.857986457244696"><ele>1094.0</ele><time>2026-04-28T09:23:50Z</time></trkpt><trkpt lat="38.21159684722036" lon="15.857914350931782"><ele>1094.0</ele><time>2026-04-28T09:23:51Z</time></trkpt><trkpt lat="38.21143464938522" lon="15.857883501775753"><ele>1093.6666666666667</ele><time>2026-04-28T09:23:52Z</time></trkpt><trkpt lat="38.21123989206849" lon="15.85792237192255"><ele>1093.3333333333333</ele><time>2026-04-28T09:23:53Z</time></trkpt><trkpt lat="38.211027149428645" lon="15.857942133550992"><ele>1093.0</ele><time>2026-04-28T09:23:54Z</time></trkpt><trkpt lat="38.21078792479561" lon="15.857969653270251"><ele>1095.0</ele><time>2026-04-28T09:23:55Z</time></trkpt><trkpt lat="38.21055979886041" lon="15.857983958328456"><ele>1097.0</ele><time>2026-04-28T09:23:56Z</time></trkpt><trkpt lat="38.210322287855526" lon="15.85798616771643"><ele>1097.0</ele><time>2026-04-28T09:23:57Z</time></trkpt><trkpt lat="38.21007387731591" lon="15.857982197471756"><ele>1097.0</ele><time>2026-04-28T09:23:58Z</time></trkpt><trkpt lat="38.209815619715094" lon="15.85797715816583"><ele>1101.6666666666667</ele><time>2026-04-28T09:23:59Z</time></trkpt><trkpt lat="38.20958089567073" lon="15.857978524900506"><ele>1106.3333333333333</ele><time>2026-04-28T09:24:00Z</time></trkpt><trkpt lat="38.209372543407156" lon="15.85797984655183"><ele>1111.0</ele><time>2026-04-28T09:24:01Z</time></trkpt><trkpt lat="38.20919992840858" lon="15.858007026635788"><ele>1111.0</ele><time>2026-04-28T09:24:02Z</time></trkpt><trkpt lat="38.20906642206231" lon="15.858010304653316"><ele>1111.0</ele><time>2026-04-28T09:24:03Z</time></trkpt><trkpt lat="38.208960408369286" lon="15.85798388112237"><ele>1111.0</ele><time>2026-04-28T09:24:04Z</time></trkpt><trkpt lat="38.20887211428297" lon="15.857954811349051"><ele>1111.0</ele><time>2026-04-28T09:24:05Z</time></trkpt><trkpt lat="38.20879359623861" lon="15.857901978975539"><ele>1111.0</ele><time>2026-04-28T09:24:06Z</time></trkpt><trkpt lat="38.20872463058024" lon="15.857800973495694"><ele>1114.25</ele><time>2026-04-28T09:24:07Z</time></trkpt><trkpt lat="38.20870465240879" lon="15.857636394117629"><ele>1117.5</ele><time>2026-04-28T09:24:08Z</time></trkpt><trkpt lat="38.20871072455099" lon="15.85744196845872"><ele>1120.75</ele><time>2026-04-28T09:24:09Z</time></trkpt><trkpt lat="38.20872669039469" lon="15.857240709359901"><ele>1124.0</ele><time>2026-04-28T09:24:10Z</time></trkpt><trkpt lat="38.20873943162268" lon="15.857040047074891"><ele>1124.0</ele><time>2026-04-28T09:24:11Z</time></trkpt><trkpt lat="38.2087567257937" lon="15.856810347644258"><ele>1124.0</ele><time>2026-04-28T09:24:12Z</time></trkpt><trkpt lat="38.20880231220594" lon="15.85657435942202"><ele>1124.0</ele><time>2026-04-28T09:24:13Z</time></trkpt><trkpt lat="38.208864061852296" lon="15.856323188934685"><ele>1122.5</ele><time>2026-04-28T09:24:14Z</time></trkpt><trkpt lat="38.20893598882066" lon="15.856023645048081"><ele>1121.0</ele><time>2026-04-28T09:24:15Z</time></trkpt><trkpt lat="38.20900694281545" lon="15.855756100753661"><ele>1118.3333333333335</ele><time>2026-04-28T09:24:16Z</time></trkpt><trkpt lat="38.2090705805291" lon="15.855507155976362"><ele>1115.6666666666667</ele><time>2026-04-28T09:24:17Z</time></trkpt><trkpt lat="38.20911808201619" lon="15.855302763250926"><ele>1113.0</ele><time>2026-04-28T09:24:18Z</time></trkpt><trkpt lat="38.20913313310697" lon="15.855156655445123"><ele>1113.0</ele><time>2026-04-28T09:24:19Z</time></trkpt><trkpt lat="38.20913507270914" lon="15.855001846224072"><ele>1113.0</ele><time>2026-04-28T09:24:20Z</time></trkpt><trkpt lat="38.20907089079181" lon="15.854868053745694"><ele>1113.0</ele><time>2026-04-28T09:24:21Z</time></trkpt><trkpt lat="38.208955944346094" lon="15.854751208195704"><ele>1113.0</ele><time>2026-04-28T09:24:22Z</time></trkpt><trkpt lat="38.20879577020855" lon="15.854663466776099"><ele>1113.0</ele><time>2026-04-28T09:24:23Z</time></trkpt><trkpt lat="38.208607563653075" lon="15.854594497736873"><ele>1113.0</ele><time>2026-04-28T09:24:23.999Z</time></trkpt><trkpt lat="38.20840882680571" lon="15.854491364397662"><ele>1113.0</ele><time>2026-04-28T09:24:24.999Z</time></trkpt><trkpt lat="38.20819687621188" lon="15.854377467683179"><ele>1112.6666666666667</ele><time>2026-04-28T09:24:25.999Z</time></trkpt><trkpt lat="38.207990231234824" lon="15.854281348077214"><ele>1112.3333333333335</ele><time>2026-04-28T09:24:26.999Z</time></trkpt><trkpt lat="38.20777537055107" lon="15.85421039760602"><ele>1112.0</ele><time>2026-04-28T09:24:27.999Z</time></trkpt><trkpt lat="38.207546712807435" lon="15.854161364479712"><ele>1112.0</ele><time>2026-04-28T09:24:28.999Z</time></trkpt><trkpt lat="38.20733894674554" lon="15.854132403031754"><ele>1112.0</ele><time>2026-04-28T09:24:29.999Z</time></trkpt><trkpt lat="38.20714925336959" lon="15.85411456713372"><ele>1112.0</ele><time>2026-04-28T09:24:30.999Z</time></trkpt><trkpt lat="38.20697046948995" lon="15.854094914870602"><ele>1113.3333333333335</ele><time>2026-04-28T09:24:31.999Z</time></trkpt><trkpt lat="38.20678180843006" lon="15.854101258300096"><ele>1114.6666666666667</ele><time>2026-04-28T09:24:32.999Z</time></trkpt><trkpt lat="38.206580718241156" lon="15.854155426830637"><ele>1116.0</ele><time>2026-04-28T09:24:33.999Z</time></trkpt><trkpt lat="38.206374940018556" lon="15.854251966405029"><ele>1120.3333333333333</ele><time>2026-04-28T09:24:34.999Z</time></trkpt><trkpt lat="38.206166589698114" lon="15.854352256955623"><ele>1124.6666666666665</ele><time>2026-04-28T09:24:35.999Z</time></trkpt><trkpt lat="38.205983274466696" lon="15.854433700422117"><ele>1129.0</ele><time>2026-04-28T09:24:36.999Z</time></trkpt><trkpt lat="38.20581604886912" lon="15.854500394037483"><ele>1129.0</ele><time>2026-04-28T09:24:37.999Z</time></trkpt><trkpt lat="38.205682200784736" lon="15.854552812197909"><ele>1129.0</ele><time>2026-04-28T09:24:38.999Z</time></trkpt><trkpt lat="38.20556981799094" lon="15.854560752024263"><ele>1129.0</ele><time>2026-04-28T09:24:39.999Z</time></trkpt><trkpt lat="38.20547298128641" lon="15.854555533856873"><ele>1129.0</ele><time>2026-04-28T09:24:40.999Z</time></trkpt><trkpt lat="38.20539320134195" lon="15.854497071466344"><ele>1129.0</ele><time>2026-04-28T09:24:41.999Z</time></trkpt><trkpt lat="38.205294250900344" lon="15.854417778373314"><ele>1129.4</ele><time>2026-04-28T09:24:42.999Z</time></trkpt><trkpt lat="38.205177249165445" lon="15.854311845156793"><ele>1129.8000000000002</ele><time>2026-04-28T09:24:43.999Z</time></trkpt><trkpt lat="38.20509415519359" lon="15.854217754383493"><ele>1130.1999999999998</ele><time>2026-04-28T09:24:44.999Z</time></trkpt><trkpt lat="38.205057598567194" lon="15.854132024388674"><ele>1130.6</ele><time>2026-04-28T09:24:45.999Z</time></trkpt><trkpt lat="38.20505233327563" lon="15.85402155238513"><ele>1131.0</ele><time>2026-04-28T09:24:46.999Z</time></trkpt><trkpt lat="38.205078222909385" lon="15.853883080932276"><ele>1131.0</ele><time>2026-04-28T09:24:47.999Z</time></trkpt><trkpt lat="38.20513442755516" lon="15.853749935561853"><ele>1131.0</ele><time>2026-04-28T09:24:48.999Z</time></trkpt><trkpt lat="38.20521907673815" lon="15.853599335920904"><ele>1131.0</ele><time>2026-04-28T09:24:49.999Z</time></trkpt><trkpt lat="38.205345873809065" lon="15.853447563961778"><ele>1131.0</ele><time>2026-04-28T09:24:50.999Z</time></trkpt><trkpt lat="38.20545611817734" lon="15.853308625138201"><ele>1131.5</ele><time>2026-04-28T09:24:51.999Z</time></trkpt><trkpt lat="38.205527045690566" lon="15.853149288753677"><ele>1132.0</ele><time>2026-04-28T09:24:52.999Z</time></trkpt><trkpt lat="38.20554217102488" lon="15.852984460366752"><ele>1132.5</ele><time>2026-04-28T09:24:53.999Z</time></trkpt><trkpt lat="38.20549477108318" lon="15.852824677618765"><ele>1133.0</ele><time>2026-04-28T09:24:54.999Z</time></trkpt><trkpt lat="38.205416002538456" lon="15.852691337842609"><ele>1132.5</ele><time>2026-04-28T09:24:55.999Z</time></trkpt><trkpt lat="38.20529529436947" lon="15.852595137655648"><ele>1132.0</ele><time>2026-04-28T09:24:56.999Z</time></trkpt><trkpt lat="38.205172444276826" lon="15.852548864879223"><ele>1131.5</ele><time>2026-04-28T09:24:57.999Z</time></trkpt><trkpt lat="38.205018147141466" lon="15.85255939461642"><ele>1131.0</ele><time>2026-04-28T09:24:58.999Z</time></trkpt><trkpt lat="38.20486807805777" lon="15.852594404421913"><ele>1133.3333333333333</ele><time>2026-04-28T09:24:59.999Z</time></trkpt><trkpt lat="38.20468825077122" lon="15.852598476660548"><ele>1135.6666666666665</ele><time>2026-04-28T09:25:00.999Z</time></trkpt><trkpt lat="38.204493761084954" lon="15.852585024953479"><ele>1138.0</ele><time>2026-04-28T09:25:01.999Z</time></trkpt><trkpt lat="38.20431429043745" lon="15.852595702215023"><ele>1138.0</ele><time>2026-04-28T09:25:02.999Z</time></trkpt><trkpt lat="38.20414988958609" lon="15.852614663238578"><ele>1138.0</ele><time>2026-04-28T09:25:03.999Z</time></trkpt><trkpt lat="38.20399051734251" lon="15.85265837526454"><ele>1138.0</ele><time>2026-04-28T09:25:04.999Z</time></trkpt><trkpt lat="38.20380290043132" lon="15.852662941017766"><ele>1140.75</ele><time>2026-04-28T09:25:05.999Z</time></trkpt><trkpt lat="38.20364016435291" lon="15.852652607708556"><ele>1143.5</ele><time>2026-04-28T09:25:06.999Z</time></trkpt><trkpt lat="38.203539024971164" lon="15.852620152035465"><ele>1146.25</ele><time>2026-04-28T09:25:07.999Z</time></trkpt><trkpt lat="38.20340281272716" lon="15.852557148242745"><ele>1149.0</ele><time>2026-04-28T09:25:08.999Z</time></trkpt><trkpt lat="38.203269039564" lon="15.852473944311845"><ele>1149.0</ele><time>2026-04-28T09:25:09.999Z</time></trkpt><trkpt lat="38.20316917047525" lon="15.852367603174029"><ele>1149.0</ele><time>2026-04-28T09:25:10.999Z</time></trkpt><trkpt lat="38.20312178536612" lon="15.852277266143433"><ele>1149.0</ele><time>2026-04-28T09:25:11.999Z</time></trkpt><trkpt lat="38.203096443021835" lon="15.852160882249827"><ele>1149.0</ele><time>2026-04-28T09:25:12.999Z</time></trkpt><trkpt lat="38.203111263638135" lon="15.852031784330551"><ele>1149.0</ele><time>2026-04-28T09:25:13.999Z</time></trkpt><trkpt lat="38.203129369061266" lon="15.851858640771002"><ele>1148.3333333333333</ele><time>2026-04-28T09:25:14.999Z</time></trkpt><trkpt lat="38.20315030123101" lon="15.85164035575702"><ele>1147.6666666666665</ele><time>2026-04-28T09:25:15.999Z</time></trkpt><trkpt lat="38.20317264729358" lon="15.851422896058919"><ele>1147.0</ele><time>2026-04-28T09:25:16.999Z</time></trkpt><trkpt lat="38.20318584932895" lon="15.851235210212064"><ele>1146.75</ele><time>2026-04-28T09:25:17.999Z</time></trkpt><trkpt lat="38.20317294780546" lon="15.851073669276902"><ele>1146.5</ele><time>2026-04-28T09:25:18.999Z</time></trkpt><trkpt lat="38.2031505403403" lon="15.850925749834634"><ele>1146.25</ele><time>2026-04-28T09:25:19.999Z</time></trkpt><trkpt lat="38.20309066027808" lon="15.850808237013451"><ele>1146.0</ele><time>2026-04-28T09:25:20.999Z</time></trkpt><trkpt lat="38.20298434550367" lon="15.850721989480585"><ele>1146.0</ele><time>2026-04-28T09:25:21.999Z</time></trkpt><trkpt lat="38.202848723881566" lon="15.850655971088557"><ele>1146.0</ele><time>2026-04-28T09:25:22.999Z</time></trkpt><trkpt lat="38.202693076543845" lon="15.850588982030036"><ele>1146.0</ele><time>2026-04-28T09:25:23.999Z</time></trkpt><trkpt lat="38.20252927462858" lon="15.850533019940777"><ele>1146.0</ele><time>2026-04-28T09:25:24.999Z</time></trkpt><trkpt lat="38.20238234772826" lon="15.85045215687768"><ele>1146.0</ele><time>2026-04-28T09:25:25.999Z</time></trkpt><trkpt lat="38.202256286974695" lon="15.850375161577205"><ele>1146.0</ele><time>2026-04-28T09:25:26.999Z</time></trkpt><trkpt lat="38.2021562674371" lon="15.85027257368026"><ele>1146.0</ele><time>2026-04-28T09:25:27.999Z</time></trkpt><trkpt lat="38.20208107349917" lon="15.850167007974726"><ele>1147.0</ele><time>2026-04-28T09:25:28.999Z</time></trkpt><trkpt lat="38.20208748110237" lon="15.850040060583583"><ele>1148.0</ele><time>2026-04-28T09:25:29.999Z</time></trkpt><trkpt lat="38.202102909320026" lon="15.849882880729199"><ele>1149.0</ele><time>2026-04-28T09:25:30.999Z</time></trkpt><trkpt lat="38.20210464139285" lon="15.8497029231698"><ele>1150.0</ele><time>2026-04-28T09:25:31.999Z</time></trkpt><trkpt lat="38.20213350750258" lon="15.849521420811508"><ele>1150.0</ele><time>2026-04-28T09:25:32.999Z</time></trkpt><trkpt lat="38.20213443269274" lon="15.8493309819652"><ele>1150.0</ele><time>2026-04-28T09:25:33.999Z</time></trkpt><trkpt lat="38.20211541152906" lon="15.849128904942196"><ele>1150.0</ele><time>2026-04-28T09:25:34.999Z</time></trkpt><trkpt lat="38.20208399494088" lon="15.848904393945242"><ele>1149.3333333333333</ele><time>2026-04-28T09:25:35.999Z</time></trkpt><trkpt lat="38.202046828023626" lon="15.848683170378319"><ele>1148.6666666666667</ele><time>2026-04-28T09:25:36.999Z</time></trkpt><trkpt lat="38.20201576285349" lon="15.848492540843745"><ele>1148.0</ele><time>2026-04-28T09:25:37.999Z</time></trkpt><trkpt lat="38.201992364641974" lon="15.8483193175901"><ele>1148.0</ele><time>2026-04-28T09:25:38.999Z</time></trkpt><trkpt lat="38.201970278694155" lon="15.848159345487213"><ele>1148.0</ele><time>2026-04-28T09:25:39.999Z</time></trkpt><trkpt lat="38.20194578239674" lon="15.848007813743386"><ele>1148.0</ele><time>2026-04-28T09:25:40.999Z</time></trkpt><trkpt lat="38.20192593138494" lon="15.847873121362941"><ele>1148.0</ele><time>2026-04-28T09:25:41.999Z</time></trkpt><trkpt lat="38.201917285704525" lon="15.847784946744468"><ele>1148.0</ele><time>2026-04-28T09:25:42.999Z</time></trkpt><trkpt lat="38.201901593324" lon="15.847644554145775"><ele>1148.0</ele><time>2026-04-28T09:25:44.998Z</time></trkpt><trkpt lat="38.20186178253933" lon="15.84749997064252"><ele>1148.0</ele><time>2026-04-28T09:29:19.999Z</time></trkpt><trkpt lat="38.201788233445214" lon="15.847418911468635"><ele>1148.0</ele><time>2026-04-28T09:29:20.999Z</time></trkpt><trkpt lat="38.20170880694189" lon="15.847330670186297"><ele>1148.0</ele><time>2026-04-28T09:29:21.999Z</time></trkpt><trkpt lat="38.20160755220262" lon="15.847228483203804"><ele>1149.6666666666667</ele><time>2026-04-28T09:29:22.999Z</time></trkpt><trkpt lat="38.20148996093857" lon="15.847156284619663"><ele>1151.3333333333333</ele><time>2026-04-28T09:29:23.999Z</time></trkpt><trkpt lat="38.20133677267865" lon="15.847113445068018"><ele>1153.0</ele><time>2026-04-28T09:29:24.999Z</time></trkpt><trkpt lat="38.20115798252774" lon="15.847087544040248"><ele>1153.0</ele><time>2026-04-28T09:29:25.999Z</time></trkpt><trkpt lat="38.200970899263304" lon="15.847059184101932"><ele>1153.0</ele><time>2026-04-28T09:29:26.999Z</time></trkpt><trkpt lat="38.200769081800395" lon="15.847015352526062"><ele>1153.0</ele><time>2026-04-28T09:29:27.999Z</time></trkpt><trkpt lat="38.20053919632577" lon="15.846964907805605"><ele>1153.5</ele><time>2026-04-28T09:29:28.999Z</time></trkpt><trkpt lat="38.200290144604324" lon="15.846912805595815"><ele>1154.0</ele><time>2026-04-28T09:29:29.999Z</time></trkpt><trkpt lat="38.20005386132663" lon="15.846860350543611"><ele>1156.5</ele><time>2026-04-28T09:29:30.999Z</time></trkpt><trkpt lat="38.199827004025245" lon="15.846810866077327"><ele>1159.0</ele><time>2026-04-28T09:29:31.999Z</time></trkpt><trkpt lat="38.19960638131812" lon="15.84676761940435"><ele>1159.0</ele><time>2026-04-28T09:29:32.999Z</time></trkpt><trkpt lat="38.19939202819818" lon="15.846719630879125"><ele>1159.0</ele><time>2026-04-28T09:29:33.999Z</time></trkpt><trkpt lat="38.19917261360465" lon="15.846675406835221"><ele>1159.0</ele><time>2026-04-28T09:29:34.999Z</time></trkpt><trkpt lat="38.19893645867581" lon="15.846625430676964"><ele>1161.0</ele><time>2026-04-28T09:29:35.999Z</time></trkpt><trkpt lat="38.19867843227885" lon="15.846579862452796"><ele>1163.0</ele><time>2026-04-28T09:29:36.999Z</time></trkpt><trkpt lat="38.198403966969614" lon="15.846524289053114"><ele>1166.0</ele><time>2026-04-28T09:29:37.999Z</time></trkpt><trkpt lat="38.19813061656178" lon="15.846465837109283"><ele>1169.0</ele><time>2026-04-28T09:29:38.999Z</time></trkpt><trkpt lat="38.19785882167449" lon="15.84640620368084"><ele>1169.0</ele><time>2026-04-28T09:29:39.999Z</time></trkpt><trkpt lat="38.197578946393946" lon="15.846347811046611"><ele>1169.0</ele><time>2026-04-28T09:29:40.999Z</time></trkpt><trkpt lat="38.197290880983566" lon="15.846288251534178"><ele>1172.0</ele><time>2026-04-28T09:29:41.999Z</time></trkpt><trkpt lat="38.196994048550565" lon="15.84622638640378"><ele>1175.0</ele><time>2026-04-28T09:29:42.999Z</time></trkpt><trkpt lat="38.19669058809033" lon="15.846164054128165"><ele>1178.5</ele><time>2026-04-28T09:29:43.999Z</time></trkpt><trkpt lat="38.19637963579794" lon="15.846098547175"><ele>1182.0</ele><time>2026-04-28T09:29:44.999Z</time></trkpt><trkpt lat="38.196064778513254" lon="15.846030538940852"><ele>1180.5</ele><time>2026-04-28T09:29:45.999Z</time></trkpt><trkpt lat="38.195746727646615" lon="15.845960549602802"><ele>1179.0</ele><time>2026-04-28T09:29:46.999Z</time></trkpt><trkpt lat="38.195431678167225" lon="15.845871437576564"><ele>1179.0</ele><time>2026-04-28T09:29:47.999Z</time></trkpt><trkpt lat="38.19513449904289" lon="15.845809400540269"><ele>1179.0</ele><time>2026-04-28T09:29:48.998Z</time></trkpt><trkpt lat="38.19484177215838" lon="15.845748634253573"><ele>1184.0</ele><time>2026-04-28T09:29:49.998Z</time></trkpt><trkpt lat="38.19455213579938" lon="15.845708589394786"><ele>1189.0</ele><time>2026-04-28T09:29:50.998Z</time></trkpt><trkpt lat="38.1942726362083" lon="15.84565184931633"><ele>1190.5</ele><time>2026-04-28T09:29:51.998Z</time></trkpt><trkpt lat="38.19399901664232" lon="15.845594555794035"><ele>1192.0</ele><time>2026-04-28T09:29:52.998Z</time></trkpt><trkpt lat="38.19372036688994" lon="15.845537132103386"><ele>1192.0</ele><time>2026-04-28T09:29:53.998Z</time></trkpt><trkpt lat="38.1934443917781" lon="15.845456301813881"><ele>1192.0</ele><time>2026-04-28T09:29:54.998Z</time></trkpt><trkpt lat="38.19319263497824" lon="15.845422873049197"><ele>1201.5</ele><time>2026-04-28T09:29:55.998Z</time></trkpt><trkpt lat="38.1929460486723" lon="15.845368597838558"><ele>1211.0</ele><time>2026-04-28T09:29:56.998Z</time></trkpt><trkpt lat="38.19269746947745" lon="15.84531863554546"><ele>1211.0</ele><time>2026-04-28T09:29:57.998Z</time></trkpt><trkpt lat="38.192472569884025" lon="15.845251192078598"><ele>1211.0</ele><time>2026-04-28T09:29:58.998Z</time></trkpt><trkpt lat="38.19225136022438" lon="15.845203069966534"><ele>1210.0</ele><time>2026-04-28T09:29:59.998Z</time></trkpt><trkpt lat="38.192037782509466" lon="15.845174488585561"><ele>1209.0</ele><time>2026-04-28T09:30:00.998Z</time></trkpt><trkpt lat="38.19183569865555" lon="15.845123165554929"><ele>1208.0</ele><time>2026-04-28T09:30:01.998Z</time></trkpt><trkpt lat="38.19164639672886" lon="15.845080301776507"><ele>1213.0</ele><time>2026-04-28T09:30:02.998Z</time></trkpt><trkpt lat="38.191476654159516" lon="15.845047907600643"><ele>1218.0</ele><time>2026-04-28T09:30:03.998Z</time></trkpt><trkpt lat="38.191329323845245" lon="15.845027434598482"><ele>1223.0</ele><time>2026-04-28T09:30:04.998Z</time></trkpt><trkpt lat="38.191215107320446" lon="15.8449748397632"><ele>1228.0</ele><time>2026-04-28T09:30:05.999Z</time></trkpt><trkpt lat="38.19111687153352" lon="15.84494773778794"><ele>1228.0</ele><time>2026-04-28T09:30:06.999Z</time></trkpt><trkpt lat="38.191046598670226" lon="15.844837460390996"><ele>1228.0</ele><time>2026-04-28T09:30:07.999Z</time></trkpt><trkpt lat="38.19098817069131" lon="15.844718179876542"><ele>1228.0</ele><time>2026-04-28T09:30:08.999Z</time></trkpt><trkpt lat="38.19093001495753" lon="15.84454308815652"><ele>1228.0</ele><time>2026-04-28T09:30:09.999Z</time></trkpt><trkpt lat="38.19087057637615" lon="15.844352597334911"><ele>1229.6666666666665</ele><time>2026-04-28T09:30:10.999Z</time></trkpt><trkpt lat="38.19080313242797" lon="15.844133963054382"><ele>1231.3333333333333</ele><time>2026-04-28T09:30:11.999Z</time></trkpt><trkpt lat="38.19073338052489" lon="15.84391200338442"><ele>1233.0</ele><time>2026-04-28T09:30:12.999Z</time></trkpt><trkpt lat="38.1906694515324" lon="15.843716385014018"><ele>1233.0</ele><time>2026-04-28T09:30:13.999Z</time></trkpt><trkpt lat="38.19060387577843" lon="15.843537680845863"><ele>1233.0</ele><time>2026-04-28T09:30:14.999Z</time></trkpt><trkpt lat="38.19052528062211" lon="15.843403672424703"><ele>1233.0</ele><time>2026-04-28T09:30:15.999Z</time></trkpt><trkpt lat="38.190436752420666" lon="15.84328752829113"><ele>1233.0</ele><time>2026-04-28T09:30:16.999Z</time></trkpt><trkpt lat="38.190324641925955" lon="15.843161079012818"><ele>1230.75</ele><time>2026-04-28T09:30:17.999Z</time></trkpt><trkpt lat="38.190200737870214" lon="15.84305722016924"><ele>1228.5</ele><time>2026-04-28T09:30:18.999Z</time></trkpt><trkpt lat="38.190085166230425" lon="15.842981290801635"><ele>1226.25</ele><time>2026-04-28T09:30:19.999Z</time></trkpt><trkpt lat="38.189941669554" lon="15.842895163041458"><ele>1224.0</ele><time>2026-04-28T09:30:20.999Z</time></trkpt><trkpt lat="38.18979244817057" lon="15.842828404404115"><ele>1224.0</ele><time>2026-04-28T09:30:21.999Z</time></trkpt><trkpt lat="38.18963541955539" lon="15.842835429734693"><ele>1224.0</ele><time>2026-04-28T09:30:22.999Z</time></trkpt><trkpt lat="38.18944046529494" lon="15.842876863186213"><ele>1224.0</ele><time>2026-04-28T09:30:23.999Z</time></trkpt><trkpt lat="38.18925499510271" lon="15.842934279122014"><ele>1224.0</ele><time>2026-04-28T09:30:24.999Z</time></trkpt><trkpt lat="38.18911009538564" lon="15.84296840339134"><ele>1224.0</ele><time>2026-04-28T09:30:25.999Z</time></trkpt><trkpt lat="38.18900221944833" lon="15.843025496333334"><ele>1224.0</ele><time>2026-04-28T09:30:26.999Z</time></trkpt><trkpt lat="38.188875846792506" lon="15.843111643904093"><ele>1224.0</ele><time>2026-04-28T09:30:27.999Z</time></trkpt><trkpt lat="38.18878038930469" lon="15.843282748831673"><ele>1224.5</ele><time>2026-04-28T09:30:28.999Z</time></trkpt><trkpt lat="38.18870346261896" lon="15.843470272997394"><ele>1225.0</ele><time>2026-04-28T09:30:29.999Z</time></trkpt><trkpt lat="38.18863828064339" lon="15.84359925258971"><ele>1225.5</ele><time>2026-04-28T09:30:30.999Z</time></trkpt><trkpt lat="38.188638310967555" lon="15.843785198606902"><ele>1226.0</ele><time>2026-04-28T09:30:31.999Z</time></trkpt><trkpt lat="38.188659829590854" lon="15.84400015189841"><ele>1226.0</ele><time>2026-04-28T09:30:32.999Z</time></trkpt><trkpt lat="38.18866054607697" lon="15.844226148432892"><ele>1226.0</ele><time>2026-04-28T09:30:33.999Z</time></trkpt><trkpt lat="38.18867625076104" lon="15.844457366673433"><ele>1226.0</ele><time>2026-04-28T09:30:34.999Z</time></trkpt><trkpt lat="38.18868890396106" lon="15.844653326735276"><ele>1228.25</ele><time>2026-04-28T09:30:35.999Z</time></trkpt><trkpt lat="38.18867970143159" lon="15.844811459189973"><ele>1230.5</ele><time>2026-04-28T09:30:36.999Z</time></trkpt><trkpt lat="38.188635193586926" lon="15.844966443568074"><ele>1232.75</ele><time>2026-04-28T09:30:37.999Z</time></trkpt><trkpt lat="38.188551063532756" lon="15.84511389445502"><ele>1235.0</ele><time>2026-04-28T09:30:38.999Z</time></trkpt><trkpt lat="38.18846497081771" lon="15.845279566375662"><ele>1239.5</ele><time>2026-04-28T09:30:39.999Z</time></trkpt><trkpt lat="38.18833139753637" lon="15.845528428971484"><ele>1244.0</ele><time>2026-04-28T09:30:40.999Z</time></trkpt><trkpt lat="38.18821100311848" lon="15.845760794631845"><ele>1248.3333333333335</ele><time>2026-04-28T09:30:41.999Z</time></trkpt><trkpt lat="38.18810264629562" lon="15.845970191760227"><ele>1252.6666666666667</ele><time>2026-04-28T09:30:42.999Z</time></trkpt><trkpt lat="38.188012479814155" lon="15.846137033037982"><ele>1257.0</ele><time>2026-04-28T09:30:43.999Z</time></trkpt><trkpt lat="38.187943632692765" lon="15.846264425645675"><ele>1257.0</ele><time>2026-04-28T09:30:44.999Z</time></trkpt><trkpt lat="38.187890476504485" lon="15.846350587444888"><ele>1257.0</ele><time>2026-04-28T09:30:45.999Z</time></trkpt><trkpt lat="38.18783975046449" lon="15.846409740185212"><ele>1257.0</ele><time>2026-04-28T09:30:46.999Z</time></trkpt><trkpt lat="38.18776918714277" lon="15.846421648399309"><ele>1257.0</ele><time>2026-04-28T09:30:47.999Z</time></trkpt><trkpt lat="38.187671903866345" lon="15.846390879778651"><ele>1257.0</ele><time>2026-04-28T09:30:48.999Z</time></trkpt><trkpt lat="38.18757989910024" lon="15.84634584129043"><ele>1257.0</ele><time>2026-04-28T09:30:49.999Z</time></trkpt><trkpt lat="38.18753739565856" lon="15.846255648149665"><ele>1257.0</ele><time>2026-04-28T09:30:50.999Z</time></trkpt><trkpt lat="38.187530821644415" lon="15.84613746503006"><ele>1257.0</ele><time>2026-04-28T09:30:51.999Z</time></trkpt><trkpt lat="38.187570834671234" lon="15.846017198041958"><ele>1257.0</ele><time>2026-04-28T09:30:52.999Z</time></trkpt><trkpt lat="38.18759621440034" lon="15.845831341309697"><ele>1257.0</ele><time>2026-04-28T09:30:53.999Z</time></trkpt><trkpt lat="38.187650000266835" lon="15.845624225927235"><ele>1258.25</ele><time>2026-04-28T09:30:54.999Z</time></trkpt><trkpt lat="38.187692586348305" lon="15.845403686362044"><ele>1259.5</ele><time>2026-04-28T09:30:55.999Z</time></trkpt><trkpt lat="38.18773565112807" lon="15.845247283264404"><ele>1260.75</ele><time>2026-04-28T09:30:56.999Z</time></trkpt><trkpt lat="38.18777168416761" lon="15.8451277585312"><ele>1262.0</ele><time>2026-04-28T09:30:57.999Z</time></trkpt><trkpt lat="38.18776114332393" lon="15.844976837750252"><ele>1262.3333333333335</ele><time>2026-04-28T09:30:58.999Z</time></trkpt><trkpt lat="38.187682066086204" lon="15.844805287713875"><ele>1262.6666666666667</ele><time>2026-04-28T09:30:59.999Z</time></trkpt><trkpt lat="38.18762193698428" lon="15.844616208881801"><ele>1263.0</ele><time>2026-04-28T09:31:00.999Z</time></trkpt><trkpt lat="38.18754969402934" lon="15.844458771807998"><ele>1263.0</ele><time>2026-04-28T09:31:01.999Z</time></trkpt><trkpt lat="38.187468634090116" lon="15.844329182645902"><ele>1263.0</ele><time>2026-04-28T09:31:02.999Z</time></trkpt><trkpt lat="38.187364575055916" lon="15.84422870977393"><ele>1263.0</ele><time>2026-04-28T09:31:03.999Z</time></trkpt><trkpt lat="38.187237571024255" lon="15.844167940407925"><ele>1263.0</ele><time>2026-04-28T09:31:04.999Z</time></trkpt><trkpt lat="38.187133398392916" lon="15.844105531249959"><ele>1264.6</ele><time>2026-04-28T09:31:05.999Z</time></trkpt><trkpt lat="38.18698569635471" lon="15.84411996827718"><ele>1266.1999999999998</ele><time>2026-04-28T09:31:06.999Z</time></trkpt><trkpt lat="38.186862818879035" lon="15.844030993399747"><ele>1267.8</ele><time>2026-04-28T09:31:07.999Z</time></trkpt><trkpt lat="38.186793841407955" lon="15.844033604557122"><ele>1269.3999999999999</ele><time>2026-04-28T09:31:08.999Z</time></trkpt><trkpt lat="38.18677430840943" lon="15.843935954675162"><ele>1271.0</ele><time>2026-04-28T09:31:09.999Z</time></trkpt><trkpt lat="38.18677291147052" lon="15.843803662469591"><ele>1271.0</ele><time>2026-04-28T09:31:10.999Z</time></trkpt><trkpt lat="38.18667090541427" lon="15.843614434341726"><ele>1271.0</ele><time>2026-04-28T09:31:11.999Z</time></trkpt><trkpt lat="38.186543488060266" lon="15.843498220301807"><ele>1271.0</ele><time>2026-04-28T09:31:12.999Z</time></trkpt><trkpt lat="38.186410921986045" lon="15.843384226315697"><ele>1268.3333333333335</ele><time>2026-04-28T09:31:13.999Z</time></trkpt><trkpt lat="38.18624593873645" lon="15.843246386225246"><ele>1265.6666666666667</ele><time>2026-04-28T09:31:14.999Z</time></trkpt><trkpt lat="38.18614224568655" lon="15.843172950373768"><ele>1263.0</ele><time>2026-04-28T09:31:15.999Z</time></trkpt><trkpt lat="38.186008536322944" lon="15.843137142176477"><ele>1263.0</ele><time>2026-04-28T09:31:16.999Z</time></trkpt><trkpt lat="38.1858671685567" lon="15.843153804909067"><ele>1263.0</ele><time>2026-04-28T09:31:17.999Z</time></trkpt><trkpt lat="38.18574036899216" lon="15.843184596302756"><ele>1263.0</ele><time>2026-04-28T09:31:18.999Z</time></trkpt><trkpt lat="38.18557376882403" lon="15.843266968304407"><ele>1265.6666666666667</ele><time>2026-04-28T09:31:19.999Z</time></trkpt><trkpt lat="38.18540835030785" lon="15.843424092243401"><ele>1268.3333333333335</ele><time>2026-04-28T09:31:20.999Z</time></trkpt><trkpt lat="38.185268474564126" lon="15.843586346640683"><ele>1271.0</ele><time>2026-04-28T09:31:21.999Z</time></trkpt><trkpt lat="38.185125172070755" lon="15.843720226675766"><ele>1274.6666666666667</ele><time>2026-04-28T09:31:22.999Z</time></trkpt><trkpt lat="38.18495995103001" lon="15.843763981981704"><ele>1278.3333333333333</ele><time>2026-04-28T09:31:23.999Z</time></trkpt><trkpt lat="38.18479788961517" lon="15.84387437664926"><ele>1282.0</ele><time>2026-04-28T09:31:24.999Z</time></trkpt><trkpt lat="38.18463104795968" lon="15.843982189613254"><ele>1283.3333333333333</ele><time>2026-04-28T09:31:25.999Z</time></trkpt><trkpt lat="38.184491342893814" lon="15.844140863799776"><ele>1284.6666666666667</ele><time>2026-04-28T09:31:26.999Z</time></trkpt><trkpt lat="38.184325755891265" lon="15.844208341140591"><ele>1286.0</ele><time>2026-04-28T09:31:27.999Z</time></trkpt><trkpt lat="38.18417759605173" lon="15.844240934838353"><ele>1286.0</ele><time>2026-04-28T09:31:28.999Z</time></trkpt><trkpt lat="38.18406254255746" lon="15.844263235951116"><ele>1286.0</ele><time>2026-04-28T09:31:29.999Z</time></trkpt><trkpt lat="38.18398901882611" lon="15.844270004232756"><ele>1286.0</ele><time>2026-04-28T09:31:30.999Z</time></trkpt><trkpt lat="38.18391938781489" lon="15.844259108682289"><ele>1286.0</ele><time>2026-04-28T09:31:31.999Z</time></trkpt><trkpt lat="38.18384707587044" lon="15.844197410878675"><ele>1286.0</ele><time>2026-04-28T09:31:32.999Z</time></trkpt><trkpt lat="38.18380119157956" lon="15.844090501981874"><ele>1286.0</ele><time>2026-04-28T09:31:33.999Z</time></trkpt><trkpt lat="38.183805041219834" lon="15.84395996518558"><ele>1286.0</ele><time>2026-04-28T09:31:34.999Z</time></trkpt><trkpt lat="38.18383260269427" lon="15.84384923001665"><ele>1286.0</ele><time>2026-04-28T09:31:35.999Z</time></trkpt><trkpt lat="38.183913489125395" lon="15.843792392690833"><ele>1286.0</ele><time>2026-04-28T09:31:36.999Z</time></trkpt><trkpt lat="38.18402713101318" lon="15.843771431103486"><ele>1286.0</ele><time>2026-04-28T09:31:37.999Z</time></trkpt><trkpt lat="38.18414188930278" lon="15.843782019450506"><ele>1286.0</ele><time>2026-04-28T09:31:38.999Z</time></trkpt><trkpt lat="38.184237121029284" lon="15.84373760076069"><ele>1286.0</ele><time>2026-04-28T09:31:39.999Z</time></trkpt><trkpt lat="38.18430209623019" lon="15.843582360929222"><ele>1286.0</ele><time>2026-04-28T09:31:40.999Z</time></trkpt><trkpt lat="38.18438696457801" lon="15.843423282613891"><ele>1286.0</ele><time>2026-04-28T09:31:41.999Z</time></trkpt><trkpt lat="38.18447554551568" lon="15.843183388989813"><ele>1286.5</ele><time>2026-04-28T09:31:42.999Z</time></trkpt><trkpt lat="38.18456037260904" lon="15.843010857830244"><ele>1287.0</ele><time>2026-04-28T09:31:43.999Z</time></trkpt><trkpt lat="38.18460883523861" lon="15.84285672918241"><ele>1287.5</ele><time>2026-04-28T09:31:44.999Z</time></trkpt><trkpt lat="38.184655983307984" lon="15.842724878980524"><ele>1288.0</ele><time>2026-04-28T09:31:45.999Z</time></trkpt><trkpt lat="38.18466584863022" lon="15.842613678331743"><ele>1288.0</ele><time>2026-04-28T09:31:46.999Z</time></trkpt><trkpt lat="38.18462327021164" lon="15.8424909065624"><ele>1288.0</ele><time>2026-04-28T09:31:47.998Z</time></trkpt><trkpt lat="38.18456979287276" lon="15.842379884437545"><ele>1288.0</ele><time>2026-04-28T09:31:48.998Z</time></trkpt><trkpt lat="38.184415775638975" lon="15.84235094915917"><ele>1288.0</ele><time>2026-04-28T09:31:49.998Z</time></trkpt><trkpt lat="38.18422921724891" lon="15.842299364694666"><ele>1288.0</ele><time>2026-04-28T09:31:50.998Z</time></trkpt><trkpt lat="38.18406267008488" lon="15.842301378795575"><ele>1288.0</ele><time>2026-04-28T09:31:51.998Z</time></trkpt><trkpt lat="38.18387001440592" lon="15.842363089072174"><ele>1288.0</ele><time>2026-04-28T09:31:52.998Z</time></trkpt><trkpt lat="38.18369930943693" lon="15.842421092056544"><ele>1290.6666666666665</ele><time>2026-04-28T09:31:53.998Z</time></trkpt><trkpt lat="38.183510039156545" lon="15.842487631030108"><ele>1293.3333333333333</ele><time>2026-04-28T09:31:54.998Z</time></trkpt><trkpt lat="38.18333482777057" lon="15.84256187967106"><ele>1296.0</ele><time>2026-04-28T09:31:55.998Z</time></trkpt><trkpt lat="38.183192624949626" lon="15.842670816889255"><ele>1300.6666666666667</ele><time>2026-04-28T09:31:56.998Z</time></trkpt><trkpt lat="38.183052228037035" lon="15.842789646560473"><ele>1305.3333333333335</ele><time>2026-04-28T09:31:57.998Z</time></trkpt><trkpt lat="38.182923093688316" lon="15.842898670275831"><ele>1310.0</ele><time>2026-04-28T09:31:58.998Z</time></trkpt><trkpt lat="38.18281215833033" lon="15.842991007764557"><ele>1310.0</ele><time>2026-04-28T09:31:59.998Z</time></trkpt><trkpt lat="38.182719817571794" lon="15.843041894164488"><ele>1310.0</ele><time>2026-04-28T09:32:00.998Z</time></trkpt><trkpt lat="38.182633040847456" lon="15.843051965037422"><ele>1310.0</ele><time>2026-04-28T09:32:01.998Z</time></trkpt><trkpt lat="38.18254834249213" lon="15.843025398437451"><ele>1310.0</ele><time>2026-04-28T09:32:02.998Z</time></trkpt><trkpt lat="38.18248124945368" lon="15.84293635316856"><ele>1310.0</ele><time>2026-04-28T09:32:03.998Z</time></trkpt><trkpt lat="38.182400373447" lon="15.842795335737796"><ele>1310.0</ele><time>2026-04-28T09:32:04.998Z</time></trkpt><trkpt lat="38.18230096158276" lon="15.84267134969"><ele>1310.0</ele><time>2026-04-28T09:32:05.998Z</time></trkpt><trkpt lat="38.18214743183604" lon="15.8425917193843"><ele>1310.0</ele><time>2026-04-28T09:32:06.998Z</time></trkpt><trkpt lat="38.18200462074348" lon="15.84266221556361"><ele>1310.0</ele><time>2026-04-28T09:32:07.998Z</time></trkpt><trkpt lat="38.1818920995612" lon="15.842796266757778"><ele>1310.0</ele><time>2026-04-28T09:32:08.998Z</time></trkpt><trkpt lat="38.18175048753687" lon="15.84291067226422"><ele>1310.0</ele><time>2026-04-28T09:32:09.998Z</time></trkpt><trkpt lat="38.18160908171965" lon="15.84304885552174"><ele>1310.6666666666667</ele><time>2026-04-28T09:32:11Z</time></trkpt><trkpt lat="38.18145388619316" lon="15.843201567469096"><ele>1311.3333333333333</ele><time>2026-04-28T09:32:12Z</time></trkpt><trkpt lat="38.181284746556166" lon="15.84335315461208"><ele>1312.0</ele><time>2026-04-28T09:32:13Z</time></trkpt><trkpt lat="38.18112442503911" lon="15.843475602750416"><ele>1313.3333333333333</ele><time>2026-04-28T09:32:14Z</time></trkpt><trkpt lat="38.180935767120275" lon="15.843587794270206"><ele>1314.6666666666667</ele><time>2026-04-28T09:32:15Z</time></trkpt><trkpt lat="38.18072797189602" lon="15.843681086103587"><ele>1316.0</ele><time>2026-04-28T09:32:16Z</time></trkpt><trkpt lat="38.180509378058915" lon="15.843771330907916"><ele>1316.6666666666667</ele><time>2026-04-28T09:32:17Z</time></trkpt><trkpt lat="38.180295024105945" lon="15.84386250921755"><ele>1317.3333333333333</ele><time>2026-04-28T09:32:18Z</time></trkpt><trkpt lat="38.18009229998705" lon="15.843948840430699"><ele>1318.0</ele><time>2026-04-28T09:32:19Z</time></trkpt><trkpt lat="38.17989042528209" lon="15.844034915982611"><ele>1320.3333333333333</ele><time>2026-04-28T09:32:20Z</time></trkpt><trkpt lat="38.17968473510261" lon="15.844122617253767"><ele>1322.6666666666667</ele><time>2026-04-28T09:32:21Z</time></trkpt><trkpt lat="38.17948066966225" lon="15.844207177335718"><ele>1325.0</ele><time>2026-04-28T09:32:22Z</time></trkpt><trkpt lat="38.179284964902145" lon="15.844288496702868"><ele>1324.6666666666667</ele><time>2026-04-28T09:32:23Z</time></trkpt><trkpt lat="38.179112058650496" lon="15.844364637978972"><ele>1324.3333333333333</ele><time>2026-04-28T09:32:24Z</time></trkpt><trkpt lat="38.17895968581003" lon="15.844441015916406"><ele>1324.0</ele><time>2026-04-28T09:32:25Z</time></trkpt><trkpt lat="38.17882500982206" lon="15.844539714339122"><ele>1323.75</ele><time>2026-04-28T09:32:26Z</time></trkpt><trkpt lat="38.178718423669146" lon="15.844669299219598"><ele>1323.5</ele><time>2026-04-28T09:32:27Z</time></trkpt><trkpt lat="38.17860184073407" lon="15.84478010459745"><ele>1323.25</ele><time>2026-04-28T09:32:28Z</time></trkpt><trkpt lat="38.17849108524745" lon="15.844895797335507"><ele>1323.0</ele><time>2026-04-28T09:32:29Z</time></trkpt><trkpt lat="38.178378067653234" lon="15.84501616030144"><ele>1323.0</ele><time>2026-04-28T09:32:30Z</time></trkpt><trkpt lat="38.17823742397992" lon="15.845105151651964"><ele>1323.0</ele><time>2026-04-28T09:32:31Z</time></trkpt><trkpt lat="38.17812203705391" lon="15.845234758823883"><ele>1323.0</ele><time>2026-04-28T09:32:32Z</time></trkpt><trkpt lat="38.17800691741781" lon="15.845384188679951"><ele>1324.0</ele><time>2026-04-28T09:32:33Z</time></trkpt><trkpt lat="38.17791584851581" lon="15.845574372261089"><ele>1325.0</ele><time>2026-04-28T09:32:34Z</time></trkpt><trkpt lat="38.17786767992593" lon="15.84577784759679"><ele>1326.0</ele><time>2026-04-28T09:32:35Z</time></trkpt><trkpt lat="38.177818468830246" lon="15.845981323584377"><ele>1326.0</ele><time>2026-04-28T09:32:36Z</time></trkpt><trkpt lat="38.177744844435495" lon="15.846158754237255"><ele>1326.0</ele><time>2026-04-28T09:32:37Z</time></trkpt><trkpt lat="38.17765815999615" lon="15.846343078442525"><ele>1326.0</ele><time>2026-04-28T09:32:37.999Z</time></trkpt><trkpt lat="38.177547695532155" lon="15.846521801435161"><ele>1326.0</ele><time>2026-04-28T09:32:38.999Z</time></trkpt><trkpt lat="38.177437398478254" lon="15.846701694106033"><ele>1326.0</ele><time>2026-04-28T09:32:39.999Z</time></trkpt><trkpt lat="38.177343715241186" lon="15.846875162860739"><ele>1326.0</ele><time>2026-04-28T09:32:40.999Z</time></trkpt><trkpt lat="38.17727444423515" lon="15.847046591785253"><ele>1319.3333333333333</ele><time>2026-04-28T09:32:41.999Z</time></trkpt><trkpt lat="38.177262249642496" lon="15.847252032972298"><ele>1312.6666666666665</ele><time>2026-04-28T09:32:42.999Z</time></trkpt><trkpt lat="38.17722368222015" lon="15.847433315431097"><ele>1306.0</ele><time>2026-04-28T09:32:43.999Z</time></trkpt><trkpt lat="38.17716191787743" lon="15.84760095259738"><ele>1309.25</ele><time>2026-04-28T09:32:44.999Z</time></trkpt><trkpt lat="38.17704899726586" lon="15.847723421531109"><ele>1312.5</ele><time>2026-04-28T09:32:45.999Z</time></trkpt><trkpt lat="38.17692630090003" lon="15.84785210556878"><ele>1315.75</ele><time>2026-04-28T09:32:46.999Z</time></trkpt><trkpt lat="38.176829682950896" lon="15.847976750164545"><ele>1319.0</ele><time>2026-04-28T09:32:47.999Z</time></trkpt><trkpt lat="38.17674531385225" lon="15.84810990814994"><ele>1319.0</ele><time>2026-04-28T09:32:48.999Z</time></trkpt><trkpt lat="38.17670695338046" lon="15.848296857056244"><ele>1319.0</ele><time>2026-04-28T09:32:49.999Z</time></trkpt><trkpt lat="38.1766793240741" lon="15.848523014714699"><ele>1319.0</ele><time>2026-04-28T09:32:50.999Z</time></trkpt><trkpt lat="38.17663292525449" lon="15.848732642309955"><ele>1316.0</ele><time>2026-04-28T09:32:51.999Z</time></trkpt><trkpt lat="38.17653660380605" lon="15.848933148181372"><ele>1313.0</ele><time>2026-04-28T09:32:52.999Z</time></trkpt><trkpt lat="38.17643975805079" lon="15.849120312261066"><ele>1310.0</ele><time>2026-04-28T09:32:53.999Z</time></trkpt><trkpt lat="38.17637083473561" lon="15.849269871469284"><ele>1313.75</ele><time>2026-04-28T09:32:54.999Z</time></trkpt><trkpt lat="38.17628593766568" lon="15.849384643996094"><ele>1317.5</ele><time>2026-04-28T09:32:55.999Z</time></trkpt><trkpt lat="38.1761632868719" lon="15.849446037044265"><ele>1321.25</ele><time>2026-04-28T09:32:56.999Z</time></trkpt><trkpt lat="38.1760085518503" lon="15.849487267564514"><ele>1325.0</ele><time>2026-04-28T09:32:57.999Z</time></trkpt><trkpt lat="38.1758250522444" lon="15.849552730977898"><ele>1326.3333333333335</ele><time>2026-04-28T09:32:58.999Z</time></trkpt><trkpt lat="38.1756289552206" lon="15.849615547309464"><ele>1327.6666666666667</ele><time>2026-04-28T09:32:59.999Z</time></trkpt><trkpt lat="38.1754733952131" lon="15.849642383073947"><ele>1329.0</ele><time>2026-04-28T09:33:00.999Z</time></trkpt><trkpt lat="38.175370289256406" lon="15.849669921095165"><ele>1329.0</ele><time>2026-04-28T09:33:01.999Z</time></trkpt><trkpt lat="38.17528945358792" lon="15.849671889884569"><ele>1329.0</ele><time>2026-04-28T09:33:02.999Z</time></trkpt><trkpt lat="38.17518559576352" lon="15.849531212928914"><ele>1329.0</ele><time>2026-04-28T09:33:04.999Z</time></trkpt><trkpt lat="38.17513091317773" lon="15.849389053710208"><ele>1329.0</ele><time>2026-04-28T09:33:05.999Z</time></trkpt><trkpt lat="38.17507568627309" lon="15.849235281212014"><ele>1328.4</ele><time>2026-04-28T09:33:06.999Z</time></trkpt><trkpt lat="38.17505591361809" lon="15.849096764181137"><ele>1327.8000000000002</ele><time>2026-04-28T09:33:07.999Z</time></trkpt><trkpt lat="38.17507509565705" lon="15.848987515996752"><ele>1327.1999999999998</ele><time>2026-04-28T09:33:08.999Z</time></trkpt><trkpt lat="38.175149464044814" lon="15.848898144733317"><ele>1326.6</ele><time>2026-04-28T09:33:09.999Z</time></trkpt><trkpt lat="38.1752030613122" lon="15.848756547517617"><ele>1326.0</ele><time>2026-04-28T09:33:10.999Z</time></trkpt><trkpt lat="38.17520108983836" lon="15.848629916861487"><ele>1326.0</ele><time>2026-04-28T09:33:11.999Z</time></trkpt><trkpt lat="38.17514428016794" lon="15.848517426001068"><ele>1326.0</ele><time>2026-04-28T09:33:12.999Z</time></trkpt><trkpt lat="38.17501426076559" lon="15.848466738728165"><ele>1326.0</ele><time>2026-04-28T09:33:13.999Z</time></trkpt><trkpt lat="38.17491041701581" lon="15.848373846939309"><ele>1326.0</ele><time>2026-04-28T09:33:14.999Z</time></trkpt><trkpt lat="38.174832072855864" lon="15.84824361817861"><ele>1332.75</ele><time>2026-04-28T09:33:15.999Z</time></trkpt><trkpt lat="38.17478282079971" lon="15.848069798269075"><ele>1339.5</ele><time>2026-04-28T09:33:16.999Z</time></trkpt><trkpt lat="38.174759363383544" lon="15.84794350455673"><ele>1346.25</ele><time>2026-04-28T09:33:17.999Z</time></trkpt><trkpt lat="38.17473773260563" lon="15.847812654547155"><ele>1353.0</ele><time>2026-04-28T09:33:18.999Z</time></trkpt><trkpt lat="38.17471627955613" lon="15.84766596270637"><ele>1352.8000000000002</ele><time>2026-04-28T09:33:19.999Z</time></trkpt><trkpt lat="38.174706818097704" lon="15.847538156741708"><ele>1352.6</ele><time>2026-04-28T09:33:20.999Z</time></trkpt><trkpt lat="38.17470199574132" lon="15.84740639596269"><ele>1352.4</ele><time>2026-04-28T09:33:21.999Z</time></trkpt><trkpt lat="38.17471453044032" lon="15.847289817701697"><ele>1352.1999999999998</ele><time>2026-04-28T09:33:22.999Z</time></trkpt><trkpt lat="38.17479846396243" lon="15.84716934421531"><ele>1352.0</ele><time>2026-04-28T09:33:23.999Z</time></trkpt><trkpt lat="38.17489518820395" lon="15.8470216017362"><ele>1346.0</ele><time>2026-04-28T09:33:24.999Z</time></trkpt><trkpt lat="38.17503384769997" lon="15.84680334274244"><ele>1340.0</ele><time>2026-04-28T09:33:25.999Z</time></trkpt><trkpt lat="38.175122771625624" lon="15.846640193474089"><ele>1334.0</ele><time>2026-04-28T09:33:26.999Z</time></trkpt><trkpt lat="38.17514135661225" lon="15.846436462603162"><ele>1334.0</ele><time>2026-04-28T09:33:27.999Z</time></trkpt><trkpt lat="38.1751281615429" lon="15.846295068906056"><ele>1334.0</ele><time>2026-04-28T09:33:28.999Z</time></trkpt><trkpt lat="38.17509232799841" lon="15.84610024370943"><ele>1334.0</ele><time>2026-04-28T09:33:29.999Z</time></trkpt><trkpt lat="38.17500617876851" lon="15.845956769852831"><ele>1334.0</ele><time>2026-04-28T09:33:30.999Z</time></trkpt><trkpt lat="38.174879497379045" lon="15.845807276088859"><ele>1339.3333333333335</ele><time>2026-04-28T09:33:31.999Z</time></trkpt><trkpt lat="38.17473441704099" lon="15.845679581131277"><ele>1344.6666666666667</ele><time>2026-04-28T09:33:32.999Z</time></trkpt><trkpt lat="38.17457033566891" lon="15.845590384220237"><ele>1350.0</ele><time>2026-04-28T09:33:33.999Z</time></trkpt><trkpt lat="38.17433574384976" lon="15.845520617578792"><ele>1350.0</ele><time>2026-04-28T09:33:34.999Z</time></trkpt><trkpt lat="38.17413431779818" lon="15.845473310338233"><ele>1350.0</ele><time>2026-04-28T09:33:35.999Z</time></trkpt><trkpt lat="38.17397602659023" lon="15.845401128331853"><ele>1350.0</ele><time>2026-04-28T09:33:36.999Z</time></trkpt><trkpt lat="38.17385768932114" lon="15.8452750184268"><ele>1349.75</ele><time>2026-04-28T09:33:37.999Z</time></trkpt><trkpt lat="38.173777792298516" lon="15.845196670450814"><ele>1349.5</ele><time>2026-04-28T09:33:38.999Z</time></trkpt><trkpt lat="38.17368109288438" lon="15.845072448643622"><ele>1349.25</ele><time>2026-04-28T09:33:39.999Z</time></trkpt><trkpt lat="38.17356206880168" lon="15.84491506050479"><ele>1349.0</ele><time>2026-04-28T09:33:40.999Z</time></trkpt><trkpt lat="38.173391607554734" lon="15.844673284620535"><ele>1349.0</ele><time>2026-04-28T09:33:41.999Z</time></trkpt><trkpt lat="38.17322199558" lon="15.84445164217194"><ele>1349.0</ele><time>2026-04-28T09:33:42.999Z</time></trkpt><trkpt lat="38.173066260964504" lon="15.844217012685887"><ele>1351.5</ele><time>2026-04-28T09:33:43.999Z</time></trkpt><trkpt lat="38.17287162175609" lon="15.843954364679819"><ele>1354.0</ele><time>2026-04-28T09:33:44.999Z</time></trkpt><trkpt lat="38.172701054624035" lon="15.84371887655451"><ele>1354.5</ele><time>2026-04-28T09:33:45.999Z</time></trkpt><trkpt lat="38.17250524118073" lon="15.843424441124585"><ele>1355.0</ele><time>2026-04-28T09:33:46.999Z</time></trkpt><trkpt lat="38.172302357241755" lon="15.843137963747825"><ele>1355.0</ele><time>2026-04-28T09:33:47.999Z</time></trkpt><trkpt lat="38.17213188018775" lon="15.842855959131928"><ele>1355.0</ele><time>2026-04-28T09:33:48.999Z</time></trkpt><trkpt lat="38.17195584673767" lon="15.842595626438802"><ele>1351.5</ele><time>2026-04-28T09:33:49.999Z</time></trkpt><trkpt lat="38.17176423038776" lon="15.842312248419619"><ele>1348.0</ele><time>2026-04-28T09:33:50.999Z</time></trkpt><trkpt lat="38.171595819461615" lon="15.84206425443742"><ele>1348.5</ele><time>2026-04-28T09:33:51.999Z</time></trkpt><trkpt lat="38.17142724488323" lon="15.841816228482271"><ele>1349.0</ele><time>2026-04-28T09:33:52.999Z</time></trkpt><trkpt lat="38.171272658021785" lon="15.841588782863708"><ele>1349.0</ele><time>2026-04-28T09:33:53.999Z</time></trkpt><trkpt lat="38.17112252898666" lon="15.841368172094986"><ele>1349.0</ele><time>2026-04-28T09:33:54.999Z</time></trkpt><trkpt lat="38.1709772466556" lon="15.841156283582201"><ele>1349.0</ele><time>2026-04-28T09:33:55.999Z</time></trkpt><trkpt lat="38.1708471787025" lon="15.840966584644894"><ele>1349.0</ele><time>2026-04-28T09:33:56.999Z</time></trkpt><trkpt lat="38.170733499799326" lon="15.840800788495908"><ele>1349.0</ele><time>2026-04-28T09:33:57.999Z</time></trkpt><trkpt lat="38.17062794021595" lon="15.840683019896439"><ele>1346.75</ele><time>2026-04-28T09:33:58.999Z</time></trkpt><trkpt lat="38.170544913419825" lon="15.840578601006724"><ele>1344.5</ele><time>2026-04-28T09:33:59.999Z</time></trkpt><trkpt lat="38.17044564304944" lon="15.84051078036176"><ele>1342.25</ele><time>2026-04-28T09:34:00.999Z</time></trkpt><trkpt lat="38.170315312624865" lon="15.840492924857891"><ele>1340.0</ele><time>2026-04-28T09:34:01.999Z</time></trkpt><trkpt lat="38.17020402552428" lon="15.840537431465238"><ele>1340.0</ele><time>2026-04-28T09:34:02.999Z</time></trkpt><trkpt lat="38.170004960639176" lon="15.84063698293885"><ele>1340.0</ele><time>2026-04-28T09:34:03.999Z</time></trkpt><trkpt lat="38.16989474955198" lon="15.84067628410597"><ele>1340.0</ele><time>2026-04-28T09:34:04.999Z</time></trkpt><trkpt lat="38.16981687783277" lon="15.84065824636931"><ele>1340.0</ele><time>2026-04-28T09:34:05.999Z</time></trkpt><trkpt lat="38.16976255090177" lon="15.840536262569099"><ele>1340.75</ele><time>2026-04-28T09:34:06.999Z</time></trkpt><trkpt lat="38.169740458176555" lon="15.840406709938618"><ele>1341.5</ele><time>2026-04-28T09:34:07.999Z</time></trkpt><trkpt lat="38.1697430668823" lon="15.840280670454154"><ele>1342.25</ele><time>2026-04-28T09:34:08.999Z</time></trkpt><trkpt lat="38.16970450161644" lon="15.840061477729714"><ele>1343.0</ele><time>2026-04-28T09:34:09.999Z</time></trkpt><trkpt lat="38.16958598130433" lon="15.839795326349076"><ele>1343.0</ele><time>2026-04-28T09:34:10.998Z</time></trkpt><trkpt lat="38.16944805150213" lon="15.839638531092952"><ele>1343.0</ele><time>2026-04-28T09:34:11.998Z</time></trkpt><trkpt lat="38.16933501862475" lon="15.839479592724066"><ele>1343.0</ele><time>2026-04-28T09:34:12.998Z</time></trkpt><trkpt lat="38.16926034713063" lon="15.839290176504754"><ele>1340.0</ele><time>2026-04-28T09:34:13.998Z</time></trkpt><trkpt lat="38.16917691830688" lon="15.83907289050424"><ele>1337.0</ele><time>2026-04-28T09:34:14.998Z</time></trkpt><trkpt lat="38.16907994459615" lon="15.838858813772674"><ele>1334.0</ele><time>2026-04-28T09:34:15.998Z</time></trkpt><trkpt lat="38.16895276881789" lon="15.838661049743894"><ele>1333.25</ele><time>2026-04-28T09:34:17Z</time></trkpt><trkpt lat="38.16881544399201" lon="15.838511526752834"><ele>1332.5</ele><time>2026-04-28T09:34:18Z</time></trkpt><trkpt lat="38.16871317367257" lon="15.838391749509793"><ele>1331.75</ele><time>2026-04-28T09:34:19Z</time></trkpt><trkpt lat="38.16864745562741" lon="15.838307544650249"><ele>1331.0</ele><time>2026-04-28T09:34:20Z</time></trkpt><trkpt lat="38.16855772409635" lon="15.838247840388348"><ele>1327.0</ele><time>2026-04-28T09:34:21Z</time></trkpt><trkpt lat="38.16841238352271" lon="15.83824472090541"><ele>1323.0</ele><time>2026-04-28T09:34:22Z</time></trkpt><trkpt lat="38.168266709946636" lon="15.838206998983855"><ele>1319.0</ele><time>2026-04-28T09:34:23Z</time></trkpt><trkpt lat="38.16809891299848" lon="15.838228761695575"><ele>1318.5</ele><time>2026-04-28T09:34:24Z</time></trkpt><trkpt lat="38.16798869664064" lon="15.83818025293277"><ele>1318.0</ele><time>2026-04-28T09:34:25Z</time></trkpt><trkpt lat="38.167896222398326" lon="15.838075777542603"><ele>1317.5</ele><time>2026-04-28T09:34:26Z</time></trkpt><trkpt lat="38.16785610467778" lon="15.837945339482358"><ele>1317.0</ele><time>2026-04-28T09:34:27Z</time></trkpt><trkpt lat="38.16780849760664" lon="15.837798907483144"><ele>1317.0</ele><time>2026-04-28T09:34:28Z</time></trkpt><trkpt lat="38.16776908690808" lon="15.83766323350083"><ele>1317.0</ele><time>2026-04-28T09:34:29Z</time></trkpt><trkpt lat="38.16773189003478" lon="15.83753513172628"><ele>1317.0</ele><time>2026-04-28T09:34:30Z</time></trkpt><trkpt lat="38.16772673752098" lon="15.837410295418323"><ele>1317.0</ele><time>2026-04-28T09:34:31Z</time></trkpt><trkpt lat="38.1677383377808" lon="15.837290251116656"><ele>1317.0</ele><time>2026-04-28T09:34:32Z</time></trkpt><trkpt lat="38.16773214592417" lon="15.837145085427265"><ele>1317.3333333333333</ele><time>2026-04-28T09:34:33Z</time></trkpt><trkpt lat="38.167639631060844" lon="15.83697522689343"><ele>1317.6666666666665</ele><time>2026-04-28T09:34:34Z</time></trkpt><trkpt lat="38.16757576662062" lon="15.836774113622024"><ele>1318.0</ele><time>2026-04-28T09:34:35Z</time></trkpt><trkpt lat="38.16750337857484" lon="15.836590275019638"><ele>1318.0</ele><time>2026-04-28T09:34:36Z</time></trkpt><trkpt lat="38.16744332768127" lon="15.83643587537126"><ele>1318.0</ele><time>2026-04-28T09:34:37Z</time></trkpt><trkpt lat="38.167395807258664" lon="15.836306157732919"><ele>1318.0</ele><time>2026-04-28T09:34:38Z</time></trkpt><trkpt lat="38.16736012240724" lon="15.836203625031503"><ele>1318.0</ele><time>2026-04-28T09:34:39Z</time></trkpt><trkpt lat="38.16733991958687" lon="15.836119961737634"><ele>1318.0</ele><time>2026-04-28T09:34:40Z</time></trkpt><trkpt lat="38.167368973137066" lon="15.836041024100886"><ele>1317.75</ele><time>2026-04-28T09:34:41Z</time></trkpt><trkpt lat="38.16744034600203" lon="15.835953945064366"><ele>1317.5</ele><time>2026-04-28T09:34:42Z</time></trkpt><trkpt lat="38.16755703668957" lon="15.835877674338613"><ele>1317.25</ele><time>2026-04-28T09:34:43Z</time></trkpt><trkpt lat="38.167703319448016" lon="15.83580726608354"><ele>1317.0</ele><time>2026-04-28T09:34:44Z</time></trkpt><trkpt lat="38.16785583231411" lon="15.835716893149007"><ele>1317.0</ele><time>2026-04-28T09:34:45Z</time></trkpt><trkpt lat="38.16799819304365" lon="15.83562861728126"><ele>1317.0</ele><time>2026-04-28T09:34:46Z</time></trkpt><trkpt lat="38.16810745641878" lon="15.835550410218518"><ele>1317.0</ele><time>2026-04-28T09:34:47Z</time></trkpt><trkpt lat="38.16819744579691" lon="15.835462880353372"><ele>1317.0</ele><time>2026-04-28T09:34:48Z</time></trkpt><trkpt lat="38.1682818061639" lon="15.83531512379748"><ele>1315.0</ele><time>2026-04-28T09:34:49Z</time></trkpt><trkpt lat="38.16836855033483" lon="15.835100227054458"><ele>1313.0</ele><time>2026-04-28T09:34:50Z</time></trkpt><trkpt lat="38.168447557798764" lon="15.83489416533867"><ele>1311.0</ele><time>2026-04-28T09:34:51Z</time></trkpt><trkpt lat="38.16850979318504" lon="15.834721232215063"><ele>1311.0</ele><time>2026-04-28T09:34:52Z</time></trkpt><trkpt lat="38.168541549067626" lon="15.834580818529727"><ele>1311.0</ele><time>2026-04-28T09:34:53Z</time></trkpt><trkpt lat="38.168550324530905" lon="15.834411952398519"><ele>1311.0</ele><time>2026-04-28T09:34:53.999Z</time></trkpt><trkpt lat="38.168541322982" lon="15.83420449127407"><ele>1311.0</ele><time>2026-04-28T09:34:54.999Z</time></trkpt><trkpt lat="38.168527486082475" lon="15.8339843787439"><ele>1310.3333333333333</ele><time>2026-04-28T09:34:55.999Z</time></trkpt><trkpt lat="38.16846943239537" lon="15.833738010664316"><ele>1309.6666666666665</ele><time>2026-04-28T09:34:56.999Z</time></trkpt><trkpt lat="38.16839294556677" lon="15.833490964662674"><ele>1309.0</ele><time>2026-04-28T09:34:57.999Z</time></trkpt><trkpt lat="38.168341969324814" lon="15.833264033259596"><ele>1307.3333333333333</ele><time>2026-04-28T09:34:58.999Z</time></trkpt><trkpt lat="38.168296698033785" lon="15.83305000479163"><ele>1305.6666666666667</ele><time>2026-04-28T09:34:59.999Z</time></trkpt><trkpt lat="38.16824340504137" lon="15.832827616902097"><ele>1304.0</ele><time>2026-04-28T09:35:00.999Z</time></trkpt><trkpt lat="38.16819429892525" lon="15.832612652413154"><ele>1303.0</ele><time>2026-04-28T09:35:01.999Z</time></trkpt><trkpt lat="38.168153099019186" lon="15.832434574353156"><ele>1302.0</ele><time>2026-04-28T09:35:02.999Z</time></trkpt><trkpt lat="38.16813037380065" lon="15.832296773785341"><ele>1301.0</ele><time>2026-04-28T09:35:03.999Z</time></trkpt><trkpt lat="38.16809389129765" lon="15.832177032019674"><ele>1300.0</ele><time>2026-04-28T09:35:04.999Z</time></trkpt><trkpt lat="38.16801109724896" lon="15.832057102845999"><ele>1300.0</ele><time>2026-04-28T09:35:05.999Z</time></trkpt><trkpt lat="38.16787462796673" lon="15.831939410280441"><ele>1300.0</ele><time>2026-04-28T09:35:06.999Z</time></trkpt><trkpt lat="38.16773723983419" lon="15.831801947589433"><ele>1300.0</ele><time>2026-04-28T09:35:07.999Z</time></trkpt><trkpt lat="38.1676186398193" lon="15.831733587439974"><ele>1298.2</ele><time>2026-04-28T09:35:08.999Z</time></trkpt><trkpt lat="38.16751779356578" lon="15.831637406257316"><ele>1296.4</ele><time>2026-04-28T09:35:09.999Z</time></trkpt><trkpt lat="38.16744285127337" lon="15.8315708956795"><ele>1294.6</ele><time>2026-04-28T09:35:10.999Z</time></trkpt><trkpt lat="38.16739617711858" lon="15.831491085475458"><ele>1292.8</ele><time>2026-04-28T09:35:11.999Z</time></trkpt><trkpt lat="38.16740121820224" lon="15.831366406364152"><ele>1291.0</ele><time>2026-04-28T09:35:12.999Z</time></trkpt><trkpt lat="38.167450878765116" lon="15.831256187641824"><ele>1291.0</ele><time>2026-04-28T09:35:13.999Z</time></trkpt><trkpt lat="38.16755417759998" lon="15.831194778843571"><ele>1291.0</ele><time>2026-04-28T09:35:14.999Z</time></trkpt><trkpt lat="38.16768776370962" lon="15.83118186285631"><ele>1291.0</ele><time>2026-04-28T09:35:15.999Z</time></trkpt><trkpt lat="38.167835030169954" lon="15.831162715294"><ele>1291.0</ele><time>2026-04-28T09:35:16.999Z</time></trkpt><trkpt lat="38.16796350182661" lon="15.831085018822765"><ele>1291.0</ele><time>2026-04-28T09:35:17.999Z</time></trkpt><trkpt lat="38.168080009860766" lon="15.830997778381876"><ele>1291.0</ele><time>2026-04-28T09:35:18.999Z</time></trkpt><trkpt lat="38.168211665917504" lon="15.830678171426275"><ele>1291.0</ele><time>2026-04-28T09:35:19.999Z</time></trkpt><trkpt lat="38.16835951640912" lon="15.830446427282626"><ele>1286.0</ele><time>2026-04-28T09:35:20.999Z</time></trkpt><trkpt lat="38.168464225097615" lon="15.830256966064757"><ele>1281.0</ele><time>2026-04-28T09:35:21.999Z</time></trkpt><trkpt lat="38.1685717582784" lon="15.83006239415475"><ele>1276.0</ele><time>2026-04-28T09:35:22.999Z</time></trkpt><trkpt lat="38.1686801784338" lon="15.82986621735061"><ele>1274.0</ele><time>2026-04-28T09:35:23.999Z</time></trkpt><trkpt lat="38.16877048335113" lon="15.82969694803654"><ele>1272.0</ele><time>2026-04-28T09:35:24.999Z</time></trkpt><trkpt lat="38.16885286271416" lon="15.829538535225586"><ele>1270.0</ele><time>2026-04-28T09:35:25.999Z</time></trkpt><trkpt lat="38.16891245586825" lon="15.829421028571579"><ele>1268.0</ele><time>2026-04-28T09:35:26.999Z</time></trkpt><trkpt lat="38.16896975782522" lon="15.829327241561511"><ele>1268.2</ele><time>2026-04-28T09:35:27.999Z</time></trkpt><trkpt lat="38.169056757332406" lon="15.829280705380397"><ele>1268.4</ele><time>2026-04-28T09:35:29.999Z</time></trkpt><trkpt lat="38.16913358335331" lon="15.829345055259914"><ele>1268.6000000000001</ele><time>2026-04-28T09:35:30.999Z</time></trkpt><trkpt lat="38.16916231060315" lon="15.829464222245724"><ele>1268.8</ele><time>2026-04-28T09:35:31.999Z</time></trkpt><trkpt lat="38.16913851385208" lon="15.829589390562676"><ele>1269.0</ele><time>2026-04-28T09:35:32.999Z</time></trkpt><trkpt lat="38.16913773049679" lon="15.829765509096244"><ele>1269.0</ele><time>2026-04-28T09:35:33.999Z</time></trkpt><trkpt lat="38.1691490645761" lon="15.829977143844346"><ele>1269.0</ele><time>2026-04-28T09:35:34.999Z</time></trkpt><trkpt lat="38.16917862637905" lon="15.830111490600201"><ele>1269.0</ele><time>2026-04-28T09:35:35.999Z</time></trkpt><trkpt lat="38.16929526466491" lon="15.830104693309982"><ele>1269.0</ele><time>2026-04-28T09:35:37.999Z</time></trkpt><trkpt lat="38.16939604442187" lon="15.829870070083054"><ele>1269.0</ele><time>2026-04-28T09:35:39.999Z</time></trkpt><trkpt lat="38.16944013643907" lon="15.82969462825276"><ele>1269.0</ele><time>2026-04-28T09:35:40.999Z</time></trkpt><trkpt lat="38.16949638507218" lon="15.829500132025025"><ele>1269.0</ele><time>2026-04-28T09:35:41.999Z</time></trkpt><trkpt lat="38.16955312482031" lon="15.82926288728853"><ele>1269.25</ele><time>2026-04-28T09:35:42.999Z</time></trkpt><trkpt lat="38.16962208344972" lon="15.829111561740229"><ele>1269.5</ele><time>2026-04-28T09:35:43.999Z</time></trkpt><trkpt lat="38.1696494245195" lon="15.829020785412013"><ele>1269.75</ele><time>2026-04-28T09:35:44.999Z</time></trkpt><trkpt lat="38.169765494455504" lon="15.828930286278803"><ele>1270.0</ele><time>2026-04-28T09:35:45.999Z</time></trkpt><trkpt lat="38.16988259509316" lon="15.828866181827294"><ele>1265.5</ele><time>2026-04-28T09:35:46.999Z</time></trkpt><trkpt lat="38.17003693530993" lon="15.828785000789875"><ele>1261.0</ele><time>2026-04-28T09:35:47.999Z</time></trkpt><trkpt lat="38.170156097047276" lon="15.828722859494386"><ele>1256.5</ele><time>2026-04-28T09:35:48.999Z</time></trkpt><trkpt lat="38.1702177354633" lon="15.828686902705451"><ele>1252.0</ele><time>2026-04-28T09:35:49.999Z</time></trkpt><trkpt lat="38.17029010155135" lon="15.82862358661206"><ele>1252.0</ele><time>2026-04-28T09:35:50.999Z</time></trkpt><trkpt lat="38.17030023079354" lon="15.82848767345597"><ele>1252.0</ele><time>2026-04-28T09:35:52.999Z</time></trkpt><trkpt lat="38.170217352523046" lon="15.828428325322415"><ele>1252.0</ele><time>2026-04-28T09:35:53.999Z</time></trkpt><trkpt lat="38.17011750149849" lon="15.828428827940272"><ele>1252.0</ele><time>2026-04-28T09:35:54.999Z</time></trkpt><trkpt lat="38.16997554078965" lon="15.828465469693315"><ele>1252.0</ele><time>2026-04-28T09:35:55.999Z</time></trkpt><trkpt lat="38.169830212688744" lon="15.828505456217023"><ele>1250.8</ele><time>2026-04-28T09:35:56.999Z</time></trkpt><trkpt lat="38.169685642531064" lon="15.828495627632243"><ele>1249.6</ele><time>2026-04-28T09:35:57.999Z</time></trkpt><trkpt lat="38.16959352450075" lon="15.828474160899702"><ele>1248.3999999999999</ele><time>2026-04-28T09:35:58.999Z</time></trkpt><trkpt lat="38.169543990503506" lon="15.82841283813503"><ele>1247.2</ele><time>2026-04-28T09:36:00.999Z</time></trkpt><trkpt lat="38.16962936660502" lon="15.828287978523727"><ele>1246.0</ele><time>2026-04-28T09:36:02.999Z</time></trkpt><trkpt lat="38.16974774221252" lon="15.828232274945751"><ele>1242.3333333333333</ele><time>2026-04-28T09:36:03.999Z</time></trkpt><trkpt lat="38.16992096939886" lon="15.828192013307383"><ele>1238.6666666666667</ele><time>2026-04-28T09:36:04.999Z</time></trkpt><trkpt lat="38.17010302027409" lon="15.82813712479124"><ele>1235.0</ele><time>2026-04-28T09:36:05.999Z</time></trkpt><trkpt lat="38.17026459241489" lon="15.82806770040996"><ele>1235.0</ele><time>2026-04-28T09:36:06.999Z</time></trkpt><trkpt lat="38.17043070996489" lon="15.828022371392144"><ele>1235.0</ele><time>2026-04-28T09:36:07.999Z</time></trkpt><trkpt lat="38.1705736196592" lon="15.827982426381215"><ele>1235.0</ele><time>2026-04-28T09:36:08.999Z</time></trkpt><trkpt lat="38.17069783038854" lon="15.827902027737288"><ele>1232.75</ele><time>2026-04-28T09:36:10.999Z</time></trkpt><trkpt lat="38.17074171758058" lon="15.827755124286709"><ele>1230.5</ele><time>2026-04-28T09:36:12.999Z</time></trkpt><trkpt lat="38.17067656046827" lon="15.827635984697626"><ele>1228.25</ele><time>2026-04-28T09:36:13.999Z</time></trkpt><trkpt lat="38.17057018540224" lon="15.827513011287717"><ele>1226.0</ele><time>2026-04-28T09:36:14.999Z</time></trkpt><trkpt lat="38.17042153239329" lon="15.8274339541976"><ele>1223.5</ele><time>2026-04-28T09:36:15.999Z</time></trkpt><trkpt lat="38.17038609806075" lon="15.827285913970055"><ele>1221.0</ele><time>2026-04-28T09:36:16.999Z</time></trkpt><trkpt lat="38.17038936118652" lon="15.827131330663482"><ele>1218.5</ele><time>2026-04-28T09:36:17.999Z</time></trkpt><trkpt lat="38.17046097501978" lon="15.82700924845997"><ele>1216.0</ele><time>2026-04-28T09:36:18.999Z</time></trkpt><trkpt lat="38.17054314045513" lon="15.826837818719335"><ele>1216.0</ele><time>2026-04-28T09:36:19.999Z</time></trkpt><trkpt lat="38.170609736468265" lon="15.82669248063529"><ele>1216.0</ele><time>2026-04-28T09:36:20.999Z</time></trkpt><trkpt lat="38.17073005877948" lon="15.826401435545849"><ele>1216.0</ele><time>2026-04-28T09:36:21.999Z</time></trkpt><trkpt lat="38.1708408870307" lon="15.826153482667479"><ele>1214.0</ele><time>2026-04-28T09:36:23Z</time></trkpt><trkpt lat="38.17092212633395" lon="15.825935421845934"><ele>1212.0</ele><time>2026-04-28T09:36:24Z</time></trkpt><trkpt lat="38.17097746584556" lon="15.825705010096515"><ele>1210.0</ele><time>2026-04-28T09:36:25Z</time></trkpt><trkpt lat="38.17099555311941" lon="15.82545754499433"><ele>1204.5</ele><time>2026-04-28T09:36:26Z</time></trkpt><trkpt lat="38.17101052636646" lon="15.825101274104124"><ele>1199.0</ele><time>2026-04-28T09:36:27Z</time></trkpt><trkpt lat="38.1710462681458" lon="15.824703885461522"><ele>1199.0</ele><time>2026-04-28T09:36:28Z</time></trkpt><trkpt lat="38.171064556752256" lon="15.824368563325661"><ele>1199.0</ele><time>2026-04-28T09:36:29Z</time></trkpt><trkpt lat="38.17108284525138" lon="15.824075067827414"><ele>1194.0</ele><time>2026-04-28T09:36:30Z</time></trkpt><trkpt lat="38.17110577562696" lon="15.823800767243869"><ele>1189.0</ele><time>2026-04-28T09:36:31Z</time></trkpt><trkpt lat="38.17114004367815" lon="15.82349427611353"><ele>1182.5</ele><time>2026-04-28T09:36:32Z</time></trkpt><trkpt lat="38.17118739090625" lon="15.823151957631488"><ele>1176.0</ele><time>2026-04-28T09:36:33Z</time></trkpt><trkpt lat="38.17124501154772" lon="15.822822646047848"><ele>1166.5</ele><time>2026-04-28T09:36:34Z</time></trkpt><trkpt lat="38.17130919381177" lon="15.822507027037663"><ele>1157.0</ele><time>2026-04-28T09:36:35Z</time></trkpt><trkpt lat="38.171383436553505" lon="15.82216025161009"><ele>1148.0</ele><time>2026-04-28T09:36:36Z</time></trkpt><trkpt lat="38.171461429637205" lon="15.821803714648992"><ele>1139.0</ele><time>2026-04-28T09:36:37Z</time></trkpt><trkpt lat="38.171536203697855" lon="15.8214639897479"><ele>1153.0</ele><time>2026-04-28T09:36:38Z</time></trkpt><trkpt lat="38.17160906195019" lon="15.821139897820748"><ele>1167.0</ele><time>2026-04-28T09:36:39Z</time></trkpt><trkpt lat="38.17167738768326" lon="15.820843524408946"><ele>1167.0</ele><time>2026-04-28T09:36:40Z</time></trkpt><trkpt lat="38.171744004798995" lon="15.820561054338446"><ele>1167.0</ele><time>2026-04-28T09:36:41Z</time></trkpt><trkpt lat="38.171803380812946" lon="15.820313456617189"><ele>1167.0</ele><time>2026-04-28T09:36:42Z</time></trkpt><trkpt lat="38.171865835776764" lon="15.82005191005006"><ele>1167.0</ele><time>2026-04-28T09:36:43Z</time></trkpt><trkpt lat="38.17189235368841" lon="15.819796189249413"><ele>1167.0</ele><time>2026-04-28T09:36:44Z</time></trkpt><trkpt lat="38.1719507776515" lon="15.8195712663461"><ele>1167.0</ele><time>2026-04-28T09:36:45Z</time></trkpt><trkpt lat="38.17200633562111" lon="15.819356829905244"><ele>1168.0</ele><time>2026-04-28T09:36:46Z</time></trkpt><trkpt lat="38.17206053441177" lon="15.8191342519307"><ele>1169.0</ele><time>2026-04-28T09:36:47Z</time></trkpt><trkpt lat="38.17210287540746" lon="15.818927096065876"><ele>1170.0</ele><time>2026-04-28T09:36:48Z</time></trkpt><trkpt lat="38.17212129572606" lon="15.818719158153772"><ele>1170.0</ele><time>2026-04-28T09:36:49Z</time></trkpt><trkpt lat="38.17211565152806" lon="15.818513382891476"><ele>1170.0</ele><time>2026-04-28T09:36:50Z</time></trkpt><trkpt lat="38.17209233682748" lon="15.818328103630025"><ele>1170.0</ele><time>2026-04-28T09:36:51Z</time></trkpt><trkpt lat="38.172074102166995" lon="15.818165741288523"><ele>1170.0</ele><time>2026-04-28T09:36:52Z</time></trkpt><trkpt lat="38.17205551917013" lon="15.818045690590095"><ele>1170.25</ele><time>2026-04-28T09:36:53Z</time></trkpt><trkpt lat="38.17203154961647" lon="15.817920558608238"><ele>1170.5</ele><time>2026-04-28T09:36:54Z</time></trkpt><trkpt lat="38.17201485531115" lon="15.817775315863448"><ele>1170.75</ele><time>2026-04-28T09:36:55Z</time></trkpt><trkpt lat="38.171948016383276" lon="15.817578628328869"><ele>1171.0</ele><time>2026-04-28T09:36:56Z</time></trkpt><trkpt lat="38.17184918765533" lon="15.817365142534802"><ele>1169.3333333333333</ele><time>2026-04-28T09:36:57Z</time></trkpt><trkpt lat="38.171740665857016" lon="15.817152780388474"><ele>1167.6666666666667</ele><time>2026-04-28T09:36:58Z</time></trkpt><trkpt lat="38.17163524192382" lon="15.816975734557964"><ele>1166.0</ele><time>2026-04-28T09:36:59Z</time></trkpt><trkpt lat="38.171568524589134" lon="15.816817144641718"><ele>1166.0</ele><time>2026-04-28T09:37:00Z</time></trkpt><trkpt lat="38.17151776450823" lon="15.816684265021303"><ele>1166.0</ele><time>2026-04-28T09:37:01Z</time></trkpt><trkpt lat="38.171488630223195" lon="15.816529918148694"><ele>1166.0</ele><time>2026-04-28T09:37:02Z</time></trkpt><trkpt lat="38.17152477741656" lon="15.816306039254236"><ele>1166.0</ele><time>2026-04-28T09:37:03Z</time></trkpt><trkpt lat="38.171558699563846" lon="15.81605515567008"><ele>1164.0</ele><time>2026-04-28T09:37:03.999Z</time></trkpt><trkpt lat="38.17159064238244" lon="15.81579044799263"><ele>1162.0</ele><time>2026-04-28T09:37:04.999Z</time></trkpt><trkpt lat="38.171614710182396" lon="15.815521386604056"><ele>1160.0</ele><time>2026-04-28T09:37:05.999Z</time></trkpt><trkpt lat="38.171616869900475" lon="15.815283768611463"><ele>1157.3333333333335</ele><time>2026-04-28T09:37:06.999Z</time></trkpt><trkpt lat="38.17159834699073" lon="15.815056759810279"><ele>1154.6666666666667</ele><time>2026-04-28T09:37:07.999Z</time></trkpt><trkpt lat="38.17153747645853" lon="15.814845918731743"><ele>1152.0</ele><time>2026-04-28T09:37:08.999Z</time></trkpt><trkpt lat="38.17149512356368" lon="15.814672830274414"><ele>1150.25</ele><time>2026-04-28T09:37:09.999Z</time></trkpt><trkpt lat="38.17146237926376" lon="15.814520267134915"><ele>1148.5</ele><time>2026-04-28T09:37:10.999Z</time></trkpt><trkpt lat="38.17144770230747" lon="15.814380209896777"><ele>1146.75</ele><time>2026-04-28T09:37:11.999Z</time></trkpt><trkpt lat="38.171528981563185" lon="15.814263799764277"><ele>1145.0</ele><time>2026-04-28T09:37:12.999Z</time></trkpt><trkpt lat="38.171588904642086" lon="15.814167349668816"><ele>1145.0</ele><time>2026-04-28T09:37:13.999Z</time></trkpt><trkpt lat="38.171663445971504" lon="15.814088313391421"><ele>1145.0</ele><time>2026-04-28T09:37:14.999Z</time></trkpt><trkpt lat="38.17174979926273" lon="15.814019669170914"><ele>1145.0</ele><time>2026-04-28T09:37:15.999Z</time></trkpt><trkpt lat="38.17185729686403" lon="15.813997488978682"><ele>1145.0</ele><time>2026-04-28T09:37:16.999Z</time></trkpt><trkpt lat="38.17196685190143" lon="15.813959638780366"><ele>1145.0</ele><time>2026-04-28T09:37:17.999Z</time></trkpt><trkpt lat="38.17207670214819" lon="15.813926017222915"><ele>1145.0</ele><time>2026-04-28T09:37:18.999Z</time></trkpt><trkpt lat="38.172192959686484" lon="15.813891395562244"><ele>1145.0</ele><time>2026-04-28T09:37:19.999Z</time></trkpt><trkpt lat="38.17231782420974" lon="15.813854210729325"><ele>1145.0</ele><time>2026-04-28T09:37:20.999Z</time></trkpt><trkpt lat="38.172467391084254" lon="15.813809622801784"><ele>1145.0</ele><time>2026-04-28T09:37:21.999Z</time></trkpt><trkpt lat="38.172630196930605" lon="15.813760916496841"><ele>1145.0</ele><time>2026-04-28T09:37:22.999Z</time></trkpt><trkpt lat="38.17279592254738" lon="15.813712432538965"><ele>1145.0</ele><time>2026-04-28T09:37:23.999Z</time></trkpt><trkpt lat="38.1729471471858" lon="15.81366985101205"><ele>1145.0</ele><time>2026-04-28T09:37:24.999Z</time></trkpt><trkpt lat="38.17308868261709" lon="15.813629997802977"><ele>1144.5</ele><time>2026-04-28T09:37:25.999Z</time></trkpt><trkpt lat="38.1732223632765" lon="15.813587490419353"><ele>1144.0</ele><time>2026-04-28T09:37:26.999Z</time></trkpt><trkpt lat="38.17335234171556" lon="15.81352969067305"><ele>1143.5</ele><time>2026-04-28T09:37:27.999Z</time></trkpt><trkpt lat="38.17346377906213" lon="15.813431016923106"><ele>1143.0</ele><time>2026-04-28T09:37:28.999Z</time></trkpt><trkpt lat="38.17358527442362" lon="15.813368297916352"><ele>1138.0</ele><time>2026-04-28T09:37:29.999Z</time></trkpt><trkpt lat="38.173698088193156" lon="15.813276703421527"><ele>1133.0</ele><time>2026-04-28T09:37:30.999Z</time></trkpt><trkpt lat="38.17379409147156" lon="15.813154721309413"><ele>1128.0</ele><time>2026-04-28T09:37:31.999Z</time></trkpt><trkpt lat="38.17386836330031" lon="15.81300143952929"><ele>1123.0</ele><time>2026-04-28T09:37:32.999Z</time></trkpt><trkpt lat="38.1739532981091" lon="15.812862866820167"><ele>1121.5</ele><time>2026-04-28T09:37:33.999Z</time></trkpt><trkpt lat="38.17404307138264" lon="15.812736232502983"><ele>1120.0</ele><time>2026-04-28T09:37:34.999Z</time></trkpt><trkpt lat="38.17413512328398" lon="15.812621256521275"><ele>1118.5</ele><time>2026-04-28T09:37:35.999Z</time></trkpt><trkpt lat="38.17422997968779" lon="15.812503714675845"><ele>1117.0</ele><time>2026-04-28T09:37:36.999Z</time></trkpt><trkpt lat="38.174321144530495" lon="15.812387744293495"><ele>1117.0</ele><time>2026-04-28T09:37:37.999Z</time></trkpt><trkpt lat="38.17440980182471" lon="15.812270918316203"><ele>1117.0</ele><time>2026-04-28T09:37:38.999Z</time></trkpt><trkpt lat="38.17449589041708" lon="15.812161203822681"><ele>1117.0</ele><time>2026-04-28T09:37:39.999Z</time></trkpt><trkpt lat="38.174587078904835" lon="15.812069821647027"><ele>1117.0</ele><time>2026-04-28T09:37:40.999Z</time></trkpt><trkpt lat="38.1746882041328" lon="15.812015065397908"><ele>1117.0</ele><time>2026-04-28T09:37:41.999Z</time></trkpt><trkpt lat="38.17481359061355" lon="15.811950123855766"><ele>1117.0</ele><time>2026-04-28T09:37:42.999Z</time></trkpt><trkpt lat="38.174964689010096" lon="15.811873289787485"><ele>1117.0</ele><time>2026-04-28T09:37:43.999Z</time></trkpt><trkpt lat="38.175112395989615" lon="15.81180271565426"><ele>1115.4</ele><time>2026-04-28T09:37:44.999Z</time></trkpt><trkpt lat="38.175232042690766" lon="15.811744444967612"><ele>1113.8000000000002</ele><time>2026-04-28T09:37:45.999Z</time></trkpt><trkpt lat="38.17531829801558" lon="15.811662711832504"><ele>1112.2</ele><time>2026-04-28T09:37:46.999Z</time></trkpt><trkpt lat="38.17538120593102" lon="15.811565114186415"><ele>1110.6000000000001</ele><time>2026-04-28T09:37:47.999Z</time></trkpt><trkpt lat="38.17542676192232" lon="15.81143585206194"><ele>1109.0</ele><time>2026-04-28T09:37:48.999Z</time></trkpt><trkpt lat="38.17536789758791" lon="15.811229572043356"><ele>1109.0</ele><time>2026-04-28T09:37:49.999Z</time></trkpt><trkpt lat="38.175306360644946" lon="15.811008292992405"><ele>1109.0</ele><time>2026-04-28T09:37:50.999Z</time></trkpt><trkpt lat="38.175270120983406" lon="15.810765405747786"><ele>1109.0</ele><time>2026-04-28T09:37:51.999Z</time></trkpt><trkpt lat="38.17523281036903" lon="15.810525424791226"><ele>1105.0</ele><time>2026-04-28T09:37:52.999Z</time></trkpt><trkpt lat="38.17522585208853" lon="15.810297176489495"><ele>1101.0</ele><time>2026-04-28T09:37:53.999Z</time></trkpt><trkpt lat="38.17521973585675" lon="15.810078997945736"><ele>1097.0</ele><time>2026-04-28T09:37:54.999Z</time></trkpt><trkpt lat="38.17518333171175" lon="15.809862705134988"><ele>1096.75</ele><time>2026-04-28T09:37:55.999Z</time></trkpt><trkpt lat="38.17511952545367" lon="15.80965290479367"><ele>1096.5</ele><time>2026-04-28T09:37:56.999Z</time></trkpt><trkpt lat="38.17506143426344" lon="15.809479631718697"><ele>1096.25</ele><time>2026-04-28T09:37:57.999Z</time></trkpt><trkpt lat="38.175033927684396" lon="15.809348052938716"><ele>1096.0</ele><time>2026-04-28T09:37:58.999Z</time></trkpt><trkpt lat="38.1750272638192" lon="15.809207081455856"><ele>1096.0</ele><time>2026-04-28T09:37:59.999Z</time></trkpt><trkpt lat="38.17504653788524" lon="15.809035864700865"><ele>1096.0</ele><time>2026-04-28T09:38:00.999Z</time></trkpt><trkpt lat="38.17507887858931" lon="15.808824271307863"><ele>1096.0</ele><time>2026-04-28T09:38:01.999Z</time></trkpt><trkpt lat="38.17511207201143" lon="15.808607606081196"><ele>1094.0</ele><time>2026-04-28T09:38:02.999Z</time></trkpt><trkpt lat="38.175141752271294" lon="15.8084042805932"><ele>1092.0</ele><time>2026-04-28T09:38:03.999Z</time></trkpt><trkpt lat="38.17516753553859" lon="15.808215540346216"><ele>1090.0</ele><time>2026-04-28T09:38:04.999Z</time></trkpt><trkpt lat="38.17518209531497" lon="15.808024151690127"><ele>1090.0</ele><time>2026-04-28T09:38:05.999Z</time></trkpt><trkpt lat="38.17517758185771" lon="15.807841495434651"><ele>1090.0</ele><time>2026-04-28T09:38:06.999Z</time></trkpt><trkpt lat="38.175177585635204" lon="15.807664234554348"><ele>1090.0</ele><time>2026-04-28T09:38:07.999Z</time></trkpt><trkpt lat="38.1751901300002" lon="15.807471122774011"><ele>1090.0</ele><time>2026-04-28T09:38:08.999Z</time></trkpt><trkpt lat="38.17523051516124" lon="15.807263144286583"><ele>1088.6666666666665</ele><time>2026-04-28T09:38:09.999Z</time></trkpt><trkpt lat="38.17529079062041" lon="15.807036370018348"><ele>1087.3333333333333</ele><time>2026-04-28T09:38:10.999Z</time></trkpt><trkpt lat="38.17534140627468" lon="15.806809338345"><ele>1086.0</ele><time>2026-04-28T09:38:11.999Z</time></trkpt><trkpt lat="38.17536562166879" lon="15.806585427275365"><ele>1084.0</ele><time>2026-04-28T09:38:12.999Z</time></trkpt><trkpt lat="38.17535932421188" lon="15.80636778757778"><ele>1082.0</ele><time>2026-04-28T09:38:13.999Z</time></trkpt><trkpt lat="38.17535169877352" lon="15.806169329005314"><ele>1080.0</ele><time>2026-04-28T09:38:14.999Z</time></trkpt><trkpt lat="38.175356081195964" lon="15.805975974704257"><ele>1077.0</ele><time>2026-04-28T09:38:15.999Z</time></trkpt><trkpt lat="38.175383343980926" lon="15.805796317331861"><ele>1074.0</ele><time>2026-04-28T09:38:16.999Z</time></trkpt><trkpt lat="38.17543940406611" lon="15.805625026076818"><ele>1071.0</ele><time>2026-04-28T09:38:17.999Z</time></trkpt><trkpt lat="38.17551672671825" lon="15.805461629863407"><ele>1068.0</ele><time>2026-04-28T09:38:18.999Z</time></trkpt><trkpt lat="38.17559020772522" lon="15.805284824057138"><ele>1072.6666666666667</ele><time>2026-04-28T09:38:19.999Z</time></trkpt><trkpt lat="38.175656426222865" lon="15.805098600703868"><ele>1077.3333333333335</ele><time>2026-04-28T09:38:20.999Z</time></trkpt><trkpt lat="38.17572304268149" lon="15.804891032157244"><ele>1082.0</ele><time>2026-04-28T09:38:21.999Z</time></trkpt><trkpt lat="38.175794548515945" lon="15.804666965455231"><ele>1082.0</ele><time>2026-04-28T09:38:22.999Z</time></trkpt><trkpt lat="38.17587158476929" lon="15.804424949465131"><ele>1082.0</ele><time>2026-04-28T09:38:23.999Z</time></trkpt><trkpt lat="38.175954166134645" lon="15.804172456992665"><ele>1082.0</ele><time>2026-04-28T09:38:24.999Z</time></trkpt><trkpt lat="38.17603547153327" lon="15.803927473349383"><ele>1075.6666666666667</ele><time>2026-04-28T09:38:25.999Z</time></trkpt><trkpt lat="38.17611203833882" lon="15.803688480270798"><ele>1069.3333333333333</ele><time>2026-04-28T09:38:26.999Z</time></trkpt><trkpt lat="38.17616399495612" lon="15.803449269717563"><ele>1063.0</ele><time>2026-04-28T09:38:27.999Z</time></trkpt><trkpt lat="38.176231825495094" lon="15.803242915190374"><ele>1059.75</ele><time>2026-04-28T09:38:29Z</time></trkpt><trkpt lat="38.17628532556913" lon="15.803079382187113"><ele>1056.5</ele><time>2026-04-28T09:38:30Z</time></trkpt><trkpt lat="38.17631768604523" lon="15.8029380661761"><ele>1053.25</ele><time>2026-04-28T09:38:31Z</time></trkpt><trkpt lat="38.176322155861556" lon="15.802790538520378"><ele>1050.0</ele><time>2026-04-28T09:38:32Z</time></trkpt><trkpt lat="38.17627944683343" lon="15.80263759192203"><ele>1049.6666666666667</ele><time>2026-04-28T09:38:33Z</time></trkpt><trkpt lat="38.17619057990302" lon="15.802494390225363"><ele>1049.3333333333335</ele><time>2026-04-28T09:38:34Z</time></trkpt><trkpt lat="38.17603970977673" lon="15.802387360393869"><ele>1049.0</ele><time>2026-04-28T09:38:35Z</time></trkpt><trkpt lat="38.17591032289313" lon="15.80229659757603"><ele>1049.0</ele><time>2026-04-28T09:38:36Z</time></trkpt><trkpt lat="38.17583125971042" lon="15.802185174916564"><ele>1049.0</ele><time>2026-04-28T09:38:37Z</time></trkpt><trkpt lat="38.175774257033325" lon="15.802073983026387"><ele>1049.0</ele><time>2026-04-28T09:38:38Z</time></trkpt><trkpt lat="38.17574654515262" lon="15.801919058296662"><ele>1049.0</ele><time>2026-04-28T09:38:39Z</time></trkpt><trkpt lat="38.17569782293162" lon="15.801728170435522"><ele>1050.3333333333335</ele><time>2026-04-28T09:38:40Z</time></trkpt><trkpt lat="38.175710023147985" lon="15.801505883696159"><ele>1051.6666666666667</ele><time>2026-04-28T09:38:41Z</time></trkpt><trkpt lat="38.17572163324366" lon="15.801261994872995"><ele>1053.0</ele><time>2026-04-28T09:38:42Z</time></trkpt><trkpt lat="38.1757325448712" lon="15.801004028559596"><ele>1052.0</ele><time>2026-04-28T09:38:43Z</time></trkpt><trkpt lat="38.17572683819956" lon="15.800754030259295"><ele>1051.0</ele><time>2026-04-28T09:38:44Z</time></trkpt><trkpt lat="38.17573818327581" lon="15.800540261247061"><ele>1050.0</ele><time>2026-04-28T09:38:45Z</time></trkpt><trkpt lat="38.17574751367026" lon="15.800370614081645"><ele>1050.0</ele><time>2026-04-28T09:38:46Z</time></trkpt><trkpt lat="38.17575322968317" lon="15.800237480741792"><ele>1050.0</ele><time>2026-04-28T09:38:47Z</time></trkpt><trkpt lat="38.175748870390734" lon="15.800127404986535"><ele>1050.0</ele><time>2026-04-28T09:38:48Z</time></trkpt><trkpt lat="38.17571730680957" lon="15.800036277210076"><ele>1050.0</ele><time>2026-04-28T09:38:49Z</time></trkpt><trkpt lat="38.175662652595534" lon="15.79995923276758"><ele>1050.0</ele><time>2026-04-28T09:38:50Z</time></trkpt><trkpt lat="38.17555255628668" lon="15.799962112872146"><ele>1043.25</ele><time>2026-04-28T09:38:51Z</time></trkpt><trkpt lat="38.175464195886214" lon="15.80006441777013"><ele>1036.5</ele><time>2026-04-28T09:38:52Z</time></trkpt><trkpt lat="38.17540782867166" lon="15.800209010360339"><ele>1029.75</ele><time>2026-04-28T09:38:53Z</time></trkpt><trkpt lat="38.17532583469173" lon="15.800384221958252"><ele>1023.0</ele><time>2026-04-28T09:38:54Z</time></trkpt><trkpt lat="38.175253389884624" lon="15.800559992692916"><ele>1023.0</ele><time>2026-04-28T09:38:55Z</time></trkpt><trkpt lat="38.17519646770821" lon="15.800707505210347"><ele>1023.0</ele><time>2026-04-28T09:38:56Z</time></trkpt><trkpt lat="38.17515530705966" lon="15.800839755493294"><ele>1023.0</ele><time>2026-04-28T09:38:57Z</time></trkpt><trkpt lat="38.17513014197632" lon="15.800986528304696"><ele>1023.0</ele><time>2026-04-28T09:38:58Z</time></trkpt><trkpt lat="38.175158066096316" lon="15.801160929962393"><ele>1023.0</ele><time>2026-04-28T09:38:59Z</time></trkpt><trkpt lat="38.17519506462059" lon="15.80134750057517"><ele>1023.0</ele><time>2026-04-28T09:39:00Z</time></trkpt><trkpt lat="38.17521460222365" lon="15.801509157964041"><ele>1023.0</ele><time>2026-04-28T09:39:01Z</time></trkpt><trkpt lat="38.175225270936664" lon="15.80166273692678"><ele>1023.0</ele><time>2026-04-28T09:39:02Z</time></trkpt><trkpt lat="38.17521752196668" lon="15.801843813947565"><ele>1023.0</ele><time>2026-04-28T09:39:03Z</time></trkpt><trkpt lat="38.17518667753681" lon="15.802016711003036"><ele>1023.0</ele><time>2026-04-28T09:39:04Z</time></trkpt><trkpt lat="38.17514558635504" lon="15.80216305013862"><ele>1023.0</ele><time>2026-04-28T09:39:05Z</time></trkpt><trkpt lat="38.175090964752606" lon="15.802300298120604"><ele>1023.0</ele><time>2026-04-28T09:39:06Z</time></trkpt><trkpt lat="38.1750271609721" lon="15.802432962701994"><ele>1024.3333333333333</ele><time>2026-04-28T09:39:07Z</time></trkpt><trkpt lat="38.17488535972101" lon="15.802695623528871"><ele>1025.6666666666665</ele><time>2026-04-28T09:39:08Z</time></trkpt><trkpt lat="38.17479568582304" lon="15.8028512005606"><ele>1027.0</ele><time>2026-04-28T09:39:09Z</time></trkpt><trkpt lat="38.17471892558066" lon="15.802968012817518"><ele>1023.8</ele><time>2026-04-28T09:39:10Z</time></trkpt><trkpt lat="38.174664712043494" lon="15.803027661002474"><ele>1020.6</ele><time>2026-04-28T09:39:11Z</time></trkpt><trkpt lat="38.17458965335076" lon="15.80307121372098"><ele>1017.3999999999999</ele><time>2026-04-28T09:39:11.999Z</time></trkpt><trkpt lat="38.17450725893265" lon="15.80307869027737"><ele>1014.1999999999999</ele><time>2026-04-28T09:39:12.999Z</time></trkpt><trkpt lat="38.174388123012406" lon="15.803047122404879"><ele>1011.0</ele><time>2026-04-28T09:39:13.999Z</time></trkpt><trkpt lat="38.17430378685205" lon="15.80295973367654"><ele>1011.0</ele><time>2026-04-28T09:39:14.999Z</time></trkpt><trkpt lat="38.1742406931356" lon="15.802835347878846"><ele>1010.9999999999999</ele><time>2026-04-28T09:39:15.999Z</time></trkpt><trkpt lat="38.174197918094166" lon="15.802694261326822"><ele>1010.9999999999999</ele><time>2026-04-28T09:39:16.999Z</time></trkpt><trkpt lat="38.174201434572794" lon="15.802590018306951"><ele>1011.0</ele><time>2026-04-28T09:39:17.999Z</time></trkpt><trkpt lat="38.17424488816937" lon="15.802489674141162"><ele>1011.0</ele><time>2026-04-28T09:39:18.999Z</time></trkpt><trkpt lat="38.174293469561086" lon="15.802342785946328"><ele>1010.0</ele><time>2026-04-28T09:39:19.999Z</time></trkpt><trkpt lat="38.17439285759729" lon="15.802158170174073"><ele>1009.0</ele><time>2026-04-28T09:39:20.999Z</time></trkpt><trkpt lat="38.17446999309584" lon="15.801967431290693"><ele>1008.0</ele><time>2026-04-28T09:39:21.999Z</time></trkpt><trkpt lat="38.1745193694803" lon="15.80175611616389"><ele>1005.0</ele><time>2026-04-28T09:39:22.999Z</time></trkpt><trkpt lat="38.17453223325507" lon="15.801480127514337"><ele>1002.0</ele><time>2026-04-28T09:39:23.999Z</time></trkpt><trkpt lat="38.1745603294448" lon="15.801167487309458"><ele>999.0</ele><time>2026-04-28T09:39:24.999Z</time></trkpt><trkpt lat="38.17460643483975" lon="15.800863304200961"><ele>996.0</ele><time>2026-04-28T09:39:25.999Z</time></trkpt><trkpt lat="38.174631745210384" lon="15.800597647945207"><ele>996.0</ele><time>2026-04-28T09:39:26.999Z</time></trkpt><trkpt lat="38.174652184098626" lon="15.800380715997504"><ele>996.0</ele><time>2026-04-28T09:39:27.999Z</time></trkpt><trkpt lat="38.17467175045173" lon="15.800200819645664"><ele>996.0</ele><time>2026-04-28T09:39:28.999Z</time></trkpt><trkpt lat="38.17468502937118" lon="15.800075024003647"><ele>996.0</ele><time>2026-04-28T09:39:29.999Z</time></trkpt><trkpt lat="38.17468408883686" lon="15.799895100564934"><ele>993.6666666666667</ele><time>2026-04-28T09:39:30.999Z</time></trkpt><trkpt lat="38.17464201026669" lon="15.799657986340558"><ele>991.3333333333334</ele><time>2026-04-28T09:39:31.999Z</time></trkpt><trkpt lat="38.174575953137904" lon="15.799388930913766"><ele>989.0</ele><time>2026-04-28T09:39:32.999Z</time></trkpt><trkpt lat="38.17453221027849" lon="15.799172834736087"><ele>986.6666666666667</ele><time>2026-04-28T09:39:33.999Z</time></trkpt><trkpt lat="38.174503867418046" lon="15.798986230042418"><ele>984.3333333333333</ele><time>2026-04-28T09:39:34.999Z</time></trkpt><trkpt lat="38.17447615798233" lon="15.798788195651484"><ele>982.0</ele><time>2026-04-28T09:39:35.999Z</time></trkpt><trkpt lat="38.17449860170263" lon="15.798560836809523"><ele>980.6666666666666</ele><time>2026-04-28T09:39:36.999Z</time></trkpt><trkpt lat="38.17452067335212" lon="15.798291884651206"><ele>979.3333333333333</ele><time>2026-04-28T09:39:37.999Z</time></trkpt><trkpt lat="38.17452684300354" lon="15.798032149139347"><ele>978.0</ele><time>2026-04-28T09:39:38.999Z</time></trkpt><trkpt lat="38.17455422118303" lon="15.7978389578528"><ele>977.25</ele><time>2026-04-28T09:39:39.999Z</time></trkpt><trkpt lat="38.1745615261883" lon="15.79765098626356"><ele>976.5</ele><time>2026-04-28T09:39:40.999Z</time></trkpt><trkpt lat="38.174528096509256" lon="15.797477094836328"><ele>975.75</ele><time>2026-04-28T09:39:41.999Z</time></trkpt><trkpt lat="38.17447765909649" lon="15.797304573677097"><ele>975.0</ele><time>2026-04-28T09:39:42.999Z</time></trkpt><trkpt lat="38.17438476610607" lon="15.797151494061977"><ele>975.0</ele><time>2026-04-28T09:39:43.999Z</time></trkpt><trkpt lat="38.17429541468417" lon="15.79701449273966"><ele>975.0</ele><time>2026-04-28T09:39:44.999Z</time></trkpt><trkpt lat="38.17422630327803" lon="15.796906859649388"><ele>975.0</ele><time>2026-04-28T09:39:45.999Z</time></trkpt><trkpt lat="38.17417610910235" lon="15.796806084087455"><ele>975.0</ele><time>2026-04-28T09:39:46.999Z</time></trkpt><trkpt lat="38.174162181242465" lon="15.796663136089013"><ele>974.0</ele><time>2026-04-28T09:39:47.999Z</time></trkpt><trkpt lat="38.17416770792035" lon="15.796472370409813"><ele>973.0</ele><time>2026-04-28T09:39:48.999Z</time></trkpt><trkpt lat="38.17417452947706" lon="15.796234671601978"><ele>972.0</ele><time>2026-04-28T09:39:49.999Z</time></trkpt><trkpt lat="38.17417954052758" lon="15.795996738463835"><ele>971.75</ele><time>2026-04-28T09:39:50.999Z</time></trkpt><trkpt lat="38.174183881697644" lon="15.795790612284613"><ele>971.5</ele><time>2026-04-28T09:39:51.999Z</time></trkpt><trkpt lat="38.17419115670788" lon="15.795609723296403"><ele>971.25</ele><time>2026-04-28T09:39:52.999Z</time></trkpt><trkpt lat="38.17421911796386" lon="15.795453653361365"><ele>971.0</ele><time>2026-04-28T09:39:53.999Z</time></trkpt><trkpt lat="38.174246337976435" lon="15.795314942692105"><ele>971.0</ele><time>2026-04-28T09:39:54.999Z</time></trkpt><trkpt lat="38.17425281358979" lon="15.795225384221965"><ele>970.9999999999999</ele><time>2026-04-28T09:39:55.999Z</time></trkpt><trkpt lat="38.17415951748106" lon="15.79510165956604"><ele>970.9999999999999</ele><time>2026-04-28T09:39:57.999Z</time></trkpt><trkpt lat="38.174072619028365" lon="15.795129556210917"><ele>971.0</ele><time>2026-04-28T09:39:58.999Z</time></trkpt><trkpt lat="38.174007929962656" lon="15.795233894591128"><ele>971.0</ele><time>2026-04-28T09:39:59.999Z</time></trkpt><trkpt lat="38.17396624713954" lon="15.795395235469167"><ele>962.0</ele><time>2026-04-28T09:40:00.999Z</time></trkpt><trkpt lat="38.17393098958381" lon="15.79560394893412"><ele>953.0</ele><time>2026-04-28T09:40:01.999Z</time></trkpt><trkpt lat="38.173841073755845" lon="15.795813432876152"><ele>944.0</ele><time>2026-04-28T09:40:02.999Z</time></trkpt><trkpt lat="38.1737650850411" lon="15.79606631443608"><ele>944.0</ele><time>2026-04-28T09:40:03.999Z</time></trkpt><trkpt lat="38.1736964981005" lon="15.796304881625083"><ele>944.0</ele><time>2026-04-28T09:40:04.999Z</time></trkpt><trkpt lat="38.173646911884845" lon="15.79652663451012"><ele>944.0</ele><time>2026-04-28T09:40:05.999Z</time></trkpt><trkpt lat="38.17360328473323" lon="15.79672590027927"><ele>946.0</ele><time>2026-04-28T09:40:06.999Z</time></trkpt><trkpt lat="38.1735505212721" lon="15.796904652734796"><ele>948.0</ele><time>2026-04-28T09:40:07.999Z</time></trkpt><trkpt lat="38.17348153042145" lon="15.797089855043668"><ele>950.0</ele><time>2026-04-28T09:40:08.999Z</time></trkpt><trkpt lat="38.17334224865084" lon="15.797242855345145"><ele>950.0</ele><time>2026-04-28T09:40:09.999Z</time></trkpt><trkpt lat="38.173209849018036" lon="15.797442030277837"><ele>950.0</ele><time>2026-04-28T09:40:10.999Z</time></trkpt><trkpt lat="38.17309400738246" lon="15.797614588046425"><ele>950.0</ele><time>2026-04-28T09:40:11.999Z</time></trkpt><trkpt lat="38.173014884439226" lon="15.797731314614598"><ele>947.1666666666667</ele><time>2026-04-28T09:40:12.999Z</time></trkpt><trkpt lat="38.17294921512866" lon="15.797821985352163"><ele>944.3333333333334</ele><time>2026-04-28T09:40:13.999Z</time></trkpt><trkpt lat="38.17288868853984" lon="15.797893140344364"><ele>941.5</ele><time>2026-04-28T09:40:14.999Z</time></trkpt><trkpt lat="38.17283541430758" lon="15.797939714714017"><ele>938.6666666666667</ele><time>2026-04-28T09:40:15.999Z</time></trkpt><trkpt lat="38.17274683597817" lon="15.797915605830793"><ele>935.8333333333334</ele><time>2026-04-28T09:40:17.999Z</time></trkpt><trkpt lat="38.17274500647596" lon="15.797823164959851"><ele>933.0</ele><time>2026-04-28T09:40:18.999Z</time></trkpt><trkpt lat="38.17277794174189" lon="15.797742431227945"><ele>931.0</ele><time>2026-04-28T09:40:19.999Z</time></trkpt><trkpt lat="38.172840647548895" lon="15.797659992601"><ele>929.0</ele><time>2026-04-28T09:40:20.999Z</time></trkpt><trkpt lat="38.17289261652893" lon="15.797578080396706"><ele>927.0</ele><time>2026-04-28T09:40:21.999Z</time></trkpt><trkpt lat="38.172934987462824" lon="15.797488750574784"><ele>925.0</ele><time>2026-04-28T09:40:22.999Z</time></trkpt><trkpt lat="38.17298483317536" lon="15.797396643912101"><ele>923.0</ele><time>2026-04-28T09:40:23.999Z</time></trkpt><trkpt lat="38.17303677656042" lon="15.797242097412541"><ele>923.0</ele><time>2026-04-28T09:40:24.999Z</time></trkpt><trkpt lat="38.173076846535224" lon="15.797034389980537"><ele>923.0</ele><time>2026-04-28T09:40:25.999Z</time></trkpt><trkpt lat="38.17313391606513" lon="15.796826869307598"><ele>923.0</ele><time>2026-04-28T09:40:26.999Z</time></trkpt><trkpt lat="38.17315536765255" lon="15.796637064816899"><ele>921.0</ele><time>2026-04-28T09:40:27.999Z</time></trkpt><trkpt lat="38.17314277216315" lon="15.79645812595069"><ele>919.0</ele><time>2026-04-28T09:40:28.999Z</time></trkpt><trkpt lat="38.1731455698938" lon="15.796278191822866"><ele>917.0</ele><time>2026-04-28T09:40:29.999Z</time></trkpt><trkpt lat="38.173113521127966" lon="15.796111665291118"><ele>915.0</ele><time>2026-04-28T09:40:30.999Z</time></trkpt><trkpt lat="38.17306976080489" lon="15.795977350983293"><ele>913.8</ele><time>2026-04-28T09:40:31.999Z</time></trkpt><trkpt lat="38.17303546731564" lon="15.79585826344781"><ele>912.6</ele><time>2026-04-28T09:40:32.999Z</time></trkpt><trkpt lat="38.17301696852681" lon="15.795742723663494"><ele>911.4000000000001</ele><time>2026-04-28T09:40:34Z</time></trkpt><trkpt lat="38.173027198517836" lon="15.7956166508075"><ele>910.2</ele><time>2026-04-28T09:40:35Z</time></trkpt><trkpt lat="38.173096981870856" lon="15.795478480689914"><ele>909.0</ele><time>2026-04-28T09:40:36Z</time></trkpt><trkpt lat="38.17316085296779" lon="15.795291444751134"><ele>915.3333333333333</ele><time>2026-04-28T09:40:37Z</time></trkpt><trkpt lat="38.173233901394134" lon="15.795074200714616"><ele>921.6666666666666</ele><time>2026-04-28T09:40:38Z</time></trkpt><trkpt lat="38.17331030244815" lon="15.794842888719156"><ele>928.0</ele><time>2026-04-28T09:40:39Z</time></trkpt><trkpt lat="38.17338962395008" lon="15.794597178040656"><ele>928.0</ele><time>2026-04-28T09:40:40Z</time></trkpt><trkpt lat="38.17346900481783" lon="15.794342513216007"><ele>928.0</ele><time>2026-04-28T09:40:41Z</time></trkpt><trkpt lat="38.17355592383338" lon="15.794089937190245"><ele>928.0</ele><time>2026-04-28T09:40:42Z</time></trkpt><trkpt lat="38.173640683471156" lon="15.793858091019075"><ele>922.3333333333333</ele><time>2026-04-28T09:40:43Z</time></trkpt><trkpt lat="38.173719011833086" lon="15.793641352136602"><ele>916.6666666666667</ele><time>2026-04-28T09:40:44Z</time></trkpt><trkpt lat="38.17378881982181" lon="15.79344818996071"><ele>911.0</ele><time>2026-04-28T09:40:45Z</time></trkpt><trkpt lat="38.173849463158454" lon="15.793280387725765"><ele>906.75</ele><time>2026-04-28T09:40:46Z</time></trkpt><trkpt lat="38.1739047196087" lon="15.793136918523096"><ele>902.5</ele><time>2026-04-28T09:40:47Z</time></trkpt><trkpt lat="38.17398225632917" lon="15.793019842782778"><ele>898.25</ele><time>2026-04-28T09:40:48Z</time></trkpt><trkpt lat="38.17410016216227" lon="15.792924123326411"><ele>894.0</ele><time>2026-04-28T09:40:49Z</time></trkpt><trkpt lat="38.17420624604658" lon="15.792797981937758"><ele>898.0</ele><time>2026-04-28T09:40:50Z</time></trkpt><trkpt lat="38.17426882837292" lon="15.792609006364897"><ele>902.0</ele><time>2026-04-28T09:40:51Z</time></trkpt><trkpt lat="38.17431116245479" lon="15.792382559015905"><ele>906.0</ele><time>2026-04-28T09:40:52Z</time></trkpt><trkpt lat="38.17435292440156" lon="15.792134477759936"><ele>906.0</ele><time>2026-04-28T09:40:53Z</time></trkpt><trkpt lat="38.17438080339524" lon="15.791888545481687"><ele>906.0</ele><time>2026-04-28T09:40:54Z</time></trkpt><trkpt lat="38.17440262176183" lon="15.7916897866017"><ele>906.0</ele><time>2026-04-28T09:40:55Z</time></trkpt><trkpt lat="38.17442031746645" lon="15.791528583961796"><ele>904.0</ele><time>2026-04-28T09:40:56Z</time></trkpt><trkpt lat="38.17442367203018" lon="15.791394582866294"><ele>901.9999999999999</ele><time>2026-04-28T09:40:57Z</time></trkpt><trkpt lat="38.174458118689635" lon="15.791295121791224"><ele>899.9999999999999</ele><time>2026-04-28T09:40:58Z</time></trkpt><trkpt lat="38.17449751678716" lon="15.79121090039242"><ele>898.0</ele><time>2026-04-28T09:40:59Z</time></trkpt><trkpt lat="38.17455491769087" lon="15.791139872926259"><ele>896.0</ele><time>2026-04-28T09:41:00Z</time></trkpt><trkpt lat="38.174650514719296" lon="15.791062590913628"><ele>891.5</ele><time>2026-04-28T09:41:01Z</time></trkpt><trkpt lat="38.17475077886934" lon="15.790953096575059"><ele>887.0</ele><time>2026-04-28T09:41:02Z</time></trkpt><trkpt lat="38.17481572342272" lon="15.790837806935755"><ele>882.5</ele><time>2026-04-28T09:41:03Z</time></trkpt><trkpt lat="38.17480008072462" lon="15.790661269020266"><ele>878.0</ele><time>2026-04-28T09:41:04Z</time></trkpt><trkpt lat="38.17480593492556" lon="15.790521358024993"><ele>878.0</ele><time>2026-04-28T09:41:05Z</time></trkpt><trkpt lat="38.17480341452973" lon="15.790421502268007"><ele>878.0</ele><time>2026-04-28T09:41:06Z</time></trkpt><trkpt lat="38.17480148445415" lon="15.79030160857056"><ele>878.0</ele><time>2026-04-28T09:41:07Z</time></trkpt><trkpt lat="38.17480831819097" lon="15.790148634042668"><ele>878.0</ele><time>2026-04-28T09:41:08Z</time></trkpt><trkpt lat="38.174815844897196" lon="15.790016211148934"><ele>878.0</ele><time>2026-04-28T09:41:09Z</time></trkpt><trkpt lat="38.17486976413678" lon="15.789917963679764"><ele>878.2</ele><time>2026-04-28T09:41:10Z</time></trkpt><trkpt lat="38.17492695407346" lon="15.789826519196813"><ele>878.4</ele><time>2026-04-28T09:41:11Z</time></trkpt><trkpt lat="38.17500263882049" lon="15.789726900661947"><ele>878.6000000000001</ele><time>2026-04-28T09:41:12Z</time></trkpt><trkpt lat="38.17506962543566" lon="15.78962265536763"><ele>878.8000000000001</ele><time>2026-04-28T09:41:13Z</time></trkpt><trkpt lat="38.175121768690666" lon="15.789487953335888"><ele>879.0</ele><time>2026-04-28T09:41:14Z</time></trkpt><trkpt lat="38.1751473675661" lon="15.789327055472711"><ele>879.0</ele><time>2026-04-28T09:41:15Z</time></trkpt><trkpt lat="38.17516820202943" lon="15.789132848337458"><ele>879.0</ele><time>2026-04-28T09:41:15.999Z</time></trkpt><trkpt lat="38.175209337875955" lon="15.788920431504499"><ele>879.0</ele><time>2026-04-28T09:41:16.999Z</time></trkpt><trkpt lat="38.17526514110003" lon="15.788670141487035"><ele>873.5</ele><time>2026-04-28T09:41:17.999Z</time></trkpt><trkpt lat="38.17529847495932" lon="15.788371855637651"><ele>868.0</ele><time>2026-04-28T09:41:18.999Z</time></trkpt><trkpt lat="38.17536789584335" lon="15.788080731693743"><ele>868.0</ele><time>2026-04-28T09:41:19.999Z</time></trkpt><trkpt lat="38.175438947373394" lon="15.787807979981052"><ele>868.0</ele><time>2026-04-28T09:41:20.999Z</time></trkpt><trkpt lat="38.17550233917207" lon="15.787555493820616"><ele>868.0</ele><time>2026-04-28T09:41:21.999Z</time></trkpt><trkpt lat="38.17558807556023" lon="15.787338639717067"><ele>867.3333333333333</ele><time>2026-04-28T09:41:22.999Z</time></trkpt><trkpt lat="38.17565005946625" lon="15.787114822058868"><ele>866.6666666666667</ele><time>2026-04-28T09:41:23.999Z</time></trkpt><trkpt lat="38.17570846242974" lon="15.786903934894221"><ele>866.0</ele><time>2026-04-28T09:41:24.999Z</time></trkpt><trkpt lat="38.17576459060866" lon="15.786701261734505"><ele>866.0</ele><time>2026-04-28T09:41:25.999Z</time></trkpt><trkpt lat="38.17582463558577" lon="15.786516441559945"><ele>866.0</ele><time>2026-04-28T09:41:26.999Z</time></trkpt><trkpt lat="38.175895102379364" lon="15.786348740870467"><ele>866.0</ele><time>2026-04-28T09:41:27.999Z</time></trkpt><trkpt lat="38.17595153674345" lon="15.786184433276384"><ele>866.0</ele><time>2026-04-28T09:41:28.999Z</time></trkpt><trkpt lat="38.17602425322389" lon="15.786053167078041"><ele>864.4</ele><time>2026-04-28T09:41:29.999Z</time></trkpt><trkpt lat="38.17607509520247" lon="15.785946815553913"><ele>862.8</ele><time>2026-04-28T09:41:30.999Z</time></trkpt><trkpt lat="38.176103644097374" lon="15.785855169234301"><ele>861.1999999999999</ele><time>2026-04-28T09:41:31.999Z</time></trkpt><trkpt lat="38.176106964445545" lon="15.785768859100745"><ele>859.5999999999999</ele><time>2026-04-28T09:41:32.999Z</time></trkpt><trkpt lat="38.17605503697355" lon="15.785688195310279"><ele>858.0</ele><time>2026-04-28T09:41:33.999Z</time></trkpt><trkpt lat="38.17592226882691" lon="15.785672989169045"><ele>858.0</ele><time>2026-04-28T09:41:34.999Z</time></trkpt><trkpt lat="38.17579912696339" lon="15.785741857246954"><ele>858.0</ele><time>2026-04-28T09:41:35.999Z</time></trkpt><trkpt lat="38.17565981212385" lon="15.78583222540005"><ele>858.0</ele><time>2026-04-28T09:41:36.999Z</time></trkpt><trkpt lat="38.17553874258021" lon="15.78597871152631"><ele>854.3333333333333</ele><time>2026-04-28T09:41:37.999Z</time></trkpt><trkpt lat="38.17539842934646" lon="15.786142749441055"><ele>850.6666666666666</ele><time>2026-04-28T09:41:38.999Z</time></trkpt><trkpt lat="38.175268538848066" lon="15.786336987107047"><ele>847.0</ele><time>2026-04-28T09:41:39.999Z</time></trkpt><trkpt lat="38.175132586307186" lon="15.786485736413713"><ele>847.0</ele><time>2026-04-28T09:41:40.999Z</time></trkpt><trkpt lat="38.17501398807231" lon="15.786643800016899"><ele>847.0</ele><time>2026-04-28T09:41:41.999Z</time></trkpt><trkpt lat="38.174896473177846" lon="15.786803312644375"><ele>847.0</ele><time>2026-04-28T09:41:42.999Z</time></trkpt><trkpt lat="38.17478965108206" lon="15.786955412341307"><ele>840.6666666666666</ele><time>2026-04-28T09:41:43.999Z</time></trkpt><trkpt lat="38.17470538029571" lon="15.787138829353857"><ele>834.3333333333333</ele><time>2026-04-28T09:41:44.999Z</time></trkpt><trkpt lat="38.17459918253304" lon="15.78735846912227"><ele>828.0</ele><time>2026-04-28T09:41:45.999Z</time></trkpt><trkpt lat="38.17447521982732" lon="15.787607708352201"><ele>831.3333333333333</ele><time>2026-04-28T09:41:46.999Z</time></trkpt><trkpt lat="38.17437430207873" lon="15.787863971737996"><ele>834.6666666666666</ele><time>2026-04-28T09:41:47.999Z</time></trkpt><trkpt lat="38.17428812234672" lon="15.788097672739907"><ele>838.0</ele><time>2026-04-28T09:41:48.999Z</time></trkpt><trkpt lat="38.174207982048664" lon="15.788300317535718"><ele>838.0</ele><time>2026-04-28T09:41:49.999Z</time></trkpt><trkpt lat="38.17411548069964" lon="15.788481023007648"><ele>838.0</ele><time>2026-04-28T09:41:50.999Z</time></trkpt><trkpt lat="38.17401787850534" lon="15.78865269091606"><ele>838.0</ele><time>2026-04-28T09:41:51.999Z</time></trkpt><trkpt lat="38.17393189875572" lon="15.788803916686593"><ele>838.0</ele><time>2026-04-28T09:41:52.999Z</time></trkpt><trkpt lat="38.173854426183" lon="15.788953656271737"><ele>838.0</ele><time>2026-04-28T09:41:53.999Z</time></trkpt><trkpt lat="38.17379022545715" lon="15.789142706461975"><ele>838.0</ele><time>2026-04-28T09:41:54.999Z</time></trkpt><trkpt lat="38.17372997117742" lon="15.789350547319357"><ele>838.0</ele><time>2026-04-28T09:41:55.999Z</time></trkpt><trkpt lat="38.173679757414774" lon="15.7895285549977"><ele>838.0</ele><time>2026-04-28T09:41:56.999Z</time></trkpt><trkpt lat="38.17364710761371" lon="15.789681275003215"><ele>838.0</ele><time>2026-04-28T09:41:57.999Z</time></trkpt><trkpt lat="38.173633116689615" lon="15.789809158282669"><ele>838.0</ele><time>2026-04-28T09:41:58.999Z</time></trkpt><trkpt lat="38.173611899062486" lon="15.78990772812405"><ele>838.0</ele><time>2026-04-28T09:41:59.999Z</time></trkpt><trkpt lat="38.173523793548526" lon="15.78997099824252"><ele>838.0</ele><time>2026-04-28T09:42:01.999Z</time></trkpt><trkpt lat="38.17344919501418" lon="15.789945680329913"><ele>838.0</ele><time>2026-04-28T09:42:02.999Z</time></trkpt><trkpt lat="38.173363650652036" lon="15.789855748773611"><ele>838.0</ele><time>2026-04-28T09:42:03.999Z</time></trkpt><trkpt lat="38.173256228507974" lon="15.789763569031848"><ele>838.0</ele><time>2026-04-28T09:42:04.999Z</time></trkpt><trkpt lat="38.17311082091362" lon="15.789731620351182"><ele>831.0</ele><time>2026-04-28T09:42:05.999Z</time></trkpt><trkpt lat="38.1729503223731" lon="15.789764595482072"><ele>824.0</ele><time>2026-04-28T09:42:06.999Z</time></trkpt><trkpt lat="38.172710765429414" lon="15.78975471701805"><ele>817.0</ele><time>2026-04-28T09:42:07.999Z</time></trkpt><trkpt lat="38.172577083553314" lon="15.789740572651798"><ele>817.0</ele><time>2026-04-28T09:42:08.999Z</time></trkpt><trkpt lat="38.17246025011758" lon="15.789790624434199"><ele>817.0</ele><time>2026-04-28T09:42:09.999Z</time></trkpt><trkpt lat="38.17234123226954" lon="15.789851302037667"><ele>817.0</ele><time>2026-04-28T09:42:10.999Z</time></trkpt><trkpt lat="38.17216105146203" lon="15.789957928010686"><ele>815.25</ele><time>2026-04-28T09:42:11.999Z</time></trkpt><trkpt lat="38.17200513762804" lon="15.790010943782077"><ele>813.5</ele><time>2026-04-28T09:42:12.999Z</time></trkpt><trkpt lat="38.171921248966946" lon="15.790072608178868"><ele>811.75</ele><time>2026-04-28T09:42:13.999Z</time></trkpt><trkpt lat="38.17181031465874" lon="15.79015158716788"><ele>810.0</ele><time>2026-04-28T09:42:14.999Z</time></trkpt><trkpt lat="38.17175270893782" lon="15.790285474792794"><ele>810.0</ele><time>2026-04-28T09:42:15.999Z</time></trkpt><trkpt lat="38.17171668897321" lon="15.790461458746947"><ele>810.0</ele><time>2026-04-28T09:42:16.999Z</time></trkpt><trkpt lat="38.171630862539715" lon="15.790601412375194"><ele>810.0</ele><time>2026-04-28T09:42:17.999Z</time></trkpt><trkpt lat="38.17156930396923" lon="15.790686353785675"><ele>810.0</ele><time>2026-04-28T09:42:18.999Z</time></trkpt><trkpt lat="38.17147653101496" lon="15.790729419534697"><ele>801.0</ele><time>2026-04-28T09:42:19.999Z</time></trkpt><trkpt lat="38.17135797923623" lon="15.790768327567283"><ele>792.0</ele><time>2026-04-28T09:42:20.999Z</time></trkpt><trkpt lat="38.17119873945046" lon="15.79083329532022"><ele>783.0</ele><time>2026-04-28T09:42:21.999Z</time></trkpt><trkpt lat="38.1710440185465" lon="15.790900366953897"><ele>783.0</ele><time>2026-04-28T09:42:22.999Z</time></trkpt><trkpt lat="38.17096440317534" lon="15.790938938008765"><ele>783.0</ele><time>2026-04-28T09:42:23.999Z</time></trkpt><trkpt lat="38.170888238290225" lon="15.790983436952047"><ele>783.0</ele><time>2026-04-28T09:42:24.999Z</time></trkpt><trkpt lat="38.17083554209388" lon="15.791059783954363"><ele>783.0</ele><time>2026-04-28T09:42:25.999Z</time></trkpt><trkpt lat="38.17077570824735" lon="15.791163972733456"><ele>783.0</ele><time>2026-04-28T09:42:26.999Z</time></trkpt><trkpt lat="38.17073532011988" lon="15.791328776468042"><ele>783.0</ele><time>2026-04-28T09:42:27.999Z</time></trkpt><trkpt lat="38.17067806457335" lon="15.791467076465564"><ele>783.0</ele><time>2026-04-28T09:42:28.999Z</time></trkpt><trkpt lat="38.170594829009325" lon="15.791578086692109"><ele>783.0</ele><time>2026-04-28T09:42:29.999Z</time></trkpt><trkpt lat="38.170491402681655" lon="15.79166456728935"><ele>783.0</ele><time>2026-04-28T09:42:30.999Z</time></trkpt><trkpt lat="38.170448505930366" lon="15.791775272031245"><ele>786.4</ele><time>2026-04-28T09:42:31.999Z</time></trkpt><trkpt lat="38.17040983923614" lon="15.791849312737412"><ele>789.8</ele><time>2026-04-28T09:42:32.999Z</time></trkpt><trkpt lat="38.170363162178816" lon="15.791912940415063"><ele>793.2</ele><time>2026-04-28T09:42:33.999Z</time></trkpt><trkpt lat="38.17029280739073" lon="15.791949446622294"><ele>796.6</ele><time>2026-04-28T09:42:34.999Z</time></trkpt><trkpt lat="38.17019601764381" lon="15.791905879905189"><ele>800.0</ele><time>2026-04-28T09:42:35.999Z</time></trkpt><trkpt lat="38.17006194712119" lon="15.791840352069231"><ele>800.0</ele><time>2026-04-28T09:42:36.998Z</time></trkpt><trkpt lat="38.16991638906867" lon="15.791865696029001"><ele>800.0</ele><time>2026-04-28T09:42:37.998Z</time></trkpt><trkpt lat="38.16969223237849" lon="15.791873557712737"><ele>800.0</ele><time>2026-04-28T09:42:39Z</time></trkpt><trkpt lat="38.169536686037134" lon="15.791898390332504"><ele>795.0</ele><time>2026-04-28T09:42:40Z</time></trkpt><trkpt lat="38.16939894279753" lon="15.791924067639533"><ele>790.0</ele><time>2026-04-28T09:42:41Z</time></trkpt><trkpt lat="38.16928798430409" lon="15.791925548837847"><ele>785.0</ele><time>2026-04-28T09:42:42Z</time></trkpt><trkpt lat="38.169151818252075" lon="15.792032780387345"><ele>780.0</ele><time>2026-04-28T09:42:44Z</time></trkpt><trkpt lat="38.169107484390565" lon="15.792122160871683"><ele>780.0</ele><time>2026-04-28T09:42:45Z</time></trkpt><trkpt lat="38.16902462210823" lon="15.792071006821105"><ele>780.0</ele><time>2026-04-28T09:42:48Z</time></trkpt><trkpt lat="38.169021679180396" lon="15.791949244303066"><ele>780.0</ele><time>2026-04-28T09:42:50Z</time></trkpt><trkpt lat="38.16906817046771" lon="15.791882790099937"><ele>780.0</ele><time>2026-04-28T09:42:51Z</time></trkpt><trkpt lat="38.16912816783402" lon="15.79183971818673"><ele>780.0</ele><time>2026-04-28T09:42:52Z</time></trkpt><trkpt lat="38.169205724806865" lon="15.791783818928835"><ele>780.0</ele><time>2026-04-28T09:42:53Z</time></trkpt><trkpt lat="38.169267971960394" lon="15.791742802055927"><ele>776.75</ele><time>2026-04-28T09:42:54Z</time></trkpt><trkpt lat="38.16936185967229" lon="15.791689970784951"><ele>773.5</ele><time>2026-04-28T09:42:57Z</time></trkpt><trkpt lat="38.16949376811276" lon="15.791711619017713"><ele>770.25</ele><time>2026-04-28T09:42:58Z</time></trkpt><trkpt lat="38.16960109879011" lon="15.791740938773929"><ele>767.0</ele><time>2026-04-28T09:42:59Z</time></trkpt><trkpt lat="38.16974405545026" lon="15.79172181921789"><ele>771.0</ele><time>2026-04-28T09:43:00Z</time></trkpt><trkpt lat="38.169878081374314" lon="15.791692187895764"><ele>775.0</ele><time>2026-04-28T09:43:01Z</time></trkpt><trkpt lat="38.16998323742138" lon="15.791659718957815"><ele>779.0</ele><time>2026-04-28T09:43:02Z</time></trkpt><trkpt lat="38.17004320677638" lon="15.791610578966184"><ele>783.0</ele><time>2026-04-28T09:43:03Z</time></trkpt><trkpt lat="38.17005411549595" lon="15.79143328609054"><ele>783.0</ele><time>2026-04-28T09:43:05Z</time></trkpt><trkpt lat="38.16998875291921" lon="15.791315899311995"><ele>783.0</ele><time>2026-04-28T09:43:06Z</time></trkpt><trkpt lat="38.16991404501026" lon="15.79125604479383"><ele>783.0</ele><time>2026-04-28T09:43:07Z</time></trkpt><trkpt lat="38.16983332640131" lon="15.791249353492855"><ele>783.0</ele><time>2026-04-28T09:43:09Z</time></trkpt><trkpt lat="38.16973716194403" lon="15.791225300915503"><ele>783.0</ele><time>2026-04-28T09:43:11Z</time></trkpt><trkpt lat="38.16964547196237" lon="15.791141375629312"><ele>779.8</ele><time>2026-04-28T09:43:13Z</time></trkpt><trkpt lat="38.16955876735421" lon="15.791080715623947"><ele>776.5999999999999</ele><time>2026-04-28T09:43:15Z</time></trkpt><trkpt lat="38.16958380889018" lon="15.790949485698695"><ele>773.4000000000001</ele><time>2026-04-28T09:43:16Z</time></trkpt><trkpt lat="38.169607148339026" lon="15.790851570841784"><ele>770.2</ele><time>2026-04-28T09:43:17Z</time></trkpt><trkpt lat="38.16965023376069" lon="15.790753578751746"><ele>767.0</ele><time>2026-04-28T09:43:18Z</time></trkpt><trkpt lat="38.169739735243176" lon="15.790674933941963"><ele>766.8333333333333</ele><time>2026-04-28T09:43:19Z</time></trkpt><trkpt lat="38.169811509770824" lon="15.790573690523784"><ele>766.6666666666666</ele><time>2026-04-28T09:43:19.999Z</time></trkpt><trkpt lat="38.16988576122981" lon="15.790512527173865"><ele>766.5</ele><time>2026-04-28T09:43:20.999Z</time></trkpt><trkpt lat="38.1699479692557" lon="15.790461074884943"><ele>766.3333333333334</ele><time>2026-04-28T09:43:21.999Z</time></trkpt><trkpt lat="38.170010112153335" lon="15.790431299198232"><ele>766.1666666666667</ele><time>2026-04-28T09:43:22.999Z</time></trkpt><trkpt lat="38.17009252039539" lon="15.79038726995123"><ele>766.0</ele><time>2026-04-28T09:43:23.999Z</time></trkpt><trkpt lat="38.17018622121956" lon="15.790332809660015"><ele>766.0</ele><time>2026-04-28T09:43:24.999Z</time></trkpt><trkpt lat="38.170273070378805" lon="15.790278118565267"><ele>766.0</ele><time>2026-04-28T09:43:25.999Z</time></trkpt><trkpt lat="38.17037027789888" lon="15.790233921682658"><ele>766.0</ele><time>2026-04-28T09:43:26.999Z</time></trkpt><trkpt lat="38.170449438184725" lon="15.790161855102653"><ele>766.0</ele><time>2026-04-28T09:43:27.999Z</time></trkpt><trkpt lat="38.17051335920799" lon="15.790083390863426"><ele>766.0</ele><time>2026-04-28T09:43:28.999Z</time></trkpt><trkpt lat="38.17056681735365" lon="15.790035044915223"><ele>762.0</ele><time>2026-04-28T09:43:29.999Z</time></trkpt><trkpt lat="38.170570716403525" lon="15.789890551383023"><ele>758.0</ele><time>2026-04-28T09:43:31.999Z</time></trkpt><trkpt lat="38.170573364720525" lon="15.789770329274829"><ele>754.0</ele><time>2026-04-28T09:43:32.999Z</time></trkpt><trkpt lat="38.17043705734954" lon="15.789600814270532"><ele>750.0</ele><time>2026-04-28T09:43:33.999Z</time></trkpt><trkpt lat="38.17035763617215" lon="15.789431868188208"><ele>748.25</ele><time>2026-04-28T09:43:34.999Z</time></trkpt><trkpt lat="38.17028762781133" lon="15.789282945205109"><ele>746.5</ele><time>2026-04-28T09:43:35.999Z</time></trkpt><trkpt lat="38.170222985367296" lon="15.78914543668263"><ele>744.75</ele><time>2026-04-28T09:43:36.999Z</time></trkpt><trkpt lat="38.17016051561742" lon="15.789005983954434"><ele>743.0</ele><time>2026-04-28T09:43:37.999Z</time></trkpt><trkpt lat="38.17010232090915" lon="15.788876231296362"><ele>743.0</ele><time>2026-04-28T09:43:38.999Z</time></trkpt><trkpt lat="38.170039020916036" lon="15.788786695084266"><ele>743.0</ele><time>2026-04-28T09:43:39.999Z</time></trkpt><trkpt lat="38.16999433257375" lon="15.788715013005392"><ele>743.0</ele><time>2026-04-28T09:43:40.999Z</time></trkpt><trkpt lat="38.16988118989791" lon="15.788666748884683"><ele>743.0</ele><time>2026-04-28T09:43:42.999Z</time></trkpt><trkpt lat="38.16983059751138" lon="15.788733935469779"><ele>743.0</ele><time>2026-04-28T09:43:43.999Z</time></trkpt><trkpt lat="38.16980753223647" lon="15.788809533870134"><ele>743.0</ele><time>2026-04-28T09:43:44.999Z</time></trkpt><trkpt lat="38.16982847575589" lon="15.788910829457324"><ele>743.0</ele><time>2026-04-28T09:43:45.999Z</time></trkpt><trkpt lat="38.16989419920794" lon="15.789028972238023"><ele>743.0</ele><time>2026-04-28T09:43:46.999Z</time></trkpt><trkpt lat="38.169964814734676" lon="15.789146284160715"><ele>743.0</ele><time>2026-04-28T09:43:47.999Z</time></trkpt><trkpt lat="38.17001576113395" lon="15.789259100321736"><ele>743.0</ele><time>2026-04-28T09:43:48.999Z</time></trkpt><trkpt lat="38.170044748682585" lon="15.789356885985269"><ele>743.0</ele><time>2026-04-28T09:43:49.999Z</time></trkpt><trkpt lat="38.170047866121195" lon="15.78945344804609"><ele>742.4</ele><time>2026-04-28T09:43:50.999Z</time></trkpt><trkpt lat="38.170025764488095" lon="15.789538146068809"><ele>741.8</ele><time>2026-04-28T09:43:51.999Z</time></trkpt><trkpt lat="38.16993842059723" lon="15.789589575949428"><ele>741.2</ele><time>2026-04-28T09:43:53.999Z</time></trkpt><trkpt lat="38.16983566124106" lon="15.789474694707021"><ele>740.6</ele><time>2026-04-28T09:43:55.999Z</time></trkpt><trkpt lat="38.16973582086493" lon="15.789383738738273"><ele>740.0</ele><time>2026-04-28T09:43:56.999Z</time></trkpt><trkpt lat="38.16962100981654" lon="15.789300342177048"><ele>737.0</ele><time>2026-04-28T09:43:57.999Z</time></trkpt><trkpt lat="38.16948799504671" lon="15.789263152055682"><ele>734.0</ele><time>2026-04-28T09:43:58.999Z</time></trkpt><trkpt lat="38.1693841885344" lon="15.789209172915081"><ele>731.0</ele><time>2026-04-28T09:43:59.999Z</time></trkpt><trkpt lat="38.16930249263167" lon="15.789174367003882"><ele>728.0</ele><time>2026-04-28T09:44:00.999Z</time></trkpt><trkpt lat="38.16922033980403" lon="15.789154785635565"><ele>725.0</ele><time>2026-04-28T09:44:01.999Z</time></trkpt><trkpt lat="38.16916241703294" lon="15.78919898139566"><ele>725.0</ele><time>2026-04-28T09:44:02.999Z</time></trkpt><trkpt lat="38.16910468201119" lon="15.789305205831399"><ele>725.0</ele><time>2026-04-28T09:44:03.999Z</time></trkpt><trkpt lat="38.16904689799598" lon="15.78943553934189"><ele>725.0</ele><time>2026-04-28T09:44:04.999Z</time></trkpt><trkpt lat="38.16900346071643" lon="15.789510039274598"><ele>725.0</ele><time>2026-04-28T09:44:05.999Z</time></trkpt><trkpt lat="38.16890738186158" lon="15.789647402144398"><ele>725.0</ele><time>2026-04-28T09:44:07.999Z</time></trkpt><trkpt lat="38.16881195515405" lon="15.789676622455284"><ele>725.4</ele><time>2026-04-28T09:44:08.999Z</time></trkpt><trkpt lat="38.16871949576599" lon="15.789679074418135"><ele>725.8</ele><time>2026-04-28T09:44:09.999Z</time></trkpt><trkpt lat="38.168638737586" lon="15.78971238032495"><ele>726.2</ele><time>2026-04-28T09:44:10.999Z</time></trkpt><trkpt lat="38.16854139838733" lon="15.789757213195223"><ele>726.6</ele><time>2026-04-28T09:44:11.999Z</time></trkpt><trkpt lat="38.16842655397831" lon="15.789811792887386"><ele>727.0</ele><time>2026-04-28T09:44:12.999Z</time></trkpt><trkpt lat="38.16830373206922" lon="15.789874145644754"><ele>727.0</ele><time>2026-04-28T09:44:13.999Z</time></trkpt><trkpt lat="38.168212328689535" lon="15.789920107873304"><ele>727.0</ele><time>2026-04-28T09:44:14.999Z</time></trkpt><trkpt lat="38.16812283067699" lon="15.789957439707333"><ele>727.0</ele><time>2026-04-28T09:44:15.999Z</time></trkpt><trkpt lat="38.168028342364416" lon="15.789989371309352"><ele>727.0</ele><time>2026-04-28T09:44:16.999Z</time></trkpt><trkpt lat="38.16792046905055" lon="15.790019663825348"><ele>727.0</ele><time>2026-04-28T09:44:17.999Z</time></trkpt><trkpt lat="38.16781542028225" lon="15.790045011690712"><ele>724.6</ele><time>2026-04-28T09:44:18.999Z</time></trkpt><trkpt lat="38.1677153784275" lon="15.790071534781523"><ele>722.2</ele><time>2026-04-28T09:44:19.999Z</time></trkpt><trkpt lat="38.167624945205496" lon="15.7900969070671"><ele>719.8</ele><time>2026-04-28T09:44:20.999Z</time></trkpt><trkpt lat="38.167545251247624" lon="15.790124078568583"><ele>717.4</ele><time>2026-04-28T09:44:21.999Z</time></trkpt><trkpt lat="38.16747280606971" lon="15.790139408436353"><ele>715.0</ele><time>2026-04-28T09:44:22.999Z</time></trkpt><trkpt lat="38.167371063147684" lon="15.790101550189448"><ele>715.0</ele><time>2026-04-28T09:44:24.999Z</time></trkpt><trkpt lat="38.16731721331507" lon="15.790001625044214"><ele>715.0</ele><time>2026-04-28T09:44:26.999Z</time></trkpt><trkpt lat="38.167364871591175" lon="15.789859965854221"><ele>715.0</ele><time>2026-04-28T09:44:28.999Z</time></trkpt><trkpt lat="38.16742886180963" lon="15.78979363568675"><ele>715.0</ele><time>2026-04-28T09:44:29.999Z</time></trkpt><trkpt lat="38.167508898848226" lon="15.789732739321675"><ele>715.0</ele><time>2026-04-28T09:44:30.999Z</time></trkpt><trkpt lat="38.167577407876" lon="15.789669369534035"><ele>715.0</ele><time>2026-04-28T09:44:31.999Z</time></trkpt><trkpt lat="38.16765694852332" lon="15.789605696699196"><ele>715.0</ele><time>2026-04-28T09:44:32.999Z</time></trkpt><trkpt lat="38.167728435089195" lon="15.789540137388046"><ele>715.0</ele><time>2026-04-28T09:44:33.999Z</time></trkpt><trkpt lat="38.16779107913027" lon="15.78947674241996"><ele>715.0</ele><time>2026-04-28T09:44:34.999Z</time></trkpt><trkpt lat="38.16787561821704" lon="15.78942675644984"><ele>715.0</ele><time>2026-04-28T09:44:35.999Z</time></trkpt><trkpt lat="38.167940883439265" lon="15.78936850123725"><ele>715.0</ele><time>2026-04-28T09:44:36.999Z</time></trkpt><trkpt lat="38.16799280268409" lon="15.789302811105394"><ele>714.4</ele><time>2026-04-28T09:44:37.998Z</time></trkpt><trkpt lat="38.16805616108014" lon="15.789244915804339"><ele>713.8</ele><time>2026-04-28T09:44:38.998Z</time></trkpt><trkpt lat="38.168130900994285" lon="15.789157500714422"><ele>713.2</ele><time>2026-04-28T09:44:39.998Z</time></trkpt><trkpt lat="38.16821264690496" lon="15.789069932720556"><ele>712.6</ele><time>2026-04-28T09:44:40.998Z</time></trkpt><trkpt lat="38.16830900280845" lon="15.788980464453305"><ele>712.0</ele><time>2026-04-28T09:44:41.998Z</time></trkpt><trkpt lat="38.16838655420623" lon="15.788868952866148"><ele>712.0</ele><time>2026-04-28T09:44:42.998Z</time></trkpt><trkpt lat="38.16844107927198" lon="15.788765822617489"><ele>712.0</ele><time>2026-04-28T09:44:43.998Z</time></trkpt><trkpt lat="38.168492384364896" lon="15.788709523835147"><ele>712.0</ele><time>2026-04-28T09:44:45Z</time></trkpt><trkpt lat="38.168613492541986" lon="15.78863012088282"><ele>712.0</ele><time>2026-04-28T09:44:47Z</time></trkpt><trkpt lat="38.1687425843818" lon="15.788634043131948"><ele>712.0</ele><time>2026-04-28T09:44:48Z</time></trkpt><trkpt lat="38.16886678920823" lon="15.788671206834126"><ele>712.0</ele><time>2026-04-28T09:44:49Z</time></trkpt><trkpt lat="38.16897307852506" lon="15.788686608724575"><ele>712.0</ele><time>2026-04-28T09:44:50Z</time></trkpt><trkpt lat="38.16905853602523" lon="15.788691709279965"><ele>712.0</ele><time>2026-04-28T09:44:51Z</time></trkpt><trkpt lat="38.169145102142295" lon="15.788602305835175"><ele>712.0</ele><time>2026-04-28T09:44:52Z</time></trkpt><trkpt lat="38.16921395316145" lon="15.788436888788544"><ele>708.75</ele><time>2026-04-28T09:44:53Z</time></trkpt><trkpt lat="38.16928707906388" lon="15.788306977416534"><ele>705.5</ele><time>2026-04-28T09:44:54Z</time></trkpt><trkpt lat="38.16939708303521" lon="15.788223206934259"><ele>702.25</ele><time>2026-04-28T09:44:55Z</time></trkpt><trkpt lat="38.16955041510332" lon="15.78812902531942"><ele>699.0</ele><time>2026-04-28T09:44:56Z</time></trkpt><trkpt lat="38.16969666979002" lon="15.78807435814066"><ele>699.0</ele><time>2026-04-28T09:44:57Z</time></trkpt><trkpt lat="38.16979568218655" lon="15.787998948701198"><ele>699.0</ele><time>2026-04-28T09:44:58Z</time></trkpt><trkpt lat="38.169877719234314" lon="15.787955563565035"><ele>699.0</ele><time>2026-04-28T09:44:59Z</time></trkpt><trkpt lat="38.16993600361219" lon="15.787882477886658"><ele>699.0</ele><time>2026-04-28T09:45:00Z</time></trkpt><trkpt lat="38.16997619811909" lon="15.787784243803925"><ele>699.0</ele><time>2026-04-28T09:45:01Z</time></trkpt><trkpt lat="38.16990495523316" lon="15.787651692640923"><ele>696.5</ele><time>2026-04-28T09:45:02Z</time></trkpt><trkpt lat="38.16981103347318" lon="15.787580387645672"><ele>694.0</ele><time>2026-04-28T09:45:03Z</time></trkpt><trkpt lat="38.1696780983911" lon="15.787552872161628"><ele>691.5</ele><time>2026-04-28T09:45:04Z</time></trkpt><trkpt lat="38.16952973110399" lon="15.787536587194507"><ele>689.0</ele><time>2026-04-28T09:45:05Z</time></trkpt><trkpt lat="38.16941167997666" lon="15.787505978864361"><ele>689.0</ele><time>2026-04-28T09:45:06Z</time></trkpt><trkpt lat="38.169322349801625" lon="15.787448934504008"><ele>689.0</ele><time>2026-04-28T09:45:07Z</time></trkpt><trkpt lat="38.16922773515065" lon="15.787320689873217"><ele>689.0</ele><time>2026-04-28T09:45:08Z</time></trkpt><trkpt lat="38.16914189531079" lon="15.787131086006802"><ele>689.0</ele><time>2026-04-28T09:45:09Z</time></trkpt><trkpt lat="38.16904072200965" lon="15.78693965959082"><ele>680.6666666666666</ele><time>2026-04-28T09:45:10Z</time></trkpt><trkpt lat="38.16893956830232" lon="15.786764239278655"><ele>672.3333333333334</ele><time>2026-04-28T09:45:11Z</time></trkpt><trkpt lat="38.16883162856563" lon="15.786614013859342"><ele>664.0</ele><time>2026-04-28T09:45:12Z</time></trkpt><trkpt lat="38.16870947092067" lon="15.786451882193312"><ele>664.0</ele><time>2026-04-28T09:45:13Z</time></trkpt><trkpt lat="38.16857765847925" lon="15.786320830436283"><ele>664.0</ele><time>2026-04-28T09:45:14Z</time></trkpt><trkpt lat="38.16848315955813" lon="15.786184087307639"><ele>664.0</ele><time>2026-04-28T09:45:15Z</time></trkpt><trkpt lat="38.168412202002244" lon="15.786047029576888"><ele>664.0</ele><time>2026-04-28T09:45:16Z</time></trkpt><trkpt lat="38.16835012264296" lon="15.785878948799677"><ele>664.75</ele><time>2026-04-28T09:45:17Z</time></trkpt><trkpt lat="38.16830950263066" lon="15.78570172809302"><ele>665.5</ele><time>2026-04-28T09:45:18Z</time></trkpt><trkpt lat="38.16828697063499" lon="15.785532026608632"><ele>666.25</ele><time>2026-04-28T09:45:19Z</time></trkpt><trkpt lat="38.16828196495041" lon="15.785351975476168"><ele>667.0</ele><time>2026-04-28T09:45:20Z</time></trkpt><trkpt lat="38.16830213770062" lon="15.785159945094003"><ele>667.0</ele><time>2026-04-28T09:45:21Z</time></trkpt><trkpt lat="38.16832738762969" lon="15.784995367925228"><ele>667.0</ele><time>2026-04-28T09:45:22Z</time></trkpt><trkpt lat="38.16836118543732" lon="15.784853420435502"><ele>667.0</ele><time>2026-04-28T09:45:23Z</time></trkpt><trkpt lat="38.16842510482477" lon="15.78473212185841"><ele>667.0</ele><time>2026-04-28T09:45:23.999Z</time></trkpt><trkpt lat="38.16850357502162" lon="15.784646876876142"><ele>667.0</ele><time>2026-04-28T09:45:24.999Z</time></trkpt><trkpt lat="38.168599808524355" lon="15.784572589392273"><ele>667.0</ele><time>2026-04-28T09:45:25.999Z</time></trkpt><trkpt lat="38.168742736047555" lon="15.784556582474531"><ele>667.0</ele><time>2026-04-28T09:45:26.999Z</time></trkpt><trkpt lat="38.16885087556688" lon="15.784499291456708"><ele>667.0</ele><time>2026-04-28T09:45:27.999Z</time></trkpt><trkpt lat="38.16892533150162" lon="15.784451065475242"><ele>663.0</ele><time>2026-04-28T09:45:28.999Z</time></trkpt><trkpt lat="38.16895688672052" lon="15.78432243937592"><ele>659.0</ele><time>2026-04-28T09:45:29.999Z</time></trkpt><trkpt lat="38.16893989151792" lon="15.784174414827199"><ele>655.0</ele><time>2026-04-28T09:45:30.999Z</time></trkpt><trkpt lat="38.1688224013041" lon="15.784032569083331"><ele>651.0</ele><time>2026-04-28T09:45:31.999Z</time></trkpt><trkpt lat="38.16870535770836" lon="15.783873316312697"><ele>651.0</ele><time>2026-04-28T09:45:32.999Z</time></trkpt><trkpt lat="38.16863066599627" lon="15.783708066527058"><ele>651.0</ele><time>2026-04-28T09:45:33.999Z</time></trkpt><trkpt lat="38.168558778677" lon="15.783548112497822"><ele>651.0</ele><time>2026-04-28T09:45:34.999Z</time></trkpt><trkpt lat="38.168500685238314" lon="15.783332594572297"><ele>652.3333333333334</ele><time>2026-04-28T09:45:35.999Z</time></trkpt><trkpt lat="38.16844682967862" lon="15.783082862566257"><ele>653.6666666666667</ele><time>2026-04-28T09:45:36.999Z</time></trkpt><trkpt lat="38.168399164820755" lon="15.782860483662226"><ele>655.0</ele><time>2026-04-28T09:45:37.999Z</time></trkpt><trkpt lat="38.16835926809224" lon="15.782657815155995"><ele>655.5</ele><time>2026-04-28T09:45:38.999Z</time></trkpt><trkpt lat="38.16832287230898" lon="15.782460645843951"><ele>656.0</ele><time>2026-04-28T09:45:39.999Z</time></trkpt><trkpt lat="38.16829962439679" lon="15.782287617733274"><ele>656.5</ele><time>2026-04-28T09:45:40.999Z</time></trkpt><trkpt lat="38.16829356500428" lon="15.782131256708633"><ele>657.0</ele><time>2026-04-28T09:45:41.999Z</time></trkpt><trkpt lat="38.16830997977576" lon="15.781991527501017"><ele>657.0</ele><time>2026-04-28T09:45:42.999Z</time></trkpt><trkpt lat="38.16830917668701" lon="15.781886737304683"><ele>657.0</ele><time>2026-04-28T09:45:43.999Z</time></trkpt><trkpt lat="38.168247455897834" lon="15.781767788276525"><ele>657.0</ele><time>2026-04-28T09:45:45.999Z</time></trkpt><trkpt lat="38.168147813490265" lon="15.781833485706116"><ele>657.0</ele><time>2026-04-28T09:45:46.999Z</time></trkpt><trkpt lat="38.16808788349247" lon="15.781910720148229"><ele>657.0</ele><time>2026-04-28T09:45:47.999Z</time></trkpt><trkpt lat="38.16814367945118" lon="15.782119975062457"><ele>656.3333333333334</ele><time>2026-04-28T09:45:48.999Z</time></trkpt><trkpt lat="38.16818728246988" lon="15.782321796096086"><ele>655.6666666666667</ele><time>2026-04-28T09:45:49.999Z</time></trkpt><trkpt lat="38.168190568097735" lon="15.78258491513643"><ele>655.0</ele><time>2026-04-28T09:45:50.999Z</time></trkpt><trkpt lat="38.16821379098412" lon="15.782873757377303"><ele>655.0</ele><time>2026-04-28T09:45:51.999Z</time></trkpt><trkpt lat="38.16822659097041" lon="15.783161588591014"><ele>655.0</ele><time>2026-04-28T09:45:52.999Z</time></trkpt><trkpt lat="38.16824194583352" lon="15.783419876050269"><ele>655.0</ele><time>2026-04-28T09:45:53.999Z</time></trkpt><trkpt lat="38.16825573647736" lon="15.783629151569244"><ele>654.0</ele><time>2026-04-28T09:45:54.999Z</time></trkpt><trkpt lat="38.168260920438485" lon="15.78381302077764"><ele>653.0</ele><time>2026-04-28T09:45:55.999Z</time></trkpt><trkpt lat="38.168261633072404" lon="15.783970379874672"><ele>652.0</ele><time>2026-04-28T09:45:56.999Z</time></trkpt><trkpt lat="38.168221942131666" lon="15.784101757766509"><ele>651.0</ele><time>2026-04-28T09:45:57.999Z</time></trkpt><trkpt lat="38.16815312557703" lon="15.784207370750293"><ele>644.6666666666666</ele><time>2026-04-28T09:45:58.999Z</time></trkpt><trkpt lat="38.168027542615505" lon="15.784289224206514"><ele>638.3333333333333</ele><time>2026-04-28T09:45:59.999Z</time></trkpt><trkpt lat="38.16789564992691" lon="15.784423457981166"><ele>632.0</ele><time>2026-04-28T09:46:00.999Z</time></trkpt><trkpt lat="38.167739955122485" lon="15.784556882227127"><ele>632.0</ele><time>2026-04-28T09:46:01.999Z</time></trkpt><trkpt lat="38.16761153135602" lon="15.784670971606083"><ele>632.0</ele><time>2026-04-28T09:46:02.999Z</time></trkpt><trkpt lat="38.16753180355348" lon="15.78478503077651"><ele>632.0</ele><time>2026-04-28T09:46:03.999Z</time></trkpt><trkpt lat="38.16749343767733" lon="15.784894469857953"><ele>632.0</ele><time>2026-04-28T09:46:04.999Z</time></trkpt><trkpt lat="38.167400896156096" lon="15.78495510404682"><ele>632.0</ele><time>2026-04-28T09:46:06.999Z</time></trkpt><trkpt lat="38.16734197137644" lon="15.784893447795698"><ele>632.0</ele><time>2026-04-28T09:46:07.999Z</time></trkpt><trkpt lat="38.16733321109454" lon="15.784804297218114"><ele>632.0</ele><time>2026-04-28T09:46:08.999Z</time></trkpt><trkpt lat="38.16741603609436" lon="15.78471831787452"><ele>632.0</ele><time>2026-04-28T09:46:09.999Z</time></trkpt><trkpt lat="38.16752372185785" lon="15.784602418471763"><ele>632.0</ele><time>2026-04-28T09:46:10.999Z</time></trkpt><trkpt lat="38.16765075345101" lon="15.784457219222201"><ele>630.75</ele><time>2026-04-28T09:46:11.999Z</time></trkpt><trkpt lat="38.16776807281215" lon="15.784304449880262"><ele>629.5</ele><time>2026-04-28T09:46:12.999Z</time></trkpt><trkpt lat="38.16784246658449" lon="15.784145862865499"><ele>628.25</ele><time>2026-04-28T09:46:13.999Z</time></trkpt><trkpt lat="38.167877848743885" lon="15.78400960823142"><ele>627.0</ele><time>2026-04-28T09:46:14.999Z</time></trkpt><trkpt lat="38.167894043254606" lon="15.783903974781756"><ele>627.0</ele><time>2026-04-28T09:46:15.999Z</time></trkpt><trkpt lat="38.1678669927234" lon="15.783802709302797"><ele>627.0</ele><time>2026-04-28T09:46:16.999Z</time></trkpt><trkpt lat="38.167753922073715" lon="15.783739384473716"><ele>627.0</ele><time>2026-04-28T09:46:17.999Z</time></trkpt><trkpt lat="38.167610908445994" lon="15.783706796555826"><ele>627.0</ele><time>2026-04-28T09:46:18.999Z</time></trkpt><trkpt lat="38.1674545341526" lon="15.783640975255757"><ele>621.6666666666666</ele><time>2026-04-28T09:46:19.999Z</time></trkpt><trkpt lat="38.16728350070256" lon="15.783553342394711"><ele>616.3333333333333</ele><time>2026-04-28T09:46:20.999Z</time></trkpt><trkpt lat="38.167126900760024" lon="15.783461218485519"><ele>611.0</ele><time>2026-04-28T09:46:21.999Z</time></trkpt><trkpt lat="38.16700272651596" lon="15.78338025277698"><ele>611.0</ele><time>2026-04-28T09:46:22.999Z</time></trkpt><trkpt lat="38.16691441748524" lon="15.783298354130004"><ele>611.0</ele><time>2026-04-28T09:46:23.999Z</time></trkpt><trkpt lat="38.16684766564707" lon="15.783224564122094"><ele>611.0</ele><time>2026-04-28T09:46:24.999Z</time></trkpt><trkpt lat="38.166810927063786" lon="15.78314959311181"><ele>611.0</ele><time>2026-04-28T09:46:25.999Z</time></trkpt><trkpt lat="38.16680495607633" lon="15.783049265456189"><ele>611.0</ele><time>2026-04-28T09:46:26.999Z</time></trkpt><trkpt lat="38.16681188716477" lon="15.782866572404595"><ele>612.0</ele><time>2026-04-28T09:46:27.999Z</time></trkpt><trkpt lat="38.166798779298354" lon="15.782627687689311"><ele>613.0</ele><time>2026-04-28T09:46:28.999Z</time></trkpt><trkpt lat="38.166827775007604" lon="15.78237185078536"><ele>614.0</ele><time>2026-04-28T09:46:29.999Z</time></trkpt><trkpt lat="38.16682706137931" lon="15.782131290834876"><ele>614.0</ele><time>2026-04-28T09:46:30.999Z</time></trkpt><trkpt lat="38.16681625024915" lon="15.781933941275906"><ele>614.0</ele><time>2026-04-28T09:46:31.999Z</time></trkpt><trkpt lat="38.16681435091908" lon="15.78176897050208"><ele>614.0</ele><time>2026-04-28T09:46:32.999Z</time></trkpt><trkpt lat="38.16682154332738" lon="15.781618079345428"><ele>614.0</ele><time>2026-04-28T09:46:33.999Z</time></trkpt><trkpt lat="38.16683584193859" lon="15.781463119161355"><ele>613.0</ele><time>2026-04-28T09:46:34.999Z</time></trkpt><trkpt lat="38.16693942883371" lon="15.781322625048423"><ele>612.0</ele><time>2026-04-28T09:46:35.999Z</time></trkpt><trkpt lat="38.167035028096954" lon="15.781163225328587"><ele>611.0</ele><time>2026-04-28T09:46:36.999Z</time></trkpt><trkpt lat="38.16710328194447" lon="15.781049704041703"><ele>610.0</ele><time>2026-04-28T09:46:37.999Z</time></trkpt><trkpt lat="38.16713811219018" lon="15.780961583825576"><ele>607.6</ele><time>2026-04-28T09:46:38.999Z</time></trkpt><trkpt lat="38.167170273339444" lon="15.780892677845427"><ele>605.2</ele><time>2026-04-28T09:46:39.999Z</time></trkpt><trkpt lat="38.167152253865474" lon="15.780797472092765"><ele>602.8</ele><time>2026-04-28T09:46:40.998Z</time></trkpt><trkpt lat="38.1670605237816" lon="15.780742593057335"><ele>600.4</ele><time>2026-04-28T09:46:41.998Z</time></trkpt><trkpt lat="38.16695324779398" lon="15.780815211165446"><ele>598.0</ele><time>2026-04-28T09:46:42.998Z</time></trkpt><trkpt lat="38.1668559583847" lon="15.780956887884024"><ele>602.0</ele><time>2026-04-28T09:46:43.998Z</time></trkpt><trkpt lat="38.16675182786015" lon="15.78111839328615"><ele>606.0</ele><time>2026-04-28T09:46:44.998Z</time></trkpt><trkpt lat="38.16664709739991" lon="15.781282356572447"><ele>610.0</ele><time>2026-04-28T09:46:45.998Z</time></trkpt><trkpt lat="38.16656057958183" lon="15.78143813771562"><ele>601.3333333333334</ele><time>2026-04-28T09:46:46.998Z</time></trkpt><trkpt lat="38.166485287596444" lon="15.781579103958268"><ele>592.6666666666666</ele><time>2026-04-28T09:46:47.998Z</time></trkpt><trkpt lat="38.166435176281986" lon="15.781768181447188"><ele>584.0</ele><time>2026-04-28T09:46:48.998Z</time></trkpt><trkpt lat="38.16641360938559" lon="15.782023550316083"><ele>584.0</ele><time>2026-04-28T09:46:49.998Z</time></trkpt><trkpt lat="38.166362653608395" lon="15.782289690434103"><ele>584.0</ele><time>2026-04-28T09:46:51Z</time></trkpt><trkpt lat="38.1663373765245" lon="15.782494390137558"><ele>584.0</ele><time>2026-04-28T09:46:52Z</time></trkpt><trkpt lat="38.16633549055295" lon="15.78265190824595"><ele>584.4</ele><time>2026-04-28T09:46:53Z</time></trkpt><trkpt lat="38.166336953593195" lon="15.782766311151313"><ele>584.8</ele><time>2026-04-28T09:46:54Z</time></trkpt><trkpt lat="38.16630610846235" lon="15.782893838585556"><ele>585.2</ele><time>2026-04-28T09:46:56Z</time></trkpt><trkpt lat="38.16622448823923" lon="15.782894797296608"><ele>585.6</ele><time>2026-04-28T09:46:57Z</time></trkpt><trkpt lat="38.16617031881375" lon="15.782819232140731"><ele>586.0</ele><time>2026-04-28T09:46:58Z</time></trkpt><trkpt lat="38.166157711651756" lon="15.782684384755418"><ele>585.3333333333334</ele><time>2026-04-28T09:46:59Z</time></trkpt><trkpt lat="38.16616036793448" lon="15.782504843161075"><ele>584.6666666666666</ele><time>2026-04-28T09:47:00Z</time></trkpt><trkpt lat="38.166153659508964" lon="15.782291234629994"><ele>584.0</ele><time>2026-04-28T09:47:01Z</time></trkpt><trkpt lat="38.166132889601734" lon="15.782047851285352"><ele>581.3333333333333</ele><time>2026-04-28T09:47:02Z</time></trkpt><trkpt lat="38.16610714820115" lon="15.781817618997183"><ele>578.6666666666666</ele><time>2026-04-28T09:47:03Z</time></trkpt><trkpt lat="38.16610401104171" lon="15.781619316036252"><ele>576.0</ele><time>2026-04-28T09:47:04Z</time></trkpt><trkpt lat="38.16613867954274" lon="15.781410257829066"><ele>576.0</ele><time>2026-04-28T09:47:05Z</time></trkpt><trkpt lat="38.166185678121636" lon="15.781180700843263"><ele>576.0</ele><time>2026-04-28T09:47:06Z</time></trkpt><trkpt lat="38.16624421441972" lon="15.780934429996092"><ele>576.0</ele><time>2026-04-28T09:47:07Z</time></trkpt><trkpt lat="38.166286288609186" lon="15.780700662615216"><ele>573.5</ele><time>2026-04-28T09:47:08Z</time></trkpt><trkpt lat="38.16634658564324" lon="15.780495984526112"><ele>571.0</ele><time>2026-04-28T09:47:09Z</time></trkpt><trkpt lat="38.1663867594291" lon="15.780320760403066"><ele>568.5</ele><time>2026-04-28T09:47:10Z</time></trkpt><trkpt lat="38.16640714959904" lon="15.780176775521207"><ele>566.0</ele><time>2026-04-28T09:47:11Z</time></trkpt><trkpt lat="38.166459000947796" lon="15.780062461667995"><ele>564.25</ele><time>2026-04-28T09:47:12Z</time></trkpt><trkpt lat="38.16652113119077" lon="15.779961817570534"><ele>562.5</ele><time>2026-04-28T09:47:13Z</time></trkpt><trkpt lat="38.16662463927843" lon="15.779836644214164"><ele>560.75</ele><time>2026-04-28T09:47:14Z</time></trkpt><trkpt lat="38.16673665073409" lon="15.779732888683709"><ele>559.0</ele><time>2026-04-28T09:47:15Z</time></trkpt><trkpt lat="38.16683593333863" lon="15.779658734410626"><ele>565.5</ele><time>2026-04-28T09:47:16Z</time></trkpt><trkpt lat="38.16692914840668" lon="15.7796204307951"><ele>572.0</ele><time>2026-04-28T09:47:17Z</time></trkpt><trkpt lat="38.16702344087517" lon="15.779633022512202"><ele>578.5</ele><time>2026-04-28T09:47:18Z</time></trkpt><trkpt lat="38.167136080268" lon="15.779665941173088"><ele>585.0</ele><time>2026-04-28T09:47:19Z</time></trkpt><trkpt lat="38.16725827173937" lon="15.779769150203213"><ele>586.6</ele><time>2026-04-28T09:47:20Z</time></trkpt><trkpt lat="38.16737807989914" lon="15.779842265269666"><ele>588.2</ele><time>2026-04-28T09:47:21Z</time></trkpt><trkpt lat="38.167450554975154" lon="15.779839923423314"><ele>589.8</ele><time>2026-04-28T09:47:22Z</time></trkpt><trkpt lat="38.16751726480972" lon="15.779775801646505"><ele>591.4</ele><time>2026-04-28T09:47:22.999Z</time></trkpt><trkpt lat="38.16761662721285" lon="15.779685210522151"><ele>593.0</ele><time>2026-04-28T09:47:23.999Z</time></trkpt><trkpt lat="38.167668060221054" lon="15.779579047410449"><ele>593.0</ele><time>2026-04-28T09:47:24.999Z</time></trkpt><trkpt lat="38.16770909151586" lon="15.779493322098032"><ele>593.0</ele><time>2026-04-28T09:47:25.999Z</time></trkpt><trkpt lat="38.16763346672037" lon="15.779348364911444"><ele>593.0</ele><time>2026-04-28T09:47:26.999Z</time></trkpt><trkpt lat="38.16755052962258" lon="15.779195584134278"><ele>593.0</ele><time>2026-04-28T09:47:27.999Z</time></trkpt><trkpt lat="38.167430438384166" lon="15.779051992127453"><ele>586.75</ele><time>2026-04-28T09:47:28.999Z</time></trkpt><trkpt lat="38.167307522299296" lon="15.77894506840985"><ele>580.5</ele><time>2026-04-28T09:47:29.999Z</time></trkpt><trkpt lat="38.16720938332045" lon="15.77884510588351"><ele>574.25</ele><time>2026-04-28T09:47:30.999Z</time></trkpt><trkpt lat="38.167156637380714" lon="15.778734780180068"><ele>568.0</ele><time>2026-04-28T09:47:31.999Z</time></trkpt><trkpt lat="38.16705394698411" lon="15.778601427251067"><ele>565.75</ele><time>2026-04-28T09:47:32.999Z</time></trkpt><trkpt lat="38.166987066918935" lon="15.778438108468194"><ele>563.5</ele><time>2026-04-28T09:47:33.999Z</time></trkpt><trkpt lat="38.16692704070029" lon="15.778279681175261"><ele>561.25</ele><time>2026-04-28T09:47:34.999Z</time></trkpt><trkpt lat="38.16686629313427" lon="15.778149872984391"><ele>559.0</ele><time>2026-04-28T09:47:35.999Z</time></trkpt><trkpt lat="38.166823810697615" lon="15.778021213287136"><ele>559.0</ele><time>2026-04-28T09:47:36.999Z</time></trkpt><trkpt lat="38.16681625992949" lon="15.777885368120035"><ele>559.0</ele><time>2026-04-28T09:47:37.999Z</time></trkpt><trkpt lat="38.16684645754121" lon="15.777761031357992"><ele>559.0</ele><time>2026-04-28T09:47:38.999Z</time></trkpt><trkpt lat="38.16692255283773" lon="15.777632926202937"><ele>559.0</ele><time>2026-04-28T09:47:39.999Z</time></trkpt><trkpt lat="38.1670227106519" lon="15.777488567752682"><ele>557.6</ele><time>2026-04-28T09:47:40.999Z</time></trkpt><trkpt lat="38.16710538514804" lon="15.777347379113799"><ele>556.2</ele><time>2026-04-28T09:47:41.999Z</time></trkpt><trkpt lat="38.16717221767495" lon="15.777240219484083"><ele>554.8000000000001</ele><time>2026-04-28T09:47:42.999Z</time></trkpt><trkpt lat="38.16724125732044" lon="15.777162085811748"><ele>553.4</ele><time>2026-04-28T09:47:43.999Z</time></trkpt><trkpt lat="38.167311586425285" lon="15.777110414342745"><ele>552.0</ele><time>2026-04-28T09:47:44.999Z</time></trkpt><trkpt lat="38.167388221384016" lon="15.77707305989771"><ele>552.4</ele><time>2026-04-28T09:47:45.999Z</time></trkpt><trkpt lat="38.16745290410399" lon="15.777069742971854"><ele>552.8000000000001</ele><time>2026-04-28T09:47:46.999Z</time></trkpt><trkpt lat="38.16748360525516" lon="15.776974323166622"><ele>553.2</ele><time>2026-04-28T09:47:49.999Z</time></trkpt><trkpt lat="38.16745060348878" lon="15.776874866391887"><ele>553.6</ele><time>2026-04-28T09:47:51.999Z</time></trkpt><trkpt lat="38.16747358066497" lon="15.776697606806056"><ele>554.0</ele><time>2026-04-28T09:47:53.999Z</time></trkpt><trkpt lat="38.16750302038603" lon="15.776551091509516"><ele>554.0</ele><time>2026-04-28T09:47:54.999Z</time></trkpt><trkpt lat="38.16755010356385" lon="15.77636878903658"><ele>554.0</ele><time>2026-04-28T09:47:55.999Z</time></trkpt><trkpt lat="38.16760828430875" lon="15.776148170232817"><ele>554.0</ele><time>2026-04-28T09:47:56.999Z</time></trkpt><trkpt lat="38.16766550794622" lon="15.775908956391664"><ele>551.3333333333333</ele><time>2026-04-28T09:47:57.999Z</time></trkpt><trkpt lat="38.167735818650144" lon="15.775688986905786"><ele>548.6666666666666</ele><time>2026-04-28T09:47:58.999Z</time></trkpt><trkpt lat="38.1677821898621" lon="15.77543450257858"><ele>546.0</ele><time>2026-04-28T09:47:59.999Z</time></trkpt><trkpt lat="38.16784898848205" lon="15.775189629215937"><ele>543.6666666666666</ele><time>2026-04-28T09:48:00.999Z</time></trkpt><trkpt lat="38.16791312330521" lon="15.774943117532"><ele>541.3333333333333</ele><time>2026-04-28T09:48:01.999Z</time></trkpt><trkpt lat="38.16797694803675" lon="15.774687099853645"><ele>539.0</ele><time>2026-04-28T09:48:02.999Z</time></trkpt><trkpt lat="38.16803893713442" lon="15.774432237694173"><ele>542.0</ele><time>2026-04-28T09:48:03.999Z</time></trkpt><trkpt lat="38.16809981268937" lon="15.774191227288467"><ele>545.0</ele><time>2026-04-28T09:48:04.999Z</time></trkpt><trkpt lat="38.168158978383254" lon="15.773960639327484"><ele>548.0</ele><time>2026-04-28T09:48:05.999Z</time></trkpt><trkpt lat="38.16821957329013" lon="15.773736923376475"><ele>548.0</ele><time>2026-04-28T09:48:06.999Z</time></trkpt><trkpt lat="38.16828657015424" lon="15.773515574899779"><ele>548.0</ele><time>2026-04-28T09:48:07.999Z</time></trkpt><trkpt lat="38.16836460045464" lon="15.773291942622562"><ele>548.0</ele><time>2026-04-28T09:48:08.999Z</time></trkpt><trkpt lat="38.168468734730574" lon="15.773078980304152"><ele>548.0</ele><time>2026-04-28T09:48:09.999Z</time></trkpt><trkpt lat="38.168582691244616" lon="15.772881424143876"><ele>548.0</ele><time>2026-04-28T09:48:10.999Z</time></trkpt><trkpt lat="38.16869661985245" lon="15.772701164727692"><ele>548.0</ele><time>2026-04-28T09:48:11.999Z</time></trkpt><trkpt lat="38.16883602080668" lon="15.77257710682918"><ele>551.6666666666666</ele><time>2026-04-28T09:48:12.999Z</time></trkpt><trkpt lat="38.1689714497552" lon="15.772449250055791"><ele>555.3333333333334</ele><time>2026-04-28T09:48:13.999Z</time></trkpt><trkpt lat="38.16909153412316" lon="15.772320434358221"><ele>559.0</ele><time>2026-04-28T09:48:14.999Z</time></trkpt><trkpt lat="38.16918967100876" lon="15.77216848051894"><ele>559.0</ele><time>2026-04-28T09:48:15.999Z</time></trkpt><trkpt lat="38.16925354069238" lon="15.771985650230183"><ele>559.0</ele><time>2026-04-28T09:48:16.999Z</time></trkpt><trkpt lat="38.16929628650989" lon="15.771810317919044"><ele>559.0</ele><time>2026-04-28T09:48:17.999Z</time></trkpt><trkpt lat="38.16932322188596" lon="15.771650454452878"><ele>559.0</ele><time>2026-04-28T09:48:18.999Z</time></trkpt><trkpt lat="38.16936166771235" lon="15.771525819430511"><ele>555.6</ele><time>2026-04-28T09:48:19.999Z</time></trkpt><trkpt lat="38.169396735018864" lon="15.771437835372744"><ele>552.2</ele><time>2026-04-28T09:48:20.999Z</time></trkpt><trkpt lat="38.1694344250802" lon="15.771344037949872"><ele>548.8000000000001</ele><time>2026-04-28T09:48:21.999Z</time></trkpt><trkpt lat="38.169462143036625" lon="15.771218390812269"><ele>545.4</ele><time>2026-04-28T09:48:22.999Z</time></trkpt><trkpt lat="38.16947349563834" lon="15.771048064854606"><ele>542.0</ele><time>2026-04-28T09:48:23.999Z</time></trkpt><trkpt lat="38.16949405577124" lon="15.770864956145113"><ele>538.75</ele><time>2026-04-28T09:48:24.999Z</time></trkpt><trkpt lat="38.16950324491707" lon="15.770695872854622"><ele>535.5</ele><time>2026-04-28T09:48:25.999Z</time></trkpt><trkpt lat="38.169481097620036" lon="15.77052913562999"><ele>532.25</ele><time>2026-04-28T09:48:26.999Z</time></trkpt><trkpt lat="38.169452525717" lon="15.77035939824005"><ele>529.0</ele><time>2026-04-28T09:48:27.999Z</time></trkpt><trkpt lat="38.16937315569254" lon="15.770215830376067"><ele>528.0</ele><time>2026-04-28T09:48:28.999Z</time></trkpt><trkpt lat="38.169313354887414" lon="15.770067859614525"><ele>527.0</ele><time>2026-04-28T09:48:29.999Z</time></trkpt><trkpt lat="38.16925355509854" lon="15.76992229587183"><ele>526.0</ele><time>2026-04-28T09:48:30.999Z</time></trkpt><trkpt lat="38.16920280625733" lon="15.769767989529328"><ele>525.0</ele><time>2026-04-28T09:48:31.999Z</time></trkpt><trkpt lat="38.169169191212106" lon="15.769608214707235"><ele>525.0</ele><time>2026-04-28T09:48:32.999Z</time></trkpt><trkpt lat="38.16916604705309" lon="15.76944479984241"><ele>525.0</ele><time>2026-04-28T09:48:33.999Z</time></trkpt><trkpt lat="38.1691886557205" lon="15.769281309153397"><ele>525.0</ele><time>2026-04-28T09:48:34.999Z</time></trkpt><trkpt lat="38.1692309517074" lon="15.769124373111424"><ele>525.0</ele><time>2026-04-28T09:48:35.999Z</time></trkpt><trkpt lat="38.16928789433108" lon="15.768973342388982"><ele>523.0</ele><time>2026-04-28T09:48:36.999Z</time></trkpt><trkpt lat="38.1693692395718" lon="15.76883187378399"><ele>521.0</ele><time>2026-04-28T09:48:37.998Z</time></trkpt><trkpt lat="38.1694221417152" lon="15.768669646806748"><ele>519.0</ele><time>2026-04-28T09:48:38.998Z</time></trkpt><trkpt lat="38.16948096318317" lon="15.76851387840867"><ele>517.0</ele><time>2026-04-28T09:48:39.998Z</time></trkpt><trkpt lat="38.16952894117454" lon="15.768354062869841"><ele>513.75</ele><time>2026-04-28T09:48:40.998Z</time></trkpt><trkpt lat="38.16956362117119" lon="15.768186875039866"><ele>510.5</ele><time>2026-04-28T09:48:41.998Z</time></trkpt><trkpt lat="38.16958750635204" lon="15.768014970840884"><ele>507.25</ele><time>2026-04-28T09:48:42.998Z</time></trkpt><trkpt lat="38.16958746285798" lon="15.767841482575959"><ele>504.0</ele><time>2026-04-28T09:48:43.998Z</time></trkpt><trkpt lat="38.169571007670314" lon="15.767672722859444"><ele>501.75</ele><time>2026-04-28T09:48:44.998Z</time></trkpt><trkpt lat="38.16953462614079" lon="15.76752680233132"><ele>499.5</ele><time>2026-04-28T09:48:45.998Z</time></trkpt><trkpt lat="38.16947545726912" lon="15.767371480338946"><ele>497.25</ele><time>2026-04-28T09:48:46.998Z</time></trkpt><trkpt lat="38.16940418888443" lon="15.767197987049514"><ele>495.0</ele><time>2026-04-28T09:48:47.998Z</time></trkpt><trkpt lat="38.169319019587725" lon="15.76702038665784"><ele>495.0</ele><time>2026-04-28T09:48:48.998Z</time></trkpt><trkpt lat="38.169246222860096" lon="15.766845079065439"><ele>495.0</ele><time>2026-04-28T09:48:49.998Z</time></trkpt><trkpt lat="38.16918329999312" lon="15.766670936289685"><ele>495.0</ele><time>2026-04-28T09:48:50.998Z</time></trkpt><trkpt lat="38.169114853928654" lon="15.766503561432941"><ele>491.0</ele><time>2026-04-28T09:48:51.998Z</time></trkpt><trkpt lat="38.16902010768774" lon="15.766335679228451"><ele>487.0</ele><time>2026-04-28T09:48:52.998Z</time></trkpt><trkpt lat="38.16892935344766" lon="15.766159459840107"><ele>483.0</ele><time>2026-04-28T09:48:53.998Z</time></trkpt><trkpt lat="38.16881072063857" lon="15.766026943437849"><ele>481.33333333333337</ele><time>2026-04-28T09:48:54.998Z</time></trkpt><trkpt lat="38.168666895682435" lon="15.765949635469983"><ele>479.6666666666667</ele><time>2026-04-28T09:48:55.998Z</time></trkpt><trkpt lat="38.168507792783984" lon="15.765887136456818"><ele>478.0</ele><time>2026-04-28T09:48:57Z</time></trkpt><trkpt lat="38.168353481402946" lon="15.765832013845184"><ele>478.0</ele><time>2026-04-28T09:48:58Z</time></trkpt><trkpt lat="38.16822101679681" lon="15.765742389364727"><ele>478.0</ele><time>2026-04-28T09:48:59Z</time></trkpt><trkpt lat="38.16810244172143" lon="15.76560621431668"><ele>478.0</ele><time>2026-04-28T09:49:00Z</time></trkpt><trkpt lat="38.16804175752226" lon="15.765414025284349"><ele>475.33333333333337</ele><time>2026-04-28T09:49:01Z</time></trkpt><trkpt lat="38.167976513742076" lon="15.765234809934466"><ele>472.66666666666663</ele><time>2026-04-28T09:49:02Z</time></trkpt><trkpt lat="38.16791057795424" lon="15.765056611004372"><ele>470.0</ele><time>2026-04-28T09:49:03Z</time></trkpt><trkpt lat="38.167836355179446" lon="15.7648903668986"><ele>467.3333333333333</ele><time>2026-04-28T09:49:04Z</time></trkpt><trkpt lat="38.16772852965295" lon="15.76472857679677"><ele>464.66666666666663</ele><time>2026-04-28T09:49:05Z</time></trkpt><trkpt lat="38.16758664061362" lon="15.764608337666404"><ele>462.0</ele><time>2026-04-28T09:49:06Z</time></trkpt><trkpt lat="38.167422272976054" lon="15.764553227950492"><ele>463.33333333333337</ele><time>2026-04-28T09:49:07Z</time></trkpt><trkpt lat="38.16724848007091" lon="15.764558677900325"><ele>464.6666666666667</ele><time>2026-04-28T09:49:08Z</time></trkpt><trkpt lat="38.16707273137629" lon="15.76455872805959"><ele>466.0</ele><time>2026-04-28T09:49:09Z</time></trkpt><trkpt lat="38.16687824063523" lon="15.764545478974794"><ele>466.0</ele><time>2026-04-28T09:49:10Z</time></trkpt><trkpt lat="38.166701829457544" lon="15.764547953734285"><ele>466.0</ele><time>2026-04-28T09:49:11Z</time></trkpt><trkpt lat="38.16653826878925" lon="15.764544219177742"><ele>466.0</ele><time>2026-04-28T09:49:12Z</time></trkpt><trkpt lat="38.16639030123151" lon="15.764510508448124"><ele>466.25</ele><time>2026-04-28T09:49:13Z</time></trkpt><trkpt lat="38.166255200417176" lon="15.764440935841332"><ele>466.5</ele><time>2026-04-28T09:49:14Z</time></trkpt><trkpt lat="38.16612939744282" lon="15.76435597186363"><ele>466.75</ele><time>2026-04-28T09:49:15Z</time></trkpt><trkpt lat="38.16605320761962" lon="15.764196793178579"><ele>467.0</ele><time>2026-04-28T09:49:16Z</time></trkpt><trkpt lat="38.16597611683939" lon="15.76404001960627"><ele>467.0</ele><time>2026-04-28T09:49:17Z</time></trkpt><trkpt lat="38.16594217154908" lon="15.763859358555177"><ele>467.0</ele><time>2026-04-28T09:49:18Z</time></trkpt><trkpt lat="38.165919872749036" lon="15.76368701250469"><ele>467.0</ele><time>2026-04-28T09:49:19Z</time></trkpt><trkpt lat="38.165913196455584" lon="15.763520736231712"><ele>467.0</ele><time>2026-04-28T09:49:20Z</time></trkpt><trkpt lat="38.16592919684259" lon="15.76336158272539"><ele>461.0</ele><time>2026-04-28T09:49:21Z</time></trkpt><trkpt lat="38.16591965667962" lon="15.76320104976021"><ele>455.0</ele><time>2026-04-28T09:49:22Z</time></trkpt><trkpt lat="38.16586178372788" lon="15.763020975737664"><ele>449.0</ele><time>2026-04-28T09:49:23Z</time></trkpt><trkpt lat="38.16576279230152" lon="15.762831825767766"><ele>446.3333333333333</ele><time>2026-04-28T09:49:24Z</time></trkpt><trkpt lat="38.1657897894029" lon="15.76256186119849"><ele>443.66666666666663</ele><time>2026-04-28T09:49:25Z</time></trkpt><trkpt lat="38.165762841779554" lon="15.76230493406714"><ele>441.0</ele><time>2026-04-28T09:49:25.999Z</time></trkpt><trkpt lat="38.16573366781147" lon="15.762026780235189"><ele>438.0</ele><time>2026-04-28T09:49:26.999Z</time></trkpt><trkpt lat="38.16570348769747" lon="15.7617372370209"><ele>435.0</ele><time>2026-04-28T09:49:27.999Z</time></trkpt><trkpt lat="38.165672288495244" lon="15.761436449805036"><ele>448.5</ele><time>2026-04-28T09:49:28.999Z</time></trkpt><trkpt lat="38.16563992918748" lon="15.761114172091306"><ele>462.0</ele><time>2026-04-28T09:49:29.999Z</time></trkpt><trkpt lat="38.165604181059244" lon="15.760780316007873"><ele>462.0</ele><time>2026-04-28T09:49:30.999Z</time></trkpt><trkpt lat="38.16556803773385" lon="15.76045044503627"><ele>462.0</ele><time>2026-04-28T09:49:31.999Z</time></trkpt><trkpt lat="38.16553305296039" lon="15.7601471351907"><ele>461.0</ele><time>2026-04-28T09:49:32.999Z</time></trkpt><trkpt lat="38.16549982219178" lon="15.759861165652156"><ele>460.0</ele><time>2026-04-28T09:49:33.999Z</time></trkpt><trkpt lat="38.16547075610564" lon="15.759574730060153"><ele>457.0</ele><time>2026-04-28T09:49:34.999Z</time></trkpt><trkpt lat="38.16544633247531" lon="15.759268682176087"><ele>454.0</ele><time>2026-04-28T09:49:35.999Z</time></trkpt><trkpt lat="38.165424046154364" lon="15.758956780166626"><ele>454.0</ele><time>2026-04-28T09:49:36.999Z</time></trkpt><trkpt lat="38.16543468006848" lon="15.758643869678808"><ele>454.0</ele><time>2026-04-28T09:49:37.999Z</time></trkpt><trkpt lat="38.16546073624295" lon="15.758324326071058"><ele>449.5</ele><time>2026-04-28T09:49:38.999Z</time></trkpt><trkpt lat="38.165501597175954" lon="15.75799582599483"><ele>445.0</ele><time>2026-04-28T09:49:39.999Z</time></trkpt><trkpt lat="38.165557321353404" lon="15.757661243119982"><ele>439.5</ele><time>2026-04-28T09:49:40.999Z</time></trkpt><trkpt lat="38.16564411308392" lon="15.7573318026646"><ele>434.0</ele><time>2026-04-28T09:49:41.999Z</time></trkpt><trkpt lat="38.16571535493029" lon="15.75697574885145"><ele>424.5</ele><time>2026-04-28T09:49:42.999Z</time></trkpt><trkpt lat="38.16581195275105" lon="15.756608194033765"><ele>415.0</ele><time>2026-04-28T09:49:43.999Z</time></trkpt><trkpt lat="38.165905569130935" lon="15.756234663269415"><ele>411.0</ele><time>2026-04-28T09:49:44.999Z</time></trkpt><trkpt lat="38.16599192175938" lon="15.755888618094977"><ele>407.0</ele><time>2026-04-28T09:49:45.999Z</time></trkpt><trkpt lat="38.166072195440755" lon="15.755562346716685"><ele>407.0</ele><time>2026-04-28T09:49:46.999Z</time></trkpt><trkpt lat="38.16613767341099" lon="15.755248535725977"><ele>407.0</ele><time>2026-04-28T09:49:47.999Z</time></trkpt><trkpt lat="38.16617953211875" lon="15.75495032239432"><ele>407.66666666666663</ele><time>2026-04-28T09:49:48.999Z</time></trkpt><trkpt lat="38.16619476811657" lon="15.754667988557767"><ele>408.33333333333337</ele><time>2026-04-28T09:49:49.999Z</time></trkpt><trkpt lat="38.16618943892059" lon="15.75439962612941"><ele>409.0</ele><time>2026-04-28T09:49:50.999Z</time></trkpt><trkpt lat="38.16620355130079" lon="15.754127963161155"><ele>413.6666666666667</ele><time>2026-04-28T09:49:51.999Z</time></trkpt><trkpt lat="38.16621952837526" lon="15.753853575182095"><ele>418.33333333333337</ele><time>2026-04-28T09:49:52.999Z</time></trkpt><trkpt lat="38.16626164248098" lon="15.753564220573015"><ele>423.0</ele><time>2026-04-28T09:49:53.999Z</time></trkpt><trkpt lat="38.16634644627933" lon="15.753280192787567"><ele>424.5</ele><time>2026-04-28T09:49:54.999Z</time></trkpt><trkpt lat="38.166450738838954" lon="15.753024589190316"><ele>426.0</ele><time>2026-04-28T09:49:55.999Z</time></trkpt><trkpt lat="38.166576205220466" lon="15.752768232995427"><ele>411.5</ele><time>2026-04-28T09:49:56.999Z</time></trkpt><trkpt lat="38.16669263999265" lon="15.752498619956166"><ele>397.0</ele><time>2026-04-28T09:49:57.999Z</time></trkpt><trkpt lat="38.166786920686384" lon="15.752216931997442"><ele>397.0</ele><time>2026-04-28T09:49:58.999Z</time></trkpt><trkpt lat="38.166864354952274" lon="15.751942589158046"><ele>397.0</ele><time>2026-04-28T09:49:59.999Z</time></trkpt><trkpt lat="38.16691431763773" lon="15.751648429423767"><ele>395.0</ele><time>2026-04-28T09:50:00.999Z</time></trkpt><trkpt lat="38.16695802702048" lon="15.751330141011369"><ele>393.0</ele><time>2026-04-28T09:50:01.999Z</time></trkpt><trkpt lat="38.166983015966764" lon="15.750993217635827"><ele>393.0</ele><time>2026-04-28T09:50:02.999Z</time></trkpt><trkpt lat="38.167000629040004" lon="15.750647772163509"><ele>393.0</ele><time>2026-04-28T09:50:03.999Z</time></trkpt><trkpt lat="38.16702138983761" lon="15.750300591405438"><ele>389.0</ele><time>2026-04-28T09:50:04.999Z</time></trkpt><trkpt lat="38.16704340700599" lon="15.749944531458201"><ele>385.0</ele><time>2026-04-28T09:50:05.999Z</time></trkpt><trkpt lat="38.167065983091014" lon="15.749597297912725"><ele>381.0</ele><time>2026-04-28T09:50:06.999Z</time></trkpt><trkpt lat="38.16710044136451" lon="15.749279800566137"><ele>377.0</ele><time>2026-04-28T09:50:07.999Z</time></trkpt><trkpt lat="38.167118333165284" lon="15.748979804468538"><ele>377.0</ele><time>2026-04-28T09:50:08.999Z</time></trkpt><trkpt lat="38.16713388586418" lon="15.748696090279285"><ele>377.0</ele><time>2026-04-28T09:50:09.999Z</time></trkpt><trkpt lat="38.16713506686621" lon="15.748418659410147"><ele>377.0</ele><time>2026-04-28T09:50:10.999Z</time></trkpt><trkpt lat="38.16715405892034" lon="15.748146663699513"><ele>378.33333333333337</ele><time>2026-04-28T09:50:11.999Z</time></trkpt><trkpt lat="38.16717424844075" lon="15.747891490623244"><ele>379.6666666666667</ele><time>2026-04-28T09:50:12.999Z</time></trkpt><trkpt lat="38.167190897403934" lon="15.747636178257755"><ele>381.0</ele><time>2026-04-28T09:50:13.999Z</time></trkpt><trkpt lat="38.16720425893255" lon="15.747381865542796"><ele>382.0</ele><time>2026-04-28T09:50:14.999Z</time></trkpt><trkpt lat="38.167216544647935" lon="15.747120066937663"><ele>383.0</ele><time>2026-04-28T09:50:15.999Z</time></trkpt><trkpt lat="38.167225853607434" lon="15.746832013756258"><ele>384.0</ele><time>2026-04-28T09:50:16.999Z</time></trkpt><trkpt lat="38.16724110160236" lon="15.746532602570793"><ele>384.0</ele><time>2026-04-28T09:50:17.999Z</time></trkpt><trkpt lat="38.1672625278712" lon="15.746244840404307"><ele>384.0</ele><time>2026-04-28T09:50:18.999Z</time></trkpt><trkpt lat="38.16729270385003" lon="15.745959248508"><ele>381.0</ele><time>2026-04-28T09:50:19.999Z</time></trkpt><trkpt lat="38.16734175975104" lon="15.745677625291282"><ele>378.0</ele><time>2026-04-28T09:50:20.999Z</time></trkpt><trkpt lat="38.16741097978434" lon="15.745396558377472"><ele>373.5</ele><time>2026-04-28T09:50:21.999Z</time></trkpt><trkpt lat="38.1675006745176" lon="15.745104229259612"><ele>369.0</ele><time>2026-04-28T09:50:22.999Z</time></trkpt><trkpt lat="38.16761340113664" lon="15.744812720043583"><ele>369.0</ele><time>2026-04-28T09:50:23.999Z</time></trkpt><trkpt lat="38.167747333225414" lon="15.744527874965774"><ele>369.0</ele><time>2026-04-28T09:50:24.999Z</time></trkpt><trkpt lat="38.1678933701041" lon="15.744242502349282"><ele>372.0</ele><time>2026-04-28T09:50:25.999Z</time></trkpt><trkpt lat="38.168030660312965" lon="15.743980208208571"><ele>375.0</ele><time>2026-04-28T09:50:26.999Z</time></trkpt><trkpt lat="38.16816644886354" lon="15.743710710022063"><ele>364.5</ele><time>2026-04-28T09:50:27.999Z</time></trkpt><trkpt lat="38.16830292667961" lon="15.743443900080008"><ele>354.0</ele><time>2026-04-28T09:50:28.999Z</time></trkpt><trkpt lat="38.16844364982128" lon="15.743204801876702"><ele>354.0</ele><time>2026-04-28T09:50:29.999Z</time></trkpt><trkpt lat="38.168533402410276" lon="15.742915645303372"><ele>354.0</ele><time>2026-04-28T09:50:30.999Z</time></trkpt><trkpt lat="38.1686232890797" lon="15.74263063856709"><ele>349.0</ele><time>2026-04-28T09:50:31.999Z</time></trkpt><trkpt lat="38.16869622256302" lon="15.742334745856779"><ele>344.0</ele><time>2026-04-28T09:50:32.999Z</time></trkpt><trkpt lat="38.16874842118022" lon="15.742023799807939"><ele>338.0</ele><time>2026-04-28T09:50:33.999Z</time></trkpt><trkpt lat="38.16876732169336" lon="15.741692952236539"><ele>332.0</ele><time>2026-04-28T09:50:34.999Z</time></trkpt><trkpt lat="38.16876239836221" lon="15.741349927384226"><ele>335.5</ele><time>2026-04-28T09:50:35.999Z</time></trkpt><trkpt lat="38.16874024515597" lon="15.741013317124235"><ele>339.0</ele><time>2026-04-28T09:50:36.999Z</time></trkpt><trkpt lat="38.16870387017175" lon="15.740668337532917"><ele>339.0</ele><time>2026-04-28T09:50:37.999Z</time></trkpt><trkpt lat="38.16866040909725" lon="15.740314606681647"><ele>339.0</ele><time>2026-04-28T09:50:38.999Z</time></trkpt><trkpt lat="38.1686172316105" lon="15.739953808512718"><ele>334.0</ele><time>2026-04-28T09:50:39.999Z</time></trkpt><trkpt lat="38.1685750958238" lon="15.739596451708918"><ele>329.0</ele><time>2026-04-28T09:50:40.999Z</time></trkpt><trkpt lat="38.16853265391174" lon="15.73922735685974"><ele>325.0</ele><time>2026-04-28T09:50:41.998Z</time></trkpt><trkpt lat="38.16848939858755" lon="15.738856517688939"><ele>321.0</ele><time>2026-04-28T09:50:42.998Z</time></trkpt><trkpt lat="38.16844422986608" lon="15.73848702401963"><ele>321.0</ele><time>2026-04-28T09:50:43.998Z</time></trkpt><trkpt lat="38.1684011274426" lon="15.738127654706828"><ele>321.0</ele><time>2026-04-28T09:50:44.998Z</time></trkpt><trkpt lat="38.16835996377779" lon="15.73778269592916"><ele>322.0</ele><time>2026-04-28T09:50:45.998Z</time></trkpt><trkpt lat="38.16832152648367" lon="15.737458831263286"><ele>323.0</ele><time>2026-04-28T09:50:46.998Z</time></trkpt><trkpt lat="38.168284569578134" lon="15.737140014448471"><ele>323.6666666666667</ele><time>2026-04-28T09:50:47.998Z</time></trkpt><trkpt lat="38.16825304574816" lon="15.736850659184636"><ele>324.3333333333333</ele><time>2026-04-28T09:50:48.998Z</time></trkpt><trkpt lat="38.168224143622524" lon="15.736577640965654"><ele>325.0</ele><time>2026-04-28T09:50:49.998Z</time></trkpt><trkpt lat="38.168198156480734" lon="15.736325760922409"><ele>326.66666666666663</ele><time>2026-04-28T09:50:50.998Z</time></trkpt><trkpt lat="38.16817918877561" lon="15.736066499972916"><ele>328.3333333333333</ele><time>2026-04-28T09:50:51.998Z</time></trkpt><trkpt lat="38.16818083151075" lon="15.735803911315775"><ele>330.0</ele><time>2026-04-28T09:50:52.998Z</time></trkpt><trkpt lat="38.168206490549444" lon="15.735555325104675"><ele>326.6666666666667</ele><time>2026-04-28T09:50:53.998Z</time></trkpt><trkpt lat="38.16826058365093" lon="15.735296996569424"><ele>323.33333333333337</ele><time>2026-04-28T09:50:54.998Z</time></trkpt><trkpt lat="38.16833675794675" lon="15.735045622456608"><ele>320.0</ele><time>2026-04-28T09:50:55.998Z</time></trkpt><trkpt lat="38.16843299247861" lon="15.734811663148587"><ele>316.0</ele><time>2026-04-28T09:50:56.998Z</time></trkpt><trkpt lat="38.16855616158827" lon="15.734583659254398"><ele>312.0</ele><time>2026-04-28T09:50:57.998Z</time></trkpt><trkpt lat="38.16869771503793" lon="15.734352743870215"><ele>308.0</ele><time>2026-04-28T09:50:58.998Z</time></trkpt><trkpt lat="38.168849342108714" lon="15.734120605796711"><ele>307.33333333333337</ele><time>2026-04-28T09:50:59.998Z</time></trkpt><trkpt lat="38.1689866813259" lon="15.733905409108353"><ele>306.6666666666667</ele><time>2026-04-28T09:51:00.998Z</time></trkpt><trkpt lat="38.16910616880934" lon="15.733701112806353"><ele>306.0</ele><time>2026-04-28T09:51:01.998Z</time></trkpt><trkpt lat="38.16921315405088" lon="15.73349659493817"><ele>303.6666666666667</ele><time>2026-04-28T09:51:03Z</time></trkpt><trkpt lat="38.16930701976826" lon="15.733285603687198"><ele>301.33333333333337</ele><time>2026-04-28T09:51:04Z</time></trkpt><trkpt lat="38.16936914868689" lon="15.733063397651417"><ele>299.0</ele><time>2026-04-28T09:51:05Z</time></trkpt><trkpt lat="38.169399330655224" lon="15.732823976828113"><ele>299.6666666666667</ele><time>2026-04-28T09:51:06Z</time></trkpt><trkpt lat="38.169394527674406" lon="15.732565588861602"><ele>300.3333333333333</ele><time>2026-04-28T09:51:07Z</time></trkpt><trkpt lat="38.16935711863572" lon="15.73229087863152"><ele>301.0</ele><time>2026-04-28T09:51:08Z</time></trkpt><trkpt lat="38.169305664919236" lon="15.732011308396176"><ele>300.3333333333333</ele><time>2026-04-28T09:51:09Z</time></trkpt><trkpt lat="38.1692654604191" lon="15.731758828375396"><ele>299.6666666666667</ele><time>2026-04-28T09:51:10Z</time></trkpt><trkpt lat="38.16923695976223" lon="15.731520225033213"><ele>299.0</ele><time>2026-04-28T09:51:11Z</time></trkpt><trkpt lat="38.16921901531865" lon="15.731276427012066"><ele>296.0</ele><time>2026-04-28T09:51:12Z</time></trkpt><trkpt lat="38.16922099350585" lon="15.731038521126692"><ele>293.0</ele><time>2026-04-28T09:51:13Z</time></trkpt><trkpt lat="38.169250029446744" lon="15.730788426020819"><ele>290.0</ele><time>2026-04-28T09:51:14Z</time></trkpt><trkpt lat="38.16931142819794" lon="15.730516824398771"><ele>290.0</ele><time>2026-04-28T09:51:15Z</time></trkpt><trkpt lat="38.16939630906523" lon="15.730226483288247"><ele>290.0</ele><time>2026-04-28T09:51:16Z</time></trkpt><trkpt lat="38.16949362697597" lon="15.729911171282694"><ele>287.5</ele><time>2026-04-28T09:51:17Z</time></trkpt><trkpt lat="38.16959963257367" lon="15.729575029886862"><ele>285.0</ele><time>2026-04-28T09:51:18Z</time></trkpt><trkpt lat="38.169711075865145" lon="15.729239212555926"><ele>285.5</ele><time>2026-04-28T09:51:19Z</time></trkpt><trkpt lat="38.169811244543936" lon="15.728932355575166"><ele>286.0</ele><time>2026-04-28T09:51:20Z</time></trkpt><trkpt lat="38.16990192564495" lon="15.728648710571187"><ele>286.0</ele><time>2026-04-28T09:51:21Z</time></trkpt><trkpt lat="38.169986575906094" lon="15.728380127008338"><ele>286.0</ele><time>2026-04-28T09:51:22Z</time></trkpt><trkpt lat="38.170069434466214" lon="15.728132897369042"><ele>286.0</ele><time>2026-04-28T09:51:23Z</time></trkpt><trkpt lat="38.170155858367714" lon="15.727923063118206"><ele>283.0</ele><time>2026-04-28T09:51:24Z</time></trkpt><trkpt lat="38.17026156370552" lon="15.727726277828364"><ele>280.0</ele><time>2026-04-28T09:51:25Z</time></trkpt><trkpt lat="38.17039557756783" lon="15.727538623045909"><ele>277.0</ele><time>2026-04-28T09:51:26Z</time></trkpt><trkpt lat="38.170553213500305" lon="15.727353181180014"><ele>281.5</ele><time>2026-04-28T09:51:27Z</time></trkpt><trkpt lat="38.170731701433105" lon="15.727173027375269"><ele>286.0</ele><time>2026-04-28T09:51:28Z</time></trkpt><trkpt lat="38.17092923771445" lon="15.7270040000865"><ele>281.0</ele><time>2026-04-28T09:51:29Z</time></trkpt><trkpt lat="38.17112749100331" lon="15.726821986828211"><ele>276.0</ele><time>2026-04-28T09:51:29.999Z</time></trkpt><trkpt lat="38.1713232785237" lon="15.726603311679106"><ele>276.0</ele><time>2026-04-28T09:51:30.999Z</time></trkpt><trkpt lat="38.171514088955384" lon="15.726358500248208"><ele>276.0</ele><time>2026-04-28T09:51:31.999Z</time></trkpt><trkpt lat="38.17170119259487" lon="15.726091285341685"><ele>274.5</ele><time>2026-04-28T09:51:32.999Z</time></trkpt><trkpt lat="38.1718770930515" lon="15.725823125682428"><ele>273.0</ele><time>2026-04-28T09:51:33.999Z</time></trkpt><trkpt lat="38.17205374417539" lon="15.725548934901571"><ele>273.0</ele><time>2026-04-28T09:51:34.999Z</time></trkpt><trkpt lat="38.17223103830764" lon="15.725269527742675"><ele>273.0</ele><time>2026-04-28T09:51:35.999Z</time></trkpt><trkpt lat="38.172408404486085" lon="15.724991437105539"><ele>270.5</ele><time>2026-04-28T09:51:36.999Z</time></trkpt><trkpt lat="38.17258611212507" lon="15.724714349185735"><ele>268.0</ele><time>2026-04-28T09:51:37.999Z</time></trkpt><trkpt lat="38.172759802051296" lon="15.72444286315312"><ele>263.5</ele><time>2026-04-28T09:51:38.999Z</time></trkpt><trkpt lat="38.17292040496312" lon="15.724190759903113"><ele>259.0</ele><time>2026-04-28T09:51:39.999Z</time></trkpt><trkpt lat="38.17307043361764" lon="15.723951177452673"><ele>259.3333333333333</ele><time>2026-04-28T09:51:40.999Z</time></trkpt><trkpt lat="38.173222640170614" lon="15.723738882804284"><ele>259.6666666666667</ele><time>2026-04-28T09:51:41.999Z</time></trkpt><trkpt lat="38.17334219155882" lon="15.723512254157189"><ele>260.0</ele><time>2026-04-28T09:51:42.999Z</time></trkpt><trkpt lat="38.17346290320479" lon="15.72331051775729"><ele>260.0</ele><time>2026-04-28T09:51:43.999Z</time></trkpt><trkpt lat="38.173569369781696" lon="15.723109402171037"><ele>260.0</ele><time>2026-04-28T09:51:44.999Z</time></trkpt><trkpt lat="38.17368283567051" lon="15.722919497064181"><ele>260.0</ele><time>2026-04-28T09:51:45.999Z</time></trkpt><trkpt lat="38.17377898238445" lon="15.72270456664595"><ele>259.33333333333337</ele><time>2026-04-28T09:51:46.999Z</time></trkpt><trkpt lat="38.17384977397908" lon="15.722458169002962"><ele>258.6666666666667</ele><time>2026-04-28T09:51:47.999Z</time></trkpt><trkpt lat="38.173942040671065" lon="15.722211843260409"><ele>258.0</ele><time>2026-04-28T09:51:48.999Z</time></trkpt><trkpt lat="38.1739942027971" lon="15.721952457404418"><ele>256.3333333333333</ele><time>2026-04-28T09:51:49.999Z</time></trkpt><trkpt lat="38.17400620928343" lon="15.721679130590818"><ele>254.66666666666666</ele><time>2026-04-28T09:51:50.999Z</time></trkpt><trkpt lat="38.174016888953695" lon="15.721429461249478"><ele>253.0</ele><time>2026-04-28T09:51:51.999Z</time></trkpt><trkpt lat="38.174021454981364" lon="15.721194716926194"><ele>252.33333333333331</ele><time>2026-04-28T09:51:52.999Z</time></trkpt><trkpt lat="38.174036360414554" lon="15.72097408180047"><ele>251.66666666666669</ele><time>2026-04-28T09:51:53.999Z</time></trkpt><trkpt lat="38.174074047807736" lon="15.720746366792774"><ele>251.0</ele><time>2026-04-28T09:51:54.999Z</time></trkpt><trkpt lat="38.17413185259186" lon="15.720535506867748"><ele>251.0</ele><time>2026-04-28T09:51:55.999Z</time></trkpt><trkpt lat="38.174199869620644" lon="15.720352634892127"><ele>251.0</ele><time>2026-04-28T09:51:56.999Z</time></trkpt><trkpt lat="38.174277189243604" lon="15.720196237716587"><ele>251.0</ele><time>2026-04-28T09:51:57.999Z</time></trkpt><trkpt lat="38.174366621692" lon="15.720065756333426"><ele>251.0</ele><time>2026-04-28T09:51:58.999Z</time></trkpt><trkpt lat="38.17446047396825" lon="15.719954692772605"><ele>249.20000000000002</ele><time>2026-04-28T09:51:59.999Z</time></trkpt><trkpt lat="38.1745618308556" lon="15.719874602219747"><ele>247.40000000000003</ele><time>2026-04-28T09:52:00.999Z</time></trkpt><trkpt lat="38.174670422908854" lon="15.719830078060093"><ele>245.6</ele><time>2026-04-28T09:52:01.999Z</time></trkpt><trkpt lat="38.17476922314512" lon="15.719794130484871"><ele>243.8</ele><time>2026-04-28T09:52:02.999Z</time></trkpt><trkpt lat="38.17483319839319" lon="15.719758648009664"><ele>242.0</ele><time>2026-04-28T09:52:03.999Z</time></trkpt><trkpt lat="38.17487976455249" lon="15.719661897878726"><ele>243.75</ele><time>2026-04-28T09:52:04.999Z</time></trkpt><trkpt lat="38.174881179988155" lon="15.719520312447564"><ele>245.5</ele><time>2026-04-28T09:52:05.999Z</time></trkpt><trkpt lat="38.17484286777691" lon="15.719361329434335"><ele>247.25</ele><time>2026-04-28T09:52:06.999Z</time></trkpt><trkpt lat="38.174858253338535" lon="15.719131137370912"><ele>249.0</ele><time>2026-04-28T09:52:07.999Z</time></trkpt><trkpt lat="38.17485224838077" lon="15.718909197078867"><ele>250.66666666666669</ele><time>2026-04-28T09:52:08.999Z</time></trkpt><trkpt lat="38.17484830802158" lon="15.718699147997924"><ele>252.33333333333334</ele><time>2026-04-28T09:52:09.999Z</time></trkpt><trkpt lat="38.174857851399665" lon="15.71847119751518"><ele>254.0</ele><time>2026-04-28T09:52:10.999Z</time></trkpt><trkpt lat="38.1749023867192" lon="15.718218332262357"><ele>251.66666666666669</ele><time>2026-04-28T09:52:11.999Z</time></trkpt><trkpt lat="38.17494363707671" lon="15.717944223803944"><ele>249.33333333333331</ele><time>2026-04-28T09:52:12.999Z</time></trkpt><trkpt lat="38.175004455250274" lon="15.717683904994116"><ele>247.0</ele><time>2026-04-28T09:52:13.999Z</time></trkpt><trkpt lat="38.17508845745829" lon="15.717404090057869"><ele>247.0</ele><time>2026-04-28T09:52:14.999Z</time></trkpt><trkpt lat="38.17518781240858" lon="15.717114277161244"><ele>247.0</ele><time>2026-04-28T09:52:15.999Z</time></trkpt><trkpt lat="38.17532112756276" lon="15.716842444878075"><ele>254.5</ele><time>2026-04-28T09:52:16.999Z</time></trkpt><trkpt lat="38.17545116037659" lon="15.71657802855221"><ele>262.0</ele><time>2026-04-28T09:52:17.999Z</time></trkpt><trkpt lat="38.17558636935906" lon="15.716304858724543"><ele>252.0</ele><time>2026-04-28T09:52:18.999Z</time></trkpt><trkpt lat="38.17568260507571" lon="15.716008836041444"><ele>242.0</ele><time>2026-04-28T09:52:19.999Z</time></trkpt><trkpt lat="38.175746664838016" lon="15.715705637237559"><ele>242.0</ele><time>2026-04-28T09:52:20.999Z</time></trkpt><trkpt lat="38.175820762318914" lon="15.71541250523175"><ele>242.0</ele><time>2026-04-28T09:52:21.999Z</time></trkpt><trkpt lat="38.17589310211986" lon="15.715139717866192"><ele>243.0</ele><time>2026-04-28T09:52:22.999Z</time></trkpt><trkpt lat="38.17597681418757" lon="15.714867001853241"><ele>244.0</ele><time>2026-04-28T09:52:23.999Z</time></trkpt><trkpt lat="38.17607358404846" lon="15.714610722667485"><ele>241.33333333333331</ele><time>2026-04-28T09:52:24.999Z</time></trkpt><trkpt lat="38.17618485953816" lon="15.714363182242014"><ele>238.66666666666669</ele><time>2026-04-28T09:52:25.999Z</time></trkpt><trkpt lat="38.176326347026034" lon="15.714144630529761"><ele>236.0</ele><time>2026-04-28T09:52:26.999Z</time></trkpt><trkpt lat="38.176477312271516" lon="15.713940179657168"><ele>233.66666666666669</ele><time>2026-04-28T09:52:27.999Z</time></trkpt><trkpt lat="38.17663144933448" lon="15.713758363097837"><ele>231.33333333333331</ele><time>2026-04-28T09:52:28.999Z</time></trkpt><trkpt lat="38.17680997578465" lon="15.713591742932225"><ele>229.0</ele><time>2026-04-28T09:52:29.999Z</time></trkpt><trkpt lat="38.17701613811032" lon="15.71342914934885"><ele>229.0</ele><time>2026-04-28T09:52:30.999Z</time></trkpt><trkpt lat="38.17722463435308" lon="15.713273854298125"><ele>229.0</ele><time>2026-04-28T09:52:31.999Z</time></trkpt><trkpt lat="38.17742540825803" lon="15.713118955225625"><ele>230.33333333333331</ele><time>2026-04-28T09:52:32.999Z</time></trkpt><trkpt lat="38.17761638390352" lon="15.712970426804945"><ele>231.66666666666669</ele><time>2026-04-28T09:52:33.999Z</time></trkpt><trkpt lat="38.177802653484676" lon="15.712822193559315"><ele>233.0</ele><time>2026-04-28T09:52:34.999Z</time></trkpt><trkpt lat="38.177986851619025" lon="15.712661111913407"><ele>233.0</ele><time>2026-04-28T09:52:35.999Z</time></trkpt><trkpt lat="38.17817315504106" lon="15.712469055262211"><ele>233.0</ele><time>2026-04-28T09:52:36.999Z</time></trkpt><trkpt lat="38.17834927025688" lon="15.712251919095412"><ele>221.0</ele><time>2026-04-28T09:52:37.999Z</time></trkpt><trkpt lat="38.17851613940854" lon="15.712012850130021"><ele>209.0</ele><time>2026-04-28T09:52:38.999Z</time></trkpt><trkpt lat="38.178674609384714" lon="15.711757563666504"><ele>208.5</ele><time>2026-04-28T09:52:39.999Z</time></trkpt><trkpt lat="38.17882404286387" lon="15.71150941235177"><ele>208.0</ele><time>2026-04-28T09:52:40.999Z</time></trkpt><trkpt lat="38.1789684956885" lon="15.711273798763445"><ele>205.33333333333331</ele><time>2026-04-28T09:52:41.999Z</time></trkpt><trkpt lat="38.17910804208797" lon="15.711049530424713"><ele>202.66666666666669</ele><time>2026-04-28T09:52:42.999Z</time></trkpt><trkpt lat="38.179251085759674" lon="15.71082994277167"><ele>200.0</ele><time>2026-04-28T09:52:43.999Z</time></trkpt><trkpt lat="38.17939382764567" lon="15.710609880970525"><ele>200.0</ele><time>2026-04-28T09:52:44.999Z</time></trkpt><trkpt lat="38.17953393347972" lon="15.71038554510379"><ele>200.0</ele><time>2026-04-28T09:52:45.998Z</time></trkpt><trkpt lat="38.179674871893006" lon="15.710154340437665"><ele>199.0</ele><time>2026-04-28T09:52:46.998Z</time></trkpt><trkpt lat="38.17981549134944" lon="15.70992150363239"><ele>198.0</ele><time>2026-04-28T09:52:47.998Z</time></trkpt><trkpt lat="38.17995403005961" lon="15.709691759981572"><ele>198.0</ele><time>2026-04-28T09:52:48.998Z</time></trkpt><trkpt lat="38.18008287539445" lon="15.709450698393805"><ele>198.0</ele><time>2026-04-28T09:52:49.998Z</time></trkpt><trkpt lat="38.180198317531485" lon="15.709197492401715"><ele>203.0</ele><time>2026-04-28T09:52:50.998Z</time></trkpt><trkpt lat="38.18029434364953" lon="15.708935989715425"><ele>208.0</ele><time>2026-04-28T09:52:51.998Z</time></trkpt><trkpt lat="38.180373836630594" lon="15.708666574290744"><ele>207.0</ele><time>2026-04-28T09:52:52.998Z</time></trkpt><trkpt lat="38.18044032773556" lon="15.708381898019077"><ele>206.0</ele><time>2026-04-28T09:52:53.998Z</time></trkpt><trkpt lat="38.18050238205895" lon="15.708109951752744"><ele>206.0</ele><time>2026-04-28T09:52:54.998Z</time></trkpt><trkpt lat="38.18056333842101" lon="15.707837210957715"><ele>206.0</ele><time>2026-04-28T09:52:55.998Z</time></trkpt><trkpt lat="38.18062483500119" lon="15.707559731443054"><ele>206.0</ele><time>2026-04-28T09:52:56.998Z</time></trkpt><trkpt lat="38.18069167227363" lon="15.707282495240088"><ele>197.0</ele><time>2026-04-28T09:52:57.998Z</time></trkpt><trkpt lat="38.18076374379814" lon="15.706999074149381"><ele>188.0</ele><time>2026-04-28T09:52:58.998Z</time></trkpt><trkpt lat="38.18084310693624" lon="15.706709122153107"><ele>188.0</ele><time>2026-04-28T09:52:59.998Z</time></trkpt><trkpt lat="38.18092821103545" lon="15.70642331851939"><ele>188.0</ele><time>2026-04-28T09:53:00.998Z</time></trkpt><trkpt lat="38.181014248959" lon="15.706161625095314"><ele>190.0</ele><time>2026-04-28T09:53:01.998Z</time></trkpt><trkpt lat="38.18111051556759" lon="15.705904591171079"><ele>192.0</ele><time>2026-04-28T09:53:02.998Z</time></trkpt><trkpt lat="38.18121294121703" lon="15.705655230932171"><ele>194.0</ele><time>2026-04-28T09:53:03.998Z</time></trkpt><trkpt lat="38.18131630003814" lon="15.705407831788163"><ele>189.66666666666669</ele><time>2026-04-28T09:53:04.998Z</time></trkpt><trkpt lat="38.18141375770511" lon="15.705155620132926"><ele>185.33333333333334</ele><time>2026-04-28T09:53:05.998Z</time></trkpt><trkpt lat="38.18151196712622" lon="15.704903427346652"><ele>181.0</ele><time>2026-04-28T09:53:06.998Z</time></trkpt><trkpt lat="38.1816154707614" lon="15.704653879613721"><ele>187.5</ele><time>2026-04-28T09:53:07.998Z</time></trkpt><trkpt lat="38.1817266946288" lon="15.704402914680198"><ele>194.0</ele><time>2026-04-28T09:53:09Z</time></trkpt><trkpt lat="38.18184297847713" lon="15.70415216705365"><ele>194.0</ele><time>2026-04-28T09:53:10Z</time></trkpt><trkpt lat="38.181968173269205" lon="15.70390391717142"><ele>194.0</ele><time>2026-04-28T09:53:11Z</time></trkpt><trkpt lat="38.18209892189973" lon="15.70366328627825"><ele>187.5</ele><time>2026-04-28T09:53:12Z</time></trkpt><trkpt lat="38.18223398251435" lon="15.703429720279312"><ele>181.0</ele><time>2026-04-28T09:53:13Z</time></trkpt><trkpt lat="38.18236889352441" lon="15.703203489601652"><ele>181.0</ele><time>2026-04-28T09:53:14Z</time></trkpt><trkpt lat="38.18250754381168" lon="15.702985892300344"><ele>181.0</ele><time>2026-04-28T09:53:15Z</time></trkpt><trkpt lat="38.18264540001628" lon="15.702768868610796"><ele>181.0</ele><time>2026-04-28T09:53:16Z</time></trkpt><trkpt lat="38.18277964911848" lon="15.702549472276122"><ele>181.0</ele><time>2026-04-28T09:53:17Z</time></trkpt><trkpt lat="38.18291048960951" lon="15.702317795487668"><ele>181.0</ele><time>2026-04-28T09:53:18Z</time></trkpt><trkpt lat="38.183035094644055" lon="15.702077194044566"><ele>183.5</ele><time>2026-04-28T09:53:19Z</time></trkpt><trkpt lat="38.18315584377657" lon="15.701832278055644"><ele>186.0</ele><time>2026-04-28T09:53:20Z</time></trkpt><trkpt lat="38.183270692102745" lon="15.701579096891642"><ele>177.5</ele><time>2026-04-28T09:53:21Z</time></trkpt><trkpt lat="38.18337393788107" lon="15.701325573256916"><ele>169.0</ele><time>2026-04-28T09:53:22Z</time></trkpt><trkpt lat="38.18347557680957" lon="15.70106464884838"><ele>169.0</ele><time>2026-04-28T09:53:23Z</time></trkpt><trkpt lat="38.183580679959555" lon="15.700802591187376"><ele>169.0</ele><time>2026-04-28T09:53:24Z</time></trkpt><trkpt lat="38.18368721714984" lon="15.700542128021281"><ele>169.0</ele><time>2026-04-28T09:53:25Z</time></trkpt><trkpt lat="38.18379389604974" lon="15.700278447740487"><ele>169.0</ele><time>2026-04-28T09:53:26Z</time></trkpt><trkpt lat="38.183902864432255" lon="15.700008536458672"><ele>167.5</ele><time>2026-04-28T09:53:27Z</time></trkpt><trkpt lat="38.18401492721668" lon="15.699733598696417"><ele>166.0</ele><time>2026-04-28T09:53:27.999Z</time></trkpt><trkpt lat="38.184126711441024" lon="15.699458255297237"><ele>167.0</ele><time>2026-04-28T09:53:28.999Z</time></trkpt><trkpt lat="38.184238711733016" lon="15.699179461308368"><ele>168.0</ele><time>2026-04-28T09:53:29.999Z</time></trkpt><trkpt lat="38.18434977375162" lon="15.698898151068502"><ele>168.0</ele><time>2026-04-28T09:53:30.999Z</time></trkpt><trkpt lat="38.18446102502625" lon="15.69861730971332"><ele>168.0</ele><time>2026-04-28T09:53:31.999Z</time></trkpt><trkpt lat="38.18457269606232" lon="15.698337968692826"><ele>171.5</ele><time>2026-04-28T09:53:32.999Z</time></trkpt><trkpt lat="38.184685558829045" lon="15.698059318484681"><ele>175.0</ele><time>2026-04-28T09:53:33.999Z</time></trkpt><trkpt lat="38.18479759028667" lon="15.69778214155495"><ele>166.5</ele><time>2026-04-28T09:53:34.999Z</time></trkpt><trkpt lat="38.18490922704832" lon="15.697504877261215"><ele>158.0</ele><time>2026-04-28T09:53:35.999Z</time></trkpt><trkpt lat="38.18501981228098" lon="15.697229162676509"><ele>158.0</ele><time>2026-04-28T09:53:36.999Z</time></trkpt><trkpt lat="38.185129022357444" lon="15.696954370040414"><ele>158.0</ele><time>2026-04-28T09:53:37.999Z</time></trkpt><trkpt lat="38.18523608626366" lon="15.696685010581605"><ele>162.5</ele><time>2026-04-28T09:53:38.999Z</time></trkpt><trkpt lat="38.18534251886513" lon="15.69641688780521"><ele>167.0</ele><time>2026-04-28T09:53:39.999Z</time></trkpt><trkpt lat="38.18544899945474" lon="15.69615093671637"><ele>174.0</ele><time>2026-04-28T09:53:40.999Z</time></trkpt><trkpt lat="38.185550222597286" lon="15.695889097260567"><ele>181.0</ele><time>2026-04-28T09:53:41.999Z</time></trkpt><trkpt lat="38.18564819781362" lon="15.695631531827534"><ele>166.0</ele><time>2026-04-28T09:53:42.999Z</time></trkpt><trkpt lat="38.185737950314035" lon="15.695366833626082"><ele>151.0</ele><time>2026-04-28T09:53:43.999Z</time></trkpt><trkpt lat="38.185814667255634" lon="15.695080381181866"><ele>150.5</ele><time>2026-04-28T09:53:44.999Z</time></trkpt><trkpt lat="38.18588366718699" lon="15.694781011296143"><ele>150.0</ele><time>2026-04-28T09:53:45.999Z</time></trkpt><trkpt lat="38.18594530139546" lon="15.694478580041158"><ele>147.5</ele><time>2026-04-28T09:53:46.999Z</time></trkpt><trkpt lat="38.18599088154103" lon="15.694167998551308"><ele>145.0</ele><time>2026-04-28T09:53:47.999Z</time></trkpt><trkpt lat="38.186021325133616" lon="15.693845194434468"><ele>145.0</ele><time>2026-04-28T09:53:48.999Z</time></trkpt><trkpt lat="38.186039710986236" lon="15.693532169743778"><ele>145.0</ele><time>2026-04-28T09:53:49.999Z</time></trkpt><trkpt lat="38.18604503354989" lon="15.693239674451219"><ele>145.0</ele><time>2026-04-28T09:53:50.999Z</time></trkpt><trkpt lat="38.186038426112006" lon="15.692966097665126"><ele>145.0</ele><time>2026-04-28T09:53:51.999Z</time></trkpt><trkpt lat="38.186018646869115" lon="15.692699405126731"><ele>145.0</ele><time>2026-04-28T09:53:52.999Z</time></trkpt><trkpt lat="38.185984825163224" lon="15.692410390802397"><ele>144.66666666666669</ele><time>2026-04-28T09:53:53.999Z</time></trkpt><trkpt lat="38.18595617209682" lon="15.692127086655184"><ele>144.33333333333334</ele><time>2026-04-28T09:53:54.999Z</time></trkpt><trkpt lat="38.18593405721433" lon="15.691859511005278"><ele>144.0</ele><time>2026-04-28T09:53:55.999Z</time></trkpt><trkpt lat="38.1859142001963" lon="15.691594335378202"><ele>142.66666666666666</ele><time>2026-04-28T09:53:56.999Z</time></trkpt><trkpt lat="38.185891359758685" lon="15.691327743548523"><ele>141.33333333333331</ele><time>2026-04-28T09:53:57.999Z</time></trkpt><trkpt lat="38.18586378889338" lon="15.69105548804831"><ele>140.0</ele><time>2026-04-28T09:53:58.999Z</time></trkpt><trkpt lat="38.18583486870418" lon="15.690777034999742"><ele>139.33333333333331</ele><time>2026-04-28T09:53:59.999Z</time></trkpt><trkpt lat="38.18580812783684" lon="15.690498146761518"><ele>138.66666666666666</ele><time>2026-04-28T09:54:00.999Z</time></trkpt><trkpt lat="38.18578091030413" lon="15.6902243448005"><ele>138.0</ele><time>2026-04-28T09:54:01.999Z</time></trkpt><trkpt lat="38.18575967203528" lon="15.689943771136813"><ele>138.0</ele><time>2026-04-28T09:54:02.999Z</time></trkpt><trkpt lat="38.185751350690786" lon="15.689657086761418"><ele>138.0</ele><time>2026-04-28T09:54:03.999Z</time></trkpt><trkpt lat="38.185754834512984" lon="15.689363030839692"><ele>137.0</ele><time>2026-04-28T09:54:04.999Z</time></trkpt><trkpt lat="38.185769653166226" lon="15.689068620029774"><ele>136.0</ele><time>2026-04-28T09:54:05.999Z</time></trkpt><trkpt lat="38.185786051366264" lon="15.688772944425729"><ele>134.5</ele><time>2026-04-28T09:54:06.999Z</time></trkpt><trkpt lat="38.185801394130806" lon="15.688475349645431"><ele>133.0</ele><time>2026-04-28T09:54:07.999Z</time></trkpt><trkpt lat="38.185820831546586" lon="15.688177199271204"><ele>133.0</ele><time>2026-04-28T09:54:08.999Z</time></trkpt><trkpt lat="38.18584160249149" lon="15.687879431381514"><ele>133.0</ele><time>2026-04-28T09:54:09.999Z</time></trkpt><trkpt lat="38.185858828971725" lon="15.687581045890767"><ele>133.0</ele><time>2026-04-28T09:54:10.999Z</time></trkpt><trkpt lat="38.185872800774426" lon="15.687281601932298"><ele>133.0</ele><time>2026-04-28T09:54:11.999Z</time></trkpt><trkpt lat="38.185889244510854" lon="15.686979893553918"><ele>131.0</ele><time>2026-04-28T09:54:12.999Z</time></trkpt><trkpt lat="38.185899830076345" lon="15.686672933894954"><ele>129.0</ele><time>2026-04-28T09:54:13.999Z</time></trkpt><trkpt lat="38.185899772538285" lon="15.68636559047643"><ele>127.5</ele><time>2026-04-28T09:54:14.999Z</time></trkpt><trkpt lat="38.18589238747539" lon="15.686055227585802"><ele>126.0</ele><time>2026-04-28T09:54:15.999Z</time></trkpt><trkpt lat="38.185886825342614" lon="15.685742072315339"><ele>126.0</ele><time>2026-04-28T09:54:16.999Z</time></trkpt><trkpt lat="38.18588024974649" lon="15.685427019336428"><ele>126.0</ele><time>2026-04-28T09:54:17.999Z</time></trkpt><trkpt lat="38.18587365255292" lon="15.685112356499006"><ele>124.5</ele><time>2026-04-28T09:54:18.999Z</time></trkpt><trkpt lat="38.18586654787466" lon="15.684799309866307"><ele>123.0</ele><time>2026-04-28T09:54:19.999Z</time></trkpt><trkpt lat="38.185858636643374" lon="15.68448693094925"><ele>122.5</ele><time>2026-04-28T09:54:20.999Z</time></trkpt><trkpt lat="38.185850887107144" lon="15.684174025603124"><ele>122.0</ele><time>2026-04-28T09:54:21.999Z</time></trkpt><trkpt lat="38.18584255685779" lon="15.683859857409054"><ele>121.0</ele><time>2026-04-28T09:54:22.999Z</time></trkpt><trkpt lat="38.185835740375644" lon="15.683545183215326"><ele>120.0</ele><time>2026-04-28T09:54:23.999Z</time></trkpt><trkpt lat="38.18582962990505" lon="15.683231389991336"><ele>120.0</ele><time>2026-04-28T09:54:24.999Z</time></trkpt><trkpt lat="38.185822766819584" lon="15.682913827095192"><ele>120.0</ele><time>2026-04-28T09:54:25.999Z</time></trkpt><trkpt lat="38.18581564128002" lon="15.682594186617145"><ele>118.5</ele><time>2026-04-28T09:54:26.999Z</time></trkpt><trkpt lat="38.18580931263031" lon="15.682275543078587"><ele>117.0</ele><time>2026-04-28T09:54:27.999Z</time></trkpt><trkpt lat="38.18580284705975" lon="15.681956269616327"><ele>116.0</ele><time>2026-04-28T09:54:28.999Z</time></trkpt><trkpt lat="38.185795567927" lon="15.681636866899964"><ele>115.0</ele><time>2026-04-28T09:54:29.999Z</time></trkpt><trkpt lat="38.18578776734131" lon="15.68131504953609"><ele>115.0</ele><time>2026-04-28T09:54:30.999Z</time></trkpt><trkpt lat="38.18578033128287" lon="15.680994860518917"><ele>115.0</ele><time>2026-04-28T09:54:31.999Z</time></trkpt><trkpt lat="38.18577303800046" lon="15.680673789360402"><ele>115.0</ele><time>2026-04-28T09:54:32.999Z</time></trkpt><trkpt lat="38.185768570754426" lon="15.680351980949384"><ele>115.0</ele><time>2026-04-28T09:54:33.999Z</time></trkpt><trkpt lat="38.18576368561811" lon="15.68003081535036"><ele>115.0</ele><time>2026-04-28T09:54:34.999Z</time></trkpt><trkpt lat="38.1857548900876" lon="15.679711878735839"><ele>115.0</ele><time>2026-04-28T09:54:35.999Z</time></trkpt><trkpt lat="38.18574666408009" lon="15.67939550349048"><ele>113.5</ele><time>2026-04-28T09:54:36.999Z</time></trkpt><trkpt lat="38.18574105584759" lon="15.679086088626399"><ele>112.0</ele><time>2026-04-28T09:54:37.999Z</time></trkpt><trkpt lat="38.18573580849879" lon="15.6787831127642"><ele>109.5</ele><time>2026-04-28T09:54:38.999Z</time></trkpt><trkpt lat="38.185727090860496" lon="15.67848349540458"><ele>107.0</ele><time>2026-04-28T09:54:39.999Z</time></trkpt><trkpt lat="38.18571357398706" lon="15.678186299401048"><ele>107.0</ele><time>2026-04-28T09:54:40.999Z</time></trkpt><trkpt lat="38.185691889532286" lon="15.677886082686122"><ele>107.0</ele><time>2026-04-28T09:54:41.999Z</time></trkpt><trkpt lat="38.185660574252566" lon="15.677582915108227"><ele>106.5</ele><time>2026-04-28T09:54:42.999Z</time></trkpt><trkpt lat="38.18561945965468" lon="15.677287664339328"><ele>106.0</ele><time>2026-04-28T09:54:43.999Z</time></trkpt><trkpt lat="38.1855706215948" lon="15.676999756352892"><ele>105.0</ele><time>2026-04-28T09:54:44.999Z</time></trkpt><trkpt lat="38.185516462001516" lon="15.676719640261693"><ele>104.0</ele><time>2026-04-28T09:54:45.999Z</time></trkpt><trkpt lat="38.18545303619495" lon="15.676448634767574"><ele>103.0</ele><time>2026-04-28T09:54:46.999Z</time></trkpt><trkpt lat="38.18537748637999" lon="15.676178682795095"><ele>102.0</ele><time>2026-04-28T09:54:47.999Z</time></trkpt><trkpt lat="38.1852825338113" lon="15.675901220734463"><ele>101.0</ele><time>2026-04-28T09:54:48.998Z</time></trkpt><trkpt lat="38.18517103270172" lon="15.67561491158187"><ele>101.0</ele><time>2026-04-28T09:54:49.998Z</time></trkpt><trkpt lat="38.185048460194785" lon="15.675322680375961"><ele>101.0</ele><time>2026-04-28T09:54:50.998Z</time></trkpt><trkpt lat="38.18491182353132" lon="15.675030315106868"><ele>98.5</ele><time>2026-04-28T09:54:51.998Z</time></trkpt><trkpt lat="38.18476738974266" lon="15.674740336455505"><ele>96.0</ele><time>2026-04-28T09:54:52.998Z</time></trkpt><trkpt lat="38.184622067497095" lon="15.674455556269331"><ele>95.0</ele><time>2026-04-28T09:54:53.998Z</time></trkpt><trkpt lat="38.184476553247954" lon="15.674181215196455"><ele>94.0</ele><time>2026-04-28T09:54:54.998Z</time></trkpt><trkpt lat="38.18432804685535" lon="15.673906257100002"><ele>94.0</ele><time>2026-04-28T09:54:55.998Z</time></trkpt><trkpt lat="38.18418012936679" lon="15.673627923207587"><ele>94.0</ele><time>2026-04-28T09:54:56.998Z</time></trkpt><trkpt lat="38.184033750038935" lon="15.673350984096983"><ele>93.0</ele><time>2026-04-28T09:54:57.998Z</time></trkpt><trkpt lat="38.18388972557164" lon="15.673073622168236"><ele>92.0</ele><time>2026-04-28T09:54:58.998Z</time></trkpt><trkpt lat="38.18374649529573" lon="15.672797918079814"><ele>91.5</ele><time>2026-04-28T09:54:59.998Z</time></trkpt><trkpt lat="38.18360507413045" lon="15.672526539680868"><ele>91.0</ele><time>2026-04-28T09:55:00.998Z</time></trkpt><trkpt lat="38.183468521420764" lon="15.672267111756453"><ele>91.0</ele><time>2026-04-28T09:55:01.998Z</time></trkpt><trkpt lat="38.18333077590714" lon="15.672008773359167"><ele>91.0</ele><time>2026-04-28T09:55:02.998Z</time></trkpt><trkpt lat="38.18319365596647" lon="15.671757428587357"><ele>89.66666666666666</ele><time>2026-04-28T09:55:03.998Z</time></trkpt><trkpt lat="38.18306117824061" lon="15.671513648504929"><ele>88.33333333333333</ele><time>2026-04-28T09:55:04.998Z</time></trkpt><trkpt lat="38.18294183052966" lon="15.671286695738363"><ele>87.0</ele><time>2026-04-28T09:55:05.998Z</time></trkpt><trkpt lat="38.18283013788817" lon="15.67107132026834"><ele>87.0</ele><time>2026-04-28T09:55:06.998Z</time></trkpt><trkpt lat="38.182724919549166" lon="15.67087011843028"><ele>87.0</ele><time>2026-04-28T09:55:07.998Z</time></trkpt><trkpt lat="38.18262356176426" lon="15.670682019412236"><ele>87.0</ele><time>2026-04-28T09:55:08.998Z</time></trkpt><trkpt lat="38.18253296053429" lon="15.670505499610982"><ele>87.0</ele><time>2026-04-28T09:55:09.998Z</time></trkpt><trkpt lat="38.182454648359695" lon="15.670339285878802"><ele>87.0</ele><time>2026-04-28T09:55:10.998Z</time></trkpt><trkpt lat="38.18237932897916" lon="15.670180776202237"><ele>87.0</ele><time>2026-04-28T09:55:11.998Z</time></trkpt><trkpt lat="38.18230746063302" lon="15.67003133245987"><ele>87.0</ele><time>2026-04-28T09:55:12.998Z</time></trkpt><trkpt lat="38.18224487799365" lon="15.66988635997159"><ele>86.0</ele><time>2026-04-28T09:55:13.998Z</time></trkpt><trkpt lat="38.182197323644814" lon="15.66976647144701"><ele>85.0</ele><time>2026-04-28T09:55:15Z</time></trkpt><trkpt lat="38.18214680530828" lon="15.669638078737849"><ele>84.0</ele><time>2026-04-28T09:55:16Z</time></trkpt><trkpt lat="38.18209284426275" lon="15.669508029790913"><ele>83.0</ele><time>2026-04-28T09:55:17Z</time></trkpt><trkpt lat="38.182044427431414" lon="15.66937382013299"><ele>82.66666666666667</ele><time>2026-04-28T09:55:18Z</time></trkpt><trkpt lat="38.181968551396174" lon="15.669220041955418"><ele>82.33333333333333</ele><time>2026-04-28T09:55:19Z</time></trkpt><trkpt lat="38.18185983283566" lon="15.669050098054887"><ele>82.0</ele><time>2026-04-28T09:55:20Z</time></trkpt><trkpt lat="38.181747480469596" lon="15.668854694267003"><ele>82.0</ele><time>2026-04-28T09:55:21Z</time></trkpt><trkpt lat="38.18163581860353" lon="15.66863974632426"><ele>82.0</ele><time>2026-04-28T09:55:22Z</time></trkpt><trkpt lat="38.181519226213716" lon="15.668416720148594"><ele>82.0</ele><time>2026-04-28T09:55:23Z</time></trkpt><trkpt lat="38.18140009892146" lon="15.668189990419691"><ele>80.66666666666666</ele><time>2026-04-28T09:55:24Z</time></trkpt><trkpt lat="38.1812766010324" lon="15.66795567921833"><ele>79.33333333333333</ele><time>2026-04-28T09:55:25Z</time></trkpt><trkpt lat="38.18115021298553" lon="15.667716757560271"><ele>78.0</ele><time>2026-04-28T09:55:26Z</time></trkpt><trkpt lat="38.18102273913702" lon="15.667473352058206"><ele>77.0</ele><time>2026-04-28T09:55:27Z</time></trkpt><trkpt lat="38.18091032365983" lon="15.66720789996766"><ele>76.0</ele><time>2026-04-28T09:55:28Z</time></trkpt><trkpt lat="38.18077936399806" lon="15.666944612629049"><ele>74.5</ele><time>2026-04-28T09:55:29Z</time></trkpt><trkpt lat="38.18064292187338" lon="15.666670303095687"><ele>73.0</ele><time>2026-04-28T09:55:30Z</time></trkpt><trkpt lat="38.1804986059475" lon="15.666379011769218"><ele>73.5</ele><time>2026-04-28T09:55:31Z</time></trkpt><trkpt lat="38.18034815643186" lon="15.666075326692424"><ele>74.0</ele><time>2026-04-28T09:55:32Z</time></trkpt><trkpt lat="38.18019189679189" lon="15.665764129349713"><ele>74.0</ele><time>2026-04-28T09:55:32.999Z</time></trkpt><trkpt lat="38.18000636908058" lon="15.665463554491911"><ele>74.0</ele><time>2026-04-28T09:55:33.999Z</time></trkpt><trkpt lat="38.179862106633124" lon="15.66516309333145"><ele>71.0</ele><time>2026-04-28T09:55:34.999Z</time></trkpt><trkpt lat="38.17971952850351" lon="15.66486270092098"><ele>68.0</ele><time>2026-04-28T09:55:35.999Z</time></trkpt><trkpt lat="38.17957574354509" lon="15.664566554899993"><ele>68.0</ele><time>2026-04-28T09:55:36.999Z</time></trkpt><trkpt lat="38.17942920940549" lon="15.664271591771184"><ele>68.0</ele><time>2026-04-28T09:55:37.999Z</time></trkpt><trkpt lat="38.179278126315715" lon="15.663977985052545"><ele>68.0</ele><time>2026-04-28T09:55:38.999Z</time></trkpt><trkpt lat="38.17912404184233" lon="15.663688666374505"><ele>68.0</ele><time>2026-04-28T09:55:39.999Z</time></trkpt><trkpt lat="38.17896482594157" lon="15.663407031601572"><ele>68.0</ele><time>2026-04-28T09:55:40.999Z</time></trkpt><trkpt lat="38.17879812007659" lon="15.663128819853938"><ele>68.0</ele><time>2026-04-28T09:55:41.999Z</time></trkpt><trkpt lat="38.178625063696735" lon="15.662849056493217"><ele>66.5</ele><time>2026-04-28T09:55:42.999Z</time></trkpt><trkpt lat="38.1784433076864" lon="15.662566783999791"><ele>65.0</ele><time>2026-04-28T09:55:43.999Z</time></trkpt><trkpt lat="38.178255958081905" lon="15.66228543448798"><ele>62.5</ele><time>2026-04-28T09:55:44.999Z</time></trkpt><trkpt lat="38.17806661352577" lon="15.662005072716644"><ele>60.0</ele><time>2026-04-28T09:55:45.999Z</time></trkpt><trkpt lat="38.177878616792206" lon="15.661723884533894"><ele>59.0</ele><time>2026-04-28T09:55:46.999Z</time></trkpt><trkpt lat="38.177689442032005" lon="15.66144197594245"><ele>58.0</ele><time>2026-04-28T09:55:47.999Z</time></trkpt><trkpt lat="38.177502147309106" lon="15.661162024347977"><ele>57.0</ele><time>2026-04-28T09:55:48.999Z</time></trkpt><trkpt lat="38.177321473541966" lon="15.660891975966548"><ele>56.0</ele><time>2026-04-28T09:55:49.999Z</time></trkpt><trkpt lat="38.17713977450317" lon="15.66062415542202"><ele>56.0</ele><time>2026-04-28T09:55:50.999Z</time></trkpt><trkpt lat="38.17696059660615" lon="15.66036245917329"><ele>56.0</ele><time>2026-04-28T09:55:51.999Z</time></trkpt><trkpt lat="38.17678518533981" lon="15.66010293828461"><ele>55.0</ele><time>2026-04-28T09:55:52.999Z</time></trkpt><trkpt lat="38.17661189123545" lon="15.659849734027484"><ele>54.0</ele><time>2026-04-28T09:55:53.999Z</time></trkpt><trkpt lat="38.17644578984122" lon="15.65959768479683"><ele>52.0</ele><time>2026-04-28T09:55:54.999Z</time></trkpt><trkpt lat="38.1762844186437" lon="15.659347146113591"><ele>50.0</ele><time>2026-04-28T09:55:55.999Z</time></trkpt><trkpt lat="38.176122638032155" lon="15.659106455639465"><ele>50.0</ele><time>2026-04-28T09:55:56.999Z</time></trkpt><trkpt lat="38.175969005717235" lon="15.658885593290345"><ele>50.0</ele><time>2026-04-28T09:55:57.999Z</time></trkpt><trkpt lat="38.1758266536593" lon="15.658677215104479"><ele>50.0</ele><time>2026-04-28T09:55:58.999Z</time></trkpt><trkpt lat="38.17569044053197" lon="15.658480447159517"><ele>49.0</ele><time>2026-04-28T09:55:59.999Z</time></trkpt><trkpt lat="38.175544905552975" lon="15.65828744173553"><ele>48.0</ele><time>2026-04-28T09:56:00.999Z</time></trkpt><trkpt lat="38.175378167847235" lon="15.65810462365261"><ele>47.0</ele><time>2026-04-28T09:56:01.999Z</time></trkpt><trkpt lat="38.17520312207723" lon="15.657923883985495"><ele>46.5</ele><time>2026-04-28T09:56:02.999Z</time></trkpt><trkpt lat="38.175015595175616" lon="15.657755658777168"><ele>46.0</ele><time>2026-04-28T09:56:03.999Z</time></trkpt><trkpt lat="38.17481721011019" lon="15.657609117870111"><ele>44.5</ele><time>2026-04-28T09:56:04.999Z</time></trkpt><trkpt lat="38.17460669072463" lon="15.657480481783315"><ele>43.0</ele><time>2026-04-28T09:56:05.999Z</time></trkpt><trkpt lat="38.17437869040551" lon="15.657364280539277"><ele>43.0</ele><time>2026-04-28T09:56:06.999Z</time></trkpt><trkpt lat="38.17414033480446" lon="15.657265978896298"><ele>43.0</ele><time>2026-04-28T09:56:07.999Z</time></trkpt><trkpt lat="38.173897896224915" lon="15.65717728963492"><ele>42.5</ele><time>2026-04-28T09:56:08.999Z</time></trkpt><trkpt lat="38.17366733163838" lon="15.657097986258663"><ele>42.0</ele><time>2026-04-28T09:56:09.999Z</time></trkpt><trkpt lat="38.17345216978041" lon="15.657021521395976"><ele>41.0</ele><time>2026-04-28T09:56:10.999Z</time></trkpt><trkpt lat="38.173250437220936" lon="15.656948575806858"><ele>40.0</ele><time>2026-04-28T09:56:11.999Z</time></trkpt><trkpt lat="38.173055508151506" lon="15.656880761289433"><ele>39.0</ele><time>2026-04-28T09:56:12.999Z</time></trkpt><trkpt lat="38.17288398359316" lon="15.656820099582921"><ele>38.333333333333336</ele><time>2026-04-28T09:56:13.999Z</time></trkpt><trkpt lat="38.17272835065268" lon="15.656763445590922"><ele>37.66666666666667</ele><time>2026-04-28T09:56:14.999Z</time></trkpt><trkpt lat="38.17258546278387" lon="15.656713229351901"><ele>37.0</ele><time>2026-04-28T09:56:15.999Z</time></trkpt><trkpt lat="38.17244319020762" lon="15.65666391505515"><ele>36.333333333333336</ele><time>2026-04-28T09:56:16.999Z</time></trkpt><trkpt lat="38.172300048455185" lon="15.656603094110318"><ele>35.666666666666664</ele><time>2026-04-28T09:56:17.999Z</time></trkpt><trkpt lat="38.172149124063495" lon="15.6565080227083"><ele>35.0</ele><time>2026-04-28T09:56:18.999Z</time></trkpt><trkpt lat="38.17198954104909" lon="15.656392949387822"><ele>35.0</ele><time>2026-04-28T09:56:19.999Z</time></trkpt><trkpt lat="38.17183382995486" lon="15.656249601418821"><ele>35.0</ele><time>2026-04-28T09:56:20.999Z</time></trkpt><trkpt lat="38.171695710320115" lon="15.656081665379176"><ele>35.0</ele><time>2026-04-28T09:56:21.999Z</time></trkpt><trkpt lat="38.171575243414416" lon="15.65591423228586"><ele>35.0</ele><time>2026-04-28T09:56:22.999Z</time></trkpt><trkpt lat="38.17146877410856" lon="15.655740346742293"><ele>35.0</ele><time>2026-04-28T09:56:23.999Z</time></trkpt><trkpt lat="38.171379691314186" lon="15.655552480759319"><ele>35.0</ele><time>2026-04-28T09:56:24.999Z</time></trkpt><trkpt lat="38.17130875714283" lon="15.65535799491994"><ele>34.0</ele><time>2026-04-28T09:56:25.999Z</time></trkpt><trkpt lat="38.17126616461397" lon="15.655157028265435"><ele>33.0</ele><time>2026-04-28T09:56:26.999Z</time></trkpt><trkpt lat="38.17120565692591" lon="15.654938804399226"><ele>32.0</ele><time>2026-04-28T09:56:27.999Z</time></trkpt><trkpt lat="38.17114107504306" lon="15.65469860348601"><ele>32.0</ele><time>2026-04-28T09:56:28.999Z</time></trkpt><trkpt lat="38.17106694536952" lon="15.654474974070563"><ele>32.0</ele><time>2026-04-28T09:56:29.999Z</time></trkpt><trkpt lat="38.17101346561501" lon="15.654267870983524"><ele>32.0</ele><time>2026-04-28T09:56:30.999Z</time></trkpt><trkpt lat="38.17096025200732" lon="15.654076144370404"><ele>31.25</ele><time>2026-04-28T09:56:31.999Z</time></trkpt><trkpt lat="38.17091045762246" lon="15.653895761352542"><ele>30.5</ele><time>2026-04-28T09:56:32.999Z</time></trkpt><trkpt lat="38.170879313832515" lon="15.65371758094952"><ele>29.75</ele><time>2026-04-28T09:56:33.999Z</time></trkpt><trkpt lat="38.17083900112529" lon="15.653566520425931"><ele>29.0</ele><time>2026-04-28T09:56:34.999Z</time></trkpt><trkpt lat="38.17080361531499" lon="15.653422919453165"><ele>28.75</ele><time>2026-04-28T09:56:35.999Z</time></trkpt><trkpt lat="38.17076960080406" lon="15.653284151934624"><ele>28.5</ele><time>2026-04-28T09:56:36.999Z</time></trkpt><trkpt lat="38.170740193452346" lon="15.653149554199947"><ele>28.25</ele><time>2026-04-28T09:56:37.999Z</time></trkpt><trkpt lat="38.170702845143424" lon="15.653012401721277"><ele>28.0</ele><time>2026-04-28T09:56:38.999Z</time></trkpt><trkpt lat="38.1706894040373" lon="15.652866140135627"><ele>27.666666666666668</ele><time>2026-04-28T09:56:39.999Z</time></trkpt><trkpt lat="38.17067765167715" lon="15.652733764244571"><ele>27.333333333333336</ele><time>2026-04-28T09:56:40.999Z</time></trkpt><trkpt lat="38.17069189116122" lon="15.652616840703562"><ele>27.0</ele><time>2026-04-28T09:56:41.999Z</time></trkpt><trkpt lat="38.170691397926305" lon="15.652514938090237"><ele>26.666666666666664</ele><time>2026-04-28T09:56:42.999Z</time></trkpt><trkpt lat="38.17069339819322" lon="15.652419658962767"><ele>26.333333333333332</ele><time>2026-04-28T09:56:43.999Z</time></trkpt><trkpt lat="38.17068629910618" lon="15.65232104225272"><ele>26.0</ele><time>2026-04-28T09:56:44.999Z</time></trkpt><trkpt lat="38.170706677386136" lon="15.65222284729801"><ele>25.999999999999996</ele><time>2026-04-28T09:56:45.999Z</time></trkpt><trkpt lat="38.17073671279992" lon="15.652136648023914"><ele>26.0</ele><time>2026-04-28T09:56:46.999Z</time></trkpt><trkpt lat="38.170774898001376" lon="15.6520718923825"><ele>26.0</ele><time>2026-04-28T09:56:47.999Z</time></trkpt><trkpt lat="38.17081779141246" lon="15.652011705894322"><ele>26.0</ele><time>2026-04-28T09:56:49.999Z</time></trkpt><trkpt lat="38.17088070842735" lon="15.65189950992532"><ele>25.999999999999996</ele><time>2026-04-28T09:56:51.999Z</time></trkpt><trkpt lat="38.17095627798663" lon="15.651791996488825"><ele>26.0</ele><time>2026-04-28T09:56:52.999Z</time></trkpt><trkpt lat="38.171004922162794" lon="15.651671512321942"><ele>25.833333333333332</ele><time>2026-04-28T09:56:53.999Z</time></trkpt><trkpt lat="38.17104575674242" lon="15.651563789144582"><ele>25.666666666666664</ele><time>2026-04-28T09:56:54.999Z</time></trkpt><trkpt lat="38.171084272790026" lon="15.651459659653804"><ele>25.5</ele><time>2026-04-28T09:56:55.998Z</time></trkpt><trkpt lat="38.171120690368916" lon="15.651360506957538"><ele>25.333333333333336</ele><time>2026-04-28T09:56:56.998Z</time></trkpt><trkpt lat="38.17115482722952" lon="15.65126998415885"><ele>25.166666666666668</ele><time>2026-04-28T09:56:57.998Z</time></trkpt><trkpt lat="38.17120403227998" lon="15.651184406721626"><ele>25.0</ele><time>2026-04-28T09:56:58.998Z</time></trkpt><trkpt lat="38.17127144547133" lon="15.651112093803041"><ele>24.666666666666668</ele><time>2026-04-28T09:56:59.998Z</time></trkpt><trkpt lat="38.17135478425611" lon="15.65107612700571"><ele>24.333333333333336</ele><time>2026-04-28T09:57:00.998Z</time></trkpt><trkpt lat="38.171433663157245" lon="15.651052543394306"><ele>24.0</ele><time>2026-04-28T09:57:01.998Z</time></trkpt><trkpt lat="38.171511228662396" lon="15.651044467016485"><ele>23.666666666666668</ele><time>2026-04-28T09:57:02.998Z</time></trkpt><trkpt lat="38.171603668444696" lon="15.65106143259342"><ele>23.333333333333336</ele><time>2026-04-28T09:57:03.998Z</time></trkpt><trkpt lat="38.17170344275484" lon="15.65108248665309"><ele>23.0</ele><time>2026-04-28T09:57:04.998Z</time></trkpt><trkpt lat="38.171809748079205" lon="15.651107040082804"><ele>24.25</ele><time>2026-04-28T09:57:05.998Z</time></trkpt><trkpt lat="38.17192424957164" lon="15.651132483394438"><ele>25.5</ele><time>2026-04-28T09:57:06.998Z</time></trkpt><trkpt lat="38.17204109590402" lon="15.65115553108416"><ele>26.75</ele><time>2026-04-28T09:57:07.998Z</time></trkpt><trkpt lat="38.172162574239344" lon="15.651187177735771"><ele>28.0</ele><time>2026-04-28T09:57:08.998Z</time></trkpt><trkpt lat="38.17228461074253" lon="15.651210754572302"><ele>28.0</ele><time>2026-04-28T09:57:09.998Z</time></trkpt><trkpt lat="38.172408149782434" lon="15.651215108073302"><ele>28.0</ele><time>2026-04-28T09:57:10.998Z</time></trkpt><trkpt lat="38.172537847405465" lon="15.651191716429377"><ele>28.0</ele><time>2026-04-28T09:57:11.998Z</time></trkpt><trkpt lat="38.17267427840493" lon="15.651134041179702"><ele>28.0</ele><time>2026-04-28T09:57:12.998Z</time></trkpt><trkpt lat="38.17281697659667" lon="15.651037850632019"><ele>28.0</ele><time>2026-04-28T09:57:13.998Z</time></trkpt><trkpt lat="38.17294694812532" lon="15.650941066730676"><ele>28.0</ele><time>2026-04-28T09:57:14.998Z</time></trkpt><trkpt lat="38.17307419466649" lon="15.6508375580461"><ele>28.0</ele><time>2026-04-28T09:57:15.998Z</time></trkpt><trkpt lat="38.17319918930635" lon="15.65072970110054"><ele>28.25</ele><time>2026-04-28T09:57:16.998Z</time></trkpt><trkpt lat="38.17331496105321" lon="15.650644687564034"><ele>28.5</ele><time>2026-04-28T09:57:17.998Z</time></trkpt><trkpt lat="38.17342421636029" lon="15.650563107305702"><ele>28.75</ele><time>2026-04-28T09:57:18.998Z</time></trkpt><trkpt lat="38.173524501461394" lon="15.650486007069988"><ele>29.0</ele><time>2026-04-28T09:57:19.998Z</time></trkpt><trkpt lat="38.17361867658004" lon="15.65041372499187"><ele>29.0</ele><time>2026-04-28T09:57:21Z</time></trkpt><trkpt lat="38.17370949588098" lon="15.650346467915407"><ele>29.0</ele><time>2026-04-28T09:57:22Z</time></trkpt><trkpt lat="38.173797049048325" lon="15.650285997571537"><ele>29.0</ele><time>2026-04-28T09:57:23Z</time></trkpt><trkpt lat="38.17388355600482" lon="15.65021652024031"><ele>29.0</ele><time>2026-04-28T09:57:24Z</time></trkpt><trkpt lat="38.173974233993434" lon="15.65014061075828"><ele>29.0</ele><time>2026-04-28T09:57:25Z</time></trkpt><trkpt lat="38.174071136809424" lon="15.650075192723692"><ele>29.75</ele><time>2026-04-28T09:57:26Z</time></trkpt><trkpt lat="38.17417271083039" lon="15.65001216228815"><ele>30.5</ele><time>2026-04-28T09:57:27Z</time></trkpt><trkpt lat="38.17428220060938" lon="15.649958415776368"><ele>31.25</ele><time>2026-04-28T09:57:28Z</time></trkpt><trkpt lat="38.17438603589696" lon="15.64990138433823"><ele>32.0</ele><time>2026-04-28T09:57:29Z</time></trkpt><trkpt lat="38.17450566494194" lon="15.649877394287675"><ele>32.0</ele><time>2026-04-28T09:57:30Z</time></trkpt><trkpt lat="38.17466134701234" lon="15.649833880958985"><ele>32.0</ele><time>2026-04-28T09:57:31Z</time></trkpt><trkpt lat="38.17484912635129" lon="15.649794152285887"><ele>32.0</ele><time>2026-04-28T09:57:32Z</time></trkpt><trkpt lat="38.175066688944675" lon="15.649770210596031"><ele>31.5</ele><time>2026-04-28T09:57:33Z</time></trkpt><trkpt lat="38.17529891648573" lon="15.649756049117396"><ele>31.0</ele><time>2026-04-28T09:57:34Z</time></trkpt><trkpt lat="38.175543282194354" lon="15.649699071117368"><ele>31.0</ele><time>2026-04-28T09:57:35Z</time></trkpt><trkpt lat="38.1757900755677" lon="15.649648333805066"><ele>31.0</ele><time>2026-04-28T09:57:36Z</time></trkpt><trkpt lat="38.17600173472781" lon="15.649597596831178"><ele>31.0</ele><time>2026-04-28T09:57:37Z</time></trkpt><trkpt lat="38.176191357906475" lon="15.649558322289504"><ele>31.0</ele><time>2026-04-28T09:57:38Z</time></trkpt><trkpt lat="38.17635376494912" lon="15.649520335666594"><ele>31.0</ele><time>2026-04-28T09:57:38.999Z</time></trkpt><trkpt lat="38.176537429954756" lon="15.649466116897642"><ele>28.0</ele><time>2026-04-28T09:57:39.999Z</time></trkpt><trkpt lat="38.176693246974764" lon="15.649339758630935"><ele>25.0</ele><time>2026-04-28T09:57:40.999Z</time></trkpt><trkpt lat="38.176851798521525" lon="15.64923539529137"><ele>22.0</ele><time>2026-04-28T09:57:41.999Z</time></trkpt><trkpt lat="38.177016988987354" lon="15.649155790401965"><ele>22.0</ele><time>2026-04-28T09:57:42.999Z</time></trkpt><trkpt lat="38.17716776925514" lon="15.649094389383114"><ele>22.0</ele><time>2026-04-28T09:57:43.999Z</time></trkpt><trkpt lat="38.177305491269074" lon="15.649041517152927"><ele>22.0</ele><time>2026-04-28T09:57:44.999Z</time></trkpt><trkpt lat="38.17743284737966" lon="15.648981564464496"><ele>22.0</ele><time>2026-04-28T09:57:45.999Z</time></trkpt><trkpt lat="38.1775593814879" lon="15.648921803216556"><ele>23.0</ele><time>2026-04-28T09:57:46.999Z</time></trkpt><trkpt lat="38.17770807822414" lon="15.648854880542528"><ele>24.0</ele><time>2026-04-28T09:57:47.999Z</time></trkpt><trkpt lat="38.17787499313343" lon="15.648797585474684"><ele>25.0</ele><time>2026-04-28T09:57:48.999Z</time></trkpt><trkpt lat="38.17805308689117" lon="15.648740686531667"><ele>24.666666666666668</ele><time>2026-04-28T09:57:49.999Z</time></trkpt><trkpt lat="38.17821057955067" lon="15.648690524340607"><ele>24.333333333333336</ele><time>2026-04-28T09:57:50.999Z</time></trkpt><trkpt lat="38.17836717284306" lon="15.648635803145794"><ele>24.0</ele><time>2026-04-28T09:57:51.999Z</time></trkpt><trkpt lat="38.17851328766908" lon="15.648576597429448"><ele>24.0</ele><time>2026-04-28T09:57:52.999Z</time></trkpt><trkpt lat="38.1786572898359" lon="15.648525317332583"><ele>24.0</ele><time>2026-04-28T09:57:53.999Z</time></trkpt><trkpt lat="38.17878979721555" lon="15.648469041625082"><ele>24.0</ele><time>2026-04-28T09:57:54.999Z</time></trkpt><trkpt lat="38.17891294054584" lon="15.648414375195426"><ele>24.0</ele><time>2026-04-28T09:57:55.999Z</time></trkpt><trkpt lat="38.1790210471445" lon="15.648367292511383"><ele>23.75</ele><time>2026-04-28T09:57:56.999Z</time></trkpt><trkpt lat="38.17915499955934" lon="15.648330435326852"><ele>23.5</ele><time>2026-04-28T09:57:57.999Z</time></trkpt><trkpt lat="38.179279390439916" lon="15.648278293175471"><ele>23.25</ele><time>2026-04-28T09:57:58.999Z</time></trkpt><trkpt lat="38.179394968429655" lon="15.648240449473152"><ele>23.0</ele><time>2026-04-28T09:57:59.999Z</time></trkpt><trkpt lat="38.17952999447181" lon="15.648134477790123"><ele>23.0</ele><time>2026-04-28T09:58:00.999Z</time></trkpt><trkpt lat="38.1797010501285" lon="15.648096282282888"><ele>23.0</ele><time>2026-04-28T09:58:01.999Z</time></trkpt><trkpt lat="38.1798848292142" lon="15.648044372015748"><ele>23.0</ele><time>2026-04-28T09:58:02.999Z</time></trkpt><trkpt lat="38.18005090932125" lon="15.64798621880047"><ele>22.333333333333336</ele><time>2026-04-28T09:58:03.999Z</time></trkpt><trkpt lat="38.18019414752224" lon="15.647917940000934"><ele>21.666666666666668</ele><time>2026-04-28T09:58:04.999Z</time></trkpt><trkpt lat="38.18033941272812" lon="15.64784258496255"><ele>21.0</ele><time>2026-04-28T09:58:05.999Z</time></trkpt><trkpt lat="38.180490532271854" lon="15.647772617948414"><ele>21.0</ele><time>2026-04-28T09:58:06.999Z</time></trkpt><trkpt lat="38.18064785801537" lon="15.647695749912504"><ele>21.0</ele><time>2026-04-28T09:58:07.999Z</time></trkpt><trkpt lat="38.18078435659946" lon="15.64762775931746"><ele>21.0</ele><time>2026-04-28T09:58:08.999Z</time></trkpt><trkpt lat="38.18090340098726" lon="15.6475639983878"><ele>21.0</ele><time>2026-04-28T09:58:09.999Z</time></trkpt><trkpt lat="38.18101272006943" lon="15.647498742510063"><ele>23.0</ele><time>2026-04-28T09:58:10.999Z</time></trkpt><trkpt lat="38.18114222076479" lon="15.64742650567222"><ele>25.0</ele><time>2026-04-28T09:58:11.999Z</time></trkpt><trkpt lat="38.181303689168026" lon="15.647341460532822"><ele>27.0</ele><time>2026-04-28T09:58:12.999Z</time></trkpt><trkpt lat="38.181465054715815" lon="15.647254555301146"><ele>27.25</ele><time>2026-04-28T09:58:13.999Z</time></trkpt><trkpt lat="38.181611450658735" lon="15.647175471898604"><ele>27.5</ele><time>2026-04-28T09:58:14.999Z</time></trkpt><trkpt lat="38.181742527415786" lon="15.647109960502046"><ele>27.75</ele><time>2026-04-28T09:58:15.999Z</time></trkpt><trkpt lat="38.181861578362124" lon="15.647027494493651"><ele>28.0</ele><time>2026-04-28T09:58:16.999Z</time></trkpt><trkpt lat="38.18198262370579" lon="15.646963027555351"><ele>27.599999999999998</ele><time>2026-04-28T09:58:17.999Z</time></trkpt><trkpt lat="38.182092554015895" lon="15.646908333845618"><ele>27.199999999999996</ele><time>2026-04-28T09:58:18.999Z</time></trkpt><trkpt lat="38.182182204242004" lon="15.646844657874878"><ele>26.8</ele><time>2026-04-28T09:58:19.999Z</time></trkpt><trkpt lat="38.182264185398935" lon="15.646812465512108"><ele>26.4</ele><time>2026-04-28T09:58:20.999Z</time></trkpt><trkpt lat="38.182340208532146" lon="15.646760625893702"><ele>26.0</ele><time>2026-04-28T09:58:21.999Z</time></trkpt><trkpt lat="38.182438151377276" lon="15.646681912707601"><ele>26.0</ele><time>2026-04-28T09:58:22.999Z</time></trkpt><trkpt lat="38.18253508822762" lon="15.646594008926654"><ele>26.0</ele><time>2026-04-28T09:58:23.999Z</time></trkpt><trkpt lat="38.18262198657518" lon="15.64649774625936"><ele>26.0</ele><time>2026-04-28T09:58:24.999Z</time></trkpt><trkpt lat="38.18271782087116" lon="15.64639151210342"><ele>26.0</ele><time>2026-04-28T09:58:25.999Z</time></trkpt><trkpt lat="38.18281193646809" lon="15.646288536913703"><ele>26.0</ele><time>2026-04-28T09:58:26.999Z</time></trkpt><trkpt lat="38.182893333625515" lon="15.646200539984166"><ele>26.0</ele><time>2026-04-28T09:58:27.999Z</time></trkpt><trkpt lat="38.18296414646688" lon="15.646124102957161"><ele>26.0</ele><time>2026-04-28T09:58:28.999Z</time></trkpt><trkpt lat="38.18305885848622" lon="15.646023700700459"><ele>26.0</ele><time>2026-04-28T09:58:30.999Z</time></trkpt><trkpt lat="38.183154169156914" lon="15.645925060533255"><ele>26.0</ele><time>2026-04-28T09:58:32.999Z</time></trkpt><trkpt lat="38.183227459643504" lon="15.645848645245522"><ele>25.75</ele><time>2026-04-28T09:58:34.999Z</time></trkpt><trkpt lat="38.183295829123466" lon="15.645775542878601"><ele>25.5</ele><time>2026-04-28T09:58:36.999Z</time></trkpt><trkpt lat="38.18338258561147" lon="15.645688640914646"><ele>25.25</ele><time>2026-04-28T09:58:38.999Z</time></trkpt><trkpt lat="38.18348041656119" lon="15.645610037068964"><ele>25.0</ele><time>2026-04-28T09:58:40.999Z</time></trkpt><trkpt lat="38.18360716741915" lon="15.645544253904928"><ele>25.0</ele><time>2026-04-28T09:58:42.999Z</time></trkpt><trkpt lat="38.18367784094073" lon="15.645505370476048"><ele>25.0</ele><time>2026-04-28T09:58:43.999Z</time></trkpt><trkpt lat="38.18373955250548" lon="15.645472534658577"><ele>25.0</ele><time>2026-04-28T09:58:44.999Z</time></trkpt><trkpt lat="38.183835927779086" lon="15.645422353248755"><ele>25.0</ele><time>2026-04-28T09:58:46.999Z</time></trkpt><trkpt lat="38.18393569451522" lon="15.645371981572104"><ele>25.0</ele><time>2026-04-28T09:58:48.999Z</time></trkpt><trkpt lat="38.18402514804202" lon="15.645327230742543"><ele>23.6</ele><time>2026-04-28T09:58:50.999Z</time></trkpt><trkpt lat="38.184096598635115" lon="15.645235755104844"><ele>22.2</ele><time>2026-04-28T09:58:52.999Z</time></trkpt><trkpt lat="38.18416095520831" lon="15.645259290630642"><ele>20.8</ele><time>2026-04-28T09:58:53.999Z</time></trkpt><trkpt lat="38.184245212902226" lon="15.645217139113969"><ele>19.4</ele><time>2026-04-28T09:58:55.999Z</time></trkpt><trkpt lat="38.184357989406195" lon="15.645160720553925"><ele>18.0</ele><time>2026-04-28T09:58:57.999Z</time></trkpt><trkpt lat="38.18442768077444" lon="15.645125745754296"><ele>18.0</ele><time>2026-04-28T09:58:58.999Z</time></trkpt><trkpt lat="38.18451061561406" lon="15.645083460661171"><ele>18.0</ele><time>2026-04-28T09:59:03.998Z</time></trkpt><trkpt lat="38.184573674406764" lon="15.645051309544987"><ele>18.0</ele><time>2026-04-28T09:59:05.998Z</time></trkpt><trkpt lat="38.184645064109326" lon="15.645015189433"><ele>18.0</ele><time>2026-04-28T09:59:07.998Z</time></trkpt><trkpt lat="38.184721824210364" lon="15.644977394478186"><ele>18.0</ele><time>2026-04-28T09:59:08.998Z</time></trkpt><trkpt lat="38.1848458566734" lon="15.64491632372626"><ele>18.0</ele><time>2026-04-28T09:59:09.998Z</time></trkpt><trkpt lat="38.185004141020094" lon="15.644838024326381"><ele>17.75</ele><time>2026-04-28T09:59:10.998Z</time></trkpt><trkpt lat="38.18513809430891" lon="15.644769727010782"><ele>17.5</ele><time>2026-04-28T09:59:11.998Z</time></trkpt><trkpt lat="38.185240585509426" lon="15.644660729390328"><ele>17.25</ele><time>2026-04-28T09:59:12.998Z</time></trkpt><trkpt lat="38.18535196542023" lon="15.644608122584671"><ele>17.0</ele><time>2026-04-28T09:59:13.998Z</time></trkpt><trkpt lat="38.185449122674136" lon="15.644551671189756"><ele>17.0</ele><time>2026-04-28T09:59:14.998Z</time></trkpt><trkpt lat="38.185535460488076" lon="15.644500190613668"><ele>17.0</ele><time>2026-04-28T09:59:15.998Z</time></trkpt><trkpt lat="38.18561174495909" lon="15.644456096761937"><ele>17.0</ele><time>2026-04-28T09:59:16.998Z</time></trkpt><trkpt lat="38.1857063631555" lon="15.644415316028958"><ele>17.0</ele><time>2026-04-28T09:59:17.998Z</time></trkpt><trkpt lat="38.185805110623406" lon="15.644368972082448"><ele>17.0</ele><time>2026-04-28T09:59:18.998Z</time></trkpt><trkpt lat="38.18588949980269" lon="15.644326124994071"><ele>17.0</ele><time>2026-04-28T09:59:19.998Z</time></trkpt><trkpt lat="38.18596754898537" lon="15.644291736526828"><ele>17.0</ele><time>2026-04-28T09:59:20.998Z</time></trkpt><trkpt lat="38.18605452030844" lon="15.644249316767274"><ele>17.0</ele><time>2026-04-28T09:59:21.998Z</time></trkpt><trkpt lat="38.18615036770978" lon="15.64419196074601"><ele>17.0</ele><time>2026-04-28T09:59:22.998Z</time></trkpt><trkpt lat="38.18624401660578" lon="15.644138529414553"><ele>17.0</ele><time>2026-04-28T09:59:23.998Z</time></trkpt><trkpt lat="38.18634866015057" lon="15.644075335860057"><ele>17.0</ele><time>2026-04-28T09:59:24.998Z</time></trkpt><trkpt lat="38.18644108666621" lon="15.644029244226816"><ele>17.0</ele><time>2026-04-28T09:59:25.998Z</time></trkpt><trkpt lat="38.18652302883415" lon="15.643993323599084"><ele>17.0</ele><time>2026-04-28T09:59:27Z</time></trkpt><trkpt lat="38.18658733564129" lon="15.643969618526407"><ele>17.0</ele><time>2026-04-28T09:59:28Z</time></trkpt><trkpt lat="38.18666575579964" lon="15.644010386536866"><ele>17.0</ele><time>2026-04-28T09:59:30Z</time></trkpt><trkpt lat="38.18673022917994" lon="15.643978508168466"><ele>17.0</ele><time>2026-04-28T09:59:32Z</time></trkpt><trkpt lat="38.18682164423995" lon="15.643933308674566"><ele>17.8</ele><time>2026-04-28T09:59:34Z</time></trkpt><trkpt lat="38.18691099315196" lon="15.643889130776897"><ele>18.6</ele><time>2026-04-28T09:59:37Z</time></trkpt><trkpt lat="38.187002774794266" lon="15.643843750056904"><ele>19.400000000000002</ele><time>2026-04-28T09:59:39Z</time></trkpt><trkpt lat="38.18710927975142" lon="15.643791089720146"><ele>20.2</ele><time>2026-04-28T09:59:41Z</time></trkpt><trkpt lat="38.1871821151289" lon="15.643754564420638"><ele>21.0</ele><time>2026-04-28T09:59:42Z</time></trkpt><trkpt lat="38.187245454107604" lon="15.643722983055273"><ele>21.0</ele><time>2026-04-28T09:59:43Z</time></trkpt><trkpt lat="38.18731846962097" lon="15.643686576895238"><ele>21.0</ele><time>2026-04-28T09:59:44.999Z</time></trkpt><trkpt lat="38.18742322841409" lon="15.643634343249817"><ele>21.0</ele><time>2026-04-28T09:59:47.999Z</time></trkpt><trkpt lat="38.18751143313494" lon="15.643590363871589"><ele>21.0</ele><time>2026-04-28T09:59:48.999Z</time></trkpt><trkpt lat="38.187593872157535" lon="15.64354962510897"><ele>21.0</ele><time>2026-04-28T09:59:49.999Z</time></trkpt><trkpt lat="38.187652594800845" lon="15.643520499815669"><ele>21.0</ele><time>2026-04-28T09:59:50.999Z</time></trkpt><trkpt lat="38.18770289550246" lon="15.643359209035404"><ele>20.400000000000002</ele><time>2026-04-28T09:59:52.999Z</time></trkpt><trkpt lat="38.187764665048775" lon="15.64334030337505"><ele>19.8</ele><time>2026-04-28T09:59:53.999Z</time></trkpt><trkpt lat="38.18787644788416" lon="15.643284982056423"><ele>19.200000000000003</ele><time>2026-04-28T09:59:55.999Z</time></trkpt><trkpt lat="38.18796679269669" lon="15.643253016490958"><ele>18.6</ele><time>2026-04-28T09:59:57.999Z</time></trkpt><trkpt lat="38.18808230525566" lon="15.643192294050058"><ele>18.0</ele><time>2026-04-28T09:59:59.999Z</time></trkpt><trkpt lat="38.18814738918663" lon="15.643162232482625"><ele>18.5</ele><time>2026-04-28T10:00:00.999Z</time></trkpt><trkpt lat="38.188222800631735" lon="15.643118614862091"><ele>19.0</ele><time>2026-04-28T10:00:01.999Z</time></trkpt><trkpt lat="38.188323994276516" lon="15.643069433119328"><ele>19.5</ele><time>2026-04-28T10:00:02.999Z</time></trkpt><trkpt lat="38.18843741534228" lon="15.643019821732535"><ele>20.0</ele><time>2026-04-28T10:00:03.999Z</time></trkpt><trkpt lat="38.18856640514927" lon="15.642949963224304"><ele>20.0</ele><time>2026-04-28T10:00:04.999Z</time></trkpt><trkpt lat="38.18871624720768" lon="15.642879951154697"><ele>20.0</ele><time>2026-04-28T10:00:05.999Z</time></trkpt><trkpt lat="38.188850595723345" lon="15.642811309380438"><ele>20.0</ele><time>2026-04-28T10:00:06.999Z</time></trkpt><trkpt lat="38.18896966169424" lon="15.6427751820261"><ele>20.0</ele><time>2026-04-28T10:00:07.999Z</time></trkpt><trkpt lat="38.18906264365524" lon="15.642728679602556"><ele>19.8</ele><time>2026-04-28T10:00:08.999Z</time></trkpt><trkpt lat="38.1891510738484" lon="15.642703241409379"><ele>19.6</ele><time>2026-04-28T10:00:09.999Z</time></trkpt><trkpt lat="38.18923510810094" lon="15.642677294398547"><ele>19.4</ele><time>2026-04-28T10:00:10.999Z</time></trkpt><trkpt lat="38.189326023920444" lon="15.642635629649833"><ele>19.2</ele><time>2026-04-28T10:00:11.999Z</time></trkpt><trkpt lat="38.18942199285884" lon="15.64258314629835"><ele>19.0</ele><time>2026-04-28T10:00:12.999Z</time></trkpt><trkpt lat="38.18955420494071" lon="15.642519315542737"><ele>19.0</ele><time>2026-04-28T10:00:13.999Z</time></trkpt><trkpt lat="38.189695747093396" lon="15.642451317487179"><ele>19.0</ele><time>2026-04-28T10:00:14.999Z</time></trkpt><trkpt lat="38.189861262465186" lon="15.642372756893314"><ele>19.0</ele><time>2026-04-28T10:00:15.999Z</time></trkpt><trkpt lat="38.19003782079542" lon="15.642342318610675"><ele>19.333333333333332</ele><time>2026-04-28T10:00:16.999Z</time></trkpt><trkpt lat="38.19019222200912" lon="15.64226816452316"><ele>19.666666666666668</ele><time>2026-04-28T10:00:17.999Z</time></trkpt><trkpt lat="38.19033379110997" lon="15.642200173287327"><ele>20.0</ele><time>2026-04-28T10:00:18.999Z</time></trkpt><trkpt lat="38.190463796111366" lon="15.642139193549925"><ele>20.0</ele><time>2026-04-28T10:00:19.999Z</time></trkpt><trkpt lat="38.19058323146173" lon="15.642082276599947"><ele>20.0</ele><time>2026-04-28T10:00:20.999Z</time></trkpt><trkpt lat="38.19070968248448" lon="15.64201462282589"><ele>20.0</ele><time>2026-04-28T10:00:21.999Z</time></trkpt><trkpt lat="38.190820640439505" lon="15.641944330008165"><ele>20.0</ele><time>2026-04-28T10:00:22.999Z</time></trkpt><trkpt lat="38.19090730019837" lon="15.641869623566537"><ele>19.8</ele><time>2026-04-28T10:00:23.999Z</time></trkpt><trkpt lat="38.19098130884115" lon="15.64178485140313"><ele>19.6</ele><time>2026-04-28T10:00:24.999Z</time></trkpt><trkpt lat="38.191043990378596" lon="15.641697261241001"><ele>19.4</ele><time>2026-04-28T10:00:25.999Z</time></trkpt><trkpt lat="38.1911195812079" lon="15.641588657952477"><ele>19.2</ele><time>2026-04-28T10:00:26.999Z</time></trkpt><trkpt lat="38.19117657231472" lon="15.64150479768111"><ele>19.0</ele><time>2026-04-28T10:00:27.999Z</time></trkpt><trkpt lat="38.191232717716844" lon="15.641422201134596"><ele>19.0</ele><time>2026-04-28T10:00:28.999Z</time></trkpt><trkpt lat="38.1912902220088" lon="15.641337632240285"><ele>19.0</ele><time>2026-04-28T10:00:29.999Z</time></trkpt><trkpt lat="38.191345263419336" lon="15.641256685412252"><ele>19.0</ele><time>2026-04-28T10:00:30.999Z</time></trkpt><trkpt lat="38.19139460290869" lon="15.641184124136375"><ele>19.0</ele><time>2026-04-28T10:00:31.999Z</time></trkpt><trkpt lat="38.19144448859789" lon="15.641110759549822"><ele>19.0</ele><time>2026-04-28T10:00:32.999Z</time></trkpt><trkpt lat="38.19149657183031" lon="15.641034895809257"><ele>19.0</ele><time>2026-04-28T10:00:33.999Z</time></trkpt><trkpt lat="38.19155596176438" lon="15.640946426282785"><ele>20.2</ele><time>2026-04-28T10:00:34.999Z</time></trkpt><trkpt lat="38.19163290162508" lon="15.640814539697946"><ele>21.4</ele><time>2026-04-28T10:00:36.999Z</time></trkpt><trkpt lat="38.19166806233975" lon="15.640741168177785"><ele>22.6</ele><time>2026-04-28T10:00:37.999Z</time></trkpt><trkpt lat="38.191703259176215" lon="15.640640039406923"><ele>23.8</ele><time>2026-04-28T10:00:38.999Z</time></trkpt><trkpt lat="38.191730624486524" lon="15.640507928086016"><ele>25.0</ele><time>2026-04-28T10:00:39.999Z</time></trkpt><trkpt lat="38.19174219220036" lon="15.640357697877297"><ele>24.666666666666668</ele><time>2026-04-28T10:00:40.999Z</time></trkpt><trkpt lat="38.191747360337544" lon="15.640185759413143"><ele>24.333333333333336</ele><time>2026-04-28T10:00:41.999Z</time></trkpt><trkpt lat="38.191750194113595" lon="15.639988428050609"><ele>24.0</ele><time>2026-04-28T10:00:42.999Z</time></trkpt><trkpt lat="38.19175320964169" lon="15.639759475609255"><ele>24.0</ele><time>2026-04-28T10:00:43.999Z</time></trkpt><trkpt lat="38.19175506207497" lon="15.639522634856666"><ele>24.0</ele><time>2026-04-28T10:00:44.999Z</time></trkpt><trkpt lat="38.191756749427356" lon="15.639287441168594"><ele>24.0</ele><time>2026-04-28T10:00:45.999Z</time></trkpt><trkpt lat="38.19175844480739" lon="15.639077375725801"><ele>23.75</ele><time>2026-04-28T10:00:46.999Z</time></trkpt><trkpt lat="38.19176103563105" lon="15.638887793530932"><ele>23.5</ele><time>2026-04-28T10:00:47.999Z</time></trkpt><trkpt lat="38.19177089055739" lon="15.638713009650637"><ele>23.25</ele><time>2026-04-28T10:00:48.999Z</time></trkpt><trkpt lat="38.19179098882058" lon="15.638550614578781"><ele>23.0</ele><time>2026-04-28T10:00:49.999Z</time></trkpt><trkpt lat="38.19183166972334" lon="15.63840161105632"><ele>22.0</ele><time>2026-04-28T10:00:50.999Z</time></trkpt><trkpt lat="38.191896442290286" lon="15.638234915366393"><ele>21.0</ele><time>2026-04-28T10:00:51.999Z</time></trkpt><trkpt lat="38.19197656567419" lon="15.638040318071212"><ele>20.0</ele><time>2026-04-28T10:00:52.999Z</time></trkpt><trkpt lat="38.192064759956715" lon="15.637834805282457"><ele>20.25</ele><time>2026-04-28T10:00:53.999Z</time></trkpt><trkpt lat="38.19214710896225" lon="15.63764636605067"><ele>20.5</ele><time>2026-04-28T10:00:54.999Z</time></trkpt><trkpt lat="38.1922248194548" lon="15.637481310494783"><ele>20.75</ele><time>2026-04-28T10:00:55.999Z</time></trkpt><trkpt lat="38.192301460189995" lon="15.63735267914362"><ele>21.0</ele><time>2026-04-28T10:00:56.999Z</time></trkpt><trkpt lat="38.19238621371263" lon="15.637239305087798"><ele>21.0</ele><time>2026-04-28T10:00:57.999Z</time></trkpt><trkpt lat="38.19248076389257" lon="15.637137658545251"><ele>21.0</ele><time>2026-04-28T10:00:58.999Z</time></trkpt><trkpt lat="38.19259195084515" lon="15.637030413263796"><ele>21.0</ele><time>2026-04-28T10:00:59.999Z</time></trkpt><trkpt lat="38.192724536153435" lon="15.636906849085653"><ele>21.0</ele><time>2026-04-28T10:01:00.999Z</time></trkpt><trkpt lat="38.19285699568774" lon="15.636779992405"><ele>20.0</ele><time>2026-04-28T10:01:01.999Z</time></trkpt><trkpt lat="38.19297913297155" lon="15.636661237395112"><ele>19.0</ele><time>2026-04-28T10:01:02.999Z</time></trkpt><trkpt lat="38.19309337814495" lon="15.636552702911061"><ele>18.0</ele><time>2026-04-28T10:01:03.999Z</time></trkpt><trkpt lat="38.19320336690642" lon="15.636455128373157"><ele>17.0</ele><time>2026-04-28T10:01:04.999Z</time></trkpt><trkpt lat="38.19331580304452" lon="15.636376809524673"><ele>17.0</ele><time>2026-04-28T10:01:05.999Z</time></trkpt><trkpt lat="38.19344605943931" lon="15.636306368587029"><ele>17.0</ele><time>2026-04-28T10:01:06.999Z</time></trkpt><trkpt lat="38.1935898429416" lon="15.636239300791466"><ele>17.0</ele><time>2026-04-28T10:01:07.999Z</time></trkpt><trkpt lat="38.193732341125894" lon="15.636176793852737"><ele>17.0</ele><time>2026-04-28T10:01:08.999Z</time></trkpt><trkpt lat="38.19388270706732" lon="15.636110835719304"><ele>14.666666666666668</ele><time>2026-04-28T10:01:09.998Z</time></trkpt><trkpt lat="38.19404687320107" lon="15.636038824134138"><ele>12.333333333333334</ele><time>2026-04-28T10:01:10.998Z</time></trkpt><trkpt lat="38.19421301116697" lon="15.635965947584515"><ele>10.0</ele><time>2026-04-28T10:01:11.998Z</time></trkpt><trkpt lat="38.194376227192606" lon="15.635896950777209"><ele>10.0</ele><time>2026-04-28T10:01:12.998Z</time></trkpt><trkpt lat="38.19453679354778" lon="15.63584577886119"><ele>10.0</ele><time>2026-04-28T10:01:13.998Z</time></trkpt><trkpt lat="38.19469654420071" lon="15.635822059417773"><ele>10.0</ele><time>2026-04-28T10:01:14.998Z</time></trkpt><trkpt lat="38.19486613473757" lon="15.63581257567604"><ele>10.0</ele><time>2026-04-28T10:01:15.998Z</time></trkpt><trkpt lat="38.19503199933049" lon="15.635804140264153"><ele>10.0</ele><time>2026-04-28T10:01:16.998Z</time></trkpt><trkpt lat="38.19518512788692" lon="15.63579719296648"><ele>10.0</ele><time>2026-04-28T10:01:17.998Z</time></trkpt><trkpt lat="38.19533575350632" lon="15.635790656117374"><ele>10.0</ele><time>2026-04-28T10:01:18.998Z</time></trkpt><trkpt lat="38.19548154375303" lon="15.635784329111779"><ele>10.0</ele><time>2026-04-28T10:01:19.998Z</time></trkpt><trkpt lat="38.19561790738894" lon="15.63577996499259"><ele>10.0</ele><time>2026-04-28T10:01:20.998Z</time></trkpt><trkpt lat="38.19574757414379" lon="15.635778759668588"><ele>10.0</ele><time>2026-04-28T10:01:21.998Z</time></trkpt><trkpt lat="38.19586261536526" lon="15.6357892709076"><ele>10.25</ele><time>2026-04-28T10:01:22.998Z</time></trkpt><trkpt lat="38.19597419974841" lon="15.635812830284305"><ele>10.5</ele><time>2026-04-28T10:01:23.998Z</time></trkpt><trkpt lat="38.196077050215365" lon="15.63586047895268"><ele>10.75</ele><time>2026-04-28T10:01:24.998Z</time></trkpt><trkpt lat="38.19618389332194" lon="15.635892012314038"><ele>11.0</ele><time>2026-04-28T10:01:25.998Z</time></trkpt><trkpt lat="38.19630860938743" lon="15.635909580280297"><ele>11.0</ele><time>2026-04-28T10:01:26.998Z</time></trkpt><trkpt lat="38.196447205534355" lon="15.635904134841518"><ele>11.0</ele><time>2026-04-28T10:01:27.998Z</time></trkpt><trkpt lat="38.19659180331236" lon="15.635884863709173"><ele>11.0</ele><time>2026-04-28T10:01:28.998Z</time></trkpt><trkpt lat="38.19674450197879" lon="15.635860794033597"><ele>11.0</ele><time>2026-04-28T10:01:29.998Z</time></trkpt><trkpt lat="38.196921508032474" lon="15.635827609375673"><ele>10.666666666666666</ele><time>2026-04-28T10:01:30.998Z</time></trkpt><trkpt lat="38.197113144712986" lon="15.635791426785797"><ele>10.333333333333334</ele><time>2026-04-28T10:01:31.998Z</time></trkpt><trkpt lat="38.197296525654174" lon="15.635761407959931"><ele>10.0</ele><time>2026-04-28T10:01:33Z</time></trkpt><trkpt lat="38.19747159904596" lon="15.63575223051627"><ele>9.333333333333334</ele><time>2026-04-28T10:01:34Z</time></trkpt><trkpt lat="38.197641488256195" lon="15.63574777463292"><ele>8.666666666666666</ele><time>2026-04-28T10:01:35Z</time></trkpt><trkpt lat="38.19779588171453" lon="15.635745001236415"><ele>8.0</ele><time>2026-04-28T10:01:36Z</time></trkpt><trkpt lat="38.197939535815436" lon="15.635742420751063"><ele>8.0</ele><time>2026-04-28T10:01:37Z</time></trkpt><trkpt lat="38.19806813954457" lon="15.635740110617864"><ele>8.0</ele><time>2026-04-28T10:01:38Z</time></trkpt><trkpt lat="38.19819760262922" lon="15.635737785049246"><ele>8.0</ele><time>2026-04-28T10:01:39Z</time></trkpt><trkpt lat="38.198326741284205" lon="15.635735577835797"><ele>8.0</ele><time>2026-04-28T10:01:40Z</time></trkpt><trkpt lat="38.19846037952631" lon="15.63573330893444"><ele>8.25</ele><time>2026-04-28T10:01:41Z</time></trkpt><trkpt lat="38.198591395714224" lon="15.635731084554276"><ele>8.5</ele><time>2026-04-28T10:01:42Z</time></trkpt><trkpt lat="38.19871151676511" lon="15.63572885589601"><ele>8.75</ele><time>2026-04-28T10:01:43Z</time></trkpt><trkpt lat="38.19882034385521" lon="15.635726266024065"><ele>9.0</ele><time>2026-04-28T10:01:44Z</time></trkpt><trkpt lat="38.19891620020629" lon="15.635723984830916"><ele>9.0</ele><time>2026-04-28T10:01:45Z</time></trkpt><trkpt lat="38.19899934593717" lon="15.63572200612499"><ele>9.0</ele><time>2026-04-28T10:01:46Z</time></trkpt><trkpt lat="38.19906476467275" lon="15.635720449289682"><ele>9.0</ele><time>2026-04-28T10:01:47Z</time></trkpt><trkpt lat="38.19920523659837" lon="15.635717106332008"><ele>9.0</ele><time>2026-04-28T10:01:49Z</time></trkpt><trkpt lat="38.19933224411552" lon="15.63571408381043"><ele>9.0</ele><time>2026-04-28T10:01:50Z</time></trkpt><trkpt lat="38.19949674613598" lon="15.635709503860092"><ele>9.666666666666666</ele><time>2026-04-28T10:01:51Z</time></trkpt><trkpt lat="38.19970622073111" lon="15.635701661456556"><ele>10.333333333333332</ele><time>2026-04-28T10:01:51.999Z</time></trkpt><trkpt lat="38.199929159688175" lon="15.63567625916921"><ele>11.0</ele><time>2026-04-28T10:01:52.999Z</time></trkpt><trkpt lat="38.20010419113253" lon="15.635642878296899"><ele>11.0</ele><time>2026-04-28T10:01:53.999Z</time></trkpt><trkpt lat="38.200260145837085" lon="15.63563489354161"><ele>11.0</ele><time>2026-04-28T10:01:54.999Z</time></trkpt><trkpt lat="38.2004612693849" lon="15.635636152406986"><ele>11.0</ele><time>2026-04-28T10:01:55.999Z</time></trkpt><trkpt lat="38.2006811673939" lon="15.635637904004968"><ele>11.0</ele><time>2026-04-28T10:01:56.999Z</time></trkpt><trkpt lat="38.200917754919544" lon="15.63563832030311"><ele>11.0</ele><time>2026-04-28T10:01:57.999Z</time></trkpt><trkpt lat="38.20116776006762" lon="15.635635623759606"><ele>11.0</ele><time>2026-04-28T10:01:58.999Z</time></trkpt><trkpt lat="38.20141582637504" lon="15.635618302565488"><ele>11.0</ele><time>2026-04-28T10:01:59.999Z</time></trkpt><trkpt lat="38.201645289005015" lon="15.635598712162027"><ele>10.333333333333332</ele><time>2026-04-28T10:02:00.999Z</time></trkpt><trkpt lat="38.201851344650485" lon="15.635581228911125"><ele>9.666666666666666</ele><time>2026-04-28T10:02:01.999Z</time></trkpt><trkpt lat="38.20203892299092" lon="15.635585573177012"><ele>9.0</ele><time>2026-04-28T10:02:02.999Z</time></trkpt><trkpt lat="38.20223278525769" lon="15.635599098949275"><ele>10.0</ele><time>2026-04-28T10:02:03.999Z</time></trkpt><trkpt lat="38.20241101179024" lon="15.635617469892521"><ele>11.0</ele><time>2026-04-28T10:02:04.999Z</time></trkpt><trkpt lat="38.20259203279721" lon="15.635636323423796"><ele>12.0</ele><time>2026-04-28T10:02:05.999Z</time></trkpt><trkpt lat="38.202791315259965" lon="15.635660388334715"><ele>12.0</ele><time>2026-04-28T10:02:06.999Z</time></trkpt><trkpt lat="38.20300920723027" lon="15.635695732758"><ele>12.0</ele><time>2026-04-28T10:02:07.999Z</time></trkpt><trkpt lat="38.203218349037485" lon="15.635729048421412"><ele>12.0</ele><time>2026-04-28T10:02:08.999Z</time></trkpt><trkpt lat="38.20340574733435" lon="15.635757762269025"><ele>11.666666666666666</ele><time>2026-04-28T10:02:09.999Z</time></trkpt><trkpt lat="38.20358530686636" lon="15.63578133142219"><ele>11.333333333333332</ele><time>2026-04-28T10:02:10.999Z</time></trkpt><trkpt lat="38.20375626675872" lon="15.635791027905354"><ele>11.0</ele><time>2026-04-28T10:02:11.999Z</time></trkpt><trkpt lat="38.20390935781823" lon="15.635795455934248"><ele>10.5</ele><time>2026-04-28T10:02:12.999Z</time></trkpt><trkpt lat="38.20404816899636" lon="15.635798257361348"><ele>10.0</ele><time>2026-04-28T10:02:13.999Z</time></trkpt><trkpt lat="38.20418022106182" lon="15.635799729897224"><ele>9.5</ele><time>2026-04-28T10:02:14.999Z</time></trkpt><trkpt lat="38.20431241540073" lon="15.63573747175771"><ele>9.0</ele><time>2026-04-28T10:02:15.999Z</time></trkpt><trkpt lat="38.20445475978933" lon="15.635733819019006"><ele>9.0</ele><time>2026-04-28T10:02:16.999Z</time></trkpt><trkpt lat="38.204605347911006" lon="15.635725587976761"><ele>9.0</ele><time>2026-04-28T10:02:17.999Z</time></trkpt><trkpt lat="38.20477537709866" lon="15.63571813063491"><ele>9.0</ele><time>2026-04-28T10:02:18.999Z</time></trkpt><trkpt lat="38.20496389518959" lon="15.635811255347543"><ele>8.666666666666666</ele><time>2026-04-28T10:02:19.999Z</time></trkpt><trkpt lat="38.20517037586574" lon="15.635819262316765"><ele>8.333333333333332</ele><time>2026-04-28T10:02:20.999Z</time></trkpt><trkpt lat="38.20537401810021" lon="15.635831827051089"><ele>8.0</ele><time>2026-04-28T10:02:21.999Z</time></trkpt><trkpt lat="38.20556686911367" lon="15.635845629625264"><ele>9.333333333333332</ele><time>2026-04-28T10:02:22.999Z</time></trkpt><trkpt lat="38.205759901312014" lon="15.635855002192544"><ele>10.666666666666666</ele><time>2026-04-28T10:02:23.999Z</time></trkpt><trkpt lat="38.2059487357592" lon="15.635862409627483"><ele>12.0</ele><time>2026-04-28T10:02:24.999Z</time></trkpt><trkpt lat="38.20612348305629" lon="15.635871684884485"><ele>12.0</ele><time>2026-04-28T10:02:25.999Z</time></trkpt><trkpt lat="38.20628581582478" lon="15.635888528907472"><ele>12.0</ele><time>2026-04-28T10:02:26.999Z</time></trkpt><trkpt lat="38.206448512611374" lon="15.635915105793446"><ele>12.0</ele><time>2026-04-28T10:02:27.999Z</time></trkpt><trkpt lat="38.206629319352864" lon="15.635948792639628"><ele>12.333333333333332</ele><time>2026-04-28T10:02:28.999Z</time></trkpt><trkpt lat="38.206810390913404" lon="15.635980516836684"><ele>12.666666666666666</ele><time>2026-04-28T10:02:29.999Z</time></trkpt><trkpt lat="38.206979087661225" lon="15.636006300418957"><ele>13.0</ele><time>2026-04-28T10:02:30.999Z</time></trkpt><trkpt lat="38.207112737516574" lon="15.636025073053894"><ele>13.0</ele><time>2026-04-28T10:02:31.999Z</time></trkpt><trkpt lat="38.207238887167556" lon="15.636026612507688"><ele>13.0</ele><time>2026-04-28T10:02:32.999Z</time></trkpt><trkpt lat="38.20737385174313" lon="15.636009846756242"><ele>13.0</ele><time>2026-04-28T10:02:33.999Z</time></trkpt><trkpt lat="38.20751554699376" lon="15.635963731307408"><ele>13.0</ele><time>2026-04-28T10:02:34.999Z</time></trkpt><trkpt lat="38.2076547989917" lon="15.635896382856405"><ele>13.0</ele><time>2026-04-28T10:02:35.999Z</time></trkpt><trkpt lat="38.20778297378774" lon="15.635826623147976"><ele>13.0</ele><time>2026-04-28T10:02:36.999Z</time></trkpt><trkpt lat="38.20788296369283" lon="15.63578155991668"><ele>13.0</ele><time>2026-04-28T10:02:37.999Z</time></trkpt><trkpt lat="38.20796717350856" lon="15.635750273395633"><ele>13.0</ele><time>2026-04-28T10:02:38.999Z</time></trkpt><trkpt lat="38.20804843565322" lon="15.63579021798836"><ele>13.0</ele><time>2026-04-28T10:02:39.999Z</time></trkpt><trkpt lat="38.208206056991266" lon="15.63581091058988"><ele>13.0</ele><time>2026-04-28T10:02:40.999Z</time></trkpt><trkpt lat="38.20839307283506" lon="15.635837424683"><ele>13.0</ele><time>2026-04-28T10:02:41.999Z</time></trkpt><trkpt lat="38.20854596004265" lon="15.635859100191547"><ele>13.0</ele><time>2026-04-28T10:02:42.999Z</time></trkpt><trkpt lat="38.20869923013158" lon="15.635880830001351"><ele>13.0</ele><time>2026-04-28T10:02:43.999Z</time></trkpt><trkpt lat="38.20885267151162" lon="15.63590452884506"><ele>13.0</ele><time>2026-04-28T10:02:44.999Z</time></trkpt><trkpt lat="38.20899695155822" lon="15.63593081560008"><ele>13.0</ele><time>2026-04-28T10:02:45.999Z</time></trkpt><trkpt lat="38.20917253241802" lon="15.635979327602644"><ele>13.0</ele><time>2026-04-28T10:02:46.999Z</time></trkpt><trkpt lat="38.209351821929765" lon="15.63603810632512"><ele>13.0</ele><time>2026-04-28T10:02:47.999Z</time></trkpt><trkpt lat="38.20951523238911" lon="15.636097571722962"><ele>13.0</ele><time>2026-04-28T10:02:48.999Z</time></trkpt><trkpt lat="38.209680624778166" lon="15.636157018806795"><ele>15.0</ele><time>2026-04-28T10:02:49.999Z</time></trkpt><trkpt lat="38.209830634383344" lon="15.63620815618727"><ele>17.0</ele><time>2026-04-28T10:02:50.999Z</time></trkpt><trkpt lat="38.20997019136234" lon="15.636255492994085"><ele>19.0</ele><time>2026-04-28T10:02:51.999Z</time></trkpt><trkpt lat="38.210098604432844" lon="15.636301295698184"><ele>21.0</ele><time>2026-04-28T10:02:52.999Z</time></trkpt><trkpt lat="38.210214559595" lon="15.636344767079056"><ele>21.0</ele><time>2026-04-28T10:02:53.999Z</time></trkpt><trkpt lat="38.2103232861711" lon="15.636386396292446"><ele>21.0</ele><time>2026-04-28T10:02:54.999Z</time></trkpt><trkpt lat="38.210441608668546" lon="15.636434353058947"><ele>21.0</ele><time>2026-04-28T10:02:55.999Z</time></trkpt><trkpt lat="38.21054736345937" lon="15.636478996324898"><ele>21.0</ele><time>2026-04-28T10:02:56.999Z</time></trkpt><trkpt lat="38.210651213300885" lon="15.636526534739827"><ele>20.25</ele><time>2026-04-28T10:02:57.999Z</time></trkpt><trkpt lat="38.21074906773135" lon="15.636571328702807"><ele>19.5</ele><time>2026-04-28T10:02:58.999Z</time></trkpt><trkpt lat="38.210859177206686" lon="15.636620027493038"><ele>18.75</ele><time>2026-04-28T10:02:59.999Z</time></trkpt><trkpt lat="38.21099614290027" lon="15.63667623006179"><ele>18.0</ele><time>2026-04-28T10:03:00.999Z</time></trkpt><trkpt lat="38.211116221623975" lon="15.636721570862461"><ele>18.0</ele><time>2026-04-28T10:03:01.999Z</time></trkpt><trkpt lat="38.21119003278401" lon="15.63674843660904"><ele>18.0</ele><time>2026-04-28T10:03:02.999Z</time></trkpt><trkpt lat="38.21127629244527" lon="15.636778715181334"><ele>18.0</ele><time>2026-04-28T10:03:04.999Z</time></trkpt><trkpt lat="38.21134046076803" lon="15.636801239365987"><ele>18.0</ele><time>2026-04-28T10:03:05.999Z</time></trkpt><trkpt lat="38.21142749124125" lon="15.63681266771696"><ele>18.0</ele><time>2026-04-28T10:03:14.999Z</time></trkpt><trkpt lat="38.21149359394845" lon="15.636836160890123"><ele>18.0</ele><time>2026-04-28T10:03:15.998Z</time></trkpt><trkpt lat="38.211579772958764" lon="15.63686402877183"><ele>18.8</ele><time>2026-04-28T10:03:16.998Z</time></trkpt><trkpt lat="38.211667794291216" lon="15.636917236075023"><ele>19.6</ele><time>2026-04-28T10:03:17.998Z</time></trkpt><trkpt lat="38.21175565829593" lon="15.636949535434884"><ele>20.400000000000002</ele><time>2026-04-28T10:03:18.998Z</time></trkpt><trkpt lat="38.21183282865316" lon="15.63697790372798"><ele>21.200000000000003</ele><time>2026-04-28T10:03:19.998Z</time></trkpt><trkpt lat="38.211947174892686" lon="15.637021800585513"><ele>22.0</ele><time>2026-04-28T10:03:21.998Z</time></trkpt><trkpt lat="38.21203903710211" lon="15.637073999701283"><ele>22.0</ele><time>2026-04-28T10:03:23.998Z</time></trkpt><trkpt lat="38.21213812878732" lon="15.637133445493726"><ele>22.0</ele><time>2026-04-28T10:03:25.998Z</time></trkpt><trkpt lat="38.21220775127293" lon="15.637178186100398"><ele>22.0</ele><time>2026-04-28T10:03:28.998Z</time></trkpt><trkpt lat="38.212369231873296" lon="15.637165772432725"><ele>22.0</ele><time>2026-04-28T10:03:30.998Z</time></trkpt><trkpt lat="38.21245961007049" lon="15.637127426434084"><ele>22.0</ele><time>2026-04-28T10:03:31.998Z</time></trkpt><trkpt lat="38.21253484592658" lon="15.637103175025125"><ele>21.333333333333332</ele><time>2026-04-28T10:03:32.998Z</time></trkpt><trkpt lat="38.212597100692136" lon="15.637090117417527"><ele>20.666666666666664</ele><time>2026-04-28T10:03:33.998Z</time></trkpt><trkpt lat="38.21268631471639" lon="15.637078955076369"><ele>20.0</ele><time>2026-04-28T10:03:34.998Z</time></trkpt><trkpt lat="38.21278704507967" lon="15.637071100429143"><ele>19.333333333333332</ele><time>2026-04-28T10:03:35.998Z</time></trkpt><trkpt lat="38.2128813444853" lon="15.637065876870206"><ele>18.666666666666668</ele><time>2026-04-28T10:03:36.998Z</time></trkpt><trkpt lat="38.212976473779065" lon="15.63706224216777"><ele>18.0</ele><time>2026-04-28T10:03:37.998Z</time></trkpt><trkpt lat="38.21307604139441" lon="15.637059183466189"><ele>17.25</ele><time>2026-04-28T10:03:39Z</time></trkpt><trkpt lat="38.21319918281655" lon="15.637056015877944"><ele>16.5</ele><time>2026-04-28T10:03:40Z</time></trkpt><trkpt lat="38.213344315903235" lon="15.63705298751157"><ele>15.75</ele><time>2026-04-28T10:03:41Z</time></trkpt><trkpt lat="38.213491492605584" lon="15.637048852011988"><ele>15.0</ele><time>2026-04-28T10:03:42Z</time></trkpt><trkpt lat="38.21362294201494" lon="15.637043453130001"><ele>15.0</ele><time>2026-04-28T10:03:43Z</time></trkpt><trkpt lat="38.21374715358897" lon="15.637036933939605"><ele>15.0</ele><time>2026-04-28T10:03:44Z</time></trkpt><trkpt lat="38.21386096060838" lon="15.637028064710304"><ele>15.0</ele><time>2026-04-28T10:03:45Z</time></trkpt><trkpt lat="38.21396332144477" lon="15.637020137130545"><ele>15.0</ele><time>2026-04-28T10:03:46Z</time></trkpt><trkpt lat="38.21406754320476" lon="15.637013131540247"><ele>15.0</ele><time>2026-04-28T10:03:47Z</time></trkpt><trkpt lat="38.21417062088951" lon="15.637007475131277"><ele>15.0</ele><time>2026-04-28T10:03:48Z</time></trkpt><trkpt lat="38.214269996613744" lon="15.637002839069913"><ele>15.0</ele><time>2026-04-28T10:03:49Z</time></trkpt><trkpt lat="38.214362618368504" lon="15.636998518096556"><ele>15.0</ele><time>2026-04-28T10:03:50Z</time></trkpt><trkpt lat="38.214447249804046" lon="15.636994571350792"><ele>15.0</ele><time>2026-04-28T10:03:51Z</time></trkpt><trkpt lat="38.214525642530376" lon="15.636991723842078"><ele>15.0</ele><time>2026-04-28T10:03:52Z</time></trkpt><trkpt lat="38.214611224687424" lon="15.63698778835019"><ele>15.0</ele><time>2026-04-28T10:03:53Z</time></trkpt><trkpt lat="38.21470177471083" lon="15.636983624419564"><ele>15.0</ele><time>2026-04-28T10:03:54Z</time></trkpt><trkpt lat="38.21478131258732" lon="15.63697996687816"><ele>15.0</ele><time>2026-04-28T10:03:55Z</time></trkpt><trkpt lat="38.214858222476124" lon="15.636976430185749"><ele>15.0</ele><time>2026-04-28T10:03:55.999Z</time></trkpt><trkpt lat="38.21493638169544" lon="15.636972836043542"><ele>15.0</ele><time>2026-04-28T10:03:56.999Z</time></trkpt><trkpt lat="38.21501179477608" lon="15.636969368181571"><ele>15.0</ele><time>2026-04-28T10:03:57.999Z</time></trkpt><trkpt lat="38.21507846452384" lon="15.636966302383364"><ele>15.0</ele><time>2026-04-28T10:03:58.999Z</time></trkpt><trkpt lat="38.21514267114236" lon="15.636963349792996"><ele>15.0</ele><time>2026-04-28T10:04:00.999Z</time></trkpt><trkpt lat="38.2151837500067" lon="15.636836767882327"><ele>14.6</ele><time>2026-04-28T10:04:10.999Z</time></trkpt><trkpt lat="38.215178578897465" lon="15.636741211724614"><ele>14.2</ele><time>2026-04-28T10:04:12.999Z</time></trkpt><trkpt lat="38.21506284624676" lon="15.63674610221443"><ele>13.8</ele><time>2026-04-28T10:04:14.999Z</time></trkpt><trkpt lat="38.214934363805824" lon="15.636756461545529"><ele>13.4</ele><time>2026-04-28T10:04:15.999Z</time></trkpt><trkpt lat="38.21482682110343" lon="15.636773547996777"><ele>13.0</ele><time>2026-04-28T10:04:16.999Z</time></trkpt><trkpt lat="38.21474347963834" lon="15.636780378716328"><ele>12.499999999999998</ele><time>2026-04-28T10:04:17.999Z</time></trkpt><trkpt lat="38.21467515202508" lon="15.636785505327824"><ele>12.0</ele><time>2026-04-28T10:04:18.999Z</time></trkpt><trkpt lat="38.21461207511172" lon="15.636790296619836"><ele>11.5</ele><time>2026-04-28T10:04:19.999Z</time></trkpt><trkpt lat="38.214525635105254" lon="15.636809647665574"><ele>11.0</ele><time>2026-04-28T10:04:21.999Z</time></trkpt><trkpt lat="38.21453624469914" lon="15.636888971388661"><ele>10.5</ele><time>2026-04-28T10:04:27.999Z</time></trkpt><trkpt lat="38.21466018071246" lon="15.636917004216345"><ele>10.0</ele><time>2026-04-28T10:04:29.999Z</time></trkpt><trkpt lat="38.214802304102385" lon="15.636890853534103"><ele>10.75</ele><time>2026-04-28T10:04:30.999Z</time></trkpt><trkpt lat="38.21495348722816" lon="15.636885218898039"><ele>11.5</ele><time>2026-04-28T10:04:31.999Z</time></trkpt><trkpt lat="38.21507670851399" lon="15.63689189750961"><ele>12.25</ele><time>2026-04-28T10:04:32.999Z</time></trkpt><trkpt lat="38.215179883768336" lon="15.636895501068869"><ele>13.0</ele><time>2026-04-28T10:04:33.999Z</time></trkpt><trkpt lat="38.215277385621796" lon="15.636958118904465"><ele>13.0</ele><time>2026-04-28T10:04:34.999Z</time></trkpt><trkpt lat="38.215374269465734" lon="15.636954254004086"><ele>13.0</ele><time>2026-04-28T10:04:35.999Z</time></trkpt><trkpt lat="38.21545505907636" lon="15.636951031127472"><ele>13.0</ele><time>2026-04-28T10:04:36.999Z</time></trkpt><trkpt lat="38.215570751801486" lon="15.636946415895304"><ele>13.0</ele><time>2026-04-28T10:04:38.999Z</time></trkpt><trkpt lat="38.21567401937822" lon="15.63694229620598"><ele>13.0</ele><time>2026-04-28T10:04:40.999Z</time></trkpt><trkpt lat="38.21576865005734" lon="15.636940891616236"><ele>13.0</ele><time>2026-04-28T10:04:42.999Z</time></trkpt><trkpt lat="38.21586489372892" lon="15.63693826627704"><ele>13.0</ele><time>2026-04-28T10:04:44.999Z</time></trkpt><trkpt lat="38.21601109792862" lon="15.636933719126725"><ele>13.0</ele><time>2026-04-28T10:04:46.999Z</time></trkpt><trkpt lat="38.21610850062009" lon="15.636930427569673"><ele>13.0</ele><time>2026-04-28T10:04:47.999Z</time></trkpt><trkpt lat="38.21621316213154" lon="15.6369268907161"><ele>13.0</ele><time>2026-04-28T10:04:48.999Z</time></trkpt><trkpt lat="38.216313967216216" lon="15.636923740781162"><ele>12.999999999999998</ele><time>2026-04-28T10:04:49.999Z</time></trkpt><trkpt lat="38.21639887025584" lon="15.636921520556609"><ele>13.0</ele><time>2026-04-28T10:04:50.999Z</time></trkpt><trkpt lat="38.21646971256087" lon="15.636919668021953"><ele>13.0</ele><time>2026-04-28T10:04:51.999Z</time></trkpt><trkpt lat="38.21659891581498" lon="15.636912310957635"><ele>13.0</ele><time>2026-04-28T10:04:53.999Z</time></trkpt><trkpt lat="38.216669090771454" lon="15.636907979566015"><ele>12.999999999999998</ele><time>2026-04-28T10:04:54.999Z</time></trkpt><trkpt lat="38.21673016099993" lon="15.636872626111051"><ele>13.0</ele><time>2026-04-28T10:04:55.999Z</time></trkpt><trkpt lat="38.21685069806877" lon="15.63686581380996"><ele>13.75</ele><time>2026-04-28T10:04:57.999Z</time></trkpt><trkpt lat="38.216947258688556" lon="15.636860356582607"><ele>14.5</ele><time>2026-04-28T10:04:59.999Z</time></trkpt><trkpt lat="38.216934582782834" lon="15.636606599058702"><ele>15.25</ele><time>2026-04-28T10:05:01.999Z</time></trkpt><trkpt lat="38.21691766492104" lon="15.636482924089838"><ele>16.0</ele><time>2026-04-28T10:05:02.999Z</time></trkpt><trkpt lat="38.21688800991908" lon="15.63637373630107"><ele>15.999999999999998</ele><time>2026-04-28T10:05:03.999Z</time></trkpt><trkpt lat="38.21686304943776" lon="15.636286985989896"><ele>16.0</ele><time>2026-04-28T10:05:04.999Z</time></trkpt><trkpt lat="38.21682968093558" lon="15.636200059437385"><ele>16.0</ele><time>2026-04-28T10:05:05.999Z</time></trkpt><trkpt lat="38.21680844474434" lon="15.636098356555724"><ele>16.0</ele><time>2026-04-28T10:05:07.999Z</time></trkpt><trkpt lat="38.21681226030975" lon="15.635960210097291"><ele>15.999999999999998</ele><time>2026-04-28T10:05:09.999Z</time></trkpt><trkpt lat="38.216814188605206" lon="15.635822952010624"><ele>16.0</ele><time>2026-04-28T10:05:10.999Z</time></trkpt><trkpt lat="38.21680817157787" lon="15.635664086260784"><ele>16.0</ele><time>2026-04-28T10:05:11.999Z</time></trkpt><trkpt lat="38.216797180379615" lon="15.63552069429889"><ele>16.0</ele><time>2026-04-28T10:05:12.999Z</time></trkpt><trkpt lat="38.21679436748948" lon="15.635408506369494"><ele>16.0</ele><time>2026-04-28T10:05:13.999Z</time></trkpt><trkpt lat="38.21679444341687" lon="15.635315300908578"><ele>16.0</ele><time>2026-04-28T10:05:14.999Z</time></trkpt><trkpt lat="38.21679845719253" lon="15.635174058528136"><ele>16.0</ele><time>2026-04-28T10:05:16.999Z</time></trkpt><trkpt lat="38.21681545975818" lon="15.635078709728338"><ele>15.600000000000001</ele><time>2026-04-28T10:05:20.999Z</time></trkpt><trkpt lat="38.21688505894752" lon="15.635048528294906"><ele>15.200000000000001</ele><time>2026-04-28T10:05:22.998Z</time></trkpt><trkpt lat="38.2169828113981" lon="15.634984686856178"><ele>14.799999999999999</ele><time>2026-04-28T10:06:21.999Z</time></trkpt><trkpt lat="38.21705325290307" lon="15.634944653056069"><ele>14.399999999999999</ele><time>2026-04-28T10:06:22.999Z</time></trkpt><trkpt lat="38.21715447810233" lon="15.63492411126128"><ele>14.0</ele><time>2026-04-28T10:06:23.999Z</time></trkpt><trkpt lat="38.2172547971925" lon="15.634917160608486"><ele>14.2</ele><time>2026-04-28T10:06:24.999Z</time></trkpt><trkpt lat="38.21733047535403" lon="15.634914289133215"><ele>14.399999999999999</ele><time>2026-04-28T10:06:25.999Z</time></trkpt><trkpt lat="38.217408907241065" lon="15.634829218022261"><ele>14.6</ele><time>2026-04-28T10:06:27.999Z</time></trkpt><trkpt lat="38.21741191585197" lon="15.634718367291907"><ele>14.8</ele><time>2026-04-28T10:06:28.999Z</time></trkpt><trkpt lat="38.21739481283052" lon="15.63456017180365"><ele>15.0</ele><time>2026-04-28T10:06:29.999Z</time></trkpt><trkpt lat="38.21737271209254" lon="15.634408318846559"><ele>13.6</ele><time>2026-04-28T10:06:30.999Z</time></trkpt><trkpt lat="38.217372821019225" lon="15.634290539830637"><ele>12.2</ele><time>2026-04-28T10:06:31.999Z</time></trkpt><trkpt lat="38.21738007876992" lon="15.634184419264516"><ele>10.8</ele><time>2026-04-28T10:06:32.999Z</time></trkpt><trkpt lat="38.217397021381466" lon="15.634064432208625"><ele>9.4</ele><time>2026-04-28T10:06:33.999Z</time></trkpt><trkpt lat="38.217409282284315" lon="15.63395466682601"><ele>8.0</ele><time>2026-04-28T10:06:34.999Z</time></trkpt><trkpt lat="38.21741860479578" lon="15.633838966820148"><ele>8.0</ele><time>2026-04-28T10:06:35.999Z</time></trkpt><trkpt lat="38.217435590503946" lon="15.633745628736563"><ele>8.0</ele><time>2026-04-28T10:06:36.999Z</time></trkpt><trkpt lat="38.21755501186204" lon="15.633816888193655"><ele>8.0</ele><time>2026-04-28T10:06:39.999Z</time></trkpt><trkpt lat="38.21764893242401" lon="15.633813994435243"><ele>8.0</ele><time>2026-04-28T10:06:40.999Z</time></trkpt><trkpt lat="38.2177361372826" lon="15.633812631862996"><ele>8.0</ele><time>2026-04-28T10:06:41.999Z</time></trkpt><trkpt lat="38.21783962943962" lon="15.633811014797336"><ele>8.0</ele><time>2026-04-28T10:06:42.999Z</time></trkpt><trkpt lat="38.217942222829045" lon="15.633807042828288"><ele>8.0</ele><time>2026-04-28T10:06:43.999Z</time></trkpt><trkpt lat="38.21805008614787" lon="15.633799722194292"><ele>8.0</ele><time>2026-04-28T10:06:44.999Z</time></trkpt><trkpt lat="38.21814902643157" lon="15.633793131662854"><ele>8.0</ele><time>2026-04-28T10:06:45.999Z</time></trkpt><trkpt lat="38.21823880539191" lon="15.633788387755697"><ele>8.0</ele><time>2026-04-28T10:06:46.999Z</time></trkpt><trkpt lat="38.21832791284832" lon="15.63378676926837"><ele>7.75</ele><time>2026-04-28T10:06:47.999Z</time></trkpt><trkpt lat="38.21842959083866" lon="15.633786148437762"><ele>7.5</ele><time>2026-04-28T10:06:48.999Z</time></trkpt><trkpt lat="38.21853872508188" lon="15.633787574681048"><ele>7.25</ele><time>2026-04-28T10:06:49.999Z</time></trkpt><trkpt lat="38.21866268747214" lon="15.633789084383933"><ele>7.0</ele><time>2026-04-28T10:06:50.999Z</time></trkpt><trkpt lat="38.218807651332334" lon="15.633790535100399"><ele>7.0</ele><time>2026-04-28T10:06:51.999Z</time></trkpt><trkpt lat="38.218931226757554" lon="15.633791325058851"><ele>6.999999999999999</ele><time>2026-04-28T10:06:52.999Z</time></trkpt><trkpt lat="38.219034584413016" lon="15.63379102914142"><ele>6.999999999999999</ele><time>2026-04-28T10:06:53.999Z</time></trkpt><trkpt lat="38.219132515590815" lon="15.63379074749936"><ele>7.0</ele><time>2026-04-28T10:06:54.999Z</time></trkpt><trkpt lat="38.21922350201933" lon="15.633790485829639"><ele>7.0</ele><time>2026-04-28T10:06:55.999Z</time></trkpt><trkpt lat="38.2193101543699" lon="15.633790236622644"><ele>7.0</ele><time>2026-04-28T10:06:56.999Z</time></trkpt><trkpt lat="38.219404050294806" lon="15.633790136282874"><ele>7.0</ele><time>2026-04-28T10:06:57.999Z</time></trkpt><trkpt lat="38.21954175216586" lon="15.63379087097479"><ele>7.0</ele><time>2026-04-28T10:06:58.999Z</time></trkpt><trkpt lat="38.21972062932156" lon="15.633792728418165"><ele>7.0</ele><time>2026-04-28T10:06:59.999Z</time></trkpt><trkpt lat="38.21989762675377" lon="15.633794655760232"><ele>7.0</ele><time>2026-04-28T10:07:00.999Z</time></trkpt><trkpt lat="38.22005492481309" lon="15.633795624519788"><ele>7.0</ele><time>2026-04-28T10:07:01.999Z</time></trkpt><trkpt lat="38.220180831403255" lon="15.633796399947503"><ele>7.0</ele><time>2026-04-28T10:07:02.999Z</time></trkpt><trkpt lat="38.22028756150589" lon="15.63379402066619"><ele>7.0</ele><time>2026-04-28T10:07:03.999Z</time></trkpt><trkpt lat="38.22039395000802" lon="15.63378057737106"><ele>7.0</ele><time>2026-04-28T10:07:04.999Z</time></trkpt><trkpt lat="38.22052008595164" lon="15.633717206683714"><ele>7.0</ele><time>2026-04-28T10:07:05.999Z</time></trkpt><trkpt lat="38.22053804151881" lon="15.633517005527905"><ele>7.0</ele><time>2026-04-28T10:07:06.999Z</time></trkpt><trkpt lat="38.22059826680551" lon="15.63345908287214"><ele>7.0</ele><time>2026-04-28T10:07:07.999Z</time></trkpt><trkpt lat="38.22068231317515" lon="15.63338546688063"><ele>6.333333333333334</ele><time>2026-04-28T10:07:09.999Z</time></trkpt><trkpt lat="38.22075183040931" lon="15.633344874801434"><ele>5.666666666666667</ele><time>2026-04-28T10:07:12.999Z</time></trkpt><trkpt lat="38.22080458720642" lon="15.633288084652254"><ele>5.0</ele><time>2026-04-28T10:07:18.999Z</time></trkpt><trkpt lat="38.22082281596301" lon="15.633194281428885"><ele>4.333333333333334</ele><time>2026-04-28T10:07:29.998Z</time></trkpt><trkpt lat="38.220772019184786" lon="15.633263712457198"><ele>3.666666666666667</ele><time>2026-04-28T10:08:18.999Z</time></trkpt><trkpt lat="38.220699595518894" lon="15.63330329127269"><ele>3.0</ele><time>2026-04-28T10:08:20.999Z</time></trkpt><trkpt lat="38.220627328069114" lon="15.633340756660385"><ele>2.6</ele><time>2026-04-28T10:08:22.999Z</time></trkpt><trkpt lat="38.220561083693376" lon="15.633382439087777"><ele>2.1999999999999997</ele><time>2026-04-28T10:08:24.999Z</time></trkpt><trkpt lat="38.22048863721371" lon="15.633459924274067"><ele>1.8</ele><time>2026-04-28T10:08:26.999Z</time></trkpt><trkpt lat="38.220415180372136" lon="15.633536488227405"><ele>1.4</ele><time>2026-04-28T10:08:28.999Z</time></trkpt><trkpt lat="38.22032027523485" lon="15.633578887042946"><ele>1.0</ele><time>2026-04-28T10:08:30.999Z</time></trkpt><trkpt lat="38.22021109611065" lon="15.63359894696215"><ele>1.0</ele><time>2026-04-28T10:08:32.999Z</time></trkpt><trkpt lat="38.220087419019904" lon="15.63360389145898"><ele>1.0</ele><time>2026-04-28T10:08:34.999Z</time></trkpt><trkpt lat="38.22001369260145" lon="15.633620572977126"><ele>1.0</ele><time>2026-04-28T10:08:35.999Z</time></trkpt><trkpt lat="38.21994796970721" lon="15.633656741789485"><ele>1.0</ele><time>2026-04-28T10:08:36.999Z</time></trkpt><trkpt lat="38.21988601670882" lon="15.6336800408617"><ele>1.0</ele><time>2026-04-28T10:08:37.999Z</time></trkpt><trkpt lat="38.21976782952825" lon="15.633711753043933"><ele>2.2</ele><time>2026-04-28T10:08:39.999Z</time></trkpt><trkpt lat="38.21970374892779" lon="15.633739960181405"><ele>3.4</ele><time>2026-04-28T10:08:40.999Z</time></trkpt><trkpt lat="38.21961006587649" lon="15.633778792530304"><ele>4.6</ele><time>2026-04-28T10:08:41.999Z</time></trkpt><trkpt lat="38.219503085581216" lon="15.63380342014981"><ele>5.8</ele><time>2026-04-28T10:08:42.999Z</time></trkpt><trkpt lat="38.21936866342779" lon="15.63374781640564"><ele>7.0</ele><time>2026-04-28T10:08:43.999Z</time></trkpt><trkpt lat="38.219216451138706" lon="15.633748254150921"><ele>7.0</ele><time>2026-04-28T10:08:44.999Z</time></trkpt><trkpt lat="38.21904574014664" lon="15.633748745107107"><ele>7.0</ele><time>2026-04-28T10:08:45.999Z</time></trkpt><trkpt lat="38.218867305695284" lon="15.633748880268442"><ele>7.0</ele><time>2026-04-28T10:08:46.999Z</time></trkpt><trkpt lat="38.21866480340876" lon="15.633746853745674"><ele>7.0</ele><time>2026-04-28T10:08:47.999Z</time></trkpt><trkpt lat="38.21844964527874" lon="15.63375446361749"><ele>7.0</ele><time>2026-04-28T10:08:48.999Z</time></trkpt><trkpt lat="38.21822520160726" lon="15.63375228660612"><ele>7.0</ele><time>2026-04-28T10:08:49.999Z</time></trkpt><trkpt lat="38.218029289123955" lon="15.63375869565275"><ele>7.333333333333334</ele><time>2026-04-28T10:08:50.999Z</time></trkpt><trkpt lat="38.21785836681227" lon="15.633772439144686"><ele>7.666666666666666</ele><time>2026-04-28T10:08:51.999Z</time></trkpt><trkpt lat="38.217705881349765" lon="15.63378681349603"><ele>8.0</ele><time>2026-04-28T10:08:52.999Z</time></trkpt><trkpt lat="38.21757108074651" lon="15.633792672069653"><ele>7.999999999999999</ele><time>2026-04-28T10:08:53.999Z</time></trkpt><trkpt lat="38.217466726713646" lon="15.633775042041085"><ele>8.0</ele><time>2026-04-28T10:08:54.999Z</time></trkpt><trkpt lat="38.21739354674556" lon="15.633777372574752"><ele>8.0</ele><time>2026-04-28T10:08:55.999Z</time></trkpt><trkpt lat="38.21733493314439" lon="15.63380676211376"><ele>8.0</ele><time>2026-04-28T10:08:56.999Z</time></trkpt><trkpt lat="38.21731664410537" lon="15.633889034081141"><ele>7.999999999999999</ele><time>2026-04-28T10:08:57.999Z</time></trkpt><trkpt lat="38.2173279183967" lon="15.63406171401076"><ele>8.0</ele><time>2026-04-28T10:08:59.999Z</time></trkpt><trkpt lat="38.21733345987076" lon="15.63414720039919"><ele>8.0</ele><time>2026-04-28T10:09:00.999Z</time></trkpt><trkpt lat="38.217332451982365" lon="15.634307907964118"><ele>8.0</ele><time>2026-04-28T10:09:02.999Z</time></trkpt><trkpt lat="38.21733755320667" lon="15.634400544592683"><ele>8.0</ele><time>2026-04-28T10:09:03.999Z</time></trkpt><trkpt lat="38.217355449282095" lon="15.63463847109156"><ele>8.0</ele><time>2026-04-28T10:09:04.999Z</time></trkpt><trkpt lat="38.21736256501473" lon="15.634738633125126"><ele>9.0</ele><time>2026-04-28T10:09:08.999Z</time></trkpt><trkpt lat="38.21736781499216" lon="15.634832517220387"><ele>10.0</ele><time>2026-04-28T10:09:13.999Z</time></trkpt><trkpt lat="38.217360681131034" lon="15.634912841815797"><ele>11.0</ele><time>2026-04-28T10:09:18.999Z</time></trkpt><trkpt lat="38.21727745131308" lon="15.634877982148417"><ele>12.0</ele><time>2026-04-28T10:09:21.999Z</time></trkpt><trkpt lat="38.21720610753973" lon="15.634858999605093"><ele>13.000000000000002</ele><time>2026-04-28T10:09:23.998Z</time></trkpt><trkpt lat="38.21713261672327" lon="15.634859016005203"><ele>14.0</ele><time>2026-04-28T10:09:25.998Z</time></trkpt><trkpt lat="38.217042947520916" lon="15.634851377119036"><ele>14.000000000000002</ele><time>2026-04-28T10:09:27.998Z</time></trkpt><trkpt lat="38.21694216285017" lon="15.634818971311661"><ele>14.0</ele><time>2026-04-28T10:09:29.998Z</time></trkpt><trkpt lat="38.2168710603857" lon="15.634802653612404"><ele>14.0</ele><time>2026-04-28T10:09:30.998Z</time></trkpt><trkpt lat="38.21679406452264" lon="15.63479003601713"><ele>14.0</ele><time>2026-04-28T10:09:31.998Z</time></trkpt><trkpt lat="38.21673250326064" lon="15.634821848931074"><ele>14.000000000000002</ele><time>2026-04-28T10:09:32.998Z</time></trkpt><trkpt lat="38.21665180236216" lon="15.634766206730916"><ele>14.0</ele><time>2026-04-28T10:09:34.998Z</time></trkpt><trkpt lat="38.216585493080935" lon="15.634756802383569"><ele>14.0</ele><time>2026-04-28T10:10:11.999Z</time></trkpt><trkpt lat="38.216648654797396" lon="15.634751952621999"><ele>14.0</ele><time>2026-04-28T10:10:24.999Z</time></trkpt><trkpt lat="38.216664802790284" lon="15.634657337911813"><ele>14.0</ele><time>2026-04-28T10:10:30.999Z</time></trkpt><trkpt lat="38.21663719698293" lon="15.63456197164955"><ele>14.0</ele><time>2026-04-28T10:10:32.999Z</time></trkpt><trkpt lat="38.216685950951145" lon="15.634493207517687"><ele>14.0</ele><time>2026-04-28T10:10:34.999Z</time></trkpt><trkpt lat="38.21675249916165" lon="15.634451411719626"><ele>14.0</ele><time>2026-04-28T10:10:38.999Z</time></trkpt><trkpt lat="38.21682402418977" lon="15.63440763403819"><ele>14.0</ele><time>2026-04-28T10:10:43.999Z</time></trkpt><trkpt lat="38.21689160309238" lon="15.634398890121291"><ele>14.0</ele><time>2026-04-28T10:10:49.999Z</time></trkpt><trkpt lat="38.216931503597976" lon="15.63446106185859"><ele>14.0</ele><time>2026-04-28T10:10:56.999Z</time></trkpt><trkpt lat="38.216867354543346" lon="15.634469020421944"><ele>14.0</ele><time>2026-04-28T10:13:06.999Z</time></trkpt><trkpt lat="38.21679662175392" lon="15.634453540321026"><ele>14.0</ele><time>2026-04-28T10:13:10.999Z</time></trkpt><trkpt lat="38.216725843906836" lon="15.634465369231261"><ele>14.0</ele><time>2026-04-28T10:13:14.999Z</time></trkpt><trkpt lat="38.21665442783303" lon="15.634486395324316"><ele>14.0</ele><time>2026-04-28T10:13:18.999Z</time></trkpt><trkpt lat="38.21665701884973" lon="15.634610332560733"><ele>14.0</ele><time>2026-04-28T10:13:32.999Z</time></trkpt><trkpt lat="38.21662503028784" lon="15.63470474726168"><ele>14.0</ele><time>2026-04-28T10:13:34.999Z</time></trkpt><trkpt lat="38.216632358712836" lon="15.634866447201967"><ele>13.999999999999998</ele><time>2026-04-28T10:15:37.999Z</time></trkpt><trkpt lat="38.216700813419074" lon="15.634903361084014"><ele>13.999999999999998</ele><time>2026-04-28T10:15:38.999Z</time></trkpt><trkpt lat="38.21678707685226" lon="15.634942472687893"><ele>14.0</ele><time>2026-04-28T10:15:39.999Z</time></trkpt><trkpt lat="38.21688331884922" lon="15.634966938240463"><ele>14.0</ele><time>2026-04-28T10:15:40.999Z</time></trkpt><trkpt lat="38.21697453027213" lon="15.634965453332851"><ele>14.000000000000002</ele><time>2026-04-28T10:15:41.999Z</time></trkpt><trkpt lat="38.217052680343144" lon="15.634950691441851"><ele>14.0</ele><time>2026-04-28T10:15:42.999Z</time></trkpt><trkpt lat="38.21713323337341" lon="15.634932512230662"><ele>14.0</ele><time>2026-04-28T10:15:43.999Z</time></trkpt><trkpt lat="38.21721196161362" lon="15.634947216796046"><ele>14.0</ele><time>2026-04-28T10:15:44.999Z</time></trkpt><trkpt lat="38.21727840873633" lon="15.634955800749934"><ele>14.000000000000002</ele><time>2026-04-28T10:15:45.999Z</time></trkpt><trkpt lat="38.21737256375663" lon="15.634968718232363"><ele>14.0</ele><time>2026-04-28T10:15:47.999Z</time></trkpt><trkpt lat="38.21740458102149" lon="15.634802016393994"><ele>14.2</ele><time>2026-04-28T10:15:48.999Z</time></trkpt><trkpt lat="38.21740622837129" lon="15.634682546400112"><ele>14.399999999999999</ele><time>2026-04-28T10:15:49.999Z</time></trkpt><trkpt lat="38.21739050068851" lon="15.634543380610113"><ele>14.6</ele><time>2026-04-28T10:15:50.999Z</time></trkpt><trkpt lat="38.21738400145508" lon="15.63441515284938"><ele>14.8</ele><time>2026-04-28T10:15:51.999Z</time></trkpt><trkpt lat="38.21738429666904" lon="15.634297864068765"><ele>15.0</ele><time>2026-04-28T10:15:52.999Z</time></trkpt><trkpt lat="38.217387449818276" lon="15.634192609801428"><ele>13.833333333333334</ele><time>2026-04-28T10:15:53.999Z</time></trkpt><trkpt lat="38.21739317202349" lon="15.634092431327518"><ele>12.666666666666666</ele><time>2026-04-28T10:15:54.999Z</time></trkpt><trkpt lat="38.217396740424896" lon="15.63399826354924"><ele>11.5</ele><time>2026-04-28T10:15:55.999Z</time></trkpt><trkpt lat="38.21740013496918" lon="15.633898817503079"><ele>10.333333333333332</ele><time>2026-04-28T10:15:56.999Z</time></trkpt><trkpt lat="38.2173841555626" lon="15.633799489669832"><ele>9.166666666666666</ele><time>2026-04-28T10:15:57.999Z</time></trkpt><trkpt lat="38.2173972086126" lon="15.633664770990015"><ele>8.0</ele><time>2026-04-28T10:15:59.999Z</time></trkpt><trkpt lat="38.21750800142533" lon="15.633719409370958"><ele>8.0</ele><time>2026-04-28T10:16:01.999Z</time></trkpt><trkpt lat="38.217618644191084" lon="15.633814752420736"><ele>8.0</ele><time>2026-04-28T10:16:02.999Z</time></trkpt><trkpt lat="38.21772478903277" lon="15.63381281051024"><ele>8.0</ele><time>2026-04-28T10:16:03.999Z</time></trkpt><trkpt lat="38.21782825255876" lon="15.633811193893203"><ele>8.0</ele><time>2026-04-28T10:16:04.998Z</time></trkpt><trkpt lat="38.21792051532739" lon="15.63380852171949"><ele>8.0</ele><time>2026-04-28T10:16:05.998Z</time></trkpt><trkpt lat="38.2180053477268" lon="15.633802747458185"><ele>8.0</ele><time>2026-04-28T10:16:06.998Z</time></trkpt><trkpt lat="38.21809925690121" lon="15.633796448201085"><ele>8.0</ele><time>2026-04-28T10:16:07.998Z</time></trkpt><trkpt lat="38.21820107066955" lon="15.633790342749505"><ele>8.0</ele><time>2026-04-28T10:16:08.998Z</time></trkpt><trkpt lat="38.21830444858698" lon="15.633786959825516"><ele>8.0</ele><time>2026-04-28T10:16:09.998Z</time></trkpt><trkpt lat="38.21841971596045" lon="15.63378603024939"><ele>8.0</ele><time>2026-04-28T10:16:10.998Z</time></trkpt><trkpt lat="38.21854010894706" lon="15.633787594099147"><ele>7.75</ele><time>2026-04-28T10:16:11.998Z</time></trkpt><trkpt lat="38.21866537942704" lon="15.633789112657427"><ele>7.5</ele><time>2026-04-28T10:16:12.998Z</time></trkpt><trkpt lat="38.2187906848607" lon="15.633790366641644"><ele>7.25</ele><time>2026-04-28T10:16:13.998Z</time></trkpt><trkpt lat="38.2189219306581" lon="15.63379135312602"><ele>7.0</ele><time>2026-04-28T10:16:15Z</time></trkpt><trkpt lat="38.21904016756547" lon="15.633791013083384"><ele>7.0</ele><time>2026-04-28T10:16:16Z</time></trkpt><trkpt lat="38.21915464023788" lon="15.633790683868641"><ele>6.999999999999999</ele><time>2026-04-28T10:16:17Z</time></trkpt><trkpt lat="38.21926531660369" lon="15.63379036557171"><ele>6.999999999999999</ele><time>2026-04-28T10:16:18Z</time></trkpt><trkpt lat="38.219374464760925" lon="15.633790051670225"><ele>7.0</ele><time>2026-04-28T10:16:19Z</time></trkpt><trkpt lat="38.21948205185803" lon="15.633790552450264"><ele>7.0</ele><time>2026-04-28T10:16:20Z</time></trkpt><trkpt lat="38.21959702843024" lon="15.633791165891944"><ele>7.0</ele><time>2026-04-28T10:16:21Z</time></trkpt><trkpt lat="38.2197153351975" lon="15.63379263640463"><ele>6.999999999999999</ele><time>2026-04-28T10:16:22Z</time></trkpt><trkpt lat="38.219826277241665" lon="15.633794564557075"><ele>6.999999999999999</ele><time>2026-04-28T10:16:23Z</time></trkpt><trkpt lat="38.21992859901754" lon="15.633794846507941"><ele>7.0</ele><time>2026-04-28T10:16:24Z</time></trkpt><trkpt lat="38.22002020797091" lon="15.633795410705735"><ele>7.0</ele><time>2026-04-28T10:16:25Z</time></trkpt><trkpt lat="38.22010371169141" lon="15.633795924983268"><ele>7.000000000000001</ele><time>2026-04-28T10:16:26Z</time></trkpt><trkpt lat="38.220179439257386" lon="15.633659329779137"><ele>7.0</ele><time>2026-04-28T10:16:27Z</time></trkpt><trkpt lat="38.22025555566802" lon="15.633653084345825"><ele>7.0</ele><time>2026-04-28T10:16:28Z</time></trkpt><trkpt lat="38.220339945308524" lon="15.633635806760774"><ele>7.0</ele><time>2026-04-28T10:16:29Z</time></trkpt><trkpt lat="38.220418057137294" lon="15.633606831451035"><ele>7.000000000000001</ele><time>2026-04-28T10:16:30Z</time></trkpt><trkpt lat="38.22047498317473" lon="15.633559939684435"><ele>7.0</ele><time>2026-04-28T10:16:31Z</time></trkpt><trkpt lat="38.220526944211" lon="15.633509450348807"><ele>6.333333333333334</ele><time>2026-04-28T10:16:32Z</time></trkpt><trkpt lat="38.22062019913708" lon="15.633412183041962"><ele>5.666666666666667</ele><time>2026-04-28T10:16:34Z</time></trkpt><trkpt lat="38.22066792762913" lon="15.633359043172135"><ele>5.0</ele><time>2026-04-28T10:16:35Z</time></trkpt><trkpt lat="38.22074401293069" lon="15.633309991501823"><ele>4.333333333333334</ele><time>2026-04-28T10:16:37Z</time></trkpt><trkpt lat="38.22084058102864" lon="15.633313827934387"><ele>3.666666666666667</ele><time>2026-04-28T10:16:39.999Z</time></trkpt><trkpt lat="38.22090595949664" lon="15.633335252498036"><ele>3.0</ele><time>2026-04-28T10:16:41.999Z</time></trkpt><trkpt lat="38.22107258886677" lon="15.633326721363202"><ele>3.0</ele><time>2026-04-28T10:16:43.999Z</time></trkpt><trkpt lat="38.22121486164321" lon="15.633301493329174"><ele>3.0</ele><time>2026-04-28T10:16:44.999Z</time></trkpt><trkpt lat="38.22135447832264" lon="15.63328677082951"><ele>3.0</ele><time>2026-04-28T10:16:45.999Z</time></trkpt><trkpt lat="38.22148965753019" lon="15.63327484517917"><ele>3.0</ele><time>2026-04-28T10:16:46.999Z</time></trkpt><trkpt lat="38.221635897099745" lon="15.633258929776686"><ele>3.5</ele><time>2026-04-28T10:16:47.999Z</time></trkpt><trkpt lat="38.22178911632956" lon="15.633239388316014"><ele>4.0</ele><time>2026-04-28T10:16:48.999Z</time></trkpt><trkpt lat="38.22192812079056" lon="15.633225025618543"><ele>4.5</ele><time>2026-04-28T10:16:49.999Z</time></trkpt><trkpt lat="38.22205295085047" lon="15.633211787530193"><ele>5.0</ele><time>2026-04-28T10:16:50.999Z</time></trkpt><trkpt lat="38.22216578254912" lon="15.633198806936925"><ele>5.0</ele><time>2026-04-28T10:16:51.999Z</time></trkpt><trkpt lat="38.222261058410304" lon="15.633190450686417"><ele>5.0</ele><time>2026-04-28T10:16:52.999Z</time></trkpt><trkpt lat="38.22233333576634" lon="15.63318518724278"><ele>5.0</ele><time>2026-04-28T10:16:53.999Z</time></trkpt><trkpt lat="38.22240791644232" lon="15.633179416755167"><ele>5.0</ele><time>2026-04-28T10:16:55.999Z</time></trkpt><trkpt lat="38.22252135433408" lon="15.63316061152945"><ele>5.0</ele><time>2026-04-28T10:32:21Z</time></trkpt><trkpt lat="38.22258346297535" lon="15.633093746002174"><ele>5.0</ele><time>2026-04-28T10:32:23Z</time></trkpt><trkpt lat="38.22261855338133" lon="15.633025914825614"><ele>5.0</ele><time>2026-04-28T10:32:25Z</time></trkpt><trkpt lat="38.22268275273919" lon="15.632980633939598"><ele>5.0</ele><time>2026-04-28T10:32:29Z</time></trkpt><trkpt lat="38.22274905377773" lon="15.632904882607933"><ele>5.0</ele><time>2026-04-28T10:32:32Z</time></trkpt><trkpt lat="38.22280093160351" lon="15.632833997643026"><ele>5.0</ele><time>2026-04-28T10:32:35Z</time></trkpt><trkpt lat="38.22286444712715" lon="15.632788122673006"><ele>5.0</ele><time>2026-04-28T10:32:39Z</time></trkpt><trkpt lat="38.22293234000806" lon="15.632716740138273"><ele>5.0</ele><time>2026-04-28T10:32:43Z</time></trkpt><trkpt lat="38.22299081160976" lon="15.632646149629116"><ele>4.75</ele><time>2026-04-28T10:32:46Z</time></trkpt><trkpt lat="38.22306776773145" lon="15.632688354075947"><ele>4.5</ele><time>2026-04-28T10:32:51Z</time></trkpt><trkpt lat="38.22300285229394" lon="15.632654493268138"><ele>4.25</ele><time>2026-04-28T10:32:53Z</time></trkpt><trkpt lat="38.22292124031575" lon="15.63256349220157"><ele>4.0</ele><time>2026-04-28T10:32:55Z</time></trkpt><trkpt lat="38.22366694206792" lon="15.632824803178048"><ele>3.5</ele><time>2026-04-28T10:33:12Z</time></trkpt><trkpt lat="38.22356940641882" lon="15.632790443949792"><ele>3.0</ele><time>2026-04-28T10:33:14Z</time></trkpt><trkpt lat="38.223500713216715" lon="15.632779483783194"><ele>2.5</ele><time>2026-04-28T10:33:15Z</time></trkpt><trkpt lat="38.223387289013544" lon="15.632745482812002"><ele>2.0</ele><time>2026-04-28T10:33:16Z</time></trkpt><trkpt lat="38.22206792708734" lon="15.632584674746802"><ele>1.5</ele><time>2026-04-28T10:33:17Z</time></trkpt><trkpt lat="38.22199927689668" lon="15.63265093428342"><ele>1.0</ele><time>2026-04-28T10:33:18Z</time></trkpt><trkpt lat="38.22177920120096" lon="15.63274131030105"><ele>0.5</ele><time>2026-04-28T10:33:21Z</time></trkpt><trkpt lat="38.221776791213415" lon="15.632835786434923"><ele>0.0</ele><time>2026-04-28T10:33:22Z</time></trkpt><trkpt lat="38.22169168221521" lon="15.63289702730375"><ele>1.5</ele><time>2026-04-28T10:33:23Z</time></trkpt><trkpt lat="38.22159374816828" lon="15.632914865247866"><ele>3.0</ele><time>2026-04-28T10:33:24.063Z</time></trkpt><trkpt lat="38.221130640764535" lon="15.632988201177541"><ele>3.0</ele><time>2026-04-28T10:33:25.037Z</time></trkpt><trkpt lat="38.22089306852525" lon="15.633031375744602"><ele>3.0</ele><time>2026-04-28T10:33:26.035Z</time></trkpt><trkpt lat="38.22071724973185" lon="15.633055561658113"><ele>3.0</ele><time>2026-04-28T10:33:27.037Z</time></trkpt><trkpt lat="38.22047651648563" lon="15.633101748855886"><ele>3.0</ele><time>2026-04-28T10:33:28.038Z</time></trkpt><trkpt lat="38.22036920392652" lon="15.633167095792965"><ele>3.0</ele><time>2026-04-28T10:33:29.036Z</time></trkpt><trkpt lat="38.220332529105185" lon="15.633243287048613"><ele>3.0</ele><time>2026-04-28T10:33:30.038Z</time></trkpt><trkpt lat="38.22048082093338" lon="15.633310404365991"><ele>3.0</ele><time>2026-04-28T10:33:32.034Z</time></trkpt><trkpt lat="38.2213712551371" lon="15.633064468136185"><ele>3.0</ele><time>2026-04-28T10:33:33.038Z</time></trkpt><trkpt lat="38.221136195255326" lon="15.63319166282432"><ele>3.0</ele><time>2026-04-28T10:33:34.038Z</time></trkpt><trkpt lat="38.22055761283641" lon="15.633330888134475"><ele>2.0</ele><time>2026-04-28T10:33:35.035Z</time></trkpt><trkpt lat="38.223577005332146" lon="15.632205158505215"><ele>1.9999999999999998</ele><time>2026-04-28T10:36:24.001Z</time></trkpt><trkpt lat="38.2234659562493" lon="15.63220100630908"><ele>2.0</ele><time>2026-04-28T10:36:28.001Z</time></trkpt><trkpt lat="38.223543607488246" lon="15.632193503710674"><ele>2.0</ele><time>2026-04-28T10:41:28Z</time></trkpt><trkpt lat="38.223582983775515" lon="15.632125345032183"><ele>2.0</ele><time>2026-04-28T10:41:36Z</time></trkpt><trkpt lat="38.223617170431524" lon="15.63205772112956"><ele>1.9999999999999998</ele><time>2026-04-28T10:41:40Z</time></trkpt><trkpt lat="38.22366957348374" lon="15.63200410768378"><ele>2.0</ele><time>2026-04-28T10:41:43Z</time></trkpt><trkpt lat="38.22369435682715" lon="15.631905448614912"><ele>1.7142857142857142</ele><time>2026-04-28T10:41:47Z</time></trkpt><trkpt lat="38.22371439198455" lon="15.63182608610157"><ele>1.4285714285714284</ele><time>2026-04-28T10:41:50Z</time></trkpt><trkpt lat="38.22374988554539" lon="15.631742761835431"><ele>1.1428571428571428</ele><time>2026-04-28T10:41:54Z</time></trkpt><trkpt lat="38.22377573075932" lon="15.631666914710301"><ele>0.8571428571428571</ele><time>2026-04-28T10:41:58Z</time></trkpt><trkpt lat="38.22380258506522" lon="15.631592743195668"><ele>0.5714285714285714</ele><time>2026-04-28T10:42:02.001Z</time></trkpt><trkpt lat="38.22381051556866" lon="15.631502852420484"><ele>0.2857142857142857</ele><time>2026-04-28T10:42:06.001Z</time></trkpt><trkpt lat="38.22383944821282" lon="15.631418409197368"><ele>0.0</ele><time>2026-04-28T10:42:09.001Z</time></trkpt><trkpt lat="38.22386054274161" lon="15.631335990125063"><ele>0.0</ele><time>2026-04-28T10:42:11.001Z</time></trkpt><trkpt lat="38.22390337582907" lon="15.631197831025958"><ele>0.0</ele><time>2026-04-28T10:42:14.001Z</time></trkpt><trkpt lat="38.223935277613556" lon="15.63112835996292"><ele>0.0</ele><time>2026-04-28T10:42:16.001Z</time></trkpt><trkpt lat="38.22395877568753" lon="15.631043535767999"><ele>0.0</ele><time>2026-04-28T10:42:18.001Z</time></trkpt><trkpt lat="38.22398810458322" lon="15.630956567044564"><ele>0.0</ele><time>2026-04-28T10:42:21.001Z</time></trkpt><trkpt lat="38.223981324975405" lon="15.630861180731893"><ele>0.0</ele><time>2026-04-28T10:42:27.001Z</time></trkpt><trkpt lat="38.224010906708905" lon="15.630763539472937"><ele>0.0</ele><time>2026-04-28T10:42:29.001Z</time></trkpt><trkpt lat="38.22401479286903" lon="15.630679849588384"><ele>0.0</ele><time>2026-04-28T10:42:31.001Z</time></trkpt><trkpt lat="38.22405616765276" lon="15.630594760990602"><ele>0.0</ele><time>2026-04-28T10:42:33.001Z</time></trkpt><trkpt lat="38.22406911734274" lon="15.630509679542797"><ele>0.0</ele><time>2026-04-28T10:42:36.001Z</time></trkpt><trkpt lat="38.224084690694205" lon="15.630414937658808"><ele>0.0</ele><time>2026-04-28T10:42:39.001Z</time></trkpt><trkpt lat="38.22411201169482" lon="15.63031703623462"><ele>0.0</ele><time>2026-04-28T10:42:41.001Z</time></trkpt><trkpt lat="38.22413828580032" lon="15.630207500203522"><ele>0.0</ele><time>2026-04-28T10:42:43.001Z</time></trkpt><trkpt lat="38.22417042989677" lon="15.630093385309655"><ele>0.0</ele><time>2026-04-28T10:42:45.001Z</time></trkpt><trkpt lat="38.22420817266178" lon="15.629951991486328"><ele>0.0</ele><time>2026-04-28T10:42:46.999Z</time></trkpt><trkpt lat="38.22424231131204" lon="15.62983851300922"><ele>0.0</ele><time>2026-04-28T10:42:48.999Z</time></trkpt><trkpt lat="38.22428735514608" lon="15.629724026562267"><ele>0.0</ele><time>2026-04-28T10:42:50.999Z</time></trkpt><trkpt lat="38.224319167239756" lon="15.629600867490616"><ele>0.0</ele><time>2026-04-28T10:42:52.999Z</time></trkpt><trkpt lat="38.22434730893803" lon="15.629466267094639"><ele>0.0</ele><time>2026-04-28T10:42:54.999Z</time></trkpt><trkpt lat="38.22438500437332" lon="15.629368233757143"><ele>0.0</ele><time>2026-04-28T10:42:56.999Z</time></trkpt><trkpt lat="38.22443138801783" lon="15.629274063574703"><ele>0.0</ele><time>2026-04-28T10:42:58.999Z</time></trkpt><trkpt lat="38.2244440559781" lon="15.629126648816886"><ele>0.0</ele><time>2026-04-28T10:43:00.999Z</time></trkpt><trkpt lat="38.22446851058795" lon="15.629038269304287"><ele>0.0</ele><time>2026-04-28T10:43:01.999Z</time></trkpt><trkpt lat="38.22451496383661" lon="15.628888816856156"><ele>0.0</ele><time>2026-04-28T10:43:03.999Z</time></trkpt><trkpt lat="38.22453784391461" lon="15.628789731327169"><ele>0.0</ele><time>2026-04-28T10:43:04.999Z</time></trkpt><trkpt lat="38.224557358834566" lon="15.628705294446616"><ele>0.0</ele><time>2026-04-28T10:43:05.999Z</time></trkpt><trkpt lat="38.22460876266938" lon="15.628570623990687"><ele>0.0</ele><time>2026-04-28T10:43:07.999Z</time></trkpt><trkpt lat="38.22463062088417" lon="15.628477515724365"><ele>0.0</ele><time>2026-04-28T10:43:08.999Z</time></trkpt><trkpt lat="38.22467993331839" lon="15.628333892948518"><ele>0.0</ele><time>2026-04-28T10:43:10.999Z</time></trkpt><trkpt lat="38.224718823254356" lon="15.628198370280533"><ele>0.0</ele><time>2026-04-28T10:43:13Z</time></trkpt><trkpt lat="38.22475791521626" lon="15.62805743707106"><ele>0.0</ele><time>2026-04-28T10:43:15Z</time></trkpt><trkpt lat="38.22480529897518" lon="15.627901502652323"><ele>0.0</ele><time>2026-04-28T10:43:17Z</time></trkpt><trkpt lat="38.22483343530032" lon="15.627822342515223"><ele>0.0</ele><time>2026-04-28T10:43:18Z</time></trkpt><trkpt lat="38.224849460951766" lon="15.627733275212538"><ele>0.0</ele><time>2026-04-28T10:43:19Z</time></trkpt><trkpt lat="38.22487914792158" lon="15.627656390781526"><ele>0.0</ele><time>2026-04-28T10:43:20Z</time></trkpt><trkpt lat="38.224907980835496" lon="15.62756709804147"><ele>0.0</ele><time>2026-04-28T10:43:21Z</time></trkpt><trkpt lat="38.22492581145263" lon="15.627474357108099"><ele>0.0</ele><time>2026-04-28T10:43:22Z</time></trkpt><trkpt lat="38.22494620256283" lon="15.627390870131912"><ele>0.0</ele><time>2026-04-28T10:43:23Z</time></trkpt><trkpt lat="38.22496631753058" lon="15.627310912731124"><ele>0.0</ele><time>2026-04-28T10:43:24Z</time></trkpt><trkpt lat="38.22499279221026" lon="15.627223910983457"><ele>0.0</ele><time>2026-04-28T10:43:25Z</time></trkpt><trkpt lat="38.225016081742325" lon="15.627136569534544"><ele>0.0</ele><time>2026-04-28T10:43:26Z</time></trkpt><trkpt lat="38.2250407918507" lon="15.627038579930497"><ele>0.0</ele><time>2026-04-28T10:43:27Z</time></trkpt><trkpt lat="38.22505827682483" lon="15.62694501195846"><ele>0.0</ele><time>2026-04-28T10:43:28Z</time></trkpt><trkpt lat="38.22508043773137" lon="15.62685838600424"><ele>0.0</ele><time>2026-04-28T10:43:29Z</time></trkpt><trkpt lat="38.22511173282387" lon="15.626689244257456"><ele>0.0</ele><time>2026-04-28T10:43:31Z</time></trkpt><trkpt lat="38.2251512677279" lon="15.62654748206415"><ele>0.0</ele><time>2026-04-28T10:43:33Z</time></trkpt><trkpt lat="38.22518917218862" lon="15.626392419918707"><ele>0.0</ele><time>2026-04-28T10:43:35Z</time></trkpt><trkpt lat="38.225207162929976" lon="15.626314340169852"><ele>0.0</ele><time>2026-04-28T10:43:36Z</time></trkpt><trkpt lat="38.225230395204896" lon="15.626232706941009"><ele>0.0</ele><time>2026-04-28T10:43:37Z</time></trkpt><trkpt lat="38.22527395967287" lon="15.626111605185578"><ele>0.0</ele><time>2026-04-28T10:43:39Z</time></trkpt><trkpt lat="38.225316037872126" lon="15.625976370817613"><ele>0.0</ele><time>2026-04-28T10:43:41Z</time></trkpt><trkpt lat="38.22536321540003" lon="15.625848306660329"><ele>0.0</ele><time>2026-04-28T10:43:43Z</time></trkpt><trkpt lat="38.225393217364285" lon="15.625719375412963"><ele>0.0</ele><time>2026-04-28T10:43:45Z</time></trkpt><trkpt lat="38.22543592375851" lon="15.625590888502762"><ele>0.0</ele><time>2026-04-28T10:43:47Z</time></trkpt><trkpt lat="38.22545977227162" lon="15.625431204685023"><ele>0.0</ele><time>2026-04-28T10:43:49Z</time></trkpt><trkpt lat="38.225494800566445" lon="15.62532573671039"><ele>0.0</ele><time>2026-04-28T10:43:51Z</time></trkpt><trkpt lat="38.225063067634075" lon="15.625276868408166"><ele>0.0</ele><time>2026-04-28T10:44:13.013Z</time></trkpt><trkpt lat="38.22493032329218" lon="15.62552323577469"><ele>0.0</ele><time>2026-04-28T10:44:23.893Z</time></trkpt><trkpt lat="38.22505994219921" lon="15.625519601570023"><ele>0.0</ele><time>2026-04-28T10:44:39.012Z</time></trkpt><trkpt lat="38.22503250961925" lon="15.625446271683659"><ele>0.0</ele><time>2026-04-28T10:44:50.014Z</time></trkpt><trkpt lat="38.2253342297821" lon="15.621348981527268"><ele>0.0</ele><time>2026-04-28T10:44:59.013Z</time></trkpt><trkpt lat="38.225308411584166" lon="15.6212600533853"><ele>0.0</ele><time>2026-04-28T10:45:09.017Z</time></trkpt><trkpt lat="38.225334305982905" lon="15.621060445676113"><ele>0.0</ele><time>2026-04-28T10:45:10.014Z</time></trkpt><trkpt lat="38.225346199351556" lon="15.620909292870929"><ele>0.0</ele><time>2026-04-28T10:45:11.015Z</time></trkpt><trkpt lat="38.22536013774813" lon="15.620813398325215"><ele>0.0</ele><time>2026-04-28T10:45:12.015Z</time></trkpt><trkpt lat="38.22540768197073" lon="15.620692211087357"><ele>0.0</ele><time>2026-04-28T10:45:13.014Z</time></trkpt><trkpt lat="38.225446786634286" lon="15.62059246353066"><ele>0.0</ele><time>2026-04-28T10:45:14.015Z</time></trkpt><trkpt lat="38.225478630660426" lon="15.62049438576126"><ele>0.0</ele><time>2026-04-28T10:45:15.015Z</time></trkpt><trkpt lat="38.225519159763124" lon="15.620396641523374"><ele>0.0</ele><time>2026-04-28T10:45:16.015Z</time></trkpt><trkpt lat="38.2255347759777" lon="15.620304565679866"><ele>0.0</ele><time>2026-04-28T10:45:17.016Z</time></trkpt><trkpt lat="38.22555809050839" lon="15.620202840078319"><ele>0.0</ele><time>2026-04-28T10:45:20.017Z</time></trkpt><trkpt lat="38.22568286012779" lon="15.619819171928864"><ele>0.0</ele><time>2026-04-28T10:45:21.015Z</time></trkpt><trkpt lat="38.225700574147005" lon="15.61965356521257"><ele>0.0</ele><time>2026-04-28T10:45:22.016Z</time></trkpt><trkpt lat="38.225682666254166" lon="15.61953751481132"><ele>0.0</ele><time>2026-04-28T10:45:24.016Z</time></trkpt><trkpt lat="38.225721978256594" lon="15.61942679372192"><ele>0.0</ele><time>2026-04-28T10:45:25.015Z</time></trkpt><trkpt lat="38.225713877036945" lon="15.619290886756566"><ele>0.0</ele><time>2026-04-28T10:45:27.016Z</time></trkpt><trkpt lat="38.225759790486464" lon="15.619126628904187"><ele>0.0</ele><time>2026-04-28T10:45:29.015Z</time></trkpt><trkpt lat="38.22581512249137" lon="15.618967471963334"><ele>0.0</ele><time>2026-04-28T10:45:31.015Z</time></trkpt><trkpt lat="38.22585123397056" lon="15.618863804331173"><ele>0.0</ele><time>2026-04-28T10:45:32.015Z</time></trkpt><trkpt lat="38.225911249083055" lon="15.618688708640736"><ele>0.0</ele><time>2026-04-28T10:45:33.014Z</time></trkpt><trkpt lat="38.22592626163528" lon="15.618586926116713"><ele>0.0</ele><time>2026-04-28T10:45:34.015Z</time></trkpt><trkpt lat="38.22593708063905" lon="15.618495757217326"><ele>0.0</ele><time>2026-04-28T10:45:35.015Z</time></trkpt><trkpt lat="38.22595638182455" lon="15.618389613147777"><ele>0.0</ele><time>2026-04-28T10:45:36.015Z</time></trkpt><trkpt lat="38.22596239616236" lon="15.618296873913504"><ele>0.0</ele><time>2026-04-28T10:45:37.017Z</time></trkpt><trkpt lat="38.2259635324409" lon="15.618181318492935"><ele>0.0</ele><time>2026-04-28T10:45:38.015Z</time></trkpt><trkpt lat="38.225985755149686" lon="15.618052579561386"><ele>0.0</ele><time>2026-04-28T10:45:39.015Z</time></trkpt><trkpt lat="38.2259944498591" lon="15.61792003273964"><ele>0.0</ele><time>2026-04-28T10:45:40.016Z</time></trkpt><trkpt lat="38.225972170937766" lon="15.617832830478973"><ele>0.0</ele><time>2026-04-28T10:45:41.015Z</time></trkpt><trkpt lat="38.22597225951374" lon="15.617688980968705"><ele>0.0</ele><time>2026-04-28T10:45:42.017Z</time></trkpt><trkpt lat="38.22594462359166" lon="15.617577578082143"><ele>0.0</ele><time>2026-04-28T10:45:43.015Z</time></trkpt><trkpt lat="38.225909127787574" lon="15.617487847064012"><ele>0.0</ele><time>2026-04-28T10:45:44.016Z</time></trkpt><trkpt lat="38.22587564493762" lon="15.617377153728661"><ele>0.0</ele><time>2026-04-28T10:45:45.015Z</time></trkpt><trkpt lat="38.225850592854776" lon="15.617281613365583"><ele>0.0</ele><time>2026-04-28T10:45:46.016Z</time></trkpt><trkpt lat="38.2258264502738" lon="15.61719801109625"><ele>0.0</ele><time>2026-04-28T10:45:47.015Z</time></trkpt><trkpt lat="38.22580011306326" lon="15.61711406027602"><ele>0.0</ele><time>2026-04-28T10:45:48.016Z</time></trkpt><trkpt lat="38.22577116026432" lon="15.617029895002595"><ele>0.0</ele><time>2026-04-28T10:45:49.015Z</time></trkpt><trkpt lat="38.22574155151746" lon="15.6169473475089"><ele>0.0</ele><time>2026-04-28T10:45:50.016Z</time></trkpt><trkpt lat="38.22570992978001" lon="15.616862945323659"><ele>0.0</ele><time>2026-04-28T10:45:51.015Z</time></trkpt><trkpt lat="38.22567430240308" lon="15.61677311548577"><ele>0.0</ele><time>2026-04-28T10:45:52.015Z</time></trkpt><trkpt lat="38.22564215463267" lon="15.616688431799234"><ele>0.0</ele><time>2026-04-28T10:45:53.018Z</time></trkpt><trkpt lat="38.225611346909794" lon="15.616607842992353"><ele>0.0</ele><time>2026-04-28T10:45:54.015Z</time></trkpt><trkpt lat="38.22558142086369" lon="15.616528898556773"><ele>0.0</ele><time>2026-04-28T10:45:55.017Z</time></trkpt><trkpt lat="38.2255520166092" lon="15.616451207506907"><ele>0.0</ele><time>2026-04-28T10:45:56.016Z</time></trkpt><trkpt lat="38.225523575220485" lon="15.616373136433113"><ele>0.0</ele><time>2026-04-28T10:45:57.016Z</time></trkpt><trkpt lat="38.22547709913401" lon="15.616168017302261"><ele>0.0</ele><time>2026-04-28T10:46:01.613Z</time></trkpt><trkpt lat="38.226988021735416" lon="15.611215257628858"><ele>0.0</ele><time>2026-04-28T10:50:06.004Z</time></trkpt><trkpt lat="38.22141271153408" lon="15.59559508677096"><ele>0.0</ele><time>2026-04-28T10:50:07.004Z</time></trkpt><trkpt lat="38.221368674400026" lon="15.595482654675097"><ele>0.0</ele><time>2026-04-28T10:50:08.004Z</time></trkpt><trkpt lat="38.22133534592396" lon="15.595399958298318"><ele>0.0</ele><time>2026-04-28T10:50:09.004Z</time></trkpt><trkpt lat="38.221305443273835" lon="15.595329000739644"><ele>0.0</ele><time>2026-04-28T10:50:10.004Z</time></trkpt><trkpt lat="38.221276433486985" lon="15.59523787885294"><ele>0.0</ele><time>2026-04-28T10:50:11.001Z</time></trkpt><trkpt lat="38.2212534917851" lon="15.595147256604003"><ele>0.0</ele><time>2026-04-28T10:50:12.001Z</time></trkpt><trkpt lat="38.22123654564041" lon="15.595052835287774"><ele>0.0</ele><time>2026-04-28T10:50:13.001Z</time></trkpt><trkpt lat="38.22119483473686" lon="15.594911666469732"><ele>0.0</ele><time>2026-04-28T10:50:15.001Z</time></trkpt><trkpt lat="38.22116907166919" lon="15.594833609614831"><ele>0.0</ele><time>2026-04-28T10:50:16.001Z</time></trkpt><trkpt lat="38.221145672745514" lon="15.594754976163989"><ele>0.0</ele><time>2026-04-28T10:50:17.001Z</time></trkpt><trkpt lat="38.221121782852684" lon="15.5946709026654"><ele>0.0</ele><time>2026-04-28T10:50:18.001Z</time></trkpt><trkpt lat="38.22109688074707" lon="15.594587427389495"><ele>0.0</ele><time>2026-04-28T10:50:19.001Z</time></trkpt><trkpt lat="38.221071470293786" lon="15.59450502748187"><ele>0.0</ele><time>2026-04-28T10:50:20.001Z</time></trkpt><trkpt lat="38.22104764375939" lon="15.594426599822024"><ele>0.0</ele><time>2026-04-28T10:50:21.001Z</time></trkpt><trkpt lat="38.221022914605314" lon="15.594348345677474"><ele>0.0</ele><time>2026-04-28T10:50:22.001Z</time></trkpt><trkpt lat="38.221002460964826" lon="15.594267820756023"><ele>0.0</ele><time>2026-04-28T10:50:23.001Z</time></trkpt><trkpt lat="38.22097911053032" lon="15.594191957745302"><ele>0.0</ele><time>2026-04-28T10:50:24.001Z</time></trkpt><trkpt lat="38.22093664674045" lon="15.594052326395351"><ele>0.0</ele><time>2026-04-28T10:50:26.001Z</time></trkpt><trkpt lat="38.22090942932365" lon="15.593970594352879"><ele>0.0</ele><time>2026-04-28T10:50:27.001Z</time></trkpt><trkpt lat="38.22088798548114" lon="15.59389338095211"><ele>0.0</ele><time>2026-04-28T10:50:28.001Z</time></trkpt><trkpt lat="38.220866868025254" lon="15.593806852906159"><ele>0.0</ele><time>2026-04-28T10:50:29.001Z</time></trkpt><trkpt lat="38.22081278006092" lon="15.59364613343539"><ele>0.0</ele><time>2026-04-28T10:50:31.001Z</time></trkpt><trkpt lat="38.22078547372158" lon="15.593568272132098"><ele>0.0</ele><time>2026-04-28T10:50:32.001Z</time></trkpt><trkpt lat="38.220760843409415" lon="15.593490163722871"><ele>0.0</ele><time>2026-04-28T10:50:33.001Z</time></trkpt><trkpt lat="38.22074045902061" lon="15.593411788764625"><ele>0.0</ele><time>2026-04-28T10:50:34.001Z</time></trkpt><trkpt lat="38.22071614747398" lon="15.593335497635273"><ele>0.0</ele><time>2026-04-28T10:50:35.001Z</time></trkpt><trkpt lat="38.22069221220473" lon="15.593253645326145"><ele>0.0</ele><time>2026-04-28T10:50:36.001Z</time></trkpt><trkpt lat="38.22066764100504" lon="15.593176176699712"><ele>0.0</ele><time>2026-04-28T10:50:37.001Z</time></trkpt><trkpt lat="38.22064000016558" lon="15.59309867994837"><ele>0.0</ele><time>2026-04-28T10:50:38.001Z</time></trkpt><trkpt lat="38.22061051674227" lon="15.593019517042487"><ele>0.0</ele><time>2026-04-28T10:50:39.001Z</time></trkpt><trkpt lat="38.22058133520515" lon="15.592936699905888"><ele>0.0</ele><time>2026-04-28T10:50:40.001Z</time></trkpt><trkpt lat="38.22055583719775" lon="15.592851403769831"><ele>0.0</ele><time>2026-04-28T10:50:41.001Z</time></trkpt><trkpt lat="38.220520306729135" lon="15.592703775424633"><ele>0.0</ele><time>2026-04-28T10:50:43.001Z</time></trkpt><trkpt lat="38.22047413656736" lon="15.592563311537683"><ele>0.0</ele><time>2026-04-28T10:50:45.001Z</time></trkpt><trkpt lat="38.220450437904546" lon="15.592480601387772"><ele>0.0</ele><time>2026-04-28T10:50:46.001Z</time></trkpt><trkpt lat="38.220427150074364" lon="15.592403938135629"><ele>0.0</ele><time>2026-04-28T10:50:47.001Z</time></trkpt><trkpt lat="38.22040454889869" lon="15.592326577188237"><ele>0.0</ele><time>2026-04-28T10:50:48.001Z</time></trkpt><trkpt lat="38.22037913754305" lon="15.592248763561958"><ele>0.0</ele><time>2026-04-28T10:50:49.001Z</time></trkpt><trkpt lat="38.220357658084076" lon="15.592170058162816"><ele>0.0</ele><time>2026-04-28T10:50:50.001Z</time></trkpt><trkpt lat="38.22033457631683" lon="15.592094473370727"><ele>0.0</ele><time>2026-04-28T10:50:51.001Z</time></trkpt><trkpt lat="38.22030990299094" lon="15.5920171746421"><ele>0.0</ele><time>2026-04-28T10:50:52.001Z</time></trkpt><trkpt lat="38.220286475801764" lon="15.591940448958326"><ele>0.0</ele><time>2026-04-28T10:50:53.001Z</time></trkpt><trkpt lat="38.220262073626884" lon="15.59186354282405"><ele>0.0</ele><time>2026-04-28T10:50:54.001Z</time></trkpt><trkpt lat="38.22023403440488" lon="15.591787087114596"><ele>0.0</ele><time>2026-04-28T10:50:55.001Z</time></trkpt><trkpt lat="38.22020814944737" lon="15.59171013866443"><ele>0.0</ele><time>2026-04-28T10:50:56.001Z</time></trkpt><trkpt lat="38.220182855454155" lon="15.591631273917937"><ele>0.0</ele><time>2026-04-28T10:50:57.001Z</time></trkpt><trkpt lat="38.220159609995164" lon="15.591554833645786"><ele>0.0</ele><time>2026-04-28T10:50:58.001Z</time></trkpt><trkpt lat="38.220133301407394" lon="15.59147617002269"><ele>0.0</ele><time>2026-04-28T10:50:59.001Z</time></trkpt><trkpt lat="38.220108849234265" lon="15.591398195435785"><ele>0.0</ele><time>2026-04-28T10:51:00.001Z</time></trkpt><trkpt lat="38.220085244744695" lon="15.591320644028828"><ele>0.0</ele><time>2026-04-28T10:51:01.001Z</time></trkpt><trkpt lat="38.220059306206075" lon="15.591243283907374"><ele>0.0</ele><time>2026-04-28T10:51:02.001Z</time></trkpt><trkpt lat="38.22003482755469" lon="15.5911657579756"><ele>0.0</ele><time>2026-04-28T10:51:03.001Z</time></trkpt><trkpt lat="38.22001023035911" lon="15.591088641635931"><ele>0.0</ele><time>2026-04-28T10:51:04.001Z</time></trkpt><trkpt lat="38.21998622125204" lon="15.591011892663534"><ele>0.0</ele><time>2026-04-28T10:51:05.001Z</time></trkpt><trkpt lat="38.219962585222476" lon="15.590934109677168"><ele>0.0</ele><time>2026-04-28T10:51:06.001Z</time></trkpt><trkpt lat="38.21993850320511" lon="15.590855790441504"><ele>0.0</ele><time>2026-04-28T10:51:07.001Z</time></trkpt><trkpt lat="38.21991429296679" lon="15.590777883207975"><ele>0.0</ele><time>2026-04-28T10:51:08.001Z</time></trkpt><trkpt lat="38.2198897393933" lon="15.590699982767278"><ele>0.0</ele><time>2026-04-28T10:51:09.001Z</time></trkpt><trkpt lat="38.219867002222614" lon="15.590622437321846"><ele>0.0</ele><time>2026-04-28T10:51:10.001Z</time></trkpt><trkpt lat="38.21984315740288" lon="15.590544448687348"><ele>0.0</ele><time>2026-04-28T10:51:11.001Z</time></trkpt><trkpt lat="38.219817862018814" lon="15.590466349345125"><ele>0.0</ele><time>2026-04-28T10:51:12.001Z</time></trkpt><trkpt lat="38.21979145419479" lon="15.59038884075502"><ele>0.0</ele><time>2026-04-28T10:51:13.001Z</time></trkpt><trkpt lat="38.21976676691821" lon="15.590311504441805"><ele>0.0</ele><time>2026-04-28T10:51:14.001Z</time></trkpt><trkpt lat="38.21974051839561" lon="15.590234683602594"><ele>0.0</ele><time>2026-04-28T10:51:15.001Z</time></trkpt><trkpt lat="38.21971558254796" lon="15.590157254420328"><ele>0.0</ele><time>2026-04-28T10:51:16.001Z</time></trkpt><trkpt lat="38.21969089441898" lon="15.590079088499499"><ele>0.0</ele><time>2026-04-28T10:51:17.001Z</time></trkpt><trkpt lat="38.219664792532974" lon="15.590002340972607"><ele>0.0</ele><time>2026-04-28T10:51:18.001Z</time></trkpt><trkpt lat="38.219639076509125" lon="15.589926428793913"><ele>0.0</ele><time>2026-04-28T10:51:19.001Z</time></trkpt><trkpt lat="38.2196127034753" lon="15.589851144762672"><ele>0.0</ele><time>2026-04-28T10:51:20.001Z</time></trkpt><trkpt lat="38.219585880864265" lon="15.589774056907617"><ele>0.0</ele><time>2026-04-28T10:51:21.001Z</time></trkpt><trkpt lat="38.219559380947715" lon="15.58969690616377"><ele>0.0</ele><time>2026-04-28T10:51:22.001Z</time></trkpt><trkpt lat="38.21953382194023" lon="15.589621543899439"><ele>0.0</ele><time>2026-04-28T10:51:23.001Z</time></trkpt><trkpt lat="38.21949103690204" lon="15.589485241892515"><ele>0.0</ele><time>2026-04-28T10:51:25.001Z</time></trkpt><trkpt lat="38.21946342873224" lon="15.589406134977015"><ele>0.0</ele><time>2026-04-28T10:51:26.001Z</time></trkpt><trkpt lat="38.21943854393783" lon="15.589331835499204"><ele>0.0</ele><time>2026-04-28T10:51:27.001Z</time></trkpt><trkpt lat="38.2193872036859" lon="15.589184418525608"><ele>0.0</ele><time>2026-04-28T10:51:29.001Z</time></trkpt><trkpt lat="38.21936144611642" lon="15.589109908224081"><ele>0.0</ele><time>2026-04-28T10:51:30.001Z</time></trkpt><trkpt lat="38.219333719753784" lon="15.589034584466537"><ele>0.0</ele><time>2026-04-28T10:51:31.001Z</time></trkpt><trkpt lat="38.219279223505666" lon="15.588886258350065"><ele>0.0</ele><time>2026-04-28T10:51:33.001Z</time></trkpt><trkpt lat="38.21925573995072" lon="15.588810828549347"><ele>0.0</ele><time>2026-04-28T10:51:34.001Z</time></trkpt><trkpt lat="38.219233422001984" lon="15.588734259444312"><ele>0.0</ele><time>2026-04-28T10:51:35.001Z</time></trkpt><trkpt lat="38.219203594548226" lon="15.588662569508218"><ele>0.0</ele><time>2026-04-28T10:51:36.001Z</time></trkpt><trkpt lat="38.21917754615867" lon="15.588587840323292"><ele>0.0</ele><time>2026-04-28T10:51:37.001Z</time></trkpt><trkpt lat="38.219152291233705" lon="15.588512957394697"><ele>0.0</ele><time>2026-04-28T10:51:38.001Z</time></trkpt><trkpt lat="38.21912536480521" lon="15.588435412498654"><ele>0.0</ele><time>2026-04-28T10:51:39.001Z</time></trkpt><trkpt lat="38.21907170735336" lon="15.588284076597155"><ele>0.0</ele><time>2026-04-28T10:51:41.001Z</time></trkpt><trkpt lat="38.219038561135854" lon="15.588213083446272"><ele>0.0</ele><time>2026-04-28T10:51:42.001Z</time></trkpt><trkpt lat="38.218996693295146" lon="15.588066528696972"><ele>0.0</ele><time>2026-04-28T10:51:44.001Z</time></trkpt><trkpt lat="38.21897003309848" lon="15.587991344656695"><ele>0.0</ele><time>2026-04-28T10:51:45.001Z</time></trkpt><trkpt lat="38.21891965254491" lon="15.587844567194063"><ele>0.0</ele><time>2026-04-28T10:51:47.001Z</time></trkpt><trkpt lat="38.21888954087696" lon="15.587769419536986"><ele>0.0</ele><time>2026-04-28T10:51:48.001Z</time></trkpt><trkpt lat="38.21885833215661" lon="15.587691514059948"><ele>0.0</ele><time>2026-04-28T10:51:49.001Z</time></trkpt><trkpt lat="38.21881134270252" lon="15.587544561685247"><ele>0.0</ele><time>2026-04-28T10:51:51.001Z</time></trkpt><trkpt lat="38.2187569444255" lon="15.587398669443882"><ele>0.0</ele><time>2026-04-28T10:51:53.001Z</time></trkpt><trkpt lat="38.21872872152322" lon="15.587325239031644"><ele>0.0</ele><time>2026-04-28T10:51:54.001Z</time></trkpt><trkpt lat="38.218707391590414" lon="15.587248819384172"><ele>0.0</ele><time>2026-04-28T10:51:55.001Z</time></trkpt><trkpt lat="38.21868021310489" lon="15.587176127939477"><ele>0.0</ele><time>2026-04-28T10:51:56.001Z</time></trkpt><trkpt lat="38.21862843104724" lon="15.587033022941368"><ele>0.0</ele><time>2026-04-28T10:51:58.001Z</time></trkpt><trkpt lat="38.21857424208531" lon="15.586889972678131"><ele>0.0</ele><time>2026-04-28T10:52:00.001Z</time></trkpt><trkpt lat="38.21854730984345" lon="15.586816390916823"><ele>0.0</ele><time>2026-04-28T10:52:01.001Z</time></trkpt><trkpt lat="38.21849458729371" lon="15.586672225753217"><ele>0.0</ele><time>2026-04-28T10:52:03.001Z</time></trkpt><trkpt lat="38.218470058547396" lon="15.586596639897735"><ele>0.0</ele><time>2026-04-28T10:52:04.001Z</time></trkpt><trkpt lat="38.21841718130577" lon="15.5864493673756"><ele>0.0</ele><time>2026-04-28T10:52:06.001Z</time></trkpt><trkpt lat="38.21839276285575" lon="15.586373332002694"><ele>0.0</ele><time>2026-04-28T10:52:07.001Z</time></trkpt><trkpt lat="38.21836471063594" lon="15.586296205359778"><ele>0.0</ele><time>2026-04-28T10:52:08.002Z</time></trkpt><trkpt lat="38.2183383852655" lon="15.586221473194342"><ele>0.0</ele><time>2026-04-28T10:52:09.002Z</time></trkpt><trkpt lat="38.2183119257031" lon="15.586145848206751"><ele>0.0</ele><time>2026-04-28T10:52:10.002Z</time></trkpt><trkpt lat="38.21828436171563" lon="15.586071119271486"><ele>0.0</ele><time>2026-04-28T10:52:11.002Z</time></trkpt><trkpt lat="38.21825702955577" lon="15.585997280482935"><ele>0.0</ele><time>2026-04-28T10:52:12.002Z</time></trkpt><trkpt lat="38.21822848784338" lon="15.585922797882642"><ele>0.0</ele><time>2026-04-28T10:52:13.002Z</time></trkpt><trkpt lat="38.21816825192937" lon="15.585780365484341"><ele>0.0</ele><time>2026-04-28T10:52:15.002Z</time></trkpt><trkpt lat="38.21814233995546" lon="15.585706266491021"><ele>0.0</ele><time>2026-04-28T10:52:16.002Z</time></trkpt><trkpt lat="38.21811212903008" lon="15.585632666804484"><ele>0.0</ele><time>2026-04-28T10:52:17.002Z</time></trkpt><trkpt lat="38.21805646004824" lon="15.585490031287463"><ele>0.0</ele><time>2026-04-28T10:52:19.002Z</time></trkpt><trkpt lat="38.218003440927966" lon="15.585346183695195"><ele>0.0</ele><time>2026-04-28T10:52:21.002Z</time></trkpt><trkpt lat="38.21794680698986" lon="15.585205677282987"><ele>0.0</ele><time>2026-04-28T10:52:23.002Z</time></trkpt><trkpt lat="38.217917286811065" lon="15.585134513734559"><ele>0.0</ele><time>2026-04-28T10:52:24.002Z</time></trkpt><trkpt lat="38.217858864693476" lon="15.58499295947214"><ele>0.0</ele><time>2026-04-28T10:52:26.002Z</time></trkpt><trkpt lat="38.21780590695769" lon="15.584851672139884"><ele>0.0</ele><time>2026-04-28T10:52:28.001Z</time></trkpt><trkpt lat="38.21775140943838" lon="15.584708826745672"><ele>0.0</ele><time>2026-04-28T10:52:30.001Z</time></trkpt><trkpt lat="38.21772502503109" lon="15.584635406883683"><ele>0.0</ele><time>2026-04-28T10:52:31.001Z</time></trkpt><trkpt lat="38.217673011451346" lon="15.584492998616227"><ele>0.0</ele><time>2026-04-28T10:52:33.001Z</time></trkpt><trkpt lat="38.217620052215345" lon="15.584349587702185"><ele>0.0</ele><time>2026-04-28T10:52:35.001Z</time></trkpt><trkpt lat="38.2175645389148" lon="15.584207275185014"><ele>0.0</ele><time>2026-04-28T10:52:37.001Z</time></trkpt><trkpt lat="38.2175101126506" lon="15.584066101393969"><ele>0.0</ele><time>2026-04-28T10:52:39.001Z</time></trkpt><trkpt lat="38.217456951714226" lon="15.583922434776094"><ele>0.0</ele><time>2026-04-28T10:52:41.001Z</time></trkpt><trkpt lat="38.217405980164706" lon="15.583777931211424"><ele>0.0</ele><time>2026-04-28T10:52:43.001Z</time></trkpt><trkpt lat="38.21737524798113" lon="15.583706483311321"><ele>0.0</ele><time>2026-04-28T10:52:44.001Z</time></trkpt><trkpt lat="38.21734550648902" lon="15.583635385273897"><ele>0.0</ele><time>2026-04-28T10:52:45.001Z</time></trkpt><trkpt lat="38.21731730058977" lon="15.583558871478152"><ele>0.0</ele><time>2026-04-28T10:52:46.001Z</time></trkpt><trkpt lat="38.21728882625443" lon="15.583484924862244"><ele>0.0</ele><time>2026-04-28T10:52:47.001Z</time></trkpt><trkpt lat="38.21725709356239" lon="15.583413660851658"><ele>0.0</ele><time>2026-04-28T10:52:48.001Z</time></trkpt><trkpt lat="38.217229327685814" lon="15.583340824117618"><ele>0.0</ele><time>2026-04-28T10:52:49.001Z</time></trkpt><trkpt lat="38.21719765566259" lon="15.583269921412874"><ele>0.0</ele><time>2026-04-28T10:52:50.001Z</time></trkpt><trkpt lat="38.217168067252416" lon="15.583196268181844"><ele>0.0</ele><time>2026-04-28T10:52:51.001Z</time></trkpt><trkpt lat="38.21711207478294" lon="15.583052563840853"><ele>0.0</ele><time>2026-04-28T10:52:53.001Z</time></trkpt><trkpt lat="38.21708461098514" lon="15.582979301855936"><ele>0.0</ele><time>2026-04-28T10:52:54.001Z</time></trkpt><trkpt lat="38.21705653676471" lon="15.58290743481697"><ele>0.0</ele><time>2026-04-28T10:52:55.001Z</time></trkpt><trkpt lat="38.21702752343774" lon="15.582835935350884"><ele>0.0</ele><time>2026-04-28T10:52:56.001Z</time></trkpt><trkpt lat="38.216998486005316" lon="15.5827642216773"><ele>0.0</ele><time>2026-04-28T10:52:57.001Z</time></trkpt><trkpt lat="38.216968853721" lon="15.582691365226836"><ele>0.0</ele><time>2026-04-28T10:52:58.001Z</time></trkpt><trkpt lat="38.21693992870199" lon="15.58261965863025"><ele>0.0</ele><time>2026-04-28T10:52:59.001Z</time></trkpt><trkpt lat="38.216909849029534" lon="15.582548156386796"><ele>0.0</ele><time>2026-04-28T10:53:00.001Z</time></trkpt><trkpt lat="38.21688035023808" lon="15.582476672092145"><ele>0.0</ele><time>2026-04-28T10:53:01.001Z</time></trkpt><trkpt lat="38.216850679872735" lon="15.582405815028721"><ele>0.0</ele><time>2026-04-28T10:53:02.001Z</time></trkpt><trkpt lat="38.216820564024715" lon="15.582334090121652"><ele>0.0</ele><time>2026-04-28T10:53:03.001Z</time></trkpt><trkpt lat="38.216791486588065" lon="15.582262664049486"><ele>0.0</ele><time>2026-04-28T10:53:04.001Z</time></trkpt><trkpt lat="38.21673393979565" lon="15.582119880316101"><ele>0.0</ele><time>2026-04-28T10:53:06.001Z</time></trkpt><trkpt lat="38.216705136911685" lon="15.582047676402194"><ele>0.0</ele><time>2026-04-28T10:53:07.001Z</time></trkpt><trkpt lat="38.21664604365774" lon="15.581906529281909"><ele>0.0</ele><time>2026-04-28T10:53:09.001Z</time></trkpt><trkpt lat="38.216586211065746" lon="15.581765511829637"><ele>0.0</ele><time>2026-04-28T10:53:11.001Z</time></trkpt><trkpt lat="38.2165561424985" lon="15.581694405292836"><ele>0.0</ele><time>2026-04-28T10:53:12.001Z</time></trkpt><trkpt lat="38.216526351028016" lon="15.581623590582737"><ele>0.0</ele><time>2026-04-28T10:53:13.001Z</time></trkpt><trkpt lat="38.21649644071837" lon="15.581551866849503"><ele>0.0</ele><time>2026-04-28T10:53:14.001Z</time></trkpt><trkpt lat="38.21646876010785" lon="15.581478759645304"><ele>0.0</ele><time>2026-04-28T10:53:15.001Z</time></trkpt><trkpt lat="38.21643944704535" lon="15.581406065409872"><ele>0.0</ele><time>2026-04-28T10:53:16.001Z</time></trkpt><trkpt lat="38.21641010563943" lon="15.581334527600543"><ele>0.0</ele><time>2026-04-28T10:53:17.001Z</time></trkpt><trkpt lat="38.2163803935185" lon="15.58126213630137"><ele>0.0</ele><time>2026-04-28T10:53:18.001Z</time></trkpt><trkpt lat="38.21635046764442" lon="15.581188705716814"><ele>0.0</ele><time>2026-04-28T10:53:19.001Z</time></trkpt><trkpt lat="38.2163214254615" lon="15.581116245707362"><ele>0.0</ele><time>2026-04-28T10:53:20.001Z</time></trkpt><trkpt lat="38.216291813637795" lon="15.581043377245088"><ele>0.0</ele><time>2026-04-28T10:53:21.001Z</time></trkpt><trkpt lat="38.21626072789709" lon="15.580972292967536"><ele>0.0</ele><time>2026-04-28T10:53:22.001Z</time></trkpt><trkpt lat="38.216229714195315" lon="15.580901440713477"><ele>0.0</ele><time>2026-04-28T10:53:23.001Z</time></trkpt><trkpt lat="38.21620007475872" lon="15.58082839534988"><ele>0.0</ele><time>2026-04-28T10:53:24.001Z</time></trkpt><trkpt lat="38.216168410485764" lon="15.580756396638625"><ele>0.0</ele><time>2026-04-28T10:53:25.001Z</time></trkpt><trkpt lat="38.21613807969345" lon="15.580684757392412"><ele>0.0</ele><time>2026-04-28T10:53:26.001Z</time></trkpt><trkpt lat="38.21610849386861" lon="15.580613711620607"><ele>0.0</ele><time>2026-04-28T10:53:27.001Z</time></trkpt><trkpt lat="38.21607709346752" lon="15.580539707837557"><ele>0.0</ele><time>2026-04-28T10:53:28.001Z</time></trkpt><trkpt lat="38.21604915335179" lon="15.580465523435764"><ele>0.0</ele><time>2026-04-28T10:53:29.001Z</time></trkpt><trkpt lat="38.2160187116718" lon="15.580393708827394"><ele>0.0</ele><time>2026-04-28T10:53:30.001Z</time></trkpt><trkpt lat="38.21598916089556" lon="15.580319989745545"><ele>0.0</ele><time>2026-04-28T10:53:31.001Z</time></trkpt><trkpt lat="38.21595903921792" lon="15.58024697981609"><ele>0.0</ele><time>2026-04-28T10:53:32.001Z</time></trkpt><trkpt lat="38.215928532090196" lon="15.580174901819463"><ele>0.0</ele><time>2026-04-28T10:53:33.001Z</time></trkpt><trkpt lat="38.215898822081414" lon="15.580101902404692"><ele>0.0</ele><time>2026-04-28T10:53:34.001Z</time></trkpt><trkpt lat="38.21586918229936" lon="15.58002888564974"><ele>0.0</ele><time>2026-04-28T10:53:35.001Z</time></trkpt><trkpt lat="38.21583856255097" lon="15.579956155583723"><ele>0.0</ele><time>2026-04-28T10:53:36.001Z</time></trkpt><trkpt lat="38.215809919778074" lon="15.579884304397012"><ele>0.0</ele><time>2026-04-28T10:53:37.001Z</time></trkpt><trkpt lat="38.21577874285361" lon="15.579811519654298"><ele>0.0</ele><time>2026-04-28T10:53:38.001Z</time></trkpt><trkpt lat="38.21574719630541" lon="15.579739986298287"><ele>0.0</ele><time>2026-04-28T10:53:39.001Z</time></trkpt><trkpt lat="38.2157178818407" lon="15.579666808631382"><ele>0.0</ele><time>2026-04-28T10:53:40.001Z</time></trkpt><trkpt lat="38.21568741938724" lon="15.579593516861094"><ele>0.0</ele><time>2026-04-28T10:53:41.001Z</time></trkpt><trkpt lat="38.215657030325076" lon="15.579521954886749"><ele>0.0</ele><time>2026-04-28T10:53:42.002Z</time></trkpt><trkpt lat="38.21562756546293" lon="15.579448807853485"><ele>0.0</ele><time>2026-04-28T10:53:43.002Z</time></trkpt><trkpt lat="38.215596488419244" lon="15.579375335196916"><ele>0.0</ele><time>2026-04-28T10:53:44.002Z</time></trkpt><trkpt lat="38.21556745699852" lon="15.579303235858077"><ele>0.0</ele><time>2026-04-28T10:53:45.002Z</time></trkpt><trkpt lat="38.21551029841465" lon="15.579160654536691"><ele>0.0</ele><time>2026-04-28T10:53:47.002Z</time></trkpt><trkpt lat="38.21548272708482" lon="15.579088392186394"><ele>0.0</ele><time>2026-04-28T10:53:48.002Z</time></trkpt><trkpt lat="38.21542214682223" lon="15.578947508390169"><ele>0.0</ele><time>2026-04-28T10:53:50.002Z</time></trkpt><trkpt lat="38.2153949482955" lon="15.578875161834588"><ele>0.0</ele><time>2026-04-28T10:53:51.002Z</time></trkpt><trkpt lat="38.21536591983062" lon="15.578803776980875"><ele>0.0</ele><time>2026-04-28T10:53:52.002Z</time></trkpt><trkpt lat="38.215308619236865" lon="15.578662839144835"><ele>0.0</ele><time>2026-04-28T10:53:54.002Z</time></trkpt><trkpt lat="38.215253672561424" lon="15.578521133221399"><ele>0.0</ele><time>2026-04-28T10:53:56.002Z</time></trkpt><trkpt lat="38.21519644652723" lon="15.578380602956708"><ele>0.0</ele><time>2026-04-28T10:53:58.002Z</time></trkpt><trkpt lat="38.21514261989305" lon="15.57824154265429"><ele>0.0</ele><time>2026-04-28T10:54:00.002Z</time></trkpt><trkpt lat="38.21511318259011" lon="15.57816984743762"><ele>0.0</ele><time>2026-04-28T10:54:01.002Z</time></trkpt><trkpt lat="38.21505648960538" lon="15.578031199752798"><ele>0.0</ele><time>2026-04-28T10:54:03.002Z</time></trkpt><trkpt lat="38.21500202576247" lon="15.577889508724521"><ele>0.0</ele><time>2026-04-28T10:54:05.002Z</time></trkpt><trkpt lat="38.21497500597012" lon="15.577813437325783"><ele>0.0</ele><time>2026-04-28T10:54:06.002Z</time></trkpt><trkpt lat="38.214918246080885" lon="15.577669556590122"><ele>0.0</ele><time>2026-04-28T10:54:08.002Z</time></trkpt><trkpt lat="38.21488855729359" lon="15.577598389308427"><ele>0.0</ele><time>2026-04-28T10:54:09.002Z</time></trkpt><trkpt lat="38.214830756241334" lon="15.577456144826101"><ele>0.0</ele><time>2026-04-28T10:54:11.002Z</time></trkpt><trkpt lat="38.21477470114038" lon="15.577315325623134"><ele>0.0</ele><time>2026-04-28T10:54:13.002Z</time></trkpt><trkpt lat="38.21472259173227" lon="15.577168003190446"><ele>0.0</ele><time>2026-04-28T10:54:15.002Z</time></trkpt><trkpt lat="38.21466111148948" lon="15.577029611089896"><ele>0.0</ele><time>2026-04-28T10:54:17.002Z</time></trkpt><trkpt lat="38.21460024326439" lon="15.57688770840521"><ele>0.0</ele><time>2026-04-28T10:54:19.002Z</time></trkpt><trkpt lat="38.2145429783099" lon="15.57675014428005"><ele>0.0</ele><time>2026-04-28T10:54:21.002Z</time></trkpt><trkpt lat="38.21448707337484" lon="15.576605208434298"><ele>0.0</ele><time>2026-04-28T10:54:23.002Z</time></trkpt><trkpt lat="38.21443227540903" lon="15.576463048274015"><ele>0.0</ele><time>2026-04-28T10:54:25.002Z</time></trkpt><trkpt lat="38.2143789661168" lon="15.576323521686577"><ele>0.0</ele><time>2026-04-28T10:54:27.002Z</time></trkpt><trkpt lat="38.21432112446628" lon="15.57617931627231"><ele>0.0</ele><time>2026-04-28T10:54:29.002Z</time></trkpt><trkpt lat="38.21426683291729" lon="15.576040018623821"><ele>0.0</ele><time>2026-04-28T10:54:31.002Z</time></trkpt><trkpt lat="38.21421442603108" lon="15.575899357808982"><ele>0.0</ele><time>2026-04-28T10:54:33.002Z</time></trkpt><trkpt lat="38.21416159694897" lon="15.575758812893127"><ele>0.0</ele><time>2026-04-28T10:54:35.002Z</time></trkpt><trkpt lat="38.21410717603577" lon="15.575618891466373"><ele>0.0</ele><time>2026-04-28T10:54:37.002Z</time></trkpt><trkpt lat="38.21405079105111" lon="15.575477312414934"><ele>0.0</ele><time>2026-04-28T10:54:39.002Z</time></trkpt><trkpt lat="38.21399579257168" lon="15.575335976714113"><ele>0.0</ele><time>2026-04-28T10:54:41.001Z</time></trkpt><trkpt lat="38.213945469755615" lon="15.57519603968872"><ele>0.0</ele><time>2026-04-28T10:54:43.001Z</time></trkpt><trkpt lat="38.213892610285875" lon="15.575055248115772"><ele>0.0</ele><time>2026-04-28T10:54:45.001Z</time></trkpt><trkpt lat="38.21383475734731" lon="15.574913619002176"><ele>0.0</ele><time>2026-04-28T10:54:47.001Z</time></trkpt><trkpt lat="38.21378002298036" lon="15.57477334496425"><ele>0.0</ele><time>2026-04-28T10:54:49.001Z</time></trkpt><trkpt lat="38.21373294486323" lon="15.574632742554362"><ele>0.0</ele><time>2026-04-28T10:54:51.001Z</time></trkpt><trkpt lat="38.21370456990123" lon="15.574554663192023"><ele>0.0</ele><time>2026-04-28T10:54:52.001Z</time></trkpt><trkpt lat="38.2136763004798" lon="15.57447758820394"><ele>0.0</ele><time>2026-04-28T10:54:53.001Z</time></trkpt><trkpt lat="38.213629627844" lon="15.574342790390816"><ele>0.0</ele><time>2026-04-28T10:54:55.001Z</time></trkpt><trkpt lat="38.213580494771634" lon="15.574205218704586"><ele>0.0</ele><time>2026-04-28T10:54:57.001Z</time></trkpt><trkpt lat="38.21353289850074" lon="15.574064408711864"><ele>0.0</ele><time>2026-04-28T10:54:59.001Z</time></trkpt><trkpt lat="38.21348477637851" lon="15.573922915522253"><ele>0.0</ele><time>2026-04-28T10:55:01.001Z</time></trkpt><trkpt lat="38.213438135371284" lon="15.573780580039582"><ele>0.0</ele><time>2026-04-28T10:55:03.001Z</time></trkpt><trkpt lat="38.21338740010613" lon="15.573639174865756"><ele>0.0</ele><time>2026-04-28T10:55:05.001Z</time></trkpt><trkpt lat="38.213336545425236" lon="15.573496611022078"><ele>0.0</ele><time>2026-04-28T10:55:07.001Z</time></trkpt><trkpt lat="38.21328716072711" lon="15.573354857137637"><ele>0.0</ele><time>2026-04-28T10:55:09.001Z</time></trkpt><trkpt lat="38.2132388053896" lon="15.57321430187823"><ele>0.0</ele><time>2026-04-28T10:55:11.001Z</time></trkpt><trkpt lat="38.21318881209638" lon="15.573071409315192"><ele>0.0</ele><time>2026-04-28T10:55:13.001Z</time></trkpt><trkpt lat="38.213141067783106" lon="15.572930538956744"><ele>0.0</ele><time>2026-04-28T10:55:15.001Z</time></trkpt><trkpt lat="38.21308810775765" lon="15.572789588156759"><ele>0.0</ele><time>2026-04-28T10:55:17.001Z</time></trkpt><trkpt lat="38.21303765384141" lon="15.572645471332994"><ele>0.0</ele><time>2026-04-28T10:55:19.001Z</time></trkpt><trkpt lat="38.21298845910852" lon="15.572504919997264"><ele>0.0</ele><time>2026-04-28T10:55:21.001Z</time></trkpt><trkpt lat="38.21293806847656" lon="15.572362541703308"><ele>0.0</ele><time>2026-04-28T10:55:23.001Z</time></trkpt><trkpt lat="38.21288582711092" lon="15.57221624881877"><ele>0.0</ele><time>2026-04-28T10:55:25.001Z</time></trkpt><trkpt lat="38.21283730275127" lon="15.572068772898518"><ele>0.0</ele><time>2026-04-28T10:55:27.001Z</time></trkpt><trkpt lat="38.21278681538308" lon="15.571929762530903"><ele>0.0</ele><time>2026-04-28T10:55:29.001Z</time></trkpt><trkpt lat="38.21273667815732" lon="15.571787745794897"><ele>0.0</ele><time>2026-04-28T10:55:31.001Z</time></trkpt><trkpt lat="38.212687053414605" lon="15.571643408928376"><ele>0.0</ele><time>2026-04-28T10:55:33.001Z</time></trkpt><trkpt lat="38.21263934894382" lon="15.571496973529648"><ele>0.0</ele><time>2026-04-28T10:55:35.001Z</time></trkpt><trkpt lat="38.21259168314938" lon="15.57135238800835"><ele>0.0</ele><time>2026-04-28T10:55:37.001Z</time></trkpt><trkpt lat="38.21254542987282" lon="15.571208788121478"><ele>0.0</ele><time>2026-04-28T10:55:39.001Z</time></trkpt><trkpt lat="38.2125012075302" lon="15.57105465925912"><ele>0.0</ele><time>2026-04-28T10:55:41.001Z</time></trkpt><trkpt lat="38.21245296370474" lon="15.57091625726094"><ele>0.0</ele><time>2026-04-28T10:55:43.001Z</time></trkpt><trkpt lat="38.21240588453099" lon="15.570772265494417"><ele>0.0</ele><time>2026-04-28T10:55:45.001Z</time></trkpt><trkpt lat="38.21235952172585" lon="15.570627538016966"><ele>0.0</ele><time>2026-04-28T10:55:47.002Z</time></trkpt><trkpt lat="38.2123141129523" lon="15.570481582394681"><ele>0.0</ele><time>2026-04-28T10:55:49.002Z</time></trkpt><trkpt lat="38.212269302619376" lon="15.570334865186265"><ele>0.0</ele><time>2026-04-28T10:55:51.002Z</time></trkpt><trkpt lat="38.21222552732606" lon="15.570187482372013"><ele>0.0</ele><time>2026-04-28T10:55:53.002Z</time></trkpt><trkpt lat="38.21218122472064" lon="15.5700408289149"><ele>0.0</ele><time>2026-04-28T10:55:55.002Z</time></trkpt><trkpt lat="38.212135647391925" lon="15.569895574381366"><ele>0.0</ele><time>2026-04-28T10:55:57.002Z</time></trkpt><trkpt lat="38.21209112574934" lon="15.56975115720623"><ele>0.0</ele><time>2026-04-28T10:55:59.002Z</time></trkpt><trkpt lat="38.21204651225926" lon="15.569605270923965"><ele>0.0</ele><time>2026-04-28T10:56:01.002Z</time></trkpt><trkpt lat="38.21199962668647" lon="15.569460129539282"><ele>0.0</ele><time>2026-04-28T10:56:03.002Z</time></trkpt><trkpt lat="38.21195329468244" lon="15.569314587250869"><ele>0.0</ele><time>2026-04-28T10:56:05.002Z</time></trkpt><trkpt lat="38.21190610633768" lon="15.569170652583852"><ele>0.0</ele><time>2026-04-28T10:56:07.002Z</time></trkpt><trkpt lat="38.21185909912202" lon="15.569025622428757"><ele>0.0</ele><time>2026-04-28T10:56:09.002Z</time></trkpt><trkpt lat="38.21181571764066" lon="15.568879346129473"><ele>0.0</ele><time>2026-04-28T10:56:11.002Z</time></trkpt><trkpt lat="38.2117705594682" lon="15.56873552014936"><ele>0.0</ele><time>2026-04-28T10:56:13.002Z</time></trkpt><trkpt lat="38.211723321184465" lon="15.568589830722676"><ele>0.0</ele><time>2026-04-28T10:56:15.002Z</time></trkpt><trkpt lat="38.211678323782934" lon="15.568442662698667"><ele>0.0</ele><time>2026-04-28T10:56:17.002Z</time></trkpt><trkpt lat="38.211633009775554" lon="15.5682961556356"><ele>0.0</ele><time>2026-04-28T10:56:19.002Z</time></trkpt><trkpt lat="38.211587215077756" lon="15.568150553272618"><ele>0.0</ele><time>2026-04-28T10:56:21.002Z</time></trkpt><trkpt lat="38.21154091811332" lon="15.568005680356642"><ele>0.0</ele><time>2026-04-28T10:56:23.002Z</time></trkpt><trkpt lat="38.21149802991403" lon="15.56785850012867"><ele>0.0</ele><time>2026-04-28T10:56:25.002Z</time></trkpt><trkpt lat="38.21145573945871" lon="15.567713031743018"><ele>0.0</ele><time>2026-04-28T10:56:27.002Z</time></trkpt><trkpt lat="38.211407339715606" lon="15.56756756357773"><ele>0.0</ele><time>2026-04-28T10:56:29.002Z</time></trkpt><trkpt lat="38.211364016686986" lon="15.567420353821124"><ele>0.0</ele><time>2026-04-28T10:56:31.002Z</time></trkpt><trkpt lat="38.21133982187772" lon="15.567344901325555"><ele>0.0</ele><time>2026-04-28T10:56:32.002Z</time></trkpt><trkpt lat="38.21129861920542" lon="15.567202234753752"><ele>0.0</ele><time>2026-04-28T10:56:34.002Z</time></trkpt><trkpt lat="38.21127411897868" lon="15.567124250067788"><ele>0.0</ele><time>2026-04-28T10:56:35.002Z</time></trkpt><trkpt lat="38.21122868943727" lon="15.566975787459993"><ele>0.0</ele><time>2026-04-28T10:56:37.002Z</time></trkpt><trkpt lat="38.211184704034864" lon="15.566827340506643"><ele>0.0</ele><time>2026-04-28T10:56:39.002Z</time></trkpt><trkpt lat="38.21116322388899" lon="15.566750493937414"><ele>0.0</ele><time>2026-04-28T10:56:40.002Z</time></trkpt><trkpt lat="38.211118965236786" lon="15.566602370009267"><ele>0.0</ele><time>2026-04-28T10:56:42.002Z</time></trkpt><trkpt lat="38.21107532514658" lon="15.56645815560347"><ele>0.0</ele><time>2026-04-28T10:56:44.002Z</time></trkpt><trkpt lat="38.211033579771815" lon="15.566316167660293"><ele>0.0</ele><time>2026-04-28T10:56:46.002Z</time></trkpt><trkpt lat="38.2109936557599" lon="15.566178414499664"><ele>0.0</ele><time>2026-04-28T10:56:48.002Z</time></trkpt><trkpt lat="38.21095955209951" lon="15.566039946709544"><ele>0.0</ele><time>2026-04-28T10:56:50.002Z</time></trkpt><trkpt lat="38.210924236324345" lon="15.565906561287612"><ele>0.0</ele><time>2026-04-28T10:56:52.002Z</time></trkpt><trkpt lat="38.21089186480503" lon="15.565777401201979"><ele>0.0</ele><time>2026-04-28T10:56:54.002Z</time></trkpt><trkpt lat="38.21086552570811" lon="15.565653581838626"><ele>0.0</ele><time>2026-04-28T10:56:56.002Z</time></trkpt><trkpt lat="38.21082638349" lon="15.565528362593803"><ele>0.0</ele><time>2026-04-28T10:56:58.002Z</time></trkpt><trkpt lat="38.21080001038374" lon="15.56539909631118"><ele>0.0</ele><time>2026-04-28T10:57:00.001Z</time></trkpt><trkpt lat="38.21077238544573" lon="15.565278861937209"><ele>0.0</ele><time>2026-04-28T10:57:02.001Z</time></trkpt><trkpt lat="38.2107428590431" lon="15.565163206877347"><ele>0.0</ele><time>2026-04-28T10:57:04.001Z</time></trkpt><trkpt lat="38.21071694845005" lon="15.565052025278732"><ele>0.0</ele><time>2026-04-28T10:57:06.001Z</time></trkpt><trkpt lat="38.21069079471802" lon="15.564943783619123"><ele>0.0</ele><time>2026-04-28T10:57:08.001Z</time></trkpt><trkpt lat="38.210664782735925" lon="15.564836755237033"><ele>0.0</ele><time>2026-04-28T10:57:10.001Z</time></trkpt><trkpt lat="38.21063654286332" lon="15.564732536384374"><ele>0.0</ele><time>2026-04-28T10:57:12.001Z</time></trkpt><trkpt lat="38.21061199359877" lon="15.5646288751117"><ele>0.0</ele><time>2026-04-28T10:57:14.001Z</time></trkpt><trkpt lat="38.21058526430567" lon="15.564523648044272"><ele>0.0</ele><time>2026-04-28T10:57:16.001Z</time></trkpt><trkpt lat="38.21055530151899" lon="15.564423040881506"><ele>0.0</ele><time>2026-04-28T10:57:18.001Z</time></trkpt><trkpt lat="38.21052548952133" lon="15.564325387555545"><ele>0.0</ele><time>2026-04-28T10:57:20.001Z</time></trkpt><trkpt lat="38.210500567942184" lon="15.564234769642288"><ele>0.0</ele><time>2026-04-28T10:57:22.001Z</time></trkpt><trkpt lat="38.21048000903143" lon="15.564146593996696"><ele>0.0</ele><time>2026-04-28T10:57:24.001Z</time></trkpt><trkpt lat="38.210458815737184" lon="15.564063550805555"><ele>0.0</ele><time>2026-04-28T10:57:26.001Z</time></trkpt><trkpt lat="38.21043172150363" lon="15.563986935172839"><ele>0.0</ele><time>2026-04-28T10:57:28.001Z</time></trkpt><trkpt lat="38.21040623842698" lon="15.563904818909156"><ele>0.0</ele><time>2026-04-28T10:57:30.001Z</time></trkpt><trkpt lat="38.21038173463734" lon="15.563797702306218"><ele>0.0</ele><time>2026-04-28T10:57:33.001Z</time></trkpt><trkpt lat="38.210370529658626" lon="15.563698392481676"><ele>0.0</ele><time>2026-04-28T10:57:36.001Z</time></trkpt><trkpt lat="38.21036462543577" lon="15.56358914126884"><ele>0.0</ele><time>2026-04-28T10:57:39.001Z</time></trkpt><trkpt lat="38.21036678243592" lon="15.563505767461484"><ele>0.0</ele><time>2026-04-28T10:57:41.001Z</time></trkpt><trkpt lat="38.21035921001498" lon="15.563411816057535"><ele>0.0</ele><time>2026-04-28T10:57:44.001Z</time></trkpt><trkpt lat="38.21034204394232" lon="15.563319095223974"><ele>0.0</ele><time>2026-04-28T10:57:47.001Z</time></trkpt><trkpt lat="38.21032391797094" lon="15.563237082082722"><ele>0.0</ele><time>2026-04-28T10:57:50.001Z</time></trkpt><trkpt lat="38.21030809479359" lon="15.563136085090866"><ele>0.0</ele><time>2026-04-28T10:57:54.001Z</time></trkpt><trkpt lat="38.210303434109406" lon="15.563040589021243"><ele>0.0</ele><time>2026-04-28T10:57:58.001Z</time></trkpt><trkpt lat="38.21030850510886" lon="15.5629498352463"><ele>0.0</ele><time>2026-04-28T10:58:02.001Z</time></trkpt><trkpt lat="38.21030924011992" lon="15.56286367814931"><ele>0.0</ele><time>2026-04-28T10:58:06.001Z</time></trkpt><trkpt lat="38.21031087730893" lon="15.562778932485559"><ele>0.0</ele><time>2026-04-28T10:58:10.001Z</time></trkpt><trkpt lat="38.21030761019862" lon="15.562679847429424"><ele>0.0</ele><time>2026-04-28T10:58:15.002Z</time></trkpt><trkpt lat="38.2103054898165" lon="15.562587902221075"><ele>0.0</ele><time>2026-04-28T10:58:20.002Z</time></trkpt><trkpt lat="38.21030812425314" lon="15.56250307419557"><ele>0.0</ele><time>2026-04-28T10:58:26.002Z</time></trkpt><trkpt lat="38.21031201830724" lon="15.56241635064798"><ele>0.8333333333333334</ele><time>2026-04-28T10:58:33.002Z</time></trkpt><trkpt lat="38.210315622268226" lon="15.562315765250192"><ele>1.6666666666666667</ele><time>2026-04-28T10:58:44.002Z</time></trkpt><trkpt lat="38.21032604312903" lon="15.56221114847919"><ele>2.5</ele><time>2026-04-28T10:58:57.002Z</time></trkpt><trkpt lat="38.210340044282816" lon="15.562084577594966"><ele>3.3333333333333335</ele><time>2026-04-28T10:59:16.001Z</time></trkpt><trkpt lat="38.21032957024478" lon="15.561955112038795"><ele>4.166666666666667</ele><time>2026-04-28T10:59:48.001Z</time></trkpt><trkpt lat="38.21036317082825" lon="15.561883008482026"><ele>5.0</ele><time>2026-04-28T10:59:59.001Z</time></trkpt><trkpt lat="38.21039256285499" lon="15.561764547898852"><ele>5.166666666666667</ele><time>2026-04-28T11:00:28.001Z</time></trkpt><trkpt lat="38.21039270416665" lon="15.561678603728847"><ele>5.333333333333334</ele><time>2026-04-28T11:00:36.001Z</time></trkpt><trkpt lat="38.21034836826353" lon="15.561607857844061"><ele>5.5</ele><time>2026-04-28T11:00:38.001Z</time></trkpt><trkpt lat="38.21029654807484" lon="15.561548139341316"><ele>5.666666666666667</ele><time>2026-04-28T11:00:43.002Z</time></trkpt><trkpt lat="38.210257880214094" lon="15.561461073063038"><ele>5.833333333333333</ele><time>2026-04-28T11:01:29.001Z</time></trkpt><trkpt lat="38.21024628835738" lon="15.56136617259119"><ele>6.0</ele><time>2026-04-28T11:01:32.001Z</time></trkpt><trkpt lat="38.21019719941475" lon="15.561255436897701"><ele>8.2</ele><time>2026-04-28T11:02:11.001Z</time></trkpt><trkpt lat="38.21020851760419" lon="15.561169473890743"><ele>10.399999999999999</ele><time>2026-04-28T11:02:15.001Z</time></trkpt><trkpt lat="38.210191434992666" lon="15.561083127696895"><ele>12.6</ele><time>2026-04-28T11:02:27.001Z</time></trkpt><trkpt lat="38.210179152421134" lon="15.560974782838242"><ele>14.799999999999999</ele><time>2026-04-28T11:02:30.001Z</time></trkpt><trkpt lat="38.210093236201686" lon="15.560955669875042"><ele>17.0</ele><time>2026-04-28T11:02:32.001Z</time></trkpt><trkpt lat="38.20999948228979" lon="15.561144921416128"><ele>17.0</ele><time>2026-04-28T11:02:33.001Z</time></trkpt><trkpt lat="38.20986604171354" lon="15.561137322090833"><ele>17.0</ele><time>2026-04-28T11:02:35.001Z</time></trkpt><trkpt lat="38.20980149247783" lon="15.561133108901505"><ele>17.0</ele><time>2026-04-28T11:02:36.001Z</time></trkpt><trkpt lat="38.20973154847659" lon="15.561130545349865"><ele>17.0</ele><time>2026-04-28T11:02:37.001Z</time></trkpt><trkpt lat="38.209656750683465" lon="15.561132080581121"><ele>17.0</ele><time>2026-04-28T11:02:38.001Z</time></trkpt><trkpt lat="38.20958041752806" lon="15.561115152464707"><ele>17.0</ele><time>2026-04-28T11:02:39.001Z</time></trkpt><trkpt lat="38.20950192096408" lon="15.56113091987239"><ele>15.666666666666668</ele><time>2026-04-28T11:02:40.001Z</time></trkpt><trkpt lat="38.20942259232759" lon="15.561146041768334"><ele>14.333333333333334</ele><time>2026-04-28T11:02:41.001Z</time></trkpt><trkpt lat="38.209338424476265" lon="15.561163801400786"><ele>13.0</ele><time>2026-04-28T11:02:42.001Z</time></trkpt><trkpt lat="38.2092503731917" lon="15.561187141530228"><ele>11.666666666666668</ele><time>2026-04-28T11:02:43.001Z</time></trkpt><trkpt lat="38.20916646723283" lon="15.561200168378853"><ele>10.333333333333334</ele><time>2026-04-28T11:02:44.001Z</time></trkpt><trkpt lat="38.209090524443496" lon="15.561222552963985"><ele>9.0</ele><time>2026-04-28T11:02:45.002Z</time></trkpt><trkpt lat="38.20902215895389" lon="15.561242992085212"><ele>8.666666666666666</ele><time>2026-04-28T11:02:46.002Z</time></trkpt><trkpt lat="38.208959518766974" lon="15.561260321903125"><ele>8.333333333333334</ele><time>2026-04-28T11:02:47.002Z</time></trkpt><trkpt lat="38.208854752906625" lon="15.56127900338313"><ele>8.0</ele><time>2026-04-28T11:02:49.002Z</time></trkpt><trkpt lat="38.20876914735849" lon="15.561306090184722"><ele>7.666666666666667</ele><time>2026-04-28T11:02:51.001Z</time></trkpt><trkpt lat="38.20869139106647" lon="15.561333079442043"><ele>7.333333333333334</ele><time>2026-04-28T11:02:53.001Z</time></trkpt><trkpt lat="38.208627269173526" lon="15.561350044730803"><ele>7.0</ele><time>2026-04-28T11:02:54.001Z</time></trkpt><trkpt lat="38.208535028186525" lon="15.561373146586837"><ele>7.000000000000001</ele><time>2026-04-28T11:02:55.001Z</time></trkpt><trkpt lat="38.2084347029779" lon="15.56138988729034"><ele>7.0</ele><time>2026-04-28T11:02:56.001Z</time></trkpt><trkpt lat="38.20834756819433" lon="15.561410252067907"><ele>7.0</ele><time>2026-04-28T11:02:57.001Z</time></trkpt><trkpt lat="38.208263629960236" lon="15.561428228007982"><ele>7.0</ele><time>2026-04-28T11:02:58.001Z</time></trkpt><trkpt lat="38.20817579450929" lon="15.561447715058101"><ele>7.000000000000001</ele><time>2026-04-28T11:02:59.001Z</time></trkpt><trkpt lat="38.20809751518346" lon="15.561463991014273"><ele>7.0</ele><time>2026-04-28T11:03:00.001Z</time></trkpt><trkpt lat="38.208020056613165" lon="15.561476962959082"><ele>7.285714285714286</ele><time>2026-04-28T11:03:01.001Z</time></trkpt><trkpt lat="38.207944370201446" lon="15.561492457387253"><ele>7.571428571428571</ele><time>2026-04-28T11:03:02.001Z</time></trkpt><trkpt lat="38.20787794770775" lon="15.561511564398815"><ele>7.857142857142858</ele><time>2026-04-28T11:03:03.001Z</time></trkpt><trkpt lat="38.20781244017054" lon="15.561530908208782"><ele>8.142857142857142</ele><time>2026-04-28T11:03:04.001Z</time></trkpt><trkpt lat="38.20774248560993" lon="15.561547498752674"><ele>8.428571428571429</ele><time>2026-04-28T11:03:05.001Z</time></trkpt><trkpt lat="38.20767209357476" lon="15.561571332049656"><ele>8.714285714285715</ele><time>2026-04-28T11:03:06.001Z</time></trkpt><trkpt lat="38.20759923984273" lon="15.56158975135493"><ele>9.0</ele><time>2026-04-28T11:03:07.001Z</time></trkpt><trkpt lat="38.20753086157112" lon="15.56161118373537"><ele>9.0</ele><time>2026-04-28T11:03:08.001Z</time></trkpt><trkpt lat="38.20741109432886" lon="15.561645426676836"><ele>9.0</ele><time>2026-04-28T11:03:10.001Z</time></trkpt><trkpt lat="38.207283852439346" lon="15.561682200131402"><ele>9.0</ele><time>2026-04-28T11:03:12.001Z</time></trkpt><trkpt lat="38.207223660781025" lon="15.561723706663265"><ele>9.0</ele><time>2026-04-28T11:03:13.001Z</time></trkpt><trkpt lat="38.207177090934834" lon="15.561783077773342"><ele>9.0</ele><time>2026-04-28T11:03:14.001Z</time></trkpt><trkpt lat="38.20710697962186" lon="15.561904553955802"><ele>8.8</ele><time>2026-04-28T11:03:16.001Z</time></trkpt><trkpt lat="38.20700847639782" lon="15.562014519935875"><ele>8.600000000000001</ele><time>2026-04-28T11:03:18.001Z</time></trkpt><trkpt lat="38.20694072770597" lon="15.562066883353829"><ele>8.4</ele><time>2026-04-28T11:03:19.001Z</time></trkpt><trkpt lat="38.20686331443312" lon="15.562094817900618"><ele>8.200000000000001</ele><time>2026-04-28T11:03:20.001Z</time></trkpt><trkpt lat="38.20677522671449" lon="15.56211927467663"><ele>8.0</ele><time>2026-04-28T11:03:21.001Z</time></trkpt><trkpt lat="38.20668213350915" lon="15.562144148342028"><ele>7.800000000000001</ele><time>2026-04-28T11:03:22.001Z</time></trkpt><trkpt lat="38.20657685535454" lon="15.562177508427137"><ele>7.6000000000000005</ele><time>2026-04-28T11:03:23.001Z</time></trkpt><trkpt lat="38.20646335286917" lon="15.56220978858895"><ele>7.3999999999999995</ele><time>2026-04-28T11:03:24.001Z</time></trkpt><trkpt lat="38.20634968432473" lon="15.562214874768543"><ele>7.199999999999999</ele><time>2026-04-28T11:03:25.001Z</time></trkpt><trkpt lat="38.2062458621105" lon="15.56219316899731"><ele>7.0</ele><time>2026-04-28T11:03:26.001Z</time></trkpt><trkpt lat="38.206162268184286" lon="15.562168771718866"><ele>7.0</ele><time>2026-04-28T11:03:27.001Z</time></trkpt><trkpt lat="38.206088726742436" lon="15.56214603916858"><ele>6.999999999999999</ele><time>2026-04-28T11:03:28.001Z</time></trkpt><trkpt lat="38.206003709954906" lon="15.562122874807509"><ele>6.999999999999999</ele><time>2026-04-28T11:03:29.001Z</time></trkpt><trkpt lat="38.20592921404327" lon="15.562101278029882"><ele>7.0</ele><time>2026-04-28T11:03:30.001Z</time></trkpt><trkpt lat="38.205831425384375" lon="15.56205410506708"><ele>7.0</ele><time>2026-04-28T11:03:32.001Z</time></trkpt><trkpt lat="38.20582118437592" lon="15.561872064314368"><ele>7.333333333333334</ele><time>2026-04-28T11:03:34.001Z</time></trkpt><trkpt lat="38.20583823676063" lon="15.561778804483032"><ele>7.666666666666667</ele><time>2026-04-28T11:03:35.001Z</time></trkpt><trkpt lat="38.205868114397504" lon="15.561686638582634"><ele>8.0</ele><time>2026-04-28T11:03:36.001Z</time></trkpt><trkpt lat="38.20590665847129" lon="15.561588967723152"><ele>8.333333333333334</ele><time>2026-04-28T11:03:37.001Z</time></trkpt><trkpt lat="38.20592366034873" lon="15.561489768326599"><ele>8.666666666666666</ele><time>2026-04-28T11:03:38.001Z</time></trkpt><trkpt lat="38.20595229914342" lon="15.561393200603831"><ele>9.0</ele><time>2026-04-28T11:03:39.001Z</time></trkpt><trkpt lat="38.205977286997225" lon="15.561308943771374"><ele>9.0</ele><time>2026-04-28T11:03:40.001Z</time></trkpt><trkpt lat="38.206009495237794" lon="15.561228415842688"><ele>9.0</ele><time>2026-04-28T11:03:44.001Z</time></trkpt><trkpt lat="38.20604640155718" lon="15.56114888271418"><ele>9.0</ele><time>2026-04-28T11:05:17.001Z</time></trkpt><trkpt lat="38.20606541291578" lon="15.561050788365968"><ele>9.0</ele><time>2026-04-28T11:05:19.001Z</time></trkpt><trkpt lat="38.206076665576475" lon="15.560969064759364"><ele>9.0</ele><time>2026-04-28T11:05:20.001Z</time></trkpt><trkpt lat="38.20618270770335" lon="15.560938789007935"><ele>9.0</ele><time>2026-04-28T11:05:22.001Z</time></trkpt><trkpt lat="38.2062796956007" lon="15.560973817936983"><ele>10.75</ele><time>2026-04-28T11:05:23.001Z</time></trkpt><trkpt lat="38.20639602881716" lon="15.561029204665886"><ele>12.5</ele><time>2026-04-28T11:05:24.001Z</time></trkpt><trkpt lat="38.20652604544038" lon="15.561073323025484"><ele>14.25</ele><time>2026-04-28T11:05:25.001Z</time></trkpt><trkpt lat="38.206670207174064" lon="15.561119694250337"><ele>16.0</ele><time>2026-04-28T11:05:26.001Z</time></trkpt><trkpt lat="38.20681708095579" lon="15.561158425467925"><ele>14.25</ele><time>2026-04-28T11:05:27.001Z</time></trkpt><trkpt lat="38.20696311905843" lon="15.561200487898422"><ele>12.5</ele><time>2026-04-28T11:05:28.001Z</time></trkpt><trkpt lat="38.20710914354261" lon="15.561239016485292"><ele>10.75</ele><time>2026-04-28T11:05:29.001Z</time></trkpt><trkpt lat="38.20723818428761" lon="15.56127402347376"><ele>9.0</ele><time>2026-04-28T11:05:30.001Z</time></trkpt><trkpt lat="38.207353037445664" lon="15.561304762529339"><ele>9.0</ele><time>2026-04-28T11:05:31.001Z</time></trkpt><trkpt lat="38.2074599877947" lon="15.561331061422841"><ele>9.0</ele><time>2026-04-28T11:05:32.001Z</time></trkpt><trkpt lat="38.20755644432711" lon="15.561358212315806"><ele>9.0</ele><time>2026-04-28T11:05:33.001Z</time></trkpt><trkpt lat="38.207645700776055" lon="15.5613669383776"><ele>9.0</ele><time>2026-04-28T11:05:34.001Z</time></trkpt><trkpt lat="38.207722190304565" lon="15.561363155429312"><ele>9.0</ele><time>2026-04-28T11:05:35.001Z</time></trkpt><trkpt lat="38.207830568082116" lon="15.56133154745206"><ele>9.0</ele><time>2026-04-28T11:05:37.001Z</time></trkpt><trkpt lat="38.207932427558305" lon="15.561296587254327"><ele>9.0</ele><time>2026-04-28T11:05:39.001Z</time></trkpt><trkpt lat="38.20800671679584" lon="15.561278870246564"><ele>9.0</ele><time>2026-04-28T11:05:40.001Z</time></trkpt><trkpt lat="38.20809169417979" lon="15.56125911387515"><ele>9.0</ele><time>2026-04-28T11:05:41.001Z</time></trkpt><trkpt lat="38.20819175161114" lon="15.561241561666575"><ele>9.0</ele><time>2026-04-28T11:05:42.001Z</time></trkpt><trkpt lat="38.20830397125838" lon="15.561230243104717"><ele>8.5</ele><time>2026-04-28T11:05:43.001Z</time></trkpt><trkpt lat="38.208422687834435" lon="15.561215118153488"><ele>8.0</ele><time>2026-04-28T11:05:44.001Z</time></trkpt><trkpt lat="38.20854327364223" lon="15.561190163929627"><ele>7.5</ele><time>2026-04-28T11:05:45.001Z</time></trkpt><trkpt lat="38.20866173621495" lon="15.561168995356578"><ele>7.0</ele><time>2026-04-28T11:05:46.001Z</time></trkpt><trkpt lat="38.20877052010757" lon="15.56115076878035"><ele>7.5</ele><time>2026-04-28T11:05:47.001Z</time></trkpt><trkpt lat="38.20887143200851" lon="15.561132856143521"><ele>8.0</ele><time>2026-04-28T11:05:48.001Z</time></trkpt><trkpt lat="38.208980523007256" lon="15.561115745672444"><ele>8.5</ele><time>2026-04-28T11:05:49.001Z</time></trkpt><trkpt lat="38.20910051513896" lon="15.561095809766435"><ele>9.0</ele><time>2026-04-28T11:05:50.001Z</time></trkpt><trkpt lat="38.209225857706336" lon="15.561072436121552"><ele>9.0</ele><time>2026-04-28T11:05:51.001Z</time></trkpt><trkpt lat="38.20933973246474" lon="15.561043036106357"><ele>9.0</ele><time>2026-04-28T11:05:52Z</time></trkpt><trkpt lat="38.20944535958519" lon="15.561018145854081"><ele>9.0</ele><time>2026-04-28T11:05:53Z</time></trkpt><trkpt lat="38.209546290121324" lon="15.561000239959238"><ele>9.0</ele><time>2026-04-28T11:05:54Z</time></trkpt><trkpt lat="38.20964125587316" lon="15.560981286329651"><ele>9.0</ele><time>2026-04-28T11:05:55Z</time></trkpt><trkpt lat="38.20973501585081" lon="15.56096379889937"><ele>9.0</ele><time>2026-04-28T11:05:56Z</time></trkpt><trkpt lat="38.20982500855924" lon="15.560949669566044"><ele>9.0</ele><time>2026-04-28T11:05:57Z</time></trkpt><trkpt lat="38.20991280086257" lon="15.560949537908794"><ele>9.0</ele><time>2026-04-28T11:05:58Z</time></trkpt><trkpt lat="38.21000113132765" lon="15.560961408469577"><ele>9.0</ele><time>2026-04-28T11:05:59Z</time></trkpt><trkpt lat="38.21008453119175" lon="15.560967985666792"><ele>9.0</ele><time>2026-04-28T11:06:00Z</time></trkpt><trkpt lat="38.21015881355471" lon="15.56097887569157"><ele>9.0</ele><time>2026-04-28T11:06:01Z</time></trkpt><trkpt lat="38.2102337730216" lon="15.560992557655068"><ele>11.0</ele><time>2026-04-28T11:06:02Z</time></trkpt><trkpt lat="38.210324654717276" lon="15.56101530454223"><ele>13.0</ele><time>2026-04-28T11:06:03Z</time></trkpt><trkpt lat="38.21043445877294" lon="15.561060376151355"><ele>15.0</ele><time>2026-04-28T11:06:04Z</time></trkpt><trkpt lat="38.210559107815534" lon="15.561121998415278"><ele>17.0</ele><time>2026-04-28T11:06:05Z</time></trkpt><trkpt lat="38.21069983663481" lon="15.561188484868168"><ele>14.25</ele><time>2026-04-28T11:06:06Z</time></trkpt><trkpt lat="38.210826086998146" lon="15.561244459880855"><ele>11.5</ele><time>2026-04-28T11:06:07Z</time></trkpt><trkpt lat="38.21094422151074" lon="15.561299199357316"><ele>8.75</ele><time>2026-04-28T11:06:08Z</time></trkpt><trkpt lat="38.211060127947874" lon="15.561353803319498"><ele>6.0</ele><time>2026-04-28T11:06:09Z</time></trkpt><trkpt lat="38.21118198236607" lon="15.561408560496439"><ele>6.0</ele><time>2026-04-28T11:06:10Z</time></trkpt><trkpt lat="38.2112993802904" lon="15.561460277523713"><ele>6.0</ele><time>2026-04-28T11:06:11Z</time></trkpt><trkpt lat="38.211406041187885" lon="15.561504728548613"><ele>6.0</ele><time>2026-04-28T11:06:12Z</time></trkpt><trkpt lat="38.211488179303785" lon="15.561540081956315"><ele>6.0</ele><time>2026-04-28T11:06:13Z</time></trkpt><trkpt lat="38.211574596767285" lon="15.561582796154347"><ele>6.0</ele><time>2026-04-28T11:06:15Z</time></trkpt><trkpt lat="38.21165664609763" lon="15.561636503371306"><ele>7.166666666666666</ele><time>2026-04-28T11:06:17Z</time></trkpt><trkpt lat="38.21172850610909" lon="15.561665075582999"><ele>8.333333333333332</ele><time>2026-04-28T11:06:18Z</time></trkpt><trkpt lat="38.21179091817341" lon="15.561689458991028"><ele>9.5</ele><time>2026-04-28T11:06:19Z</time></trkpt><trkpt lat="38.21191220397182" lon="15.561738875763847"><ele>10.666666666666666</ele><time>2026-04-28T11:06:21Z</time></trkpt><trkpt lat="38.211992485051425" lon="15.561806627212583"><ele>11.833333333333332</ele><time>2026-04-28T11:06:23Z</time></trkpt><trkpt lat="38.21206319294798" lon="15.561829107875267"><ele>13.0</ele><time>2026-04-28T11:06:27Z</time></trkpt><trkpt lat="38.212129420053365" lon="15.561890935135184"><ele>13.0</ele><time>2026-04-28T11:10:43Z</time></trkpt><trkpt lat="38.21221351610116" lon="15.561890589109531"><ele>13.0</ele><time>2026-04-28T11:10:49Z</time></trkpt><trkpt lat="38.212202260101535" lon="15.56178566714051"><ele>13.0</ele><time>2026-04-28T11:11:16.001Z</time></trkpt><trkpt lat="38.21213568881435" lon="15.561711439502428"><ele>13.0</ele><time>2026-04-28T11:11:17Z</time></trkpt><trkpt lat="38.2120545207137" lon="15.561632483085228"><ele>13.0</ele><time>2026-04-28T11:11:18Z</time></trkpt><trkpt lat="38.21197231214841" lon="15.56155854438851"><ele>13.0</ele><time>2026-04-28T11:11:19Z</time></trkpt><trkpt lat="38.21187933085947" lon="15.561519616857087"><ele>13.0</ele><time>2026-04-28T11:11:20Z</time></trkpt><trkpt lat="38.211769691221065" lon="15.561476619733273"><ele>13.0</ele><time>2026-04-28T11:11:21Z</time></trkpt><trkpt lat="38.21164953427823" lon="15.561428667707755"><ele>13.0</ele><time>2026-04-28T11:11:22Z</time></trkpt><trkpt lat="38.21151395790332" lon="15.561377274779943"><ele>10.666666666666666</ele><time>2026-04-28T11:11:23Z</time></trkpt><trkpt lat="38.211360118677135" lon="15.561315319329546"><ele>8.333333333333332</ele><time>2026-04-28T11:11:24Z</time></trkpt><trkpt lat="38.21121125152459" lon="15.561251310629945"><ele>6.0</ele><time>2026-04-28T11:11:25Z</time></trkpt><trkpt lat="38.21106944609925" lon="15.561187484010258"><ele>8.75</ele><time>2026-04-28T11:11:26Z</time></trkpt><trkpt lat="38.21093561034013" lon="15.561123491610445"><ele>11.5</ele><time>2026-04-28T11:11:27Z</time></trkpt><trkpt lat="38.21080504223754" lon="15.561064102711722"><ele>14.25</ele><time>2026-04-28T11:11:28Z</time></trkpt><trkpt lat="38.210685242037016" lon="15.561006725020633"><ele>17.0</ele><time>2026-04-28T11:11:29Z</time></trkpt><trkpt lat="38.210568292236296" lon="15.560964178645555"><ele>17.0</ele><time>2026-04-28T11:11:30Z</time></trkpt><trkpt lat="38.21045186191839" lon="15.560922066760888"><ele>17.0</ele><time>2026-04-28T11:11:31Z</time></trkpt><trkpt lat="38.21032999674779" lon="15.560875539922447"><ele>17.0</ele><time>2026-04-28T11:11:32Z</time></trkpt><trkpt lat="38.21020646071322" lon="15.56084187026897"><ele>17.0</ele><time>2026-04-28T11:11:33Z</time></trkpt><trkpt lat="38.210090832639345" lon="15.560821887210228"><ele>17.0</ele><time>2026-04-28T11:11:34Z</time></trkpt><trkpt lat="38.209981985769765" lon="15.560802314316636"><ele>17.0</ele><time>2026-04-28T11:11:35Z</time></trkpt><trkpt lat="38.209874775068194" lon="15.560800590455694"><ele>17.0</ele><time>2026-04-28T11:11:36Z</time></trkpt><trkpt lat="38.20977228321515" lon="15.560809678895746"><ele>17.0</ele><time>2026-04-28T11:11:37Z</time></trkpt><trkpt lat="38.20967058878816" lon="15.56082274912511"><ele>17.0</ele><time>2026-04-28T11:11:38Z</time></trkpt><trkpt lat="38.20955520687577" lon="15.56083162326111"><ele>15.0</ele><time>2026-04-28T11:11:39Z</time></trkpt><trkpt lat="38.209423464940365" lon="15.560853015236912"><ele>13.0</ele><time>2026-04-28T11:11:40Z</time></trkpt><trkpt lat="38.20928628449153" lon="15.56088292105326"><ele>11.0</ele><time>2026-04-28T11:11:41Z</time></trkpt><trkpt lat="38.20915060450455" lon="15.56090932200206"><ele>9.0</ele><time>2026-04-28T11:11:42Z</time></trkpt><trkpt lat="38.209012396219734" lon="15.560928966132323"><ele>10.5</ele><time>2026-04-28T11:11:43Z</time></trkpt><trkpt lat="38.20887150794584" lon="15.560952035677618"><ele>12.0</ele><time>2026-04-28T11:11:44Z</time></trkpt><trkpt lat="38.208728599042516" lon="15.56098213268524"><ele>13.5</ele><time>2026-04-28T11:11:45Z</time></trkpt><trkpt lat="38.208581630647586" lon="15.561017290297453"><ele>15.0</ele><time>2026-04-28T11:11:46Z</time></trkpt><trkpt lat="38.20842980103629" lon="15.561049281666941"><ele>15.0</ele><time>2026-04-28T11:11:47Z</time></trkpt><trkpt lat="38.20827967231636" lon="15.561080935137815"><ele>15.0</ele><time>2026-04-28T11:11:48Z</time></trkpt><trkpt lat="38.20814507438645" lon="15.561112403181616"><ele>15.0</ele><time>2026-04-28T11:11:49Z</time></trkpt><trkpt lat="38.208019863905776" lon="15.561132711119042"><ele>15.0</ele><time>2026-04-28T11:11:50Z</time></trkpt><trkpt lat="38.20790086708204" lon="15.561152778158016"><ele>16.0</ele><time>2026-04-28T11:11:51Z</time></trkpt><trkpt lat="38.207787522498066" lon="15.561172259548515"><ele>17.0</ele><time>2026-04-28T11:11:52Z</time></trkpt><trkpt lat="38.207681510868795" lon="15.561182971902028"><ele>18.0</ele><time>2026-04-28T11:11:53Z</time></trkpt><trkpt lat="38.20755078389594" lon="15.561193565413973"><ele>19.0</ele><time>2026-04-28T11:11:54Z</time></trkpt><trkpt lat="38.20739840119585" lon="15.561187610646348"><ele>18.25</ele><time>2026-04-28T11:11:55Z</time></trkpt><trkpt lat="38.20722694292876" lon="15.561159515726244"><ele>17.5</ele><time>2026-04-28T11:11:56Z</time></trkpt><trkpt lat="38.20710330774477" lon="15.561116906752568"><ele>16.75</ele><time>2026-04-28T11:11:57Z</time></trkpt><trkpt lat="38.20699604943848" lon="15.56107928745049"><ele>16.0</ele><time>2026-04-28T11:11:58Z</time></trkpt><trkpt lat="38.20690400752891" lon="15.561053524793621"><ele>15.999999999999998</ele><time>2026-04-28T11:11:59Z</time></trkpt><trkpt lat="38.20684013238796" lon="15.561035118552738"><ele>16.0</ele><time>2026-04-28T11:12:00Z</time></trkpt><trkpt lat="38.20677727843786" lon="15.561026894970043"><ele>16.0</ele><time>2026-04-28T11:12:03Z</time></trkpt><trkpt lat="38.20661487262209" lon="15.560979469420998"><ele>16.0</ele><time>2026-04-28T11:12:22Z</time></trkpt><trkpt lat="38.206540518956324" lon="15.56095932371166"><ele>15.999999999999998</ele><time>2026-04-28T11:12:23Z</time></trkpt><trkpt lat="38.20647607416002" lon="15.560941620332562"><ele>16.0</ele><time>2026-04-28T11:12:24Z</time></trkpt><trkpt lat="38.206344960780164" lon="15.560899916752078"><ele>15.999999999999998</ele><time>2026-04-28T11:12:26Z</time></trkpt><trkpt lat="38.20627646539261" lon="15.560879739876029"><ele>16.0</ele><time>2026-04-28T11:12:27Z</time></trkpt><trkpt lat="38.20615892175151" lon="15.560831595791187"><ele>16.0</ele><time>2026-04-28T11:12:29Z</time></trkpt><trkpt lat="38.20609470341671" lon="15.560808456887381"><ele>16.0</ele><time>2026-04-28T11:12:30Z</time></trkpt><trkpt lat="38.20603309868021" lon="15.560787049659472"><ele>15.999999999999998</ele><time>2026-04-28T11:12:31Z</time></trkpt><trkpt lat="38.205936005102934" lon="15.560762917647736"><ele>16.0</ele><time>2026-04-28T11:12:33Z</time></trkpt><trkpt lat="38.20583591404313" lon="15.560756320654527"><ele>16.0</ele><time>2026-04-28T11:12:35Z</time></trkpt><trkpt lat="38.20577257548224" lon="15.56075021910937"><ele>16.0</ele><time>2026-04-28T11:12:36Z</time></trkpt><trkpt lat="38.20569889645439" lon="15.560708039839104"><ele>16.0</ele><time>2026-04-28T11:12:37Z</time></trkpt><trkpt lat="38.2056213858788" lon="15.560684373646568"><ele>16.0</ele><time>2026-04-28T11:12:38Z</time></trkpt><trkpt lat="38.20552152551186" lon="15.560656830289629"><ele>16.0</ele><time>2026-04-28T11:12:39Z</time></trkpt><trkpt lat="38.205364566581736" lon="15.560613202708298"><ele>15.0</ele><time>2026-04-28T11:12:40Z</time></trkpt><trkpt lat="38.205189318722674" lon="15.56056346087003"><ele>14.0</ele><time>2026-04-28T11:12:41Z</time></trkpt><trkpt lat="38.205048551041564" lon="15.560523505787632"><ele>13.0</ele><time>2026-04-28T11:12:42Z</time></trkpt><trkpt lat="38.20493427940841" lon="15.56049107126259"><ele>12.0</ele><time>2026-04-28T11:12:43Z</time></trkpt><trkpt lat="38.20483083522799" lon="15.560461709975177"><ele>12.2</ele><time>2026-04-28T11:12:44Z</time></trkpt><trkpt lat="38.20473756258584" lon="15.560435235742343"><ele>12.399999999999999</ele><time>2026-04-28T11:12:45Z</time></trkpt><trkpt lat="38.20464560475392" lon="15.56043070485177"><ele>12.600000000000001</ele><time>2026-04-28T11:12:46Z</time></trkpt><trkpt lat="38.20456183135577" lon="15.56039156445676"><ele>12.8</ele><time>2026-04-28T11:12:47Z</time></trkpt><trkpt lat="38.20445149059864" lon="15.560343387788587"><ele>13.0</ele><time>2026-04-28T11:12:48Z</time></trkpt><trkpt lat="38.20430318318538" lon="15.560295882880986"><ele>13.5</ele><time>2026-04-28T11:12:49Z</time></trkpt><trkpt lat="38.20416209155922" lon="15.560267388712484"><ele>14.0</ele><time>2026-04-28T11:12:50Z</time></trkpt><trkpt lat="38.20404103434093" lon="15.560231496390886"><ele>14.5</ele><time>2026-04-28T11:12:51Z</time></trkpt><trkpt lat="38.20392561860088" lon="15.560191543031769"><ele>15.0</ele><time>2026-04-28T11:12:52Z</time></trkpt><trkpt lat="38.203809825004456" lon="15.560160166793684"><ele>15.0</ele><time>2026-04-28T11:12:53Z</time></trkpt><trkpt lat="38.20370184752254" lon="15.56012604942975"><ele>15.0</ele><time>2026-04-28T11:12:54Z</time></trkpt><trkpt lat="38.2035895701222" lon="15.560088127742748"><ele>15.0</ele><time>2026-04-28T11:12:55Z</time></trkpt><trkpt lat="38.20346844096088" lon="15.560049298161639"><ele>15.0</ele><time>2026-04-28T11:12:56Z</time></trkpt><trkpt lat="38.20333989578998" lon="15.560008853397324"><ele>15.0</ele><time>2026-04-28T11:12:57Z</time></trkpt><trkpt lat="38.20320596807872" lon="15.559967530734518"><ele>15.0</ele><time>2026-04-28T11:12:58Z</time></trkpt><trkpt lat="38.20306974419109" lon="15.559925664101737"><ele>15.0</ele><time>2026-04-28T11:12:59Z</time></trkpt><trkpt lat="38.2029362519019" lon="15.559878394425041"><ele>15.0</ele><time>2026-04-28T11:13:00Z</time></trkpt><trkpt lat="38.202813901716794" lon="15.559836191693805"><ele>13.25</ele><time>2026-04-28T11:13:01Z</time></trkpt><trkpt lat="38.20270403750555" lon="15.55978540314211"><ele>11.5</ele><time>2026-04-28T11:13:02Z</time></trkpt><trkpt lat="38.20259472648205" lon="15.559734817430746"><ele>9.75</ele><time>2026-04-28T11:13:03Z</time></trkpt><trkpt lat="38.20249035443017" lon="15.55967497714036"><ele>8.0</ele><time>2026-04-28T11:13:04Z</time></trkpt><trkpt lat="38.2023903034516" lon="15.559625962133527"><ele>7.5</ele><time>2026-04-28T11:13:05Z</time></trkpt><trkpt lat="38.202288802664135" lon="15.559571348812137"><ele>7.0</ele><time>2026-04-28T11:13:06Z</time></trkpt><trkpt lat="38.20217667458634" lon="15.559507938812517"><ele>6.5</ele><time>2026-04-28T11:13:07Z</time></trkpt><trkpt lat="38.20205994372519" lon="15.559431804378386"><ele>6.0</ele><time>2026-04-28T11:13:08Z</time></trkpt><trkpt lat="38.20193932419131" lon="15.559354677185379"><ele>7.666666666666666</ele><time>2026-04-28T11:13:09Z</time></trkpt><trkpt lat="38.20180171292179" lon="15.559260577209047"><ele>9.333333333333332</ele><time>2026-04-28T11:13:10Z</time></trkpt><trkpt lat="38.20165705725874" lon="15.559158627290893"><ele>11.0</ele><time>2026-04-28T11:13:11Z</time></trkpt><trkpt lat="38.20153103189645" lon="15.559073970223169"><ele>10.5</ele><time>2026-04-28T11:13:12Z</time></trkpt><trkpt lat="38.20141452974597" lon="15.55899942777708"><ele>10.0</ele><time>2026-04-28T11:13:13Z</time></trkpt><trkpt lat="38.20130619425724" lon="15.558924710770365"><ele>9.5</ele><time>2026-04-28T11:13:14Z</time></trkpt><trkpt lat="38.201205496423896" lon="15.558863064216805"><ele>9.0</ele><time>2026-04-28T11:13:15Z</time></trkpt><trkpt lat="38.201106687663646" lon="15.55880341307435"><ele>9.0</ele><time>2026-04-28T11:13:16Z</time></trkpt><trkpt lat="38.20100171632345" lon="15.558740889467202"><ele>9.0</ele><time>2026-04-28T11:13:17Z</time></trkpt><trkpt lat="38.20089429901765" lon="15.558676608719576"><ele>9.0</ele><time>2026-04-28T11:13:18Z</time></trkpt><trkpt lat="38.20078780940512" lon="15.558618377638137"><ele>9.0</ele><time>2026-04-28T11:13:19Z</time></trkpt><trkpt lat="38.200685241773066" lon="15.558553092245477"><ele>8.5</ele><time>2026-04-28T11:13:20Z</time></trkpt><trkpt lat="38.20057372993004" lon="15.55849275647346"><ele>8.0</ele><time>2026-04-28T11:13:21Z</time></trkpt><trkpt lat="38.200458238372896" lon="15.558428847935298"><ele>7.5</ele><time>2026-04-28T11:13:22Z</time></trkpt><trkpt lat="38.20035001411709" lon="15.558344456770294"><ele>7.0</ele><time>2026-04-28T11:13:23Z</time></trkpt><trkpt lat="38.20024477112679" lon="15.558278179063578"><ele>7.0</ele><time>2026-04-28T11:13:24Z</time></trkpt><trkpt lat="38.20012411907176" lon="15.558208855485162"><ele>7.0</ele><time>2026-04-28T11:13:25Z</time></trkpt><trkpt lat="38.19999416354627" lon="15.558143867084704"><ele>7.0</ele><time>2026-04-28T11:13:26Z</time></trkpt><trkpt lat="38.19989657077688" lon="15.558052186858413"><ele>7.0</ele><time>2026-04-28T11:13:27Z</time></trkpt><trkpt lat="38.19982963544164" lon="15.557967318627572"><ele>7.000000000000001</ele><time>2026-04-28T11:13:28Z</time></trkpt><trkpt lat="38.19977915356678" lon="15.557890991190401"><ele>7.0</ele><time>2026-04-28T11:13:29Z</time></trkpt><trkpt lat="38.19970571331215" lon="15.557793480558596"><ele>7.0</ele><time>2026-04-28T11:13:31Z</time></trkpt><trkpt lat="38.199646517303364" lon="15.55773928119136"><ele>7.0</ele><time>2026-04-28T11:13:34Z</time></trkpt><trkpt lat="38.19958659167708" lon="15.557671188183924"><ele>7.000000000000001</ele><time>2026-04-28T11:14:45Z</time></trkpt><trkpt lat="38.199495519801744" lon="15.557590647692788"><ele>7.0</ele><time>2026-04-28T11:14:46Z</time></trkpt><trkpt lat="38.199367728524564" lon="15.557505953438731"><ele>7.5</ele><time>2026-04-28T11:14:47Z</time></trkpt><trkpt lat="38.19922284294851" lon="15.557433142010527"><ele>8.0</ele><time>2026-04-28T11:14:48Z</time></trkpt><trkpt lat="38.19906988974022" lon="15.55738706275417"><ele>8.5</ele><time>2026-04-28T11:14:49Z</time></trkpt><trkpt lat="38.1989384587761" lon="15.557358593414067"><ele>9.0</ele><time>2026-04-28T11:14:50Z</time></trkpt><trkpt lat="38.198813807994775" lon="15.557362914389888"><ele>9.0</ele><time>2026-04-28T11:14:51Z</time></trkpt><trkpt lat="38.198695841311086" lon="15.557282221561742"><ele>9.0</ele><time>2026-04-28T11:14:52Z</time></trkpt><trkpt lat="38.19858149069087" lon="15.557202389425134"><ele>9.0</ele><time>2026-04-28T11:14:53Z</time></trkpt><trkpt lat="38.19848165605631" lon="15.557125380718624"><ele>9.0</ele><time>2026-04-28T11:14:54Z</time></trkpt><trkpt lat="38.19838640000143" lon="15.55706418138736"><ele>9.6</ele><time>2026-04-28T11:14:55Z</time></trkpt><trkpt lat="38.198292457391425" lon="15.557018241022217"><ele>10.2</ele><time>2026-04-28T11:14:56Z</time></trkpt><trkpt lat="38.19821037124662" lon="15.556955956925432"><ele>10.799999999999999</ele><time>2026-04-28T11:14:57Z</time></trkpt><trkpt lat="38.19813014875865" lon="15.556905179128105"><ele>11.4</ele><time>2026-04-28T11:14:58Z</time></trkpt><trkpt lat="38.198051883470036" lon="15.556856493431347"><ele>12.0</ele><time>2026-04-28T11:14:59Z</time></trkpt><trkpt lat="38.197968849649506" lon="15.55680619559968"><ele>12.2</ele><time>2026-04-28T11:15:00Z</time></trkpt><trkpt lat="38.197876284374786" lon="15.556750124077526"><ele>12.399999999999999</ele><time>2026-04-28T11:15:01Z</time></trkpt><trkpt lat="38.197781168131456" lon="15.556692507304867"><ele>12.600000000000001</ele><time>2026-04-28T11:15:02Z</time></trkpt><trkpt lat="38.19768049310449" lon="15.556631660623355"><ele>12.8</ele><time>2026-04-28T11:15:03Z</time></trkpt><trkpt lat="38.197582427851735" lon="15.556572695822833"><ele>13.0</ele><time>2026-04-28T11:15:04Z</time></trkpt><trkpt lat="38.197489400335414" lon="15.556516760119774"><ele>13.0</ele><time>2026-04-28T11:15:05Z</time></trkpt><trkpt lat="38.19738573703768" lon="15.556454429319603"><ele>13.0</ele><time>2026-04-28T11:15:06Z</time></trkpt><trkpt lat="38.197296711079616" lon="15.556365931958322"><ele>13.0</ele><time>2026-04-28T11:15:07Z</time></trkpt><trkpt lat="38.19720431328602" lon="15.556309775915478"><ele>13.0</ele><time>2026-04-28T11:15:08Z</time></trkpt><trkpt lat="38.19711661613543" lon="15.55625661067863"><ele>13.0</ele><time>2026-04-28T11:15:09Z</time></trkpt><trkpt lat="38.19703240792397" lon="15.556205560563972"><ele>14.0</ele><time>2026-04-28T11:15:10Z</time></trkpt><trkpt lat="38.19696491949561" lon="15.556164646594429"><ele>15.0</ele><time>2026-04-28T11:15:11Z</time></trkpt><trkpt lat="38.1968454636284" lon="15.556091236759825"><ele>16.0</ele><time>2026-04-28T11:15:13Z</time></trkpt><trkpt lat="38.19676134468373" lon="15.556039366841288"><ele>17.0</ele><time>2026-04-28T11:15:14Z</time></trkpt><trkpt lat="38.1966420557661" lon="15.555965799652757"><ele>18.0</ele><time>2026-04-28T11:15:15Z</time></trkpt><trkpt lat="38.196523942993174" lon="15.555892915975146"><ele>17.4</ele><time>2026-04-28T11:15:16Z</time></trkpt><trkpt lat="38.19641715429526" lon="15.555827020030188"><ele>16.8</ele><time>2026-04-28T11:15:17Z</time></trkpt><trkpt lat="38.19631675803832" lon="15.555765071358937"><ele>16.2</ele><time>2026-04-28T11:15:18Z</time></trkpt><trkpt lat="38.196219430286156" lon="15.555718142938314"><ele>15.6</ele><time>2026-04-28T11:15:19Z</time></trkpt><trkpt lat="38.19612824098841" lon="15.555648169833546"><ele>15.0</ele><time>2026-04-28T11:15:20Z</time></trkpt><trkpt lat="38.196039180631466" lon="15.555592984438963"><ele>15.0</ele><time>2026-04-28T11:15:21Z</time></trkpt><trkpt lat="38.19594438262437" lon="15.55553426347618"><ele>15.0</ele><time>2026-04-28T11:15:22Z</time></trkpt><trkpt lat="38.19584862448743" lon="15.555474969967182"><ele>15.0</ele><time>2026-04-28T11:15:23Z</time></trkpt><trkpt lat="38.195759028326115" lon="15.555419491961324"><ele>15.0</ele><time>2026-04-28T11:15:24Z</time></trkpt><trkpt lat="38.19567389838804" lon="15.555366779441378"><ele>15.0</ele><time>2026-04-28T11:15:25Z</time></trkpt><trkpt lat="38.195591884799455" lon="15.555315996567685"><ele>15.333333333333334</ele><time>2026-04-28T11:15:26Z</time></trkpt><trkpt lat="38.19551128486398" lon="15.5552660889576"><ele>15.666666666666668</ele><time>2026-04-28T11:15:27Z</time></trkpt><trkpt lat="38.195431126575336" lon="15.555218017212706"><ele>16.0</ele><time>2026-04-28T11:15:28Z</time></trkpt><trkpt lat="38.19534916148614" lon="15.555168308577725"><ele>16.333333333333336</ele><time>2026-04-28T11:15:29Z</time></trkpt><trkpt lat="38.195291353479874" lon="15.555133250268431"><ele>16.666666666666668</ele><time>2026-04-28T11:15:30Z</time></trkpt><trkpt lat="38.195194314358254" lon="15.555074586860767"><ele>17.0</ele><time>2026-04-28T11:15:32Z</time></trkpt><trkpt lat="38.1950954818905" lon="15.55501563040677"><ele>17.0</ele><time>2026-04-28T11:15:34Z</time></trkpt><trkpt lat="38.19502769411033" lon="15.55497519300687"><ele>17.0</ele><time>2026-04-28T11:15:36Z</time></trkpt><trkpt lat="38.19497018062568" lon="15.554939673843316"><ele>17.0</ele><time>2026-04-28T11:15:38Z</time></trkpt><trkpt lat="38.19490382344529" lon="15.554898338724747"><ele>17.0</ele><time>2026-04-28T11:15:40Z</time></trkpt><trkpt lat="38.19484128683407" lon="15.554859383515124"><ele>17.0</ele><time>2026-04-28T11:15:42Z</time></trkpt><trkpt lat="38.19475061842673" lon="15.554802904486925"><ele>17.0</ele><time>2026-04-28T11:15:44Z</time></trkpt><trkpt lat="38.194668408534554" lon="15.554751694424354"><ele>17.25</ele><time>2026-04-28T11:15:45Z</time></trkpt><trkpt lat="38.19455331555826" lon="15.554680000900284"><ele>17.5</ele><time>2026-04-28T11:15:46Z</time></trkpt><trkpt lat="38.19442734722341" lon="15.554600944426065"><ele>17.75</ele><time>2026-04-28T11:15:47Z</time></trkpt><trkpt lat="38.19430492151513" lon="15.554524087427906"><ele>18.0</ele><time>2026-04-28T11:15:48Z</time></trkpt><trkpt lat="38.194190048205535" lon="15.55445197172132"><ele>18.0</ele><time>2026-04-28T11:15:49Z</time></trkpt><trkpt lat="38.19409120688428" lon="15.55439060559946"><ele>18.0</ele><time>2026-04-28T11:15:50Z</time></trkpt><trkpt lat="38.19400141016637" lon="15.554335301612756"><ele>18.0</ele><time>2026-04-28T11:15:51Z</time></trkpt><trkpt lat="38.19393573572721" lon="15.554294854054547"><ele>18.0</ele><time>2026-04-28T11:15:52Z</time></trkpt><trkpt lat="38.19386718266116" lon="15.554273657331148"><ele>18.0</ele><time>2026-04-28T11:15:54Z</time></trkpt><trkpt lat="38.19369936480163" lon="15.554139320367533"><ele>17.6</ele><time>2026-04-28T11:16:03Z</time></trkpt><trkpt lat="38.19360482426329" lon="15.554096478551369"><ele>17.200000000000003</ele><time>2026-04-28T11:16:04Z</time></trkpt><trkpt lat="38.19351603608402" lon="15.554052264299635"><ele>16.8</ele><time>2026-04-28T11:16:05Z</time></trkpt><trkpt lat="38.19344220979447" lon="15.554013626974795"><ele>16.400000000000002</ele><time>2026-04-28T11:16:06Z</time></trkpt><trkpt lat="38.193371234772634" lon="15.553967503574432"><ele>16.0</ele><time>2026-04-28T11:16:08Z</time></trkpt><trkpt lat="38.19328817291214" lon="15.553910050498118"><ele>16.0</ele><time>2026-04-28T11:16:12Z</time></trkpt><trkpt lat="38.19319912864925" lon="15.553847925499234"><ele>16.0</ele><time>2026-04-28T11:16:14Z</time></trkpt><trkpt lat="38.19312980409406" lon="15.553805485939701"><ele>16.0</ele><time>2026-04-28T11:16:15Z</time></trkpt><trkpt lat="38.193050932754105" lon="15.553757201987635"><ele>16.0</ele><time>2026-04-28T11:16:16Z</time></trkpt><trkpt lat="38.192953902283335" lon="15.553716201253897"><ele>16.0</ele><time>2026-04-28T11:16:17Z</time></trkpt><trkpt lat="38.19285433051988" lon="15.553636844772566"><ele>16.75</ele><time>2026-04-28T11:16:18Z</time></trkpt><trkpt lat="38.19273342617369" lon="15.553586530988643"><ele>17.5</ele><time>2026-04-28T11:16:19Z</time></trkpt><trkpt lat="38.19261864641941" lon="15.553514689800602"><ele>18.25</ele><time>2026-04-28T11:16:20Z</time></trkpt><trkpt lat="38.19249315639821" lon="15.553438619648551"><ele>19.0</ele><time>2026-04-28T11:16:21Z</time></trkpt><trkpt lat="38.192360627268926" lon="15.55333676456455"><ele>19.333333333333332</ele><time>2026-04-28T11:16:22Z</time></trkpt><trkpt lat="38.19221671815986" lon="15.55327166273299"><ele>19.666666666666668</ele><time>2026-04-28T11:16:23Z</time></trkpt><trkpt lat="38.192073270084876" lon="15.553178070098362"><ele>20.0</ele><time>2026-04-28T11:16:24Z</time></trkpt><trkpt lat="38.191940346381884" lon="15.55309930882692"><ele>20.0</ele><time>2026-04-28T11:16:25Z</time></trkpt><trkpt lat="38.19181618899309" lon="15.553026886670857"><ele>20.0</ele><time>2026-04-28T11:16:26Z</time></trkpt><trkpt lat="38.19168980216291" lon="15.55294741136919"><ele>20.0</ele><time>2026-04-28T11:16:27Z</time></trkpt><trkpt lat="38.191562439659435" lon="15.552869096475789"><ele>20.0</ele><time>2026-04-28T11:16:28Z</time></trkpt><trkpt lat="38.191440708895534" lon="15.552794337789832"><ele>21.5</ele><time>2026-04-28T11:16:29Z</time></trkpt><trkpt lat="38.19132052742901" lon="15.552719320039708"><ele>23.0</ele><time>2026-04-28T11:16:30Z</time></trkpt><trkpt lat="38.19120634305299" lon="15.552655509040212"><ele>24.5</ele><time>2026-04-28T11:16:31Z</time></trkpt><trkpt lat="38.191089377577214" lon="15.552589481869122"><ele>26.0</ele><time>2026-04-28T11:16:32Z</time></trkpt><trkpt lat="38.19096283434475" lon="15.552524188791631"><ele>26.0</ele><time>2026-04-28T11:16:33Z</time></trkpt><trkpt lat="38.190838278763316" lon="15.55244795413304"><ele>26.0</ele><time>2026-04-28T11:16:34Z</time></trkpt><trkpt lat="38.19071311654364" lon="15.55237269446348"><ele>26.0</ele><time>2026-04-28T11:16:35Z</time></trkpt><trkpt lat="38.19058709083931" lon="15.552289091463557"><ele>26.0</ele><time>2026-04-28T11:16:36Z</time></trkpt><trkpt lat="38.1904553041301" lon="15.552207913493998"><ele>25.5</ele><time>2026-04-28T11:16:37Z</time></trkpt><trkpt lat="38.190337764102544" lon="15.552127333414555"><ele>25.0</ele><time>2026-04-28T11:16:38Z</time></trkpt><trkpt lat="38.190228023033825" lon="15.552062642179232"><ele>24.5</ele><time>2026-04-28T11:16:39Z</time></trkpt><trkpt lat="38.19012628465986" lon="15.551996928372072"><ele>24.0</ele><time>2026-04-28T11:16:40Z</time></trkpt><trkpt lat="38.19002663560192" lon="15.551936169838083"><ele>23.833333333333332</ele><time>2026-04-28T11:16:41Z</time></trkpt><trkpt lat="38.18993229209465" lon="15.551882386079539"><ele>23.666666666666668</ele><time>2026-04-28T11:16:42Z</time></trkpt><trkpt lat="38.18984577180087" lon="15.551833692313073"><ele>23.5</ele><time>2026-04-28T11:16:43Z</time></trkpt><trkpt lat="38.18978178215454" lon="15.55179674970156"><ele>23.333333333333336</ele><time>2026-04-28T11:16:44Z</time></trkpt><trkpt lat="38.189716145500455" lon="15.551765166275592"><ele>23.166666666666668</ele><time>2026-04-28T11:16:46Z</time></trkpt><trkpt lat="38.18965573482063" lon="15.551715004174243"><ele>23.0</ele><time>2026-04-28T11:16:49Z</time></trkpt><trkpt lat="38.18955379907649" lon="15.551626122514714"><ele>23.0</ele><time>2026-04-28T11:17:33Z</time></trkpt><trkpt lat="38.18949906272202" lon="15.55156308381299"><ele>23.0</ele><time>2026-04-28T11:17:34Z</time></trkpt><trkpt lat="38.18947119607964" lon="15.551486182422089"><ele>23.0</ele><time>2026-04-28T11:17:35Z</time></trkpt><trkpt lat="38.18948389903315" lon="15.55135679295303"><ele>23.0</ele><time>2026-04-28T11:17:37Z</time></trkpt><trkpt lat="38.189512856987115" lon="15.55128261023084"><ele>23.0</ele><time>2026-04-28T11:17:39Z</time></trkpt><trkpt lat="38.1895268713054" lon="15.551202816829427"><ele>23.0</ele><time>2026-04-28T11:17:41Z</time></trkpt><trkpt lat="38.18955821187092" lon="15.55108338630642"><ele>26.0</ele><time>2026-04-28T11:17:43Z</time></trkpt><trkpt lat="38.189607143279225" lon="15.550964628522596"><ele>29.0</ele><time>2026-04-28T11:17:44Z</time></trkpt><trkpt lat="38.18965639795448" lon="15.550783353809393"><ele>32.0</ele><time>2026-04-28T11:17:45Z</time></trkpt><trkpt lat="38.18970577038683" lon="15.55059871111553"><ele>35.0</ele><time>2026-04-28T11:17:46Z</time></trkpt><trkpt lat="38.18974161420413" lon="15.55046533200472"><ele>35.83333333333333</ele><time>2026-04-28T11:17:47Z</time></trkpt><trkpt lat="38.189771902068905" lon="15.550352889303772"><ele>36.666666666666664</ele><time>2026-04-28T11:17:48Z</time></trkpt><trkpt lat="38.18978698654217" lon="15.550242261094853"><ele>37.5</ele><time>2026-04-28T11:17:49Z</time></trkpt><trkpt lat="38.18981774089255" lon="15.550137517547874"><ele>38.333333333333336</ele><time>2026-04-28T11:17:50Z</time></trkpt><trkpt lat="38.1898395645633" lon="15.55004647092702"><ele>39.16666666666667</ele><time>2026-04-28T11:17:52Z</time></trkpt><trkpt lat="38.189862287543036" lon="15.549966605733442"><ele>40.0</ele><time>2026-04-28T11:17:54Z</time></trkpt><trkpt lat="38.18991098650633" lon="15.549848181383194"><ele>40.0</ele><time>2026-04-28T11:17:56Z</time></trkpt><trkpt lat="38.18993847248344" lon="15.549750030479059"><ele>40.0</ele><time>2026-04-28T11:17:57Z</time></trkpt><trkpt lat="38.18997444027528" lon="15.549625138327892"><ele>40.0</ele><time>2026-04-28T11:17:58Z</time></trkpt><trkpt lat="38.18999552224233" lon="15.549510773471773"><ele>40.0</ele><time>2026-04-28T11:17:59Z</time></trkpt><trkpt lat="38.190025560587934" lon="15.549408124081408"><ele>40.0</ele><time>2026-04-28T11:18:00Z</time></trkpt><trkpt lat="38.190082310400406" lon="15.54929545695346"><ele>40.333333333333336</ele><time>2026-04-28T11:18:01Z</time></trkpt><trkpt lat="38.19010315814949" lon="15.549187705289368"><ele>40.66666666666667</ele><time>2026-04-28T11:18:02Z</time></trkpt><trkpt lat="38.19014637370962" lon="15.549102199269134"><ele>41.0</ele><time>2026-04-28T11:18:03Z</time></trkpt><trkpt lat="38.190185478486505" lon="15.549012356579446"><ele>41.333333333333336</ele><time>2026-04-28T11:18:04Z</time></trkpt><trkpt lat="38.190216515756624" lon="15.548908104516304"><ele>41.666666666666664</ele><time>2026-04-28T11:18:05Z</time></trkpt><trkpt lat="38.19024869134457" lon="15.548816189146521"><ele>42.0</ele><time>2026-04-28T11:18:06Z</time></trkpt><trkpt lat="38.19029722472943" lon="15.548733398279978"><ele>42.333333333333336</ele><time>2026-04-28T11:18:07Z</time></trkpt><trkpt lat="38.19031952473081" lon="15.548639955809456"><ele>42.666666666666664</ele><time>2026-04-28T11:18:08Z</time></trkpt><trkpt lat="38.19036220139617" lon="15.548550551927683"><ele>43.0</ele><time>2026-04-28T11:18:09Z</time></trkpt><trkpt lat="38.190412110219874" lon="15.548453915051125"><ele>43.33333333333333</ele><time>2026-04-28T11:18:10Z</time></trkpt><trkpt lat="38.19045781702193" lon="15.54835415814148"><ele>43.666666666666664</ele><time>2026-04-28T11:18:11Z</time></trkpt><trkpt lat="38.19049964313421" lon="15.548265545517282"><ele>44.0</ele><time>2026-04-28T11:18:12Z</time></trkpt><trkpt lat="38.1905422209461" lon="15.548181125210794"><ele>44.0</ele><time>2026-04-28T11:18:13Z</time></trkpt><trkpt lat="38.1905969896262" lon="15.548107882362647"><ele>44.0</ele><time>2026-04-28T11:18:14Z</time></trkpt><trkpt lat="38.19063829196492" lon="15.548030431918834"><ele>44.0</ele><time>2026-04-28T11:18:15Z</time></trkpt><trkpt lat="38.190663100577524" lon="15.547950748517248"><ele>44.0</ele><time>2026-04-28T11:18:16Z</time></trkpt><trkpt lat="38.19071891135829" lon="15.547885297667593"><ele>44.0</ele><time>2026-04-28T11:18:17Z</time></trkpt><trkpt lat="38.190761790811294" lon="15.54780824265229"><ele>44.0</ele><time>2026-04-28T11:18:18Z</time></trkpt><trkpt lat="38.190807687941756" lon="15.547725764815082"><ele>44.800000000000004</ele><time>2026-04-28T11:18:19Z</time></trkpt><trkpt lat="38.1908625127483" lon="15.547627243837558"><ele>45.6</ele><time>2026-04-28T11:18:20Z</time></trkpt><trkpt lat="38.190918542902196" lon="15.547526556810853"><ele>46.4</ele><time>2026-04-28T11:18:21Z</time></trkpt><trkpt lat="38.19096862255143" lon="15.54743730916719"><ele>47.2</ele><time>2026-04-28T11:18:22Z</time></trkpt><trkpt lat="38.19102322365903" lon="15.547340779406285"><ele>48.0</ele><time>2026-04-28T11:18:23Z</time></trkpt><trkpt lat="38.19108101104771" lon="15.547238616588052"><ele>48.0</ele><time>2026-04-28T11:18:24Z</time></trkpt><trkpt lat="38.191131035451946" lon="15.547150178078294"><ele>48.0</ele><time>2026-04-28T11:18:25Z</time></trkpt><trkpt lat="38.191169213926614" lon="15.547082682086073"><ele>48.0</ele><time>2026-04-28T11:18:26Z</time></trkpt><trkpt lat="38.19122957293811" lon="15.546975972777519"><ele>48.0</ele><time>2026-04-28T11:18:28Z</time></trkpt><trkpt lat="38.191267783703644" lon="15.546908419485382"><ele>48.0</ele><time>2026-04-28T11:18:29Z</time></trkpt><trkpt lat="38.19131124561314" lon="15.54683098332329"><ele>48.0</ele><time>2026-04-28T11:18:30Z</time></trkpt><trkpt lat="38.19135948655785" lon="15.546745163859372"><ele>47.833333333333336</ele><time>2026-04-28T11:18:31Z</time></trkpt><trkpt lat="38.19140662796354" lon="15.546661300419581"><ele>47.666666666666664</ele><time>2026-04-28T11:18:32Z</time></trkpt><trkpt lat="38.19144348237665" lon="15.546595737271929"><ele>47.5</ele><time>2026-04-28T11:18:33Z</time></trkpt><trkpt lat="38.19150236024104" lon="15.546489796599394"><ele>47.33333333333333</ele><time>2026-04-28T11:18:35Z</time></trkpt><trkpt lat="38.19154596630628" lon="15.546411347956312"><ele>47.166666666666664</ele><time>2026-04-28T11:18:37Z</time></trkpt><trkpt lat="38.191591895520226" lon="15.546328719894472"><ele>47.0</ele><time>2026-04-28T11:18:39Z</time></trkpt><trkpt lat="38.191644448222114" lon="15.546234175702189"><ele>47.5</ele><time>2026-04-28T11:18:41Z</time></trkpt><trkpt lat="38.19151201044441" lon="15.54610411826267"><ele>48.0</ele><time>2026-04-28T11:18:42Z</time></trkpt><trkpt lat="38.191421369566" lon="15.546044252078513"><ele>48.5</ele><time>2026-04-28T11:18:43Z</time></trkpt><trkpt lat="38.19129935667923" lon="15.545966457215915"><ele>49.0</ele><time>2026-04-28T11:18:44Z</time></trkpt><trkpt lat="38.1911835509767" lon="15.545885542178327"><ele>49.25</ele><time>2026-04-28T11:18:45Z</time></trkpt><trkpt lat="38.19108479553352" lon="15.545787959379036"><ele>49.5</ele><time>2026-04-28T11:18:46Z</time></trkpt><trkpt lat="38.190973949498215" lon="15.5456950020235"><ele>49.75</ele><time>2026-04-28T11:18:47Z</time></trkpt><trkpt lat="38.19084562989603" lon="15.545595244004641"><ele>50.0</ele><time>2026-04-28T11:18:48Z</time></trkpt><trkpt lat="38.19073327735659" lon="15.545502162913202"><ele>50.75</ele><time>2026-04-28T11:18:49Z</time></trkpt><trkpt lat="38.19063348982519" lon="15.545416138004088"><ele>51.5</ele><time>2026-04-28T11:18:50Z</time></trkpt><trkpt lat="38.19053054834125" lon="15.545334527981966"><ele>52.25</ele><time>2026-04-28T11:18:51Z</time></trkpt><trkpt lat="38.19042963443548" lon="15.545251147634673"><ele>53.0</ele><time>2026-04-28T11:18:52Z</time></trkpt><trkpt lat="38.19032884030576" lon="15.545166881634149"><ele>55.0</ele><time>2026-04-28T11:18:53Z</time></trkpt><trkpt lat="38.19021661168944" lon="15.545072816174978"><ele>57.0</ele><time>2026-04-28T11:18:54Z</time></trkpt><trkpt lat="38.19009921714564" lon="15.544988127495225"><ele>59.0</ele><time>2026-04-28T11:18:55Z</time></trkpt><trkpt lat="38.18998890287405" lon="15.544940536758888"><ele>61.0</ele><time>2026-04-28T11:18:56Z</time></trkpt><trkpt lat="38.18988171625747" lon="15.544923994330977"><ele>64.39999999999999</ele><time>2026-04-28T11:18:57Z</time></trkpt><trkpt lat="38.18978101070404" lon="15.544948787531277"><ele>67.8</ele><time>2026-04-28T11:18:58Z</time></trkpt><trkpt lat="38.18968934030903" lon="15.544997133448692"><ele>71.19999999999999</ele><time>2026-04-28T11:18:59Z</time></trkpt><trkpt lat="38.18960358766166" lon="15.545074337094192"><ele>74.6</ele><time>2026-04-28T11:19:00Z</time></trkpt><trkpt lat="38.18952479036518" lon="15.545179959958578"><ele>78.0</ele><time>2026-04-28T11:19:01Z</time></trkpt><trkpt lat="38.189484822638086" lon="15.545291071588748"><ele>77.83333333333333</ele><time>2026-04-28T11:19:02Z</time></trkpt><trkpt lat="38.189457661363015" lon="15.545393660179093"><ele>77.66666666666667</ele><time>2026-04-28T11:19:03Z</time></trkpt><trkpt lat="38.18944455259506" lon="15.545496825453254"><ele>77.5</ele><time>2026-04-28T11:19:04Z</time></trkpt><trkpt lat="38.189449226623516" lon="15.545590609149112"><ele>77.33333333333334</ele><time>2026-04-28T11:19:05Z</time></trkpt><trkpt lat="38.18945242851393" lon="15.545680425271932"><ele>77.16666666666667</ele><time>2026-04-28T11:19:06Z</time></trkpt><trkpt lat="38.1894749844481" lon="15.545847830823584"><ele>77.0</ele><time>2026-04-28T11:19:08Z</time></trkpt><trkpt lat="38.18948781525477" lon="15.545941268249257"><ele>77.0</ele><time>2026-04-28T11:19:09Z</time></trkpt><trkpt lat="38.18949989676936" lon="15.546043314943056"><ele>77.0</ele><time>2026-04-28T11:19:10Z</time></trkpt><trkpt lat="38.18949932476905" lon="15.546161606046738"><ele>77.0</ele><time>2026-04-28T11:19:11Z</time></trkpt><trkpt lat="38.18951913473283" lon="15.546279770881693"><ele>77.0</ele><time>2026-04-28T11:19:12Z</time></trkpt><trkpt lat="38.189514939312886" lon="15.54640179687572"><ele>77.0</ele><time>2026-04-28T11:19:13Z</time></trkpt><trkpt lat="38.18952426022492" lon="15.546525326548405"><ele>76.6</ele><time>2026-04-28T11:19:14Z</time></trkpt><trkpt lat="38.18953550926495" lon="15.54665993028555"><ele>76.2</ele><time>2026-04-28T11:19:15Z</time></trkpt><trkpt lat="38.18954657019945" lon="15.546786216884833"><ele>75.8</ele><time>2026-04-28T11:19:16Z</time></trkpt><trkpt lat="38.189556250779475" lon="15.546902264115872"><ele>75.4</ele><time>2026-04-28T11:19:17Z</time></trkpt><trkpt lat="38.189565392654266" lon="15.547018044152395"><ele>75.0</ele><time>2026-04-28T11:19:18Z</time></trkpt><trkpt lat="38.189570805959995" lon="15.547122486138733"><ele>75.0</ele><time>2026-04-28T11:19:19Z</time></trkpt><trkpt lat="38.189564124920004" lon="15.547242238268813"><ele>75.0</ele><time>2026-04-28T11:19:20Z</time></trkpt><trkpt lat="38.189533112375585" lon="15.547345186465417"><ele>75.0</ele><time>2026-04-28T11:19:21Z</time></trkpt><trkpt lat="38.18948514176778" lon="15.547443472473121"><ele>75.0</ele><time>2026-04-28T11:19:22Z</time></trkpt><trkpt lat="38.18941742691776" lon="15.547554712462032"><ele>75.0</ele><time>2026-04-28T11:19:23Z</time></trkpt><trkpt lat="38.189347194230784" lon="15.54767610780399"><ele>75.0</ele><time>2026-04-28T11:19:24Z</time></trkpt><trkpt lat="38.189278904057716" lon="15.547793357073296"><ele>75.0</ele><time>2026-04-28T11:19:25Z</time></trkpt><trkpt lat="38.189213220080724" lon="15.547907532191509"><ele>75.0</ele><time>2026-04-28T11:19:26Z</time></trkpt><trkpt lat="38.1891552505252" lon="15.548012803222003"><ele>75.0</ele><time>2026-04-28T11:19:27Z</time></trkpt><trkpt lat="38.189101908314804" lon="15.548101111748736"><ele>75.0</ele><time>2026-04-28T11:19:28Z</time></trkpt><trkpt lat="38.189048406994694" lon="15.548175083697448"><ele>74.5</ele><time>2026-04-28T11:19:29Z</time></trkpt><trkpt lat="38.18900175147829" lon="15.54823359323923"><ele>74.0</ele><time>2026-04-28T11:19:30Z</time></trkpt><trkpt lat="38.188906999767774" lon="15.548328318158527"><ele>73.5</ele><time>2026-04-28T11:19:32Z</time></trkpt><trkpt lat="38.18884864071676" lon="15.548366140375363"><ele>73.0</ele><time>2026-04-28T11:19:33Z</time></trkpt><trkpt lat="38.188784168618184" lon="15.54838825523506"><ele>72.5</ele><time>2026-04-28T11:19:34Z</time></trkpt><trkpt lat="38.188722899530674" lon="15.5484140303534"><ele>72.0</ele><time>2026-04-28T11:19:35Z</time></trkpt><trkpt lat="38.188614973179725" lon="15.548395380543722"><ele>72.0</ele><time>2026-04-28T11:19:37Z</time></trkpt><trkpt lat="38.18854419616822" lon="15.548395916533876"><ele>72.0</ele><time>2026-04-28T11:19:38Z</time></trkpt><trkpt lat="38.18845355208591" lon="15.548396602973535"><ele>72.0</ele><time>2026-04-28T11:19:39Z</time></trkpt><trkpt lat="38.188353257374615" lon="15.548397362494779"><ele>72.0</ele><time>2026-04-28T11:19:40Z</time></trkpt><trkpt lat="38.18826915869748" lon="15.54839799936541"><ele>72.0</ele><time>2026-04-28T11:19:41Z</time></trkpt><trkpt lat="38.188194771013784" lon="15.548398562695784"><ele>72.0</ele><time>2026-04-28T11:19:42Z</time></trkpt><trkpt lat="38.18812535824452" lon="15.54839946832026"><ele>72.2</ele><time>2026-04-28T11:19:43Z</time></trkpt><trkpt lat="38.18800514496041" lon="15.548402067317333"><ele>72.4</ele><time>2026-04-28T11:19:45Z</time></trkpt><trkpt lat="38.18787596235902" lon="15.548404860229873"><ele>72.6</ele><time>2026-04-28T11:19:47Z</time></trkpt><trkpt lat="38.187800784589825" lon="15.548406982000254"><ele>72.8</ele><time>2026-04-28T11:19:48Z</time></trkpt><trkpt lat="38.187716897917696" lon="15.548409797830654"><ele>73.0</ele><time>2026-04-28T11:19:49Z</time></trkpt><trkpt lat="38.18762863132247" lon="15.54841276068717"><ele>73.0</ele><time>2026-04-28T11:19:50Z</time></trkpt><trkpt lat="38.18755475205404" lon="15.54841524060191"><ele>73.0</ele><time>2026-04-28T11:19:51Z</time></trkpt><trkpt lat="38.18749169624126" lon="15.548417357207713"><ele>73.0</ele><time>2026-04-28T11:19:52Z</time></trkpt><trkpt lat="38.18737715690043" lon="15.548421201963354"><ele>73.0</ele><time>2026-04-28T11:19:54Z</time></trkpt><trkpt lat="38.18729784593726" lon="15.548423864205999"><ele>73.0</ele><time>2026-04-28T11:19:55Z</time></trkpt><trkpt lat="38.18722551187747" lon="15.548426010873868"><ele>73.0</ele><time>2026-04-28T11:19:56Z</time></trkpt><trkpt lat="38.187124813687966" lon="15.54842782117445"><ele>71.0</ele><time>2026-04-28T11:19:58Z</time></trkpt><trkpt lat="38.18705706794099" lon="15.548429039073923"><ele>69.0</ele><time>2026-04-28T11:20:00Z</time></trkpt><trkpt lat="38.18697361987641" lon="15.548425822336416"><ele>67.0</ele><time>2026-04-28T11:20:02Z</time></trkpt><trkpt lat="38.18688287714332" lon="15.548418571041413"><ele>65.0</ele><time>2026-04-28T11:20:04Z</time></trkpt><trkpt lat="38.186807860748374" lon="15.548418607103295"><ele>63.0</ele><time>2026-04-28T11:20:06Z</time></trkpt><trkpt lat="38.186695266442094" lon="15.548302092328433"><ele>63.0</ele><time>2026-04-28T11:20:08Z</time></trkpt><trkpt lat="38.18662707918915" lon="15.548223138457502"><ele>63.0</ele><time>2026-04-28T11:20:09Z</time></trkpt><trkpt lat="38.18659119133369" lon="15.548129540125393"><ele>63.0</ele><time>2026-04-28T11:20:10Z</time></trkpt><trkpt lat="38.18656806357351" lon="15.548007220895858"><ele>63.0</ele><time>2026-04-28T11:20:11Z</time></trkpt><trkpt lat="38.18654401362723" lon="15.54783293165648"><ele>63.0</ele><time>2026-04-28T11:20:12Z</time></trkpt><trkpt lat="38.186516505224645" lon="15.547666306798458"><ele>59.25</ele><time>2026-04-28T11:20:13Z</time></trkpt><trkpt lat="38.1864938204057" lon="15.547526691420948"><ele>55.5</ele><time>2026-04-28T11:20:14Z</time></trkpt><trkpt lat="38.186463751481284" lon="15.547370107357086"><ele>51.75</ele><time>2026-04-28T11:20:15Z</time></trkpt><trkpt lat="38.186429238144115" lon="15.547207743001275"><ele>48.0</ele><time>2026-04-28T11:20:16Z</time></trkpt><trkpt lat="38.186402664599385" lon="15.547054410746922"><ele>48.599999999999994</ele><time>2026-04-28T11:20:17Z</time></trkpt><trkpt lat="38.18638712925287" lon="15.546928476900584"><ele>49.199999999999996</ele><time>2026-04-28T11:20:18Z</time></trkpt><trkpt lat="38.1863694721409" lon="15.546811728663842"><ele>49.8</ele><time>2026-04-28T11:20:19Z</time></trkpt><trkpt lat="38.18633930651183" lon="15.546664610664838"><ele>50.4</ele><time>2026-04-28T11:20:20Z</time></trkpt><trkpt lat="38.18631909677767" lon="15.546506878258981"><ele>51.0</ele><time>2026-04-28T11:20:21Z</time></trkpt><trkpt lat="38.18631669115767" lon="15.546357215174808"><ele>51.0</ele><time>2026-04-28T11:20:22Z</time></trkpt><trkpt lat="38.18629394427355" lon="15.546219347647247"><ele>51.0</ele><time>2026-04-28T11:20:23Z</time></trkpt><trkpt lat="38.18627083313737" lon="15.546090145131558"><ele>51.0</ele><time>2026-04-28T11:20:24Z</time></trkpt><trkpt lat="38.186249028698136" lon="15.545965138429816"><ele>51.0</ele><time>2026-04-28T11:20:25Z</time></trkpt><trkpt lat="38.18621512847799" lon="15.545845824849321"><ele>51.0</ele><time>2026-04-28T11:20:26Z</time></trkpt><trkpt lat="38.18619779160412" lon="15.545721600064041"><ele>52.199999999999996</ele><time>2026-04-28T11:20:27Z</time></trkpt><trkpt lat="38.186177581362486" lon="15.54559905838475"><ele>53.4</ele><time>2026-04-28T11:20:28Z</time></trkpt><trkpt lat="38.186152509829164" lon="15.545470139482015"><ele>54.6</ele><time>2026-04-28T11:20:29Z</time></trkpt><trkpt lat="38.18612304527978" lon="15.545333360925255"><ele>55.8</ele><time>2026-04-28T11:20:30Z</time></trkpt><trkpt lat="38.18608390687497" lon="15.545196311152468"><ele>57.0</ele><time>2026-04-28T11:20:31Z</time></trkpt><trkpt lat="38.18604844045451" lon="15.545063572900014"><ele>57.666666666666664</ele><time>2026-04-28T11:20:32Z</time></trkpt><trkpt lat="38.18600948290905" lon="15.544938386566775"><ele>58.33333333333333</ele><time>2026-04-28T11:20:33Z</time></trkpt><trkpt lat="38.18597348214095" lon="15.544822238800792"><ele>59.0</ele><time>2026-04-28T11:20:34Z</time></trkpt><trkpt lat="38.185941859043865" lon="15.544717199244035"><ele>59.666666666666664</ele><time>2026-04-28T11:20:35Z</time></trkpt><trkpt lat="38.18591645729957" lon="15.544625892282278"><ele>60.33333333333333</ele><time>2026-04-28T11:20:36Z</time></trkpt><trkpt lat="38.185896833867524" lon="15.544540205631712"><ele>61.0</ele><time>2026-04-28T11:20:37Z</time></trkpt><trkpt lat="38.18587207852488" lon="15.544452488585478"><ele>62.33333333333333</ele><time>2026-04-28T11:20:38Z</time></trkpt><trkpt lat="38.18584503872389" lon="15.54435416753274"><ele>63.666666666666664</ele><time>2026-04-28T11:20:39Z</time></trkpt><trkpt lat="38.18581723666906" lon="15.54424926047008"><ele>65.0</ele><time>2026-04-28T11:20:40Z</time></trkpt><trkpt lat="38.185788138651226" lon="15.544156376441768"><ele>66.33333333333333</ele><time>2026-04-28T11:20:41Z</time></trkpt><trkpt lat="38.1857612016563" lon="15.544059512248856"><ele>67.66666666666667</ele><time>2026-04-28T11:20:42Z</time></trkpt><trkpt lat="38.185730713794314" lon="15.543958537118431"><ele>69.0</ele><time>2026-04-28T11:20:43Z</time></trkpt><trkpt lat="38.18570094859058" lon="15.54384552781255"><ele>66.16666666666667</ele><time>2026-04-28T11:20:44Z</time></trkpt><trkpt lat="38.18567163451151" lon="15.543734583846742"><ele>63.33333333333333</ele><time>2026-04-28T11:20:45Z</time></trkpt><trkpt lat="38.18564232703363" lon="15.543636439651827"><ele>60.5</ele><time>2026-04-28T11:20:46Z</time></trkpt><trkpt lat="38.185611489012565" lon="15.543550644285007"><ele>57.666666666666664</ele><time>2026-04-28T11:20:47Z</time></trkpt><trkpt lat="38.18558693082041" lon="15.54346615552649"><ele>54.83333333333333</ele><time>2026-04-28T11:20:48Z</time></trkpt><trkpt lat="38.1855646091796" lon="15.54337705325054"><ele>52.0</ele><time>2026-04-28T11:20:49Z</time></trkpt><trkpt lat="38.18553873374932" lon="15.54328289196963"><ele>52.0</ele><time>2026-04-28T11:20:50Z</time></trkpt><trkpt lat="38.18551287216865" lon="15.543191712215942"><ele>52.0</ele><time>2026-04-28T11:20:51Z</time></trkpt><trkpt lat="38.18548300801733" lon="15.543101894686352"><ele>52.0</ele><time>2026-04-28T11:20:52Z</time></trkpt><trkpt lat="38.18545166177125" lon="15.542992948366487"><ele>52.0</ele><time>2026-04-28T11:20:53Z</time></trkpt><trkpt lat="38.18541740001062" lon="15.542869373866603"><ele>52.0</ele><time>2026-04-28T11:20:54Z</time></trkpt><trkpt lat="38.185377733556656" lon="15.542736816137511"><ele>52.400000000000006</ele><time>2026-04-28T11:20:55Z</time></trkpt><trkpt lat="38.18534030530743" lon="15.54260907293829"><ele>52.800000000000004</ele><time>2026-04-28T11:20:56Z</time></trkpt><trkpt lat="38.1853037391857" lon="15.542492604972823"><ele>53.2</ele><time>2026-04-28T11:20:57Z</time></trkpt><trkpt lat="38.185258996887924" lon="15.542385205015833"><ele>53.6</ele><time>2026-04-28T11:20:58Z</time></trkpt><trkpt lat="38.18518950181279" lon="15.54230659509191"><ele>54.0</ele><time>2026-04-28T11:20:59Z</time></trkpt><trkpt lat="38.18510095556419" lon="15.542251335439621"><ele>54.0</ele><time>2026-04-28T11:21:00Z</time></trkpt><trkpt lat="38.18498936398987" lon="15.542212202862677"><ele>54.0</ele><time>2026-04-28T11:21:01Z</time></trkpt><trkpt lat="38.184864518767405" lon="15.542135773661673"><ele>54.0</ele><time>2026-04-28T11:21:02Z</time></trkpt><trkpt lat="38.18475289001589" lon="15.542074344300223"><ele>54.0</ele><time>2026-04-28T11:21:03Z</time></trkpt><trkpt lat="38.18465879138652" lon="15.542022561449953"><ele>54.6</ele><time>2026-04-28T11:21:04Z</time></trkpt><trkpt lat="38.18457493336059" lon="15.541976815787033"><ele>55.2</ele><time>2026-04-28T11:21:05Z</time></trkpt><trkpt lat="38.18450064300414" lon="15.54193613869558"><ele>55.800000000000004</ele><time>2026-04-28T11:21:06Z</time></trkpt><trkpt lat="38.18440711123757" lon="15.541884926145055"><ele>56.400000000000006</ele><time>2026-04-28T11:21:08Z</time></trkpt><trkpt lat="38.18430704168531" lon="15.541830133884678"><ele>57.0</ele><time>2026-04-28T11:21:10Z</time></trkpt><trkpt lat="38.18424279480286" lon="15.54177851498244"><ele>57.0</ele><time>2026-04-28T11:21:12Z</time></trkpt><trkpt lat="38.18429085183054" lon="15.541654192715658"><ele>57.0</ele><time>2026-04-28T11:21:14Z</time></trkpt><trkpt lat="38.184360205521905" lon="15.541581579357947"><ele>57.0</ele><time>2026-04-28T11:21:15Z</time></trkpt><trkpt lat="38.184435528177545" lon="15.54148892799451"><ele>57.0</ele><time>2026-04-28T11:21:16Z</time></trkpt><trkpt lat="38.18452712060172" lon="15.541370155278548"><ele>57.0</ele><time>2026-04-28T11:21:17Z</time></trkpt><trkpt lat="38.18462934465068" lon="15.54123576727922"><ele>57.5</ele><time>2026-04-28T11:21:18Z</time></trkpt><trkpt lat="38.18473395939391" lon="15.541107951821857"><ele>58.0</ele><time>2026-04-28T11:21:19Z</time></trkpt><trkpt lat="38.184835135081116" lon="15.540980762824118"><ele>58.5</ele><time>2026-04-28T11:21:20Z</time></trkpt><trkpt lat="38.18493730699744" lon="15.540842278102737"><ele>59.0</ele><time>2026-04-28T11:21:21Z</time></trkpt><trkpt lat="38.185045495233375" lon="15.540682358043933"><ele>59.333333333333336</ele><time>2026-04-28T11:21:22Z</time></trkpt><trkpt lat="38.18515922459288" lon="15.540507942337669"><ele>59.66666666666667</ele><time>2026-04-28T11:21:23Z</time></trkpt><trkpt lat="38.18526361480297" lon="15.540342201147869"><ele>60.0</ele><time>2026-04-28T11:21:24Z</time></trkpt><trkpt lat="38.1854014796135" lon="15.5402095999297"><ele>60.0</ele><time>2026-04-28T11:21:25Z</time></trkpt><trkpt lat="38.185493255532926" lon="15.540061727022405"><ele>60.0</ele><time>2026-04-28T11:21:26Z</time></trkpt><trkpt lat="38.18556701484967" lon="15.539942031279004"><ele>60.0</ele><time>2026-04-28T11:21:27Z</time></trkpt><trkpt lat="38.18563863671988" lon="15.53982362988976"><ele>60.0</ele><time>2026-04-28T11:21:28Z</time></trkpt><trkpt lat="38.185704679249326" lon="15.53971428940507"><ele>61.166666666666664</ele><time>2026-04-28T11:21:29Z</time></trkpt><trkpt lat="38.18576472989208" lon="15.539612708848965"><ele>62.33333333333333</ele><time>2026-04-28T11:21:30Z</time></trkpt><trkpt lat="38.185812862434624" lon="15.539530515874628"><ele>63.5</ele><time>2026-04-28T11:21:31Z</time></trkpt><trkpt lat="38.18586099501882" lon="15.539447310603279"><ele>64.66666666666666</ele><time>2026-04-28T11:21:33Z</time></trkpt><trkpt lat="38.18587874026386" lon="15.53933555886607"><ele>65.83333333333333</ele><time>2026-04-28T11:22:08Z</time></trkpt><trkpt lat="38.185928252284725" lon="15.539272638793935"><ele>67.0</ele><time>2026-04-28T11:22:09Z</time></trkpt><trkpt lat="38.18601276160561" lon="15.539186341783266"><ele>67.0</ele><time>2026-04-28T11:22:10Z</time></trkpt><trkpt lat="38.18608611552804" lon="15.539068423026263"><ele>67.0</ele><time>2026-04-28T11:22:11Z</time></trkpt><trkpt lat="38.18614828531275" lon="15.5389119434062"><ele>67.0</ele><time>2026-04-28T11:22:12Z</time></trkpt><trkpt lat="38.186215370502104" lon="15.538696072815766"><ele>67.0</ele><time>2026-04-28T11:22:13Z</time></trkpt><trkpt lat="38.18629773796313" lon="15.538448321463317"><ele>68.0</ele><time>2026-04-28T11:22:14Z</time></trkpt><trkpt lat="38.1863914580137" lon="15.538202263066104"><ele>69.0</ele><time>2026-04-28T11:22:15Z</time></trkpt><trkpt lat="38.1864893066257" lon="15.53795398400373"><ele>70.0</ele><time>2026-04-28T11:22:16Z</time></trkpt><trkpt lat="38.186577019012894" lon="15.537704480568955"><ele>71.0</ele><time>2026-04-28T11:22:17Z</time></trkpt><trkpt lat="38.18665703886583" lon="15.53746042925193"><ele>72.0</ele><time>2026-04-28T11:22:18Z</time></trkpt><trkpt lat="38.18672820014431" lon="15.537212330984381"><ele>73.0</ele><time>2026-04-28T11:22:19Z</time></trkpt><trkpt lat="38.18678430025503" lon="15.536955349147135"><ele>73.33333333333333</ele><time>2026-04-28T11:22:20Z</time></trkpt><trkpt lat="38.18683218078794" lon="15.536708530072495"><ele>73.66666666666667</ele><time>2026-04-28T11:22:21Z</time></trkpt><trkpt lat="38.1868757819674" lon="15.536490580813133"><ele>74.0</ele><time>2026-04-28T11:22:22Z</time></trkpt><trkpt lat="38.186922471470105" lon="15.536292727883797"><ele>74.5</ele><time>2026-04-28T11:22:23Z</time></trkpt><trkpt lat="38.18697060010665" lon="15.536119949239074"><ele>75.0</ele><time>2026-04-28T11:22:24Z</time></trkpt><trkpt lat="38.1870086082334" lon="15.535961813842091"><ele>75.5</ele><time>2026-04-28T11:22:25Z</time></trkpt><trkpt lat="38.18703690088863" lon="15.535810961021827"><ele>76.0</ele><time>2026-04-28T11:22:26Z</time></trkpt><trkpt lat="38.18705817867893" lon="15.535670888274167"><ele>76.0</ele><time>2026-04-28T11:22:27Z</time></trkpt><trkpt lat="38.18707298786558" lon="15.535539013808526"><ele>76.0</ele><time>2026-04-28T11:22:28Z</time></trkpt><trkpt lat="38.1870825290134" lon="15.535419608455747"><ele>76.0</ele><time>2026-04-28T11:22:29Z</time></trkpt><trkpt lat="38.187096115890085" lon="15.53532633283525"><ele>76.0</ele><time>2026-04-28T11:22:30Z</time></trkpt><trkpt lat="38.187111628399556" lon="15.535213675251653"><ele>76.0</ele><time>2026-04-28T11:22:32Z</time></trkpt><trkpt lat="38.18710824751347" lon="15.535118004914438"><ele>76.0</ele><time>2026-04-28T11:23:28Z</time></trkpt><trkpt lat="38.18711460524678" lon="15.534982059237086"><ele>76.25</ele><time>2026-04-28T11:23:29Z</time></trkpt><trkpt lat="38.18712781334854" lon="15.534825326874852"><ele>76.5</ele><time>2026-04-28T11:23:30Z</time></trkpt><trkpt lat="38.18714022330636" lon="15.534650695851884"><ele>76.75</ele><time>2026-04-28T11:23:31Z</time></trkpt><trkpt lat="38.18715257875889" lon="15.534468479972974"><ele>77.0</ele><time>2026-04-28T11:23:32Z</time></trkpt><trkpt lat="38.18716367413322" lon="15.534296499948521"><ele>77.75</ele><time>2026-04-28T11:23:33Z</time></trkpt><trkpt lat="38.18717274406656" lon="15.534143676315589"><ele>78.5</ele><time>2026-04-28T11:23:34Z</time></trkpt><trkpt lat="38.187181175688806" lon="15.534006120648879"><ele>79.25</ele><time>2026-04-28T11:23:35Z</time></trkpt><trkpt lat="38.18719177434132" lon="15.533866326563558"><ele>80.0</ele><time>2026-04-28T11:23:36Z</time></trkpt><trkpt lat="38.18720583696042" lon="15.533726763032396"><ele>80.75</ele><time>2026-04-28T11:23:37Z</time></trkpt><trkpt lat="38.18721973125036" lon="15.533595205552345"><ele>81.5</ele><time>2026-04-28T11:23:38Z</time></trkpt><trkpt lat="38.187242709170924" lon="15.533446031544809"><ele>82.25</ele><time>2026-04-28T11:23:39Z</time></trkpt><trkpt lat="38.18727972199073" lon="15.533266312411936"><ele>83.0</ele><time>2026-04-28T11:23:40Z</time></trkpt><trkpt lat="38.18732378598759" lon="15.533064690416529"><ele>85.0</ele><time>2026-04-28T11:23:41Z</time></trkpt><trkpt lat="38.18736660203245" lon="15.53287692070118"><ele>87.0</ele><time>2026-04-28T11:23:42Z</time></trkpt><trkpt lat="38.1874112005193" lon="15.532693910069728"><ele>89.0</ele><time>2026-04-28T11:23:43Z</time></trkpt><trkpt lat="38.18745595610036" lon="15.532499640152022"><ele>89.0</ele><time>2026-04-28T11:23:44Z</time></trkpt><trkpt lat="38.18750554344252" lon="15.532287418267053"><ele>89.0</ele><time>2026-04-28T11:23:45Z</time></trkpt><trkpt lat="38.18755879910599" lon="15.532060864130866"><ele>89.0</ele><time>2026-04-28T11:23:46Z</time></trkpt><trkpt lat="38.18761076360691" lon="15.531826835000853"><ele>90.0</ele><time>2026-04-28T11:23:47Z</time></trkpt><trkpt lat="38.187662852627206" lon="15.531575428731701"><ele>91.0</ele><time>2026-04-28T11:23:48Z</time></trkpt><trkpt lat="38.18771359421441" lon="15.531316586632256"><ele>92.0</ele><time>2026-04-28T11:23:49Z</time></trkpt><trkpt lat="38.18776308064587" lon="15.531063681959722"><ele>92.33333333333334</ele><time>2026-04-28T11:23:50Z</time></trkpt><trkpt lat="38.18780856862527" lon="15.530816646495081"><ele>92.66666666666667</ele><time>2026-04-28T11:23:51Z</time></trkpt><trkpt lat="38.18785670098395" lon="15.530572493474503"><ele>93.0</ele><time>2026-04-28T11:23:52Z</time></trkpt><trkpt lat="38.187902223818156" lon="15.530329947447381"><ele>93.33333333333333</ele><time>2026-04-28T11:23:53Z</time></trkpt><trkpt lat="38.187948173535375" lon="15.530094277005999"><ele>93.66666666666666</ele><time>2026-04-28T11:23:54Z</time></trkpt><trkpt lat="38.187987011841116" lon="15.52987962881045"><ele>94.0</ele><time>2026-04-28T11:23:55Z</time></trkpt><trkpt lat="38.18802741448863" lon="15.529666545123508"><ele>95.33333333333333</ele><time>2026-04-28T11:23:56Z</time></trkpt><trkpt lat="38.18806663148288" lon="15.529455527510782"><ele>96.66666666666666</ele><time>2026-04-28T11:23:57Z</time></trkpt><trkpt lat="38.1880972198292" lon="15.529263190181712"><ele>98.0</ele><time>2026-04-28T11:23:58Z</time></trkpt><trkpt lat="38.18812145040288" lon="15.529076542536204"><ele>98.0</ele><time>2026-04-28T11:23:59Z</time></trkpt><trkpt lat="38.188141241529166" lon="15.528901481316645"><ele>98.0</ele><time>2026-04-28T11:24:00Z</time></trkpt><trkpt lat="38.188160269324676" lon="15.528741917537147"><ele>98.0</ele><time>2026-04-28T11:24:01Z</time></trkpt><trkpt lat="38.188176147766015" lon="15.528601177810723"><ele>98.0</ele><time>2026-04-28T11:24:02Z</time></trkpt><trkpt lat="38.188191282833515" lon="15.528476029562357"><ele>99.16666666666666</ele><time>2026-04-28T11:24:03Z</time></trkpt><trkpt lat="38.18820753754173" lon="15.528378954275084"><ele>100.33333333333333</ele><time>2026-04-28T11:24:04Z</time></trkpt><trkpt lat="38.18822704212484" lon="15.52827203304005"><ele>101.5</ele><time>2026-04-28T11:24:06Z</time></trkpt><trkpt lat="38.18822171229135" lon="15.528190968274687"><ele>102.66666666666666</ele><time>2026-04-28T11:24:32Z</time></trkpt><trkpt lat="38.18823666866202" lon="15.528063401593654"><ele>103.83333333333333</ele><time>2026-04-28T11:24:34Z</time></trkpt><trkpt lat="38.18830414650029" lon="15.527984532899781"><ele>105.0</ele><time>2026-04-28T11:24:35Z</time></trkpt><trkpt lat="38.188402402130315" lon="15.527861089175406"><ele>105.0</ele><time>2026-04-28T11:24:36Z</time></trkpt><trkpt lat="38.18846850251816" lon="15.527703928136633"><ele>105.0</ele><time>2026-04-28T11:24:37Z</time></trkpt><trkpt lat="38.18849894303247" lon="15.527515160978448"><ele>105.0</ele><time>2026-04-28T11:24:38Z</time></trkpt><trkpt lat="38.18852148565135" lon="15.527320802815275"><ele>105.0</ele><time>2026-04-28T11:24:39Z</time></trkpt><trkpt lat="38.188551678114976" lon="15.527171305432327"><ele>106.2</ele><time>2026-04-28T11:24:40Z</time></trkpt><trkpt lat="38.18859335376326" lon="15.527033142059157"><ele>107.4</ele><time>2026-04-28T11:24:41Z</time></trkpt><trkpt lat="38.18864307240586" lon="15.526911355140081"><ele>108.6</ele><time>2026-04-28T11:24:42Z</time></trkpt><trkpt lat="38.188691813219066" lon="15.526816349024195"><ele>109.8</ele><time>2026-04-28T11:24:43Z</time></trkpt><trkpt lat="38.1887317742692" lon="15.526723887005069"><ele>111.0</ele><time>2026-04-28T11:24:44Z</time></trkpt><trkpt lat="38.1887756620357" lon="15.526626649960734"><ele>111.0</ele><time>2026-04-28T11:24:45Z</time></trkpt><trkpt lat="38.188819900758354" lon="15.526521667171805"><ele>111.0</ele><time>2026-04-28T11:24:46Z</time></trkpt><trkpt lat="38.18886414444299" lon="15.526431409723763"><ele>111.0</ele><time>2026-04-28T11:24:47Z</time></trkpt><trkpt lat="38.188926784896005" lon="15.526311299582066"><ele>111.0</ele><time>2026-04-28T11:24:49Z</time></trkpt><trkpt lat="38.188987240756916" lon="15.526202522228742"><ele>111.0</ele><time>2026-04-28T11:24:53Z</time></trkpt><trkpt lat="38.189070328960824" lon="15.526048149745499"><ele>112.0</ele><time>2026-04-28T11:24:55Z</time></trkpt><trkpt lat="38.18912617450021" lon="15.525936661466101"><ele>113.0</ele><time>2026-04-28T11:24:56Z</time></trkpt><trkpt lat="38.189197060377005" lon="15.52578043204935"><ele>114.0</ele><time>2026-04-28T11:24:57Z</time></trkpt><trkpt lat="38.189241935393824" lon="15.525675920016939"><ele>115.0</ele><time>2026-04-28T11:24:58Z</time></trkpt><trkpt lat="38.18926117229305" lon="15.525596256757723"><ele>116.0</ele><time>2026-04-28T11:24:59Z</time></trkpt><trkpt lat="38.18932725771674" lon="15.525477636282824"><ele>117.25</ele><time>2026-04-28T11:25:00Z</time></trkpt><trkpt lat="38.18941649224986" lon="15.525291889415817"><ele>118.5</ele><time>2026-04-28T11:25:01Z</time></trkpt><trkpt lat="38.18948558938977" lon="15.525130616906814"><ele>119.75</ele><time>2026-04-28T11:25:02Z</time></trkpt><trkpt lat="38.189506206818955" lon="15.524985559061085"><ele>121.0</ele><time>2026-04-28T11:25:03Z</time></trkpt><trkpt lat="38.1895198616937" lon="15.524851720720127"><ele>121.0</ele><time>2026-04-28T11:25:04Z</time></trkpt><trkpt lat="38.18954466008905" lon="15.524691528116255"><ele>121.0</ele><time>2026-04-28T11:25:05Z</time></trkpt><trkpt lat="38.18954511211179" lon="15.52455715521879"><ele>121.0</ele><time>2026-04-28T11:25:06Z</time></trkpt><trkpt lat="38.18954650865036" lon="15.524469838053886"><ele>121.0</ele><time>2026-04-28T11:25:07Z</time></trkpt><trkpt lat="38.18954209747686" lon="15.524332712377218"><ele>121.0</ele><time>2026-04-28T11:25:09Z</time></trkpt><trkpt lat="38.18954865866308" lon="15.524187441700022"><ele>122.6</ele><time>2026-04-28T11:25:11Z</time></trkpt><trkpt lat="38.18954552122528" lon="15.524054971985846"><ele>124.19999999999999</ele><time>2026-04-28T11:25:13Z</time></trkpt><trkpt lat="38.18953933541112" lon="15.523974713231521"><ele>125.80000000000001</ele><time>2026-04-28T11:25:15Z</time></trkpt><trkpt lat="38.18952479430315" lon="15.523868392789497"><ele>127.4</ele><time>2026-04-28T11:25:17Z</time></trkpt><trkpt lat="38.18949972019089" lon="15.523739983069765"><ele>129.0</ele><time>2026-04-28T11:25:19Z</time></trkpt><trkpt lat="38.18945342496569" lon="15.5235930734817"><ele>129.16666666666666</ele><time>2026-04-28T11:25:21Z</time></trkpt><trkpt lat="38.18941276034401" lon="15.52352032244468"><ele>129.33333333333334</ele><time>2026-04-28T11:25:22Z</time></trkpt><trkpt lat="38.189368519322606" lon="15.523452653699957"><ele>129.5</ele><time>2026-04-28T11:25:23Z</time></trkpt><trkpt lat="38.18932213206786" lon="15.523352813519299"><ele>129.66666666666669</ele><time>2026-04-28T11:25:24Z</time></trkpt><trkpt lat="38.18926873258948" lon="15.52323759752561"><ele>129.83333333333334</ele><time>2026-04-28T11:25:25Z</time></trkpt><trkpt lat="38.18921592378769" lon="15.5231292473626"><ele>130.0</ele><time>2026-04-28T11:25:26Z</time></trkpt><trkpt lat="38.18917046336985" lon="15.523031170616097"><ele>130.0</ele><time>2026-04-28T11:25:27Z</time></trkpt><trkpt lat="38.189134740387786" lon="15.522933446674978"><ele>130.0</ele><time>2026-04-28T11:25:28Z</time></trkpt><trkpt lat="38.18910539844412" lon="15.522840582958029"><ele>130.0</ele><time>2026-04-28T11:25:29Z</time></trkpt><trkpt lat="38.18909509458032" lon="15.522753990868786"><ele>130.0</ele><time>2026-04-28T11:25:30Z</time></trkpt><trkpt lat="38.18911017105545" lon="15.522664575508358"><ele>130.0</ele><time>2026-04-28T11:25:31Z</time></trkpt><trkpt lat="38.1891442397558" lon="15.522553332080962"><ele>130.0</ele><time>2026-04-28T11:25:32Z</time></trkpt><trkpt lat="38.18919400697561" lon="15.52243311594907"><ele>131.33333333333334</ele><time>2026-04-28T11:25:33Z</time></trkpt><trkpt lat="38.189261340840766" lon="15.52227717369952"><ele>132.66666666666666</ele><time>2026-04-28T11:25:34Z</time></trkpt><trkpt lat="38.18934386746455" lon="15.5220832920097"><ele>134.0</ele><time>2026-04-28T11:25:35Z</time></trkpt><trkpt lat="38.18943697659901" lon="15.521868987550604"><ele>138.0</ele><time>2026-04-28T11:25:36Z</time></trkpt><trkpt lat="38.189525988873186" lon="15.521666366294937"><ele>142.0</ele><time>2026-04-28T11:25:37Z</time></trkpt><trkpt lat="38.1895915127911" lon="15.521501047630437"><ele>146.0</ele><time>2026-04-28T11:25:38Z</time></trkpt><trkpt lat="38.189675467794025" lon="15.521337624741705"><ele>145.33333333333331</ele><time>2026-04-28T11:25:39Z</time></trkpt><trkpt lat="38.189776821601725" lon="15.521162466610084"><ele>144.66666666666666</ele><time>2026-04-28T11:25:40Z</time></trkpt><trkpt lat="38.189890297922766" lon="15.520999623869221"><ele>144.0</ele><time>2026-04-28T11:25:41Z</time></trkpt><trkpt lat="38.18999214155476" lon="15.52085978004"><ele>144.0</ele><time>2026-04-28T11:25:42Z</time></trkpt><trkpt lat="38.19008831644801" lon="15.520726582739016"><ele>144.0</ele><time>2026-04-28T11:25:43Z</time></trkpt><trkpt lat="38.190196258145896" lon="15.520593509425343"><ele>144.0</ele><time>2026-04-28T11:25:44Z</time></trkpt><trkpt lat="38.19030972573361" lon="15.520456586644391"><ele>144.0</ele><time>2026-04-28T11:25:45Z</time></trkpt><trkpt lat="38.19042317950798" lon="15.520317263132885"><ele>144.5</ele><time>2026-04-28T11:25:46Z</time></trkpt><trkpt lat="38.19053212827694" lon="15.520175046692009"><ele>145.0</ele><time>2026-04-28T11:25:47Z</time></trkpt><trkpt lat="38.19062530356387" lon="15.520037793715115"><ele>145.5</ele><time>2026-04-28T11:25:48Z</time></trkpt><trkpt lat="38.1907159197489" lon="15.519908381640093"><ele>146.0</ele><time>2026-04-28T11:25:49Z</time></trkpt><trkpt lat="38.190804779817384" lon="15.519784652036922"><ele>146.0</ele><time>2026-04-28T11:25:50Z</time></trkpt><trkpt lat="38.19087468131469" lon="15.519643670168504"><ele>146.0</ele><time>2026-04-28T11:25:51Z</time></trkpt><trkpt lat="38.19095307614015" lon="15.519516859734896"><ele>146.0</ele><time>2026-04-28T11:25:52Z</time></trkpt><trkpt lat="38.19097597797076" lon="15.519340002908933"><ele>146.0</ele><time>2026-04-28T11:25:53Z</time></trkpt><trkpt lat="38.191033177559135" lon="15.519160680447941"><ele>147.75</ele><time>2026-04-28T11:25:54Z</time></trkpt><trkpt lat="38.191099496993004" lon="15.518991905982407"><ele>149.5</ele><time>2026-04-28T11:25:55Z</time></trkpt><trkpt lat="38.19114283735927" lon="15.518812704585596"><ele>151.25</ele><time>2026-04-28T11:25:56Z</time></trkpt><trkpt lat="38.191172869223784" lon="15.518633290862251"><ele>153.0</ele><time>2026-04-28T11:25:57Z</time></trkpt><trkpt lat="38.19115994834529" lon="15.518441657745418"><ele>154.66666666666666</ele><time>2026-04-28T11:25:58Z</time></trkpt><trkpt lat="38.191146118442965" lon="15.51823271991357"><ele>156.33333333333331</ele><time>2026-04-28T11:25:59Z</time></trkpt><trkpt lat="38.1911284494591" lon="15.518014554041098"><ele>158.0</ele><time>2026-04-28T11:26:00Z</time></trkpt><trkpt lat="38.191106791608185" lon="15.517794134382067"><ele>158.66666666666666</ele><time>2026-04-28T11:26:01Z</time></trkpt><trkpt lat="38.19109536985013" lon="15.517560255174523"><ele>159.33333333333334</ele><time>2026-04-28T11:26:02Z</time></trkpt><trkpt lat="38.19106251088897" lon="15.517314479684101"><ele>160.0</ele><time>2026-04-28T11:26:03Z</time></trkpt><trkpt lat="38.191022210271576" lon="15.517052930568198"><ele>160.33333333333334</ele><time>2026-04-28T11:26:04Z</time></trkpt><trkpt lat="38.190973421515" lon="15.516811042323228"><ele>160.66666666666666</ele><time>2026-04-28T11:26:05Z</time></trkpt><trkpt lat="38.190922255984475" lon="15.516597769129948"><ele>161.0</ele><time>2026-04-28T11:26:06Z</time></trkpt><trkpt lat="38.190876944162284" lon="15.516382433381082"><ele>163.33333333333331</ele><time>2026-04-28T11:26:07Z</time></trkpt><trkpt lat="38.19083737915133" lon="15.516172921512103"><ele>165.66666666666666</ele><time>2026-04-28T11:26:08Z</time></trkpt><trkpt lat="38.19080372690897" lon="15.515986057706014"><ele>168.0</ele><time>2026-04-28T11:26:09Z</time></trkpt><trkpt lat="38.19074120285968" lon="15.515823957993609"><ele>168.0</ele><time>2026-04-28T11:26:10Z</time></trkpt><trkpt lat="38.19077382628944" lon="15.515633272479404"><ele>168.0</ele><time>2026-04-28T11:26:11Z</time></trkpt><trkpt lat="38.19079341392142" lon="15.51550361917252"><ele>168.0</ele><time>2026-04-28T11:26:12Z</time></trkpt><trkpt lat="38.19080962633213" lon="15.515397760829691"><ele>168.0</ele><time>2026-04-28T11:26:13Z</time></trkpt><trkpt lat="38.190829896448825" lon="15.515307291936834"><ele>168.0</ele><time>2026-04-28T11:26:14Z</time></trkpt><trkpt lat="38.190856112536096" lon="15.515226423688055"><ele>168.33333333333334</ele><time>2026-04-28T11:26:15Z</time></trkpt><trkpt lat="38.190894193672875" lon="15.515140798659429"><ele>168.66666666666666</ele><time>2026-04-28T11:26:16Z</time></trkpt><trkpt lat="38.190951415744735" lon="15.515068318253176"><ele>169.0</ele><time>2026-04-28T11:26:17Z</time></trkpt><trkpt lat="38.19100421965126" lon="15.515012475117066"><ele>169.33333333333331</ele><time>2026-04-28T11:26:18Z</time></trkpt><trkpt lat="38.19105812576991" lon="15.514930116476256"><ele>169.66666666666666</ele><time>2026-04-28T11:26:19Z</time></trkpt><trkpt lat="38.19113879809659" lon="15.514870088710822"><ele>170.0</ele><time>2026-04-28T11:26:20Z</time></trkpt><trkpt lat="38.19121142341832" lon="15.514856637081445"><ele>170.0</ele><time>2026-04-28T11:26:21Z</time></trkpt><trkpt lat="38.191275052654824" lon="15.514856668189015"><ele>170.0</ele><time>2026-04-28T11:26:22Z</time></trkpt><trkpt lat="38.19134938908386" lon="15.51485069569776"><ele>170.0</ele><time>2026-04-28T11:26:23Z</time></trkpt><trkpt lat="38.1914433104288" lon="15.514843788763955"><ele>170.0</ele><time>2026-04-28T11:26:24Z</time></trkpt><trkpt lat="38.1915408086539" lon="15.51482548873979"><ele>170.0</ele><time>2026-04-28T11:26:25Z</time></trkpt><trkpt lat="38.19163192118777" lon="15.514771289957013"><ele>170.0</ele><time>2026-04-28T11:26:26Z</time></trkpt><trkpt lat="38.19172019462741" lon="15.514721432796003"><ele>171.4</ele><time>2026-04-28T11:26:27Z</time></trkpt><trkpt lat="38.191795380156975" lon="15.514650299269402"><ele>172.8</ele><time>2026-04-28T11:26:28Z</time></trkpt><trkpt lat="38.191865127080625" lon="15.51457478566821"><ele>174.2</ele><time>2026-04-28T11:26:29Z</time></trkpt><trkpt lat="38.19192414726332" lon="15.514495173751698"><ele>175.6</ele><time>2026-04-28T11:26:30Z</time></trkpt><trkpt lat="38.191958194472114" lon="15.51441437359988"><ele>177.0</ele><time>2026-04-28T11:26:31Z</time></trkpt><trkpt lat="38.19194201633605" lon="15.514240967773997"><ele>177.0</ele><time>2026-04-28T11:26:33Z</time></trkpt><trkpt lat="38.191908598205345" lon="15.514133536495095"><ele>177.0</ele><time>2026-04-28T11:26:34Z</time></trkpt><trkpt lat="38.19186675461625" lon="15.514016355673988"><ele>177.0</ele><time>2026-04-28T11:26:35Z</time></trkpt><trkpt lat="38.191811426540646" lon="15.513880542921969"><ele>177.0</ele><time>2026-04-28T11:26:36Z</time></trkpt><trkpt lat="38.19178152293078" lon="15.513738527919733"><ele>177.0</ele><time>2026-04-28T11:26:37Z</time></trkpt><trkpt lat="38.191755015891516" lon="15.513621559997329"><ele>179.39999999999998</ele><time>2026-04-28T11:26:38Z</time></trkpt><trkpt lat="38.19173869122325" lon="15.51352401786855"><ele>181.79999999999998</ele><time>2026-04-28T11:26:39Z</time></trkpt><trkpt lat="38.191705406047184" lon="15.513393431655132"><ele>184.2</ele><time>2026-04-28T11:26:40Z</time></trkpt><trkpt lat="38.191682250886664" lon="15.513233036937425"><ele>186.6</ele><time>2026-04-28T11:26:41Z</time></trkpt><trkpt lat="38.19165644665926" lon="15.513096322956978"><ele>189.0</ele><time>2026-04-28T11:26:42Z</time></trkpt><trkpt lat="38.19163371271798" lon="15.512978221975322"><ele>192.6</ele><time>2026-04-28T11:26:43Z</time></trkpt><trkpt lat="38.19162757129371" lon="15.512863720998878"><ele>196.2</ele><time>2026-04-28T11:26:44Z</time></trkpt><trkpt lat="38.191634138703556" lon="15.51276116747753"><ele>199.79999999999998</ele><time>2026-04-28T11:26:45Z</time></trkpt><trkpt lat="38.19167955108238" lon="15.512671307235909"><ele>203.39999999999998</ele><time>2026-04-28T11:26:46Z</time></trkpt><trkpt lat="38.191710766556064" lon="15.51255745438383"><ele>207.0</ele><time>2026-04-28T11:26:47Z</time></trkpt><trkpt lat="38.191770685729246" lon="15.512436792610998"><ele>207.0</ele><time>2026-04-28T11:26:48Z</time></trkpt><trkpt lat="38.19183906391096" lon="15.51234926258748"><ele>207.0</ele><time>2026-04-28T11:26:49Z</time></trkpt><trkpt lat="38.19189813502856" lon="15.512264987005333"><ele>207.0</ele><time>2026-04-28T11:26:50Z</time></trkpt><trkpt lat="38.19194885626611" lon="15.512177770167428"><ele>207.0</ele><time>2026-04-28T11:26:51Z</time></trkpt><trkpt lat="38.19201216838361" lon="15.512083945401306"><ele>207.0</ele><time>2026-04-28T11:26:52Z</time></trkpt><trkpt lat="38.19210752188113" lon="15.512058319445298"><ele>208.6</ele><time>2026-04-28T11:26:53Z</time></trkpt><trkpt lat="38.192189274976336" lon="15.511985185446765"><ele>210.2</ele><time>2026-04-28T11:26:54Z</time></trkpt><trkpt lat="38.19224807737309" lon="15.511892730902394"><ele>211.8</ele><time>2026-04-28T11:26:55Z</time></trkpt><trkpt lat="38.19230083967141" lon="15.51179727383979"><ele>213.4</ele><time>2026-04-28T11:26:56Z</time></trkpt><trkpt lat="38.192351670048744" lon="15.511740768552636"><ele>215.0</ele><time>2026-04-28T11:26:57Z</time></trkpt><trkpt lat="38.19246123030261" lon="15.511726674198298"><ele>215.00000000000003</ele><time>2026-04-28T11:26:59Z</time></trkpt><trkpt lat="38.192551806761436" lon="15.511745984303225"><ele>215.0</ele><time>2026-04-28T11:27:00Z</time></trkpt><trkpt lat="38.19264077392831" lon="15.511759701656409"><ele>215.0</ele><time>2026-04-28T11:27:01Z</time></trkpt><trkpt lat="38.192717530904865" lon="15.511754286261986"><ele>215.0</ele><time>2026-04-28T11:27:02Z</time></trkpt><trkpt lat="38.19278823496957" lon="15.511635457093925"><ele>215.00000000000003</ele><time>2026-04-28T11:27:04Z</time></trkpt><trkpt lat="38.19279240626398" lon="15.511555380514526"><ele>215.0</ele><time>2026-04-28T11:27:05Z</time></trkpt><trkpt lat="38.19278802061743" lon="15.511467769170238"><ele>215.0</ele><time>2026-04-28T11:27:06Z</time></trkpt><trkpt lat="38.19276539575812" lon="15.511367348138936"><ele>215.0</ele><time>2026-04-28T11:27:07Z</time></trkpt><trkpt lat="38.19272110934599" lon="15.511243795128285"><ele>215.0</ele><time>2026-04-28T11:27:08Z</time></trkpt><trkpt lat="38.192697361841375" lon="15.511096563471096"><ele>215.0</ele><time>2026-04-28T11:27:09Z</time></trkpt><trkpt lat="38.19264504706813" lon="15.510962431166499"><ele>215.0</ele><time>2026-04-28T11:27:10Z</time></trkpt><trkpt lat="38.19260923266529" lon="15.510853990861287"><ele>216.83333333333334</ele><time>2026-04-28T11:27:11Z</time></trkpt><trkpt lat="38.19257089251046" lon="15.510758855040729"><ele>218.66666666666669</ele><time>2026-04-28T11:27:12Z</time></trkpt><trkpt lat="38.19254638454338" lon="15.510666326954418"><ele>220.5</ele><time>2026-04-28T11:27:13Z</time></trkpt><trkpt lat="38.19251804941296" lon="15.510549566672132"><ele>222.33333333333331</ele><time>2026-04-28T11:27:14Z</time></trkpt><trkpt lat="38.19246655229358" lon="15.510446372908568"><ele>224.16666666666666</ele><time>2026-04-28T11:27:15Z</time></trkpt><trkpt lat="38.19240156183206" lon="15.510365107522437"><ele>226.0</ele><time>2026-04-28T11:27:16Z</time></trkpt><trkpt lat="38.192357315700534" lon="15.510278871218018"><ele>226.0</ele><time>2026-04-28T11:27:17Z</time></trkpt><trkpt lat="38.19229975019033" lon="15.51017212313661"><ele>226.00000000000003</ele><time>2026-04-28T11:27:19Z</time></trkpt><trkpt lat="38.19226890793242" lon="15.510099750200183"><ele>226.00000000000003</ele><time>2026-04-28T11:27:21Z</time></trkpt><trkpt lat="38.192357456474696" lon="15.509977435159554"><ele>226.0</ele><time>2026-04-28T11:27:23Z</time></trkpt><trkpt lat="38.192433397193454" lon="15.509882138544388"><ele>226.0</ele><time>2026-04-28T11:27:25Z</time></trkpt><trkpt lat="38.19251019357304" lon="15.50994091731322"><ele>225.99999999999997</ele><time>2026-04-28T11:27:27Z</time></trkpt><trkpt lat="38.192559978940615" lon="15.509992626407815"><ele>226.0</ele><time>2026-04-28T11:27:28Z</time></trkpt><trkpt lat="38.19264615870672" lon="15.510030282663873"><ele>226.0</ele><time>2026-04-28T11:27:29Z</time></trkpt><trkpt lat="38.19273290274686" lon="15.510036520571436"><ele>226.0</ele><time>2026-04-28T11:27:30Z</time></trkpt><trkpt lat="38.19281606209862" lon="15.51001250860086"><ele>225.99999999999997</ele><time>2026-04-28T11:27:31Z</time></trkpt><trkpt lat="38.19289113404749" lon="15.509954752807877"><ele>226.0</ele><time>2026-04-28T11:27:32Z</time></trkpt><trkpt lat="38.19297928782495" lon="15.509925030145142"><ele>226.0</ele><time>2026-04-28T11:27:33Z</time></trkpt><trkpt lat="38.193061038095564" lon="15.50988382003112"><ele>226.00000000000003</ele><time>2026-04-28T11:27:34Z</time></trkpt><trkpt lat="38.19311214276838" lon="15.509826831297271"><ele>226.00000000000003</ele><time>2026-04-28T11:27:35Z</time></trkpt><trkpt lat="38.193165955339865" lon="15.509763733309244"><ele>226.0</ele><time>2026-04-28T11:27:36Z</time></trkpt><trkpt lat="38.193170120146426" lon="15.509614865068228"><ele>226.0</ele><time>2026-04-28T11:27:38Z</time></trkpt><trkpt lat="38.19312615307636" lon="15.509466457620027"><ele>229.8</ele><time>2026-04-28T11:27:40Z</time></trkpt><trkpt lat="38.19309124231208" lon="15.5093840378944"><ele>233.60000000000002</ele><time>2026-04-28T11:27:41Z</time></trkpt><trkpt lat="38.19303893657157" lon="15.509304786731512"><ele>237.4</ele><time>2026-04-28T11:27:42Z</time></trkpt><trkpt lat="38.19300560755838" lon="15.509190018511982"><ele>241.2</ele><time>2026-04-28T11:27:43Z</time></trkpt><trkpt lat="38.19297019429632" lon="15.50905426765341"><ele>245.0</ele><time>2026-04-28T11:27:44Z</time></trkpt><trkpt lat="38.192981373709976" lon="15.508912223605218"><ele>245.0</ele><time>2026-04-28T11:27:46Z</time></trkpt><trkpt lat="38.193044684760515" lon="15.508955875572775"><ele>245.0</ele><time>2026-04-28T11:27:48Z</time></trkpt><trkpt lat="38.19317906417243" lon="15.509096342885064"><ele>245.0</ele><time>2026-04-28T11:27:50Z</time></trkpt><trkpt lat="38.19328359500719" lon="15.509136976880688"><ele>245.0</ele><time>2026-04-28T11:27:51Z</time></trkpt><trkpt lat="38.19338140580614" lon="15.509184724932666"><ele>246.6</ele><time>2026-04-28T11:27:52Z</time></trkpt><trkpt lat="38.193483721833964" lon="15.509231922718056"><ele>248.2</ele><time>2026-04-28T11:27:53Z</time></trkpt><trkpt lat="38.19357721012593" lon="15.509214658489922"><ele>249.8</ele><time>2026-04-28T11:27:54Z</time></trkpt><trkpt lat="38.193643697756976" lon="15.509215229497388"><ele>251.4</ele><time>2026-04-28T11:27:55Z</time></trkpt><trkpt lat="38.19374442807638" lon="15.5092109890537"><ele>253.0</ele><time>2026-04-28T11:27:57Z</time></trkpt><trkpt lat="38.193784592336925" lon="15.509084993036264"><ele>253.0</ele><time>2026-04-28T11:27:58Z</time></trkpt><trkpt lat="38.19386272073986" lon="15.509030771082125"><ele>253.0</ele><time>2026-04-28T11:27:59Z</time></trkpt><trkpt lat="38.193936553772375" lon="15.50898505458583"><ele>253.0</ele><time>2026-04-28T11:28:00Z</time></trkpt><trkpt lat="38.19402788744411" lon="15.508934159768168"><ele>253.0</ele><time>2026-04-28T11:28:01Z</time></trkpt><trkpt lat="38.19411505668348" lon="15.508873248645275"><ele>253.0</ele><time>2026-04-28T11:28:02Z</time></trkpt><trkpt lat="38.19421573013264" lon="15.508863959999223"><ele>253.60000000000002</ele><time>2026-04-28T11:28:03Z</time></trkpt><trkpt lat="38.194299220013015" lon="15.50883464676087"><ele>254.20000000000002</ele><time>2026-04-28T11:28:04Z</time></trkpt><trkpt lat="38.19440447567187" lon="15.50879610723301"><ele>254.8</ele><time>2026-04-28T11:28:05Z</time></trkpt><trkpt lat="38.19451521465803" lon="15.508756124900644"><ele>255.4</ele><time>2026-04-28T11:28:06Z</time></trkpt><trkpt lat="38.19459361052501" lon="15.508719718947852"><ele>256.0</ele><time>2026-04-28T11:28:07Z</time></trkpt><trkpt lat="38.19465847116269" lon="15.508680243581521"><ele>256.8333333333333</ele><time>2026-04-28T11:28:08Z</time></trkpt><trkpt lat="38.19471605987933" lon="15.508636224596291"><ele>257.66666666666663</ele><time>2026-04-28T11:28:09Z</time></trkpt><trkpt lat="38.19475464223035" lon="15.50857254486132"><ele>258.5</ele><time>2026-04-28T11:28:10Z</time></trkpt><trkpt lat="38.19475013540799" lon="15.508462113364365"><ele>259.3333333333333</ele><time>2026-04-28T11:28:11Z</time></trkpt><trkpt lat="38.194710291362895" lon="15.508372841280453"><ele>260.1666666666667</ele><time>2026-04-28T11:28:12Z</time></trkpt><trkpt lat="38.19462509034197" lon="15.508223745528271"><ele>261.0</ele><time>2026-04-28T11:28:14Z</time></trkpt><trkpt lat="38.19452287393394" lon="15.508142105304021"><ele>261.0</ele><time>2026-04-28T11:28:15Z</time></trkpt><trkpt lat="38.194446089535106" lon="15.508078631033163"><ele>261.0</ele><time>2026-04-28T11:28:16Z</time></trkpt><trkpt lat="38.19440078685605" lon="15.508007055539485"><ele>261.0</ele><time>2026-04-28T11:28:17Z</time></trkpt><trkpt lat="38.194357863099846" lon="15.507946658473983"><ele>261.0</ele><time>2026-04-28T11:28:18Z</time></trkpt><trkpt lat="38.194307766014326" lon="15.507844901756116"><ele>261.0</ele><time>2026-04-28T11:28:19Z</time></trkpt><trkpt lat="38.19425727498708" lon="15.507721984851285"><ele>261.0</ele><time>2026-04-28T11:28:20Z</time></trkpt><trkpt lat="38.19421842184145" lon="15.507600031577883"><ele>262.0</ele><time>2026-04-28T11:28:21Z</time></trkpt><trkpt lat="38.19419090550828" lon="15.507483233184766"><ele>263.0</ele><time>2026-04-28T11:28:22Z</time></trkpt><trkpt lat="38.19418490259092" lon="15.50736229490082"><ele>264.0</ele><time>2026-04-28T11:28:23Z</time></trkpt><trkpt lat="38.19418731269979" lon="15.507259328939952"><ele>265.0</ele><time>2026-04-28T11:28:24Z</time></trkpt><trkpt lat="38.194196712814" lon="15.507177141468093"><ele>266.0</ele><time>2026-04-28T11:28:25Z</time></trkpt><trkpt lat="38.19426602549318" lon="15.507105739594497"><ele>267.0</ele><time>2026-04-28T11:28:26Z</time></trkpt><trkpt lat="38.194359887358225" lon="15.507093021557935"><ele>270.0</ele><time>2026-04-28T11:28:27Z</time></trkpt><trkpt lat="38.19445771948096" lon="15.50702295444423"><ele>273.0</ele><time>2026-04-28T11:28:28Z</time></trkpt><trkpt lat="38.19453821620273" lon="15.506907949835226"><ele>276.0</ele><time>2026-04-28T11:28:29Z</time></trkpt><trkpt lat="38.19460646378644" lon="15.50679207458454"><ele>279.0</ele><time>2026-04-28T11:28:30Z</time></trkpt><trkpt lat="38.19467013604424" lon="15.506645726277648"><ele>279.0</ele><time>2026-04-28T11:28:31Z</time></trkpt><trkpt lat="38.19476537399653" lon="15.506576825069287"><ele>279.0</ele><time>2026-04-28T11:28:32Z</time></trkpt><trkpt lat="38.19484802289551" lon="15.506506326756536"><ele>279.0</ele><time>2026-04-28T11:28:33Z</time></trkpt><trkpt lat="38.19494733524482" lon="15.506458118673905"><ele>279.0</ele><time>2026-04-28T11:28:34Z</time></trkpt><trkpt lat="38.19503963194407" lon="15.506378396309389"><ele>279.0</ele><time>2026-04-28T11:28:35Z</time></trkpt><trkpt lat="38.19512112049145" lon="15.506289712462177"><ele>280.6666666666667</ele><time>2026-04-28T11:28:36Z</time></trkpt><trkpt lat="38.19519696868381" lon="15.506208110548535"><ele>282.3333333333333</ele><time>2026-04-28T11:28:37Z</time></trkpt><trkpt lat="38.19524809130778" lon="15.506142105015595"><ele>284.0</ele><time>2026-04-28T11:28:38Z</time></trkpt><trkpt lat="38.195284944416336" lon="15.50607365091214"><ele>285.66666666666663</ele><time>2026-04-28T11:28:39Z</time></trkpt><trkpt lat="38.19527240000659" lon="15.505967949622805"><ele>287.3333333333333</ele><time>2026-04-28T11:28:40Z</time></trkpt><trkpt lat="38.19524158761621" lon="15.505878257445996"><ele>289.0</ele><time>2026-04-28T11:28:41Z</time></trkpt><trkpt lat="38.19519042233059" lon="15.505821011824477"><ele>289.0</ele><time>2026-04-28T11:28:42Z</time></trkpt><trkpt lat="38.19512452757422" lon="15.505763942991928"><ele>289.0</ele><time>2026-04-28T11:28:43Z</time></trkpt><trkpt lat="38.19500964808426" lon="15.505732685740504"><ele>289.0</ele><time>2026-04-28T11:28:44Z</time></trkpt><trkpt lat="38.19491271296178" lon="15.505709191354425"><ele>289.0</ele><time>2026-04-28T11:28:45Z</time></trkpt><trkpt lat="38.194842926141455" lon="15.505665154747224"><ele>289.0</ele><time>2026-04-28T11:28:46Z</time></trkpt><trkpt lat="38.19476794388847" lon="15.505575312879035"><ele>291.0</ele><time>2026-04-28T11:28:47Z</time></trkpt><trkpt lat="38.194723227787264" lon="15.505473202835523"><ele>293.0</ele><time>2026-04-28T11:28:48Z</time></trkpt><trkpt lat="38.19474936281917" lon="15.505329097357695"><ele>295.0</ele><time>2026-04-28T11:28:50Z</time></trkpt><trkpt lat="38.1948480186133" lon="15.50531332413749"><ele>297.0</ele><time>2026-04-28T11:28:51Z</time></trkpt><trkpt lat="38.19496221039264" lon="15.505267994113616"><ele>299.0</ele><time>2026-04-28T11:28:52Z</time></trkpt><trkpt lat="38.195068576583296" lon="15.505234458568864"><ele>302.0</ele><time>2026-04-28T11:28:53Z</time></trkpt><trkpt lat="38.19515198052097" lon="15.505234816872706"><ele>305.0</ele><time>2026-04-28T11:28:54Z</time></trkpt><trkpt lat="38.195230322821075" lon="15.505254034065215"><ele>308.0</ele><time>2026-04-28T11:28:55Z</time></trkpt><trkpt lat="38.195328670896735" lon="15.50528244599252"><ele>311.0</ele><time>2026-04-28T11:28:56Z</time></trkpt><trkpt lat="38.19541313619504" lon="15.505309674134185"><ele>314.0</ele><time>2026-04-28T11:28:57Z</time></trkpt><trkpt lat="38.19550192699895" lon="15.505332324853452"><ele>317.0</ele><time>2026-04-28T11:28:58Z</time></trkpt><trkpt lat="38.195615137440726" lon="15.505344955954534"><ele>314.8</ele><time>2026-04-28T11:28:59Z</time></trkpt><trkpt lat="38.19574498714458" lon="15.50532067514335"><ele>312.6</ele><time>2026-04-28T11:29:00Z</time></trkpt><trkpt lat="38.19585949621529" lon="15.50536085104629"><ele>310.40000000000003</ele><time>2026-04-28T11:29:01Z</time></trkpt><trkpt lat="38.19593616777119" lon="15.505376584270222"><ele>308.2</ele><time>2026-04-28T11:29:02Z</time></trkpt><trkpt lat="38.19600984669427" lon="15.505329214782831"><ele>306.0</ele><time>2026-04-28T11:29:04Z</time></trkpt><trkpt lat="38.19600705860571" lon="15.50516442129954"><ele>306.0</ele><time>2026-04-28T11:29:06Z</time></trkpt><trkpt lat="38.19595701785903" lon="15.505098954023225"><ele>306.0</ele><time>2026-04-28T11:29:07Z</time></trkpt><trkpt lat="38.19588708555609" lon="15.505056438422194"><ele>306.0</ele><time>2026-04-28T11:29:08Z</time></trkpt><trkpt lat="38.19579847418912" lon="15.505029290173619"><ele>306.0</ele><time>2026-04-28T11:29:10Z</time></trkpt><trkpt lat="38.195841077271375" lon="15.50490173961197"><ele>306.0</ele><time>2026-04-28T11:29:12Z</time></trkpt><trkpt lat="38.1959072403381" lon="15.504865081664631"><ele>306.0</ele><time>2026-04-28T11:29:13Z</time></trkpt><trkpt lat="38.195996121445276" lon="15.504828998376926"><ele>306.0</ele><time>2026-04-28T11:29:14Z</time></trkpt><trkpt lat="38.19610192213594" lon="15.504764819262787"><ele>306.0</ele><time>2026-04-28T11:29:15Z</time></trkpt><trkpt lat="38.19621153508962" lon="15.504708739597604"><ele>306.0</ele><time>2026-04-28T11:29:16Z</time></trkpt><trkpt lat="38.19624745071843" lon="15.504622053290463"><ele>306.0</ele><time>2026-04-28T11:29:18Z</time></trkpt><trkpt lat="38.19624761183564" lon="15.504456030880435"><ele>306.0</ele><time>2026-04-28T11:29:20Z</time></trkpt><trkpt lat="38.196224017886756" lon="15.504361862871287"><ele>310.6666666666667</ele><time>2026-04-28T11:29:21Z</time></trkpt><trkpt lat="38.19629507481353" lon="15.50434443574577"><ele>315.33333333333337</ele><time>2026-04-28T11:29:26Z</time></trkpt><trkpt lat="38.19636355070533" lon="15.504324059469214"><ele>320.0</ele><time>2026-04-28T11:29:28Z</time></trkpt><trkpt lat="38.19671509239591" lon="15.504172131320633"><ele>320.1666666666667</ele><time>2026-04-28T11:29:32Z</time></trkpt><trkpt lat="38.196780915709894" lon="15.504158565397999"><ele>320.33333333333337</ele><time>2026-04-28T11:29:33Z</time></trkpt><trkpt lat="38.19684589976852" lon="15.50412172871271"><ele>320.5</ele><time>2026-04-28T11:29:34Z</time></trkpt><trkpt lat="38.19696800969256" lon="15.50406382870874"><ele>320.6666666666667</ele><time>2026-04-28T11:29:36Z</time></trkpt><trkpt lat="38.19705178694627" lon="15.50402778284633"><ele>320.8333333333333</ele><time>2026-04-28T11:29:37Z</time></trkpt><trkpt lat="38.197138046441275" lon="15.504001239620772"><ele>321.0</ele><time>2026-04-28T11:29:38Z</time></trkpt><trkpt lat="38.197232787775825" lon="15.503982003694842"><ele>321.0</ele><time>2026-04-28T11:29:39Z</time></trkpt><trkpt lat="38.19731191682084" lon="15.503980298998115"><ele>321.0</ele><time>2026-04-28T11:29:40Z</time></trkpt><trkpt lat="38.19738825440951" lon="15.504057491687133"><ele>321.0</ele><time>2026-04-28T11:29:42Z</time></trkpt><trkpt lat="38.1974644365125" lon="15.504133166504817"><ele>321.0</ele><time>2026-04-28T11:29:43Z</time></trkpt><trkpt lat="38.197562273888806" lon="15.504155067144533"><ele>321.0</ele><time>2026-04-28T11:29:44Z</time></trkpt><trkpt lat="38.19763197295425" lon="15.504147018183433"><ele>321.0</ele><time>2026-04-28T11:29:45Z</time></trkpt><trkpt lat="38.19768977076751" lon="15.50407846025351"><ele>322.1666666666667</ele><time>2026-04-28T11:29:46Z</time></trkpt><trkpt lat="38.19774509825556" lon="15.504016853479959"><ele>323.3333333333333</ele><time>2026-04-28T11:29:47Z</time></trkpt><trkpt lat="38.19780355618041" lon="15.503951632852791"><ele>324.5</ele><time>2026-04-28T11:29:48Z</time></trkpt><trkpt lat="38.1978603833898" lon="15.503878402318913"><ele>325.66666666666663</ele><time>2026-04-28T11:29:49Z</time></trkpt><trkpt lat="38.197893437263616" lon="15.503778030919731"><ele>326.8333333333333</ele><time>2026-04-28T11:29:50Z</time></trkpt><trkpt lat="38.19797169537945" lon="15.503694217493145"><ele>328.0</ele><time>2026-04-28T11:29:52Z</time></trkpt><trkpt lat="38.1980274511423" lon="15.503811628955232"><ele>328.0</ele><time>2026-04-28T11:29:53Z</time></trkpt><trkpt lat="38.19814101031609" lon="15.503815347165643"><ele>328.0</ele><time>2026-04-28T11:29:54Z</time></trkpt><trkpt lat="38.198243899813846" lon="15.503810280900572"><ele>328.0</ele><time>2026-04-28T11:29:55Z</time></trkpt><trkpt lat="38.19833992609576" lon="15.503800748095177"><ele>328.0</ele><time>2026-04-28T11:29:56Z</time></trkpt><trkpt lat="38.19844827515509" lon="15.503817381549576"><ele>328.0</ele><time>2026-04-28T11:29:57Z</time></trkpt><trkpt lat="38.198529279958535" lon="15.503896795463598"><ele>329.79999999999995</ele><time>2026-04-28T11:29:58Z</time></trkpt><trkpt lat="38.198615752593504" lon="15.50394651678712"><ele>331.6</ele><time>2026-04-28T11:29:59Z</time></trkpt><trkpt lat="38.1987249717287" lon="15.503979002992844"><ele>333.4</ele><time>2026-04-28T11:30:01Z</time></trkpt><trkpt lat="38.19885312732909" lon="15.503955361891025"><ele>335.20000000000005</ele><time>2026-04-28T11:30:03Z</time></trkpt><trkpt lat="38.19892052895726" lon="15.503854559107339"><ele>337.0</ele><time>2026-04-28T11:30:04Z</time></trkpt><trkpt lat="38.19901337847929" lon="15.503787463053056"><ele>339.6</ele><time>2026-04-28T11:30:05Z</time></trkpt><trkpt lat="38.1991300247631" lon="15.503720529164914"><ele>342.20000000000005</ele><time>2026-04-28T11:30:06Z</time></trkpt><trkpt lat="38.199232624102414" lon="15.503660650260992"><ele>344.8</ele><time>2026-04-28T11:30:07Z</time></trkpt><trkpt lat="38.19929992229462" lon="15.50361723243369"><ele>347.4</ele><time>2026-04-28T11:30:08Z</time></trkpt><trkpt lat="38.19939602006267" lon="15.503601479185315"><ele>350.0</ele><time>2026-04-28T11:30:09Z</time></trkpt><trkpt lat="38.19950653765113" lon="15.503593637836866"><ele>350.0</ele><time>2026-04-28T11:30:10Z</time></trkpt><trkpt lat="38.199614347385534" lon="15.503561587352966"><ele>350.0</ele><time>2026-04-28T11:30:11Z</time></trkpt><trkpt lat="38.199704355422995" lon="15.503550731831291"><ele>350.0</ele><time>2026-04-28T11:30:12Z</time></trkpt><trkpt lat="38.19977354511486" lon="15.503532520620992"><ele>350.0</ele><time>2026-04-28T11:30:13Z</time></trkpt><trkpt lat="38.19984815282654" lon="15.503598374265897"><ele>350.0</ele><time>2026-04-28T11:30:16Z</time></trkpt><trkpt lat="38.19988374329459" lon="15.503724055500578"><ele>352.2</ele><time>2026-04-28T11:30:17Z</time></trkpt><trkpt lat="38.19993143698193" lon="15.503828036198808"><ele>354.4</ele><time>2026-04-28T11:30:18Z</time></trkpt><trkpt lat="38.20000702200734" lon="15.503919308131847"><ele>356.6</ele><time>2026-04-28T11:30:19Z</time></trkpt><trkpt lat="38.200096229647464" lon="15.504012970515978"><ele>358.8</ele><time>2026-04-28T11:30:20Z</time></trkpt><trkpt lat="38.200168626710045" lon="15.504059889091826"><ele>361.0</ele><time>2026-04-28T11:30:21Z</time></trkpt><trkpt lat="38.200246464824446" lon="15.504157058881503"><ele>361.0</ele><time>2026-04-28T11:30:23Z</time></trkpt><trkpt lat="38.20034746656333" lon="15.504229950580324"><ele>361.0</ele><time>2026-04-28T11:30:25Z</time></trkpt><trkpt lat="38.200413231329875" lon="15.504268350678512"><ele>361.0</ele><time>2026-04-28T11:30:26Z</time></trkpt><trkpt lat="38.200487556755746" lon="15.504337496368688"><ele>361.0</ele><time>2026-04-28T11:30:28Z</time></trkpt><trkpt lat="38.20051243495892" lon="15.504467954646204"><ele>361.0</ele><time>2026-04-28T11:30:30Z</time></trkpt><trkpt lat="38.20052591490409" lon="15.504576727985084"><ele>364.0</ele><time>2026-04-28T11:30:31Z</time></trkpt><trkpt lat="38.200551314376774" lon="15.504693489781681"><ele>367.0</ele><time>2026-04-28T11:30:32Z</time></trkpt><trkpt lat="38.200591968802414" lon="15.504805281520692"><ele>370.0</ele><time>2026-04-28T11:30:33Z</time></trkpt><trkpt lat="38.2006008256886" lon="15.50495770219934"><ele>373.0</ele><time>2026-04-28T11:30:34Z</time></trkpt><trkpt lat="38.20061869518335" lon="15.505091669760235"><ele>376.0</ele><time>2026-04-28T11:30:35Z</time></trkpt><trkpt lat="38.20062911675661" lon="15.505192112056063"><ele>376.0</ele><time>2026-04-28T11:30:36Z</time></trkpt><trkpt lat="38.200647794317916" lon="15.505349186021373"><ele>376.0</ele><time>2026-04-28T11:30:38Z</time></trkpt><trkpt lat="38.200674602481655" lon="15.505444939240082"><ele>376.0</ele><time>2026-04-28T11:30:39Z</time></trkpt><trkpt lat="38.200711141443556" lon="15.505517767633725"><ele>376.0</ele><time>2026-04-28T11:30:40Z</time></trkpt><trkpt lat="38.20078272544463" lon="15.505554556929244"><ele>376.0</ele><time>2026-04-28T11:30:42Z</time></trkpt><trkpt lat="38.20082675079156" lon="15.505656951670526"><ele>376.0</ele><time>2026-04-28T11:30:44Z</time></trkpt><trkpt lat="38.200794821044376" lon="15.505778522981032"><ele>377.8333333333333</ele><time>2026-04-28T11:30:46Z</time></trkpt><trkpt lat="38.20074526433743" lon="15.50584024622393"><ele>379.66666666666663</ele><time>2026-04-28T11:30:47Z</time></trkpt><trkpt lat="38.20068745023214" lon="15.50588870418104"><ele>381.5</ele><time>2026-04-28T11:30:48Z</time></trkpt><trkpt lat="38.2006321316759" lon="15.50592738762447"><ele>383.3333333333333</ele><time>2026-04-28T11:30:49Z</time></trkpt><trkpt lat="38.20061847423062" lon="15.506009845749771"><ele>385.1666666666667</ele><time>2026-04-28T11:30:55Z</time></trkpt><trkpt lat="38.200722779813134" lon="15.5060273627859"><ele>387.0</ele><time>2026-04-28T11:30:58Z</time></trkpt><trkpt lat="38.20082496692877" lon="15.505994699777167"><ele>388.20000000000005</ele><time>2026-04-28T11:31:00Z</time></trkpt><trkpt lat="38.200890703613545" lon="15.506022619898486"><ele>389.4</ele><time>2026-04-28T11:31:01Z</time></trkpt><trkpt lat="38.200994305915" lon="15.506100721766922"><ele>390.6</ele><time>2026-04-28T11:31:03Z</time></trkpt><trkpt lat="38.201040452585495" lon="15.506236450128355"><ele>391.79999999999995</ele><time>2026-04-28T11:31:05Z</time></trkpt><trkpt lat="38.20109526331486" lon="15.50636023408219"><ele>393.0</ele><time>2026-04-28T11:31:07Z</time></trkpt><trkpt lat="38.20118274242496" lon="15.506360633544999"><ele>393.0</ele><time>2026-04-28T11:31:09Z</time></trkpt><trkpt lat="38.20124909881511" lon="15.506336998405736"><ele>393.0</ele><time>2026-04-28T11:31:10Z</time></trkpt><trkpt lat="38.20131552985265" lon="15.506305222528097"><ele>393.0</ele><time>2026-04-28T11:31:11Z</time></trkpt><trkpt lat="38.20137761181096" lon="15.506275888203763"><ele>393.0</ele><time>2026-04-28T11:31:12Z</time></trkpt><trkpt lat="38.20148559949567" lon="15.506237371090183"><ele>393.0</ele><time>2026-04-28T11:31:14Z</time></trkpt><trkpt lat="38.20154769806843" lon="15.506271834996445"><ele>393.0</ele><time>2026-04-28T11:31:15Z</time></trkpt><trkpt lat="38.20166104774588" lon="15.50627818154882"><ele>396.8571428571429</ele><time>2026-04-28T11:31:17Z</time></trkpt><trkpt lat="38.20172484037849" lon="15.50627778669122"><ele>400.7142857142857</ele><time>2026-04-28T11:31:18Z</time></trkpt><trkpt lat="38.20180193211635" lon="15.506230026605635"><ele>404.57142857142856</ele><time>2026-04-28T11:31:20Z</time></trkpt><trkpt lat="38.20179112312385" lon="15.506148718326038"><ele>408.42857142857144</ele><time>2026-04-28T11:31:22Z</time></trkpt><trkpt lat="38.20176696028527" lon="15.506071582789897"><ele>412.2857142857143</ele><time>2026-04-28T11:31:23Z</time></trkpt><trkpt lat="38.20173164457053" lon="15.505992945192375"><ele>416.14285714285717</ele><time>2026-04-28T11:31:24Z</time></trkpt><trkpt lat="38.20172291219262" lon="15.50589932301634"><ele>420.0</ele><time>2026-04-28T11:31:26Z</time></trkpt><trkpt lat="38.20176779353042" lon="15.505796167665896"><ele>420.0</ele><time>2026-04-28T11:31:28Z</time></trkpt><trkpt lat="38.201833692622124" lon="15.505840364954992"><ele>420.0</ele><time>2026-04-28T11:31:30Z</time></trkpt><trkpt lat="38.20187951634734" lon="15.505917343954103"><ele>420.0</ele><time>2026-04-28T11:31:32Z</time></trkpt><trkpt lat="38.20193717965391" lon="15.505882711342661"><ele>420.0</ele><time>2026-04-28T11:32:13Z</time></trkpt><trkpt lat="38.201917483700214" lon="15.505788247190456"><ele>420.0</ele><time>2026-04-28T11:32:15Z</time></trkpt><trkpt lat="38.20185790572027" lon="15.505714607116241"><ele>420.0</ele><time>2026-04-28T11:32:17Z</time></trkpt><trkpt lat="38.201801805952705" lon="15.50563395096542"><ele>420.0</ele><time>2026-04-28T11:32:19Z</time></trkpt><trkpt lat="38.201812987429626" lon="15.505518608223575"><ele>420.0</ele><time>2026-04-28T11:32:21Z</time></trkpt><trkpt lat="38.20189200859436" lon="15.505399819441813"><ele>420.0</ele><time>2026-04-28T11:32:23Z</time></trkpt><trkpt lat="38.20195321960076" lon="15.505344863425684"><ele>420.0</ele><time>2026-04-28T11:32:24Z</time></trkpt><trkpt lat="38.20201523215409" lon="15.505283033040648"><ele>420.0</ele><time>2026-04-28T11:32:25Z</time></trkpt><trkpt lat="38.20207411543473" lon="15.505177519616813"><ele>420.5</ele><time>2026-04-28T11:32:27Z</time></trkpt><trkpt lat="38.202042020506234" lon="15.505052577256695"><ele>421.0</ele><time>2026-04-28T11:32:29Z</time></trkpt><trkpt lat="38.201983059705185" lon="15.505018588349717"><ele>421.5</ele><time>2026-04-28T11:32:30Z</time></trkpt><trkpt lat="38.20192342317852" lon="15.504989473876641"><ele>422.0</ele><time>2026-04-28T11:32:31Z</time></trkpt><trkpt lat="38.20189841276605" lon="15.504873476400862"><ele>422.5</ele><time>2026-04-28T11:32:33Z</time></trkpt><trkpt lat="38.20193255522286" lon="15.504788914547117"><ele>423.0</ele><time>2026-04-28T11:32:34Z</time></trkpt><trkpt lat="38.20199129306714" lon="15.504701920358192"><ele>423.0</ele><time>2026-04-28T11:32:35Z</time></trkpt><trkpt lat="38.202048076214425" lon="15.504624078028726"><ele>423.0</ele><time>2026-04-28T11:32:36Z</time></trkpt><trkpt lat="38.20208666415594" lon="15.504557830003446"><ele>423.0</ele><time>2026-04-28T11:32:37Z</time></trkpt><trkpt lat="38.202132522133255" lon="15.5044960217435"><ele>423.0</ele><time>2026-04-28T11:32:50Z</time></trkpt><trkpt lat="38.20218575691351" lon="15.504385538232782"><ele>423.0</ele><time>2026-04-28T11:32:53Z</time></trkpt><trkpt lat="38.202222255737354" lon="15.504238398063363"><ele>423.0</ele><time>2026-04-28T11:32:55Z</time></trkpt><trkpt lat="38.202227105376394" lon="15.504113083831378"><ele>422.8333333333333</ele><time>2026-04-28T11:32:57Z</time></trkpt><trkpt lat="38.20231082586547" lon="15.504083810048744"><ele>422.66666666666663</ele><time>2026-04-28T11:33:00Z</time></trkpt><trkpt lat="38.20231595084461" lon="15.504211229603271"><ele>422.5</ele><time>2026-04-28T11:33:02Z</time></trkpt><trkpt lat="38.20233406963194" lon="15.504289678544401"><ele>422.3333333333333</ele><time>2026-04-28T11:33:04Z</time></trkpt><trkpt lat="38.20238353811399" lon="15.504186220948343"><ele>422.16666666666663</ele><time>2026-04-28T11:33:07Z</time></trkpt><trkpt lat="38.202358188203114" lon="15.50409715881189"><ele>422.0</ele><time>2026-04-28T11:33:08Z</time></trkpt><trkpt lat="38.20237929838141" lon="15.503958777513065"><ele>429.40000000000003</ele><time>2026-04-28T11:33:10Z</time></trkpt><trkpt lat="38.202463250526186" lon="15.503843058408995"><ele>436.8</ele><time>2026-04-28T11:33:12Z</time></trkpt><trkpt lat="38.202516421374916" lon="15.503729882615445"><ele>444.2</ele><time>2026-04-28T11:33:14Z</time></trkpt><trkpt lat="38.2025166261128" lon="15.503610640458461"><ele>451.6</ele><time>2026-04-28T11:33:16Z</time></trkpt><trkpt lat="38.202575299060754" lon="15.503480131187064"><ele>459.0</ele><time>2026-04-28T11:33:18Z</time></trkpt><trkpt lat="38.202702038414444" lon="15.503406303787267"><ele>459.0</ele><time>2026-04-28T11:33:20Z</time></trkpt><trkpt lat="38.202768759425005" lon="15.503400176701039"><ele>459.0</ele><time>2026-04-28T11:33:21Z</time></trkpt><trkpt lat="38.20288278288515" lon="15.503362482841057"><ele>459.0</ele><time>2026-04-28T11:33:23Z</time></trkpt><trkpt lat="38.202970126912355" lon="15.50328059407101"><ele>459.0</ele><time>2026-04-28T11:33:25Z</time></trkpt><trkpt lat="38.203016295867656" lon="15.503145441082639"><ele>459.0</ele><time>2026-04-28T11:33:27Z</time></trkpt><trkpt lat="38.20311739495697" lon="15.503182020634645"><ele>459.0</ele><time>2026-04-28T11:33:29Z</time></trkpt><trkpt lat="38.203150589863625" lon="15.503254555089436"><ele>459.0</ele><time>2026-04-28T11:33:30Z</time></trkpt><trkpt lat="38.20321547949407" lon="15.503304268815194"><ele>459.0</ele><time>2026-04-28T11:33:32Z</time></trkpt><trkpt lat="38.20324471602438" lon="15.503214477894366"><ele>459.0</ele><time>2026-04-28T11:33:33Z</time></trkpt><trkpt lat="38.20328881339721" lon="15.50314968157332"><ele>459.0</ele><time>2026-04-28T11:33:34Z</time></trkpt><trkpt lat="38.20331714661986" lon="15.503004948430766"><ele>459.0</ele><time>2026-04-28T11:33:36Z</time></trkpt><trkpt lat="38.20342057052849" lon="15.502949144719468"><ele>462.0</ele><time>2026-04-28T11:33:38Z</time></trkpt><trkpt lat="38.20349039877797" lon="15.502903966148615"><ele>465.0</ele><time>2026-04-28T11:33:39Z</time></trkpt><trkpt lat="38.203539106853185" lon="15.502812618325862"><ele>468.0</ele><time>2026-04-28T11:33:40Z</time></trkpt><trkpt lat="38.20357529022896" lon="15.502732601024984"><ele>471.0</ele><time>2026-04-28T11:33:41Z</time></trkpt><trkpt lat="38.203672648942906" lon="15.502672062430095"><ele>474.0</ele><time>2026-04-28T11:33:43Z</time></trkpt><trkpt lat="38.20372118959538" lon="15.50275464111335"><ele>477.0</ele><time>2026-04-28T11:33:45Z</time></trkpt><trkpt lat="38.203698407761344" lon="15.50284975442929"><ele>479.20000000000005</ele><time>2026-04-28T11:33:46Z</time></trkpt><trkpt lat="38.20363346141895" lon="15.502937035698501"><ele>481.40000000000003</ele><time>2026-04-28T11:33:47Z</time></trkpt><trkpt lat="38.20358163116108" lon="15.503013637232275"><ele>483.59999999999997</ele><time>2026-04-28T11:33:49Z</time></trkpt><trkpt lat="38.20358303858658" lon="15.503098543890646"><ele>485.79999999999995</ele><time>2026-04-28T11:33:52Z</time></trkpt><trkpt lat="38.203676266932845" lon="15.503019085190562"><ele>488.0</ele><time>2026-04-28T11:33:55Z</time></trkpt><trkpt lat="38.203790232969254" lon="15.502924878505496"><ele>487.99999999999994</ele><time>2026-04-28T11:33:57Z</time></trkpt><trkpt lat="38.20385534582973" lon="15.502859664563667"><ele>488.0</ele><time>2026-04-28T11:33:58Z</time></trkpt><trkpt lat="38.20390075693369" lon="15.50277754788537"><ele>488.0</ele><time>2026-04-28T11:33:59Z</time></trkpt><trkpt lat="38.2039705334551" lon="15.50274299540009"><ele>488.0</ele><time>2026-04-28T11:34:01Z</time></trkpt><trkpt lat="38.204009895416206" lon="15.502869857187665"><ele>487.99999999999994</ele><time>2026-04-28T11:34:03Z</time></trkpt><trkpt lat="38.20396804721585" lon="15.502945865222728"><ele>488.0</ele><time>2026-04-28T11:34:04Z</time></trkpt><trkpt lat="38.203891618801926" lon="15.503025009335797"><ele>488.0</ele><time>2026-04-28T11:34:05Z</time></trkpt><trkpt lat="38.20386154877679" lon="15.5031063707444"><ele>487.99999999999994</ele><time>2026-04-28T11:34:06Z</time></trkpt><trkpt lat="38.20376011841668" lon="15.503166059928098"><ele>487.99999999999994</ele><time>2026-04-28T11:34:08Z</time></trkpt><trkpt lat="38.203715940641196" lon="15.503228613675626"><ele>488.0</ele><time>2026-04-28T11:34:10Z</time></trkpt><trkpt lat="38.20379665506632" lon="15.503182242938008"><ele>488.0</ele><time>2026-04-28T11:34:12Z</time></trkpt><trkpt lat="38.20391094283981" lon="15.503093799969895"><ele>488.0</ele><time>2026-04-28T11:34:14Z</time></trkpt><trkpt lat="38.20398781552629" lon="15.50305777863546"><ele>487.99999999999994</ele><time>2026-04-28T11:34:15Z</time></trkpt><trkpt lat="38.20405605580487" lon="15.502949506266859"><ele>487.99999999999994</ele><time>2026-04-28T11:34:17Z</time></trkpt><trkpt lat="38.20412730635792" lon="15.502976476788895"><ele>488.0</ele><time>2026-04-28T11:34:19Z</time></trkpt><trkpt lat="38.2041122839715" lon="15.503084240754006"><ele>488.0</ele><time>2026-04-28T11:34:21Z</time></trkpt><trkpt lat="38.20399095912671" lon="15.503188917377889"><ele>487.99999999999994</ele><time>2026-04-28T11:34:23Z</time></trkpt><trkpt lat="38.20395237217604" lon="15.503258999247787"><ele>488.0</ele><time>2026-04-28T11:34:24Z</time></trkpt><trkpt lat="38.20391948098826" lon="15.503347234230135"><ele>488.0</ele><time>2026-04-28T11:34:26Z</time></trkpt><trkpt lat="38.20387393304942" lon="15.503210278505408"><ele>488.0</ele><time>2026-04-28T11:34:28Z</time></trkpt><trkpt lat="38.20394899540242" lon="15.503261240334266"><ele>487.99999999999994</ele><time>2026-04-28T11:34:31Z</time></trkpt><trkpt lat="38.20401735281103" lon="15.503228982270175"><ele>488.0</ele><time>2026-04-28T11:34:32Z</time></trkpt><trkpt lat="38.20412422680141" lon="15.503292624939046"><ele>491.49999999999994</ele><time>2026-04-28T11:34:33Z</time></trkpt><trkpt lat="38.20417998951625" lon="15.503196733707302"><ele>495.0</ele><time>2026-04-28T11:34:34Z</time></trkpt><trkpt lat="38.20425186554718" lon="15.503182040480299"><ele>498.5</ele><time>2026-04-28T11:34:35Z</time></trkpt><trkpt lat="38.20418989887734" lon="15.503271572033977"><ele>502.0</ele><time>2026-04-28T11:34:40Z</time></trkpt><trkpt lat="38.20413780431504" lon="15.503319888203993"><ele>505.49999999999994</ele><time>2026-04-28T11:34:41Z</time></trkpt><trkpt lat="38.20407319167036" lon="15.50337662539426"><ele>509.0</ele><time>2026-04-28T11:34:42Z</time></trkpt><trkpt lat="38.204027548273274" lon="15.503445351905778"><ele>507.79999999999995</ele><time>2026-04-28T11:34:43Z</time></trkpt><trkpt lat="38.20399342740019" lon="15.503575750863055"><ele>506.59999999999997</ele><time>2026-04-28T11:34:45Z</time></trkpt><trkpt lat="38.20396714577479" lon="15.503661727973158"><ele>505.4</ele><time>2026-04-28T11:34:46Z</time></trkpt><trkpt lat="38.20390776438339" lon="15.503755405739984"><ele>504.2</ele><time>2026-04-28T11:34:48Z</time></trkpt><trkpt lat="38.20383204222458" lon="15.503780687706996"><ele>503.0</ele><time>2026-04-28T11:34:49Z</time></trkpt><trkpt lat="38.203714273429306" lon="15.503877893374298"><ele>502.99999999999994</ele><time>2026-04-28T11:34:50Z</time></trkpt><trkpt lat="38.20368339968086" lon="15.503975925490922"><ele>503.0</ele><time>2026-04-28T11:34:51Z</time></trkpt><trkpt lat="38.20365613096062" lon="15.504074960230481"><ele>503.0</ele><time>2026-04-28T11:34:52Z</time></trkpt><trkpt lat="38.20365714092847" lon="15.504197159590936"><ele>503.0</ele><time>2026-04-28T11:34:53Z</time></trkpt><trkpt lat="38.20360479310867" lon="15.504271627073875"><ele>502.99999999999994</ele><time>2026-04-28T11:34:54Z</time></trkpt><trkpt lat="38.203545971204456" lon="15.50436867168101"><ele>503.0</ele><time>2026-04-28T11:34:55Z</time></trkpt><trkpt lat="38.203477282588786" lon="15.504479237854424"><ele>504.2</ele><time>2026-04-28T11:34:56Z</time></trkpt><trkpt lat="38.203413242199" lon="15.504581298340039"><ele>505.4</ele><time>2026-04-28T11:34:57Z</time></trkpt><trkpt lat="38.20337912590828" lon="15.504681521446633"><ele>506.59999999999997</ele><time>2026-04-28T11:34:58Z</time></trkpt><trkpt lat="38.20336430577897" lon="15.504802088953568"><ele>507.79999999999995</ele><time>2026-04-28T11:34:59Z</time></trkpt><trkpt lat="38.2033556236561" lon="15.504943720673472"><ele>509.0</ele><time>2026-04-28T11:35:00Z</time></trkpt><trkpt lat="38.20335399304235" lon="15.505069414899575"><ele>509.0</ele><time>2026-04-28T11:35:01Z</time></trkpt><trkpt lat="38.20333915574195" lon="15.505154627424158"><ele>509.0</ele><time>2026-04-28T11:35:02Z</time></trkpt><trkpt lat="38.20340798712888" lon="15.505224773174483"><ele>509.0</ele><time>2026-04-28T11:35:05Z</time></trkpt><trkpt lat="38.20345412013498" lon="15.505099728083847"><ele>509.0</ele><time>2026-04-28T11:35:07Z</time></trkpt><trkpt lat="38.20343649846061" lon="15.505003338681771"><ele>509.0</ele><time>2026-04-28T11:35:08Z</time></trkpt><trkpt lat="38.20344858206278" lon="15.504846448992707"><ele>508.99999999999994</ele><time>2026-04-28T11:35:10Z</time></trkpt><trkpt lat="38.20349523439209" lon="15.504746618738908"><ele>509.0</ele><time>2026-04-28T11:35:11Z</time></trkpt><trkpt lat="38.20354997133983" lon="15.50467126409939"><ele>509.0</ele><time>2026-04-28T11:35:12Z</time></trkpt><trkpt lat="38.203621380388114" lon="15.504616598545839"><ele>509.0</ele><time>2026-04-28T11:35:13Z</time></trkpt><trkpt lat="38.20368174167411" lon="15.504520591268658"><ele>508.99999999999994</ele><time>2026-04-28T11:35:14Z</time></trkpt><trkpt lat="38.203714251905836" lon="15.504418700717306"><ele>509.0</ele><time>2026-04-28T11:35:15Z</time></trkpt><trkpt lat="38.203789485041185" lon="15.504317659339"><ele>507.99999999999994</ele><time>2026-04-28T11:35:17Z</time></trkpt><trkpt lat="38.20386511604719" lon="15.504268616842149"><ele>507.0</ele><time>2026-04-28T11:35:18Z</time></trkpt><trkpt lat="38.20394023037306" lon="15.504211915087765"><ele>506.0</ele><time>2026-04-28T11:35:19Z</time></trkpt><trkpt lat="38.20402793099165" lon="15.504148280595526"><ele>505.0</ele><time>2026-04-28T11:35:20Z</time></trkpt><trkpt lat="38.20409360100977" lon="15.504083264705537"><ele>503.99999999999994</ele><time>2026-04-28T11:35:21Z</time></trkpt><trkpt lat="38.20416109124714" lon="15.504027213714654"><ele>503.0</ele><time>2026-04-28T11:35:22Z</time></trkpt><trkpt lat="38.20422359338535" lon="15.503969770046403"><ele>503.99999999999994</ele><time>2026-04-28T11:35:23Z</time></trkpt><trkpt lat="38.20426503462355" lon="15.50390404580253"><ele>505.0</ele><time>2026-04-28T11:35:24Z</time></trkpt><trkpt lat="38.20428181826497" lon="15.50381654720167"><ele>506.0</ele><time>2026-04-28T11:35:25Z</time></trkpt><trkpt lat="38.20425782900642" lon="15.503721725889203"><ele>507.0</ele><time>2026-04-28T11:35:26Z</time></trkpt><trkpt lat="38.20425234264467" lon="15.503633216481287"><ele>507.99999999999994</ele><time>2026-04-28T11:35:27Z</time></trkpt><trkpt lat="38.20432997535486" lon="15.503577582367"><ele>509.0</ele><time>2026-04-28T11:35:29Z</time></trkpt><trkpt lat="38.204412388527565" lon="15.503549446775585"><ele>509.0</ele><time>2026-04-28T11:35:30Z</time></trkpt><trkpt lat="38.20452276455609" lon="15.503528928562675"><ele>509.0</ele><time>2026-04-28T11:35:31Z</time></trkpt><trkpt lat="38.20461966136826" lon="15.50350902565892"><ele>509.0</ele><time>2026-04-28T11:35:32Z</time></trkpt><trkpt lat="38.20472263743073" lon="15.503473413727635"><ele>509.0</ele><time>2026-04-28T11:35:33Z</time></trkpt><trkpt lat="38.20482479045819" lon="15.503399668064542"><ele>509.0</ele><time>2026-04-28T11:35:34Z</time></trkpt><trkpt lat="38.20489705487734" lon="15.503316897939223"><ele>511.49999999999994</ele><time>2026-04-28T11:35:35Z</time></trkpt><trkpt lat="38.20496839619173" lon="15.50323328735831"><ele>514.0</ele><time>2026-04-28T11:35:36Z</time></trkpt><trkpt lat="38.20501247968583" lon="15.503174179218364"><ele>516.5</ele><time>2026-04-28T11:35:37Z</time></trkpt><trkpt lat="38.20509674356863" lon="15.503141188547584"><ele>519.0</ele><time>2026-04-28T11:35:39Z</time></trkpt><trkpt lat="38.205164671024846" lon="15.503167522611573"><ele>521.5</ele><time>2026-04-28T11:35:40Z</time></trkpt><trkpt lat="38.20524521864582" lon="15.50320821683374"><ele>524.0</ele><time>2026-04-28T11:35:41Z</time></trkpt><trkpt lat="38.20534708105783" lon="15.50321360878329"><ele>524.0</ele><time>2026-04-28T11:35:42Z</time></trkpt><trkpt lat="38.205444145353276" lon="15.503184651661833"><ele>524.0</ele><time>2026-04-28T11:35:43Z</time></trkpt><trkpt lat="38.20554414227905" lon="15.503140198929763"><ele>524.0</ele><time>2026-04-28T11:35:44Z</time></trkpt><trkpt lat="38.205658480033655" lon="15.503095464340667"><ele>524.0</ele><time>2026-04-28T11:35:45Z</time></trkpt><trkpt lat="38.20576012318066" lon="15.503051571670019"><ele>524.0</ele><time>2026-04-28T11:35:46Z</time></trkpt><trkpt lat="38.20585596784165" lon="15.502993366819576"><ele>524.5</ele><time>2026-04-28T11:35:47Z</time></trkpt><trkpt lat="38.20591948054189" lon="15.502919831308072"><ele>525.0</ele><time>2026-04-28T11:35:48Z</time></trkpt><trkpt lat="38.205978743102165" lon="15.502859712377465"><ele>525.5</ele><time>2026-04-28T11:35:49Z</time></trkpt><trkpt lat="38.20603445385457" lon="15.50280070750193"><ele>526.0</ele><time>2026-04-28T11:35:50Z</time></trkpt><trkpt lat="38.20609108883003" lon="15.50271825786068"><ele>526.5</ele><time>2026-04-28T11:35:51Z</time></trkpt><trkpt lat="38.20612884554806" lon="15.502615620971737"><ele>527.0</ele><time>2026-04-28T11:35:52Z</time></trkpt><trkpt lat="38.20612628811374" lon="15.50250029271373"><ele>524.3333333333333</ele><time>2026-04-28T11:35:53Z</time></trkpt><trkpt lat="38.20610333413987" lon="15.502418626687541"><ele>521.6666666666666</ele><time>2026-04-28T11:35:54Z</time></trkpt><trkpt lat="38.20610777307474" lon="15.502323919818206"><ele>519.0</ele><time>2026-04-28T11:35:55Z</time></trkpt><trkpt lat="38.20616088942549" lon="15.502229207329899"><ele>516.3333333333334</ele><time>2026-04-28T11:35:56Z</time></trkpt><trkpt lat="38.20623288374871" lon="15.502133167141846"><ele>513.6666666666667</ele><time>2026-04-28T11:35:57Z</time></trkpt><trkpt lat="38.2063040391855" lon="15.502052583168577"><ele>511.0</ele><time>2026-04-28T11:35:58Z</time></trkpt><trkpt lat="38.20638243483412" lon="15.50199292317111"><ele>508.20000000000005</ele><time>2026-04-28T11:35:59Z</time></trkpt><trkpt lat="38.20647025086371" lon="15.501948999344322"><ele>505.40000000000003</ele><time>2026-04-28T11:36:00Z</time></trkpt><trkpt lat="38.20656433937531" lon="15.501916688457353"><ele>502.6</ele><time>2026-04-28T11:36:01Z</time></trkpt><trkpt lat="38.20666401147458" lon="15.501898672615656"><ele>499.8</ele><time>2026-04-28T11:36:02Z</time></trkpt><trkpt lat="38.20675058568914" lon="15.501857864484652"><ele>497.0</ele><time>2026-04-28T11:36:03Z</time></trkpt><trkpt lat="38.20681011107117" lon="15.501792144150619"><ele>499.8333333333333</ele><time>2026-04-28T11:36:04Z</time></trkpt><trkpt lat="38.206853078900345" lon="15.50169828733319"><ele>502.66666666666663</ele><time>2026-04-28T11:36:05Z</time></trkpt><trkpt lat="38.2068822465364" lon="15.501593616250307"><ele>505.5</ele><time>2026-04-28T11:36:06Z</time></trkpt><trkpt lat="38.20690298478887" lon="15.501489818091565"><ele>508.33333333333337</ele><time>2026-04-28T11:36:07Z</time></trkpt><trkpt lat="38.206971398290754" lon="15.501409891275957"><ele>511.1666666666667</ele><time>2026-04-28T11:36:08Z</time></trkpt><trkpt lat="38.20704528057959" lon="15.501327231714988"><ele>514.0</ele><time>2026-04-28T11:36:09Z</time></trkpt><trkpt lat="38.20711031984975" lon="15.501240607975776"><ele>514.0</ele><time>2026-04-28T11:36:10Z</time></trkpt><trkpt lat="38.20719309532964" lon="15.501151251590784"><ele>514.0</ele><time>2026-04-28T11:36:11Z</time></trkpt><trkpt lat="38.20724035856169" lon="15.501078106125952"><ele>514.0</ele><time>2026-04-28T11:36:12Z</time></trkpt><trkpt lat="38.20731606323633" lon="15.501011408902555"><ele>514.0</ele><time>2026-04-28T11:36:13Z</time></trkpt><trkpt lat="38.20738000824344" lon="15.500973028881429"><ele>514.0</ele><time>2026-04-28T11:36:14Z</time></trkpt><trkpt lat="38.20744659990923" lon="15.5009616635852"><ele>514.0</ele><time>2026-04-28T11:36:15Z</time></trkpt><trkpt lat="38.20753874117095" lon="15.500973243499924"><ele>519.4</ele><time>2026-04-28T11:36:16Z</time></trkpt><trkpt lat="38.20762786553413" lon="15.500972490020587"><ele>524.8</ele><time>2026-04-28T11:36:17Z</time></trkpt><trkpt lat="38.20772537829547" lon="15.500963630592038"><ele>530.2</ele><time>2026-04-28T11:36:18Z</time></trkpt><trkpt lat="38.20781544284979" lon="15.500917639071085"><ele>535.6</ele><time>2026-04-28T11:36:19Z</time></trkpt><trkpt lat="38.207903591001646" lon="15.500842449447683"><ele>541.0</ele><time>2026-04-28T11:36:20Z</time></trkpt><trkpt lat="38.20797218350952" lon="15.500778576022453"><ele>541.0</ele><time>2026-04-28T11:36:21Z</time></trkpt><trkpt lat="38.208051607209185" lon="15.50073458528957"><ele>541.0</ele><time>2026-04-28T11:36:22Z</time></trkpt><trkpt lat="38.20813984347105" lon="15.500742919981397"><ele>541.0</ele><time>2026-04-28T11:36:23Z</time></trkpt><trkpt lat="38.20823794888354" lon="15.500789708510029"><ele>541.0</ele><time>2026-04-28T11:36:24Z</time></trkpt><trkpt lat="38.20833564596432" lon="15.500843204543846"><ele>541.0</ele><time>2026-04-28T11:36:25Z</time></trkpt><trkpt lat="38.20840487945167" lon="15.500889848658462"><ele>542.6666666666667</ele><time>2026-04-28T11:36:26Z</time></trkpt><trkpt lat="38.20848086503336" lon="15.50092982648314"><ele>544.3333333333334</ele><time>2026-04-28T11:36:27Z</time></trkpt><trkpt lat="38.20853499928023" lon="15.50097296401798"><ele>546.0</ele><time>2026-04-28T11:36:28Z</time></trkpt><trkpt lat="38.20861942925464" lon="15.500986137460274"><ele>547.6666666666666</ele><time>2026-04-28T11:36:31Z</time></trkpt><trkpt lat="38.20867127253912" lon="15.500936809116704"><ele>549.3333333333333</ele><time>2026-04-28T11:36:34Z</time></trkpt><trkpt lat="38.20876581559399" lon="15.500871755339082"><ele>551.0</ele><time>2026-04-28T11:36:36Z</time></trkpt><trkpt lat="38.20882023931723" lon="15.500820388775926"><ele>550.9999999999999</ele><time>2026-04-28T11:36:37Z</time></trkpt><trkpt lat="38.20887441466718" lon="15.500755793087619"><ele>551.0</ele><time>2026-04-28T11:36:38Z</time></trkpt><trkpt lat="38.20891101449748" lon="15.500686241254073"><ele>551.0</ele><time>2026-04-28T11:36:39Z</time></trkpt><trkpt lat="38.20894986251815" lon="15.50061679974109"><ele>551.0</ele><time>2026-04-28T11:36:40Z</time></trkpt><trkpt lat="38.2089948322493" lon="15.50054852284314"><ele>551.0</ele><time>2026-04-28T11:36:41Z</time></trkpt><trkpt lat="38.20906100070816" lon="15.500493438400191"><ele>550.9999999999999</ele><time>2026-04-28T11:36:42Z</time></trkpt><trkpt lat="38.20912418647709" lon="15.500446293463598"><ele>551.0</ele><time>2026-04-28T11:36:43Z</time></trkpt><trkpt lat="38.20913803101449" lon="15.500362943725502"><ele>551.6</ele><time>2026-04-28T11:36:46Z</time></trkpt><trkpt lat="38.209030403863565" lon="15.500246570387864"><ele>552.2</ele><time>2026-04-28T11:36:48Z</time></trkpt><trkpt lat="38.208972787370676" lon="15.500179004524751"><ele>552.8</ele><time>2026-04-28T11:36:49Z</time></trkpt><trkpt lat="38.208929591871374" lon="15.500109641456941"><ele>553.4</ele><time>2026-04-28T11:36:50Z</time></trkpt><trkpt lat="38.20888309721451" lon="15.500037213940951"><ele>554.0</ele><time>2026-04-28T11:36:51Z</time></trkpt><trkpt lat="38.20882228996867" lon="15.49992443220504"><ele>554.0</ele><time>2026-04-28T11:36:52Z</time></trkpt><trkpt lat="38.20876966594575" lon="15.49975997705104"><ele>554.0</ele><time>2026-04-28T11:36:53Z</time></trkpt><trkpt lat="38.20874582402254" lon="15.499607471000129"><ele>554.0</ele><time>2026-04-28T11:36:54Z</time></trkpt><trkpt lat="38.208725830608074" lon="15.49946120256317"><ele>554.0</ele><time>2026-04-28T11:36:55Z</time></trkpt><trkpt lat="38.20871051053337" lon="15.499293377946318"><ele>556.0</ele><time>2026-04-28T11:36:56Z</time></trkpt><trkpt lat="38.208694467177125" lon="15.499125736053529"><ele>558.0</ele><time>2026-04-28T11:36:57Z</time></trkpt><trkpt lat="38.20868305448856" lon="15.498978574563193"><ele>560.0</ele><time>2026-04-28T11:36:58Z</time></trkpt><trkpt lat="38.208675629659204" lon="15.498840229590797"><ele>562.0</ele><time>2026-04-28T11:36:59Z</time></trkpt><trkpt lat="38.20867993020181" lon="15.498697651232511"><ele>565.2</ele><time>2026-04-28T11:37:00Z</time></trkpt><trkpt lat="38.2086995224023" lon="15.498552041596035"><ele>568.4000000000001</ele><time>2026-04-28T11:37:01Z</time></trkpt><trkpt lat="38.20873268643938" lon="15.498390561979148"><ele>571.5999999999999</ele><time>2026-04-28T11:37:02Z</time></trkpt><trkpt lat="38.20875852330702" lon="15.49826277014376"><ele>574.8</ele><time>2026-04-28T11:37:03Z</time></trkpt><trkpt lat="38.20874855774623" lon="15.49814403177095"><ele>578.0</ele><time>2026-04-28T11:37:04Z</time></trkpt><trkpt lat="38.20870590410882" lon="15.498028305626004"><ele>576.5</ele><time>2026-04-28T11:37:05Z</time></trkpt><trkpt lat="38.20863365605258" lon="15.49791765607574"><ele>575.0</ele><time>2026-04-28T11:37:06Z</time></trkpt><trkpt lat="38.20851856805812" lon="15.497819236072258"><ele>573.5</ele><time>2026-04-28T11:37:07Z</time></trkpt><trkpt lat="38.20839672759661" lon="15.497748171627162"><ele>572.0</ele><time>2026-04-28T11:37:08Z</time></trkpt><trkpt lat="38.20828237798518" lon="15.497718845096214"><ele>578.5</ele><time>2026-04-28T11:37:09Z</time></trkpt><trkpt lat="38.208135165232065" lon="15.497714107304333"><ele>585.0</ele><time>2026-04-28T11:37:10Z</time></trkpt><trkpt lat="38.20799398614021" lon="15.497708493449355"><ele>591.5</ele><time>2026-04-28T11:37:11Z</time></trkpt><trkpt lat="38.20787512250606" lon="15.497677990417769"><ele>598.0</ele><time>2026-04-28T11:37:12Z</time></trkpt><trkpt lat="38.20777966863218" lon="15.497613645763435"><ele>598.0</ele><time>2026-04-28T11:37:13Z</time></trkpt><trkpt lat="38.20770176993279" lon="15.49752096627469"><ele>598.0</ele><time>2026-04-28T11:37:14Z</time></trkpt><trkpt lat="38.20763115584603" lon="15.497389770124501"><ele>598.0</ele><time>2026-04-28T11:37:15Z</time></trkpt><trkpt lat="38.20757776824314" lon="15.49725324625364"><ele>598.0</ele><time>2026-04-28T11:37:16Z</time></trkpt><trkpt lat="38.20755266511283" lon="15.497118802925677"><ele>599.25</ele><time>2026-04-28T11:37:17Z</time></trkpt><trkpt lat="38.207554000217804" lon="15.496988153223118"><ele>600.5</ele><time>2026-04-28T11:37:18Z</time></trkpt><trkpt lat="38.20759005041115" lon="15.496832811614738"><ele>601.75</ele><time>2026-04-28T11:37:19Z</time></trkpt><trkpt lat="38.20765981061353" lon="15.496678303400031"><ele>603.0</ele><time>2026-04-28T11:37:20Z</time></trkpt><trkpt lat="38.20769912478313" lon="15.496551966315144"><ele>603.0</ele><time>2026-04-28T11:37:21Z</time></trkpt><trkpt lat="38.20770015584681" lon="15.496427216469732"><ele>603.0</ele><time>2026-04-28T11:37:22Z</time></trkpt><trkpt lat="38.20765423074288" lon="15.496329548969225"><ele>603.0</ele><time>2026-04-28T11:37:23Z</time></trkpt><trkpt lat="38.207578845417224" lon="15.496212741394897"><ele>603.0</ele><time>2026-04-28T11:37:24Z</time></trkpt><trkpt lat="38.20749071860552" lon="15.496134905166388"><ele>603.0</ele><time>2026-04-28T11:37:25Z</time></trkpt><trkpt lat="38.207339203546596" lon="15.496100190809152"><ele>608.5</ele><time>2026-04-28T11:37:26Z</time></trkpt><trkpt lat="38.2071986919089" lon="15.496062637278888"><ele>614.0</ele><time>2026-04-28T11:37:27Z</time></trkpt><trkpt lat="38.20710360001575" lon="15.495987602910567"><ele>619.5</ele><time>2026-04-28T11:37:28Z</time></trkpt><trkpt lat="38.20699934067413" lon="15.495890881310613"><ele>625.0</ele><time>2026-04-28T11:37:29Z</time></trkpt><trkpt lat="38.20690692378988" lon="15.495753612677172"><ele>625.0</ele><time>2026-04-28T11:37:30Z</time></trkpt><trkpt lat="38.20682571491296" lon="15.495594069604962"><ele>625.0</ele><time>2026-04-28T11:37:31Z</time></trkpt><trkpt lat="38.206759768092944" lon="15.495474867480622"><ele>625.0</ele><time>2026-04-28T11:37:32Z</time></trkpt><trkpt lat="38.20668146784071" lon="15.495395768524046"><ele>625.0</ele><time>2026-04-28T11:37:33Z</time></trkpt><trkpt lat="38.20658070080091" lon="15.495326694123634"><ele>625.6666666666667</ele><time>2026-04-28T11:37:34Z</time></trkpt><trkpt lat="38.20644478601994" lon="15.495289182588072"><ele>626.3333333333334</ele><time>2026-04-28T11:37:35Z</time></trkpt><trkpt lat="38.20628790940989" lon="15.495289522611165"><ele>627.0</ele><time>2026-04-28T11:37:36Z</time></trkpt><trkpt lat="38.20612581788595" lon="15.495291040316138"><ele>627.0</ele><time>2026-04-28T11:37:37Z</time></trkpt><trkpt lat="38.20597637900841" lon="15.495291715149417"><ele>627.0</ele><time>2026-04-28T11:37:38Z</time></trkpt><trkpt lat="38.20585093789894" lon="15.49528461384051"><ele>627.0</ele><time>2026-04-28T11:37:39Z</time></trkpt><trkpt lat="38.205741900420435" lon="15.495262905729339"><ele>627.0</ele><time>2026-04-28T11:37:40Z</time></trkpt><trkpt lat="38.205637392003965" lon="15.49521124365218"><ele>632.5</ele><time>2026-04-28T11:37:41Z</time></trkpt><trkpt lat="38.20555019408776" lon="15.495120901329733"><ele>638.0</ele><time>2026-04-28T11:37:42Z</time></trkpt><trkpt lat="38.205473717152586" lon="15.49500127480586"><ele>643.5</ele><time>2026-04-28T11:37:43Z</time></trkpt><trkpt lat="38.205423124284394" lon="15.49486455534887"><ele>649.0</ele><time>2026-04-28T11:37:44Z</time></trkpt><trkpt lat="38.20540898598307" lon="15.494692991659912"><ele>650.6666666666667</ele><time>2026-04-28T11:37:45Z</time></trkpt><trkpt lat="38.20543756865537" lon="15.494486695787264"><ele>652.3333333333334</ele><time>2026-04-28T11:37:46Z</time></trkpt><trkpt lat="38.20547523878126" lon="15.494280473787473"><ele>654.0</ele><time>2026-04-28T11:37:47Z</time></trkpt><trkpt lat="38.20550406727484" lon="15.49410712496948"><ele>654.0</ele><time>2026-04-28T11:37:48Z</time></trkpt><trkpt lat="38.20551558745305" lon="15.493973440059552"><ele>654.0</ele><time>2026-04-28T11:37:49Z</time></trkpt><trkpt lat="38.20553546006808" lon="15.493847325635288"><ele>654.0</ele><time>2026-04-28T11:37:50Z</time></trkpt><trkpt lat="38.20554987809719" lon="15.49371323358164"><ele>654.0</ele><time>2026-04-28T11:37:51Z</time></trkpt><trkpt lat="38.205546528636525" lon="15.493568285763654"><ele>654.0</ele><time>2026-04-28T11:37:52Z</time></trkpt><trkpt lat="38.2055394089325" lon="15.493432930552158"><ele>653.5</ele><time>2026-04-28T11:37:53Z</time></trkpt><trkpt lat="38.20549937462589" lon="15.493318360686468"><ele>653.0</ele><time>2026-04-28T11:37:54Z</time></trkpt><trkpt lat="38.20542071505595" lon="15.49323540566898"><ele>652.5</ele><time>2026-04-28T11:37:55Z</time></trkpt><trkpt lat="38.205289396811054" lon="15.493164231523762"><ele>652.0</ele><time>2026-04-28T11:37:56Z</time></trkpt><trkpt lat="38.20517052722855" lon="15.49307932350518"><ele>652.0</ele><time>2026-04-28T11:37:57Z</time></trkpt><trkpt lat="38.205034150374075" lon="15.492963035175642"><ele>652.0</ele><time>2026-04-28T11:37:58Z</time></trkpt><trkpt lat="38.204890238738905" lon="15.492890917850103"><ele>652.0</ele><time>2026-04-28T11:37:59Z</time></trkpt><trkpt lat="38.20470655811709" lon="15.492789693996949"><ele>653.3333333333334</ele><time>2026-04-28T11:38:00Z</time></trkpt><trkpt lat="38.204556516851575" lon="15.492699528646238"><ele>654.6666666666666</ele><time>2026-04-28T11:38:01Z</time></trkpt><trkpt lat="38.204423035848755" lon="15.49261718232966"><ele>656.0</ele><time>2026-04-28T11:38:02Z</time></trkpt><trkpt lat="38.2042937546386" lon="15.492541646959959"><ele>656.0</ele><time>2026-04-28T11:38:03Z</time></trkpt><trkpt lat="38.20417428331476" lon="15.49249940723421"><ele>656.0</ele><time>2026-04-28T11:38:04Z</time></trkpt><trkpt lat="38.204061618583616" lon="15.492431291979733"><ele>656.0</ele><time>2026-04-28T11:38:05Z</time></trkpt><trkpt lat="38.203976725383285" lon="15.4924023792291"><ele>656.0</ele><time>2026-04-28T11:38:06Z</time></trkpt><trkpt lat="38.20388332265062" lon="15.492378910398504"><ele>656.0</ele><time>2026-04-28T11:38:07Z</time></trkpt><trkpt lat="38.203777187183036" lon="15.492431550421717"><ele>657.8</ele><time>2026-04-28T11:38:08Z</time></trkpt><trkpt lat="38.203660193520165" lon="15.49252168228692"><ele>659.5999999999999</ele><time>2026-04-28T11:38:09Z</time></trkpt><trkpt lat="38.20357528901595" lon="15.492612420176185"><ele>661.4</ele><time>2026-04-28T11:38:10Z</time></trkpt><trkpt lat="38.20349045149295" lon="15.492682774411282"><ele>663.2</ele><time>2026-04-28T11:38:11Z</time></trkpt><trkpt lat="38.20341074269475" lon="15.492700913958185"><ele>665.0</ele><time>2026-04-28T11:38:12Z</time></trkpt><trkpt lat="38.20329606213211" lon="15.492650194358632"><ele>665.0</ele><time>2026-04-28T11:38:13Z</time></trkpt><trkpt lat="38.20318790019677" lon="15.492533348657055"><ele>665.0</ele><time>2026-04-28T11:38:14Z</time></trkpt><trkpt lat="38.203060848506574" lon="15.492381356751064"><ele>665.0</ele><time>2026-04-28T11:38:15Z</time></trkpt><trkpt lat="38.20294828313806" lon="15.492230321942841"><ele>662.0</ele><time>2026-04-28T11:38:16Z</time></trkpt><trkpt lat="38.2028397521812" lon="15.492125873878043"><ele>659.0</ele><time>2026-04-28T11:38:17Z</time></trkpt><trkpt lat="38.20274291908173" lon="15.492048597013387"><ele>656.0</ele><time>2026-04-28T11:38:18Z</time></trkpt><trkpt lat="38.202631524638534" lon="15.492002466151"><ele>653.0</ele><time>2026-04-28T11:38:19Z</time></trkpt><trkpt lat="38.20251576947539" lon="15.491985318916242"><ele>653.0</ele><time>2026-04-28T11:38:20Z</time></trkpt><trkpt lat="38.20238465113042" lon="15.492000388717424"><ele>653.0</ele><time>2026-04-28T11:38:21Z</time></trkpt><trkpt lat="38.20222882961068" lon="15.492038040858526"><ele>653.0</ele><time>2026-04-28T11:38:22Z</time></trkpt><trkpt lat="38.20206104585218" lon="15.49209128943039"><ele>660.5</ele><time>2026-04-28T11:38:23Z</time></trkpt><trkpt lat="38.20192189147209" lon="15.492114428194716"><ele>668.0</ele><time>2026-04-28T11:38:24Z</time></trkpt><trkpt lat="38.20179359399535" lon="15.492125511631917"><ele>675.5</ele><time>2026-04-28T11:38:25Z</time></trkpt><trkpt lat="38.201667260282164" lon="15.492148799949929"><ele>683.0</ele><time>2026-04-28T11:38:26Z</time></trkpt><trkpt lat="38.20153713592344" lon="15.492181494002084"><ele>681.6666666666666</ele><time>2026-04-28T11:38:27Z</time></trkpt><trkpt lat="38.20138594811955" lon="15.492201442751107"><ele>680.3333333333334</ele><time>2026-04-28T11:38:28Z</time></trkpt><trkpt lat="38.20122996657465" lon="15.492204446129017"><ele>679.0</ele><time>2026-04-28T11:38:29Z</time></trkpt><trkpt lat="38.20106528958473" lon="15.492182264942873"><ele>679.0</ele><time>2026-04-28T11:38:30Z</time></trkpt><trkpt lat="38.20089952916526" lon="15.492159764330033"><ele>679.0</ele><time>2026-04-28T11:38:31Z</time></trkpt><trkpt lat="38.200723892562436" lon="15.492120986426457"><ele>679.0</ele><time>2026-04-28T11:38:32Z</time></trkpt><trkpt lat="38.20055188300692" lon="15.49208064878053"><ele>675.0</ele><time>2026-04-28T11:38:33Z</time></trkpt><trkpt lat="38.20037546042947" lon="15.492050458122435"><ele>671.0</ele><time>2026-04-28T11:38:34Z</time></trkpt><trkpt lat="38.20020267334571" lon="15.492024221084126"><ele>667.0</ele><time>2026-04-28T11:38:35Z</time></trkpt><trkpt lat="38.20003528116528" lon="15.491990346070736"><ele>667.0</ele><time>2026-04-28T11:38:36Z</time></trkpt><trkpt lat="38.19988618245662" lon="15.491959202896233"><ele>667.0</ele><time>2026-04-28T11:38:37Z</time></trkpt><trkpt lat="38.199750254944476" lon="15.491922759152903"><ele>667.0</ele><time>2026-04-28T11:38:38Z</time></trkpt><trkpt lat="38.199619204183996" lon="15.491890724116699"><ele>667.0</ele><time>2026-04-28T11:38:39Z</time></trkpt><trkpt lat="38.199492363951535" lon="15.49186373293911"><ele>671.5</ele><time>2026-04-28T11:38:40Z</time></trkpt><trkpt lat="38.19936139503334" lon="15.491822455536077"><ele>676.0</ele><time>2026-04-28T11:38:41Z</time></trkpt><trkpt lat="38.19923377241918" lon="15.491736886780291"><ele>680.5</ele><time>2026-04-28T11:38:42Z</time></trkpt><trkpt lat="38.19911395351865" lon="15.491666037110397"><ele>685.0</ele><time>2026-04-28T11:38:43Z</time></trkpt><trkpt lat="38.198997392990975" lon="15.491596537875768"><ele>687.0</ele><time>2026-04-28T11:38:44Z</time></trkpt><trkpt lat="38.19887680670761" lon="15.491514330744137"><ele>689.0</ele><time>2026-04-28T11:38:45Z</time></trkpt><trkpt lat="38.198770022303286" lon="15.491425345827812"><ele>691.0</ele><time>2026-04-28T11:38:46Z</time></trkpt><trkpt lat="38.19869533597601" lon="15.49128590890566"><ele>693.0</ele><time>2026-04-28T11:38:47Z</time></trkpt><trkpt lat="38.19863201028374" lon="15.491112809323967"><ele>695.75</ele><time>2026-04-28T11:38:48Z</time></trkpt><trkpt lat="38.19858735445091" lon="15.49092208034857"><ele>698.5</ele><time>2026-04-28T11:38:49Z</time></trkpt><trkpt lat="38.198531614064244" lon="15.490739239392656"><ele>701.25</ele><time>2026-04-28T11:38:50Z</time></trkpt><trkpt lat="38.19845158883323" lon="15.490595434545357"><ele>704.0</ele><time>2026-04-28T11:38:51Z</time></trkpt><trkpt lat="38.19836033478996" lon="15.490508093254295"><ele>704.0</ele><time>2026-04-28T11:38:52Z</time></trkpt><trkpt lat="38.198273124394085" lon="15.490436884970299"><ele>704.0</ele><time>2026-04-28T11:38:53Z</time></trkpt><trkpt lat="38.19815937367268" lon="15.490403285959337"><ele>704.0</ele><time>2026-04-28T11:38:54Z</time></trkpt><trkpt lat="38.198040171236556" lon="15.490365283165174"><ele>704.0</ele><time>2026-04-28T11:38:55Z</time></trkpt><trkpt lat="38.19794830456394" lon="15.490274016400342"><ele>707.0</ele><time>2026-04-28T11:38:56Z</time></trkpt><trkpt lat="38.19787287879009" lon="15.49015384303513"><ele>710.0</ele><time>2026-04-28T11:38:57Z</time></trkpt><trkpt lat="38.19781815379335" lon="15.489996615154348"><ele>713.0</ele><time>2026-04-28T11:38:58Z</time></trkpt><trkpt lat="38.197751814018446" lon="15.489825963273598"><ele>716.0</ele><time>2026-04-28T11:38:59Z</time></trkpt><trkpt lat="38.19767635604276" lon="15.48966471170096"><ele>715.3333333333333</ele><time>2026-04-28T11:39:00Z</time></trkpt><trkpt lat="38.19759587216833" lon="15.489504798705463"><ele>714.6666666666666</ele><time>2026-04-28T11:39:01Z</time></trkpt><trkpt lat="38.19748837971984" lon="15.489349944232465"><ele>714.0</ele><time>2026-04-28T11:39:02Z</time></trkpt><trkpt lat="38.19737626818738" lon="15.489191533332916"><ele>721.0</ele><time>2026-04-28T11:39:03Z</time></trkpt><trkpt lat="38.1972736034206" lon="15.489051064318879"><ele>728.0</ele><time>2026-04-28T11:39:04Z</time></trkpt><trkpt lat="38.19718877305335" lon="15.488923847498553"><ele>735.0</ele><time>2026-04-28T11:39:05Z</time></trkpt><trkpt lat="38.19711906695528" lon="15.488809651420102"><ele>742.0</ele><time>2026-04-28T11:39:06Z</time></trkpt><trkpt lat="38.1970685706709" lon="15.488690229155534"><ele>743.0</ele><time>2026-04-28T11:39:07Z</time></trkpt><trkpt lat="38.197037775570834" lon="15.488559568286965"><ele>744.0</ele><time>2026-04-28T11:39:08Z</time></trkpt><trkpt lat="38.197053414700214" lon="15.488391999713642"><ele>745.0</ele><time>2026-04-28T11:39:09Z</time></trkpt><trkpt lat="38.197056050510014" lon="15.48821969186793"><ele>746.0</ele><time>2026-04-28T11:39:10Z</time></trkpt><trkpt lat="38.1970085244985" lon="15.488083967994902"><ele>746.0</ele><time>2026-04-28T11:39:11Z</time></trkpt><trkpt lat="38.19694260155402" lon="15.487975519889718"><ele>746.0</ele><time>2026-04-28T11:39:12Z</time></trkpt><trkpt lat="38.19686840050827" lon="15.487900402247611"><ele>746.0</ele><time>2026-04-28T11:39:13Z</time></trkpt><trkpt lat="38.19675342450123" lon="15.487857447881709"><ele>746.0</ele><time>2026-04-28T11:39:14Z</time></trkpt><trkpt lat="38.196628367939994" lon="15.487840975735487"><ele>746.0</ele><time>2026-04-28T11:39:15Z</time></trkpt><trkpt lat="38.19650519281145" lon="15.487801109818221"><ele>746.6666666666666</ele><time>2026-04-28T11:39:16Z</time></trkpt><trkpt lat="38.19638548417855" lon="15.487731935301571"><ele>747.3333333333334</ele><time>2026-04-28T11:39:17Z</time></trkpt><trkpt lat="38.19623810205161" lon="15.487649244402983"><ele>748.0</ele><time>2026-04-28T11:39:18Z</time></trkpt><trkpt lat="38.19607597389715" lon="15.4875702308635"><ele>748.0</ele><time>2026-04-28T11:39:19Z</time></trkpt><trkpt lat="38.19590780515331" lon="15.48749010707953"><ele>748.0</ele><time>2026-04-28T11:39:20Z</time></trkpt><trkpt lat="38.19575944677719" lon="15.487405005093171"><ele>748.0</ele><time>2026-04-28T11:39:21Z</time></trkpt><trkpt lat="38.195623911199775" lon="15.487363330235507"><ele>748.75</ele><time>2026-04-28T11:39:22Z</time></trkpt><trkpt lat="38.19551213387492" lon="15.487271769881241"><ele>749.5</ele><time>2026-04-28T11:39:23Z</time></trkpt><trkpt lat="38.19540442092383" lon="15.487154250465151"><ele>750.25</ele><time>2026-04-28T11:39:24Z</time></trkpt><trkpt lat="38.19530379905336" lon="15.487011586965117"><ele>751.0</ele><time>2026-04-28T11:39:25Z</time></trkpt><trkpt lat="38.195203313982496" lon="15.486846711566827"><ele>753.5</ele><time>2026-04-28T11:39:26Z</time></trkpt><trkpt lat="38.195126872608924" lon="15.486664353805029"><ele>756.0</ele><time>2026-04-28T11:39:27Z</time></trkpt><trkpt lat="38.1950666859101" lon="15.486516067878336"><ele>758.5</ele><time>2026-04-28T11:39:28Z</time></trkpt><trkpt lat="38.19499653653157" lon="15.486399253267761"><ele>761.0</ele><time>2026-04-28T11:39:29Z</time></trkpt><trkpt lat="38.194882265879" lon="15.486292589473543"><ele>764.6666666666666</ele><time>2026-04-28T11:39:30Z</time></trkpt><trkpt lat="38.194746102361044" lon="15.486222750296804"><ele>768.3333333333333</ele><time>2026-04-28T11:39:31Z</time></trkpt><trkpt lat="38.1945950561307" lon="15.486164919005848"><ele>772.0</ele><time>2026-04-28T11:39:32Z</time></trkpt><trkpt lat="38.194456593054646" lon="15.486087932302869"><ele>772.0</ele><time>2026-04-28T11:39:33Z</time></trkpt><trkpt lat="38.19431989117715" lon="15.485976595281528"><ele>772.0</ele><time>2026-04-28T11:39:34Z</time></trkpt><trkpt lat="38.19417412211098" lon="15.485845084813258"><ele>772.0</ele><time>2026-04-28T11:39:35Z</time></trkpt><trkpt lat="38.19403027378221" lon="15.48572388602589"><ele>772.3333333333333</ele><time>2026-04-28T11:39:36Z</time></trkpt><trkpt lat="38.19387076417058" lon="15.4856066811961"><ele>772.6666666666667</ele><time>2026-04-28T11:39:37Z</time></trkpt><trkpt lat="38.193706111448414" lon="15.485497005887389"><ele>773.0</ele><time>2026-04-28T11:39:38Z</time></trkpt><trkpt lat="38.19354981918775" lon="15.485401494322815"><ele>773.0</ele><time>2026-04-28T11:39:39Z</time></trkpt><trkpt lat="38.193420045542915" lon="15.485316183090386"><ele>773.0</ele><time>2026-04-28T11:39:40Z</time></trkpt><trkpt lat="38.19329351232472" lon="15.485232938809304"><ele>773.0</ele><time>2026-04-28T11:39:41Z</time></trkpt><trkpt lat="38.19316267939951" lon="15.485135974202034"><ele>773.0</ele><time>2026-04-28T11:39:42Z</time></trkpt><trkpt lat="38.19304122532427" lon="15.485012635407898"><ele>776.3333333333334</ele><time>2026-04-28T11:39:43Z</time></trkpt><trkpt lat="38.19293575234629" lon="15.484864230316605"><ele>779.6666666666667</ele><time>2026-04-28T11:39:44Z</time></trkpt><trkpt lat="38.19283116498957" lon="15.484702432879532"><ele>783.0</ele><time>2026-04-28T11:39:45Z</time></trkpt><trkpt lat="38.192731317227974" lon="15.484547915787427"><ele>783.0</ele><time>2026-04-28T11:39:46Z</time></trkpt><trkpt lat="38.192623681979455" lon="15.484439208274635"><ele>783.0</ele><time>2026-04-28T11:39:47Z</time></trkpt><trkpt lat="38.19248169094741" lon="15.484357171780426"><ele>783.0</ele><time>2026-04-28T11:39:48Z</time></trkpt><trkpt lat="38.192321532317564" lon="15.484294301841826"><ele>789.75</ele><time>2026-04-28T11:39:49Z</time></trkpt><trkpt lat="38.19216769008974" lon="15.484206781550633"><ele>796.5</ele><time>2026-04-28T11:39:50Z</time></trkpt><trkpt lat="38.19204461595698" lon="15.48410324129299"><ele>803.25</ele><time>2026-04-28T11:39:51Z</time></trkpt><trkpt lat="38.191943947127285" lon="15.4839959599015"><ele>810.0</ele><time>2026-04-28T11:39:52Z</time></trkpt><trkpt lat="38.19186506320796" lon="15.483862381226679"><ele>807.75</ele><time>2026-04-28T11:39:53Z</time></trkpt><trkpt lat="38.19181232521148" lon="15.483686029378331"><ele>805.5</ele><time>2026-04-28T11:39:54Z</time></trkpt><trkpt lat="38.1917847414258" lon="15.483510770947943"><ele>803.25</ele><time>2026-04-28T11:39:55Z</time></trkpt><trkpt lat="38.19175148358636" lon="15.483371244432208"><ele>801.0</ele><time>2026-04-28T11:39:56Z</time></trkpt><trkpt lat="38.191695797004975" lon="15.483263427763"><ele>801.0</ele><time>2026-04-28T11:39:57Z</time></trkpt><trkpt lat="38.19162537537136" lon="15.483149402328833"><ele>801.0</ele><time>2026-04-28T11:39:58Z</time></trkpt><trkpt lat="38.19153493886522" lon="15.483067953482207"><ele>801.0</ele><time>2026-04-28T11:39:59Z</time></trkpt><trkpt lat="38.19139616307299" lon="15.483004961571298"><ele>801.0</ele><time>2026-04-28T11:40:00Z</time></trkpt><trkpt lat="38.19127387179911" lon="15.482956377112268"><ele>805.75</ele><time>2026-04-28T11:40:01Z</time></trkpt><trkpt lat="38.19118585359964" lon="15.482858805179943"><ele>810.5</ele><time>2026-04-28T11:40:02Z</time></trkpt><trkpt lat="38.19112564850715" lon="15.482709686522327"><ele>815.25</ele><time>2026-04-28T11:40:03Z</time></trkpt><trkpt lat="38.191094519723926" lon="15.48254330966544"><ele>820.0</ele><time>2026-04-28T11:40:04Z</time></trkpt><trkpt lat="38.191066515132476" lon="15.482384269271959"><ele>820.0</ele><time>2026-04-28T11:40:05Z</time></trkpt><trkpt lat="38.191022572393116" lon="15.482260375520823"><ele>820.0</ele><time>2026-04-28T11:40:06Z</time></trkpt><trkpt lat="38.190956645746326" lon="15.482164431137868"><ele>820.0</ele><time>2026-04-28T11:40:07Z</time></trkpt><trkpt lat="38.190876168139866" lon="15.482093113484138"><ele>820.0</ele><time>2026-04-28T11:40:08Z</time></trkpt><trkpt lat="38.190770177995965" lon="15.482047433177796"><ele>820.0</ele><time>2026-04-28T11:40:09Z</time></trkpt><trkpt lat="38.190647928990145" lon="15.482028335960576"><ele>818.75</ele><time>2026-04-28T11:40:10Z</time></trkpt><trkpt lat="38.19051496846635" lon="15.482026701060022"><ele>817.5</ele><time>2026-04-28T11:40:11Z</time></trkpt><trkpt lat="38.1903942607129" lon="15.482012904034102"><ele>816.25</ele><time>2026-04-28T11:40:12Z</time></trkpt><trkpt lat="38.19029628399228" lon="15.48198272117526"><ele>815.0</ele><time>2026-04-28T11:40:13Z</time></trkpt><trkpt lat="38.19019263523675" lon="15.48192564544341"><ele>815.0</ele><time>2026-04-28T11:40:14Z</time></trkpt><trkpt lat="38.1901020992536" lon="15.481814185099795"><ele>815.0</ele><time>2026-04-28T11:40:15Z</time></trkpt><trkpt lat="38.19000465447738" lon="15.481713225124635"><ele>815.0</ele><time>2026-04-28T11:40:16Z</time></trkpt><trkpt lat="38.18987674602118" lon="15.481657568188293"><ele>815.0</ele><time>2026-04-28T11:40:17Z</time></trkpt><trkpt lat="38.1897373485987" lon="15.481633442178977"><ele>816.0</ele><time>2026-04-28T11:40:18Z</time></trkpt><trkpt lat="38.18959782663385" lon="15.481595655200929"><ele>817.0</ele><time>2026-04-28T11:40:19Z</time></trkpt><trkpt lat="38.18947179397371" lon="15.48150364802391"><ele>818.0</ele><time>2026-04-28T11:40:20Z</time></trkpt><trkpt lat="38.18936500013833" lon="15.48141571349609"><ele>819.0</ele><time>2026-04-28T11:40:21Z</time></trkpt><trkpt lat="38.189265309169336" lon="15.48133003743859"><ele>819.5</ele><time>2026-04-28T11:40:22Z</time></trkpt><trkpt lat="38.18915947077402" lon="15.481245680193659"><ele>820.0</ele><time>2026-04-28T11:40:23Z</time></trkpt><trkpt lat="38.189053187516514" lon="15.481167305815152"><ele>820.5</ele><time>2026-04-28T11:40:24Z</time></trkpt><trkpt lat="38.188945232484315" lon="15.481083089667596"><ele>821.0</ele><time>2026-04-28T11:40:25Z</time></trkpt><trkpt lat="38.18883901320299" lon="15.480997414232778"><ele>821.75</ele><time>2026-04-28T11:40:26Z</time></trkpt><trkpt lat="38.18872292091533" lon="15.480916451004829"><ele>822.5</ele><time>2026-04-28T11:40:27Z</time></trkpt><trkpt lat="38.18860630414451" lon="15.4808343995741"><ele>823.25</ele><time>2026-04-28T11:40:28Z</time></trkpt><trkpt lat="38.188491534694364" lon="15.480738050386416"><ele>824.0</ele><time>2026-04-28T11:40:29Z</time></trkpt><trkpt lat="38.188389665097425" lon="15.480627037502622"><ele>824.0</ele><time>2026-04-28T11:40:30Z</time></trkpt><trkpt lat="38.18829666624851" lon="15.48051735565607"><ele>824.0</ele><time>2026-04-28T11:40:31Z</time></trkpt><trkpt lat="38.188201237805046" lon="15.480431412863748"><ele>824.0</ele><time>2026-04-28T11:40:32Z</time></trkpt><trkpt lat="38.188100574816374" lon="15.480360613943452"><ele>824.0</ele><time>2026-04-28T11:40:33Z</time></trkpt><trkpt lat="38.18800638730825" lon="15.480266168414104"><ele>823.25</ele><time>2026-04-28T11:40:34Z</time></trkpt><trkpt lat="38.18793846145521" lon="15.48013725405147"><ele>822.5</ele><time>2026-04-28T11:40:35Z</time></trkpt><trkpt lat="38.187905138795436" lon="15.47997555332536"><ele>821.75</ele><time>2026-04-28T11:40:36Z</time></trkpt><trkpt lat="38.18789703258721" lon="15.479793410048394"><ele>821.0</ele><time>2026-04-28T11:40:37Z</time></trkpt><trkpt lat="38.18790243185054" lon="15.479598904294333"><ele>821.0</ele><time>2026-04-28T11:40:38Z</time></trkpt><trkpt lat="38.18791312401282" lon="15.479385244936976"><ele>821.0</ele><time>2026-04-28T11:40:39Z</time></trkpt><trkpt lat="38.18790738482129" lon="15.479171730299548"><ele>821.0</ele><time>2026-04-28T11:40:40Z</time></trkpt><trkpt lat="38.18787777563724" lon="15.478980606461294"><ele>821.0</ele><time>2026-04-28T11:40:41Z</time></trkpt><trkpt lat="38.18782158399979" lon="15.478806097879321"><ele>821.0</ele><time>2026-04-28T11:40:42Z</time></trkpt><trkpt lat="38.18775974078833" lon="15.478668357723052"><ele>821.0</ele><time>2026-04-28T11:40:43Z</time></trkpt><trkpt lat="38.18765793545332" lon="15.478549062896487"><ele>821.0</ele><time>2026-04-28T11:40:44Z</time></trkpt><trkpt lat="38.18752355264555" lon="15.478445919615568"><ele>823.3333333333334</ele><time>2026-04-28T11:40:45Z</time></trkpt><trkpt lat="38.18737244236315" lon="15.478335627421274"><ele>825.6666666666667</ele><time>2026-04-28T11:40:46Z</time></trkpt><trkpt lat="38.18723292273802" lon="15.478204810221584"><ele>828.0</ele><time>2026-04-28T11:40:47Z</time></trkpt><trkpt lat="38.187117767532165" lon="15.478053706077935"><ele>833.25</ele><time>2026-04-28T11:40:48Z</time></trkpt><trkpt lat="38.1870377285274" lon="15.477902762771661"><ele>838.5</ele><time>2026-04-28T11:40:49Z</time></trkpt><trkpt lat="38.18694104897362" lon="15.477787137136419"><ele>843.75</ele><time>2026-04-28T11:40:50Z</time></trkpt><trkpt lat="38.1868135141748" lon="15.477718925406212"><ele>849.0</ele><time>2026-04-28T11:40:51Z</time></trkpt><trkpt lat="38.186675196018605" lon="15.47768395173402"><ele>849.0</ele><time>2026-04-28T11:40:52Z</time></trkpt><trkpt lat="38.18652931292087" lon="15.47767219890214"><ele>849.0</ele><time>2026-04-28T11:40:53Z</time></trkpt><trkpt lat="38.186359087079204" lon="15.477674202253958"><ele>849.0</ele><time>2026-04-28T11:40:54Z</time></trkpt><trkpt lat="38.18618260269231" lon="15.477691678860138"><ele>848.6666666666667</ele><time>2026-04-28T11:40:55Z</time></trkpt><trkpt lat="38.186017453791465" lon="15.477692642642504"><ele>848.3333333333334</ele><time>2026-04-28T11:40:56Z</time></trkpt><trkpt lat="38.18584346699151" lon="15.477680691503918"><ele>848.0</ele><time>2026-04-28T11:40:57Z</time></trkpt><trkpt lat="38.185672834249445" lon="15.47763370694073"><ele>848.0</ele><time>2026-04-28T11:40:58Z</time></trkpt><trkpt lat="38.185507622136406" lon="15.477568454125993"><ele>848.0</ele><time>2026-04-28T11:40:59Z</time></trkpt><trkpt lat="38.18534287120993" lon="15.477495160523711"><ele>848.0</ele><time>2026-04-28T11:41:00Z</time></trkpt><trkpt lat="38.18515888061728" lon="15.477416511758722"><ele>848.0</ele><time>2026-04-28T11:41:01Z</time></trkpt><trkpt lat="38.18497427446725" lon="15.47734380518311"><ele>848.0</ele><time>2026-04-28T11:41:02Z</time></trkpt><trkpt lat="38.18478917306079" lon="15.477273942161712"><ele>848.0</ele><time>2026-04-28T11:41:03Z</time></trkpt><trkpt lat="38.1846138787558" lon="15.477204745024325"><ele>845.3333333333334</ele><time>2026-04-28T11:41:04Z</time></trkpt><trkpt lat="38.184453900168826" lon="15.477134705101195"><ele>842.6666666666667</ele><time>2026-04-28T11:41:05Z</time></trkpt><trkpt lat="38.184304567958264" lon="15.477077531076644"><ele>840.0</ele><time>2026-04-28T11:41:06Z</time></trkpt><trkpt lat="38.184153971701235" lon="15.477052381323372"><ele>837.0</ele><time>2026-04-28T11:41:07Z</time></trkpt><trkpt lat="38.18398796824432" lon="15.477078176579516"><ele>834.0</ele><time>2026-04-28T11:41:08Z</time></trkpt><trkpt lat="38.18382591276918" lon="15.477145134433185"><ele>831.0</ele><time>2026-04-28T11:41:09Z</time></trkpt><trkpt lat="38.183693855457186" lon="15.477220972501947"><ele>831.0</ele><time>2026-04-28T11:41:10Z</time></trkpt><trkpt lat="38.18361451870767" lon="15.47725907280198"><ele>831.0</ele><time>2026-04-28T11:41:11Z</time></trkpt><trkpt lat="38.18351317627048" lon="15.47724765371903"><ele>831.0</ele><time>2026-04-28T11:41:12Z</time></trkpt><trkpt lat="38.183430084310324" lon="15.477187280325863"><ele>831.0</ele><time>2026-04-28T11:41:13Z</time></trkpt><trkpt lat="38.183361859883156" lon="15.477081801968808"><ele>831.0</ele><time>2026-04-28T11:41:14Z</time></trkpt><trkpt lat="38.18329856305538" lon="15.476930862232956"><ele>833.5</ele><time>2026-04-28T11:41:15Z</time></trkpt><trkpt lat="38.18323275430786" lon="15.476754014187774"><ele>836.0</ele><time>2026-04-28T11:41:16Z</time></trkpt><trkpt lat="38.183159278363306" lon="15.476586721530856"><ele>838.5</ele><time>2026-04-28T11:41:17Z</time></trkpt><trkpt lat="38.183048924681565" lon="15.476474970796364"><ele>841.0</ele><time>2026-04-28T11:41:18Z</time></trkpt><trkpt lat="38.18291492479428" lon="15.4764030040808"><ele>841.0</ele><time>2026-04-28T11:41:19Z</time></trkpt><trkpt lat="38.18276108162339" lon="15.476357753603363"><ele>841.0</ele><time>2026-04-28T11:41:20Z</time></trkpt><trkpt lat="38.18260769485956" lon="15.476305121201161"><ele>841.0</ele><time>2026-04-28T11:41:21Z</time></trkpt><trkpt lat="38.18244148489355" lon="15.476248543351785"><ele>842.6666666666666</ele><time>2026-04-28T11:41:22Z</time></trkpt><trkpt lat="38.182255764119006" lon="15.476174769630132"><ele>844.3333333333333</ele><time>2026-04-28T11:41:23Z</time></trkpt><trkpt lat="38.18207486389186" lon="15.476079601398677"><ele>846.0</ele><time>2026-04-28T11:41:24Z</time></trkpt><trkpt lat="38.181889899109116" lon="15.475973050871007"><ele>846.0</ele><time>2026-04-28T11:41:25Z</time></trkpt><trkpt lat="38.18170742926284" lon="15.475842408842684"><ele>846.0</ele><time>2026-04-28T11:41:26Z</time></trkpt><trkpt lat="38.18155297377703" lon="15.475702781770655"><ele>846.0</ele><time>2026-04-28T11:41:27Z</time></trkpt><trkpt lat="38.18140389473869" lon="15.475581420049304"><ele>846.25</ele><time>2026-04-28T11:41:28Z</time></trkpt><trkpt lat="38.18126680226259" lon="15.475480604176193"><ele>846.5</ele><time>2026-04-28T11:41:29Z</time></trkpt><trkpt lat="38.18113688366664" lon="15.475405574009883"><ele>846.75</ele><time>2026-04-28T11:41:30Z</time></trkpt><trkpt lat="38.181006454074065" lon="15.475363585990914"><ele>847.0</ele><time>2026-04-28T11:41:31Z</time></trkpt><trkpt lat="38.18085920701499" lon="15.47537665061125"><ele>848.0</ele><time>2026-04-28T11:41:32Z</time></trkpt><trkpt lat="38.18068086454206" lon="15.475438258472753"><ele>849.0</ele><time>2026-04-28T11:41:33Z</time></trkpt><trkpt lat="38.18048065723752" lon="15.47549869141316"><ele>850.0</ele><time>2026-04-28T11:41:34Z</time></trkpt><trkpt lat="38.18028902746758" lon="15.475527441235785"><ele>850.0</ele><time>2026-04-28T11:41:35Z</time></trkpt><trkpt lat="38.180095994888376" lon="15.475563148980646"><ele>850.0</ele><time>2026-04-28T11:41:36Z</time></trkpt><trkpt lat="38.17990314140859" lon="15.475597813805761"><ele>850.0</ele><time>2026-04-28T11:41:37Z</time></trkpt><trkpt lat="38.17971669673036" lon="15.475632513821296"><ele>850.0</ele><time>2026-04-28T11:41:38Z</time></trkpt><trkpt lat="38.17953962303953" lon="15.475659057084322"><ele>850.0</ele><time>2026-04-28T11:41:39Z</time></trkpt><trkpt lat="38.179367143820635" lon="15.475688351190438"><ele>850.0</ele><time>2026-04-28T11:41:40Z</time></trkpt><trkpt lat="38.17919033916799" lon="15.475707046438329"><ele>851.6666666666666</ele><time>2026-04-28T11:41:41Z</time></trkpt><trkpt lat="38.179015811577514" lon="15.475737092922897"><ele>853.3333333333333</ele><time>2026-04-28T11:41:42Z</time></trkpt><trkpt lat="38.17884192234221" lon="15.475768283186673"><ele>855.0</ele><time>2026-04-28T11:41:43Z</time></trkpt><trkpt lat="38.17866633391956" lon="15.475798799043913"><ele>855.0</ele><time>2026-04-28T11:41:44Z</time></trkpt><trkpt lat="38.17848591797919" lon="15.47583730849173"><ele>855.0</ele><time>2026-04-28T11:41:45Z</time></trkpt><trkpt lat="38.178307979256" lon="15.47586813887104"><ele>855.0</ele><time>2026-04-28T11:41:46Z</time></trkpt><trkpt lat="38.178135204749914" lon="15.475883087488635"><ele>855.0</ele><time>2026-04-28T11:41:47Z</time></trkpt><trkpt lat="38.17798459178608" lon="15.47587412266027"><ele>855.0</ele><time>2026-04-28T11:41:48Z</time></trkpt><trkpt lat="38.177853329639966" lon="15.475830951736596"><ele>855.0</ele><time>2026-04-28T11:41:49Z</time></trkpt><trkpt lat="38.17772522019944" lon="15.475741770012116"><ele>855.0</ele><time>2026-04-28T11:41:50Z</time></trkpt><trkpt lat="38.177601562973955" lon="15.475597057436884"><ele>855.0</ele><time>2026-04-28T11:41:51Z</time></trkpt><trkpt lat="38.17747992323688" lon="15.475439698718072"><ele>855.0</ele><time>2026-04-28T11:41:52Z</time></trkpt><trkpt lat="38.1773532245956" lon="15.47530308810447"><ele>855.0</ele><time>2026-04-28T11:41:53Z</time></trkpt><trkpt lat="38.177230083225965" lon="15.475166129770574"><ele>861.25</ele><time>2026-04-28T11:41:54Z</time></trkpt><trkpt lat="38.177106837535696" lon="15.47503028522416"><ele>867.5</ele><time>2026-04-28T11:41:55Z</time></trkpt><trkpt lat="38.17699777697179" lon="15.474911909801902"><ele>873.75</ele><time>2026-04-28T11:41:56Z</time></trkpt><trkpt lat="38.17689041936896" lon="15.474812215836984"><ele>880.0</ele><time>2026-04-28T11:41:57Z</time></trkpt><trkpt lat="38.17677046832356" lon="15.47474927127865"><ele>880.0</ele><time>2026-04-28T11:41:58Z</time></trkpt><trkpt lat="38.17664454879111" lon="15.474742259754475"><ele>880.0</ele><time>2026-04-28T11:41:59Z</time></trkpt><trkpt lat="38.176513663921476" lon="15.474787290486079"><ele>880.0</ele><time>2026-04-28T11:42:00Z</time></trkpt><trkpt lat="38.17637856078425" lon="15.474870166790192"><ele>880.0</ele><time>2026-04-28T11:42:01Z</time></trkpt><trkpt lat="38.17625074120243" lon="15.474977212031016"><ele>882.2</ele><time>2026-04-28T11:42:02Z</time></trkpt><trkpt lat="38.17613887716715" lon="15.47507475856386"><ele>884.4</ele><time>2026-04-28T11:42:03Z</time></trkpt><trkpt lat="38.176044699211644" lon="15.475154608258338"><ele>886.5999999999999</ele><time>2026-04-28T11:42:04Z</time></trkpt><trkpt lat="38.17595582724708" lon="15.475191758594455"><ele>888.8</ele><time>2026-04-28T11:42:05Z</time></trkpt><trkpt lat="38.1758536332443" lon="15.475181855408207"><ele>891.0</ele><time>2026-04-28T11:42:06Z</time></trkpt><trkpt lat="38.17573630577083" lon="15.475110986628147"><ele>883.6666666666667</ele><time>2026-04-28T11:42:07Z</time></trkpt><trkpt lat="38.17563466468661" lon="15.474991797623362"><ele>876.3333333333334</ele><time>2026-04-28T11:42:08Z</time></trkpt><trkpt lat="38.17555613316242" lon="15.474818265962684"><ele>869.0</ele><time>2026-04-28T11:42:09Z</time></trkpt><trkpt lat="38.17547758477715" lon="15.474628734620735"><ele>876.3333333333334</ele><time>2026-04-28T11:42:10Z</time></trkpt><trkpt lat="38.17538735390315" lon="15.474451159123323"><ele>883.6666666666667</ele><time>2026-04-28T11:42:11Z</time></trkpt><trkpt lat="38.1752621626982" lon="15.474301207319252"><ele>891.0</ele><time>2026-04-28T11:42:12Z</time></trkpt><trkpt lat="38.17512328664317" lon="15.47416241971594"><ele>891.0</ele><time>2026-04-28T11:42:13Z</time></trkpt><trkpt lat="38.17499014934643" lon="15.474045642018945"><ele>891.0</ele><time>2026-04-28T11:42:14Z</time></trkpt><trkpt lat="38.174873537465395" lon="15.47389888520907"><ele>891.0</ele><time>2026-04-28T11:42:15Z</time></trkpt><trkpt lat="38.174756906448934" lon="15.473727028260557"><ele>888.6666666666667</ele><time>2026-04-28T11:42:16Z</time></trkpt><trkpt lat="38.174650978043516" lon="15.473557047555614"><ele>886.3333333333334</ele><time>2026-04-28T11:42:17Z</time></trkpt><trkpt lat="38.17455266174022" lon="15.473379071754946"><ele>884.0</ele><time>2026-04-28T11:42:18Z</time></trkpt><trkpt lat="38.17445676996622" lon="15.473203924474047"><ele>884.0</ele><time>2026-04-28T11:42:19Z</time></trkpt><trkpt lat="38.174355414718846" lon="15.47302131414463"><ele>884.0</ele><time>2026-04-28T11:42:20Z</time></trkpt><trkpt lat="38.17424375182576" lon="15.47283620493018"><ele>884.0</ele><time>2026-04-28T11:42:21Z</time></trkpt><trkpt lat="38.174112483016096" lon="15.472652070420693"><ele>884.6666666666667</ele><time>2026-04-28T11:42:22Z</time></trkpt><trkpt lat="38.1739764082176" lon="15.472458674207383"><ele>885.3333333333333</ele><time>2026-04-28T11:42:23Z</time></trkpt><trkpt lat="38.17383773118525" lon="15.472259854657878"><ele>886.0</ele><time>2026-04-28T11:42:24Z</time></trkpt><trkpt lat="38.173696860105004" lon="15.47205796834262"><ele>891.3333333333333</ele><time>2026-04-28T11:42:25Z</time></trkpt><trkpt lat="38.17355915346674" lon="15.471853194516994"><ele>896.6666666666667</ele><time>2026-04-28T11:42:26Z</time></trkpt><trkpt lat="38.17343417264944" lon="15.471668703731739"><ele>902.0</ele><time>2026-04-28T11:42:27Z</time></trkpt><trkpt lat="38.17332006533149" lon="15.471500524825778"><ele>902.0</ele><time>2026-04-28T11:42:28Z</time></trkpt><trkpt lat="38.1732213548901" lon="15.471340564910525"><ele>902.0</ele><time>2026-04-28T11:42:29Z</time></trkpt><trkpt lat="38.17312488964707" lon="15.471167913009312"><ele>902.0</ele><time>2026-04-28T11:42:30Z</time></trkpt><trkpt lat="38.173012898901746" lon="15.470971593898343"><ele>903.0</ele><time>2026-04-28T11:42:31Z</time></trkpt><trkpt lat="38.17292062246406" lon="15.470755155520317"><ele>904.0</ele><time>2026-04-28T11:42:32Z</time></trkpt><trkpt lat="38.17282595271846" lon="15.470531439534746"><ele>905.0</ele><time>2026-04-28T11:42:33Z</time></trkpt><trkpt lat="38.172728530235986" lon="15.470306936672113"><ele>905.0</ele><time>2026-04-28T11:42:34Z</time></trkpt><trkpt lat="38.17261527566981" lon="15.470091444731919"><ele>905.0</ele><time>2026-04-28T11:42:35Z</time></trkpt><trkpt lat="38.172493093986624" lon="15.469896247693127"><ele>905.0</ele><time>2026-04-28T11:42:36Z</time></trkpt><trkpt lat="38.172353780321195" lon="15.469714065438767"><ele>898.6666666666667</ele><time>2026-04-28T11:42:37Z</time></trkpt><trkpt lat="38.17220363268744" lon="15.469550046292735"><ele>892.3333333333333</ele><time>2026-04-28T11:42:38Z</time></trkpt><trkpt lat="38.17207866418771" lon="15.469391495568889"><ele>886.0</ele><time>2026-04-28T11:42:39Z</time></trkpt><trkpt lat="38.17197738787078" lon="15.46924674582728"><ele>886.0</ele><time>2026-04-28T11:42:40Z</time></trkpt><trkpt lat="38.17191393976285" lon="15.469103549494555"><ele>886.0</ele><time>2026-04-28T11:42:41Z</time></trkpt><trkpt lat="38.17189436450559" lon="15.46893492742495"><ele>886.0</ele><time>2026-04-28T11:42:42Z</time></trkpt><trkpt lat="38.1719004275251" lon="15.468737092572583"><ele>886.0</ele><time>2026-04-28T11:42:43Z</time></trkpt><trkpt lat="38.171898196043045" lon="15.468531355239008"><ele>892.6666666666666</ele><time>2026-04-28T11:42:44Z</time></trkpt><trkpt lat="38.171877876710006" lon="15.468343341293652"><ele>899.3333333333333</ele><time>2026-04-28T11:42:45Z</time></trkpt><trkpt lat="38.17181596137148" lon="15.468169032919285"><ele>906.0</ele><time>2026-04-28T11:42:46Z</time></trkpt><trkpt lat="38.171703139276666" lon="15.468002631391546"><ele>903.3333333333333</ele><time>2026-04-28T11:42:47Z</time></trkpt><trkpt lat="38.17155370370524" lon="15.467850261811657"><ele>900.6666666666666</ele><time>2026-04-28T11:42:48Z</time></trkpt><trkpt lat="38.17141710939557" lon="15.467680651229294"><ele>898.0</ele><time>2026-04-28T11:42:49Z</time></trkpt><trkpt lat="38.171312045604815" lon="15.46747149827148"><ele>898.0</ele><time>2026-04-28T11:42:50Z</time></trkpt><trkpt lat="38.17119083686611" lon="15.467275736573027"><ele>898.0</ele><time>2026-04-28T11:42:51Z</time></trkpt><trkpt lat="38.171053786027514" lon="15.467104284655347"><ele>898.0</ele><time>2026-04-28T11:42:52Z</time></trkpt><trkpt lat="38.17092918196489" lon="15.466958067360489"><ele>901.3333333333333</ele><time>2026-04-28T11:42:53Z</time></trkpt><trkpt lat="38.17078324501358" lon="15.466880918327558"><ele>904.6666666666667</ele><time>2026-04-28T11:42:54Z</time></trkpt><trkpt lat="38.170664396200834" lon="15.466797511694418"><ele>908.0</ele><time>2026-04-28T11:42:55Z</time></trkpt><trkpt lat="38.170485658780684" lon="15.466721732985706"><ele>908.0</ele><time>2026-04-28T11:42:56Z</time></trkpt><trkpt lat="38.170313761404834" lon="15.466662639990028"><ele>908.0</ele><time>2026-04-28T11:42:57Z</time></trkpt><trkpt lat="38.17012629828445" lon="15.466599627482344"><ele>908.0</ele><time>2026-04-28T11:42:58Z</time></trkpt><trkpt lat="38.16995042571518" lon="15.466536759884098"><ele>910.3333333333334</ele><time>2026-04-28T11:42:59Z</time></trkpt><trkpt lat="38.16981424601334" lon="15.466452899054994"><ele>912.6666666666667</ele><time>2026-04-28T11:43:00Z</time></trkpt><trkpt lat="38.16970377804768" lon="15.466332106120094"><ele>915.0</ele><time>2026-04-28T11:43:01Z</time></trkpt><trkpt lat="38.169588000220905" lon="15.46618351243976"><ele>915.0</ele><time>2026-04-28T11:43:02Z</time></trkpt><trkpt lat="38.16945120735385" lon="15.466045332131676"><ele>915.0</ele><time>2026-04-28T11:43:03Z</time></trkpt><trkpt lat="38.169336526624306" lon="15.465867678067076"><ele>915.0</ele><time>2026-04-28T11:43:04Z</time></trkpt><trkpt lat="38.16923258213697" lon="15.465683181489682"><ele>915.0</ele><time>2026-04-28T11:43:05Z</time></trkpt><trkpt lat="38.16913301973033" lon="15.465479824631084"><ele>915.0</ele><time>2026-04-28T11:43:06Z</time></trkpt><trkpt lat="38.16903850964386" lon="15.465267989745767"><ele>915.0</ele><time>2026-04-28T11:43:07Z</time></trkpt><trkpt lat="38.16893447570773" lon="15.465080551814053"><ele>914.0</ele><time>2026-04-28T11:43:08Z</time></trkpt><trkpt lat="38.16885171922303" lon="15.464913752239582"><ele>913.0</ele><time>2026-04-28T11:43:09Z</time></trkpt><trkpt lat="38.16875360471278" lon="15.464789869480525"><ele>912.0</ele><time>2026-04-28T11:43:10Z</time></trkpt><trkpt lat="38.16865613805218" lon="15.464692443875615"><ele>911.0</ele><time>2026-04-28T11:43:11Z</time></trkpt><trkpt lat="38.168521081220476" lon="15.464611678002655"><ele>911.0</ele><time>2026-04-28T11:43:12Z</time></trkpt><trkpt lat="38.16835638972476" lon="15.464534964109248"><ele>911.0</ele><time>2026-04-28T11:43:13Z</time></trkpt><trkpt lat="38.16821013032467" lon="15.46448179332921"><ele>911.0</ele><time>2026-04-28T11:43:14Z</time></trkpt><trkpt lat="38.16808793333613" lon="15.46444728972749"><ele>912.4</ele><time>2026-04-28T11:43:15Z</time></trkpt><trkpt lat="38.16798306220555" lon="15.464429249285784"><ele>913.8</ele><time>2026-04-28T11:43:16Z</time></trkpt><trkpt lat="38.16791331827944" lon="15.464418093044843"><ele>915.1999999999999</ele><time>2026-04-28T11:43:17Z</time></trkpt><trkpt lat="38.16783053089525" lon="15.464455396428871"><ele>916.5999999999999</ele><time>2026-04-28T11:43:19Z</time></trkpt><trkpt lat="38.16785103573424" lon="15.46456731144834"><ele>918.0</ele><time>2026-04-28T11:43:20Z</time></trkpt><trkpt lat="38.16794177604215" lon="15.464617611032608"><ele>920.3333333333334</ele><time>2026-04-28T11:43:21Z</time></trkpt><trkpt lat="38.16805449147777" lon="15.464654261769951"><ele>922.6666666666667</ele><time>2026-04-28T11:43:22Z</time></trkpt><trkpt lat="38.168134791755975" lon="15.464721373549025"><ele>925.0</ele><time>2026-04-28T11:43:23Z</time></trkpt><trkpt lat="38.16815529301729" lon="15.464816127597377"><ele>927.3333333333334</ele><time>2026-04-28T11:43:24Z</time></trkpt><trkpt lat="38.1681017445421" lon="15.464878726368543"><ele>929.6666666666667</ele><time>2026-04-28T11:43:25Z</time></trkpt><trkpt lat="38.16803546189005" lon="15.464889680135366"><ele>932.0</ele><time>2026-04-28T11:43:26Z</time></trkpt><trkpt lat="38.16794482627536" lon="15.464856691106357"><ele>932.0</ele><time>2026-04-28T11:43:27Z</time></trkpt><trkpt lat="38.16782432520537" lon="15.464837050495971"><ele>932.0</ele><time>2026-04-28T11:43:28Z</time></trkpt><trkpt lat="38.16768956409456" lon="15.464845798223369"><ele>932.0</ele><time>2026-04-28T11:43:29Z</time></trkpt><trkpt lat="38.167523300053944" lon="15.46484855905048"><ele>932.0</ele><time>2026-04-28T11:43:30Z</time></trkpt><trkpt lat="38.167355793932856" lon="15.464826506608025"><ele>935.25</ele><time>2026-04-28T11:43:31Z</time></trkpt><trkpt lat="38.16720672071521" lon="15.4648266919318"><ele>938.5</ele><time>2026-04-28T11:43:32Z</time></trkpt><trkpt lat="38.167077258272805" lon="15.464828255210254"><ele>941.75</ele><time>2026-04-28T11:43:33Z</time></trkpt><trkpt lat="38.16696679441109" lon="15.46482697254297"><ele>945.0</ele><time>2026-04-28T11:43:34Z</time></trkpt><trkpt lat="38.16687581647786" lon="15.464820139285923"><ele>945.0</ele><time>2026-04-28T11:43:35Z</time></trkpt><trkpt lat="38.16680007159037" lon="15.4648101232068"><ele>945.0</ele><time>2026-04-28T11:43:36Z</time></trkpt><trkpt lat="38.166722619931356" lon="15.464795096595655"><ele>945.0</ele><time>2026-04-28T11:43:37Z</time></trkpt><trkpt lat="38.16664314036632" lon="15.464738988304976"><ele>945.0</ele><time>2026-04-28T11:43:38Z</time></trkpt><trkpt lat="38.16656251525744" lon="15.464654714181727"><ele>945.0</ele><time>2026-04-28T11:43:39Z</time></trkpt><trkpt lat="38.1664947773704" lon="15.4645308034233"><ele>951.75</ele><time>2026-04-28T11:43:40Z</time></trkpt><trkpt lat="38.166406094412174" lon="15.464421041284954"><ele>958.5</ele><time>2026-04-28T11:43:41Z</time></trkpt><trkpt lat="38.16632060341552" lon="15.46429210873081"><ele>965.25</ele><time>2026-04-28T11:43:42Z</time></trkpt><trkpt lat="38.16623797972738" lon="15.464179021384759"><ele>972.0</ele><time>2026-04-28T11:43:43Z</time></trkpt><trkpt lat="38.16617168485209" lon="15.464083839315782"><ele>972.0</ele><time>2026-04-28T11:43:44Z</time></trkpt><trkpt lat="38.166110750337054" lon="15.464005810643663"><ele>972.0</ele><time>2026-04-28T11:43:45Z</time></trkpt><trkpt lat="38.16601824243135" lon="15.463965446004472"><ele>972.0</ele><time>2026-04-28T11:43:46Z</time></trkpt><trkpt lat="38.165906634971016" lon="15.46396435825135"><ele>972.0</ele><time>2026-04-28T11:43:47Z</time></trkpt><trkpt lat="38.1657746604221" lon="15.464009293470841"><ele>972.0</ele><time>2026-04-28T11:43:48Z</time></trkpt><trkpt lat="38.16562999372937" lon="15.464038041584804"><ele>976.6666666666667</ele><time>2026-04-28T11:43:49Z</time></trkpt><trkpt lat="38.16547733739344" lon="15.464068967996193"><ele>981.3333333333334</ele><time>2026-04-28T11:43:50Z</time></trkpt><trkpt lat="38.165323692953336" lon="15.464074097559893"><ele>986.0</ele><time>2026-04-28T11:43:51Z</time></trkpt><trkpt lat="38.16515754037973" lon="15.464066067662644"><ele>986.0</ele><time>2026-04-28T11:43:52Z</time></trkpt><trkpt lat="38.16499711422422" lon="15.464048741446208"><ele>986.0</ele><time>2026-04-28T11:43:53Z</time></trkpt><trkpt lat="38.16488043382316" lon="15.46402486679423"><ele>986.0</ele><time>2026-04-28T11:43:54Z</time></trkpt><trkpt lat="38.16477571869183" lon="15.46398322954405"><ele>986.0</ele><time>2026-04-28T11:43:55Z</time></trkpt><trkpt lat="38.1646942015961" lon="15.46389761820936"><ele>987.0</ele><time>2026-04-28T11:43:56Z</time></trkpt><trkpt lat="38.16461705418102" lon="15.463780199866795"><ele>988.0</ele><time>2026-04-28T11:43:57Z</time></trkpt><trkpt lat="38.16455174215644" lon="15.463641084011414"><ele>989.0</ele><time>2026-04-28T11:43:58Z</time></trkpt><trkpt lat="38.1644850682919" lon="15.463516060107949"><ele>990.0</ele><time>2026-04-28T11:43:59Z</time></trkpt><trkpt lat="38.16440570003028" lon="15.463401754687107"><ele>990.0</ele><time>2026-04-28T11:44:00Z</time></trkpt><trkpt lat="38.164289243111284" lon="15.46330857157628"><ele>990.0</ele><time>2026-04-28T11:44:01Z</time></trkpt><trkpt lat="38.16415933854563" lon="15.463257765080098"><ele>990.0</ele><time>2026-04-28T11:44:02Z</time></trkpt><trkpt lat="38.16403459279546" lon="15.463273874477574"><ele>990.0</ele><time>2026-04-28T11:44:03Z</time></trkpt><trkpt lat="38.16389381472222" lon="15.463298654338013"><ele>989.5</ele><time>2026-04-28T11:44:04Z</time></trkpt><trkpt lat="38.163740384720704" lon="15.46332317478416"><ele>989.0</ele><time>2026-04-28T11:44:05Z</time></trkpt><trkpt lat="38.163598774853874" lon="15.463319737376263"><ele>988.5</ele><time>2026-04-28T11:44:06Z</time></trkpt><trkpt lat="38.163475042513106" lon="15.46333262712213"><ele>988.0</ele><time>2026-04-28T11:44:07Z</time></trkpt><trkpt lat="38.16336687699125" lon="15.4633807346792"><ele>988.0</ele><time>2026-04-28T11:44:08Z</time></trkpt><trkpt lat="38.16326254977317" lon="15.463473469819402"><ele>988.0</ele><time>2026-04-28T11:44:09Z</time></trkpt><trkpt lat="38.163163489582956" lon="15.46360361788881"><ele>988.0</ele><time>2026-04-28T11:44:10Z</time></trkpt><trkpt lat="38.163039212444495" lon="15.463686630351223"><ele>988.0</ele><time>2026-04-28T11:44:11Z</time></trkpt><trkpt lat="38.16293422932153" lon="15.463767829034591"><ele>992.3333333333333</ele><time>2026-04-28T11:44:12Z</time></trkpt><trkpt lat="38.16288122202012" lon="15.463847201024535"><ele>996.6666666666666</ele><time>2026-04-28T11:44:13Z</time></trkpt><trkpt lat="38.16284223004927" lon="15.463957651473269"><ele>1001.0</ele><time>2026-04-28T11:44:15Z</time></trkpt><trkpt lat="38.162884337168286" lon="15.464023025580168"><ele>1005.3333333333333</ele><time>2026-04-28T11:44:16Z</time></trkpt><trkpt lat="38.162961560644845" lon="15.464059123024061"><ele>1009.6666666666666</ele><time>2026-04-28T11:44:17Z</time></trkpt><trkpt lat="38.16307332142577" lon="15.463994138749417"><ele>1014.0</ele><time>2026-04-28T11:44:18Z</time></trkpt><trkpt lat="38.16318372113065" lon="15.463924956502954"><ele>1014.1666666666666</ele><time>2026-04-28T11:44:19Z</time></trkpt><trkpt lat="38.16329280508499" lon="15.46383647231392"><ele>1014.3333333333333</ele><time>2026-04-28T11:44:20Z</time></trkpt><trkpt lat="38.16337712669351" lon="15.463799760277729"><ele>1014.5</ele><time>2026-04-28T11:44:21Z</time></trkpt><trkpt lat="38.16344716172541" lon="15.46380707130098"><ele>1014.6666666666666</ele><time>2026-04-28T11:44:22Z</time></trkpt><trkpt lat="38.163496402598994" lon="15.463876073560712"><ele>1014.8333333333333</ele><time>2026-04-28T11:44:23Z</time></trkpt><trkpt lat="38.16350363342237" lon="15.463978988828977"><ele>1015.0</ele><time>2026-04-28T11:44:24Z</time></trkpt><trkpt lat="38.16343487460849" lon="15.464075260563321"><ele>1015.0</ele><time>2026-04-28T11:44:25Z</time></trkpt><trkpt lat="38.16334964433634" lon="15.464149449736688"><ele>1015.0</ele><time>2026-04-28T11:44:26Z</time></trkpt><trkpt lat="38.16325813443501" lon="15.46423799089856"><ele>1015.0</ele><time>2026-04-28T11:44:27Z</time></trkpt><trkpt lat="38.16315091244949" lon="15.46435320047674"><ele>1015.0</ele><time>2026-04-28T11:44:28Z</time></trkpt><trkpt lat="38.163051260137735" lon="15.464451524754072"><ele>1014.8</ele><time>2026-04-28T11:44:29Z</time></trkpt><trkpt lat="38.16295078041348" lon="15.464556032276946"><ele>1014.6</ele><time>2026-04-28T11:44:30Z</time></trkpt><trkpt lat="38.16285232979001" lon="15.464610895897529"><ele>1014.4000000000001</ele><time>2026-04-28T11:44:31Z</time></trkpt><trkpt lat="38.1627671600731" lon="15.464657954013337"><ele>1014.2</ele><time>2026-04-28T11:44:32Z</time></trkpt><trkpt lat="38.16267232495449" lon="15.464698267317196"><ele>1014.0</ele><time>2026-04-28T11:44:33Z</time></trkpt><trkpt lat="38.16256072301744" lon="15.464714402160856"><ele>1018.5</ele><time>2026-04-28T11:44:34Z</time></trkpt><trkpt lat="38.16243163987577" lon="15.464672721012898"><ele>1023.0</ele><time>2026-04-28T11:44:35Z</time></trkpt><trkpt lat="38.16230376093507" lon="15.46460396674741"><ele>1027.5</ele><time>2026-04-28T11:44:36Z</time></trkpt><trkpt lat="38.16218380718454" lon="15.464508927058244"><ele>1032.0</ele><time>2026-04-28T11:44:37Z</time></trkpt><trkpt lat="38.16207070468913" lon="15.46440623795727"><ele>1033.0</ele><time>2026-04-28T11:44:38Z</time></trkpt><trkpt lat="38.16194056871279" lon="15.464330108190966"><ele>1034.0</ele><time>2026-04-28T11:44:39Z</time></trkpt><trkpt lat="38.161800108491775" lon="15.464282015112794"><ele>1035.0</ele><time>2026-04-28T11:44:40Z</time></trkpt><trkpt lat="38.16164928285597" lon="15.464252858710944"><ele>1036.0</ele><time>2026-04-28T11:44:41Z</time></trkpt><trkpt lat="38.161503421374405" lon="15.464225115607642"><ele>1042.8</ele><time>2026-04-28T11:44:42Z</time></trkpt><trkpt lat="38.161386722469146" lon="15.464186342504528"><ele>1049.6</ele><time>2026-04-28T11:44:43Z</time></trkpt><trkpt lat="38.161298202535534" lon="15.464136253708288"><ele>1056.4</ele><time>2026-04-28T11:44:44Z</time></trkpt><trkpt lat="38.1612276763481" lon="15.464097421397348"><ele>1063.2</ele><time>2026-04-28T11:44:45Z</time></trkpt><trkpt lat="38.16113581253869" lon="15.464146096938144"><ele>1070.0</ele><time>2026-04-28T11:44:47Z</time></trkpt><trkpt lat="38.16112003807034" lon="15.464257363453754"><ele>1070.0</ele><time>2026-04-28T11:44:48Z</time></trkpt><trkpt lat="38.161216718742445" lon="15.464375546984932"><ele>1070.0</ele><time>2026-04-28T11:44:49Z</time></trkpt><trkpt lat="38.16130695187469" lon="15.464488099891192"><ele>1070.0</ele><time>2026-04-28T11:44:50Z</time></trkpt><trkpt lat="38.161394486641875" lon="15.464614532961292"><ele>1070.0</ele><time>2026-04-28T11:44:51Z</time></trkpt><trkpt lat="38.16145992663232" lon="15.464721038279952"><ele>1070.8333333333335</ele><time>2026-04-28T11:44:52Z</time></trkpt><trkpt lat="38.1614962636292" lon="15.46479743856036"><ele>1071.6666666666667</ele><time>2026-04-28T11:44:53Z</time></trkpt><trkpt lat="38.16152844148422" lon="15.464876441688386"><ele>1072.5</ele><time>2026-04-28T11:44:54Z</time></trkpt><trkpt lat="38.16154492836871" lon="15.464961003027204"><ele>1073.3333333333333</ele><time>2026-04-28T11:44:55Z</time></trkpt><trkpt lat="38.161501942884406" lon="15.46504376745641"><ele>1074.1666666666665</ele><time>2026-04-28T11:44:57Z</time></trkpt><trkpt lat="38.1614268598705" lon="15.464972211833203"><ele>1075.0</ele><time>2026-04-28T11:44:59Z</time></trkpt><trkpt lat="38.161373788063294" lon="15.464889795790594"><ele>1075.0</ele><time>2026-04-28T11:45:00Z</time></trkpt><trkpt lat="38.16133397792563" lon="15.464796019066126"><ele>1075.0</ele><time>2026-04-28T11:45:09Z</time></trkpt><trkpt lat="38.16127382634629" lon="15.464717044176524"><ele>1075.0</ele><time>2026-04-28T11:45:10Z</time></trkpt><trkpt lat="38.16119532965495" lon="15.464625679260784"><ele>1075.0</ele><time>2026-04-28T11:45:11Z</time></trkpt><trkpt lat="38.161138747002134" lon="15.464561643650917"><ele>1075.0</ele><time>2026-04-28T11:45:12Z</time></trkpt><trkpt lat="38.16108697677213" lon="15.464510795539745"><ele>1075.0</ele><time>2026-04-28T11:45:13Z</time></trkpt><trkpt lat="38.16100766901334" lon="15.464434387215668"><ele>1074.0</ele><time>2026-04-28T11:45:14Z</time></trkpt><trkpt lat="38.160927353648255" lon="15.464344976655072"><ele>1073.0</ele><time>2026-04-28T11:45:15Z</time></trkpt><trkpt lat="38.160862249580155" lon="15.464268328389366"><ele>1072.0</ele><time>2026-04-28T11:45:16Z</time></trkpt><trkpt lat="38.1608042460463" lon="15.46418786271951"><ele>1071.0</ele><time>2026-04-28T11:45:18Z</time></trkpt><trkpt lat="38.16084687330507" lon="15.464304547640813"><ele>1070.0</ele><time>2026-04-28T11:45:30Z</time></trkpt><trkpt lat="38.160949937907255" lon="15.464397113505507"><ele>1070.0</ele><time>2026-04-28T11:45:31Z</time></trkpt><trkpt lat="38.1610664361612" lon="15.464544048326035"><ele>1070.0</ele><time>2026-04-28T11:45:32Z</time></trkpt><trkpt lat="38.161180703055706" lon="15.464665733716279"><ele>1070.0</ele><time>2026-04-28T11:45:33Z</time></trkpt><trkpt lat="38.161262371406394" lon="15.464761310982198"><ele>1070.0</ele><time>2026-04-28T11:45:34Z</time></trkpt><trkpt lat="38.16132922017908" lon="15.464848439836725"><ele>1070.8333333333335</ele><time>2026-04-28T11:45:35Z</time></trkpt><trkpt lat="38.16136494416637" lon="15.464942629143048"><ele>1071.6666666666667</ele><time>2026-04-28T11:45:36Z</time></trkpt><trkpt lat="38.161410033307305" lon="15.465009481230357"><ele>1072.5</ele><time>2026-04-28T11:45:37Z</time></trkpt><trkpt lat="38.16146875532467" lon="15.465091506085349"><ele>1073.3333333333333</ele><time>2026-04-28T11:45:39Z</time></trkpt><trkpt lat="38.161389306957204" lon="15.465114433702428"><ele>1074.1666666666665</ele><time>2026-04-28T11:45:42Z</time></trkpt><trkpt lat="38.16135140622352" lon="15.465187067597025"><ele>1075.0</ele><time>2026-04-28T11:46:27Z</time></trkpt><trkpt lat="38.1612952048027" lon="15.465146228966523"><ele>1075.0</ele><time>2026-04-28T11:48:09Z</time></trkpt><trkpt lat="38.161359882981486" lon="15.465157317835724"><ele>1075.0</ele><time>2026-04-28T11:48:38Z</time></trkpt><trkpt lat="38.16129111470757" lon="15.465172247443698"><ele>1075.0</ele><time>2026-04-28T12:00:17Z</time></trkpt><trkpt lat="38.16136552214961" lon="15.465172563765188"><ele>1075.0</ele><time>2026-04-28T12:01:07.001Z</time></trkpt><trkpt lat="38.161250289381776" lon="15.465193228920036"><ele>1075.0</ele><time>2026-04-28T12:03:29.001Z</time></trkpt><trkpt lat="38.16115547377703" lon="15.465270584686431"><ele>1075.0</ele><time>2026-04-28T12:03:31.001Z</time></trkpt><trkpt lat="38.16108322050824" lon="15.465334049612029"><ele>1075.0</ele><time>2026-04-28T12:03:33.001Z</time></trkpt><trkpt lat="38.161028752666105" lon="15.46539033863496"><ele>1075.0</ele><time>2026-04-28T12:03:34.001Z</time></trkpt><trkpt lat="38.16096502418955" lon="15.465452274917862"><ele>1075.0</ele><time>2026-04-28T12:03:35.001Z</time></trkpt><trkpt lat="38.16089880875094" lon="15.465485120209607"><ele>1075.0</ele><time>2026-04-28T12:03:36.001Z</time></trkpt><trkpt lat="38.16082729945115" lon="15.465543005663942"><ele>1075.0</ele><time>2026-04-28T12:03:37.002Z</time></trkpt><trkpt lat="38.160753366533385" lon="15.465603699846465"><ele>1075.0</ele><time>2026-04-28T12:03:38.002Z</time></trkpt><trkpt lat="38.160684616519546" lon="15.465660810320134"><ele>1076.7142857142858</ele><time>2026-04-28T12:03:39.002Z</time></trkpt><trkpt lat="38.16062755896168" lon="15.465709701360684"><ele>1078.4285714285716</ele><time>2026-04-28T12:03:40.002Z</time></trkpt><trkpt lat="38.16057675800175" lon="15.465767770616718"><ele>1080.142857142857</ele><time>2026-04-28T12:03:41.002Z</time></trkpt><trkpt lat="38.160536101395536" lon="15.465836912427319"><ele>1081.857142857143</ele><time>2026-04-28T12:03:42.002Z</time></trkpt><trkpt lat="38.16050932273771" lon="15.465911696596095"><ele>1083.5714285714284</ele><time>2026-04-28T12:03:43.002Z</time></trkpt><trkpt lat="38.16051121258269" lon="15.46601138292858"><ele>1085.2857142857142</ele><time>2026-04-28T12:03:44.002Z</time></trkpt><trkpt lat="38.16052561418671" lon="15.466105647938484"><ele>1087.0</ele><time>2026-04-28T12:03:45.002Z</time></trkpt><trkpt lat="38.160551956803644" lon="15.466226750906793"><ele>1083.1666666666665</ele><time>2026-04-28T12:03:46.002Z</time></trkpt><trkpt lat="38.16057637284092" lon="15.466341702714178"><ele>1079.3333333333333</ele><time>2026-04-28T12:03:47.002Z</time></trkpt><trkpt lat="38.16059798356504" lon="15.46644177045556"><ele>1075.5</ele><time>2026-04-28T12:03:48.002Z</time></trkpt><trkpt lat="38.16061207770751" lon="15.466534059988705"><ele>1071.6666666666667</ele><time>2026-04-28T12:03:49.002Z</time></trkpt><trkpt lat="38.16061885615414" lon="15.46661879885362"><ele>1067.8333333333335</ele><time>2026-04-28T12:03:50.002Z</time></trkpt><trkpt lat="38.16058950127482" lon="15.466770142371333"><ele>1064.0</ele><time>2026-04-28T12:03:52.002Z</time></trkpt><trkpt lat="38.16055842826439" lon="15.466849661155125"><ele>1064.0</ele><time>2026-04-28T12:03:53.002Z</time></trkpt><trkpt lat="38.16053213684324" lon="15.466930098101361"><ele>1064.0</ele><time>2026-04-28T12:03:54.002Z</time></trkpt><trkpt lat="38.1604816662235" lon="15.46699278142345"><ele>1064.0</ele><time>2026-04-28T12:03:55.002Z</time></trkpt><trkpt lat="38.16043001944339" lon="15.467039297281957"><ele>1064.0</ele><time>2026-04-28T12:03:56.002Z</time></trkpt><trkpt lat="38.16037566516063" lon="15.467081139466965"><ele>1064.0</ele><time>2026-04-28T12:03:57.001Z</time></trkpt><trkpt lat="38.16031413098751" lon="15.467116945606667"><ele>1064.0</ele><time>2026-04-28T12:03:58.001Z</time></trkpt><trkpt lat="38.160242922938814" lon="15.467141814282773"><ele>1064.0</ele><time>2026-04-28T12:03:59.001Z</time></trkpt><trkpt lat="38.1601713212033" lon="15.467155438376471"><ele>1058.5</ele><time>2026-04-28T12:04:00.001Z</time></trkpt><trkpt lat="38.16009437381109" lon="15.467152879384503"><ele>1053.0</ele><time>2026-04-28T12:04:01.001Z</time></trkpt><trkpt lat="38.16000637671428" lon="15.467157365617378"><ele>1047.5</ele><time>2026-04-28T12:04:02.001Z</time></trkpt><trkpt lat="38.15992116298968" lon="15.467177493157067"><ele>1042.0</ele><time>2026-04-28T12:04:03.001Z</time></trkpt><trkpt lat="38.159850199487806" lon="15.467204351149094"><ele>1036.5</ele><time>2026-04-28T12:04:04.001Z</time></trkpt><trkpt lat="38.159772307067584" lon="15.467313062299986"><ele>1031.0</ele><time>2026-04-28T12:04:06.001Z</time></trkpt><trkpt lat="38.15968272013474" lon="15.467434553482097"><ele>1031.0</ele><time>2026-04-28T12:04:08.001Z</time></trkpt><trkpt lat="38.15964897504839" lon="15.467516906393998"><ele>1031.0</ele><time>2026-04-28T12:04:09.001Z</time></trkpt><trkpt lat="38.15959437835239" lon="15.467645258621689"><ele>1031.0</ele><time>2026-04-28T12:04:11.001Z</time></trkpt><trkpt lat="38.1595344327627" lon="15.467736911408238"><ele>1031.0</ele><time>2026-04-28T12:04:13.001Z</time></trkpt><trkpt lat="38.15939677647177" lon="15.467772939482485"><ele>1031.0</ele><time>2026-04-28T12:04:15.001Z</time></trkpt><trkpt lat="38.15931548581078" lon="15.467783439416626"><ele>1031.0</ele><time>2026-04-28T12:04:16.001Z</time></trkpt><trkpt lat="38.15923194894624" lon="15.467787367623698"><ele>1031.0</ele><time>2026-04-28T12:04:17.001Z</time></trkpt><trkpt lat="38.159157495014554" lon="15.467816617472485"><ele>1031.0</ele><time>2026-04-28T12:04:18.001Z</time></trkpt><trkpt lat="38.15908136864752" lon="15.467820758705292"><ele>1031.0</ele><time>2026-04-28T12:04:19.001Z</time></trkpt><trkpt lat="38.15902037448331" lon="15.467794754037678"><ele>1031.0</ele><time>2026-04-28T12:04:20.001Z</time></trkpt><trkpt lat="38.15889997368039" lon="15.46776185562955"><ele>1031.0</ele><time>2026-04-28T12:04:22.001Z</time></trkpt><trkpt lat="38.158780876267436" lon="15.467708056415834"><ele>1025.6666666666667</ele><time>2026-04-28T12:04:24.001Z</time></trkpt><trkpt lat="38.15872322365592" lon="15.467657366618852"><ele>1020.3333333333334</ele><time>2026-04-28T12:04:25.001Z</time></trkpt><trkpt lat="38.15863754968527" lon="15.467563701943718"><ele>1015.0</ele><time>2026-04-28T12:04:27.001Z</time></trkpt><trkpt lat="38.15858106432827" lon="15.467492197577378"><ele>1009.6666666666667</ele><time>2026-04-28T12:04:29.001Z</time></trkpt><trkpt lat="38.15857651424789" lon="15.467359495393916"><ele>1004.3333333333334</ele><time>2026-04-28T12:04:31.001Z</time></trkpt><trkpt lat="38.15857478994466" lon="15.467263395513221"><ele>999.0</ele><time>2026-04-28T12:04:32.001Z</time></trkpt><trkpt lat="38.158561371616905" lon="15.46718227107708"><ele>1003.0</ele><time>2026-04-28T12:04:33.001Z</time></trkpt><trkpt lat="38.15852846079404" lon="15.467107840747035"><ele>1007.0</ele><time>2026-04-28T12:04:34.001Z</time></trkpt><trkpt lat="38.15845338402821" lon="15.467038416192857"><ele>1011.0</ele><time>2026-04-28T12:04:35.001Z</time></trkpt><trkpt lat="38.15841749221092" lon="15.466944355778221"><ele>1015.0</ele><time>2026-04-28T12:04:36.001Z</time></trkpt><trkpt lat="38.15837743490677" lon="15.466867095624902"><ele>1019.0</ele><time>2026-04-28T12:04:37.001Z</time></trkpt><trkpt lat="38.158346861348136" lon="15.466774009089287"><ele>1023.0</ele><time>2026-04-28T12:04:38.001Z</time></trkpt><trkpt lat="38.15830592630743" lon="15.466700546075117"><ele>1023.0</ele><time>2026-04-28T12:04:39.001Z</time></trkpt><trkpt lat="38.15825245626164" lon="15.466641144474139"><ele>1023.0</ele><time>2026-04-28T12:04:40.001Z</time></trkpt><trkpt lat="38.158189583517796" lon="15.466602846528788"><ele>1023.0</ele><time>2026-04-28T12:04:41.001Z</time></trkpt><trkpt lat="38.15812001212376" lon="15.466590691539192"><ele>1023.0</ele><time>2026-04-28T12:04:42.001Z</time></trkpt><trkpt lat="38.15804190959847" lon="15.466588677893265"><ele>1023.0</ele><time>2026-04-28T12:04:43.001Z</time></trkpt><trkpt lat="38.157957941060474" lon="15.46659113552705"><ele>1023.0</ele><time>2026-04-28T12:04:44.001Z</time></trkpt><trkpt lat="38.15787967870492" lon="15.466599863360921"><ele>1017.8333333333334</ele><time>2026-04-28T12:04:45.001Z</time></trkpt><trkpt lat="38.15780630816078" lon="15.466606690272561"><ele>1012.6666666666667</ele><time>2026-04-28T12:04:46.001Z</time></trkpt><trkpt lat="38.15772335304946" lon="15.46661395636479"><ele>1007.5</ele><time>2026-04-28T12:04:47.001Z</time></trkpt><trkpt lat="38.15764892207324" lon="15.466628418829865"><ele>1002.3333333333334</ele><time>2026-04-28T12:04:48.001Z</time></trkpt><trkpt lat="38.157577959360516" lon="15.466657339066545"><ele>997.1666666666667</ele><time>2026-04-28T12:04:49.001Z</time></trkpt><trkpt lat="38.15751303608529" lon="15.4666879553311"><ele>992.0</ele><time>2026-04-28T12:04:50.001Z</time></trkpt><trkpt lat="38.157416230801516" lon="15.466751623253364"><ele>985.8333333333334</ele><time>2026-04-28T12:04:52.001Z</time></trkpt><trkpt lat="38.15731933035687" lon="15.466764380235832"><ele>979.6666666666667</ele><time>2026-04-28T12:04:54.001Z</time></trkpt><trkpt lat="38.15725976091887" lon="15.466733135311594"><ele>973.5</ele><time>2026-04-28T12:04:55.001Z</time></trkpt><trkpt lat="38.15720474649874" lon="15.466685453144715"><ele>967.3333333333333</ele><time>2026-04-28T12:04:56.001Z</time></trkpt><trkpt lat="38.15715248438062" lon="15.466587422291868"><ele>961.1666666666666</ele><time>2026-04-28T12:04:58.001Z</time></trkpt><trkpt lat="38.157183666749425" lon="15.466441272795768"><ele>955.0</ele><time>2026-04-28T12:05:00.001Z</time></trkpt><trkpt lat="38.15725393083099" lon="15.466396855271109"><ele>954.9999999999999</ele><time>2026-04-28T12:05:01.001Z</time></trkpt><trkpt lat="38.15731550341715" lon="15.466344754958714"><ele>955.0</ele><time>2026-04-28T12:05:02.001Z</time></trkpt><trkpt lat="38.15736363591046" lon="15.466268264683709"><ele>955.0</ele><time>2026-04-28T12:05:03.001Z</time></trkpt><trkpt lat="38.157376132326185" lon="15.466176661864298"><ele>955.0</ele><time>2026-04-28T12:05:04.001Z</time></trkpt><trkpt lat="38.15731824574509" lon="15.466076299424454"><ele>954.9999999999999</ele><time>2026-04-28T12:05:05.001Z</time></trkpt><trkpt lat="38.15727610770145" lon="15.465981016033812"><ele>955.0</ele><time>2026-04-28T12:05:06.001Z</time></trkpt><trkpt lat="38.15722414819581" lon="15.465887451543281"><ele>959.3333333333333</ele><time>2026-04-28T12:05:07.001Z</time></trkpt><trkpt lat="38.157179831135025" lon="15.46578832755636"><ele>963.6666666666666</ele><time>2026-04-28T12:05:08.001Z</time></trkpt><trkpt lat="38.157112379511254" lon="15.465712544110694"><ele>968.0</ele><time>2026-04-28T12:05:09.001Z</time></trkpt><trkpt lat="38.157048963230686" lon="15.465660089977563"><ele>972.3333333333333</ele><time>2026-04-28T12:05:10.001Z</time></trkpt><trkpt lat="38.1569795595091" lon="15.465644974139872"><ele>976.6666666666666</ele><time>2026-04-28T12:05:11.001Z</time></trkpt><trkpt lat="38.156915061097365" lon="15.465630501989603"><ele>981.0</ele><time>2026-04-28T12:05:12.001Z</time></trkpt><trkpt lat="38.15683935546304" lon="15.465640266315368"><ele>981.0</ele><time>2026-04-28T12:05:13.001Z</time></trkpt><trkpt lat="38.15677608655939" lon="15.465650130641803"><ele>981.0</ele><time>2026-04-28T12:05:14.001Z</time></trkpt><trkpt lat="38.15669177489138" lon="15.46557568444494"><ele>981.0</ele><time>2026-04-28T12:05:16.001Z</time></trkpt><trkpt lat="38.156657918255156" lon="15.465481925459686"><ele>981.0</ele><time>2026-04-28T12:05:17.001Z</time></trkpt><trkpt lat="38.15662437156813" lon="15.465367041214943"><ele>981.0</ele><time>2026-04-28T12:05:18.001Z</time></trkpt><trkpt lat="38.156583696555366" lon="15.465270810535042"><ele>981.0</ele><time>2026-04-28T12:05:19.001Z</time></trkpt><trkpt lat="38.15653762920597" lon="15.46520718075285"><ele>978.1999999999999</ele><time>2026-04-28T12:05:20.001Z</time></trkpt><trkpt lat="38.15641315202662" lon="15.465161383081734"><ele>975.3999999999999</ele><time>2026-04-28T12:05:22.001Z</time></trkpt><trkpt lat="38.15634364366023" lon="15.465135881881526"><ele>972.6</ele><time>2026-04-28T12:05:23.001Z</time></trkpt><trkpt lat="38.15628273225649" lon="15.46509479550036"><ele>969.8</ele><time>2026-04-28T12:05:24.001Z</time></trkpt><trkpt lat="38.1562265934154" lon="15.465056594721274"><ele>967.0</ele><time>2026-04-28T12:05:25.001Z</time></trkpt><trkpt lat="38.15612699495594" lon="15.464956297050922"><ele>967.0</ele><time>2026-04-28T12:05:27.001Z</time></trkpt><trkpt lat="38.15613343877337" lon="15.464872443815628"><ele>967.0</ele><time>2026-04-28T12:05:28.001Z</time></trkpt><trkpt lat="38.15611128250764" lon="15.464784827608867"><ele>967.0</ele><time>2026-04-28T12:05:29.001Z</time></trkpt><trkpt lat="38.156093747162664" lon="15.464703044321828"><ele>967.0</ele><time>2026-04-28T12:05:30.001Z</time></trkpt><trkpt lat="38.15605326110287" lon="15.464632152612667"><ele>967.0</ele><time>2026-04-28T12:05:31.001Z</time></trkpt><trkpt lat="38.15599047128137" lon="15.464581807736607"><ele>967.0</ele><time>2026-04-28T12:05:32.001Z</time></trkpt><trkpt lat="38.15591880514405" lon="15.46451019464671"><ele>967.0</ele><time>2026-04-28T12:05:33.001Z</time></trkpt><trkpt lat="38.155850792203076" lon="15.464427920618338"><ele>967.1666666666666</ele><time>2026-04-28T12:05:34.001Z</time></trkpt><trkpt lat="38.15578014521861" lon="15.464358298154284"><ele>967.3333333333333</ele><time>2026-04-28T12:05:35.001Z</time></trkpt><trkpt lat="38.15571370403704" lon="15.464304354539584"><ele>967.5</ele><time>2026-04-28T12:05:36.001Z</time></trkpt><trkpt lat="38.1556541262054" lon="15.46423952595739"><ele>967.6666666666667</ele><time>2026-04-28T12:05:37.001Z</time></trkpt><trkpt lat="38.15560480418144" lon="15.464155885491063"><ele>967.8333333333334</ele><time>2026-04-28T12:05:38.001Z</time></trkpt><trkpt lat="38.15553908052159" lon="15.464097714162966"><ele>968.0</ele><time>2026-04-28T12:05:39.001Z</time></trkpt><trkpt lat="38.15546080675257" lon="15.46405315163437"><ele>968.0</ele><time>2026-04-28T12:05:40.001Z</time></trkpt><trkpt lat="38.15538314519078" lon="15.463989532893278"><ele>968.0</ele><time>2026-04-28T12:05:41.001Z</time></trkpt><trkpt lat="38.155292754828956" lon="15.463931414689142"><ele>968.0</ele><time>2026-04-28T12:05:42.001Z</time></trkpt><trkpt lat="38.155205738149064" lon="15.463872983417048"><ele>968.0</ele><time>2026-04-28T12:05:43.002Z</time></trkpt><trkpt lat="38.15512749297557" lon="15.463803424623807"><ele>968.0</ele><time>2026-04-28T12:05:44.002Z</time></trkpt><trkpt lat="38.15505324915639" lon="15.463763200048266"><ele>969.6666666666667</ele><time>2026-04-28T12:05:45.002Z</time></trkpt><trkpt lat="38.15501536328085" lon="15.463693664375091"><ele>971.3333333333334</ele><time>2026-04-28T12:05:46.002Z</time></trkpt><trkpt lat="38.154961702848176" lon="15.46364942695213"><ele>973.0</ele><time>2026-04-28T12:05:47.002Z</time></trkpt><trkpt lat="38.15488479945311" lon="15.463596568175557"><ele>974.6666666666667</ele><time>2026-04-28T12:05:48.002Z</time></trkpt><trkpt lat="38.15481173415868" lon="15.463531428693122"><ele>976.3333333333334</ele><time>2026-04-28T12:05:49.002Z</time></trkpt><trkpt lat="38.15472660352348" lon="15.463503209666206"><ele>978.0</ele><time>2026-04-28T12:05:50.002Z</time></trkpt><trkpt lat="38.15463786187725" lon="15.463497438735939"><ele>978.0</ele><time>2026-04-28T12:05:51.002Z</time></trkpt><trkpt lat="38.15454312817855" lon="15.46348866741888"><ele>978.0</ele><time>2026-04-28T12:05:52.002Z</time></trkpt><trkpt lat="38.15445950138915" lon="15.463445260272023"><ele>978.0</ele><time>2026-04-28T12:05:53.002Z</time></trkpt><trkpt lat="38.154373537734514" lon="15.46339791920715"><ele>978.0</ele><time>2026-04-28T12:05:54.002Z</time></trkpt><trkpt lat="38.154285123255" lon="15.463364812689475"><ele>978.0</ele><time>2026-04-28T12:05:55.002Z</time></trkpt><trkpt lat="38.15421123933606" lon="15.463338169316499"><ele>978.0</ele><time>2026-04-28T12:05:56.002Z</time></trkpt><trkpt lat="38.15412022332505" lon="15.463256070584789"><ele>978.0</ele><time>2026-04-28T12:05:58.002Z</time></trkpt><trkpt lat="38.15408656548626" lon="15.463171267067242"><ele>978.0</ele><time>2026-04-28T12:05:59.002Z</time></trkpt><trkpt lat="38.15405076960607" lon="15.463051436318404"><ele>978.0</ele><time>2026-04-28T12:06:00.002Z</time></trkpt><trkpt lat="38.15400975433896" lon="15.462914873667387"><ele>978.0</ele><time>2026-04-28T12:06:01.002Z</time></trkpt><trkpt lat="38.15396849478202" lon="15.462786655517545"><ele>978.0</ele><time>2026-04-28T12:06:02.002Z</time></trkpt><trkpt lat="38.15394398139726" lon="15.4626706399855"><ele>976.3333333333334</ele><time>2026-04-28T12:06:03.002Z</time></trkpt><trkpt lat="38.15390658760025" lon="15.462587659761352"><ele>974.6666666666667</ele><time>2026-04-28T12:06:04.002Z</time></trkpt><trkpt lat="38.153864288651505" lon="15.462528290401043"><ele>973.0</ele><time>2026-04-28T12:06:05.002Z</time></trkpt><trkpt lat="38.15379637406022" lon="15.462538767638224"><ele>971.3333333333334</ele><time>2026-04-28T12:06:06.001Z</time></trkpt><trkpt lat="38.153667684126894" lon="15.462592089998493"><ele>969.6666666666667</ele><time>2026-04-28T12:06:08.001Z</time></trkpt><trkpt lat="38.15357882620333" lon="15.462580129783694"><ele>968.0</ele><time>2026-04-28T12:06:09.001Z</time></trkpt><trkpt lat="38.15348892269497" lon="15.462584692229928"><ele>968.0</ele><time>2026-04-28T12:06:10.001Z</time></trkpt><trkpt lat="38.153380798490936" lon="15.462590480981609"><ele>968.0</ele><time>2026-04-28T12:06:11.001Z</time></trkpt><trkpt lat="38.153282280438695" lon="15.462577336142186"><ele>968.0</ele><time>2026-04-28T12:06:12.001Z</time></trkpt><trkpt lat="38.15318836931941" lon="15.462585897490438"><ele>968.0</ele><time>2026-04-28T12:06:13.001Z</time></trkpt><trkpt lat="38.153095676975525" lon="15.462597961548761"><ele>968.0</ele><time>2026-04-28T12:06:14.001Z</time></trkpt><trkpt lat="38.15300439424511" lon="15.46258124279078"><ele>967.6666666666667</ele><time>2026-04-28T12:06:15.001Z</time></trkpt><trkpt lat="38.15290835503728" lon="15.462594985158544"><ele>967.3333333333334</ele><time>2026-04-28T12:06:16.001Z</time></trkpt><trkpt lat="38.15281367678704" lon="15.46257973955126"><ele>967.0</ele><time>2026-04-28T12:06:17.001Z</time></trkpt><trkpt lat="38.152737973634686" lon="15.46257367658134"><ele>966.6666666666667</ele><time>2026-04-28T12:06:18.001Z</time></trkpt><trkpt lat="38.152637647548126" lon="15.462573193895972"><ele>966.3333333333334</ele><time>2026-04-28T12:06:20.001Z</time></trkpt><trkpt lat="38.15256064499569" lon="15.462563533833187"><ele>966.0</ele><time>2026-04-28T12:06:22.001Z</time></trkpt><trkpt lat="38.15247563211309" lon="15.462582129652594"><ele>967.8</ele><time>2026-04-28T12:07:13.001Z</time></trkpt><trkpt lat="38.15236923827512" lon="15.46258040847699"><ele>969.5999999999999</ele><time>2026-04-28T12:07:15.001Z</time></trkpt><trkpt lat="38.152305189392855" lon="15.462566502437737"><ele>971.4</ele><time>2026-04-28T12:07:16.001Z</time></trkpt><trkpt lat="38.15223714394631" lon="15.46255049533178"><ele>973.2</ele><time>2026-04-28T12:07:17.001Z</time></trkpt><trkpt lat="38.15210188091729" lon="15.462545472437384"><ele>975.0</ele><time>2026-04-28T12:07:19.001Z</time></trkpt><trkpt lat="38.15204438453765" lon="15.462629485687655"><ele>975.0</ele><time>2026-04-28T12:07:20.001Z</time></trkpt><trkpt lat="38.15195289886353" lon="15.462685650360894"><ele>975.0</ele><time>2026-04-28T12:07:22.001Z</time></trkpt><trkpt lat="38.15183702339885" lon="15.462660094500706"><ele>975.0</ele><time>2026-04-28T12:07:24.001Z</time></trkpt><trkpt lat="38.151762870194354" lon="15.462650168230892"><ele>975.0</ele><time>2026-04-28T12:07:25.001Z</time></trkpt><trkpt lat="38.1516967324347" lon="15.462658334034193"><ele>975.0</ele><time>2026-04-28T12:07:26.001Z</time></trkpt><trkpt lat="38.151564020772376" lon="15.46271225252695"><ele>976.6666666666666</ele><time>2026-04-28T12:07:28.001Z</time></trkpt><trkpt lat="38.15148572157085" lon="15.462741537188421"><ele>978.3333333333333</ele><time>2026-04-28T12:07:29.001Z</time></trkpt><trkpt lat="38.15139515971593" lon="15.4627729157868"><ele>980.0</ele><time>2026-04-28T12:07:30.001Z</time></trkpt><trkpt lat="38.15131392644962" lon="15.462813163061469"><ele>981.6666666666666</ele><time>2026-04-28T12:07:31.001Z</time></trkpt><trkpt lat="38.151250443225365" lon="15.462851130169486"><ele>983.3333333333333</ele><time>2026-04-28T12:07:32.001Z</time></trkpt><trkpt lat="38.15119535720378" lon="15.462894828208626"><ele>985.0</ele><time>2026-04-28T12:07:33.001Z</time></trkpt><trkpt lat="38.15110061123188" lon="15.46295914187513"><ele>984.9999999999999</ele><time>2026-04-28T12:07:35.001Z</time></trkpt><trkpt lat="38.15098544903139" lon="15.462929725056282"><ele>985.0</ele><time>2026-04-28T12:07:37.001Z</time></trkpt><trkpt lat="38.15092739899391" lon="15.462888566003427"><ele>985.0</ele><time>2026-04-28T12:07:38.001Z</time></trkpt><trkpt lat="38.15085081323808" lon="15.462854292152992"><ele>985.0</ele><time>2026-04-28T12:07:39.001Z</time></trkpt><trkpt lat="38.15076286736809" lon="15.462835121483156"><ele>984.9999999999999</ele><time>2026-04-28T12:07:40.001Z</time></trkpt><trkpt lat="38.15067414433139" lon="15.462828310140386"><ele>985.0</ele><time>2026-04-28T12:07:41.001Z</time></trkpt><trkpt lat="38.15059201724237" lon="15.462822360429575"><ele>984.4999999999999</ele><time>2026-04-28T12:07:42.001Z</time></trkpt><trkpt lat="38.150518350826545" lon="15.462825598367798"><ele>984.0</ele><time>2026-04-28T12:07:43.001Z</time></trkpt><trkpt lat="38.150419153702586" lon="15.462822775609247"><ele>983.5</ele><time>2026-04-28T12:07:45.001Z</time></trkpt><trkpt lat="38.15035176557403" lon="15.462741021805838"><ele>983.0</ele><time>2026-04-28T12:07:47.001Z</time></trkpt><trkpt lat="38.15031222159084" lon="15.462678244551567"><ele>982.4999999999999</ele><time>2026-04-28T12:07:48.001Z</time></trkpt><trkpt lat="38.15025517004067" lon="15.462627039975112"><ele>982.0</ele><time>2026-04-28T12:07:49.002Z</time></trkpt><trkpt lat="38.15019040107319" lon="15.462596044916076"><ele>981.9999999999999</ele><time>2026-04-28T12:07:50.002Z</time></trkpt><trkpt lat="38.15011733223589" lon="15.462583082578426"><ele>982.0</ele><time>2026-04-28T12:07:51.002Z</time></trkpt><trkpt lat="38.15005078597456" lon="15.462564224290833"><ele>982.0</ele><time>2026-04-28T12:07:52.002Z</time></trkpt><trkpt lat="38.14995776207892" lon="15.462462308750137"><ele>982.0</ele><time>2026-04-28T12:07:54.002Z</time></trkpt><trkpt lat="38.14990082144637" lon="15.46238402367483"><ele>981.9999999999999</ele><time>2026-04-28T12:07:55.002Z</time></trkpt><trkpt lat="38.14984523598776" lon="15.46228951253212"><ele>982.0</ele><time>2026-04-28T12:07:56.002Z</time></trkpt><trkpt lat="38.14980522812471" lon="15.462207470876"><ele>981.6666666666666</ele><time>2026-04-28T12:07:57.002Z</time></trkpt><trkpt lat="38.14978142211374" lon="15.462124306957556"><ele>981.3333333333333</ele><time>2026-04-28T12:07:58.002Z</time></trkpt><trkpt lat="38.14976959144861" lon="15.462019348023155"><ele>981.0</ele><time>2026-04-28T12:07:59.002Z</time></trkpt><trkpt lat="38.14974672726838" lon="15.461928108432108"><ele>980.6666666666667</ele><time>2026-04-28T12:08:00.002Z</time></trkpt><trkpt lat="38.149696984816316" lon="15.461854709504708"><ele>980.3333333333334</ele><time>2026-04-28T12:08:01.002Z</time></trkpt><trkpt lat="38.149619903465876" lon="15.461779872161985"><ele>980.0</ele><time>2026-04-28T12:08:02.002Z</time></trkpt><trkpt lat="38.14953653790618" lon="15.461701413772866"><ele>980.0</ele><time>2026-04-28T12:08:03.002Z</time></trkpt><trkpt lat="38.14944976539982" lon="15.461622654437557"><ele>980.0</ele><time>2026-04-28T12:08:04.002Z</time></trkpt><trkpt lat="38.149378620573565" lon="15.461556806049321"><ele>980.0</ele><time>2026-04-28T12:08:05.001Z</time></trkpt><trkpt lat="38.14931466029698" lon="15.461512589786823"><ele>980.0</ele><time>2026-04-28T12:08:06.001Z</time></trkpt><trkpt lat="38.14923106585714" lon="15.461481357805964"><ele>980.0</ele><time>2026-04-28T12:08:07.001Z</time></trkpt><trkpt lat="38.14911951863654" lon="15.461468133545491"><ele>980.25</ele><time>2026-04-28T12:08:08.001Z</time></trkpt><trkpt lat="38.149000122492076" lon="15.461461870042797"><ele>980.5</ele><time>2026-04-28T12:08:09.001Z</time></trkpt><trkpt lat="38.14888888882798" lon="15.461440205417246"><ele>980.75</ele><time>2026-04-28T12:08:10.001Z</time></trkpt><trkpt lat="38.14877947834135" lon="15.461403395119852"><ele>981.0</ele><time>2026-04-28T12:08:11.001Z</time></trkpt><trkpt lat="38.14867222650563" lon="15.461370758835516"><ele>981.0</ele><time>2026-04-28T12:08:12.001Z</time></trkpt><trkpt lat="38.14858301510599" lon="15.46134918540779"><ele>981.0</ele><time>2026-04-28T12:08:13.001Z</time></trkpt><trkpt lat="38.148502060871735" lon="15.461321996895371"><ele>981.0</ele><time>2026-04-28T12:08:14.001Z</time></trkpt><trkpt lat="38.14841962490641" lon="15.461301374686215"><ele>981.0</ele><time>2026-04-28T12:08:15.001Z</time></trkpt><trkpt lat="38.14833599372695" lon="15.461294872329871"><ele>981.0</ele><time>2026-04-28T12:08:16.001Z</time></trkpt><trkpt lat="38.14825532265366" lon="15.461311474079478"><ele>981.0</ele><time>2026-04-28T12:08:17.001Z</time></trkpt><trkpt lat="38.14818723664203" lon="15.461352444687098"><ele>985.5999999999999</ele><time>2026-04-28T12:08:18.001Z</time></trkpt><trkpt lat="38.1481255206028" lon="15.461418705752525"><ele>990.1999999999999</ele><time>2026-04-28T12:08:19.001Z</time></trkpt><trkpt lat="38.14805522423515" lon="15.461483110396752"><ele>994.8000000000001</ele><time>2026-04-28T12:08:20.001Z</time></trkpt><trkpt lat="38.14797702742854" lon="15.461522844907353"><ele>999.4000000000001</ele><time>2026-04-28T12:08:21.001Z</time></trkpt><trkpt lat="38.14786823019396" lon="15.461560493459764"><ele>1004.0</ele><time>2026-04-28T12:08:22.001Z</time></trkpt><trkpt lat="38.147760269545785" lon="15.461606667594497"><ele>1004.0000000000001</ele><time>2026-04-28T12:08:23.001Z</time></trkpt><trkpt lat="38.147673022085186" lon="15.461673550593611"><ele>1004.0</ele><time>2026-04-28T12:08:24.001Z</time></trkpt><trkpt lat="38.1476039318562" lon="15.46174611770877"><ele>1004.0</ele><time>2026-04-28T12:08:25.001Z</time></trkpt><trkpt lat="38.14754831819137" lon="15.461826463472116"><ele>1004.0</ele><time>2026-04-28T12:08:26.001Z</time></trkpt><trkpt lat="38.14749749602115" lon="15.461913358312568"><ele>1004.0000000000001</ele><time>2026-04-28T12:08:27.001Z</time></trkpt><trkpt lat="38.14744955988406" lon="15.462003490088568"><ele>1004.0</ele><time>2026-04-28T12:08:28.001Z</time></trkpt><trkpt lat="38.14739857083312" lon="15.46208029522692"><ele>999.6666666666667</ele><time>2026-04-28T12:08:29.001Z</time></trkpt><trkpt lat="38.14734407699855" lon="15.462137235815163"><ele>995.3333333333334</ele><time>2026-04-28T12:08:30.001Z</time></trkpt><trkpt lat="38.14723918065013" lon="15.46220406072335"><ele>991.0</ele><time>2026-04-28T12:08:32.001Z</time></trkpt><trkpt lat="38.147174079512716" lon="15.462216948942263"><ele>986.6666666666667</ele><time>2026-04-28T12:08:33.001Z</time></trkpt><trkpt lat="38.14709640842734" lon="15.462216907227942"><ele>982.3333333333334</ele><time>2026-04-28T12:08:34.001Z</time></trkpt><trkpt lat="38.14701088727165" lon="15.462215058030061"><ele>978.0</ele><time>2026-04-28T12:08:35.001Z</time></trkpt><trkpt lat="38.14694079294277" lon="15.462238608914388"><ele>978.0</ele><time>2026-04-28T12:08:36.001Z</time></trkpt><trkpt lat="38.14687302179258" lon="15.462297218922465"><ele>978.0</ele><time>2026-04-28T12:08:37.001Z</time></trkpt><trkpt lat="38.14679844402517" lon="15.462376890945858"><ele>978.0</ele><time>2026-04-28T12:08:38.001Z</time></trkpt><trkpt lat="38.146711460677125" lon="15.462454319800525"><ele>978.0</ele><time>2026-04-28T12:08:39.001Z</time></trkpt><trkpt lat="38.14661732901537" lon="15.462519152466692"><ele>978.0</ele><time>2026-04-28T12:08:40.001Z</time></trkpt><trkpt lat="38.14651615741425" lon="15.462582448136528"><ele>977.1666666666666</ele><time>2026-04-28T12:08:41.001Z</time></trkpt><trkpt lat="38.14642950786051" lon="15.462641793631825"><ele>976.3333333333333</ele><time>2026-04-28T12:08:42.001Z</time></trkpt><trkpt lat="38.146356332735465" lon="15.462688759174343"><ele>975.5</ele><time>2026-04-28T12:08:43.001Z</time></trkpt><trkpt lat="38.1462924864748" lon="15.462714017123552"><ele>974.6666666666666</ele><time>2026-04-28T12:08:44.001Z</time></trkpt><trkpt lat="38.14622107222879" lon="15.462680040355693"><ele>973.8333333333333</ele><time>2026-04-28T12:08:46.001Z</time></trkpt><trkpt lat="38.14621248119765" lon="15.462562074528897"><ele>973.0</ele><time>2026-04-28T12:08:48.001Z</time></trkpt><trkpt lat="38.14621883459562" lon="15.462458821118027"><ele>972.9999999999999</ele><time>2026-04-28T12:08:49.001Z</time></trkpt><trkpt lat="38.146215265398574" lon="15.46234718980028"><ele>973.0</ele><time>2026-04-28T12:08:50.001Z</time></trkpt><trkpt lat="38.14621794275725" lon="15.46225308673053"><ele>973.0</ele><time>2026-04-28T12:08:51.001Z</time></trkpt><trkpt lat="38.146192034280716" lon="15.462168434722075"><ele>973.0</ele><time>2026-04-28T12:08:52.001Z</time></trkpt><trkpt lat="38.14609106570263" lon="15.462063810017977"><ele>972.9999999999999</ele><time>2026-04-28T12:08:54.001Z</time></trkpt><trkpt lat="38.14602167730713" lon="15.462006211894439"><ele>973.0</ele><time>2026-04-28T12:08:55.001Z</time></trkpt><trkpt lat="38.145923037877935" lon="15.461859015939867"><ele>976.0</ele><time>2026-04-28T12:08:56.001Z</time></trkpt><trkpt lat="38.14583016552285" lon="15.461850425211303"><ele>979.0</ele><time>2026-04-28T12:08:57.001Z</time></trkpt><trkpt lat="38.1457562238979" lon="15.46182520932245"><ele>982.0</ele><time>2026-04-28T12:08:58.001Z</time></trkpt><trkpt lat="38.14570683723418" lon="15.461771671239083"><ele>985.0</ele><time>2026-04-28T12:08:59.001Z</time></trkpt><trkpt lat="38.145643885295826" lon="15.461675672610124"><ele>988.0</ele><time>2026-04-28T12:09:00.001Z</time></trkpt><trkpt lat="38.14557008893208" lon="15.461552421167413"><ele>988.0</ele><time>2026-04-28T12:09:01.001Z</time></trkpt><trkpt lat="38.145484240056845" lon="15.461421708498701"><ele>988.0</ele><time>2026-04-28T12:09:02.001Z</time></trkpt><trkpt lat="38.14540858676194" lon="15.461302984696788"><ele>988.0</ele><time>2026-04-28T12:09:03.001Z</time></trkpt><trkpt lat="38.14535980202468" lon="15.461218056977282"><ele>988.0</ele><time>2026-04-28T12:09:04.001Z</time></trkpt><trkpt lat="38.14531150444107" lon="15.46115916238952"><ele>988.0</ele><time>2026-04-28T12:09:05.001Z</time></trkpt><trkpt lat="38.14514916431135" lon="15.461156890098287"><ele>993.8</ele><time>2026-04-28T12:09:07.001Z</time></trkpt><trkpt lat="38.14503346775948" lon="15.461180150122221"><ele>999.5999999999999</ele><time>2026-04-28T12:09:08.001Z</time></trkpt><trkpt lat="38.14492959898951" lon="15.461228279062718"><ele>1005.4000000000001</ele><time>2026-04-28T12:09:09.001Z</time></trkpt><trkpt lat="38.14485322602701" lon="15.46125786582689"><ele>1011.2</ele><time>2026-04-28T12:09:10.001Z</time></trkpt><trkpt lat="38.14477770491709" lon="15.4612663867179"><ele>1017.0</ele><time>2026-04-28T12:09:11.001Z</time></trkpt><trkpt lat="38.144709457837735" lon="15.461261635363968"><ele>1017.0</ele><time>2026-04-28T12:09:12.001Z</time></trkpt><trkpt lat="38.1446250865917" lon="15.461241110021971"><ele>1017.0</ele><time>2026-04-28T12:09:13.001Z</time></trkpt><trkpt lat="38.14453467046924" lon="15.461224750469658"><ele>1017.0</ele><time>2026-04-28T12:09:14.001Z</time></trkpt><trkpt lat="38.14444778398533" lon="15.461230953733374"><ele>1017.0</ele><time>2026-04-28T12:09:15.001Z</time></trkpt><trkpt lat="38.14436338635511" lon="15.461269688907006"><ele>1017.0</ele><time>2026-04-28T12:09:16.001Z</time></trkpt><trkpt lat="38.14425703796456" lon="15.461311309113793"><ele>1012.0</ele><time>2026-04-28T12:09:17.001Z</time></trkpt><trkpt lat="38.14413866547332" lon="15.46133233665148"><ele>1007.0</ele><time>2026-04-28T12:09:18.001Z</time></trkpt><trkpt lat="38.144029462002905" lon="15.461342968136025"><ele>1002.0</ele><time>2026-04-28T12:09:19.001Z</time></trkpt><trkpt lat="38.1439202079721" lon="15.461339278132453"><ele>997.0</ele><time>2026-04-28T12:09:20.001Z</time></trkpt><trkpt lat="38.143801664054884" lon="15.461337657416587"><ele>997.0</ele><time>2026-04-28T12:09:21.001Z</time></trkpt><trkpt lat="38.14368326740836" lon="15.461332165880505"><ele>997.0</ele><time>2026-04-28T12:09:22.001Z</time></trkpt><trkpt lat="38.14357712111095" lon="15.461319977715092"><ele>997.0</ele><time>2026-04-28T12:09:23.001Z</time></trkpt><trkpt lat="38.143475399645325" lon="15.461321056703053"><ele>997.0</ele><time>2026-04-28T12:09:24.001Z</time></trkpt><trkpt lat="38.14336246633474" lon="15.4612938544893"><ele>997.0</ele><time>2026-04-28T12:09:25.001Z</time></trkpt><trkpt lat="38.14326254650467" lon="15.461262397814352"><ele>998.9999999999999</ele><time>2026-04-28T12:09:26.001Z</time></trkpt><trkpt lat="38.14316929039955" lon="15.461256009756314"><ele>1001.0</ele><time>2026-04-28T12:09:27.001Z</time></trkpt><trkpt lat="38.14306294537611" lon="15.46128673940865"><ele>1003.0</ele><time>2026-04-28T12:09:28.001Z</time></trkpt><trkpt lat="38.142978977911305" lon="15.461310537927803"><ele>1005.0</ele><time>2026-04-28T12:09:29.001Z</time></trkpt><trkpt lat="38.142909556039065" lon="15.461318043163384"><ele>1006.9999999999999</ele><time>2026-04-28T12:09:30.001Z</time></trkpt><trkpt lat="38.14283280212175" lon="15.461299913481053"><ele>1009.0</ele><time>2026-04-28T12:09:31.001Z</time></trkpt><trkpt lat="38.14276072611954" lon="15.461274141916215"><ele>1009.0</ele><time>2026-04-28T12:09:32.001Z</time></trkpt><trkpt lat="38.14270009476101" lon="15.46121561067203"><ele>1009.0000000000001</ele><time>2026-04-28T12:09:33.001Z</time></trkpt><trkpt lat="38.14264037679457" lon="15.461129216985425"><ele>1009.0000000000001</ele><time>2026-04-28T12:09:34.001Z</time></trkpt><trkpt lat="38.14258527659494" lon="15.461017344629006"><ele>1009.0</ele><time>2026-04-28T12:09:35.001Z</time></trkpt><trkpt lat="38.142523549864556" lon="15.46087101062498"><ele>1009.0</ele><time>2026-04-28T12:09:36.001Z</time></trkpt><trkpt lat="38.142460209428904" lon="15.460733910374556"><ele>1009.0</ele><time>2026-04-28T12:09:37.001Z</time></trkpt><trkpt lat="38.14239821689217" lon="15.460614383913134"><ele>1009.0000000000001</ele><time>2026-04-28T12:09:38.001Z</time></trkpt><trkpt lat="38.14234411307868" lon="15.460516891931166"><ele>1009.0000000000001</ele><time>2026-04-28T12:09:39.001Z</time></trkpt><trkpt lat="38.14228434766941" lon="15.460441710698314"><ele>1009.0</ele><time>2026-04-28T12:09:40.001Z</time></trkpt><trkpt lat="38.142208907339494" lon="15.460396982443342"><ele>1009.0</ele><time>2026-04-28T12:09:41.001Z</time></trkpt><trkpt lat="38.142113400096996" lon="15.460360602562933"><ele>1008.8000000000001</ele><time>2026-04-28T12:09:42.001Z</time></trkpt><trkpt lat="38.14203017343901" lon="15.460318765729236"><ele>1008.6000000000001</ele><time>2026-04-28T12:09:43.001Z</time></trkpt><trkpt lat="38.14195364297734" lon="15.460263292411383"><ele>1008.4</ele><time>2026-04-28T12:09:44.001Z</time></trkpt><trkpt lat="38.141862603783366" lon="15.460162086482761"><ele>1008.2</ele><time>2026-04-28T12:09:45.001Z</time></trkpt><trkpt lat="38.14177090097241" lon="15.46008177958213"><ele>1008.0</ele><time>2026-04-28T12:09:46.001Z</time></trkpt><trkpt lat="38.141703061670555" lon="15.460027422499818"><ele>1008.0</ele><time>2026-04-28T12:09:47.001Z</time></trkpt><trkpt lat="38.141603617536894" lon="15.45993873777424"><ele>1008.0</ele><time>2026-04-28T12:09:49.001Z</time></trkpt><trkpt lat="38.141575776268674" lon="15.459853908186808"><ele>1008.0</ele><time>2026-04-28T12:09:50.001Z</time></trkpt><trkpt lat="38.14157787978166" lon="15.459747219494398"><ele>1008.0</ele><time>2026-04-28T12:09:51.001Z</time></trkpt><trkpt lat="38.14159163033452" lon="15.459632066971963"><ele>1008.0</ele><time>2026-04-28T12:09:52.001Z</time></trkpt><trkpt lat="38.14161344436922" lon="15.459489050768575"><ele>1007.8</ele><time>2026-04-28T12:09:53.001Z</time></trkpt><trkpt lat="38.14161617956891" lon="15.459334360576054"><ele>1007.5999999999999</ele><time>2026-04-28T12:09:54.001Z</time></trkpt><trkpt lat="38.141588795328005" lon="15.459181397786654"><ele>1007.4000000000001</ele><time>2026-04-28T12:09:55.001Z</time></trkpt><trkpt lat="38.14154924679993" lon="15.45905461410925"><ele>1007.2</ele><time>2026-04-28T12:09:56.001Z</time></trkpt><trkpt lat="38.141502370468345" lon="15.458971058189617"><ele>1007.0</ele><time>2026-04-28T12:09:57.001Z</time></trkpt><trkpt lat="38.14143605085674" lon="15.458898517272537"><ele>1005.75</ele><time>2026-04-28T12:09:58.001Z</time></trkpt><trkpt lat="38.141334790573424" lon="15.458840298975062"><ele>1004.5</ele><time>2026-04-28T12:09:59.001Z</time></trkpt><trkpt lat="38.14123485561487" lon="15.458776217348907"><ele>1003.25</ele><time>2026-04-28T12:10:00.001Z</time></trkpt><trkpt lat="38.141124101851005" lon="15.458703844747415"><ele>1002.0</ele><time>2026-04-28T12:10:01.001Z</time></trkpt><trkpt lat="38.14102207391102" lon="15.458617176824552"><ele>1002.0</ele><time>2026-04-28T12:10:02.001Z</time></trkpt><trkpt lat="38.14091796511341" lon="15.45853828956496"><ele>1002.0</ele><time>2026-04-28T12:10:03.001Z</time></trkpt><trkpt lat="38.14081556536573" lon="15.458501828258738"><ele>1002.0</ele><time>2026-04-28T12:10:04.001Z</time></trkpt><trkpt lat="38.140736607914114" lon="15.458479888772755"><ele>1002.0</ele><time>2026-04-28T12:10:05.001Z</time></trkpt><trkpt lat="38.14067208717403" lon="15.458415762740978"><ele>1002.0</ele><time>2026-04-28T12:10:06.001Z</time></trkpt><trkpt lat="38.14058521271607" lon="15.458302069305672"><ele>1003.2</ele><time>2026-04-28T12:10:07.001Z</time></trkpt><trkpt lat="38.14050963540306" lon="15.458201761622991"><ele>1004.4000000000001</ele><time>2026-04-28T12:10:08.001Z</time></trkpt><trkpt lat="38.140442358280666" lon="15.458128750575646"><ele>1005.5999999999999</ele><time>2026-04-28T12:10:09.001Z</time></trkpt><trkpt lat="38.140386404818656" lon="15.458033464439039"><ele>1006.8</ele><time>2026-04-28T12:10:10.001Z</time></trkpt><trkpt lat="38.14032109652314" lon="15.457916594598428"><ele>1008.0</ele><time>2026-04-28T12:10:11.001Z</time></trkpt><trkpt lat="38.14024259355093" lon="15.457820140698514"><ele>1008.0</ele><time>2026-04-28T12:10:12.001Z</time></trkpt><trkpt lat="38.14017794548024" lon="15.45775653839988"><ele>1008.0</ele><time>2026-04-28T12:10:13.001Z</time></trkpt><trkpt lat="38.14013190165394" lon="15.457691180013477"><ele>1008.0</ele><time>2026-04-28T12:10:14.001Z</time></trkpt><trkpt lat="38.14010154551142" lon="15.457600921949043"><ele>1008.0</ele><time>2026-04-28T12:10:15.001Z</time></trkpt><trkpt lat="38.14007832360424" lon="15.457482339263796"><ele>1008.0</ele><time>2026-04-28T12:10:16.001Z</time></trkpt><trkpt lat="38.140055241436464" lon="15.457387764704993"><ele>1008.0</ele><time>2026-04-28T12:10:17.001Z</time></trkpt><trkpt lat="38.13997097922719" lon="15.457310041602197"><ele>1008.0</ele><time>2026-04-28T12:10:19.001Z</time></trkpt><trkpt lat="38.13990515799946" lon="15.457309641197643"><ele>1008.0</ele><time>2026-04-28T12:10:20.001Z</time></trkpt><trkpt lat="38.13983356555434" lon="15.45730688851024"><ele>1008.0</ele><time>2026-04-28T12:10:21.001Z</time></trkpt><trkpt lat="38.13975814437327" lon="15.457291100481253"><ele>1008.0</ele><time>2026-04-28T12:10:22.001Z</time></trkpt><trkpt lat="38.1396502301792" lon="15.457215436403127"><ele>1008.0</ele><time>2026-04-28T12:10:24.001Z</time></trkpt><trkpt lat="38.13960713387722" lon="15.457059644568671"><ele>1014.0</ele><time>2026-04-28T12:10:26.001Z</time></trkpt><trkpt lat="38.13959845999082" lon="15.45696027470885"><ele>1020.0</ele><time>2026-04-28T12:10:27.001Z</time></trkpt><trkpt lat="38.13957458113686" lon="15.456882711397514"><ele>1026.0</ele><time>2026-04-28T12:10:28.001Z</time></trkpt><trkpt lat="38.13946556353879" lon="15.456749038978385"><ele>1032.0</ele><time>2026-04-28T12:10:30.001Z</time></trkpt><trkpt lat="38.13935829711249" lon="15.456677675248159"><ele>1038.0</ele><time>2026-04-28T12:10:32.001Z</time></trkpt><trkpt lat="38.139289810951794" lon="15.456669722499864"><ele>1038.0</ele><time>2026-04-28T12:10:33.001Z</time></trkpt><trkpt lat="38.139214999863285" lon="15.456698778590129"><ele>1038.0</ele><time>2026-04-28T12:10:34.001Z</time></trkpt><trkpt lat="38.13913813669272" lon="15.456737080933008"><ele>1038.0</ele><time>2026-04-28T12:10:35.001Z</time></trkpt><trkpt lat="38.139063234020334" lon="15.456773652921987"><ele>1038.0</ele><time>2026-04-28T12:10:36.001Z</time></trkpt><trkpt lat="38.139007550824424" lon="15.456834320007387"><ele>1038.0</ele><time>2026-04-28T12:10:37.001Z</time></trkpt><trkpt lat="38.1389480555517" lon="15.456881414193935"><ele>1038.0</ele><time>2026-04-28T12:10:38.001Z</time></trkpt><trkpt lat="38.13889604655486" lon="15.456936082017936"><ele>1038.4</ele><time>2026-04-28T12:10:39.001Z</time></trkpt><trkpt lat="38.138846706251705" lon="15.45698794220609"><ele>1038.8</ele><time>2026-04-28T12:10:40.001Z</time></trkpt><trkpt lat="38.13874456881905" lon="15.457063730278746"><ele>1039.2</ele><time>2026-04-28T12:10:42.001Z</time></trkpt><trkpt lat="38.138629731668736" lon="15.457095080318014"><ele>1039.6</ele><time>2026-04-28T12:10:44.001Z</time></trkpt><trkpt lat="38.13850329313796" lon="15.457051666271"><ele>1040.0</ele><time>2026-04-28T12:10:46.001Z</time></trkpt><trkpt lat="38.13844284998911" lon="15.457015595856172"><ele>1040.0</ele><time>2026-04-28T12:10:47.001Z</time></trkpt><trkpt lat="38.13838161237717" lon="15.456973435489415"><ele>1040.0</ele><time>2026-04-28T12:10:48.001Z</time></trkpt><trkpt lat="38.13831497444242" lon="15.4569285774312"><ele>1040.0</ele><time>2026-04-28T12:10:49.001Z</time></trkpt><trkpt lat="38.13825064649718" lon="15.456891018164564"><ele>1040.0</ele><time>2026-04-28T12:10:50.001Z</time></trkpt><trkpt lat="38.138171175207795" lon="15.456865803045991"><ele>1040.0</ele><time>2026-04-28T12:10:51.001Z</time></trkpt><trkpt lat="38.13809432182329" lon="15.456856812622956"><ele>1040.0</ele><time>2026-04-28T12:10:52.001Z</time></trkpt><trkpt lat="38.137991452766315" lon="15.456841143811548"><ele>1038.0</ele><time>2026-04-28T12:10:54.001Z</time></trkpt><trkpt lat="38.137868106179546" lon="15.456839425439576"><ele>1036.0</ele><time>2026-04-28T12:10:56.001Z</time></trkpt><trkpt lat="38.137761849736556" lon="15.456853915285047"><ele>1034.0</ele><time>2026-04-28T12:10:57.001Z</time></trkpt><trkpt lat="38.13766666023465" lon="15.456872001314036"><ele>1032.0</ele><time>2026-04-28T12:10:58.001Z</time></trkpt><trkpt lat="38.13758983601294" lon="15.456886160755676"><ele>1030.0</ele><time>2026-04-28T12:10:59.001Z</time></trkpt><trkpt lat="38.13751917898985" lon="15.456889337247706"><ele>1030.0</ele><time>2026-04-28T12:11:00.001Z</time></trkpt><trkpt lat="38.13741820516735" lon="15.456902649009756"><ele>1030.0</ele><time>2026-04-28T12:11:02.001Z</time></trkpt><trkpt lat="38.137361206250716" lon="15.45694097855606"><ele>1030.0</ele><time>2026-04-28T12:11:03.001Z</time></trkpt><trkpt lat="38.13730738928045" lon="15.457005744730111"><ele>1030.0</ele><time>2026-04-28T12:11:04.001Z</time></trkpt><trkpt lat="38.137224858702275" lon="15.457105087282704"><ele>1030.0</ele><time>2026-04-28T12:11:06.001Z</time></trkpt><trkpt lat="38.13712491232056" lon="15.457209406954624"><ele>1030.4</ele><time>2026-04-28T12:11:08.001Z</time></trkpt><trkpt lat="38.13710886686424" lon="15.457354191018464"><ele>1030.8</ele><time>2026-04-28T12:11:10.001Z</time></trkpt><trkpt lat="38.13710093866224" lon="15.457467372450443"><ele>1031.2</ele><time>2026-04-28T12:11:12.001Z</time></trkpt><trkpt lat="38.137078731184836" lon="15.45754909308979"><ele>1031.6</ele><time>2026-04-28T12:11:14.001Z</time></trkpt><trkpt lat="38.13700116357296" lon="15.45759141288458"><ele>1032.0</ele><time>2026-04-28T12:11:16.001Z</time></trkpt><trkpt lat="38.13688945719969" lon="15.45756885589062"><ele>1032.0</ele><time>2026-04-28T12:11:18.001Z</time></trkpt><trkpt lat="38.13682145480453" lon="15.457558835579134"><ele>1032.0</ele><time>2026-04-28T12:11:19.001Z</time></trkpt><trkpt lat="38.136752175265634" lon="15.457561246266435"><ele>1032.0</ele><time>2026-04-28T12:11:20.001Z</time></trkpt><trkpt lat="38.13663399902401" lon="15.457561256150404"><ele>1032.0</ele><time>2026-04-28T12:11:22Z</time></trkpt><trkpt lat="38.13653127813207" lon="15.457579115090018"><ele>1032.0</ele><time>2026-04-28T12:11:24Z</time></trkpt><trkpt lat="38.13647741786414" lon="15.457623484344175"><ele>1032.0</ele><time>2026-04-28T12:11:25Z</time></trkpt><trkpt lat="38.136431772396634" lon="15.457703150763127"><ele>1027.0</ele><time>2026-04-28T12:11:26Z</time></trkpt><trkpt lat="38.13638658071122" lon="15.457794079960335"><ele>1022.0</ele><time>2026-04-28T12:11:27Z</time></trkpt><trkpt lat="38.13633943618457" lon="15.457895452209073"><ele>1017.0</ele><time>2026-04-28T12:11:28Z</time></trkpt><trkpt lat="38.1362851490952" lon="15.457985288490065"><ele>1012.0</ele><time>2026-04-28T12:11:29Z</time></trkpt><trkpt lat="38.136232290121846" lon="15.458041010494942"><ele>1007.0</ele><time>2026-04-28T12:11:30Z</time></trkpt><trkpt lat="38.13616977687508" lon="15.45815962681983"><ele>1002.0</ele><time>2026-04-28T12:11:32Z</time></trkpt><trkpt lat="38.136128875554355" lon="15.458238844480572"><ele>1001.5</ele><time>2026-04-28T12:11:33Z</time></trkpt><trkpt lat="38.13608544428922" lon="15.458300500398867"><ele>1001.0</ele><time>2026-04-28T12:11:34Z</time></trkpt><trkpt lat="38.13603207627161" lon="15.45843044643609"><ele>1000.5</ele><time>2026-04-28T12:11:36Z</time></trkpt><trkpt lat="38.136016783134075" lon="15.458554006590303"><ele>1000.0</ele><time>2026-04-28T12:11:38Z</time></trkpt><trkpt lat="38.13596790324937" lon="15.458621891149077"><ele>999.5</ele><time>2026-04-28T12:11:41Z</time></trkpt><trkpt lat="38.13589229618159" lon="15.458548983197074"><ele>999.0</ele><time>2026-04-28T12:11:43Z</time></trkpt><trkpt lat="38.13588043892655" lon="15.45846181123451"><ele>999.0</ele><time>2026-04-28T12:11:44Z</time></trkpt><trkpt lat="38.13588801163155" lon="15.45836383605042"><ele>999.0</ele><time>2026-04-28T12:11:45Z</time></trkpt><trkpt lat="38.13589630311945" lon="15.458266084451115"><ele>999.0</ele><time>2026-04-28T12:11:46Z</time></trkpt><trkpt lat="38.13590521626698" lon="15.458166112464152"><ele>999.0</ele><time>2026-04-28T12:11:47Z</time></trkpt><trkpt lat="38.13591824998644" lon="15.458070043106927"><ele>999.0</ele><time>2026-04-28T12:11:48Z</time></trkpt><trkpt lat="38.135932332139646" lon="15.457978660994197"><ele>999.0</ele><time>2026-04-28T12:11:49Z</time></trkpt><trkpt lat="38.13593182911072" lon="15.457890392674598"><ele>999.5</ele><time>2026-04-28T12:11:50Z</time></trkpt><trkpt lat="38.135948453878676" lon="15.457795407249055"><ele>1000.0</ele><time>2026-04-28T12:11:51Z</time></trkpt><trkpt lat="38.13595597127893" lon="15.457685543710467"><ele>1000.5</ele><time>2026-04-28T12:11:52Z</time></trkpt><trkpt lat="38.13596166370401" lon="15.457587380570038"><ele>1001.0</ele><time>2026-04-28T12:11:53Z</time></trkpt><trkpt lat="38.1359721593885" lon="15.4574899866567"><ele>1001.5</ele><time>2026-04-28T12:11:54Z</time></trkpt><trkpt lat="38.135989953865995" lon="15.4573248045449"><ele>1002.0</ele><time>2026-04-28T12:11:56Z</time></trkpt><trkpt lat="38.13599521076027" lon="15.457240626653537"><ele>1002.0</ele><time>2026-04-28T12:11:57Z</time></trkpt><trkpt lat="38.136010816903" lon="15.457155948138142"><ele>1002.0</ele><time>2026-04-28T12:11:58Z</time></trkpt><trkpt lat="38.13603508514798" lon="15.457077864903695"><ele>1002.0</ele><time>2026-04-28T12:11:59Z</time></trkpt><trkpt lat="38.136051508590796" lon="15.456995286056067"><ele>1002.0</ele><time>2026-04-28T12:12:00Z</time></trkpt><trkpt lat="38.136050471757585" lon="15.456908626208074"><ele>1002.0</ele><time>2026-04-28T12:12:01.001Z</time></trkpt><trkpt lat="38.136046295153776" lon="15.456817296215116"><ele>1002.0</ele><time>2026-04-28T12:12:02.001Z</time></trkpt><trkpt lat="38.136032166206995" lon="15.45673522144185"><ele>1002.0</ele><time>2026-04-28T12:12:03.001Z</time></trkpt><trkpt lat="38.13599662460655" lon="15.456603402871828"><ele>1001.8571428571429</ele><time>2026-04-28T12:12:05.001Z</time></trkpt><trkpt lat="38.13595318972318" lon="15.456535103283676"><ele>1001.7142857142857</ele><time>2026-04-28T12:12:06.001Z</time></trkpt><trkpt lat="38.13588899746916" lon="15.45648370809083"><ele>1001.5714285714286</ele><time>2026-04-28T12:12:07.001Z</time></trkpt><trkpt lat="38.13581834653709" lon="15.456450955285996"><ele>1001.4285714285714</ele><time>2026-04-28T12:12:08.001Z</time></trkpt><trkpt lat="38.13575694392124" lon="15.4564119390457"><ele>1001.2857142857142</ele><time>2026-04-28T12:12:09.001Z</time></trkpt><trkpt lat="38.1356945311142" lon="15.456364907103712"><ele>1001.1428571428571</ele><time>2026-04-28T12:12:10.001Z</time></trkpt><trkpt lat="38.135636992614366" lon="15.456312685690948"><ele>1001.0</ele><time>2026-04-28T12:12:11.001Z</time></trkpt><trkpt lat="38.13557955583987" lon="15.45625851119986"><ele>997.0000000000001</ele><time>2026-04-28T12:12:12.001Z</time></trkpt><trkpt lat="38.13550888367232" lon="15.45621017975071"><ele>993.0</ele><time>2026-04-28T12:12:13.001Z</time></trkpt><trkpt lat="38.13544182820911" lon="15.456164977626754"><ele>989.0</ele><time>2026-04-28T12:12:14.001Z</time></trkpt><trkpt lat="38.13538303420117" lon="15.45612594420675"><ele>985.0</ele><time>2026-04-28T12:12:15.001Z</time></trkpt><trkpt lat="38.135297001447235" lon="15.45600203882743"><ele>981.0000000000001</ele><time>2026-04-28T12:12:17.001Z</time></trkpt><trkpt lat="38.13526520319958" lon="15.455925979374415"><ele>977.0</ele><time>2026-04-28T12:12:18.001Z</time></trkpt><trkpt lat="38.13523558037481" lon="15.455849649777177"><ele>977.0000000000001</ele><time>2026-04-28T12:12:19.001Z</time></trkpt><trkpt lat="38.135214650199735" lon="15.455767061595314"><ele>977.0</ele><time>2026-04-28T12:12:20.001Z</time></trkpt><trkpt lat="38.135188494620486" lon="15.455684535463"><ele>977.0000000000001</ele><time>2026-04-28T12:12:21.001Z</time></trkpt><trkpt lat="38.13515704137708" lon="15.455611986542099"><ele>977.0000000000001</ele><time>2026-04-28T12:12:22.001Z</time></trkpt><trkpt lat="38.135110912527544" lon="15.45553590317391"><ele>977.0</ele><time>2026-04-28T12:12:23.001Z</time></trkpt><trkpt lat="38.13506561819251" lon="15.455441706654828"><ele>977.0000000000001</ele><time>2026-04-28T12:12:24.001Z</time></trkpt><trkpt lat="38.13502543921304" lon="15.455349914883223"><ele>977.0000000000001</ele><time>2026-04-28T12:12:25.001Z</time></trkpt><trkpt lat="38.13497619967073" lon="15.455260120957455"><ele>978.5000000000001</ele><time>2026-04-28T12:12:26.001Z</time></trkpt><trkpt lat="38.13493249104276" lon="15.45517829496615"><ele>980.0</ele><time>2026-04-28T12:12:27.001Z</time></trkpt><trkpt lat="38.134887721588846" lon="15.455099853917012"><ele>981.5</ele><time>2026-04-28T12:12:28.001Z</time></trkpt><trkpt lat="38.134837870468566" lon="15.455027576415956"><ele>983.0</ele><time>2026-04-28T12:12:29.001Z</time></trkpt><trkpt lat="38.134786096349934" lon="15.454954183066967"><ele>984.5000000000001</ele><time>2026-04-28T12:12:30.001Z</time></trkpt><trkpt lat="38.13472941367536" lon="15.454877398510181"><ele>986.0</ele><time>2026-04-28T12:12:31.001Z</time></trkpt><trkpt lat="38.13466178850907" lon="15.45478515872147"><ele>984.6666666666667</ele><time>2026-04-28T12:12:32.001Z</time></trkpt><trkpt lat="38.13459098954389" lon="15.454698589686855"><ele>983.3333333333334</ele><time>2026-04-28T12:12:33.001Z</time></trkpt><trkpt lat="38.13452403384128" lon="15.454629002864339"><ele>982.0</ele><time>2026-04-28T12:12:34.001Z</time></trkpt><trkpt lat="38.13447521803589" lon="15.45455831841144"><ele>980.6666666666667</ele><time>2026-04-28T12:12:35.001Z</time></trkpt><trkpt lat="38.1344315467426" lon="15.454461272127205"><ele>979.3333333333334</ele><time>2026-04-28T12:12:36.001Z</time></trkpt><trkpt lat="38.13440340680812" lon="15.454352487368752"><ele>978.0</ele><time>2026-04-28T12:12:37.001Z</time></trkpt><trkpt lat="38.1343889555238" lon="15.454236344839996"><ele>978.0</ele><time>2026-04-28T12:12:38.001Z</time></trkpt><trkpt lat="38.134371820652476" lon="15.454123252069918"><ele>978.0</ele><time>2026-04-28T12:12:39.001Z</time></trkpt><trkpt lat="38.13435263689828" lon="15.454029468786814"><ele>978.0</ele><time>2026-04-28T12:12:40Z</time></trkpt><trkpt lat="38.134340405063575" lon="15.453941622069621"><ele>978.0</ele><time>2026-04-28T12:12:41Z</time></trkpt><trkpt lat="38.13429741852356" lon="15.453799990154433"><ele>978.0</ele><time>2026-04-28T12:12:43Z</time></trkpt><trkpt lat="38.134249784013086" lon="15.45373716325926"><ele>978.0</ele><time>2026-04-28T12:12:44Z</time></trkpt><trkpt lat="38.13419143998865" lon="15.45369586049619"><ele>975.1666666666666</ele><time>2026-04-28T12:12:45Z</time></trkpt><trkpt lat="38.13409538818266" lon="15.453647349175757"><ele>972.3333333333333</ele><time>2026-04-28T12:12:47Z</time></trkpt><trkpt lat="38.13409256951519" lon="15.453546547195836"><ele>969.5</ele><time>2026-04-28T12:12:49Z</time></trkpt><trkpt lat="38.134182315759794" lon="15.45352417236259"><ele>966.6666666666666</ele><time>2026-04-28T12:12:51Z</time></trkpt><trkpt lat="38.13422921361758" lon="15.453578761413604"><ele>963.8333333333333</ele><time>2026-04-28T12:12:52Z</time></trkpt><trkpt lat="38.13428319625239" lon="15.453652290809742"><ele>961.0</ele><time>2026-04-28T12:12:53Z</time></trkpt><trkpt lat="38.13434191650262" lon="15.453714484055753"><ele>960.9999999999999</ele><time>2026-04-28T12:12:54Z</time></trkpt><trkpt lat="38.13439498565459" lon="15.453770350702023"><ele>961.0</ele><time>2026-04-28T12:12:55Z</time></trkpt><trkpt lat="38.13443511169725" lon="15.453834384752371"><ele>961.0</ele><time>2026-04-28T12:12:56Z</time></trkpt><trkpt lat="38.13446103080915" lon="15.453927690310367"><ele>961.0</ele><time>2026-04-28T12:12:57Z</time></trkpt><trkpt lat="38.13447501531297" lon="15.45402690836029"><ele>960.9999999999999</ele><time>2026-04-28T12:12:58Z</time></trkpt><trkpt lat="38.134513498440505" lon="15.454137909439984"><ele>961.0</ele><time>2026-04-28T12:12:59Z</time></trkpt><trkpt lat="38.13454849149147" lon="15.454225914353207"><ele>964.4</ele><time>2026-04-28T12:13:00Z</time></trkpt><trkpt lat="38.13458083873921" lon="15.454357434043123"><ele>967.8</ele><time>2026-04-28T12:13:02Z</time></trkpt><trkpt lat="38.134652582879546" lon="15.454412780686457"><ele>971.1999999999999</ele><time>2026-04-28T12:13:04Z</time></trkpt><trkpt lat="38.13471391583831" lon="15.454313503723272"><ele>974.5999999999999</ele><time>2026-04-28T12:13:06Z</time></trkpt><trkpt lat="38.134691036656335" lon="15.454234189096308"><ele>978.0</ele><time>2026-04-28T12:13:07Z</time></trkpt><trkpt lat="38.13458766919054" lon="15.454110322601748"><ele>978.0</ele><time>2026-04-28T12:13:09Z</time></trkpt><trkpt lat="38.13454869302146" lon="15.454031392585724"><ele>978.0</ele><time>2026-04-28T12:13:10Z</time></trkpt><trkpt lat="38.13452470871864" lon="15.453939024657583"><ele>978.0</ele><time>2026-04-28T12:13:11Z</time></trkpt><trkpt lat="38.13451146264227" lon="15.453825225233356"><ele>978.0</ele><time>2026-04-28T12:13:12Z</time></trkpt><trkpt lat="38.13450070273696" lon="15.453726930483816"><ele>978.0</ele><time>2026-04-28T12:13:13Z</time></trkpt><trkpt lat="38.134480706860366" lon="15.453641009030635"><ele>978.0</ele><time>2026-04-28T12:13:14Z</time></trkpt><trkpt lat="38.134449382728384" lon="15.453570503853808"><ele>975.1666666666666</ele><time>2026-04-28T12:13:15Z</time></trkpt><trkpt lat="38.134403653999065" lon="15.453506414992663"><ele>972.3333333333333</ele><time>2026-04-28T12:13:16Z</time></trkpt><trkpt lat="38.134351663307946" lon="15.453435825968894"><ele>969.5</ele><time>2026-04-28T12:13:17Z</time></trkpt><trkpt lat="38.13428978671112" lon="15.453357418505645"><ele>966.6666666666666</ele><time>2026-04-28T12:13:18Z</time></trkpt><trkpt lat="38.1342432568862" lon="15.453277202772506"><ele>963.8333333333333</ele><time>2026-04-28T12:13:19Z</time></trkpt><trkpt lat="38.13419748518593" lon="15.453215692183923"><ele>961.0</ele><time>2026-04-28T12:13:20Z</time></trkpt><trkpt lat="38.134105230866126" lon="15.453126607099296"><ele>960.1666666666666</ele><time>2026-04-28T12:13:22Z</time></trkpt><trkpt lat="38.134038189633266" lon="15.453115015728836"><ele>959.3333333333333</ele><time>2026-04-28T12:13:23Z</time></trkpt><trkpt lat="38.13397519618195" lon="15.453145154415095"><ele>958.5</ele><time>2026-04-28T12:13:24Z</time></trkpt><trkpt lat="38.13391939734436" lon="15.45322455876886"><ele>957.6666666666667</ele><time>2026-04-28T12:13:25Z</time></trkpt><trkpt lat="38.13385853862613" lon="15.453323768703255"><ele>956.8333333333334</ele><time>2026-04-28T12:13:26Z</time></trkpt><trkpt lat="38.133805785355335" lon="15.453396715507077"><ele>956.0</ele><time>2026-04-28T12:13:27Z</time></trkpt><trkpt lat="38.13375129538989" lon="15.45344098207785"><ele>956.0000000000001</ele><time>2026-04-28T12:13:28Z</time></trkpt><trkpt lat="38.133649874194894" lon="15.453497483063018"><ele>956.0</ele><time>2026-04-28T12:13:29Z</time></trkpt><trkpt lat="38.133568086017235" lon="15.45353339690875"><ele>956.0</ele><time>2026-04-28T12:13:30Z</time></trkpt><trkpt lat="38.13348565985907" lon="15.453548020677323"><ele>956.0</ele><time>2026-04-28T12:13:31Z</time></trkpt><trkpt lat="38.13340525569831" lon="15.453525827830688"><ele>956.0000000000001</ele><time>2026-04-28T12:13:32Z</time></trkpt><trkpt lat="38.133323417941384" lon="15.453496478662638"><ele>956.0</ele><time>2026-04-28T12:13:33Z</time></trkpt><trkpt lat="38.13322356588857" lon="15.453460668268463"><ele>953.6666666666667</ele><time>2026-04-28T12:13:34Z</time></trkpt><trkpt lat="38.133127667259686" lon="15.45341640112139"><ele>951.3333333333334</ele><time>2026-04-28T12:13:35Z</time></trkpt><trkpt lat="38.13303747853944" lon="15.453371717123202"><ele>949.0</ele><time>2026-04-28T12:13:36Z</time></trkpt><trkpt lat="38.13298528238801" lon="15.45332669520913"><ele>946.6666666666667</ele><time>2026-04-28T12:13:37Z</time></trkpt><trkpt lat="38.13291016180132" lon="15.453325748214352"><ele>944.3333333333334</ele><time>2026-04-28T12:13:39Z</time></trkpt><trkpt lat="38.13282750402151" lon="15.45325961351324"><ele>942.0</ele><time>2026-04-28T12:13:41Z</time></trkpt><trkpt lat="38.13274883275819" lon="15.45319418193522"><ele>942.0</ele><time>2026-04-28T12:13:42Z</time></trkpt><trkpt lat="38.13268090088778" lon="15.453133247966754"><ele>942.0</ele><time>2026-04-28T12:13:43Z</time></trkpt><trkpt lat="38.132615435104825" lon="15.453088924581511"><ele>942.0</ele><time>2026-04-28T12:13:44Z</time></trkpt><trkpt lat="38.13248709367121" lon="15.45299090338072"><ele>942.0</ele><time>2026-04-28T12:13:47Z</time></trkpt><trkpt lat="38.132409605381824" lon="15.452956531668425"><ele>942.0</ele><time>2026-04-28T12:14:04Z</time></trkpt><trkpt lat="38.132346268259035" lon="15.452923915197367"><ele>942.3333333333334</ele><time>2026-04-28T12:14:50Z</time></trkpt><trkpt lat="38.13228473390982" lon="15.45282267071909"><ele>942.6666666666667</ele><time>2026-04-28T12:15:24Z</time></trkpt><trkpt lat="38.13222227387968" lon="15.452782023398667"><ele>943.0</ele><time>2026-04-28T12:17:00Z</time></trkpt><trkpt lat="38.1321857913594" lon="15.452705733326033"><ele>943.3333333333334</ele><time>2026-04-28T12:18:12Z</time></trkpt><trkpt lat="38.132168561009294" lon="15.452616208646722"><ele>943.6666666666667</ele><time>2026-04-28T12:18:15Z</time></trkpt><trkpt lat="38.13213948209229" lon="15.452534563834542"><ele>944.0</ele><time>2026-04-28T12:18:24Z</time></trkpt><trkpt lat="38.1320752792654" lon="15.452465372753679"><ele>944.0000000000001</ele><time>2026-04-28T12:18:27Z</time></trkpt><trkpt lat="38.13200176332463" lon="15.452385790728663"><ele>944.0</ele><time>2026-04-28T12:18:29Z</time></trkpt><trkpt lat="38.13191432139327" lon="15.452336702351944"><ele>944.0</ele><time>2026-04-28T12:18:31Z</time></trkpt><trkpt lat="38.1318258329715" lon="15.452364823695683"><ele>944.0</ele><time>2026-04-28T12:18:33Z</time></trkpt><trkpt lat="38.13175611430369" lon="15.452397912056757"><ele>944.0000000000001</ele><time>2026-04-28T12:18:35Z</time></trkpt><trkpt lat="38.13168024452566" lon="15.452439872200317"><ele>944.0</ele><time>2026-04-28T12:18:37Z</time></trkpt><trkpt lat="38.13162266171378" lon="15.45249662234031"><ele>944.0000000000001</ele><time>2026-04-28T12:18:40Z</time></trkpt><trkpt lat="38.13157161886599" lon="15.452565670440421"><ele>944.0</ele><time>2026-04-28T12:18:43Z</time></trkpt><trkpt lat="38.13152730645896" lon="15.452634240108617"><ele>944.0</ele><time>2026-04-28T12:18:45Z</time></trkpt><trkpt lat="38.13144708594579" lon="15.45268375561915"><ele>944.0</ele><time>2026-04-28T12:18:48Z</time></trkpt><trkpt lat="38.13137999832755" lon="15.452638035650917"><ele>944.0000000000001</ele><time>2026-04-28T12:18:50Z</time></trkpt><trkpt lat="38.131418001017295" lon="15.452527202950865"><ele>944.0</ele><time>2026-04-28T12:18:51Z</time></trkpt><trkpt lat="38.13143670592582" lon="15.452440519261067"><ele>944.0000000000001</ele><time>2026-04-28T12:18:52Z</time></trkpt><trkpt lat="38.13147560781473" lon="15.452365328569783"><ele>944.0</ele><time>2026-04-28T12:18:53Z</time></trkpt><trkpt lat="38.13151680066581" lon="15.452304257291868"><ele>944.0</ele><time>2026-04-28T12:18:54Z</time></trkpt><trkpt lat="38.131562659302716" lon="15.452220978886489"><ele>944.0</ele><time>2026-04-28T12:18:55Z</time></trkpt><trkpt lat="38.13161870263165" lon="15.452124825857311"><ele>944.0000000000001</ele><time>2026-04-28T12:18:56Z</time></trkpt><trkpt lat="38.131681779059434" lon="15.45204799382598"><ele>944.0</ele><time>2026-04-28T12:18:57Z</time></trkpt><trkpt lat="38.13174504286653" lon="15.451988811293145"><ele>940.8333333333334</ele><time>2026-04-28T12:18:58Z</time></trkpt><trkpt lat="38.13180875502405" lon="15.451942858971872"><ele>937.6666666666667</ele><time>2026-04-28T12:18:59Z</time></trkpt><trkpt lat="38.131872061989405" lon="15.451933832518097"><ele>934.5</ele><time>2026-04-28T12:19:00Z</time></trkpt><trkpt lat="38.13194358985684" lon="15.451950410819212"><ele>931.3333333333333</ele><time>2026-04-28T12:19:01Z</time></trkpt><trkpt lat="38.13202204822454" lon="15.451918663724319"><ele>928.1666666666666</ele><time>2026-04-28T12:19:03Z</time></trkpt><trkpt lat="38.13200950147528" lon="15.451810348353314"><ele>925.0</ele><time>2026-04-28T12:19:05Z</time></trkpt><trkpt lat="38.13191056475881" lon="15.451796894363827"><ele>925.0</ele><time>2026-04-28T12:19:07Z</time></trkpt><trkpt lat="38.13179349457163" lon="15.451849870170275"><ele>925.0</ele><time>2026-04-28T12:19:09Z</time></trkpt><trkpt lat="38.13170177146428" lon="15.45191591165421"><ele>925.0</ele><time>2026-04-28T12:19:11Z</time></trkpt><trkpt lat="38.13163746793943" lon="15.451953397393622"><ele>925.0</ele><time>2026-04-28T12:19:12Z</time></trkpt><trkpt lat="38.131531392246266" lon="15.452036049309163"><ele>925.0</ele><time>2026-04-28T12:19:14Z</time></trkpt><trkpt lat="38.13146523069352" lon="15.45207172682384"><ele>924.3333333333333</ele><time>2026-04-28T12:19:15Z</time></trkpt><trkpt lat="38.13141386725385" lon="15.45213077786525"><ele>923.6666666666666</ele><time>2026-04-28T12:19:16Z</time></trkpt><trkpt lat="38.13133950357677" lon="15.452180277256028"><ele>923.0</ele><time>2026-04-28T12:19:17Z</time></trkpt><trkpt lat="38.13126633609675" lon="15.4522390552551"><ele>922.3333333333333</ele><time>2026-04-28T12:19:18Z</time></trkpt><trkpt lat="38.131209140997626" lon="15.452309910620741"><ele>921.6666666666666</ele><time>2026-04-28T12:19:19Z</time></trkpt><trkpt lat="38.13116544564777" lon="15.452386208019297"><ele>921.0</ele><time>2026-04-28T12:19:20Z</time></trkpt><trkpt lat="38.13112724957721" lon="15.45247459504111"><ele>921.0</ele><time>2026-04-28T12:19:21Z</time></trkpt><trkpt lat="38.13109354305942" lon="15.45256267495513"><ele>921.0</ele><time>2026-04-28T12:19:22Z</time></trkpt><trkpt lat="38.13108889706308" lon="15.452646067320664"><ele>921.0</ele><time>2026-04-28T12:19:23Z</time></trkpt><trkpt lat="38.131076764002714" lon="15.452771441215676"><ele>921.0</ele><time>2026-04-28T12:19:25Z</time></trkpt><trkpt lat="38.13100807272956" lon="15.45282313639863"><ele>921.0</ele><time>2026-04-28T12:19:27Z</time></trkpt><trkpt lat="38.13092511858139" lon="15.452763697839112"><ele>921.0</ele><time>2026-04-28T12:19:29Z</time></trkpt><trkpt lat="38.13093879441425" lon="15.452629086413578"><ele>921.0</ele><time>2026-04-28T12:19:31Z</time></trkpt><trkpt lat="38.13094198226084" lon="15.452519707248817"><ele>920.9999999999999</ele><time>2026-04-28T12:19:32Z</time></trkpt><trkpt lat="38.130957954688405" lon="15.45238883081809"><ele>920.9999999999999</ele><time>2026-04-28T12:19:33Z</time></trkpt><trkpt lat="38.13100440711734" lon="15.45222084684969"><ele>921.0</ele><time>2026-04-28T12:19:35Z</time></trkpt><trkpt lat="38.13103946799741" lon="15.452141635878954"><ele>921.0</ele><time>2026-04-28T12:19:36Z</time></trkpt><trkpt lat="38.131080440747155" lon="15.452063659719744"><ele>918.6666666666666</ele><time>2026-04-28T12:19:37Z</time></trkpt><trkpt lat="38.13114737840005" lon="15.45195230903523"><ele>916.3333333333333</ele><time>2026-04-28T12:19:39Z</time></trkpt><trkpt lat="38.13119395851683" lon="15.451868827629115"><ele>914.0</ele><time>2026-04-28T12:19:41Z</time></trkpt><trkpt lat="38.13123784792599" lon="15.451804415104183"><ele>911.6666666666666</ele><time>2026-04-28T12:20:05Z</time></trkpt><trkpt lat="38.13129466506186" lon="15.45176351003093"><ele>909.3333333333333</ele><time>2026-04-28T12:20:08Z</time></trkpt><trkpt lat="38.13132556278878" lon="15.45167427625235"><ele>907.0</ele><time>2026-04-28T12:20:42Z</time></trkpt><trkpt lat="38.131377093563636" lon="15.451610485947192"><ele>906.9999999999999</ele><time>2026-04-28T12:20:45Z</time></trkpt><trkpt lat="38.13142196344376" lon="15.451538055505994"><ele>907.0</ele><time>2026-04-28T12:20:49Z</time></trkpt><trkpt lat="38.131461564502835" lon="15.451471479766322"><ele>907.0</ele><time>2026-04-28T12:20:51Z</time></trkpt><trkpt lat="38.131519886101906" lon="15.45139527742045"><ele>907.0</ele><time>2026-04-28T12:20:53Z</time></trkpt><trkpt lat="38.13158827352126" lon="15.451302410483517"><ele>906.9999999999999</ele><time>2026-04-28T12:20:55Z</time></trkpt><trkpt lat="38.13169605237829" lon="15.451239163206026"><ele>907.0</ele><time>2026-04-28T12:20:57Z</time></trkpt><trkpt lat="38.13177190459615" lon="15.451218590359096"><ele>906.8</ele><time>2026-04-28T12:20:58Z</time></trkpt><trkpt lat="38.13187780388752" lon="15.451218709380392"><ele>906.6</ele><time>2026-04-28T12:21:00Z</time></trkpt><trkpt lat="38.13191661410086" lon="15.451104988992688"><ele>906.3999999999999</ele><time>2026-04-28T12:21:03Z</time></trkpt><trkpt lat="38.13181568587265" lon="15.451059448545308"><ele>906.1999999999999</ele><time>2026-04-28T12:21:05Z</time></trkpt><trkpt lat="38.131722160688874" lon="15.451076818639141"><ele>906.0</ele><time>2026-04-28T12:21:06Z</time></trkpt><trkpt lat="38.131628992158944" lon="15.451109713876056"><ele>906.1666666666666</ele><time>2026-04-28T12:21:07Z</time></trkpt><trkpt lat="38.13154295717191" lon="15.45114830237465"><ele>906.3333333333333</ele><time>2026-04-28T12:21:08Z</time></trkpt><trkpt lat="38.13146258614526" lon="15.451169040869855"><ele>906.5</ele><time>2026-04-28T12:21:09Z</time></trkpt><trkpt lat="38.13137847651893" lon="15.451202638050018"><ele>906.6666666666666</ele><time>2026-04-28T12:21:10Z</time></trkpt><trkpt lat="38.1312945647659" lon="15.451241185324422"><ele>906.8333333333333</ele><time>2026-04-28T12:21:11Z</time></trkpt><trkpt lat="38.131212452250985" lon="15.451285778225408"><ele>907.0</ele><time>2026-04-28T12:21:12Z</time></trkpt><trkpt lat="38.13113897889898" lon="15.45134022338246"><ele>906.9999999999999</ele><time>2026-04-28T12:21:13Z</time></trkpt><trkpt lat="38.131066406354606" lon="15.451406511865356"><ele>907.0</ele><time>2026-04-28T12:21:14Z</time></trkpt><trkpt lat="38.13099600586213" lon="15.451490800665212"><ele>907.0</ele><time>2026-04-28T12:21:15Z</time></trkpt><trkpt lat="38.13093094628596" lon="15.451568146712127"><ele>907.0</ele><time>2026-04-28T12:21:16Z</time></trkpt><trkpt lat="38.13087494612628" lon="15.451634537802084"><ele>906.9999999999999</ele><time>2026-04-28T12:21:17Z</time></trkpt><trkpt lat="38.13081662442747" lon="15.451710911484781"><ele>907.0</ele><time>2026-04-28T12:21:19Z</time></trkpt><trkpt lat="38.13074051658409" lon="15.451734475167127"><ele>907.0</ele><time>2026-04-28T12:21:23Z</time></trkpt><trkpt lat="38.13075765316685" lon="15.451633419949824"><ele>907.0</ele><time>2026-04-28T12:21:25Z</time></trkpt><trkpt lat="38.1308617321737" lon="15.451495012694867"><ele>907.0</ele><time>2026-04-28T12:21:27Z</time></trkpt><trkpt lat="38.130935911310374" lon="15.45138262244294"><ele>907.0</ele><time>2026-04-28T12:21:28Z</time></trkpt><trkpt lat="38.13101456231116" lon="15.451251142635112"><ele>902.75</ele><time>2026-04-28T12:21:29Z</time></trkpt><trkpt lat="38.131086935550016" lon="15.451118178579707"><ele>898.5</ele><time>2026-04-28T12:21:30Z</time></trkpt><trkpt lat="38.131160810235144" lon="15.450998049129293"><ele>894.25</ele><time>2026-04-28T12:21:31Z</time></trkpt><trkpt lat="38.1312300273551" lon="15.450879926030698"><ele>890.0</ele><time>2026-04-28T12:21:32Z</time></trkpt><trkpt lat="38.13129185978751" lon="15.450772951293596"><ele>890.0000000000001</ele><time>2026-04-28T12:21:33Z</time></trkpt><trkpt lat="38.13134789998597" lon="15.450684606006819"><ele>890.0</ele><time>2026-04-28T12:21:34Z</time></trkpt><trkpt lat="38.13138184099722" lon="15.450616096128833"><ele>890.0</ele><time>2026-04-28T12:21:35Z</time></trkpt><trkpt lat="38.131413062483574" lon="15.450543192922645"><ele>890.0</ele><time>2026-04-28T12:21:36Z</time></trkpt><trkpt lat="38.13143626982797" lon="15.450389808591016"><ele>890.0000000000001</ele><time>2026-04-28T12:21:38Z</time></trkpt><trkpt lat="38.13138864127269" lon="15.45030628430812"><ele>890.0</ele><time>2026-04-28T12:21:39Z</time></trkpt><trkpt lat="38.131306422005665" lon="15.450238062810554"><ele>892.75</ele><time>2026-04-28T12:21:40Z</time></trkpt><trkpt lat="38.13120325396101" lon="15.450196179782719"><ele>895.5</ele><time>2026-04-28T12:21:41Z</time></trkpt><trkpt lat="38.1310905384152" lon="15.450184830225608"><ele>898.25</ele><time>2026-04-28T12:21:42Z</time></trkpt><trkpt lat="38.130951859708475" lon="15.450127069235572"><ele>901.0</ele><time>2026-04-28T12:21:43Z</time></trkpt><trkpt lat="38.13080707722124" lon="15.450056356067996"><ele>902.4</ele><time>2026-04-28T12:21:44Z</time></trkpt><trkpt lat="38.13068394152145" lon="15.450023851951151"><ele>903.8</ele><time>2026-04-28T12:21:45Z</time></trkpt><trkpt lat="38.130553431095365" lon="15.449995970802886"><ele>905.1999999999999</ele><time>2026-04-28T12:21:46Z</time></trkpt><trkpt lat="38.13046823016051" lon="15.449983586507164"><ele>906.5999999999999</ele><time>2026-04-28T12:21:47Z</time></trkpt><trkpt lat="38.130382855272465" lon="15.450026762799945"><ele>908.0</ele><time>2026-04-28T12:21:48Z</time></trkpt><trkpt lat="38.13028551453195" lon="15.450092702257932"><ele>908.0</ele><time>2026-04-28T12:21:49Z</time></trkpt><trkpt lat="38.130163734120586" lon="15.450201258967228"><ele>908.0</ele><time>2026-04-28T12:21:50Z</time></trkpt><trkpt lat="38.13005630651312" lon="15.450299869914877"><ele>908.0</ele><time>2026-04-28T12:21:51Z</time></trkpt><trkpt lat="38.12997569686284" lon="15.450334664826565"><ele>908.0</ele><time>2026-04-28T12:21:52Z</time></trkpt><trkpt lat="38.12986231904243" lon="15.450304001592894"><ele>905.4</ele><time>2026-04-28T12:21:54Z</time></trkpt><trkpt lat="38.129791062048994" lon="15.45024848885989"><ele>902.8</ele><time>2026-04-28T12:21:55Z</time></trkpt><trkpt lat="38.129682495741555" lon="15.450177512732187"><ele>900.2</ele><time>2026-04-28T12:21:56Z</time></trkpt><trkpt lat="38.12962313768529" lon="15.450125252895239"><ele>897.6</ele><time>2026-04-28T12:21:57Z</time></trkpt><trkpt lat="38.12950442765867" lon="15.450049275459797"><ele>895.0</ele><time>2026-04-28T12:21:58Z</time></trkpt><trkpt lat="38.12938930204696" lon="15.449998083991208"><ele>895.0</ele><time>2026-04-28T12:21:59Z</time></trkpt><trkpt lat="38.129263411774524" lon="15.449980149439007"><ele>895.0</ele><time>2026-04-28T12:22:00Z</time></trkpt><trkpt lat="38.129159359328604" lon="15.449969295576317"><ele>895.0</ele><time>2026-04-28T12:22:01Z</time></trkpt><trkpt lat="38.129029869570495" lon="15.449966848900997"><ele>895.0</ele><time>2026-04-28T12:22:02Z</time></trkpt><trkpt lat="38.12890208333384" lon="15.450040352674844"><ele>895.6666666666666</ele><time>2026-04-28T12:22:03Z</time></trkpt><trkpt lat="38.128745755092844" lon="15.450081622935624"><ele>896.3333333333333</ele><time>2026-04-28T12:22:04Z</time></trkpt><trkpt lat="38.12860877635584" lon="15.450166918688371"><ele>897.0</ele><time>2026-04-28T12:22:05Z</time></trkpt><trkpt lat="38.128463151502906" lon="15.450237131671482"><ele>897.0</ele><time>2026-04-28T12:22:06Z</time></trkpt><trkpt lat="38.128337881749694" lon="15.450291385930791"><ele>897.0</ele><time>2026-04-28T12:22:07Z</time></trkpt><trkpt lat="38.12822950870011" lon="15.450340848582798"><ele>897.0</ele><time>2026-04-28T12:22:08Z</time></trkpt><trkpt lat="38.12815665231107" lon="15.450373160046194"><ele>897.0</ele><time>2026-04-28T12:22:09Z</time></trkpt><trkpt lat="38.12804418195624" lon="15.450382489682218"><ele>897.0</ele><time>2026-04-28T12:22:11Z</time></trkpt><trkpt lat="38.127965000994166" lon="15.45032908207983"><ele>897.2</ele><time>2026-04-28T12:22:12Z</time></trkpt><trkpt lat="38.12789312320919" lon="15.45023624421357"><ele>897.4000000000001</ele><time>2026-04-28T12:22:13Z</time></trkpt><trkpt lat="38.12782546284027" lon="15.450157674386052"><ele>897.5999999999999</ele><time>2026-04-28T12:22:14Z</time></trkpt><trkpt lat="38.127762987923234" lon="15.450113932473629"><ele>897.8</ele><time>2026-04-28T12:22:15Z</time></trkpt><trkpt lat="38.12766556467874" lon="15.450050924205707"><ele>898.0</ele><time>2026-04-28T12:22:16Z</time></trkpt><trkpt lat="38.12757462802435" lon="15.449995891790739"><ele>898.0</ele><time>2026-04-28T12:22:17Z</time></trkpt><trkpt lat="38.12747714234505" lon="15.449921461559661"><ele>898.0</ele><time>2026-04-28T12:22:18Z</time></trkpt><trkpt lat="38.127365404518955" lon="15.449824770379259"><ele>898.0</ele><time>2026-04-28T12:22:19Z</time></trkpt><trkpt lat="38.12724731811851" lon="15.449749066310828"><ele>898.0</ele><time>2026-04-28T12:22:20Z</time></trkpt><trkpt lat="38.12716096622258" lon="15.449705915705039"><ele>896.1666666666666</ele><time>2026-04-28T12:22:20.999Z</time></trkpt><trkpt lat="38.12707164741798" lon="15.44965762354325"><ele>894.3333333333333</ele><time>2026-04-28T12:22:21.999Z</time></trkpt><trkpt lat="38.126973162803516" lon="15.44963715858838"><ele>892.5</ele><time>2026-04-28T12:22:22.999Z</time></trkpt><trkpt lat="38.12689878139392" lon="15.449664849995242"><ele>890.6666666666667</ele><time>2026-04-28T12:22:23.999Z</time></trkpt><trkpt lat="38.12683604824219" lon="15.44969936005207"><ele>888.8333333333334</ele><time>2026-04-28T12:22:24.999Z</time></trkpt><trkpt lat="38.12677266109533" lon="15.449782602880326"><ele>887.0</ele><time>2026-04-28T12:22:25.999Z</time></trkpt><trkpt lat="38.12672012099899" lon="15.449889512868387"><ele>887.0000000000001</ele><time>2026-04-28T12:22:26.999Z</time></trkpt><trkpt lat="38.12667807407653" lon="15.449990828043278"><ele>887.0</ele><time>2026-04-28T12:22:27.999Z</time></trkpt><trkpt lat="38.126603142025665" lon="15.45006931676828"><ele>887.0</ele><time>2026-04-28T12:22:29.999Z</time></trkpt><trkpt lat="38.126542984138446" lon="15.450027716791318"><ele>887.0</ele><time>2026-04-28T12:22:34Z</time></trkpt><trkpt lat="38.12648224661549" lon="15.449971571150082"><ele>887.0000000000001</ele><time>2026-04-28T12:22:35Z</time></trkpt><trkpt lat="38.126411881993604" lon="15.449880306838644"><ele>887.0</ele><time>2026-04-28T12:22:36Z</time></trkpt><trkpt lat="38.12633084492681" lon="15.449755868564562"><ele>885.5</ele><time>2026-04-28T12:22:37Z</time></trkpt><trkpt lat="38.12624473446103" lon="15.449637183144807"><ele>884.0</ele><time>2026-04-28T12:22:38Z</time></trkpt><trkpt lat="38.12616267684418" lon="15.449510769196557"><ele>882.5</ele><time>2026-04-28T12:22:39Z</time></trkpt><trkpt lat="38.126071488578475" lon="15.449433888121897"><ele>881.0</ele><time>2026-04-28T12:22:40Z</time></trkpt><trkpt lat="38.125956876802135" lon="15.449369058807159"><ele>881.0</ele><time>2026-04-28T12:22:41Z</time></trkpt><trkpt lat="38.12582736225889" lon="15.449309557685162"><ele>880.9999999999999</ele><time>2026-04-28T12:22:42Z</time></trkpt><trkpt lat="38.12573031500456" lon="15.449275882524107"><ele>880.9999999999999</ele><time>2026-04-28T12:22:43Z</time></trkpt><trkpt lat="38.12565765355943" lon="15.44923432841869"><ele>881.0</ele><time>2026-04-28T12:22:44Z</time></trkpt><trkpt lat="38.12558731552562" lon="15.449149502034109"><ele>881.0</ele><time>2026-04-28T12:22:45Z</time></trkpt><trkpt lat="38.12552001849177" lon="15.449050167563872"><ele>878.8333333333334</ele><time>2026-04-28T12:22:46Z</time></trkpt><trkpt lat="38.12547436165894" lon="15.448928283364078"><ele>876.6666666666667</ele><time>2026-04-28T12:22:47Z</time></trkpt><trkpt lat="38.12543674345315" lon="15.448809682010435"><ele>874.5</ele><time>2026-04-28T12:22:48Z</time></trkpt><trkpt lat="38.125414252104044" lon="15.44872087782424"><ele>872.3333333333333</ele><time>2026-04-28T12:22:49Z</time></trkpt><trkpt lat="38.12541481415804" lon="15.448625975625465"><ele>870.1666666666666</ele><time>2026-04-28T12:22:50Z</time></trkpt><trkpt lat="38.125412150610124" lon="15.448513269773425"><ele>868.0</ele><time>2026-04-28T12:22:51Z</time></trkpt><trkpt lat="38.125421993218794" lon="15.448386662880699"><ele>868.0</ele><time>2026-04-28T12:22:52Z</time></trkpt><trkpt lat="38.12544607942774" lon="15.448225092693884"><ele>868.0</ele><time>2026-04-28T12:22:53Z</time></trkpt><trkpt lat="38.125444478673955" lon="15.4480690471857"><ele>868.0</ele><time>2026-04-28T12:22:54Z</time></trkpt><trkpt lat="38.1254249443718" lon="15.447953707560005"><ele>868.0</ele><time>2026-04-28T12:22:55Z</time></trkpt><trkpt lat="38.12539317848687" lon="15.447868183583495"><ele>868.0</ele><time>2026-04-28T12:22:56Z</time></trkpt><trkpt lat="38.125334405433065" lon="15.447789893440431"><ele>870.1666666666666</ele><time>2026-04-28T12:22:57Z</time></trkpt><trkpt lat="38.12526163402113" lon="15.447739607993672"><ele>872.3333333333333</ele><time>2026-04-28T12:22:58Z</time></trkpt><trkpt lat="38.12517934195898" lon="15.447714801755591"><ele>874.5</ele><time>2026-04-28T12:22:59Z</time></trkpt><trkpt lat="38.12509967215754" lon="15.447691885686208"><ele>876.6666666666667</ele><time>2026-04-28T12:23:00Z</time></trkpt><trkpt lat="38.12502661242243" lon="15.447641792474151"><ele>878.8333333333334</ele><time>2026-04-28T12:23:01Z</time></trkpt><trkpt lat="38.12495543979868" lon="15.447585158415832"><ele>881.0</ele><time>2026-04-28T12:23:02Z</time></trkpt><trkpt lat="38.124871424920826" lon="15.447567270257451"><ele>881.0</ele><time>2026-04-28T12:23:04Z</time></trkpt><trkpt lat="38.124789456593106" lon="15.447589314177112"><ele>880.9999999999999</ele><time>2026-04-28T12:23:07Z</time></trkpt><trkpt lat="38.12471228058896" lon="15.447500653678123"><ele>880.9999999999999</ele><time>2026-04-28T12:23:10Z</time></trkpt><trkpt lat="38.12465022870851" lon="15.447371087643624"><ele>881.0</ele><time>2026-04-28T12:23:12Z</time></trkpt><trkpt lat="38.124595355841215" lon="15.447284809023826"><ele>881.0</ele><time>2026-04-28T12:23:13Z</time></trkpt><trkpt lat="38.12454943234749" lon="15.447207464992086"><ele>885.8333333333334</ele><time>2026-04-28T12:23:14Z</time></trkpt><trkpt lat="38.12449679443976" lon="15.447123020088613"><ele>890.6666666666667</ele><time>2026-04-28T12:23:15Z</time></trkpt><trkpt lat="38.12442263200069" lon="15.447050175971935"><ele>895.5</ele><time>2026-04-28T12:23:16Z</time></trkpt><trkpt lat="38.1243724245357" lon="15.44699867594767"><ele>900.3333333333333</ele><time>2026-04-28T12:23:17Z</time></trkpt><trkpt lat="38.124302102567036" lon="15.446959514527142"><ele>905.1666666666666</ele><time>2026-04-28T12:23:18Z</time></trkpt><trkpt lat="38.124235632055374" lon="15.446917469351787"><ele>910.0</ele><time>2026-04-28T12:23:19Z</time></trkpt><trkpt lat="38.12412892513521" lon="15.446814297593475"><ele>907.3333333333333</ele><time>2026-04-28T12:23:21Z</time></trkpt><trkpt lat="38.124061806061306" lon="15.446762799756653"><ele>904.6666666666666</ele><time>2026-04-28T12:23:22Z</time></trkpt><trkpt lat="38.12399327109892" lon="15.446719878173955"><ele>902.0</ele><time>2026-04-28T12:23:23Z</time></trkpt><trkpt lat="38.12392805917596" lon="15.446656271739203"><ele>899.3333333333333</ele><time>2026-04-28T12:23:24Z</time></trkpt><trkpt lat="38.123867622237775" lon="15.446596654168914"><ele>896.6666666666666</ele><time>2026-04-28T12:23:25Z</time></trkpt><trkpt lat="38.1238105141598" lon="15.44655794059747"><ele>894.0</ele><time>2026-04-28T12:23:26Z</time></trkpt><trkpt lat="38.123731899235864" lon="15.446472788661127"><ele>894.0</ele><time>2026-04-28T12:23:28Z</time></trkpt><trkpt lat="38.123626384607554" lon="15.446423676396313"><ele>894.0</ele><time>2026-04-28T12:23:30Z</time></trkpt><trkpt lat="38.12356973544932" lon="15.446365050402832"><ele>894.0</ele><time>2026-04-28T12:23:31Z</time></trkpt><trkpt lat="38.1234944594335" lon="15.446286980017936"><ele>894.0</ele><time>2026-04-28T12:23:32Z</time></trkpt><trkpt lat="38.12343024222718" lon="15.446229518008668"><ele>894.0</ele><time>2026-04-28T12:23:33Z</time></trkpt><trkpt lat="38.123366210306386" lon="15.446178180568147"><ele>894.0</ele><time>2026-04-28T12:23:34Z</time></trkpt><trkpt lat="38.12331311342452" lon="15.446109622941572"><ele>898.1666666666666</ele><time>2026-04-28T12:23:35Z</time></trkpt><trkpt lat="38.12325558776185" lon="15.446040173535707"><ele>902.3333333333333</ele><time>2026-04-28T12:23:36Z</time></trkpt><trkpt lat="38.12318465325218" lon="15.44598816767529"><ele>906.5</ele><time>2026-04-28T12:23:37Z</time></trkpt><trkpt lat="38.12311856513746" lon="15.445940762180841"><ele>910.6666666666666</ele><time>2026-04-28T12:23:38Z</time></trkpt><trkpt lat="38.12300293468695" lon="15.445893850097631"><ele>914.8333333333333</ele><time>2026-04-28T12:23:40Z</time></trkpt><trkpt lat="38.1229292423984" lon="15.445854383195899"><ele>919.0</ele><time>2026-04-28T12:23:41Z</time></trkpt><trkpt lat="38.12285496836077" lon="15.445809630676356"><ele>919.0</ele><time>2026-04-28T12:23:42Z</time></trkpt><trkpt lat="38.12279249366981" lon="15.44576455757569"><ele>918.9999999999999</ele><time>2026-04-28T12:23:43Z</time></trkpt><trkpt lat="38.122734666559644" lon="15.445732719747985"><ele>919.0</ele><time>2026-04-28T12:23:44Z</time></trkpt><trkpt lat="38.122673986128326" lon="15.445691960581364"><ele>919.0</ele><time>2026-04-28T12:23:45Z</time></trkpt><trkpt lat="38.12259836090824" lon="15.445630334521471"><ele>918.9999999999999</ele><time>2026-04-28T12:23:46Z</time></trkpt><trkpt lat="38.122535743728456" lon="15.445563745745597"><ele>919.0</ele><time>2026-04-28T12:23:47Z</time></trkpt><trkpt lat="38.12247279408794" lon="15.445532559169653"><ele>919.0</ele><time>2026-04-28T12:23:48Z</time></trkpt><trkpt lat="38.12240503347138" lon="15.445511275310757"><ele>923.4000000000001</ele><time>2026-04-28T12:23:49Z</time></trkpt><trkpt lat="38.12233931741303" lon="15.445514967613857"><ele>927.8000000000001</ele><time>2026-04-28T12:23:50Z</time></trkpt><trkpt lat="38.12223457249921" lon="15.445615079265137"><ele>932.1999999999999</ele><time>2026-04-28T12:23:52Z</time></trkpt><trkpt lat="38.122206503098816" lon="15.445689976694643"><ele>936.5999999999999</ele><time>2026-04-28T12:23:53Z</time></trkpt><trkpt lat="38.122114084150724" lon="15.445790849874932"><ele>941.0</ele><time>2026-04-28T12:23:55Z</time></trkpt><trkpt lat="38.1220633028029" lon="15.44585199016237"><ele>940.9999999999999</ele><time>2026-04-28T12:23:56Z</time></trkpt><trkpt lat="38.12200372988945" lon="15.445904390187636"><ele>941.0</ele><time>2026-04-28T12:23:57Z</time></trkpt><trkpt lat="38.1219459205956" lon="15.445962185095182"><ele>940.9999999999999</ele><time>2026-04-28T12:23:58Z</time></trkpt><trkpt lat="38.121907955876615" lon="15.446034015506367"><ele>940.9999999999999</ele><time>2026-04-28T12:23:59Z</time></trkpt><trkpt lat="38.12186235188579" lon="15.446095311726038"><ele>941.0</ele><time>2026-04-28T12:24:00Z</time></trkpt><trkpt lat="38.12181556133674" lon="15.446150599959218"><ele>940.9999999999999</ele><time>2026-04-28T12:24:01Z</time></trkpt><trkpt lat="38.12175981917292" lon="15.446203019146251"><ele>940.9999999999999</ele><time>2026-04-28T12:24:02Z</time></trkpt><trkpt lat="38.12164940078512" lon="15.446241931759705"><ele>941.0000000000001</ele><time>2026-04-28T12:24:04Z</time></trkpt><trkpt lat="38.12158501741141" lon="15.446237524055936"><ele>941.0</ele><time>2026-04-28T12:24:05Z</time></trkpt><trkpt lat="38.12151443014965" lon="15.446249302784555"><ele>941.0</ele><time>2026-04-28T12:24:06Z</time></trkpt><trkpt lat="38.12143246800838" lon="15.446276625965845"><ele>941.0</ele><time>2026-04-28T12:24:07Z</time></trkpt><trkpt lat="38.12135866398053" lon="15.446305515718489"><ele>941.0000000000001</ele><time>2026-04-28T12:24:08Z</time></trkpt><trkpt lat="38.12127672369543" lon="15.446350674460898"><ele>941.0</ele><time>2026-04-28T12:24:09Z</time></trkpt><trkpt lat="38.12118849538187" lon="15.446414919563956"><ele>943.8</ele><time>2026-04-28T12:24:10Z</time></trkpt><trkpt lat="38.121124371005344" lon="15.446485516096052"><ele>946.5999999999999</ele><time>2026-04-28T12:24:11Z</time></trkpt><trkpt lat="38.12107388111202" lon="15.446567290479166"><ele>949.4</ele><time>2026-04-28T12:24:12Z</time></trkpt><trkpt lat="38.121036862573526" lon="15.446679422083083"><ele>952.2</ele><time>2026-04-28T12:24:13Z</time></trkpt><trkpt lat="38.121011289353895" lon="15.446832501700284"><ele>955.0</ele><time>2026-04-28T12:24:14Z</time></trkpt><trkpt lat="38.120980117457904" lon="15.446937251517472"><ele>954.9999999999999</ele><time>2026-04-28T12:24:15Z</time></trkpt><trkpt lat="38.12096491480549" lon="15.447039292341167"><ele>955.0</ele><time>2026-04-28T12:24:16Z</time></trkpt><trkpt lat="38.12097612335966" lon="15.447146739173114"><ele>955.0</ele><time>2026-04-28T12:24:17Z</time></trkpt><trkpt lat="38.12098637934126" lon="15.447226141117175"><ele>955.0</ele><time>2026-04-28T12:24:17.999Z</time></trkpt><trkpt lat="38.12099046422618" lon="15.447338317812616"><ele>954.9999999999999</ele><time>2026-04-28T12:24:19.999Z</time></trkpt><trkpt lat="38.12093598796879" lon="15.44743722505694"><ele>955.0</ele><time>2026-04-28T12:24:21.999Z</time></trkpt><trkpt lat="38.12081045165408" lon="15.447442607111128"><ele>951.6666666666666</ele><time>2026-04-28T12:24:23.999Z</time></trkpt><trkpt lat="38.12072926823877" lon="15.447452983544292"><ele>948.3333333333333</ele><time>2026-04-28T12:24:24.999Z</time></trkpt><trkpt lat="38.120660280353704" lon="15.447470045277436"><ele>945.0</ele><time>2026-04-28T12:24:25.999Z</time></trkpt><trkpt lat="38.1205883520313" lon="15.447484812102187"><ele>941.6666666666667</ele><time>2026-04-28T12:24:26.999Z</time></trkpt><trkpt lat="38.12051449176598" lon="15.447505823767225"><ele>938.3333333333334</ele><time>2026-04-28T12:24:27.999Z</time></trkpt><trkpt lat="38.12040161120222" lon="15.447540325650307"><ele>935.0</ele><time>2026-04-28T12:24:29.999Z</time></trkpt><trkpt lat="38.120275185019466" lon="15.447556459456992"><ele>935.0000000000001</ele><time>2026-04-28T12:24:31.999Z</time></trkpt><trkpt lat="38.12020524036097" lon="15.447543168766453"><ele>935.0</ele><time>2026-04-28T12:24:32.999Z</time></trkpt><trkpt lat="38.12010655981501" lon="15.447476412824841"><ele>935.0</ele><time>2026-04-28T12:24:34.999Z</time></trkpt><trkpt lat="38.12005362351887" lon="15.44742086473436"><ele>935.0</ele><time>2026-04-28T12:24:35.999Z</time></trkpt><trkpt lat="38.119994730825546" lon="15.447357119463826"><ele>935.0000000000001</ele><time>2026-04-28T12:24:37Z</time></trkpt><trkpt lat="38.11993065441212" lon="15.447288082900412"><ele>935.0</ele><time>2026-04-28T12:24:38Z</time></trkpt><trkpt lat="38.119866139224044" lon="15.447221507401386"><ele>934.1666666666667</ele><time>2026-04-28T12:24:39Z</time></trkpt><trkpt lat="38.119796277655986" lon="15.447147906159449"><ele>933.3333333333334</ele><time>2026-04-28T12:24:40Z</time></trkpt><trkpt lat="38.119735433711874" lon="15.44709370145478"><ele>932.5</ele><time>2026-04-28T12:24:41Z</time></trkpt><trkpt lat="38.11964304129554" lon="15.446997413670173"><ele>931.6666666666667</ele><time>2026-04-28T12:24:43Z</time></trkpt><trkpt lat="38.11959021421965" lon="15.44694906306347"><ele>930.8333333333334</ele><time>2026-04-28T12:24:44Z</time></trkpt><trkpt lat="38.11952105921482" lon="15.446889539975151"><ele>930.0</ele><time>2026-04-28T12:24:45Z</time></trkpt><trkpt lat="38.11945469854399" lon="15.446835101318372"><ele>936.0</ele><time>2026-04-28T12:24:46Z</time></trkpt><trkpt lat="38.11938922852363" lon="15.44679648825225"><ele>942.0</ele><time>2026-04-28T12:24:47Z</time></trkpt><trkpt lat="38.11932482506845" lon="15.44679234544233"><ele>948.0</ele><time>2026-04-28T12:24:48Z</time></trkpt><trkpt lat="38.119258269535706" lon="15.446820456956294"><ele>954.0</ele><time>2026-04-28T12:24:49Z</time></trkpt><trkpt lat="38.11919221060197" lon="15.446850804059721"><ele>960.0</ele><time>2026-04-28T12:24:50Z</time></trkpt><trkpt lat="38.1191220515106" lon="15.446852339655926"><ele>966.0</ele><time>2026-04-28T12:24:51Z</time></trkpt><trkpt lat="38.11905389346005" lon="15.446849720069602"><ele>972.0</ele><time>2026-04-28T12:24:52Z</time></trkpt><trkpt lat="38.11896878854819" lon="15.446945058122468"><ele>970.8333333333334</ele><time>2026-04-28T12:24:54Z</time></trkpt><trkpt lat="38.11894453992555" lon="15.44702388331888"><ele>969.6666666666667</ele><time>2026-04-28T12:24:55Z</time></trkpt><trkpt lat="38.118922777003114" lon="15.447121745351991"><ele>968.5</ele><time>2026-04-28T12:24:56Z</time></trkpt><trkpt lat="38.11888926163518" lon="15.44719905897288"><ele>967.3333333333334</ele><time>2026-04-28T12:24:57Z</time></trkpt><trkpt lat="38.11878784563454" lon="15.447304271454952"><ele>966.1666666666667</ele><time>2026-04-28T12:24:59Z</time></trkpt><trkpt lat="38.11871671618742" lon="15.447341969969163"><ele>965.0</ele><time>2026-04-28T12:25:00Z</time></trkpt><trkpt lat="38.118632006120386" lon="15.44738226224327"><ele>965.0</ele><time>2026-04-28T12:25:01Z</time></trkpt><trkpt lat="38.11854944716645" lon="15.447421724341051"><ele>965.0</ele><time>2026-04-28T12:25:02Z</time></trkpt><trkpt lat="38.118488603511224" lon="15.447469836778662"><ele>965.0</ele><time>2026-04-28T12:25:03Z</time></trkpt><trkpt lat="38.11845217843654" lon="15.447540711694709"><ele>965.0</ele><time>2026-04-28T12:25:04Z</time></trkpt><trkpt lat="38.11843774977046" lon="15.447621441411512"><ele>965.0</ele><time>2026-04-28T12:25:05Z</time></trkpt><trkpt lat="38.1184446280887" lon="15.44771821352388"><ele>965.0</ele><time>2026-04-28T12:25:06Z</time></trkpt><trkpt lat="38.11845015404394" lon="15.447805129656992"><ele>965.0</ele><time>2026-04-28T12:25:07Z</time></trkpt><trkpt lat="38.11840577411578" lon="15.44796142891234"><ele>963.3333333333334</ele><time>2026-04-28T12:25:09Z</time></trkpt><trkpt lat="38.11835137578064" lon="15.448034985289397"><ele>961.6666666666667</ele><time>2026-04-28T12:25:10Z</time></trkpt><trkpt lat="38.11828366848801" lon="15.448120713161666"><ele>960.0</ele><time>2026-04-28T12:25:11Z</time></trkpt><trkpt lat="38.11822614741701" lon="15.448202504023914"><ele>958.3333333333333</ele><time>2026-04-28T12:25:12Z</time></trkpt><trkpt lat="38.11818187641664" lon="15.448269876332732"><ele>956.6666666666666</ele><time>2026-04-28T12:25:13Z</time></trkpt><trkpt lat="38.118089887510564" lon="15.448355630158213"><ele>955.0</ele><time>2026-04-28T12:25:15Z</time></trkpt><trkpt lat="38.11796834968114" lon="15.448351530282316"><ele>954.9999999999999</ele><time>2026-04-28T12:25:17Z</time></trkpt><trkpt lat="38.11790756761436" lon="15.448317884738954"><ele>955.0</ele><time>2026-04-28T12:25:18Z</time></trkpt><trkpt lat="38.117856614975345" lon="15.448263987565433"><ele>955.0</ele><time>2026-04-28T12:25:19Z</time></trkpt><trkpt lat="38.11781375114056" lon="15.448187214487177"><ele>955.0</ele><time>2026-04-28T12:25:20Z</time></trkpt><trkpt lat="38.1177692889263" lon="15.448116164913191"><ele>954.9999999999999</ele><time>2026-04-28T12:25:21Z</time></trkpt><trkpt lat="38.11771124006566" lon="15.44805723782502"><ele>955.0</ele><time>2026-04-28T12:25:22Z</time></trkpt><trkpt lat="38.11759760965581" lon="15.447969881109302"><ele>954.9999999999999</ele><time>2026-04-28T12:25:24Z</time></trkpt><trkpt lat="38.11750770952852" lon="15.44796169184176"><ele>955.0</ele><time>2026-04-28T12:25:25Z</time></trkpt><trkpt lat="38.1174130955391" lon="15.447960172051195"><ele>955.0</ele><time>2026-04-28T12:25:26Z</time></trkpt><trkpt lat="38.11734484611153" lon="15.44795741790121"><ele>955.0</ele><time>2026-04-28T12:25:27Z</time></trkpt><trkpt lat="38.11727649514316" lon="15.447936055229743"><ele>954.9999999999999</ele><time>2026-04-28T12:25:28Z</time></trkpt><trkpt lat="38.117216447745655" lon="15.447897628020243"><ele>955.0</ele><time>2026-04-28T12:25:29Z</time></trkpt><trkpt lat="38.11714748534574" lon="15.447842120858683"><ele>962.2</ele><time>2026-04-28T12:25:30Z</time></trkpt><trkpt lat="38.11706486564699" lon="15.447771520983755"><ele>969.4</ele><time>2026-04-28T12:25:31Z</time></trkpt><trkpt lat="38.11699470248792" lon="15.44772979270849"><ele>976.5999999999999</ele><time>2026-04-28T12:25:32Z</time></trkpt><trkpt lat="38.11691833317139" lon="15.447676514499515"><ele>983.8</ele><time>2026-04-28T12:25:33Z</time></trkpt><trkpt lat="38.116829432664936" lon="15.447603156259852"><ele>991.0</ele><time>2026-04-28T12:25:34Z</time></trkpt><trkpt lat="38.116744200015255" lon="15.44758092806704"><ele>990.9999999999999</ele><time>2026-04-28T12:25:35Z</time></trkpt><trkpt lat="38.11666734479008" lon="15.447592896223266"><ele>991.0</ele><time>2026-04-28T12:25:36Z</time></trkpt><trkpt lat="38.11660055119662" lon="15.447639128816268"><ele>991.0</ele><time>2026-04-28T12:25:37Z</time></trkpt><trkpt lat="38.11655449798878" lon="15.447719308265759"><ele>991.0</ele><time>2026-04-28T12:25:38Z</time></trkpt><trkpt lat="38.11651437652464" lon="15.447790732692138"><ele>990.9999999999999</ele><time>2026-04-28T12:25:39Z</time></trkpt><trkpt lat="38.11646408635586" lon="15.447881775779898"><ele>991.0</ele><time>2026-04-28T12:25:40Z</time></trkpt><trkpt lat="38.11642232457407" lon="15.447970657903003"><ele>988.9999999999999</ele><time>2026-04-28T12:25:41Z</time></trkpt><trkpt lat="38.11638112262941" lon="15.448084862340444"><ele>987.0</ele><time>2026-04-28T12:25:42Z</time></trkpt><trkpt lat="38.11633688105648" lon="15.448191161736517"><ele>985.0</ele><time>2026-04-28T12:25:43Z</time></trkpt><trkpt lat="38.11630821992044" lon="15.44826559554141"><ele>983.0</ele><time>2026-04-28T12:25:44Z</time></trkpt><trkpt lat="38.11625618889676" lon="15.448336556858543"><ele>980.9999999999999</ele><time>2026-04-28T12:25:46Z</time></trkpt><trkpt lat="38.11615663585445" lon="15.44835313571076"><ele>979.0</ele><time>2026-04-28T12:25:48Z</time></trkpt><trkpt lat="38.11609792524865" lon="15.448311746596849"><ele>979.0</ele><time>2026-04-28T12:25:49Z</time></trkpt><trkpt lat="38.116022275968305" lon="15.44826613679234"><ele>979.0000000000001</ele><time>2026-04-28T12:25:50Z</time></trkpt><trkpt lat="38.11592904316167" lon="15.448208168619436"><ele>979.0000000000001</ele><time>2026-04-28T12:25:51Z</time></trkpt><trkpt lat="38.1158363796063" lon="15.448181115870845"><ele>979.0</ele><time>2026-04-28T12:25:52Z</time></trkpt><trkpt lat="38.11574904672423" lon="15.448170618938795"><ele>979.0</ele><time>2026-04-28T12:25:53Z</time></trkpt><trkpt lat="38.115659675514394" lon="15.448174787875965"><ele>978.8333333333333</ele><time>2026-04-28T12:25:54Z</time></trkpt><trkpt lat="38.1155707961145" lon="15.448202052830412"><ele>978.6666666666666</ele><time>2026-04-28T12:25:55Z</time></trkpt><trkpt lat="38.11549935831551" lon="15.448240786108048"><ele>978.5</ele><time>2026-04-28T12:25:56Z</time></trkpt><trkpt lat="38.11543930296766" lon="15.448274597745527"><ele>978.3333333333333</ele><time>2026-04-28T12:25:57Z</time></trkpt><trkpt lat="38.115318007308225" lon="15.44830949401678"><ele>978.1666666666666</ele><time>2026-04-28T12:25:59Z</time></trkpt><trkpt lat="38.11525308483125" lon="15.44833117900421"><ele>978.0</ele><time>2026-04-28T12:26:00Z</time></trkpt><trkpt lat="38.1151829456296" lon="15.448361405501359"><ele>978.0</ele><time>2026-04-28T12:26:01Z</time></trkpt><trkpt lat="38.11512108157426" lon="15.448378846985605"><ele>978.0</ele><time>2026-04-28T12:26:02Z</time></trkpt><trkpt lat="38.115051516579975" lon="15.448400891042855"><ele>978.0</ele><time>2026-04-28T12:26:03Z</time></trkpt><trkpt lat="38.11496599504342" lon="15.448358242712589"><ele>978.0</ele><time>2026-04-28T12:26:05Z</time></trkpt><trkpt lat="38.11492791479148" lon="15.448286764732215"><ele>978.0</ele><time>2026-04-28T12:26:06Z</time></trkpt><trkpt lat="38.11489614272882" lon="15.448185273752832"><ele>978.0</ele><time>2026-04-28T12:26:07Z</time></trkpt><trkpt lat="38.11485805966288" lon="15.448081466690693"><ele>974.25</ele><time>2026-04-28T12:26:08Z</time></trkpt><trkpt lat="38.11481400200934" lon="15.44795853213216"><ele>970.5</ele><time>2026-04-28T12:26:09Z</time></trkpt><trkpt lat="38.11476210238171" lon="15.44783448928183"><ele>966.75</ele><time>2026-04-28T12:26:10Z</time></trkpt><trkpt lat="38.11471014952865" lon="15.44769558761201"><ele>963.0</ele><time>2026-04-28T12:26:11Z</time></trkpt><trkpt lat="38.114652426559736" lon="15.447569501305285"><ele>963.0</ele><time>2026-04-28T12:26:12Z</time></trkpt><trkpt lat="38.11461499084712" lon="15.447452449588965"><ele>963.0</ele><time>2026-04-28T12:26:13Z</time></trkpt><trkpt lat="38.114589525503995" lon="15.447356053038014"><ele>963.0</ele><time>2026-04-28T12:26:14Z</time></trkpt><trkpt lat="38.11457070236564" lon="15.447255177200875"><ele>963.0</ele><time>2026-04-28T12:26:15Z</time></trkpt><trkpt lat="38.11455582349554" lon="15.447109951836834"><ele>963.0</ele><time>2026-04-28T12:26:15.999Z</time></trkpt><trkpt lat="38.11454471827973" lon="15.446961398286327"><ele>967.0</ele><time>2026-04-28T12:26:16.999Z</time></trkpt><trkpt lat="38.114525707146385" lon="15.446841150314743"><ele>971.0</ele><time>2026-04-28T12:26:17.999Z</time></trkpt><trkpt lat="38.11451218864377" lon="15.446753849772143"><ele>975.0</ele><time>2026-04-28T12:26:18.999Z</time></trkpt><trkpt lat="38.114427976221116" lon="15.446692325451817"><ele>979.0</ele><time>2026-04-28T12:26:20.999Z</time></trkpt><trkpt lat="38.1143711113056" lon="15.446652815565365"><ele>983.0</ele><time>2026-04-28T12:26:21.999Z</time></trkpt><trkpt lat="38.11429118142269" lon="15.446530499131596"><ele>983.0000000000001</ele><time>2026-04-28T12:26:23.999Z</time></trkpt><trkpt lat="38.1142596609744" lon="15.446442631753076"><ele>983.0</ele><time>2026-04-28T12:26:24.999Z</time></trkpt><trkpt lat="38.114250056387384" lon="15.446361614442793"><ele>983.0</ele><time>2026-04-28T12:26:25.999Z</time></trkpt><trkpt lat="38.11424942034765" lon="15.446270887121628"><ele>983.0</ele><time>2026-04-28T12:26:26.999Z</time></trkpt><trkpt lat="38.11422959261601" lon="15.44617412905703"><ele>983.0000000000001</ele><time>2026-04-28T12:26:27.999Z</time></trkpt><trkpt lat="38.11420504348514" lon="15.446035605838365"><ele>983.0</ele><time>2026-04-28T12:26:29.999Z</time></trkpt><trkpt lat="38.114184406823405" lon="15.445949394463437"><ele>979.4</ele><time>2026-04-28T12:26:30.999Z</time></trkpt><trkpt lat="38.11415599752315" lon="15.445771209660865"><ele>975.8</ele><time>2026-04-28T12:26:32.999Z</time></trkpt><trkpt lat="38.11413722396034" lon="15.44564295151366"><ele>972.2</ele><time>2026-04-28T12:26:33.999Z</time></trkpt><trkpt lat="38.11410935987541" lon="15.445523476041469"><ele>968.6</ele><time>2026-04-28T12:26:34.999Z</time></trkpt><trkpt lat="38.114068747669755" lon="15.445425945210793"><ele>965.0</ele><time>2026-04-28T12:26:35.999Z</time></trkpt><trkpt lat="38.11400786304941" lon="15.445366724000873"><ele>965.0000000000001</ele><time>2026-04-28T12:26:36.999Z</time></trkpt><trkpt lat="38.11392864753874" lon="15.445305252954975"><ele>965.0</ele><time>2026-04-28T12:26:37.999Z</time></trkpt><trkpt lat="38.113847099967714" lon="15.445241967192823"><ele>965.0</ele><time>2026-04-28T12:26:38.999Z</time></trkpt><trkpt lat="38.113797383437635" lon="15.445178564928005"><ele>965.0</ele><time>2026-04-28T12:26:39.999Z</time></trkpt><trkpt lat="38.11376239392302" lon="15.445108894466067"><ele>965.0000000000001</ele><time>2026-04-28T12:26:40.999Z</time></trkpt><trkpt lat="38.113758330397864" lon="15.445020073822239"><ele>965.0</ele><time>2026-04-28T12:26:41.999Z</time></trkpt><trkpt lat="38.113766786851066" lon="15.44490728890033"><ele>965.0</ele><time>2026-04-28T12:26:43Z</time></trkpt><trkpt lat="38.11377413247052" lon="15.444783753856687"><ele>965.0</ele><time>2026-04-28T12:26:44Z</time></trkpt><trkpt lat="38.11377246984559" lon="15.444635697535807"><ele>965.0</ele><time>2026-04-28T12:26:45Z</time></trkpt><trkpt lat="38.11375641115649" lon="15.44447887009582"><ele>965.0</ele><time>2026-04-28T12:26:46Z</time></trkpt><trkpt lat="38.11372979496967" lon="15.444337923003234"><ele>968.4</ele><time>2026-04-28T12:26:47Z</time></trkpt><trkpt lat="38.11370740099313" lon="15.44422246798427"><ele>971.8</ele><time>2026-04-28T12:26:48Z</time></trkpt><trkpt lat="38.11370830728415" lon="15.444106698036531"><ele>975.2</ele><time>2026-04-28T12:26:49Z</time></trkpt><trkpt lat="38.11371901955512" lon="15.443983863175161"><ele>978.6</ele><time>2026-04-28T12:26:50Z</time></trkpt><trkpt lat="38.11374518302033" lon="15.443853089279118"><ele>982.0</ele><time>2026-04-28T12:26:51Z</time></trkpt><trkpt lat="38.11377327064059" lon="15.443729368635326"><ele>985.8333333333333</ele><time>2026-04-28T12:26:52Z</time></trkpt><trkpt lat="38.11377926585964" lon="15.44363667363899"><ele>989.6666666666666</ele><time>2026-04-28T12:26:53Z</time></trkpt><trkpt lat="38.11377358774317" lon="15.443554788926535"><ele>993.5</ele><time>2026-04-28T12:26:54Z</time></trkpt><trkpt lat="38.11373307309642" lon="15.443471442365135"><ele>997.3333333333333</ele><time>2026-04-28T12:26:55Z</time></trkpt><trkpt lat="38.11366919099176" lon="15.443387444017207"><ele>1001.1666666666666</ele><time>2026-04-28T12:26:56Z</time></trkpt><trkpt lat="38.11357310913762" lon="15.443310046302493"><ele>1005.0</ele><time>2026-04-28T12:26:57Z</time></trkpt><trkpt lat="38.113469314466435" lon="15.443223016042438"><ele>1005.0</ele><time>2026-04-28T12:26:58Z</time></trkpt><trkpt lat="38.113388348215004" lon="15.443144266431664"><ele>1005.0</ele><time>2026-04-28T12:26:59Z</time></trkpt><trkpt lat="38.11333016066988" lon="15.443091263010208"><ele>1005.0</ele><time>2026-04-28T12:27:00Z</time></trkpt><trkpt lat="38.11326920706288" lon="15.44305776720496"><ele>1005.0</ele><time>2026-04-28T12:27:01Z</time></trkpt><trkpt lat="38.11319344818795" lon="15.443061612526314"><ele>1005.0</ele><time>2026-04-28T12:27:02Z</time></trkpt><trkpt lat="38.11310368273191" lon="15.443099752190577"><ele>1005.0</ele><time>2026-04-28T12:27:03Z</time></trkpt><trkpt lat="38.113032720068844" lon="15.443115300713378"><ele>1009.0</ele><time>2026-04-28T12:27:04Z</time></trkpt><trkpt lat="38.112912522688354" lon="15.443015662254215"><ele>1013.0</ele><time>2026-04-28T12:27:06Z</time></trkpt><trkpt lat="38.11285135827506" lon="15.442923492866043"><ele>1017.0</ele><time>2026-04-28T12:27:07Z</time></trkpt><trkpt lat="38.112788254312754" lon="15.442825247350786"><ele>1021.0</ele><time>2026-04-28T12:27:08Z</time></trkpt><trkpt lat="38.112730087297" lon="15.442756878822964"><ele>1025.0</ele><time>2026-04-28T12:27:09Z</time></trkpt><trkpt lat="38.11265170312869" lon="15.442718324451192"><ele>1025.0</ele><time>2026-04-28T12:27:10Z</time></trkpt><trkpt lat="38.11255376619326" lon="15.442710728541376"><ele>1025.0</ele><time>2026-04-28T12:27:11Z</time></trkpt><trkpt lat="38.11244541770379" lon="15.442698409630374"><ele>1025.0</ele><time>2026-04-28T12:27:12Z</time></trkpt><trkpt lat="38.1123521766529" lon="15.442703015373228"><ele>1025.0</ele><time>2026-04-28T12:27:13Z</time></trkpt><trkpt lat="38.112264024297716" lon="15.442681934597683"><ele>1025.0</ele><time>2026-04-28T12:27:14Z</time></trkpt><trkpt lat="38.11217214755171" lon="15.442643061380933"><ele>1019.0</ele><time>2026-04-28T12:27:15Z</time></trkpt><trkpt lat="38.11209560166427" lon="15.442614125827637"><ele>1013.0</ele><time>2026-04-28T12:27:16Z</time></trkpt><trkpt lat="38.112005157989" lon="15.442540017853597"><ele>1007.0</ele><time>2026-04-28T12:27:18Z</time></trkpt><trkpt lat="38.111969954310126" lon="15.44245162172364"><ele>1001.0</ele><time>2026-04-28T12:27:19Z</time></trkpt><trkpt lat="38.111945793896055" lon="15.44232842018233"><ele>995.0</ele><time>2026-04-28T12:27:20Z</time></trkpt><trkpt lat="38.111915723156145" lon="15.4421813416807"><ele>994.8</ele><time>2026-04-28T12:27:21Z</time></trkpt><trkpt lat="38.11187357523445" lon="15.442064751537805"><ele>994.6</ele><time>2026-04-28T12:27:22Z</time></trkpt><trkpt lat="38.11182095178689" lon="15.441971964610024"><ele>994.4000000000001</ele><time>2026-04-28T12:27:23Z</time></trkpt><trkpt lat="38.111742656569064" lon="15.441901843906864"><ele>994.2</ele><time>2026-04-28T12:27:24Z</time></trkpt><trkpt lat="38.11166602592325" lon="15.441897251722361"><ele>994.0</ele><time>2026-04-28T12:27:25Z</time></trkpt><trkpt lat="38.11157268586295" lon="15.441905860683326"><ele>994.0</ele><time>2026-04-28T12:27:26Z</time></trkpt><trkpt lat="38.111471353643296" lon="15.44190631526792"><ele>994.0000000000001</ele><time>2026-04-28T12:27:27Z</time></trkpt><trkpt lat="38.11140043939476" lon="15.441883678480107"><ele>994.0000000000001</ele><time>2026-04-28T12:27:28Z</time></trkpt><trkpt lat="38.1113286611157" lon="15.441792286713643"><ele>994.0</ele><time>2026-04-28T12:27:30Z</time></trkpt><trkpt lat="38.11130019530788" lon="15.44169453123063"><ele>994.0</ele><time>2026-04-28T12:27:31Z</time></trkpt><trkpt lat="38.11124511208023" lon="15.441559540187997"><ele>994.0</ele><time>2026-04-28T12:27:32Z</time></trkpt><trkpt lat="38.11118002974962" lon="15.441506588365453"><ele>994.0000000000001</ele><time>2026-04-28T12:27:33Z</time></trkpt><trkpt lat="38.11109158113694" lon="15.441411124191355"><ele>994.0000000000001</ele><time>2026-04-28T12:27:34Z</time></trkpt><trkpt lat="38.11101371152304" lon="15.441318435046028"><ele>994.0</ele><time>2026-04-28T12:27:35Z</time></trkpt><trkpt lat="38.11094745039121" lon="15.44121854271871"><ele>994.0</ele><time>2026-04-28T12:27:36Z</time></trkpt><trkpt lat="38.110905067479074" lon="15.441126695362348"><ele>997.8333333333333</ele><time>2026-04-28T12:27:37Z</time></trkpt><trkpt lat="38.11088647851223" lon="15.44100285429003"><ele>1001.6666666666666</ele><time>2026-04-28T12:27:38Z</time></trkpt><trkpt lat="38.110848378841744" lon="15.440913746638758"><ele>1005.5</ele><time>2026-04-28T12:27:39Z</time></trkpt><trkpt lat="38.11077279062997" lon="15.440859441311288"><ele>1009.3333333333333</ele><time>2026-04-28T12:27:40Z</time></trkpt><trkpt lat="38.11067859265298" lon="15.440850034092033"><ele>1013.1666666666666</ele><time>2026-04-28T12:27:41Z</time></trkpt><trkpt lat="38.11059653265031" lon="15.440843897649497"><ele>1017.0</ele><time>2026-04-28T12:27:42Z</time></trkpt><trkpt lat="38.11050888954433" lon="15.440793063701307"><ele>1017.0</ele><time>2026-04-28T12:27:43Z</time></trkpt><trkpt lat="38.11043668288832" lon="15.440706479281776"><ele>1017.0</ele><time>2026-04-28T12:27:44Z</time></trkpt><trkpt lat="38.11037129986605" lon="15.440670996255076"><ele>1017.0</ele><time>2026-04-28T12:27:45Z</time></trkpt><trkpt lat="38.110301476285876" lon="15.440680012167341"><ele>1017.0</ele><time>2026-04-28T12:27:46Z</time></trkpt><trkpt lat="38.110218559207716" lon="15.440726263159586"><ele>1017.0</ele><time>2026-04-28T12:27:47Z</time></trkpt><trkpt lat="38.11013428788795" lon="15.440807016561816"><ele>1017.0</ele><time>2026-04-28T12:27:48Z</time></trkpt><trkpt lat="38.110045197450056" lon="15.44090383884273"><ele>1017.0</ele><time>2026-04-28T12:27:49Z</time></trkpt><trkpt lat="38.10991400689527" lon="15.440995979933192"><ele>1017.0</ele><time>2026-04-28T12:27:50Z</time></trkpt><trkpt lat="38.10979785637245" lon="15.441077724662476"><ele>1017.0</ele><time>2026-04-28T12:27:51Z</time></trkpt><trkpt lat="38.109716145276494" lon="15.441135770636727"><ele>1017.0</ele><time>2026-04-28T12:27:52Z</time></trkpt><trkpt lat="38.109651496820945" lon="15.441163579445949"><ele>1017.0</ele><time>2026-04-28T12:27:53Z</time></trkpt><trkpt lat="38.10951622960892" lon="15.44116452819137"><ele>1019.2</ele><time>2026-04-28T12:27:55Z</time></trkpt><trkpt lat="38.109418722639596" lon="15.441119114038505"><ele>1021.4000000000001</ele><time>2026-04-28T12:27:56Z</time></trkpt><trkpt lat="38.10933765786532" lon="15.441067606667561"><ele>1023.5999999999999</ele><time>2026-04-28T12:27:57Z</time></trkpt><trkpt lat="38.10926165667561" lon="15.441080569969323"><ele>1025.8</ele><time>2026-04-28T12:27:58Z</time></trkpt><trkpt lat="38.109204609854295" lon="15.441130852537414"><ele>1028.0</ele><time>2026-04-28T12:27:59Z</time></trkpt><trkpt lat="38.10910066846276" lon="15.441082405472022"><ele>1029.4</ele><time>2026-04-28T12:28:01Z</time></trkpt><trkpt lat="38.109026843659876" lon="15.441012306199566"><ele>1030.8</ele><time>2026-04-28T12:28:02Z</time></trkpt><trkpt lat="38.108953327699226" lon="15.440956847454917"><ele>1032.2</ele><time>2026-04-28T12:28:03Z</time></trkpt><trkpt lat="38.10888763586327" lon="15.440909058590806"><ele>1033.6</ele><time>2026-04-28T12:28:04Z</time></trkpt><trkpt lat="38.108764979233705" lon="15.44093220333341"><ele>1035.0</ele><time>2026-04-28T12:28:06Z</time></trkpt><trkpt lat="38.108671494930505" lon="15.441039519297847"><ele>1035.0</ele><time>2026-04-28T12:28:08Z</time></trkpt><trkpt lat="38.108607694978495" lon="15.441094063557557"><ele>1035.0</ele><time>2026-04-28T12:28:09Z</time></trkpt><trkpt lat="38.108509023530054" lon="15.441132370896238"><ele>1035.0</ele><time>2026-04-28T12:28:11Z</time></trkpt><trkpt lat="38.108366668830264" lon="15.441094291390293"><ele>1035.0</ele><time>2026-04-28T12:28:13Z</time></trkpt><trkpt lat="38.108280969195306" lon="15.44107397001406"><ele>1035.0</ele><time>2026-04-28T12:28:14Z</time></trkpt><trkpt lat="38.1081996005219" lon="15.441071261005739"><ele>1029.8</ele><time>2026-04-28T12:28:15Z</time></trkpt><trkpt lat="38.10812834407008" lon="15.441075682628512"><ele>1024.6</ele><time>2026-04-28T12:28:16Z</time></trkpt><trkpt lat="38.108017013662874" lon="15.441078931903242"><ele>1019.4000000000001</ele><time>2026-04-28T12:28:18Z</time></trkpt><trkpt lat="38.10790946106505" lon="15.44101214116949"><ele>1014.2</ele><time>2026-04-28T12:28:20Z</time></trkpt><trkpt lat="38.10783694379309" lon="15.440949755485999"><ele>1009.0</ele><time>2026-04-28T12:28:21Z</time></trkpt><trkpt lat="38.107752312589675" lon="15.440885138631506"><ele>1009.0</ele><time>2026-04-28T12:28:22Z</time></trkpt><trkpt lat="38.107674140498894" lon="15.440813953434745"><ele>1009.0000000000001</ele><time>2026-04-28T12:28:23Z</time></trkpt><trkpt lat="38.10759650952039" lon="15.440735688382697"><ele>1009.0000000000001</ele><time>2026-04-28T12:28:24Z</time></trkpt><trkpt lat="38.107524765525866" lon="15.440657985338326"><ele>1009.0</ele><time>2026-04-28T12:28:25Z</time></trkpt><trkpt lat="38.107452922006054" lon="15.440594573490749"><ele>1009.0</ele><time>2026-04-28T12:28:26Z</time></trkpt><trkpt lat="38.10738319222485" lon="15.440532296502628"><ele>1010.6666666666666</ele><time>2026-04-28T12:28:27Z</time></trkpt><trkpt lat="38.107301721628424" lon="15.440460818894545"><ele>1012.3333333333333</ele><time>2026-04-28T12:28:27.999Z</time></trkpt><trkpt lat="38.10723211848865" lon="15.440399115053337"><ele>1014.0</ele><time>2026-04-28T12:28:28.999Z</time></trkpt><trkpt lat="38.10717475592686" lon="15.440335616590545"><ele>1015.6666666666667</ele><time>2026-04-28T12:28:29.999Z</time></trkpt><trkpt lat="38.107125933970494" lon="15.440251475872817"><ele>1017.3333333333334</ele><time>2026-04-28T12:28:30.999Z</time></trkpt><trkpt lat="38.107082325582105" lon="15.440155895481766"><ele>1019.0</ele><time>2026-04-28T12:28:31.999Z</time></trkpt><trkpt lat="38.10704877260828" lon="15.44004281166255"><ele>1019.0000000000001</ele><time>2026-04-28T12:28:32.999Z</time></trkpt><trkpt lat="38.10701969958994" lon="15.439950024916808"><ele>1019.0</ele><time>2026-04-28T12:28:33.999Z</time></trkpt><trkpt lat="38.10698134934359" lon="15.439832856278608"><ele>1019.0</ele><time>2026-04-28T12:28:34.999Z</time></trkpt><trkpt lat="38.10692855785721" lon="15.439717985141948"><ele>1019.0</ele><time>2026-04-28T12:28:35.999Z</time></trkpt><trkpt lat="38.10686920928185" lon="15.439651413515781"><ele>1019.0000000000001</ele><time>2026-04-28T12:28:36.999Z</time></trkpt><trkpt lat="38.10680274017144" lon="15.439610562243343"><ele>1019.0</ele><time>2026-04-28T12:28:37.999Z</time></trkpt><trkpt lat="38.10672152747685" lon="15.439596378372714"><ele>1018.8000000000001</ele><time>2026-04-28T12:28:38.999Z</time></trkpt><trkpt lat="38.106633359842434" lon="15.439599125978898"><ele>1018.6000000000001</ele><time>2026-04-28T12:28:39.999Z</time></trkpt><trkpt lat="38.106532967609745" lon="15.439623701575124"><ele>1018.4</ele><time>2026-04-28T12:28:40.999Z</time></trkpt><trkpt lat="38.10642665366784" lon="15.439630264136829"><ele>1018.2</ele><time>2026-04-28T12:28:41.999Z</time></trkpt><trkpt lat="38.10634579568344" lon="15.439637694100787"><ele>1018.0</ele><time>2026-04-28T12:28:42.999Z</time></trkpt><trkpt lat="38.10625831994778" lon="15.439609088749231"><ele>1015.5999999999999</ele><time>2026-04-28T12:28:44.999Z</time></trkpt><trkpt lat="38.1062629905908" lon="15.439455794127843"><ele>1013.1999999999999</ele><time>2026-04-28T12:28:46.999Z</time></trkpt><trkpt lat="38.106303433343335" lon="15.439361640283298"><ele>1010.8</ele><time>2026-04-28T12:28:47.999Z</time></trkpt><trkpt lat="38.10635453548536" lon="15.439267685123045"><ele>1008.4</ele><time>2026-04-28T12:28:49Z</time></trkpt><trkpt lat="38.106405532135646" lon="15.439166301880023"><ele>1006.0</ele><time>2026-04-28T12:28:50Z</time></trkpt><trkpt lat="38.106448931417354" lon="15.439071624831533"><ele>1005.9999999999999</ele><time>2026-04-28T12:28:51Z</time></trkpt><trkpt lat="38.10649647918598" lon="15.438988750078734"><ele>1006.0</ele><time>2026-04-28T12:28:52Z</time></trkpt><trkpt lat="38.10656444764313" lon="15.438896979593647"><ele>1006.0</ele><time>2026-04-28T12:28:53Z</time></trkpt><trkpt lat="38.106620205753934" lon="15.438803164267803"><ele>1006.0</ele><time>2026-04-28T12:28:54Z</time></trkpt><trkpt lat="38.106660312362166" lon="15.438714873246532"><ele>1005.9999999999999</ele><time>2026-04-28T12:28:55Z</time></trkpt><trkpt lat="38.106701590659405" lon="15.438624684201592"><ele>1006.0</ele><time>2026-04-28T12:28:56Z</time></trkpt><trkpt lat="38.10676210690009" lon="15.438544848743192"><ele>1007.1999999999999</ele><time>2026-04-28T12:28:57Z</time></trkpt><trkpt lat="38.106836516560655" lon="15.438474101502011"><ele>1008.3999999999999</ele><time>2026-04-28T12:28:58Z</time></trkpt><trkpt lat="38.10691426684488" lon="15.438409185395617"><ele>1009.6</ele><time>2026-04-28T12:28:59Z</time></trkpt><trkpt lat="38.10700116212634" lon="15.438351413187531"><ele>1010.8</ele><time>2026-04-28T12:29:00Z</time></trkpt><trkpt lat="38.10707900047917" lon="15.4382988042126"><ele>1012.0</ele><time>2026-04-28T12:29:01Z</time></trkpt><trkpt lat="38.10715730005648" lon="15.438246573480724"><ele>1012.0</ele><time>2026-04-28T12:29:02Z</time></trkpt><trkpt lat="38.10723757430565" lon="15.438213971307427"><ele>1012.0</ele><time>2026-04-28T12:29:03Z</time></trkpt><trkpt lat="38.107324746396635" lon="15.438198000947713"><ele>1012.0</ele><time>2026-04-28T12:29:04Z</time></trkpt><trkpt lat="38.10742514071048" lon="15.438197845594095"><ele>1012.0</ele><time>2026-04-28T12:29:05Z</time></trkpt><trkpt lat="38.10752151230651" lon="15.438210989017717"><ele>1012.0</ele><time>2026-04-28T12:29:06Z</time></trkpt><trkpt lat="38.10762205611263" lon="15.438240156570327"><ele>1014.0</ele><time>2026-04-28T12:29:07Z</time></trkpt><trkpt lat="38.107726425256836" lon="15.438285258047447"><ele>1016.0</ele><time>2026-04-28T12:29:08Z</time></trkpt><trkpt lat="38.107833574443916" lon="15.438343805973428"><ele>1018.0</ele><time>2026-04-28T12:29:09Z</time></trkpt><trkpt lat="38.10795839540437" lon="15.438425492599137"><ele>1020.0</ele><time>2026-04-28T12:29:10Z</time></trkpt><trkpt lat="38.10808593806426" lon="15.438506738756713"><ele>1020.0</ele><time>2026-04-28T12:29:11Z</time></trkpt><trkpt lat="38.10819851805701" lon="15.438572288858445"><ele>1020.0</ele><time>2026-04-28T12:29:12Z</time></trkpt><trkpt lat="38.10829416368443" lon="15.43863320908021"><ele>1020.0</ele><time>2026-04-28T12:29:13Z</time></trkpt><trkpt lat="38.10838560330835" lon="15.43868304960691"><ele>1020.0</ele><time>2026-04-28T12:29:14Z</time></trkpt><trkpt lat="38.10848314961661" lon="15.438708707941142"><ele>1020.0</ele><time>2026-04-28T12:29:15Z</time></trkpt><trkpt lat="38.10858450633955" lon="15.438707805711093"><ele>1018.0</ele><time>2026-04-28T12:29:16Z</time></trkpt><trkpt lat="38.108678155587334" lon="15.438676789253028"><ele>1016.0</ele><time>2026-04-28T12:29:17Z</time></trkpt><trkpt lat="38.108767873158634" lon="15.438620276639424"><ele>1014.0</ele><time>2026-04-28T12:29:18Z</time></trkpt><trkpt lat="38.10884029663235" lon="15.438543008487974"><ele>1012.0</ele><time>2026-04-28T12:29:19Z</time></trkpt><trkpt lat="38.10891893426306" lon="15.438451123537302"><ele>1010.0</ele><time>2026-04-28T12:29:20Z</time></trkpt><trkpt lat="38.10900280640567" lon="15.438389274935048"><ele>1011.0</ele><time>2026-04-28T12:29:21Z</time></trkpt><trkpt lat="38.10909449268897" lon="15.438340857493948"><ele>1012.0</ele><time>2026-04-28T12:29:22Z</time></trkpt><trkpt lat="38.10917904861609" lon="15.438276438190517"><ele>1013.0</ele><time>2026-04-28T12:29:23Z</time></trkpt><trkpt lat="38.109259924717655" lon="15.438216963728882"><ele>1014.0</ele><time>2026-04-28T12:29:24Z</time></trkpt><trkpt lat="38.109336755912636" lon="15.438178957839856"><ele>1015.0</ele><time>2026-04-28T12:29:25Z</time></trkpt><trkpt lat="38.109418571640894" lon="15.438159388768028"><ele>1014.9999999999999</ele><time>2026-04-28T12:29:26Z</time></trkpt><trkpt lat="38.10948998507019" lon="15.438141773403144"><ele>1015.0</ele><time>2026-04-28T12:29:27Z</time></trkpt><trkpt lat="38.10958533624637" lon="15.438124182149412"><ele>1015.0</ele><time>2026-04-28T12:29:29Z</time></trkpt><trkpt lat="38.1096459312532" lon="15.438037779366864"><ele>1015.0</ele><time>2026-04-28T12:29:31Z</time></trkpt><trkpt lat="38.10962428126879" lon="15.437941895057715"><ele>1014.9999999999999</ele><time>2026-04-28T12:29:32Z</time></trkpt><trkpt lat="38.1095835717159" lon="15.437825394355617"><ele>1015.0</ele><time>2026-04-28T12:29:33Z</time></trkpt><trkpt lat="38.10953950485872" lon="15.437724285688638"><ele>1014.2</ele><time>2026-04-28T12:29:34Z</time></trkpt><trkpt lat="38.10949918343076" lon="15.437605031614194"><ele>1013.4</ele><time>2026-04-28T12:29:35Z</time></trkpt><trkpt lat="38.10945043242831" lon="15.437505706835786"><ele>1012.5999999999999</ele><time>2026-04-28T12:29:36Z</time></trkpt><trkpt lat="38.109391330372446" lon="15.437411355922208"><ele>1011.8</ele><time>2026-04-28T12:29:37Z</time></trkpt><trkpt lat="38.109336198061506" lon="15.437321735320593"><ele>1011.0</ele><time>2026-04-28T12:29:38Z</time></trkpt><trkpt lat="38.10929174880257" lon="15.437245640389552"><ele>1011.0</ele><time>2026-04-28T12:29:39Z</time></trkpt><trkpt lat="38.109244479275546" lon="15.437186002360173"><ele>1010.9999999999999</ele><time>2026-04-28T12:29:40Z</time></trkpt><trkpt lat="38.1091752858547" lon="15.437163415827596"><ele>1010.9999999999999</ele><time>2026-04-28T12:29:41Z</time></trkpt><trkpt lat="38.109080979267056" lon="15.437150627795068"><ele>1011.0</ele><time>2026-04-28T12:29:42Z</time></trkpt><trkpt lat="38.10894678326694" lon="15.437137963768722"><ele>1011.0</ele><time>2026-04-28T12:29:43Z</time></trkpt><trkpt lat="38.10881801823318" lon="15.437114846726706"><ele>1013.1999999999999</ele><time>2026-04-28T12:29:44Z</time></trkpt><trkpt lat="38.108707193374876" lon="15.437090478242517"><ele>1015.3999999999999</ele><time>2026-04-28T12:29:45Z</time></trkpt><trkpt lat="38.1086039074603" lon="15.437064799892196"><ele>1017.6</ele><time>2026-04-28T12:29:46Z</time></trkpt><trkpt lat="38.10851378600547" lon="15.437034696914356"><ele>1019.8</ele><time>2026-04-28T12:29:47Z</time></trkpt><trkpt lat="38.10839732623731" lon="15.436996671591176"><ele>1022.0</ele><time>2026-04-28T12:29:48Z</time></trkpt><trkpt lat="38.10829519549464" lon="15.436955655138817"><ele>1017.0</ele><time>2026-04-28T12:29:49Z</time></trkpt><trkpt lat="38.10819000433954" lon="15.436879500178467"><ele>1012.0</ele><time>2026-04-28T12:29:50Z</time></trkpt><trkpt lat="38.108060893877166" lon="15.436808876336281"><ele>1007.0</ele><time>2026-04-28T12:29:51Z</time></trkpt><trkpt lat="38.10795822559525" lon="15.436749074525407"><ele>1002.0</ele><time>2026-04-28T12:29:52Z</time></trkpt><trkpt lat="38.10786409415518" lon="15.436659678405233"><ele>1002.0</ele><time>2026-04-28T12:29:53Z</time></trkpt><trkpt lat="38.10775630066069" lon="15.436575931015328"><ele>1002.0</ele><time>2026-04-28T12:29:54Z</time></trkpt><trkpt lat="38.10764609932895" lon="15.436513185247543"><ele>1002.0</ele><time>2026-04-28T12:29:55Z</time></trkpt><trkpt lat="38.10753877216052" lon="15.436463208464078"><ele>1002.0</ele><time>2026-04-28T12:29:56Z</time></trkpt><trkpt lat="38.107428845635894" lon="15.436404782490223"><ele>999.5</ele><time>2026-04-28T12:29:57Z</time></trkpt><trkpt lat="38.10733223786854" lon="15.43636373339181"><ele>997.0</ele><time>2026-04-28T12:29:58Z</time></trkpt><trkpt lat="38.1072311152963" lon="15.436346512988418"><ele>994.5</ele><time>2026-04-28T12:29:59Z</time></trkpt><trkpt lat="38.10710077590789" lon="15.436362351479394"><ele>992.0</ele><time>2026-04-28T12:30:00Z</time></trkpt><trkpt lat="38.10698079244704" lon="15.436384993063408"><ele>992.0</ele><time>2026-04-28T12:30:01Z</time></trkpt><trkpt lat="38.10687023562215" lon="15.436409281302717"><ele>992.0</ele><time>2026-04-28T12:30:02Z</time></trkpt><trkpt lat="38.10674492642979" lon="15.436415804051629"><ele>992.0</ele><time>2026-04-28T12:30:03Z</time></trkpt><trkpt lat="38.10664683100681" lon="15.436417589688043"><ele>992.0</ele><time>2026-04-28T12:30:04Z</time></trkpt><trkpt lat="38.106569950453014" lon="15.436421373358284"><ele>992.0</ele><time>2026-04-28T12:30:05Z</time></trkpt><trkpt lat="38.106451856886984" lon="15.436364286128539"><ele>992.0000000000001</ele><time>2026-04-28T12:30:07Z</time></trkpt><trkpt lat="38.10639903985202" lon="15.436286052567816"><ele>992.0</ele><time>2026-04-28T12:30:08Z</time></trkpt><trkpt lat="38.1063721465755" lon="15.43617265420107"><ele>992.0</ele><time>2026-04-28T12:30:09Z</time></trkpt><trkpt lat="38.10635003800679" lon="15.436057938566169"><ele>992.0</ele><time>2026-04-28T12:30:10Z</time></trkpt><trkpt lat="38.1063106545921" lon="15.43597014609052"><ele>992.0000000000001</ele><time>2026-04-28T12:30:11Z</time></trkpt><trkpt lat="38.10625317834514" lon="15.43592513808278"><ele>992.0</ele><time>2026-04-28T12:30:12Z</time></trkpt><trkpt lat="38.1061719605571" lon="15.435912972431112"><ele>992.0000000000001</ele><time>2026-04-28T12:30:13Z</time></trkpt><trkpt lat="38.10607863926653" lon="15.435929213988215"><ele>992.0</ele><time>2026-04-28T12:30:14Z</time></trkpt><trkpt lat="38.105988113065564" lon="15.435956771464054"><ele>992.0</ele><time>2026-04-28T12:30:15Z</time></trkpt><trkpt lat="38.10589618194367" lon="15.435965225360905"><ele>992.0</ele><time>2026-04-28T12:30:16Z</time></trkpt><trkpt lat="38.105806625741266" lon="15.435952899585722"><ele>992.0000000000001</ele><time>2026-04-28T12:30:17Z</time></trkpt><trkpt lat="38.105734394399335" lon="15.435941227267278"><ele>992.0</ele><time>2026-04-28T12:30:18Z</time></trkpt><trkpt lat="38.105657709225746" lon="15.435936335612231"><ele>990.0</ele><time>2026-04-28T12:30:19Z</time></trkpt><trkpt lat="38.10555921915301" lon="15.435894301713933"><ele>988.0</ele><time>2026-04-28T12:30:21Z</time></trkpt><trkpt lat="38.105446359192754" lon="15.435788833720025"><ele>986.0</ele><time>2026-04-28T12:30:23Z</time></trkpt><trkpt lat="38.105398795335304" lon="15.435693574272708"><ele>984.0</ele><time>2026-04-28T12:30:24Z</time></trkpt><trkpt lat="38.10535557765233" lon="15.435619848786805"><ele>982.0</ele><time>2026-04-28T12:30:25Z</time></trkpt><trkpt lat="38.10530663180871" lon="15.435561176237291"><ele>978.4000000000001</ele><time>2026-04-28T12:30:26Z</time></trkpt><trkpt lat="38.10524380624514" lon="15.435464527015712"><ele>974.8000000000001</ele><time>2026-04-28T12:30:28Z</time></trkpt><trkpt lat="38.105250668530296" lon="15.435323152437824"><ele>971.2</ele><time>2026-04-28T12:30:30Z</time></trkpt><trkpt lat="38.105248405139925" lon="15.435195295123995"><ele>967.6</ele><time>2026-04-28T12:30:32Z</time></trkpt><trkpt lat="38.105311679426826" lon="15.435130332854824"><ele>964.0</ele><time>2026-04-28T12:30:34Z</time></trkpt><trkpt lat="38.10542246590899" lon="15.435115925513465"><ele>963.9999999999999</ele><time>2026-04-28T12:30:36Z</time></trkpt><trkpt lat="38.10549384558274" lon="15.435143824567891"><ele>964.0</ele><time>2026-04-28T12:30:36.999Z</time></trkpt><trkpt lat="38.105556081101454" lon="15.435163877994826"><ele>964.0</ele><time>2026-04-28T12:30:37.999Z</time></trkpt><trkpt lat="38.10565941790879" lon="15.43519910585687"><ele>964.0</ele><time>2026-04-28T12:30:39.999Z</time></trkpt><trkpt lat="38.105722816803016" lon="15.435207229249462"><ele>963.9999999999999</ele><time>2026-04-28T12:30:40.999Z</time></trkpt><trkpt lat="38.10583257052785" lon="15.435184135228035"><ele>964.0</ele><time>2026-04-28T12:30:42.999Z</time></trkpt><trkpt lat="38.10589918328796" lon="15.435100316316717"><ele>962.8000000000001</ele><time>2026-04-28T12:30:44.999Z</time></trkpt><trkpt lat="38.10595186672735" lon="15.434978365117518"><ele>961.6000000000001</ele><time>2026-04-28T12:30:46.999Z</time></trkpt><trkpt lat="38.1060031463568" lon="15.43486058857052"><ele>960.4</ele><time>2026-04-28T12:30:48.999Z</time></trkpt><trkpt lat="38.10606376626527" lon="15.434763977271743"><ele>959.2</ele><time>2026-04-28T12:30:50.999Z</time></trkpt><trkpt lat="38.10613377086173" lon="15.434677596543319"><ele>958.0</ele><time>2026-04-28T12:30:52.999Z</time></trkpt><trkpt lat="38.106204478758535" lon="15.43458051621415"><ele>958.0</ele><time>2026-04-28T12:30:55Z</time></trkpt><trkpt lat="38.106276451029" lon="15.434478436398381"><ele>958.0</ele><time>2026-04-28T12:30:57Z</time></trkpt><trkpt lat="38.10635956866775" lon="15.434363083128801"><ele>958.0</ele><time>2026-04-28T12:30:59Z</time></trkpt><trkpt lat="38.10641530499962" lon="15.434237787031245"><ele>958.0</ele><time>2026-04-28T12:31:01Z</time></trkpt><trkpt lat="38.10646324724152" lon="15.434122282220683"><ele>958.0</ele><time>2026-04-28T12:31:03Z</time></trkpt><trkpt lat="38.10653584671378" lon="15.43401395372988"><ele>959.5999999999999</ele><time>2026-04-28T12:31:05Z</time></trkpt><trkpt lat="38.106611935832944" lon="15.433921904412058"><ele>961.1999999999999</ele><time>2026-04-28T12:31:07Z</time></trkpt><trkpt lat="38.10671152791358" lon="15.433851961198988"><ele>962.8</ele><time>2026-04-28T12:31:09Z</time></trkpt><trkpt lat="38.10680860970453" lon="15.433825789333278"><ele>964.4</ele><time>2026-04-28T12:31:11Z</time></trkpt><trkpt lat="38.10688662299717" lon="15.433829303571589"><ele>966.0</ele><time>2026-04-28T12:31:13Z</time></trkpt><trkpt lat="38.1069389535719" lon="15.433751374561252"><ele>966.0</ele><time>2026-04-28T12:31:16Z</time></trkpt><trkpt lat="38.10694785220233" lon="15.433646280846569"><ele>965.9999999999999</ele><time>2026-04-28T12:31:18Z</time></trkpt><trkpt lat="38.10690391942327" lon="15.433543704766697"><ele>965.9999999999999</ele><time>2026-04-28T12:31:20Z</time></trkpt><trkpt lat="38.10682801709675" lon="15.433442869836995"><ele>966.0</ele><time>2026-04-28T12:31:22Z</time></trkpt><trkpt lat="38.10673807148953" lon="15.43335555682179"><ele>966.0</ele><time>2026-04-28T12:31:24Z</time></trkpt><trkpt lat="38.10664316152242" lon="15.433263819804354"><ele>966.0</ele><time>2026-04-28T12:31:26Z</time></trkpt><trkpt lat="38.10660370750829" lon="15.433195829719306"><ele>966.0</ele><time>2026-04-28T12:31:27Z</time></trkpt><trkpt lat="38.106563139861606" lon="15.433125760858545"><ele>966.0</ele><time>2026-04-28T12:31:28Z</time></trkpt><trkpt lat="38.10651418155188" lon="15.433060976429783"><ele>966.0</ele><time>2026-04-28T12:31:29Z</time></trkpt><trkpt lat="38.106429212189425" lon="15.432978893527823"><ele>966.0</ele><time>2026-04-28T12:31:31Z</time></trkpt><trkpt lat="38.10633325722633" lon="15.432959915020655"><ele>966.0</ele><time>2026-04-28T12:31:33Z</time></trkpt><trkpt lat="38.106238998162276" lon="15.432944942068367"><ele>962.4</ele><time>2026-04-28T12:31:35Z</time></trkpt><trkpt lat="38.10615085740273" lon="15.432929066855445"><ele>958.8</ele><time>2026-04-28T12:31:37Z</time></trkpt><trkpt lat="38.106065963372444" lon="15.43289145631538"><ele>955.1999999999999</ele><time>2026-04-28T12:31:39Z</time></trkpt><trkpt lat="38.105968627330064" lon="15.43282858477602"><ele>951.5999999999999</ele><time>2026-04-28T12:31:41Z</time></trkpt><trkpt lat="38.10589319952594" lon="15.432722974714967"><ele>948.0</ele><time>2026-04-28T12:31:43Z</time></trkpt><trkpt lat="38.1058680795416" lon="15.432625655088561"><ele>948.0</ele><time>2026-04-28T12:31:45Z</time></trkpt><trkpt lat="38.105824951936675" lon="15.43255362087892"><ele>948.0</ele><time>2026-04-28T12:31:56Z</time></trkpt><trkpt lat="38.10580182778254" lon="15.432445135729928"><ele>948.0</ele><time>2026-04-28T12:32:29Z</time></trkpt><trkpt lat="38.105770677423095" lon="15.432341455568816"><ele>948.0</ele><time>2026-04-28T12:32:32Z</time></trkpt><trkpt lat="38.10576655832666" lon="15.432248164049584"><ele>948.0</ele><time>2026-04-28T12:32:34Z</time></trkpt><trkpt lat="38.10580491411433" lon="15.432160105215434"><ele>948.0</ele><time>2026-04-28T12:32:37Z</time></trkpt><trkpt lat="38.10582995463689" lon="15.4320823440587"><ele>946.1666666666666</ele><time>2026-04-28T12:32:39Z</time></trkpt><trkpt lat="38.105835652270436" lon="15.431974519807403"><ele>944.3333333333333</ele><time>2026-04-28T12:32:41Z</time></trkpt><trkpt lat="38.105856290885406" lon="15.431882275020849"><ele>942.5</ele><time>2026-04-28T12:32:42.999Z</time></trkpt><trkpt lat="38.105890401134566" lon="15.431797786616789"><ele>940.6666666666666</ele><time>2026-04-28T12:32:44.999Z</time></trkpt><trkpt lat="38.105943185854954" lon="15.431675854524686"><ele>938.8333333333333</ele><time>2026-04-28T12:32:46.999Z</time></trkpt><trkpt lat="38.10599960746264" lon="15.431578507340937"><ele>937.0</ele><time>2026-04-28T12:32:48.999Z</time></trkpt><trkpt lat="38.10605871845974" lon="15.431495624600998"><ele>937.0</ele><time>2026-04-28T12:32:50.999Z</time></trkpt><trkpt lat="38.10611990423547" lon="15.431437229859666"><ele>937.0</ele><time>2026-04-28T12:32:52.999Z</time></trkpt><trkpt lat="38.106195744918146" lon="15.431376431683287"><ele>937.0</ele><time>2026-04-28T12:32:54.999Z</time></trkpt><trkpt lat="38.10626182576085" lon="15.431341886708045"><ele>937.0</ele><time>2026-04-28T12:32:57.999Z</time></trkpt><trkpt lat="38.1063277160044" lon="15.431292294112808"><ele>937.0</ele><time>2026-04-28T12:33:04Z</time></trkpt><trkpt lat="38.106390288415795" lon="15.431269218328046"><ele>937.0</ele><time>2026-04-28T12:36:49Z</time></trkpt><trkpt lat="38.10645815753493" lon="15.431254457334312"><ele>937.0</ele><time>2026-04-28T12:37:33Z</time></trkpt><trkpt lat="38.10652624010408" lon="15.431240012986821"><ele>935.1666666666666</ele><time>2026-04-28T12:37:35Z</time></trkpt><trkpt lat="38.10659655819786" lon="15.431193898286121"><ele>933.3333333333333</ele><time>2026-04-28T12:37:37Z</time></trkpt><trkpt lat="38.106654018903726" lon="15.43111108007757"><ele>931.5</ele><time>2026-04-28T12:37:39Z</time></trkpt><trkpt lat="38.10668208139976" lon="15.431017521033883"><ele>929.6666666666667</ele><time>2026-04-28T12:37:41Z</time></trkpt><trkpt lat="38.10672381944397" lon="15.43092717401022"><ele>927.8333333333334</ele><time>2026-04-28T12:37:43Z</time></trkpt><trkpt lat="38.10677065619583" lon="15.430861146814426"><ele>926.0</ele><time>2026-04-28T12:37:45Z</time></trkpt><trkpt lat="38.10677959521917" lon="15.43078192249829"><ele>926.0000000000001</ele><time>2026-04-28T12:37:49Z</time></trkpt><trkpt lat="38.106716994438024" lon="15.430791829041732"><ele>926.0</ele><time>2026-04-28T12:38:02Z</time></trkpt><trkpt lat="38.106756213776656" lon="15.430728932883483"><ele>926.0</ele><time>2026-04-28T12:38:25Z</time></trkpt><trkpt lat="38.106710011617196" lon="15.430795882972447"><ele>926.0</ele><time>2026-04-28T12:40:45.999Z</time></trkpt><trkpt lat="38.10663771491427" lon="15.430857241789187"><ele>926.0000000000001</ele><time>2026-04-28T12:41:20.999Z</time></trkpt><trkpt lat="38.106573908653694" lon="15.43096037917322"><ele>926.0</ele><time>2026-04-28T12:41:22.999Z</time></trkpt><trkpt lat="38.10650332402976" lon="15.431035508864083"><ele>923.6666666666667</ele><time>2026-04-28T12:41:24.997Z</time></trkpt><trkpt lat="38.10640384511473" lon="15.431067315048523"><ele>921.3333333333334</ele><time>2026-04-28T12:41:26.997Z</time></trkpt><trkpt lat="38.10634087330692" lon="15.43105883481801"><ele>919.0</ele><time>2026-04-28T12:41:27.997Z</time></trkpt><trkpt lat="38.10626899512666" lon="15.431059440735032"><ele>916.6666666666667</ele><time>2026-04-28T12:41:28.997Z</time></trkpt><trkpt lat="38.10619980316936" lon="15.431078453616323"><ele>914.3333333333334</ele><time>2026-04-28T12:41:29.997Z</time></trkpt><trkpt lat="38.10610456403268" lon="15.431130181138322"><ele>912.0</ele><time>2026-04-28T12:41:31.998Z</time></trkpt><trkpt lat="38.10598840330484" lon="15.43118515152844"><ele>912.0</ele><time>2026-04-28T12:41:33.998Z</time></trkpt><trkpt lat="38.10588386404181" lon="15.431231036287436"><ele>912.0</ele><time>2026-04-28T12:41:35.998Z</time></trkpt><trkpt lat="38.105809578260455" lon="15.431321475001788"><ele>912.0</ele><time>2026-04-28T12:41:37.998Z</time></trkpt><trkpt lat="38.10574882695177" lon="15.431372009865848"><ele>912.0</ele><time>2026-04-28T12:41:38.998Z</time></trkpt><trkpt lat="38.105681345418425" lon="15.43142458549719"><ele>912.0</ele><time>2026-04-28T12:41:39.998Z</time></trkpt><trkpt lat="38.10562174137065" lon="15.431458948569617"><ele>912.0</ele><time>2026-04-28T12:41:40.998Z</time></trkpt><trkpt lat="38.105540372222436" lon="15.431552741120504"><ele>909.3333333333334</ele><time>2026-04-28T12:41:42.998Z</time></trkpt><trkpt lat="38.1055176844327" lon="15.431693463697084"><ele>906.6666666666667</ele><time>2026-04-28T12:41:44.998Z</time></trkpt><trkpt lat="38.105513888242584" lon="15.431842224769685"><ele>904.0</ele><time>2026-04-28T12:41:46.998Z</time></trkpt><trkpt lat="38.10549892741069" lon="15.431936483061058"><ele>901.3333333333334</ele><time>2026-04-28T12:41:48.998Z</time></trkpt><trkpt lat="38.10543363011228" lon="15.431904313328541"><ele>898.6666666666667</ele><time>2026-04-28T12:41:51.998Z</time></trkpt><trkpt lat="38.10544857718097" lon="15.43181991960453"><ele>896.0</ele><time>2026-04-28T12:41:52.998Z</time></trkpt><trkpt lat="38.1054095939989" lon="15.431617931571878"><ele>896.0</ele><time>2026-04-28T12:41:54.998Z</time></trkpt><trkpt lat="38.10541524279272" lon="15.431527785234865"><ele>895.9999999999999</ele><time>2026-04-28T12:41:55.998Z</time></trkpt><trkpt lat="38.10542618285509" lon="15.431391415896329"><ele>895.9999999999999</ele><time>2026-04-28T12:41:57.999Z</time></trkpt><trkpt lat="38.105446154907234" lon="15.431261740518359"><ele>896.0</ele><time>2026-04-28T12:41:59.999Z</time></trkpt><trkpt lat="38.10549951429298" lon="15.43114969359981"><ele>896.0</ele><time>2026-04-28T12:42:01.999Z</time></trkpt><trkpt lat="38.10558280085115" lon="15.431089310786142"><ele>899.1999999999999</ele><time>2026-04-28T12:42:03.999Z</time></trkpt><trkpt lat="38.10568700878196" lon="15.431034150063843"><ele>902.3999999999999</ele><time>2026-04-28T12:42:05.999Z</time></trkpt><trkpt lat="38.10573401886943" lon="15.430937485921268"><ele>905.6</ele><time>2026-04-28T12:42:07.999Z</time></trkpt><trkpt lat="38.10578434701023" lon="15.430835647731284"><ele>908.8</ele><time>2026-04-28T12:42:09.999Z</time></trkpt><trkpt lat="38.10587969859523" lon="15.430723464286514"><ele>912.0</ele><time>2026-04-28T12:42:11.999Z</time></trkpt><trkpt lat="38.105934136737126" lon="15.430662200833854"><ele>912.0</ele><time>2026-04-28T12:42:12.999Z</time></trkpt><trkpt lat="38.10599330806993" lon="15.430604252778105"><ele>912.0</ele><time>2026-04-28T12:42:13.999Z</time></trkpt><trkpt lat="38.10612915132412" lon="15.430580001623273"><ele>912.0</ele><time>2026-04-28T12:42:14.999Z</time></trkpt><trkpt lat="38.106219672497275" lon="15.430558004480375"><ele>912.0</ele><time>2026-04-28T12:42:16.999Z</time></trkpt><trkpt lat="38.106323231187986" lon="15.430512599919725"><ele>912.0</ele><time>2026-04-28T12:42:18.999Z</time></trkpt><trkpt lat="38.106424114341046" lon="15.43044662988559"><ele>908.1666666666666</ele><time>2026-04-28T12:42:20.999Z</time></trkpt><trkpt lat="38.106449340787606" lon="15.430359528046422"><ele>904.3333333333333</ele><time>2026-04-28T12:42:21.999Z</time></trkpt><trkpt lat="38.10646916474407" lon="15.430246915061415"><ele>900.5</ele><time>2026-04-28T12:42:22.999Z</time></trkpt><trkpt lat="38.106481448005724" lon="15.430126068206135"><ele>896.6666666666666</ele><time>2026-04-28T12:42:23.999Z</time></trkpt><trkpt lat="38.10647681007971" lon="15.430001543448762"><ele>892.8333333333333</ele><time>2026-04-28T12:42:24.999Z</time></trkpt><trkpt lat="38.10646913974511" lon="15.429897509575648"><ele>889.0</ele><time>2026-04-28T12:42:25.999Z</time></trkpt><trkpt lat="38.10648062095044" lon="15.429787225941208"><ele>888.9999999999999</ele><time>2026-04-28T12:42:26.999Z</time></trkpt><trkpt lat="38.106502135684956" lon="15.429682018245817"><ele>889.0</ele><time>2026-04-28T12:42:27.999Z</time></trkpt><trkpt lat="38.10652430318867" lon="15.429574897502"><ele>889.0</ele><time>2026-04-28T12:42:28.999Z</time></trkpt><trkpt lat="38.10654715277245" lon="15.429485708703297"><ele>889.0</ele><time>2026-04-28T12:42:29.999Z</time></trkpt><trkpt lat="38.10658111858352" lon="15.42941782692754"><ele>888.9999999999999</ele><time>2026-04-28T12:42:30.999Z</time></trkpt><trkpt lat="38.10666203864998" lon="15.429324180306713"><ele>889.0</ele><time>2026-04-28T12:42:32.999Z</time></trkpt><trkpt lat="38.1067075783578" lon="15.429257991229372"><ele>891.8000000000001</ele><time>2026-04-28T12:42:35.999Z</time></trkpt><trkpt lat="38.10675447244259" lon="15.429124010527751"><ele>894.6000000000001</ele><time>2026-04-28T12:59:39Z</time></trkpt><trkpt lat="38.10678791951366" lon="15.428988915503677"><ele>897.4</ele><time>2026-04-28T12:59:41Z</time></trkpt><trkpt lat="38.106801815034395" lon="15.428890180548636"><ele>900.2</ele><time>2026-04-28T12:59:42Z</time></trkpt><trkpt lat="38.106805023006686" lon="15.428788850493888"><ele>903.0</ele><time>2026-04-28T12:59:43Z</time></trkpt><trkpt lat="38.106798283645524" lon="15.428684219302694"><ele>904.6666666666666</ele><time>2026-04-28T12:59:44Z</time></trkpt><trkpt lat="38.10679685129537" lon="15.42857035522488"><ele>906.3333333333333</ele><time>2026-04-28T12:59:45Z</time></trkpt><trkpt lat="38.10679856698341" lon="15.428466267480571"><ele>908.0</ele><time>2026-04-28T12:59:46Z</time></trkpt><trkpt lat="38.1068141815394" lon="15.42836747497112"><ele>909.6666666666666</ele><time>2026-04-28T12:59:47Z</time></trkpt><trkpt lat="38.10682598793578" lon="15.428265748534704"><ele>911.3333333333333</ele><time>2026-04-28T12:59:48Z</time></trkpt><trkpt lat="38.106830350116155" lon="15.42816589550225"><ele>913.0</ele><time>2026-04-28T12:59:49Z</time></trkpt><trkpt lat="38.10683693529124" lon="15.428075979838717"><ele>912.5999999999999</ele><time>2026-04-28T12:59:50Z</time></trkpt><trkpt lat="38.10682543599746" lon="15.427903475825802"><ele>912.1999999999999</ele><time>2026-04-28T12:59:52Z</time></trkpt><trkpt lat="38.106802277697376" lon="15.42778884055565"><ele>911.8</ele><time>2026-04-28T12:59:53Z</time></trkpt><trkpt lat="38.10679246142992" lon="15.427682957184095"><ele>911.4</ele><time>2026-04-28T12:59:54Z</time></trkpt><trkpt lat="38.106788730742245" lon="15.427581215045384"><ele>911.0</ele><time>2026-04-28T12:59:55Z</time></trkpt><trkpt lat="38.1067884035933" lon="15.427473261666977"><ele>911.0000000000001</ele><time>2026-04-28T12:59:56Z</time></trkpt><trkpt lat="38.106781819992115" lon="15.427363629265932"><ele>911.0</ele><time>2026-04-28T12:59:57Z</time></trkpt><trkpt lat="38.10676234251502" lon="15.427255687232925"><ele>911.0</ele><time>2026-04-28T12:59:58Z</time></trkpt><trkpt lat="38.10672958071811" lon="15.427141544742527"><ele>911.0</ele><time>2026-04-28T12:59:59Z</time></trkpt><trkpt lat="38.106694692536514" lon="15.42703044130512"><ele>911.0000000000001</ele><time>2026-04-28T13:00:00Z</time></trkpt><trkpt lat="38.1066671129733" lon="15.426929201107228"><ele>911.0</ele><time>2026-04-28T13:00:01Z</time></trkpt><trkpt lat="38.10664396283941" lon="15.42684169436215"><ele>908.1666666666667</ele><time>2026-04-28T13:00:02Z</time></trkpt><trkpt lat="38.1066194664827" lon="15.42675083384491"><ele>905.3333333333334</ele><time>2026-04-28T13:00:03Z</time></trkpt><trkpt lat="38.106606414208834" lon="15.426652747146466"><ele>902.5</ele><time>2026-04-28T13:00:04Z</time></trkpt><trkpt lat="38.106599564038085" lon="15.42655653592408"><ele>899.6666666666667</ele><time>2026-04-28T13:00:05Z</time></trkpt><trkpt lat="38.10655870233174" lon="15.426434695487913"><ele>896.8333333333334</ele><time>2026-04-28T13:00:07Z</time></trkpt><trkpt lat="38.10646852928324" lon="15.426387186060246"><ele>894.0</ele><time>2026-04-28T13:00:09Z</time></trkpt><trkpt lat="38.10639626526604" lon="15.426376064059777"><ele>895.6666666666666</ele><time>2026-04-28T13:00:10Z</time></trkpt><trkpt lat="38.106315889327995" lon="15.426365439851182"><ele>897.3333333333333</ele><time>2026-04-28T13:00:11Z</time></trkpt><trkpt lat="38.10620159044744" lon="15.426313390349446"><ele>899.0</ele><time>2026-04-28T13:00:13Z</time></trkpt><trkpt lat="38.106140884760165" lon="15.426258651994274"><ele>900.6666666666666</ele><time>2026-04-28T13:00:14Z</time></trkpt><trkpt lat="38.10607775807784" lon="15.426193115673913"><ele>902.3333333333333</ele><time>2026-04-28T13:00:15Z</time></trkpt><trkpt lat="38.10601479840431" lon="15.426123530183432"><ele>904.0</ele><time>2026-04-28T13:00:16Z</time></trkpt><trkpt lat="38.10596190023419" lon="15.42605547908588"><ele>903.9999999999999</ele><time>2026-04-28T13:00:17Z</time></trkpt><trkpt lat="38.10590471764111" lon="15.425979687511306"><ele>904.0</ele><time>2026-04-28T13:00:18Z</time></trkpt><trkpt lat="38.105837886741256" lon="15.425897639052463"><ele>904.0</ele><time>2026-04-28T13:00:19Z</time></trkpt><trkpt lat="38.105781080328086" lon="15.425822931347334"><ele>904.0</ele><time>2026-04-28T13:00:20Z</time></trkpt><trkpt lat="38.10572760244271" lon="15.425749410622918"><ele>903.9999999999999</ele><time>2026-04-28T13:00:21Z</time></trkpt><trkpt lat="38.10567267189468" lon="15.425685000973234"><ele>904.0</ele><time>2026-04-28T13:00:22Z</time></trkpt><trkpt lat="38.105615142104256" lon="15.425628546118862"><ele>900.4000000000001</ele><time>2026-04-28T13:00:23Z</time></trkpt><trkpt lat="38.10555469005173" lon="15.425569139563356"><ele>896.8000000000001</ele><time>2026-04-28T13:00:24Z</time></trkpt><trkpt lat="38.10547810476119" lon="15.425493889824077"><ele>893.1999999999999</ele><time>2026-04-28T13:00:26Z</time></trkpt><trkpt lat="38.105384813049795" lon="15.425426280572633"><ele>889.5999999999999</ele><time>2026-04-28T13:00:28Z</time></trkpt><trkpt lat="38.10528160374187" lon="15.425418121798419"><ele>886.0</ele><time>2026-04-28T13:00:30Z</time></trkpt><trkpt lat="38.105196450835656" lon="15.425453762145798"><ele>885.9999999999999</ele><time>2026-04-28T13:00:32Z</time></trkpt><trkpt lat="38.105081006862" lon="15.425456148257492"><ele>886.0</ele><time>2026-04-28T13:00:36Z</time></trkpt><trkpt lat="38.10501838637358" lon="15.42542889419691"><ele>886.0</ele><time>2026-04-28T13:00:37Z</time></trkpt><trkpt lat="38.10494874842901" lon="15.425399476517889"><ele>886.0</ele><time>2026-04-28T13:00:38Z</time></trkpt><trkpt lat="38.10486711641093" lon="15.425381659144811"><ele>885.9999999999999</ele><time>2026-04-28T13:00:39Z</time></trkpt><trkpt lat="38.104771104557614" lon="15.425364839292026"><ele>886.0</ele><time>2026-04-28T13:00:40Z</time></trkpt><trkpt lat="38.10467399709392" lon="15.425343755471786"><ele>888.9999999999999</ele><time>2026-04-28T13:00:41Z</time></trkpt><trkpt lat="38.10459429998807" lon="15.425319947416872"><ele>892.0</ele><time>2026-04-28T13:00:42Z</time></trkpt><trkpt lat="38.10453088095968" lon="15.42529300086086"><ele>895.0</ele><time>2026-04-28T13:00:43Z</time></trkpt><trkpt lat="38.10444902367045" lon="15.425221277127513"><ele>898.0</ele><time>2026-04-28T13:00:45Z</time></trkpt><trkpt lat="38.10440576885931" lon="15.425155707557346"><ele>900.9999999999999</ele><time>2026-04-28T13:00:46Z</time></trkpt><trkpt lat="38.10433354474906" lon="15.425054407327558"><ele>904.0</ele><time>2026-04-28T13:00:48Z</time></trkpt><trkpt lat="38.10420411387557" lon="15.425006206089263"><ele>904.0</ele><time>2026-04-28T13:00:50Z</time></trkpt><trkpt lat="38.104130034207444" lon="15.424989239941075"><ele>904.0</ele><time>2026-04-28T13:00:51Z</time></trkpt><trkpt lat="38.10405392641826" lon="15.424981812812621"><ele>904.0</ele><time>2026-04-28T13:00:52Z</time></trkpt><trkpt lat="38.10396748684833" lon="15.424988275900596"><ele>904.0</ele><time>2026-04-28T13:00:53Z</time></trkpt><trkpt lat="38.1038953724587" lon="15.424994085074918"><ele>904.0</ele><time>2026-04-28T13:00:54Z</time></trkpt><trkpt lat="38.10382443620015" lon="15.424994689487695"><ele>904.0</ele><time>2026-04-28T13:00:55Z</time></trkpt><trkpt lat="38.10375815264591" lon="15.4249885245003"><ele>904.0</ele><time>2026-04-28T13:00:56Z</time></trkpt><trkpt lat="38.103689169173684" lon="15.424963259909259"><ele>903.4999999999999</ele><time>2026-04-28T13:00:57Z</time></trkpt><trkpt lat="38.10362575984142" lon="15.424926655029749"><ele>903.0</ele><time>2026-04-28T13:00:58Z</time></trkpt><trkpt lat="38.1035259834446" lon="15.424859316739564"><ele>902.5</ele><time>2026-04-28T13:01:00Z</time></trkpt><trkpt lat="38.103473651190555" lon="15.424802977047554"><ele>902.0</ele><time>2026-04-28T13:01:01Z</time></trkpt><trkpt lat="38.103420440997986" lon="15.424742881696806"><ele>901.4999999999999</ele><time>2026-04-28T13:01:02Z</time></trkpt><trkpt lat="38.103372258885805" lon="15.424677371673262"><ele>901.0</ele><time>2026-04-28T13:01:03Z</time></trkpt><trkpt lat="38.10332093511947" lon="15.424602051423712"><ele>902.5999999999999</ele><time>2026-04-28T13:01:04Z</time></trkpt><trkpt lat="38.103270876928775" lon="15.424535415702152"><ele>904.1999999999999</ele><time>2026-04-28T13:01:05Z</time></trkpt><trkpt lat="38.103217313075014" lon="15.424487735219337"><ele>905.8000000000001</ele><time>2026-04-28T13:01:06Z</time></trkpt><trkpt lat="38.103095176224826" lon="15.424460018140392"><ele>907.4000000000001</ele><time>2026-04-28T13:01:08Z</time></trkpt><trkpt lat="38.102963368719415" lon="15.424493502472323"><ele>909.0</ele><time>2026-04-28T13:01:10Z</time></trkpt><trkpt lat="38.10290258912187" lon="15.424521201098193"><ele>909.1666666666666</ele><time>2026-04-28T13:01:11Z</time></trkpt><trkpt lat="38.102814941815936" lon="15.424535113893803"><ele>909.3333333333333</ele><time>2026-04-28T13:01:13Z</time></trkpt><trkpt lat="38.102702044895956" lon="15.424467974355798"><ele>909.5</ele><time>2026-04-28T13:01:15Z</time></trkpt><trkpt lat="38.10262735287356" lon="15.424424464305039"><ele>909.6666666666666</ele><time>2026-04-28T13:01:16Z</time></trkpt><trkpt lat="38.1025626887365" lon="15.424377643870905"><ele>909.8333333333333</ele><time>2026-04-28T13:01:17Z</time></trkpt><trkpt lat="38.10250801879583" lon="15.42432846080666"><ele>910.0</ele><time>2026-04-28T13:01:18Z</time></trkpt><trkpt lat="38.102461105821035" lon="15.42426922446047"><ele>912.4</ele><time>2026-04-28T13:01:19Z</time></trkpt><trkpt lat="38.10239192859395" lon="15.424162770178793"><ele>914.8</ele><time>2026-04-28T13:01:21Z</time></trkpt><trkpt lat="38.10233702223506" lon="15.424116782382383"><ele>917.2</ele><time>2026-04-28T13:01:23Z</time></trkpt><trkpt lat="38.102216288817" lon="15.424166242015154"><ele>919.6</ele><time>2026-04-28T13:03:10Z</time></trkpt><trkpt lat="38.102148572057295" lon="15.424211170527295"><ele>922.0</ele><time>2026-04-28T13:03:11Z</time></trkpt><trkpt lat="38.10207736872946" lon="15.424244750003188"><ele>922.0</ele><time>2026-04-28T13:03:12Z</time></trkpt><trkpt lat="38.10200830273642" lon="15.424281546511239"><ele>922.0</ele><time>2026-04-28T13:03:13Z</time></trkpt><trkpt lat="38.101960193373365" lon="15.424341192945917"><ele>922.0</ele><time>2026-04-28T13:03:14Z</time></trkpt><trkpt lat="38.10192004945985" lon="15.424404420527805"><ele>922.0</ele><time>2026-04-28T13:03:15Z</time></trkpt><trkpt lat="38.10181659343661" lon="15.424478588437278"><ele>922.0</ele><time>2026-04-28T13:03:17Z</time></trkpt><trkpt lat="38.10168478286661" lon="15.42445274772763"><ele>922.0</ele><time>2026-04-28T13:03:19Z</time></trkpt><trkpt lat="38.10160602843733" lon="15.42442820108126"><ele>922.0</ele><time>2026-04-28T13:03:20Z</time></trkpt><trkpt lat="38.10150106410166" lon="15.424519652125424"><ele>922.0</ele><time>2026-04-28T13:03:22Z</time></trkpt><trkpt lat="38.10144767696531" lon="15.424623370736304"><ele>922.0</ele><time>2026-04-28T13:03:23Z</time></trkpt><trkpt lat="38.10138570577638" lon="15.424716883417432"><ele>922.0</ele><time>2026-04-28T13:03:24Z</time></trkpt><trkpt lat="38.101317974400914" lon="15.424790370490857"><ele>921.8333333333333</ele><time>2026-04-28T13:03:25Z</time></trkpt><trkpt lat="38.10126506959689" lon="15.424855681617107"><ele>921.6666666666666</ele><time>2026-04-28T13:03:26Z</time></trkpt><trkpt lat="38.10118378442654" lon="15.4249331240092"><ele>921.5</ele><time>2026-04-28T13:03:28Z</time></trkpt><trkpt lat="38.101117583592675" lon="15.424945431585256"><ele>921.3333333333333</ele><time>2026-04-28T13:03:29Z</time></trkpt><trkpt lat="38.10104237219338" lon="15.424938589760659"><ele>921.1666666666666</ele><time>2026-04-28T13:03:30Z</time></trkpt><trkpt lat="38.10093281430425" lon="15.424862919299287"><ele>921.0</ele><time>2026-04-28T13:03:32Z</time></trkpt><trkpt lat="38.100856633389405" lon="15.424795571647275"><ele>921.0</ele><time>2026-04-28T13:03:33Z</time></trkpt><trkpt lat="38.100781599093544" lon="15.424764187220596"><ele>920.9999999999999</ele><time>2026-04-28T13:03:34Z</time></trkpt><trkpt lat="38.10067586139732" lon="15.424799302995053"><ele>920.9999999999999</ele><time>2026-04-28T13:03:36Z</time></trkpt><trkpt lat="38.100616097814694" lon="15.424936069264707"><ele>921.0</ele><time>2026-04-28T13:03:38Z</time></trkpt><trkpt lat="38.100602509847604" lon="15.42503877183968"><ele>921.0</ele><time>2026-04-28T13:03:39Z</time></trkpt><trkpt lat="38.10057878376624" lon="15.425132659091755"><ele>925.0</ele><time>2026-04-28T13:03:40Z</time></trkpt><trkpt lat="38.10052927267673" lon="15.425228860030169"><ele>928.9999999999999</ele><time>2026-04-28T13:03:41Z</time></trkpt><trkpt lat="38.100462784601106" lon="15.425355342303412"><ele>932.9999999999999</ele><time>2026-04-28T13:03:42Z</time></trkpt><trkpt lat="38.10040265088683" lon="15.425485774278842"><ele>937.0</ele><time>2026-04-28T13:03:43Z</time></trkpt><trkpt lat="38.10035222430299" lon="15.425612939705319"><ele>941.0</ele><time>2026-04-28T13:03:44Z</time></trkpt><trkpt lat="38.10030320949783" lon="15.425719809983423"><ele>933.8333333333334</ele><time>2026-04-28T13:03:45Z</time></trkpt><trkpt lat="38.10026863316999" lon="15.42580486143815"><ele>926.6666666666667</ele><time>2026-04-28T13:03:46Z</time></trkpt><trkpt lat="38.10023160923083" lon="15.425877589254123"><ele>919.5</ele><time>2026-04-28T13:03:47Z</time></trkpt><trkpt lat="38.10018654266007" lon="15.425943152988442"><ele>912.3333333333333</ele><time>2026-04-28T13:03:48Z</time></trkpt><trkpt lat="38.10010251975806" lon="15.42600575133521"><ele>905.1666666666666</ele><time>2026-04-28T13:03:50Z</time></trkpt><trkpt lat="38.10000042040904" lon="15.425914560862278"><ele>898.0</ele><time>2026-04-28T13:03:52Z</time></trkpt><trkpt lat="38.09998638797764" lon="15.425827117389007"><ele>897.9999999999999</ele><time>2026-04-28T13:03:53Z</time></trkpt><trkpt lat="38.099970566615944" lon="15.425720180947106"><ele>898.0</ele><time>2026-04-28T13:03:54Z</time></trkpt><trkpt lat="38.09994003536115" lon="15.425615033579053"><ele>898.0</ele><time>2026-04-28T13:03:55Z</time></trkpt><trkpt lat="38.09990202522195" lon="15.42553663505016"><ele>898.0</ele><time>2026-04-28T13:03:56Z</time></trkpt><trkpt lat="38.099853501892625" lon="15.425455929935117"><ele>897.9999999999999</ele><time>2026-04-28T13:03:57Z</time></trkpt><trkpt lat="38.09981342630219" lon="15.42536316448566"><ele>898.0</ele><time>2026-04-28T13:03:58Z</time></trkpt><trkpt lat="38.09973964905529" lon="15.425247975312772"><ele>901.3333333333333</ele><time>2026-04-28T13:04:00Z</time></trkpt><trkpt lat="38.09967417196184" lon="15.425198444917608"><ele>904.6666666666666</ele><time>2026-04-28T13:04:01Z</time></trkpt><trkpt lat="38.09960090853535" lon="15.425133667012874"><ele>908.0</ele><time>2026-04-28T13:04:02Z</time></trkpt><trkpt lat="38.099537774872154" lon="15.425060805461284"><ele>911.3333333333333</ele><time>2026-04-28T13:04:03Z</time></trkpt><trkpt lat="38.09946894546712" lon="15.424993679815952"><ele>914.6666666666666</ele><time>2026-04-28T13:04:04Z</time></trkpt><trkpt lat="38.09940607262278" lon="15.424934773908994"><ele>918.0</ele><time>2026-04-28T13:04:05Z</time></trkpt><trkpt lat="38.09934677757921" lon="15.424890722333211"><ele>918.0</ele><time>2026-04-28T13:04:06Z</time></trkpt><trkpt lat="38.09928309112751" lon="15.424878096825061"><ele>918.0</ele><time>2026-04-28T13:04:07Z</time></trkpt><trkpt lat="38.09921496021624" lon="15.424899077314326"><ele>918.0</ele><time>2026-04-28T13:04:08Z</time></trkpt><trkpt lat="38.099149213760604" lon="15.424924726818626"><ele>918.0</ele><time>2026-04-28T13:04:09Z</time></trkpt><trkpt lat="38.09905830197191" lon="15.424982003882"><ele>918.0</ele><time>2026-04-28T13:04:11Z</time></trkpt><trkpt lat="38.09896357624946" lon="15.424933891049601"><ele>918.0</ele><time>2026-04-28T13:04:13Z</time></trkpt><trkpt lat="38.09890843400028" lon="15.424874450192773"><ele>915.4</ele><time>2026-04-28T13:04:14Z</time></trkpt><trkpt lat="38.09881249134617" lon="15.424804769624263"><ele>912.8</ele><time>2026-04-28T13:04:16Z</time></trkpt><trkpt lat="38.098709967648205" lon="15.424814371312385"><ele>910.2</ele><time>2026-04-28T13:04:18Z</time></trkpt><trkpt lat="38.09860384312199" lon="15.424786000768458"><ele>907.6</ele><time>2026-04-28T13:04:21Z</time></trkpt><trkpt lat="38.09850649184665" lon="15.424731231858948"><ele>905.0</ele><time>2026-04-28T13:04:22Z</time></trkpt><trkpt lat="38.09840591599536" lon="15.424739994471539"><ele>905.0000000000001</ele><time>2026-04-28T13:04:24Z</time></trkpt><trkpt lat="38.098358731348775" lon="15.424798162288996"><ele>905.0</ele><time>2026-04-28T13:04:25Z</time></trkpt><trkpt lat="38.0982672911979" lon="15.424829131808584"><ele>905.0</ele><time>2026-04-28T13:04:27Z</time></trkpt><trkpt lat="38.0981726801453" lon="15.424738319446734"><ele>905.0</ele><time>2026-04-28T13:04:29Z</time></trkpt><trkpt lat="38.09811612834109" lon="15.424702467439916"><ele>905.0000000000001</ele><time>2026-04-28T13:04:30Z</time></trkpt><trkpt lat="38.09804069891931" lon="15.424691838348819"><ele>905.0</ele><time>2026-04-28T13:04:31Z</time></trkpt><trkpt lat="38.097976333756954" lon="15.424679337752263"><ele>903.8571428571428</ele><time>2026-04-28T13:04:32Z</time></trkpt><trkpt lat="38.09791913180973" lon="15.42464337029955"><ele>902.7142857142856</ele><time>2026-04-28T13:04:33Z</time></trkpt><trkpt lat="38.097855341069796" lon="15.424618900766655"><ele>901.5714285714286</ele><time>2026-04-28T13:04:34Z</time></trkpt><trkpt lat="38.09778569090973" lon="15.42464698216186"><ele>900.4285714285713</ele><time>2026-04-28T13:04:35Z</time></trkpt><trkpt lat="38.097734850831415" lon="15.424694537509017"><ele>899.2857142857142</ele><time>2026-04-28T13:04:36Z</time></trkpt><trkpt lat="38.097697767900264" lon="15.42476313860905"><ele>898.1428571428571</ele><time>2026-04-28T13:04:37Z</time></trkpt><trkpt lat="38.09762265877969" lon="15.424864846911369"><ele>897.0</ele><time>2026-04-28T13:04:39Z</time></trkpt><trkpt lat="38.097501661064726" lon="15.424875548377925"><ele>897.0</ele><time>2026-04-28T13:04:41Z</time></trkpt><trkpt lat="38.09742707278735" lon="15.424853953458523"><ele>897.0</ele><time>2026-04-28T13:04:42Z</time></trkpt><trkpt lat="38.097359538384474" lon="15.424861043379842"><ele>897.0</ele><time>2026-04-28T13:04:43Z</time></trkpt><trkpt lat="38.09729497896447" lon="15.424899398403003"><ele>897.0</ele><time>2026-04-28T13:04:44Z</time></trkpt><trkpt lat="38.097191549098284" lon="15.424918311297693"><ele>897.0</ele><time>2026-04-28T13:04:46Z</time></trkpt><trkpt lat="38.097134505232674" lon="15.424869694095138"><ele>897.0</ele><time>2026-04-28T13:04:47Z</time></trkpt><trkpt lat="38.09705694849979" lon="15.42475059255974"><ele>896.2</ele><time>2026-04-28T13:04:50Z</time></trkpt><trkpt lat="38.09686747828557" lon="15.424719081387844"><ele>895.4000000000001</ele><time>2026-04-28T13:04:54Z</time></trkpt><trkpt lat="38.09678934056374" lon="15.424769860137078"><ele>894.5999999999999</ele><time>2026-04-28T13:04:56Z</time></trkpt><trkpt lat="38.09671806384781" lon="15.42474349349002"><ele>893.8</ele><time>2026-04-28T13:04:58Z</time></trkpt><trkpt lat="38.09666351805667" lon="15.424684968833388"><ele>893.0</ele><time>2026-04-28T13:04:59Z</time></trkpt><trkpt lat="38.096591017915" lon="15.424602829342033"><ele>893.0</ele><time>2026-04-28T13:05:00Z</time></trkpt><trkpt lat="38.096520087739556" lon="15.424523225293688"><ele>893.0</ele><time>2026-04-28T13:05:01Z</time></trkpt><trkpt lat="38.0964599772443" lon="15.424431663368356"><ele>893.0</ele><time>2026-04-28T13:05:02Z</time></trkpt><trkpt lat="38.09639255896486" lon="15.424340933112154"><ele>893.0</ele><time>2026-04-28T13:05:03Z</time></trkpt><trkpt lat="38.096320568758" lon="15.424275001134072"><ele>893.0</ele><time>2026-04-28T13:05:04Z</time></trkpt><trkpt lat="38.09625681031096" lon="15.42420083933402"><ele>893.0</ele><time>2026-04-28T13:05:05Z</time></trkpt><trkpt lat="38.096198671407706" lon="15.424155021301129"><ele>893.0</ele><time>2026-04-28T13:05:06Z</time></trkpt><trkpt lat="38.096123743667654" lon="15.42403628737175"><ele>893.0</ele><time>2026-04-28T13:05:08Z</time></trkpt><trkpt lat="38.09610561494973" lon="15.423939998318913"><ele>893.0</ele><time>2026-04-28T13:05:09Z</time></trkpt><trkpt lat="38.09610189153367" lon="15.423728901817492"><ele>893.0</ele><time>2026-04-28T13:05:10Z</time></trkpt><trkpt lat="38.0961113095411" lon="15.42359847784429"><ele>895.6666666666667</ele><time>2026-04-28T13:05:11Z</time></trkpt><trkpt lat="38.09611644655956" lon="15.423475645768317"><ele>898.3333333333334</ele><time>2026-04-28T13:05:12Z</time></trkpt><trkpt lat="38.09609947004905" lon="15.423392909199412"><ele>901.0</ele><time>2026-04-28T13:05:13Z</time></trkpt><trkpt lat="38.096059012627656" lon="15.423302981615512"><ele>903.6666666666667</ele><time>2026-04-28T13:05:14Z</time></trkpt><trkpt lat="38.095989443091426" lon="15.42322437331269"><ele>906.3333333333334</ele><time>2026-04-28T13:05:15Z</time></trkpt><trkpt lat="38.09592528476115" lon="15.423161140227895"><ele>909.0</ele><time>2026-04-28T13:05:16Z</time></trkpt><trkpt lat="38.095899216268684" lon="15.42308595224099"><ele>909.0</ele><time>2026-04-28T13:05:17Z</time></trkpt><trkpt lat="38.095866326457866" lon="15.422986392578688"><ele>909.0000000000001</ele><time>2026-04-28T13:05:18Z</time></trkpt><trkpt lat="38.09582813937616" lon="15.422861983902205"><ele>909.0000000000001</ele><time>2026-04-28T13:05:19Z</time></trkpt><trkpt lat="38.09578876345171" lon="15.422760321096224"><ele>909.0</ele><time>2026-04-28T13:05:20Z</time></trkpt><trkpt lat="38.09573860322375" lon="15.422656663931399"><ele>909.0</ele><time>2026-04-28T13:05:21Z</time></trkpt><trkpt lat="38.09566793732884" lon="15.42255585012573"><ele>908.2</ele><time>2026-04-28T13:05:22Z</time></trkpt><trkpt lat="38.09559023240848" lon="15.422461983220826"><ele>907.4000000000001</ele><time>2026-04-28T13:05:23Z</time></trkpt><trkpt lat="38.09550081550299" lon="15.422377194417933"><ele>906.6</ele><time>2026-04-28T13:05:24Z</time></trkpt><trkpt lat="38.095436020344174" lon="15.422295258998345"><ele>905.8</ele><time>2026-04-28T13:05:25Z</time></trkpt><trkpt lat="38.09538614854239" lon="15.422198761135284"><ele>905.0</ele><time>2026-04-28T13:05:26Z</time></trkpt><trkpt lat="38.09533144076754" lon="15.422081756803996"><ele>904.2</ele><time>2026-04-28T13:05:27Z</time></trkpt><trkpt lat="38.095269661413965" lon="15.42198334411677"><ele>903.4</ele><time>2026-04-28T13:05:28Z</time></trkpt><trkpt lat="38.095190886342046" lon="15.421902499479327"><ele>902.5999999999999</ele><time>2026-04-28T13:05:29Z</time></trkpt><trkpt lat="38.095115132819075" lon="15.421842397367584"><ele>901.8</ele><time>2026-04-28T13:05:30Z</time></trkpt><trkpt lat="38.095028483091276" lon="15.421748609789704"><ele>901.0</ele><time>2026-04-28T13:05:32Z</time></trkpt><trkpt lat="38.09497216365714" lon="15.421657577950848"><ele>900.8</ele><time>2026-04-28T13:05:34Z</time></trkpt><trkpt lat="38.09491751371645" lon="15.421575251021565"><ele>900.5999999999999</ele><time>2026-04-28T13:05:36Z</time></trkpt><trkpt lat="38.09483720826021" lon="15.421563586289142"><ele>900.4</ele><time>2026-04-28T13:05:39Z</time></trkpt><trkpt lat="38.0946899563652" lon="15.421621415788916"><ele>900.2</ele><time>2026-04-28T13:05:41Z</time></trkpt><trkpt lat="38.094645354080086" lon="15.421679069734786"><ele>900.0</ele><time>2026-04-28T13:05:42Z</time></trkpt><trkpt lat="38.09458573830508" lon="15.421737042334177"><ele>900.0000000000001</ele><time>2026-04-28T13:05:43Z</time></trkpt><trkpt lat="38.094524027003025" lon="15.421764292683113"><ele>900.0</ele><time>2026-04-28T13:05:44Z</time></trkpt><trkpt lat="38.09445527922851" lon="15.421751762154399"><ele>900.0000000000001</ele><time>2026-04-28T13:05:45Z</time></trkpt><trkpt lat="38.09438506131027" lon="15.421718102787997"><ele>900.0000000000001</ele><time>2026-04-28T13:05:46Z</time></trkpt><trkpt lat="38.09430253216817" lon="15.421682777082694"><ele>900.0</ele><time>2026-04-28T13:05:47Z</time></trkpt><trkpt lat="38.09422808803821" lon="15.421654246642728"><ele>900.0000000000001</ele><time>2026-04-28T13:05:48Z</time></trkpt><trkpt lat="38.094158429735636" lon="15.421648183273826"><ele>900.0000000000001</ele><time>2026-04-28T13:05:49Z</time></trkpt><trkpt lat="38.094053628394825" lon="15.421638165545138"><ele>899.0</ele><time>2026-04-28T13:05:51Z</time></trkpt><trkpt lat="38.093972367486415" lon="15.421584617216189"><ele>898.0</ele><time>2026-04-28T13:05:53Z</time></trkpt><trkpt lat="38.093892726418176" lon="15.421493253984993"><ele>897.0</ele><time>2026-04-28T13:05:55Z</time></trkpt><trkpt lat="38.09384907699342" lon="15.421431545731838"><ele>896.0</ele><time>2026-04-28T13:05:56Z</time></trkpt><trkpt lat="38.093813070722256" lon="15.421364612298435"><ele>895.0</ele><time>2026-04-28T13:05:57Z</time></trkpt><trkpt lat="38.09374264550534" lon="15.421249832163683"><ele>894.0</ele><time>2026-04-28T13:05:59Z</time></trkpt><trkpt lat="38.09367927781814" lon="15.421150671390127"><ele>891.4000000000001</ele><time>2026-04-28T13:06:01Z</time></trkpt><trkpt lat="38.09359990179227" lon="15.421078729252303"><ele>888.8000000000001</ele><time>2026-04-28T13:06:03Z</time></trkpt><trkpt lat="38.09347808065393" lon="15.421048128716073"><ele>886.1999999999999</ele><time>2026-04-28T13:06:05Z</time></trkpt><trkpt lat="38.09340241910823" lon="15.42102451241966"><ele>883.5999999999999</ele><time>2026-04-28T13:06:06Z</time></trkpt><trkpt lat="38.09333282589184" lon="15.420980155288797"><ele>881.0</ele><time>2026-04-28T13:06:07Z</time></trkpt><trkpt lat="38.093221137220524" lon="15.420916671573918"><ele>875.0</ele><time>2026-04-28T13:06:09Z</time></trkpt><trkpt lat="38.09312284939788" lon="15.420907293794395"><ele>868.9999999999999</ele><time>2026-04-28T13:06:11Z</time></trkpt><trkpt lat="38.093036711633864" lon="15.420934125762066"><ele>863.0</ele><time>2026-04-28T13:06:13Z</time></trkpt><trkpt lat="38.09295770131954" lon="15.420911142886593"><ele>857.0</ele><time>2026-04-28T13:06:17Z</time></trkpt><trkpt lat="38.092954027435916" lon="15.420763453220687"><ele>851.0</ele><time>2026-04-28T13:06:20Z</time></trkpt><trkpt lat="38.09292786056324" lon="15.420634161063093"><ele>851.0000000000001</ele><time>2026-04-28T13:06:21Z</time></trkpt><trkpt lat="38.0929085417143" lon="15.42055288040049"><ele>851.0</ele><time>2026-04-28T13:06:22Z</time></trkpt><trkpt lat="38.09289236474488" lon="15.42046423544024"><ele>851.0</ele><time>2026-04-28T13:06:23Z</time></trkpt><trkpt lat="38.09287053952793" lon="15.420363016929716"><ele>851.0</ele><time>2026-04-28T13:06:24Z</time></trkpt><trkpt lat="38.09283133218664" lon="15.420252427946561"><ele>851.0000000000001</ele><time>2026-04-28T13:06:25Z</time></trkpt><trkpt lat="38.09278028180368" lon="15.420161423527956"><ele>851.0</ele><time>2026-04-28T13:06:26Z</time></trkpt><trkpt lat="38.09273357271133" lon="15.420066435815402"><ele>852.3333333333334</ele><time>2026-04-28T13:06:27Z</time></trkpt><trkpt lat="38.092698094557875" lon="15.419980608691057"><ele>853.6666666666667</ele><time>2026-04-28T13:06:28Z</time></trkpt><trkpt lat="38.09266370511663" lon="15.419891222409397"><ele>855.0</ele><time>2026-04-28T13:06:29Z</time></trkpt><trkpt lat="38.09263863453464" lon="15.419787673420126"><ele>856.3333333333333</ele><time>2026-04-28T13:06:30Z</time></trkpt><trkpt lat="38.09260433313934" lon="15.419674123433305"><ele>857.6666666666666</ele><time>2026-04-28T13:06:31Z</time></trkpt><trkpt lat="38.09256809846882" lon="15.419583114620881"><ele>859.0</ele><time>2026-04-28T13:06:32Z</time></trkpt><trkpt lat="38.09252328989869" lon="15.4195072072277"><ele>859.0</ele><time>2026-04-28T13:06:33.001Z</time></trkpt><trkpt lat="38.09250305317055" lon="15.419372998517515"><ele>859.0000000000001</ele><time>2026-04-28T13:06:35.001Z</time></trkpt><trkpt lat="38.09247801797827" lon="15.419267632489328"><ele>859.0000000000001</ele><time>2026-04-28T13:06:37.001Z</time></trkpt><trkpt lat="38.0923755962685" lon="15.419157815064285"><ele>859.0</ele><time>2026-04-28T13:06:39.001Z</time></trkpt><trkpt lat="38.092327489348726" lon="15.419103842181693"><ele>859.0</ele><time>2026-04-28T13:06:40.001Z</time></trkpt><trkpt lat="38.09228003792676" lon="15.419038097527467"><ele>857.8000000000001</ele><time>2026-04-28T13:06:41.001Z</time></trkpt><trkpt lat="38.092242233378215" lon="15.41890950984032"><ele>856.6000000000001</ele><time>2026-04-28T13:06:43.001Z</time></trkpt><trkpt lat="38.09221737789231" lon="15.418776501994381"><ele>855.4</ele><time>2026-04-28T13:06:45.001Z</time></trkpt><trkpt lat="38.09218647772358" lon="15.418672821689894"><ele>854.2</ele><time>2026-04-28T13:06:47.001Z</time></trkpt><trkpt lat="38.0921265383945" lon="15.418558589746658"><ele>853.0</ele><time>2026-04-28T13:06:49Z</time></trkpt><trkpt lat="38.09206567415791" lon="15.418454087952824"><ele>852.9999999999999</ele><time>2026-04-28T13:06:51Z</time></trkpt><trkpt lat="38.09200775492225" lon="15.41835461417587"><ele>853.0</ele><time>2026-04-28T13:06:53Z</time></trkpt><trkpt lat="38.091959466612636" lon="15.418254064220134"><ele>853.0</ele><time>2026-04-28T13:06:55Z</time></trkpt><trkpt lat="38.0919152495377" lon="15.41817941765286"><ele>853.0</ele><time>2026-04-28T13:06:57Z</time></trkpt><trkpt lat="38.0918924012582" lon="15.418077319337202"><ele>852.9999999999999</ele><time>2026-04-28T13:07:00Z</time></trkpt><trkpt lat="38.09184838108575" lon="15.418012540138038"><ele>853.0</ele><time>2026-04-28T13:07:03Z</time></trkpt><trkpt lat="38.09181680136583" lon="15.418113315737331"><ele>852.9999999999999</ele><time>2026-04-28T13:07:06Z</time></trkpt><trkpt lat="38.09179370386164" lon="15.41818838587576"><ele>853.0</ele><time>2026-04-28T13:07:09Z</time></trkpt><trkpt lat="38.09172103260002" lon="15.418146764609766"><ele>853.0</ele><time>2026-04-28T13:07:13Z</time></trkpt><trkpt lat="38.091664941280065" lon="15.418055649902142"><ele>853.0</ele><time>2026-04-28T13:07:15Z</time></trkpt><trkpt lat="38.091619381243234" lon="15.417955053966157"><ele>852.9999999999999</ele><time>2026-04-28T13:07:17Z</time></trkpt><trkpt lat="38.09157532796566" lon="15.4178436724237"><ele>853.0</ele><time>2026-04-28T13:07:19Z</time></trkpt><trkpt lat="38.091521987431356" lon="15.417731846881596"><ele>850.8333333333333</ele><time>2026-04-28T13:07:21Z</time></trkpt><trkpt lat="38.09148287241385" lon="15.417657602887513"><ele>848.6666666666666</ele><time>2026-04-28T13:07:22Z</time></trkpt><trkpt lat="38.09142928862252" lon="15.41756699778168"><ele>846.5</ele><time>2026-04-28T13:07:24Z</time></trkpt><trkpt lat="38.09136713755048" lon="15.41751292623593"><ele>844.3333333333333</ele><time>2026-04-28T13:07:27Z</time></trkpt><trkpt lat="38.09130048561503" lon="15.417484897749992"><ele>842.1666666666666</ele><time>2026-04-28T13:07:29Z</time></trkpt><trkpt lat="38.09121061973221" lon="15.41745872850547"><ele>840.0</ele><time>2026-04-28T13:07:32Z</time></trkpt><trkpt lat="38.09113536390338" lon="15.417450260091082"><ele>840.0</ele><time>2026-04-28T13:07:34Z</time></trkpt><trkpt lat="38.09104683567879" lon="15.417474196369154"><ele>840.0</ele><time>2026-04-28T13:08:18Z</time></trkpt><trkpt lat="38.090970444127805" lon="15.417480547313328"><ele>840.0</ele><time>2026-04-28T13:08:19Z</time></trkpt><trkpt lat="38.090887398864076" lon="15.417478627164424"><ele>840.0</ele><time>2026-04-28T13:08:20Z</time></trkpt><trkpt lat="38.09080317631303" lon="15.417455879364397"><ele>840.0</ele><time>2026-04-28T13:08:21Z</time></trkpt><trkpt lat="38.09073333321853" lon="15.417434435634966"><ele>840.0</ele><time>2026-04-28T13:08:22Z</time></trkpt><trkpt lat="38.090638039041536" lon="15.41740891185081"><ele>844.6666666666666</ele><time>2026-04-28T13:08:24Z</time></trkpt><trkpt lat="38.09056160468031" lon="15.417404835907211"><ele>849.3333333333333</ele><time>2026-04-28T13:08:25Z</time></trkpt><trkpt lat="38.0904772399338" lon="15.4174012493366"><ele>854.0</ele><time>2026-04-28T13:08:26Z</time></trkpt><trkpt lat="38.0903945101303" lon="15.417382863148385"><ele>858.6666666666666</ele><time>2026-04-28T13:08:27Z</time></trkpt><trkpt lat="38.09033235577256" lon="15.417344468465096"><ele>863.3333333333333</ele><time>2026-04-28T13:08:28Z</time></trkpt><trkpt lat="38.09028696095875" lon="15.417287872542374"><ele>868.0</ele><time>2026-04-28T13:08:29Z</time></trkpt><trkpt lat="38.090225168690225" lon="15.417156295914653"><ele>870.1428571428571</ele><time>2026-04-28T13:08:31Z</time></trkpt><trkpt lat="38.090180560379785" lon="15.417084605480584"><ele>872.2857142857142</ele><time>2026-04-28T13:08:32Z</time></trkpt><trkpt lat="38.09013608449497" lon="15.417026256945519"><ele>874.4285714285714</ele><time>2026-04-28T13:08:33Z</time></trkpt><trkpt lat="38.090075776302065" lon="15.41697203239997"><ele>876.5714285714286</ele><time>2026-04-28T13:08:34Z</time></trkpt><trkpt lat="38.09000989993764" lon="15.416908409537392"><ele>878.7142857142857</ele><time>2026-04-28T13:08:35Z</time></trkpt><trkpt lat="38.089960702394855" lon="15.416841979628256"><ele>880.8571428571429</ele><time>2026-04-28T13:08:36Z</time></trkpt><trkpt lat="38.089916559179" lon="15.416779938217717"><ele>883.0</ele><time>2026-04-28T13:08:37Z</time></trkpt><trkpt lat="38.08988274008969" lon="15.41670158744108"><ele>882.9999999999999</ele><time>2026-04-28T13:08:38Z</time></trkpt><trkpt lat="38.08985416286253" lon="15.416622186023785"><ele>883.0</ele><time>2026-04-28T13:08:39.001Z</time></trkpt><trkpt lat="38.08980966291459" lon="15.416557119896757"><ele>883.0</ele><time>2026-04-28T13:08:40.001Z</time></trkpt><trkpt lat="38.0897440117746" lon="15.416508310422707"><ele>883.0</ele><time>2026-04-28T13:08:41.001Z</time></trkpt><trkpt lat="38.089676954840385" lon="15.416460266757088"><ele>882.9999999999999</ele><time>2026-04-28T13:08:42.001Z</time></trkpt><trkpt lat="38.08963863335218" lon="15.41638904257738"><ele>883.0</ele><time>2026-04-28T13:08:43.001Z</time></trkpt><trkpt lat="38.08956571572506" lon="15.41626329387703"><ele>877.1666666666666</ele><time>2026-04-28T13:08:45.001Z</time></trkpt><trkpt lat="38.0895081098256" lon="15.41622769859846"><ele>871.3333333333333</ele><time>2026-04-28T13:08:46.001Z</time></trkpt><trkpt lat="38.08943479821492" lon="15.416209807509748"><ele>865.5</ele><time>2026-04-28T13:08:47.001Z</time></trkpt><trkpt lat="38.08937244432757" lon="15.416223766490447"><ele>859.6666666666667</ele><time>2026-04-28T13:08:48.001Z</time></trkpt><trkpt lat="38.08926881820192" lon="15.416284719390754"><ele>853.8333333333334</ele><time>2026-04-28T13:08:50.001Z</time></trkpt><trkpt lat="38.089201928353894" lon="15.416274433305285"><ele>848.0</ele><time>2026-04-28T13:08:51.001Z</time></trkpt><trkpt lat="38.08911876112428" lon="15.416262424937106"><ele>852.1666666666667</ele><time>2026-04-28T13:08:52.001Z</time></trkpt><trkpt lat="38.0890300629492" lon="15.416257396195396"><ele>856.3333333333334</ele><time>2026-04-28T13:08:53.001Z</time></trkpt><trkpt lat="38.0889494212098" lon="15.41624997038671"><ele>860.5</ele><time>2026-04-28T13:08:54.001Z</time></trkpt><trkpt lat="38.088884825568314" lon="15.416225015619577"><ele>864.6666666666667</ele><time>2026-04-28T13:08:55.001Z</time></trkpt><trkpt lat="38.08882012994562" lon="15.416200418162909"><ele>868.8333333333334</ele><time>2026-04-28T13:08:56.001Z</time></trkpt><trkpt lat="38.08874886204996" lon="15.416177404782474"><ele>873.0</ele><time>2026-04-28T13:08:57.001Z</time></trkpt><trkpt lat="38.08867265057584" lon="15.416162002522489"><ele>873.0</ele><time>2026-04-28T13:08:58.001Z</time></trkpt><trkpt lat="38.0886069769086" lon="15.416143655182415"><ele>873.0</ele><time>2026-04-28T13:08:59.001Z</time></trkpt><trkpt lat="38.08855593846588" lon="15.416096678314089"><ele>873.0</ele><time>2026-04-28T13:09:00.001Z</time></trkpt><trkpt lat="38.08849446235434" lon="15.41600866363791"><ele>873.0</ele><time>2026-04-28T13:09:01.001Z</time></trkpt><trkpt lat="38.088433761652816" lon="15.4159162703198"><ele>873.0</ele><time>2026-04-28T13:09:02.001Z</time></trkpt><trkpt lat="38.08838031233868" lon="15.415852975962528"><ele>873.0</ele><time>2026-04-28T13:09:03.001Z</time></trkpt><trkpt lat="38.08831827789807" lon="15.415801607266971"><ele>876.5999999999999</ele><time>2026-04-28T13:09:04.001Z</time></trkpt><trkpt lat="38.08824958874477" lon="15.415691624243042"><ele>880.1999999999999</ele><time>2026-04-28T13:09:06.001Z</time></trkpt><trkpt lat="38.08821773613302" lon="15.41559743848497"><ele>883.8</ele><time>2026-04-28T13:09:08.001Z</time></trkpt><trkpt lat="38.08812391730911" lon="15.415693394220987"><ele>887.4</ele><time>2026-04-28T13:09:10.001Z</time></trkpt><trkpt lat="38.08811888254543" lon="15.415795541803291"><ele>891.0</ele><time>2026-04-28T13:09:11.001Z</time></trkpt><trkpt lat="38.08813045906595" lon="15.41588797100074"><ele>891.0</ele><time>2026-04-28T13:09:12.001Z</time></trkpt><trkpt lat="38.08807370962268" lon="15.415956981933444"><ele>890.9999999999999</ele><time>2026-04-28T13:09:14Z</time></trkpt><trkpt lat="38.087931040347236" lon="15.415948601009658"><ele>890.9999999999999</ele><time>2026-04-28T13:09:16Z</time></trkpt><trkpt lat="38.08784966579309" lon="15.41594621972472"><ele>891.0</ele><time>2026-04-28T13:09:17Z</time></trkpt><trkpt lat="38.08776080241109" lon="15.415934685796794"><ele>891.0</ele><time>2026-04-28T13:09:18Z</time></trkpt><trkpt lat="38.08768076539481" lon="15.415937965025003"><ele>891.0</ele><time>2026-04-28T13:09:19Z</time></trkpt><trkpt lat="38.08760621839657" lon="15.415939289884292"><ele>891.0</ele><time>2026-04-28T13:09:20Z</time></trkpt><trkpt lat="38.087536389026035" lon="15.415926245638486"><ele>891.0</ele><time>2026-04-28T13:09:21Z</time></trkpt><trkpt lat="38.0874514888467" lon="15.415919334936838"><ele>891.0</ele><time>2026-04-28T13:09:22Z</time></trkpt><trkpt lat="38.08735857645081" lon="15.415901818752005"><ele>891.0</ele><time>2026-04-28T13:09:23Z</time></trkpt><trkpt lat="38.08727524293522" lon="15.41587134658207"><ele>891.0</ele><time>2026-04-28T13:09:24Z</time></trkpt><trkpt lat="38.08720409986583" lon="15.415822566043365"><ele>895.6666666666666</ele><time>2026-04-28T13:09:25Z</time></trkpt><trkpt lat="38.087147031462536" lon="15.415749456663779"><ele>900.3333333333333</ele><time>2026-04-28T13:09:26Z</time></trkpt><trkpt lat="38.087086346501636" lon="15.415682223140683"><ele>905.0</ele><time>2026-04-28T13:09:27Z</time></trkpt><trkpt lat="38.087017299427345" lon="15.415626761796968"><ele>909.6666666666666</ele><time>2026-04-28T13:09:28Z</time></trkpt><trkpt lat="38.08694493240592" lon="15.415576519125251"><ele>914.3333333333333</ele><time>2026-04-28T13:09:29Z</time></trkpt><trkpt lat="38.086881169681746" lon="15.415536963176464"><ele>919.0</ele><time>2026-04-28T13:09:30Z</time></trkpt><trkpt lat="38.086810760485434" lon="15.415486990511953"><ele>919.0</ele><time>2026-04-28T13:09:31Z</time></trkpt><trkpt lat="38.08674031615721" lon="15.415419340756545"><ele>919.0000000000001</ele><time>2026-04-28T13:09:32Z</time></trkpt><trkpt lat="38.0866719622583" lon="15.415289941276827"><ele>919.0000000000001</ele><time>2026-04-28T13:09:34Z</time></trkpt><trkpt lat="38.08657688971398" lon="15.415204111634802"><ele>919.0</ele><time>2026-04-28T13:09:36Z</time></trkpt><trkpt lat="38.0865599428396" lon="15.41511227537243"><ele>919.0</ele><time>2026-04-28T13:09:38Z</time></trkpt><trkpt lat="38.08663831607909" lon="15.415055685868166"><ele>919.0</ele><time>2026-04-28T13:09:39Z</time></trkpt><trkpt lat="38.08671851937728" lon="15.414999529452018"><ele>919.0000000000001</ele><time>2026-04-28T13:09:40Z</time></trkpt><trkpt lat="38.086797778109926" lon="15.414937653619633"><ele>919.0000000000001</ele><time>2026-04-28T13:09:41Z</time></trkpt><trkpt lat="38.08684057748155" lon="15.414872879868671"><ele>919.0</ele><time>2026-04-28T13:09:42Z</time></trkpt><trkpt lat="38.08687474485214" lon="15.414730545970095"><ele>919.0</ele><time>2026-04-28T13:09:44Z</time></trkpt><trkpt lat="38.08691985334357" lon="15.414580160281691"><ele>920.6666666666666</ele><time>2026-04-28T13:09:46Z</time></trkpt><trkpt lat="38.08696174810544" lon="15.414506977061956"><ele>922.3333333333333</ele><time>2026-04-28T13:09:47Z</time></trkpt><trkpt lat="38.08694882795421" lon="15.41440704003394"><ele>924.0</ele><time>2026-04-28T13:09:49Z</time></trkpt><trkpt lat="38.08689426958537" lon="15.414353502067732"><ele>925.6666666666667</ele><time>2026-04-28T13:09:51Z</time></trkpt><trkpt lat="38.08685014202359" lon="15.414441175329593"><ele>927.3333333333334</ele><time>2026-04-28T13:09:53Z</time></trkpt><trkpt lat="38.08685180283333" lon="15.414567072390428"><ele>929.0</ele><time>2026-04-28T13:09:55Z</time></trkpt><trkpt lat="38.08677236901222" lon="15.414637230198206"><ele>927.3333333333334</ele><time>2026-04-28T13:09:57Z</time></trkpt><trkpt lat="38.08668494006757" lon="15.41466036704731"><ele>925.6666666666667</ele><time>2026-04-28T13:09:59Z</time></trkpt><trkpt lat="38.086630748078925" lon="15.414721260690683"><ele>924.0</ele><time>2026-04-28T13:10:02Z</time></trkpt><trkpt lat="38.08654026419796" lon="15.414815490326506"><ele>922.3333333333333</ele><time>2026-04-28T13:10:03Z</time></trkpt><trkpt lat="38.08644512228881" lon="15.414869182602997"><ele>920.6666666666666</ele><time>2026-04-28T13:10:05Z</time></trkpt><trkpt lat="38.08639261303113" lon="15.414822261092409"><ele>919.0</ele><time>2026-04-28T13:10:08Z</time></trkpt><trkpt lat="38.08643993677539" lon="15.414766988959363"><ele>921.0</ele><time>2026-04-28T13:10:53.001Z</time></trkpt><trkpt lat="38.08653162688437" lon="15.414695740689583"><ele>923.0000000000001</ele><time>2026-04-28T13:10:56.001Z</time></trkpt><trkpt lat="38.086602783439126" lon="15.414614959985231"><ele>925.0000000000001</ele><time>2026-04-28T13:10:58.001Z</time></trkpt><trkpt lat="38.08661373514165" lon="15.414515685635308"><ele>927.0</ele><time>2026-04-28T13:11:00.001Z</time></trkpt><trkpt lat="38.08661713012968" lon="15.414380193605712"><ele>929.0</ele><time>2026-04-28T13:11:02.001Z</time></trkpt><trkpt lat="38.08659386029871" lon="15.414255949499003"><ele>937.0000000000001</ele><time>2026-04-28T13:11:04.001Z</time></trkpt><trkpt lat="38.086588548100366" lon="15.414146594356366"><ele>945.0</ele><time>2026-04-28T13:11:06.001Z</time></trkpt><trkpt lat="38.08654918104502" lon="15.414028794953124"><ele>953.0</ele><time>2026-04-28T13:11:08.001Z</time></trkpt><trkpt lat="38.08652228455399" lon="15.4139561065507"><ele>961.0</ele><time>2026-04-28T13:11:09.001Z</time></trkpt><trkpt lat="38.08650028259432" lon="15.413799678544283"><ele>969.0000000000001</ele><time>2026-04-28T13:11:11.001Z</time></trkpt><trkpt lat="38.086489170249294" lon="15.413715645039739"><ele>977.0</ele><time>2026-04-28T13:11:12.001Z</time></trkpt><trkpt lat="38.08646753972001" lon="15.413572918077014"><ele>977.2</ele><time>2026-04-28T13:11:14.001Z</time></trkpt><trkpt lat="38.08644751508196" lon="15.413421186889542"><ele>977.4000000000001</ele><time>2026-04-28T13:11:16.001Z</time></trkpt><trkpt lat="38.08639130494919" lon="15.413367502761895"><ele>977.5999999999999</ele><time>2026-04-28T13:11:18Z</time></trkpt><trkpt lat="38.08633650611268" lon="15.413473827644074"><ele>977.8</ele><time>2026-04-28T13:11:20Z</time></trkpt><trkpt lat="38.08636179489291" lon="15.413629968813181"><ele>978.0</ele><time>2026-04-28T13:11:22Z</time></trkpt><trkpt lat="38.086369949385805" lon="15.413718436863503"><ele>978.0</ele><time>2026-04-28T13:11:24Z</time></trkpt><trkpt lat="38.08633087651814" lon="15.41381416875601"><ele>978.0</ele><time>2026-04-28T13:11:26Z</time></trkpt><trkpt lat="38.086331262598634" lon="15.41390340006342"><ele>978.0</ele><time>2026-04-28T13:11:27Z</time></trkpt><trkpt lat="38.08632371538092" lon="15.414020427209001"><ele>978.0</ele><time>2026-04-28T13:11:29Z</time></trkpt><trkpt lat="38.086247502252434" lon="15.413965857558534"><ele>978.0</ele><time>2026-04-28T13:11:34Z</time></trkpt><trkpt lat="38.08625021502648" lon="15.413880360839928"><ele>978.0</ele><time>2026-04-28T13:11:35Z</time></trkpt><trkpt lat="38.08625448381883" lon="15.413796238958673"><ele>978.0</ele><time>2026-04-28T13:11:36Z</time></trkpt><trkpt lat="38.086218125385095" lon="15.413718858002381"><ele>978.0</ele><time>2026-04-28T13:11:38Z</time></trkpt><trkpt lat="38.08616016735447" lon="15.413633999276689"><ele>978.0</ele><time>2026-04-28T13:11:40Z</time></trkpt><trkpt lat="38.0861405167825" lon="15.413498475109469"><ele>978.0</ele><time>2026-04-28T13:11:42Z</time></trkpt><trkpt lat="38.08616440851488" lon="15.413412480806004"><ele>978.0</ele><time>2026-04-28T13:11:43Z</time></trkpt><trkpt lat="38.08617203262137" lon="15.413329556530663"><ele>978.0</ele><time>2026-04-28T13:11:44Z</time></trkpt><trkpt lat="38.086138617957126" lon="15.41320687109026"><ele>978.0</ele><time>2026-04-28T13:11:46Z</time></trkpt><trkpt lat="38.0860929104164" lon="15.41312086003949"><ele>978.0</ele><time>2026-04-28T13:11:48Z</time></trkpt><trkpt lat="38.08602771575257" lon="15.412967749864649"><ele>978.0</ele><time>2026-04-28T13:11:50Z</time></trkpt><trkpt lat="38.08598961291572" lon="15.412898736214595"><ele>978.0</ele><time>2026-04-28T13:11:51Z</time></trkpt><trkpt lat="38.08593953301581" lon="15.412794411427683"><ele>978.0</ele><time>2026-04-28T13:11:53Z</time></trkpt><trkpt lat="38.08589956018024" lon="15.412665164876554"><ele>979.0</ele><time>2026-04-28T13:11:55Z</time></trkpt><trkpt lat="38.08586320738035" lon="15.412546933875737"><ele>980.0</ele><time>2026-04-28T13:11:57Z</time></trkpt><trkpt lat="38.085842120181034" lon="15.412406595582148"><ele>981.0</ele><time>2026-04-28T13:11:59Z</time></trkpt><trkpt lat="38.08585916256463" lon="15.412264956672246"><ele>982.0</ele><time>2026-04-28T13:12:01Z</time></trkpt><trkpt lat="38.08582190448879" lon="15.412141060137454"><ele>983.0</ele><time>2026-04-28T13:12:03Z</time></trkpt><trkpt lat="38.08580712278847" lon="15.412060661348"><ele>983.0000000000001</ele><time>2026-04-28T13:12:04Z</time></trkpt><trkpt lat="38.08579772109074" lon="15.411976815965756"><ele>983.0</ele><time>2026-04-28T13:12:05Z</time></trkpt><trkpt lat="38.08579020572585" lon="15.41186126948894"><ele>983.0</ele><time>2026-04-28T13:12:07Z</time></trkpt><trkpt lat="38.085850486167146" lon="15.411739400858316"><ele>983.0</ele><time>2026-04-28T13:12:09Z</time></trkpt><trkpt lat="38.085901289921516" lon="15.41169082619253"><ele>983.0000000000001</ele><time>2026-04-28T13:12:10Z</time></trkpt><trkpt lat="38.08592612860304" lon="15.411550487430626"><ele>983.0</ele><time>2026-04-28T13:12:12Z</time></trkpt><trkpt lat="38.085886277476405" lon="15.411417639066624"><ele>983.0000000000001</ele><time>2026-04-28T13:12:14Z</time></trkpt><trkpt lat="38.08581838147163" lon="15.411341773059643"><ele>983.0</ele><time>2026-04-28T13:12:16Z</time></trkpt><trkpt lat="38.085738348618975" lon="15.411290176641895"><ele>983.0</ele><time>2026-04-28T13:12:24Z</time></trkpt><trkpt lat="38.085671783390865" lon="15.41126260554493"><ele>983.0</ele><time>2026-04-28T13:12:26Z</time></trkpt><trkpt lat="38.08560210168914" lon="15.41125350098101"><ele>983.0000000000001</ele><time>2026-04-28T13:12:28Z</time></trkpt><trkpt lat="38.085505210968044" lon="15.411265507253468"><ele>983.0</ele><time>2026-04-28T13:12:30Z</time></trkpt><trkpt lat="38.08538539665153" lon="15.411296872808673"><ele>984.142857142857</ele><time>2026-04-28T13:12:32Z</time></trkpt><trkpt lat="38.08532291331266" lon="15.411319423609507"><ele>985.2857142857142</ele><time>2026-04-28T13:12:33Z</time></trkpt><trkpt lat="38.08525856448161" lon="15.41134154105668"><ele>986.4285714285714</ele><time>2026-04-28T13:12:34Z</time></trkpt><trkpt lat="38.08519297316939" lon="15.411377100340596"><ele>987.5714285714286</ele><time>2026-04-28T13:12:35Z</time></trkpt><trkpt lat="38.085130337787724" lon="15.4114153693103"><ele>988.7142857142858</ele><time>2026-04-28T13:12:36Z</time></trkpt><trkpt lat="38.08504559877633" lon="15.411462334311926"><ele>989.857142857143</ele><time>2026-04-28T13:12:38Z</time></trkpt><trkpt lat="38.084971215118166" lon="15.411435983347365"><ele>991.0000000000001</ele><time>2026-04-28T13:12:40Z</time></trkpt><trkpt lat="38.08491874274951" lon="15.41137787284575"><ele>991.0</ele><time>2026-04-28T13:12:41Z</time></trkpt><trkpt lat="38.084773635962634" lon="15.411351210078411"><ele>990.9999999999999</ele><time>2026-04-28T13:12:43Z</time></trkpt><trkpt lat="38.084676843866426" lon="15.411359101377007"><ele>990.9999999999999</ele><time>2026-04-28T13:12:44Z</time></trkpt><trkpt lat="38.08459276888772" lon="15.411374098113397"><ele>991.0</ele><time>2026-04-28T13:12:45Z</time></trkpt><trkpt lat="38.08453562814334" lon="15.41132173881035"><ele>991.0</ele><time>2026-04-28T13:12:48Z</time></trkpt><trkpt lat="38.084504571888026" lon="15.411196727115184"><ele>990.9999999999999</ele><time>2026-04-28T13:12:50Z</time></trkpt><trkpt lat="38.08445562307966" lon="15.411115034582641"><ele>991.0</ele><time>2026-04-28T13:12:52.001Z</time></trkpt><trkpt lat="38.08437733937595" lon="15.411167729515274"><ele>991.0</ele><time>2026-04-28T13:12:54.001Z</time></trkpt><trkpt lat="38.084289803013284" lon="15.411261017850268"><ele>991.0</ele><time>2026-04-28T13:12:56.001Z</time></trkpt><trkpt lat="38.08423614532332" lon="15.411317153216151"><ele>990.9999999999999</ele><time>2026-04-28T13:12:57.001Z</time></trkpt><trkpt lat="38.08418072362814" lon="15.411376620721155"><ele>991.0</ele><time>2026-04-28T13:12:58.001Z</time></trkpt><trkpt lat="38.08413444677214" lon="15.411438635349294"><ele>989.0000000000001</ele><time>2026-04-28T13:12:59.001Z</time></trkpt><trkpt lat="38.08408191185664" lon="15.411495092600703"><ele>987.0</ele><time>2026-04-28T13:13:00.001Z</time></trkpt><trkpt lat="38.084024974168024" lon="15.411544376605463"><ele>985.0000000000001</ele><time>2026-04-28T13:13:01.001Z</time></trkpt><trkpt lat="38.083962186619736" lon="15.411575563981009"><ele>983.0000000000001</ele><time>2026-04-28T13:13:02.001Z</time></trkpt><trkpt lat="38.08389539315534" lon="15.411578603590288"><ele>981.0</ele><time>2026-04-28T13:13:03.001Z</time></trkpt><trkpt lat="38.083822776714186" lon="15.411557639373743"><ele>979.0000000000001</ele><time>2026-04-28T13:13:04.001Z</time></trkpt><trkpt lat="38.083746298089565" lon="15.411523448832616"><ele>977.0000000000001</ele><time>2026-04-28T13:13:05.001Z</time></trkpt><trkpt lat="38.083680322965044" lon="15.41148578244513"><ele>977.0</ele><time>2026-04-28T13:13:06.001Z</time></trkpt><trkpt lat="38.083566589312255" lon="15.411494173841637"><ele>977.0</ele><time>2026-04-28T13:13:08.001Z</time></trkpt><trkpt lat="38.08350417448445" lon="15.411519016922075"><ele>977.0</ele><time>2026-04-28T13:13:09.001Z</time></trkpt><trkpt lat="38.08341057369209" lon="15.411539873230826"><ele>977.0</ele><time>2026-04-28T13:13:10.001Z</time></trkpt><trkpt lat="38.08329925295183" lon="15.411532588631454"><ele>977.0</ele><time>2026-04-28T13:13:11.001Z</time></trkpt><trkpt lat="38.08321898951832" lon="15.41152662163596"><ele>975.75</ele><time>2026-04-28T13:13:12.001Z</time></trkpt><trkpt lat="38.08311642007713" lon="15.411448158254426"><ele>974.5</ele><time>2026-04-28T13:13:14Z</time></trkpt><trkpt lat="38.083022956613256" lon="15.411379611185861"><ele>973.25</ele><time>2026-04-28T13:13:16Z</time></trkpt><trkpt lat="38.082893979171075" lon="15.411407248646766"><ele>972.0</ele><time>2026-04-28T13:13:18Z</time></trkpt><trkpt lat="38.08278375748578" lon="15.411413044704176"><ele>972.0</ele><time>2026-04-28T13:13:19Z</time></trkpt><trkpt lat="38.08268169094002" lon="15.411392363279983"><ele>972.0</ele><time>2026-04-28T13:13:20Z</time></trkpt><trkpt lat="38.08258239447404" lon="15.41136205208481"><ele>972.0</ele><time>2026-04-28T13:13:21Z</time></trkpt><trkpt lat="38.08249854693116" lon="15.41134192199196"><ele>972.0</ele><time>2026-04-28T13:13:22Z</time></trkpt><trkpt lat="38.082425101352364" lon="15.411295756543952"><ele>972.0</ele><time>2026-04-28T13:13:23Z</time></trkpt><trkpt lat="38.082364022075545" lon="15.41121890883911"><ele>971.2</ele><time>2026-04-28T13:13:24Z</time></trkpt><trkpt lat="38.082320465794076" lon="15.41112663742574"><ele>970.4000000000001</ele><time>2026-04-28T13:13:25Z</time></trkpt><trkpt lat="38.082260853334745" lon="15.411013711437622"><ele>969.5999999999999</ele><time>2026-04-28T13:13:27Z</time></trkpt><trkpt lat="38.08212152180662" lon="15.411010084118415"><ele>968.8</ele><time>2026-04-28T13:13:29Z</time></trkpt><trkpt lat="38.082030664854315" lon="15.411019137430443"><ele>968.0</ele><time>2026-04-28T13:13:30Z</time></trkpt><trkpt lat="38.08195688298058" lon="15.411003506078155"><ele>968.0</ele><time>2026-04-28T13:13:31Z</time></trkpt><trkpt lat="38.08190235895522" lon="15.410958675242053"><ele>967.9999999999999</ele><time>2026-04-28T13:13:32Z</time></trkpt><trkpt lat="38.08186416463424" lon="15.410881793701835"><ele>968.0</ele><time>2026-04-28T13:13:33Z</time></trkpt><trkpt lat="38.08183556729013" lon="15.410789947780524"><ele>968.0</ele><time>2026-04-28T13:13:34Z</time></trkpt><trkpt lat="38.08180414780422" lon="15.410720582871246"><ele>967.9999999999999</ele><time>2026-04-28T13:13:35Z</time></trkpt><trkpt lat="38.08175047929959" lon="15.410670018122087"><ele>968.0</ele><time>2026-04-28T13:13:36Z</time></trkpt><trkpt lat="38.08167862554044" lon="15.410644271031858"><ele>968.0</ele><time>2026-04-28T13:13:37Z</time></trkpt><trkpt lat="38.08159549069614" lon="15.410634770075044"><ele>967.8</ele><time>2026-04-28T13:13:38Z</time></trkpt><trkpt lat="38.08153119281567" lon="15.41061300456863"><ele>967.5999999999999</ele><time>2026-04-28T13:13:39Z</time></trkpt><trkpt lat="38.081451309582704" lon="15.41045896948796"><ele>967.4000000000001</ele><time>2026-04-28T13:13:41Z</time></trkpt><trkpt lat="38.081419769237975" lon="15.410344453853014"><ele>967.2</ele><time>2026-04-28T13:13:42Z</time></trkpt><trkpt lat="38.08135297762427" lon="15.410250502659812"><ele>967.0</ele><time>2026-04-28T13:13:44Z</time></trkpt><trkpt lat="38.0812837376986" lon="15.410216192727944"><ele>967.0</ele><time>2026-04-28T13:13:45Z</time></trkpt><trkpt lat="38.08119302959892" lon="15.410174575671384"><ele>967.0</ele><time>2026-04-28T13:13:46Z</time></trkpt><trkpt lat="38.08110989173526" lon="15.41010908339486"><ele>967.0</ele><time>2026-04-28T13:13:47Z</time></trkpt><trkpt lat="38.0810442657444" lon="15.410018418884363"><ele>967.0</ele><time>2026-04-28T13:13:48Z</time></trkpt><trkpt lat="38.080987498330934" lon="15.409928582469174"><ele>967.0</ele><time>2026-04-28T13:13:49Z</time></trkpt><trkpt lat="38.080943982544746" lon="15.409853183914658"><ele>966.9999999999999</ele><time>2026-04-28T13:13:50Z</time></trkpt><trkpt lat="38.08092860494236" lon="15.409766758377328"><ele>967.0</ele><time>2026-04-28T13:13:51Z</time></trkpt><trkpt lat="38.08093847748562" lon="15.409668824239843"><ele>967.0</ele><time>2026-04-28T13:13:52Z</time></trkpt><trkpt lat="38.080956127531074" lon="15.409571896741564"><ele>967.0</ele><time>2026-04-28T13:13:53Z</time></trkpt><trkpt lat="38.08099084664547" lon="15.409465120505399"><ele>966.9999999999999</ele><time>2026-04-28T13:13:54Z</time></trkpt><trkpt lat="38.08103195423105" lon="15.409328751824242"><ele>967.0</ele><time>2026-04-28T13:13:55Z</time></trkpt><trkpt lat="38.08105759883684" lon="15.409209886506867"><ele>966.6</ele><time>2026-04-28T13:13:56Z</time></trkpt><trkpt lat="38.0810663615415" lon="15.409088492525362"><ele>966.2</ele><time>2026-04-28T13:13:57Z</time></trkpt><trkpt lat="38.08106707742241" lon="15.408956117469735"><ele>965.8</ele><time>2026-04-28T13:13:58Z</time></trkpt><trkpt lat="38.0810739336918" lon="15.408831124621509"><ele>965.4</ele><time>2026-04-28T13:13:59Z</time></trkpt><trkpt lat="38.08107993609232" lon="15.408727362043786"><ele>965.0</ele><time>2026-04-28T13:14:00Z</time></trkpt><trkpt lat="38.08106941882402" lon="15.408636129642598"><ele>965.0</ele><time>2026-04-28T13:14:01Z</time></trkpt><trkpt lat="38.08104209101167" lon="15.408526465938692"><ele>965.0</ele><time>2026-04-28T13:14:02Z</time></trkpt><trkpt lat="38.08102881175531" lon="15.408409391713016"><ele>965.0</ele><time>2026-04-28T13:14:03Z</time></trkpt><trkpt lat="38.08103715351454" lon="15.408315959125261"><ele>965.0</ele><time>2026-04-28T13:14:04Z</time></trkpt><trkpt lat="38.081019085773555" lon="15.408215251587768"><ele>965.0</ele><time>2026-04-28T13:14:06Z</time></trkpt><trkpt lat="38.08089534947676" lon="15.408220330271131"><ele>965.0000000000001</ele><time>2026-04-28T13:14:08Z</time></trkpt><trkpt lat="38.080808922930075" lon="15.40825689855046"><ele>965.0</ele><time>2026-04-28T13:14:09Z</time></trkpt><trkpt lat="38.080725452721445" lon="15.408281322532423"><ele>965.0</ele><time>2026-04-28T13:14:10Z</time></trkpt><trkpt lat="38.080653721517756" lon="15.408266590303995"><ele>965.0</ele><time>2026-04-28T13:14:11Z</time></trkpt><trkpt lat="38.0806026459517" lon="15.408207522107835"><ele>965.0000000000001</ele><time>2026-04-28T13:14:12Z</time></trkpt><trkpt lat="38.080558705342206" lon="15.40811351511183"><ele>965.0</ele><time>2026-04-28T13:14:13Z</time></trkpt><trkpt lat="38.08050040091166" lon="15.408015665860429"><ele>964.8333333333334</ele><time>2026-04-28T13:14:14Z</time></trkpt><trkpt lat="38.080426821562156" lon="15.407950005040503"><ele>964.6666666666667</ele><time>2026-04-28T13:14:15Z</time></trkpt><trkpt lat="38.0803538198128" lon="15.407920065051455"><ele>964.5</ele><time>2026-04-28T13:14:16Z</time></trkpt><trkpt lat="38.08030581057094" lon="15.407858159493847"><ele>964.3333333333333</ele><time>2026-04-28T13:14:17Z</time></trkpt><trkpt lat="38.08028349621482" lon="15.407771855508866"><ele>964.1666666666666</ele><time>2026-04-28T13:14:18Z</time></trkpt><trkpt lat="38.0802146807982" lon="15.407683325746953"><ele>964.0</ele><time>2026-04-28T13:14:20Z</time></trkpt><trkpt lat="38.08014522763436" lon="15.407640969201847"><ele>964.0</ele><time>2026-04-28T13:14:21Z</time></trkpt><trkpt lat="38.080054718237015" lon="15.407590469587387"><ele>964.0000000000001</ele><time>2026-04-28T13:14:22Z</time></trkpt><trkpt lat="38.07995577262417" lon="15.407531203901135"><ele>964.0000000000001</ele><time>2026-04-28T13:14:23Z</time></trkpt><trkpt lat="38.07984917707689" lon="15.407453347294034"><ele>964.0</ele><time>2026-04-28T13:14:24Z</time></trkpt><trkpt lat="38.07975991477122" lon="15.407393463439567"><ele>964.0</ele><time>2026-04-28T13:14:25Z</time></trkpt><trkpt lat="38.07969404749608" lon="15.407366198712873"><ele>966.6666666666666</ele><time>2026-04-28T13:14:27Z</time></trkpt><trkpt lat="38.07966395157078" lon="15.407253151013276"><ele>969.3333333333333</ele><time>2026-04-28T13:19:17Z</time></trkpt><trkpt lat="38.07961908281552" lon="15.407184371267261"><ele>972.0</ele><time>2026-04-28T13:19:18Z</time></trkpt><trkpt lat="38.07956380231746" lon="15.407123747851328"><ele>974.6666666666667</ele><time>2026-04-28T13:19:19Z</time></trkpt><trkpt lat="38.07950532776127" lon="15.40706162960145"><ele>977.3333333333334</ele><time>2026-04-28T13:19:20Z</time></trkpt><trkpt lat="38.0794597104808" lon="15.407003861804089"><ele>980.0</ele><time>2026-04-28T13:19:21Z</time></trkpt><trkpt lat="38.079428620646304" lon="15.406840949396358"><ele>980.0</ele><time>2026-04-28T13:19:23Z</time></trkpt><trkpt lat="38.079437342365495" lon="15.406741026866229"><ele>980.0</ele><time>2026-04-28T13:19:24Z</time></trkpt><trkpt lat="38.07945573555669" lon="15.406644492900003"><ele>980.0</ele><time>2026-04-28T13:19:25Z</time></trkpt><trkpt lat="38.07947909150835" lon="15.406557514528084"><ele>980.0</ele><time>2026-04-28T13:19:26Z</time></trkpt><trkpt lat="38.07950659002007" lon="15.406470311510237"><ele>980.0</ele><time>2026-04-28T13:19:27Z</time></trkpt><trkpt lat="38.07953737402034" lon="15.406382463081213"><ele>980.0</ele><time>2026-04-28T13:19:28Z</time></trkpt><trkpt lat="38.07954966197835" lon="15.406302549491139"><ele>980.0</ele><time>2026-04-28T13:19:29Z</time></trkpt><trkpt lat="38.07950794997122" lon="15.406135743260263"><ele>978.1666666666667</ele><time>2026-04-28T13:19:31Z</time></trkpt><trkpt lat="38.07946521110789" lon="15.406055969936432"><ele>976.3333333333334</ele><time>2026-04-28T13:19:32Z</time></trkpt><trkpt lat="38.07942614289397" lon="15.405925045346061"><ele>974.5</ele><time>2026-04-28T13:19:34Z</time></trkpt><trkpt lat="38.07944691867662" lon="15.405841558728907"><ele>972.6666666666667</ele><time>2026-04-28T13:19:37Z</time></trkpt><trkpt lat="38.0794853338288" lon="15.405772187882125"><ele>970.8333333333334</ele><time>2026-04-28T13:19:39Z</time></trkpt><trkpt lat="38.07952816822637" lon="15.40568794043039"><ele>969.0</ele><time>2026-04-28T13:19:41Z</time></trkpt><trkpt lat="38.07957834693151" lon="15.405552846345511"><ele>966.8000000000001</ele><time>2026-04-28T13:19:43Z</time></trkpt><trkpt lat="38.079613932847145" lon="15.405466548447452"><ele>964.6000000000001</ele><time>2026-04-28T13:19:45Z</time></trkpt><trkpt lat="38.079621823593705" lon="15.40534002531908"><ele>962.4</ele><time>2026-04-28T13:19:56Z</time></trkpt><trkpt lat="38.0795889694335" lon="15.405199405807863"><ele>960.2</ele><time>2026-04-28T13:19:58Z</time></trkpt><trkpt lat="38.07951699232011" lon="15.405092259250482"><ele>958.0</ele><time>2026-04-28T13:20:00Z</time></trkpt><trkpt lat="38.07945544050977" lon="15.405039112073947"><ele>958.0</ele><time>2026-04-28T13:20:01Z</time></trkpt><trkpt lat="38.079380265214375" lon="15.404993388435036"><ele>958.0</ele><time>2026-04-28T13:20:02Z</time></trkpt><trkpt lat="38.07929516797863" lon="15.40495390235393"><ele>958.0</ele><time>2026-04-28T13:20:03Z</time></trkpt><trkpt lat="38.07920261906122" lon="15.404920812029996"><ele>958.0</ele><time>2026-04-28T13:20:04Z</time></trkpt><trkpt lat="38.07911559223471" lon="15.40487070734326"><ele>958.0</ele><time>2026-04-28T13:20:05Z</time></trkpt><trkpt lat="38.079046904831856" lon="15.404799299165727"><ele>959.0</ele><time>2026-04-28T13:20:06Z</time></trkpt><trkpt lat="38.07899159349528" lon="15.404721037513259"><ele>960.0</ele><time>2026-04-28T13:20:07Z</time></trkpt><trkpt lat="38.07889219206592" lon="15.404647613043435"><ele>961.0</ele><time>2026-04-28T13:20:09Z</time></trkpt><trkpt lat="38.07881382425196" lon="15.404647175032485"><ele>962.0</ele><time>2026-04-28T13:20:10Z</time></trkpt><trkpt lat="38.078713040373096" lon="15.404650504324715"><ele>963.0</ele><time>2026-04-28T13:20:11Z</time></trkpt><trkpt lat="38.07861997289087" lon="15.40462360472986"><ele>960.4</ele><time>2026-04-28T13:20:12Z</time></trkpt><trkpt lat="38.07853781809742" lon="15.404565356686371"><ele>957.8</ele><time>2026-04-28T13:20:13Z</time></trkpt><trkpt lat="38.078441492903096" lon="15.404490335241366"><ele>955.2</ele><time>2026-04-28T13:20:14Z</time></trkpt><trkpt lat="38.07834248276898" lon="15.404418386246647"><ele>952.6</ele><time>2026-04-28T13:20:15Z</time></trkpt><trkpt lat="38.0782439858096" lon="15.404325877953488"><ele>950.0</ele><time>2026-04-28T13:20:16Z</time></trkpt><trkpt lat="38.07814370905553" lon="15.404231355842247"><ele>950.0</ele><time>2026-04-28T13:20:17Z</time></trkpt><trkpt lat="38.07805800872378" lon="15.404145223407141"><ele>950.0</ele><time>2026-04-28T13:20:18Z</time></trkpt><trkpt lat="38.077984916110935" lon="15.40406077005739"><ele>950.0</ele><time>2026-04-28T13:20:19Z</time></trkpt><trkpt lat="38.07790438483613" lon="15.403977561208114"><ele>950.0</ele><time>2026-04-28T13:20:20Z</time></trkpt><trkpt lat="38.077815596780276" lon="15.403905502514034"><ele>950.0</ele><time>2026-04-28T13:20:21Z</time></trkpt><trkpt lat="38.07772003005391" lon="15.403833483241115"><ele>949.0</ele><time>2026-04-28T13:20:22Z</time></trkpt><trkpt lat="38.07763917615467" lon="15.40375529139629"><ele>948.0</ele><time>2026-04-28T13:20:23Z</time></trkpt><trkpt lat="38.077571951804686" lon="15.403658112432053"><ele>947.0</ele><time>2026-04-28T13:20:24Z</time></trkpt><trkpt lat="38.07751785761602" lon="15.403537921835554"><ele>946.0</ele><time>2026-04-28T13:20:25Z</time></trkpt><trkpt lat="38.07747361381094" lon="15.403402876707032"><ele>945.0</ele><time>2026-04-28T13:20:26Z</time></trkpt><trkpt lat="38.077440632288905" lon="15.403263175574406"><ele>944.2</ele><time>2026-04-28T13:20:27Z</time></trkpt><trkpt lat="38.077421012710694" lon="15.403114182919822"><ele>943.4</ele><time>2026-04-28T13:20:28Z</time></trkpt><trkpt lat="38.07740512824966" lon="15.402974029866467"><ele>942.5999999999999</ele><time>2026-04-28T13:20:29Z</time></trkpt><trkpt lat="38.07740146827886" lon="15.40284825804265"><ele>941.8</ele><time>2026-04-28T13:20:30Z</time></trkpt><trkpt lat="38.07742228536661" lon="15.402733579389949"><ele>941.0</ele><time>2026-04-28T13:20:31Z</time></trkpt><trkpt lat="38.077449044409825" lon="15.402613040625878"><ele>941.0</ele><time>2026-04-28T13:20:32Z</time></trkpt><trkpt lat="38.07746210722367" lon="15.402512601235374"><ele>940.9999999999999</ele><time>2026-04-28T13:20:33Z</time></trkpt><trkpt lat="38.07744892235463" lon="15.402419556894296"><ele>940.9999999999999</ele><time>2026-04-28T13:20:34Z</time></trkpt><trkpt lat="38.077412747963834" lon="15.402290761954724"><ele>941.0</ele><time>2026-04-28T13:20:35Z</time></trkpt><trkpt lat="38.0773823571925" lon="15.402152049271855"><ele>941.0</ele><time>2026-04-28T13:20:36Z</time></trkpt><trkpt lat="38.077376822187844" lon="15.40203091653413"><ele>940.4</ele><time>2026-04-28T13:20:37Z</time></trkpt><trkpt lat="38.07739990216594" lon="15.401921858099662"><ele>939.8</ele><time>2026-04-28T13:20:38Z</time></trkpt><trkpt lat="38.077453245011206" lon="15.40180908126809"><ele>939.1999999999999</ele><time>2026-04-28T13:20:39Z</time></trkpt><trkpt lat="38.0775101196192" lon="15.40168321362652"><ele>938.5999999999999</ele><time>2026-04-28T13:20:40Z</time></trkpt><trkpt lat="38.077546261194016" lon="15.40156566385242"><ele>938.0</ele><time>2026-04-28T13:20:41Z</time></trkpt><trkpt lat="38.07755849546437" lon="15.401471837879914"><ele>937.2</ele><time>2026-04-28T13:20:42Z</time></trkpt><trkpt lat="38.07760241347942" lon="15.401361326391608"><ele>936.4</ele><time>2026-04-28T13:20:44Z</time></trkpt><trkpt lat="38.07767785735164" lon="15.401235207381966"><ele>935.6000000000001</ele><time>2026-04-28T13:20:46Z</time></trkpt><trkpt lat="38.07768497913309" lon="15.401111829438952"><ele>934.8000000000001</ele><time>2026-04-28T13:20:47Z</time></trkpt><trkpt lat="38.07766912737712" lon="15.40096711801467"><ele>934.0</ele><time>2026-04-28T13:20:48Z</time></trkpt><trkpt lat="38.07764599902553" lon="15.400806506866953"><ele>934.0</ele><time>2026-04-28T13:20:49Z</time></trkpt><trkpt lat="38.07762006464744" lon="15.40065927271036"><ele>934.0000000000001</ele><time>2026-04-28T13:20:50Z</time></trkpt><trkpt lat="38.07759416443752" lon="15.400540336438766"><ele>934.0000000000001</ele><time>2026-04-28T13:20:51Z</time></trkpt><trkpt lat="38.077559442531125" lon="15.400431069062872"><ele>934.0</ele><time>2026-04-28T13:20:52Z</time></trkpt><trkpt lat="38.077508163322065" lon="15.400325867918596"><ele>934.0</ele><time>2026-04-28T13:20:53Z</time></trkpt><trkpt lat="38.07747167619776" lon="15.40023827982196"><ele>934.4000000000001</ele><time>2026-04-28T13:20:54Z</time></trkpt><trkpt lat="38.07745231272317" lon="15.4001604918494"><ele>934.8000000000001</ele><time>2026-04-28T13:20:55Z</time></trkpt><trkpt lat="38.07736691912107" lon="15.400051806962631"><ele>935.1999999999999</ele><time>2026-04-28T13:20:57Z</time></trkpt><trkpt lat="38.077271849527946" lon="15.399992001926615"><ele>935.5999999999999</ele><time>2026-04-28T13:20:58Z</time></trkpt><trkpt lat="38.07716744306834" lon="15.399907945412098"><ele>936.0</ele><time>2026-04-28T13:20:59Z</time></trkpt><trkpt lat="38.07707605454542" lon="15.39981383387876"><ele>936.0</ele><time>2026-04-28T13:21:00Z</time></trkpt><trkpt lat="38.0770043085347" lon="15.399704125317083"><ele>935.9999999999999</ele><time>2026-04-28T13:21:01Z</time></trkpt><trkpt lat="38.076953584742505" lon="15.39958507231264"><ele>935.9999999999999</ele><time>2026-04-28T13:21:02Z</time></trkpt><trkpt lat="38.0769191002842" lon="15.399464944978773"><ele>936.0</ele><time>2026-04-28T13:21:03Z</time></trkpt><trkpt lat="38.076879656990485" lon="15.399344161396332"><ele>936.0</ele><time>2026-04-28T13:21:04Z</time></trkpt><trkpt lat="38.07684922374074" lon="15.399244520061487"><ele>931.25</ele><time>2026-04-28T13:21:05Z</time></trkpt><trkpt lat="38.076847473641045" lon="15.399089614231727"><ele>926.5</ele><time>2026-04-28T13:21:07Z</time></trkpt><trkpt lat="38.07687923592145" lon="15.398992968092616"><ele>921.75</ele><time>2026-04-28T13:21:08Z</time></trkpt><trkpt lat="38.07693950251057" lon="15.398862009427836"><ele>917.0</ele><time>2026-04-28T13:21:09Z</time></trkpt><trkpt lat="38.07700929449503" lon="15.39872467159887"><ele>913.8</ele><time>2026-04-28T13:21:10Z</time></trkpt><trkpt lat="38.077069355216686" lon="15.398594033092802"><ele>910.6</ele><time>2026-04-28T13:21:11Z</time></trkpt><trkpt lat="38.077120224007366" lon="15.398513655118368"><ele>907.3999999999999</ele><time>2026-04-28T13:21:12Z</time></trkpt><trkpt lat="38.07713073546252" lon="15.3983584657298"><ele>904.1999999999999</ele><time>2026-04-28T13:21:14Z</time></trkpt><trkpt lat="38.07709935974035" lon="15.398234380062215"><ele>901.0</ele><time>2026-04-28T13:21:15Z</time></trkpt><trkpt lat="38.077054508082014" lon="15.398097882469854"><ele>901.6666666666666</ele><time>2026-04-28T13:21:16Z</time></trkpt><trkpt lat="38.0769969181328" lon="15.397962801897487"><ele>902.3333333333333</ele><time>2026-04-28T13:21:17Z</time></trkpt><trkpt lat="38.07695482767721" lon="15.397879307045688"><ele>903.0</ele><time>2026-04-28T13:21:18Z</time></trkpt><trkpt lat="38.076905265222564" lon="15.39782793429645"><ele>903.6666666666667</ele><time>2026-04-28T13:21:19Z</time></trkpt><trkpt lat="38.076836124120724" lon="15.397783613410795"><ele>904.3333333333334</ele><time>2026-04-28T13:21:20Z</time></trkpt><trkpt lat="38.07676586432009" lon="15.397711151278434"><ele>905.0</ele><time>2026-04-28T13:21:21Z</time></trkpt><trkpt lat="38.07674641939124" lon="15.397632477420233"><ele>905.0</ele><time>2026-04-28T13:21:22Z</time></trkpt><trkpt lat="38.076761772123746" lon="15.397512132117683"><ele>905.0</ele><time>2026-04-28T13:21:23Z</time></trkpt><trkpt lat="38.07677338589781" lon="15.397351413416715"><ele>905.0</ele><time>2026-04-28T13:21:24Z</time></trkpt><trkpt lat="38.076786448160284" lon="15.397183366365487"><ele>905.0</ele><time>2026-04-28T13:21:25Z</time></trkpt><trkpt lat="38.07679935575515" lon="15.397064017198906"><ele>906.4</ele><time>2026-04-28T13:21:26Z</time></trkpt><trkpt lat="38.0768395655772" lon="15.396978426061771"><ele>907.8</ele><time>2026-04-28T13:21:27Z</time></trkpt><trkpt lat="38.07690146353878" lon="15.396886556421586"><ele>909.2</ele><time>2026-04-28T13:21:28Z</time></trkpt><trkpt lat="38.07694012129062" lon="15.396767459902662"><ele>910.6</ele><time>2026-04-28T13:21:29Z</time></trkpt><trkpt lat="38.07694009405463" lon="15.396633254913853"><ele>912.0</ele><time>2026-04-28T13:21:30Z</time></trkpt><trkpt lat="38.07694013180968" lon="15.396515398024073"><ele>912.0</ele><time>2026-04-28T13:21:31Z</time></trkpt><trkpt lat="38.07697830333447" lon="15.396398150149466"><ele>912.0</ele><time>2026-04-28T13:21:32Z</time></trkpt><trkpt lat="38.07703626084617" lon="15.396269974997141"><ele>912.0</ele><time>2026-04-28T13:21:33Z</time></trkpt><trkpt lat="38.07708029506868" lon="15.396151304810743"><ele>912.0</ele><time>2026-04-28T13:21:34Z</time></trkpt><trkpt lat="38.077130963286436" lon="15.396024532703807"><ele>912.0</ele><time>2026-04-28T13:21:35Z</time></trkpt><trkpt lat="38.077109825286996" lon="15.395856679844298"><ele>915.0</ele><time>2026-04-28T13:21:36Z</time></trkpt><trkpt lat="38.07713584067348" lon="15.39575104924934"><ele>918.0</ele><time>2026-04-28T13:21:37Z</time></trkpt><trkpt lat="38.07720125015783" lon="15.39568144505104"><ele>921.0</ele><time>2026-04-28T13:21:39Z</time></trkpt><trkpt lat="38.07734235716158" lon="15.395698062404426"><ele>924.0</ele><time>2026-04-28T13:21:41Z</time></trkpt><trkpt lat="38.077433420013904" lon="15.395707722297708"><ele>927.0</ele><time>2026-04-28T13:21:42Z</time></trkpt><trkpt lat="38.07754057955224" lon="15.395672703595647"><ele>926.8</ele><time>2026-04-28T13:21:44Z</time></trkpt><trkpt lat="38.07758291986699" lon="15.395563072671157"><ele>926.6</ele><time>2026-04-28T13:21:46Z</time></trkpt><trkpt lat="38.07752107145508" lon="15.395422442169874"><ele>926.3999999999999</ele><time>2026-04-28T13:21:48Z</time></trkpt><trkpt lat="38.07749459854948" lon="15.395277791164174"><ele>926.1999999999999</ele><time>2026-04-28T13:21:50Z</time></trkpt><trkpt lat="38.07744787941535" lon="15.395201557320515"><ele>926.0</ele><time>2026-04-28T13:21:51Z</time></trkpt><trkpt lat="38.07740950951939" lon="15.39513280968598"><ele>926.0</ele><time>2026-04-28T13:21:52Z</time></trkpt><trkpt lat="38.07735835903958" lon="15.394991788832106"><ele>925.9999999999999</ele><time>2026-04-28T13:21:54Z</time></trkpt><trkpt lat="38.07735937768974" lon="15.39483452176383"><ele>925.9999999999999</ele><time>2026-04-28T13:21:56Z</time></trkpt><trkpt lat="38.07740178414708" lon="15.394762358212825"><ele>926.0</ele><time>2026-04-28T13:21:57Z</time></trkpt><trkpt lat="38.07751515319951" lon="15.394711106139109"><ele>926.0</ele><time>2026-04-28T13:21:58Z</time></trkpt><trkpt lat="38.07755861539333" lon="15.394632022357943"><ele>922.6666666666667</ele><time>2026-04-28T13:21:59Z</time></trkpt><trkpt lat="38.077571250009335" lon="15.394546266328044"><ele>919.3333333333334</ele><time>2026-04-28T13:22:00Z</time></trkpt><trkpt lat="38.07756723125583" lon="15.394428345673782"><ele>916.0</ele><time>2026-04-28T13:22:02Z</time></trkpt><trkpt lat="38.07749277843995" lon="15.39437534873109"><ele>912.6666666666667</ele><time>2026-04-28T13:22:04Z</time></trkpt><trkpt lat="38.077408406152436" lon="15.394343378228879"><ele>909.3333333333334</ele><time>2026-04-28T13:22:05Z</time></trkpt><trkpt lat="38.07729779446225" lon="15.394306542085458"><ele>906.0</ele><time>2026-04-28T13:22:06Z</time></trkpt><trkpt lat="38.077211299065766" lon="15.394266252764941"><ele>906.0</ele><time>2026-04-28T13:22:07Z</time></trkpt><trkpt lat="38.07715864811584" lon="15.394205662546014"><ele>906.0</ele><time>2026-04-28T13:22:08Z</time></trkpt><trkpt lat="38.07710562216788" lon="15.39412050014603"><ele>906.0</ele><time>2026-04-28T13:22:09Z</time></trkpt><trkpt lat="38.07704817731293" lon="15.394064847381149"><ele>906.0</ele><time>2026-04-28T13:22:10Z</time></trkpt><trkpt lat="38.07690916498262" lon="15.393995445453555"><ele>906.0</ele><time>2026-04-28T13:22:12Z</time></trkpt><trkpt lat="38.07685668713205" lon="15.39394945236335"><ele>906.0</ele><time>2026-04-28T13:22:13Z</time></trkpt><trkpt lat="38.07684335598914" lon="15.393783730384317"><ele>900.8</ele><time>2026-04-28T13:22:15Z</time></trkpt><trkpt lat="38.07686859636766" lon="15.393664421154835"><ele>895.5999999999999</ele><time>2026-04-28T13:22:16Z</time></trkpt><trkpt lat="38.07687224904882" lon="15.393578180921066"><ele>890.4</ele><time>2026-04-28T13:22:17Z</time></trkpt><trkpt lat="38.07682513059604" lon="15.393433546917922"><ele>885.2</ele><time>2026-04-28T13:22:19Z</time></trkpt><trkpt lat="38.07678227165246" lon="15.393356793772822"><ele>880.0</ele><time>2026-04-28T13:22:20Z</time></trkpt><trkpt lat="38.07671035801813" lon="15.393267034913867"><ele>880.0</ele><time>2026-04-28T13:22:21Z</time></trkpt><trkpt lat="38.07662569565251" lon="15.393188524710053"><ele>880.0</ele><time>2026-04-28T13:22:22Z</time></trkpt><trkpt lat="38.0765583357931" lon="15.393119116696942"><ele>880.0</ele><time>2026-04-28T13:22:23Z</time></trkpt><trkpt lat="38.0765073085891" lon="15.393042129316875"><ele>880.0</ele><time>2026-04-28T13:22:24Z</time></trkpt><trkpt lat="38.07646009651068" lon="15.392923407638248"><ele>880.0</ele><time>2026-04-28T13:22:25Z</time></trkpt><trkpt lat="38.07641589105398" lon="15.392799528334555"><ele>880.4</ele><time>2026-04-28T13:22:26Z</time></trkpt><trkpt lat="38.076399864705465" lon="15.392709761287565"><ele>880.8</ele><time>2026-04-28T13:22:27Z</time></trkpt><trkpt lat="38.07637992122682" lon="15.392560498959597"><ele>881.2</ele><time>2026-04-28T13:22:29Z</time></trkpt><trkpt lat="38.076467990440975" lon="15.39242071292988"><ele>881.6</ele><time>2026-04-28T13:22:31Z</time></trkpt><trkpt lat="38.076538771345376" lon="15.392334565043598"><ele>882.0</ele><time>2026-04-28T13:22:32Z</time></trkpt><trkpt lat="38.076610258430364" lon="15.39225106784837"><ele>880.3333333333334</ele><time>2026-04-28T13:22:33Z</time></trkpt><trkpt lat="38.076645850606155" lon="15.392167091863413"><ele>878.6666666666667</ele><time>2026-04-28T13:22:34Z</time></trkpt><trkpt lat="38.07670408497141" lon="15.392076791843555"><ele>877.0</ele><time>2026-04-28T13:22:36Z</time></trkpt><trkpt lat="38.07666422793946" lon="15.392000529420207"><ele>875.3333333333334</ele><time>2026-04-28T13:22:45Z</time></trkpt><trkpt lat="38.07659054810636" lon="15.391962328360469"><ele>873.6666666666667</ele><time>2026-04-28T13:22:47Z</time></trkpt><trkpt lat="38.07646737107766" lon="15.391978792120234"><ele>872.0</ele><time>2026-04-28T13:22:49Z</time></trkpt><trkpt lat="38.07638113879243" lon="15.391969166659157"><ele>872.0</ele><time>2026-04-28T13:22:50Z</time></trkpt><trkpt lat="38.076286367310026" lon="15.391959575222508"><ele>872.0</ele><time>2026-04-28T13:22:51Z</time></trkpt><trkpt lat="38.076190105470424" lon="15.39193887745199"><ele>872.0</ele><time>2026-04-28T13:22:52Z</time></trkpt><trkpt lat="38.076106810314535" lon="15.391893521464574"><ele>872.0</ele><time>2026-04-28T13:22:53Z</time></trkpt><trkpt lat="38.07604342535212" lon="15.391844463317085"><ele>872.0</ele><time>2026-04-28T13:22:54Z</time></trkpt><trkpt lat="38.07594835593914" lon="15.391813584191627"><ele>872.0000000000001</ele><time>2026-04-28T13:22:56Z</time></trkpt><trkpt lat="38.07588210603568" lon="15.39175113953268"><ele>872.0</ele><time>2026-04-28T13:22:59Z</time></trkpt><trkpt lat="38.07588304394859" lon="15.391665422209206"><ele>872.0</ele><time>2026-04-28T13:23:01Z</time></trkpt><trkpt lat="38.07588277217045" lon="15.391539911750012"><ele>872.0</ele><time>2026-04-28T13:23:03Z</time></trkpt><trkpt lat="38.075843476428375" lon="15.39145768458891"><ele>872.0000000000001</ele><time>2026-04-28T13:23:04Z</time></trkpt><trkpt lat="38.075779034458904" lon="15.39137675113856"><ele>872.0</ele><time>2026-04-28T13:23:05Z</time></trkpt><trkpt lat="38.075726980890295" lon="15.39130358294489"><ele>872.3333333333334</ele><time>2026-04-28T13:23:06Z</time></trkpt><trkpt lat="38.07569461266313" lon="15.39123212381128"><ele>872.6666666666667</ele><time>2026-04-28T13:23:07Z</time></trkpt><trkpt lat="38.075663569060225" lon="15.391146422095135"><ele>873.0</ele><time>2026-04-28T13:23:08Z</time></trkpt><trkpt lat="38.07563983658055" lon="15.391062759317258"><ele>873.3333333333333</ele><time>2026-04-28T13:23:09Z</time></trkpt><trkpt lat="38.07560857290716" lon="15.390933879674085"><ele>873.6666666666666</ele><time>2026-04-28T13:23:11Z</time></trkpt><trkpt lat="38.075528353511615" lon="15.390798281320418"><ele>874.0</ele><time>2026-04-28T13:23:13Z</time></trkpt><trkpt lat="38.075454001906785" lon="15.390698427518009"><ele>874.0</ele><time>2026-04-28T13:23:14Z</time></trkpt><trkpt lat="38.07537457214188" lon="15.390588398210642"><ele>874.0000000000001</ele><time>2026-04-28T13:23:15Z</time></trkpt><trkpt lat="38.07530505611171" lon="15.390493089821662"><ele>874.0000000000001</ele><time>2026-04-28T13:23:16Z</time></trkpt><trkpt lat="38.075256392970076" lon="15.390420293448278"><ele>874.0</ele><time>2026-04-28T13:23:17Z</time></trkpt><trkpt lat="38.07521011217233" lon="15.390352955889943"><ele>874.0</ele><time>2026-04-28T13:23:18Z</time></trkpt><trkpt lat="38.07515332808922" lon="15.39026860474111"><ele>870.8000000000001</ele><time>2026-04-28T13:23:19Z</time></trkpt><trkpt lat="38.07509699764167" lon="15.390175459453323"><ele>867.6000000000001</ele><time>2026-04-28T13:23:20Z</time></trkpt><trkpt lat="38.075047494011294" lon="15.390096949503532"><ele>864.4</ele><time>2026-04-28T13:23:21Z</time></trkpt><trkpt lat="38.07497948146031" lon="15.390046793748253"><ele>861.2</ele><time>2026-04-28T13:23:22Z</time></trkpt><trkpt lat="38.07486286791352" lon="15.39001176958729"><ele>858.0</ele><time>2026-04-28T13:23:23Z</time></trkpt><trkpt lat="38.07475714808937" lon="15.389976342483983"><ele>858.0</ele><time>2026-04-28T13:23:24Z</time></trkpt><trkpt lat="38.07468397403717" lon="15.389921551579365"><ele>858.0</ele><time>2026-04-28T13:23:25Z</time></trkpt><trkpt lat="38.07462183452942" lon="15.38985279282081"><ele>858.0</ele><time>2026-04-28T13:23:26Z</time></trkpt><trkpt lat="38.074554926119426" lon="15.389777519111185"><ele>858.0</ele><time>2026-04-28T13:23:27Z</time></trkpt><trkpt lat="38.0744678483062" lon="15.38969009852602"><ele>858.0</ele><time>2026-04-28T13:23:28Z</time></trkpt><trkpt lat="38.0743893560663" lon="15.389594197748364"><ele>855.5999999999999</ele><time>2026-04-28T13:23:29Z</time></trkpt><trkpt lat="38.07430364959815" lon="15.38948499645386"><ele>853.1999999999999</ele><time>2026-04-28T13:23:30Z</time></trkpt><trkpt lat="38.074215223503536" lon="15.38938879131228"><ele>850.8</ele><time>2026-04-28T13:23:31Z</time></trkpt><trkpt lat="38.07413176266575" lon="15.389305213746614"><ele>848.4</ele><time>2026-04-28T13:23:32Z</time></trkpt><trkpt lat="38.07404644492826" lon="15.389234487540703"><ele>846.0</ele><time>2026-04-28T13:23:33Z</time></trkpt><trkpt lat="38.07393584654379" lon="15.389183436034523"><ele>846.0</ele><time>2026-04-28T13:23:34Z</time></trkpt><trkpt lat="38.073824504361916" lon="15.389126650721439"><ele>846.0</ele><time>2026-04-28T13:23:35Z</time></trkpt><trkpt lat="38.073717072012336" lon="15.389045546638654"><ele>846.0</ele><time>2026-04-28T13:23:36Z</time></trkpt><trkpt lat="38.07360455376853" lon="15.388954569286852"><ele>846.0</ele><time>2026-04-28T13:23:37Z</time></trkpt><trkpt lat="38.0734928903942" lon="15.388866522908625"><ele>843.5999999999999</ele><time>2026-04-28T13:23:38Z</time></trkpt><trkpt lat="38.07338961740466" lon="15.388779921733258"><ele>841.2</ele><time>2026-04-28T13:23:39Z</time></trkpt><trkpt lat="38.07328888777274" lon="15.388712499606811"><ele>838.8</ele><time>2026-04-28T13:23:40Z</time></trkpt><trkpt lat="38.07319447266657" lon="15.388651813906687"><ele>836.4000000000001</ele><time>2026-04-28T13:23:41Z</time></trkpt><trkpt lat="38.073109542030224" lon="15.388599805774914"><ele>834.0</ele><time>2026-04-28T13:23:42Z</time></trkpt><trkpt lat="38.073023904575585" lon="15.388565430203204"><ele>833.8333333333334</ele><time>2026-04-28T13:23:43Z</time></trkpt><trkpt lat="38.072954642549924" lon="15.388537972982725"><ele>833.6666666666667</ele><time>2026-04-28T13:23:44Z</time></trkpt><trkpt lat="38.07289625868295" lon="15.388494634950638"><ele>833.5</ele><time>2026-04-28T13:23:45Z</time></trkpt><trkpt lat="38.07285985910458" lon="15.388376516070966"><ele>833.3333333333334</ele><time>2026-04-28T13:23:47Z</time></trkpt><trkpt lat="38.07282229524654" lon="15.388222209088235"><ele>833.1666666666667</ele><time>2026-04-28T13:25:48Z</time></trkpt><trkpt lat="38.0728057609362" lon="15.388124722448906"><ele>833.0</ele><time>2026-04-28T13:25:49Z</time></trkpt><trkpt lat="38.07280054506027" lon="15.388043161701443"><ele>828.0</ele><time>2026-04-28T13:25:50Z</time></trkpt><trkpt lat="38.07284846479115" lon="15.387895265967162"><ele>823.0</ele><time>2026-04-28T13:25:52Z</time></trkpt><trkpt lat="38.0728926776771" lon="15.38781295456163"><ele>818.0</ele><time>2026-04-28T13:25:53Z</time></trkpt><trkpt lat="38.07294542217644" lon="15.38771614817377"><ele>813.0</ele><time>2026-04-28T13:25:54Z</time></trkpt><trkpt lat="38.07297870509327" lon="15.38763776302894"><ele>808.0</ele><time>2026-04-28T13:25:55Z</time></trkpt><trkpt lat="38.073056033838874" lon="15.387480129870381"><ele>807.9999999999999</ele><time>2026-04-28T13:25:57Z</time></trkpt><trkpt lat="38.073091487598745" lon="15.38738876453187"><ele>808.0</ele><time>2026-04-28T13:25:58Z</time></trkpt><trkpt lat="38.07311657954809" lon="15.38728669720874"><ele>808.0</ele><time>2026-04-28T13:25:59Z</time></trkpt><trkpt lat="38.07314186600716" lon="15.387185036442126"><ele>808.0</ele><time>2026-04-28T13:26:00Z</time></trkpt><trkpt lat="38.07315859104436" lon="15.387085671704483"><ele>807.9999999999999</ele><time>2026-04-28T13:26:01Z</time></trkpt><trkpt lat="38.07317198693988" lon="15.386983958531525"><ele>808.0</ele><time>2026-04-28T13:26:02Z</time></trkpt><trkpt lat="38.073154723031635" lon="15.38687657923068"><ele>805.9999999999999</ele><time>2026-04-28T13:26:03Z</time></trkpt><trkpt lat="38.073118818276164" lon="15.386784957653148"><ele>804.0</ele><time>2026-04-28T13:26:04Z</time></trkpt><trkpt lat="38.07307465727588" lon="15.386703792301324"><ele>802.0</ele><time>2026-04-28T13:26:05Z</time></trkpt><trkpt lat="38.07302421314847" lon="15.386627131703708"><ele>800.0</ele><time>2026-04-28T13:26:06Z</time></trkpt><trkpt lat="38.07295345186679" lon="15.38656152520147"><ele>797.9999999999999</ele><time>2026-04-28T13:26:08Z</time></trkpt><trkpt lat="38.07296199406309" lon="15.386453284030596"><ele>796.0</ele><time>2026-04-28T13:26:11Z</time></trkpt><trkpt lat="38.073035712974615" lon="15.386449229042638"><ele>796.0</ele><time>2026-04-28T13:26:13Z</time></trkpt><trkpt lat="38.07316971822542" lon="15.38650333782369"><ele>796.0</ele><time>2026-04-28T13:26:15Z</time></trkpt><trkpt lat="38.073252003507484" lon="15.386504898570518"><ele>796.0</ele><time>2026-04-28T13:26:16Z</time></trkpt><trkpt lat="38.07333891932005" lon="15.386471803383234"><ele>796.0</ele><time>2026-04-28T13:26:17Z</time></trkpt><trkpt lat="38.07340970677195" lon="15.38641727157943"><ele>796.0</ele><time>2026-04-28T13:26:18Z</time></trkpt><trkpt lat="38.073459060113244" lon="15.386366644599608"><ele>798.5999999999999</ele><time>2026-04-28T13:26:19Z</time></trkpt><trkpt lat="38.073540896745605" lon="15.38638892984529"><ele>801.2</ele><time>2026-04-28T13:26:21Z</time></trkpt><trkpt lat="38.07364161391144" lon="15.386420246056373"><ele>803.8</ele><time>2026-04-28T13:26:22Z</time></trkpt><trkpt lat="38.07376856782931" lon="15.38645792524704"><ele>806.4000000000001</ele><time>2026-04-28T13:26:23Z</time></trkpt><trkpt lat="38.07386536657156" lon="15.386477338115046"><ele>809.0</ele><time>2026-04-28T13:26:24Z</time></trkpt><trkpt lat="38.07395776020818" lon="15.386500559140693"><ele>809.0</ele><time>2026-04-28T13:26:25Z</time></trkpt><trkpt lat="38.0740473744641" lon="15.386623968118062"><ele>809.0</ele><time>2026-04-28T13:26:26Z</time></trkpt><trkpt lat="38.07411630713457" lon="15.386699126186313"><ele>809.0</ele><time>2026-04-28T13:26:27Z</time></trkpt><trkpt lat="38.07416219626917" lon="15.386764536891269"><ele>809.0</ele><time>2026-04-28T13:26:28Z</time></trkpt><trkpt lat="38.07423281862171" lon="15.38683302831893"><ele>809.0</ele><time>2026-04-28T13:26:30Z</time></trkpt><trkpt lat="38.074218228420925" lon="15.386943954073276"><ele>806.4000000000001</ele><time>2026-04-28T13:26:32Z</time></trkpt><trkpt lat="38.07419543410819" lon="15.387100887923275"><ele>803.8</ele><time>2026-04-28T13:26:34Z</time></trkpt><trkpt lat="38.07414685138548" lon="15.387209404596492"><ele>801.2</ele><time>2026-04-28T13:26:35Z</time></trkpt><trkpt lat="38.074112895934626" lon="15.387300530248627"><ele>798.5999999999999</ele><time>2026-04-28T13:26:36Z</time></trkpt><trkpt lat="38.074075503506144" lon="15.387419572822463"><ele>796.0</ele><time>2026-04-28T13:26:37Z</time></trkpt><trkpt lat="38.07406945658131" lon="15.387551172764253"><ele>798.4</ele><time>2026-04-28T13:26:38Z</time></trkpt><trkpt lat="38.07405511318417" lon="15.387708296313093"><ele>800.8</ele><time>2026-04-28T13:26:39Z</time></trkpt><trkpt lat="38.07405186334137" lon="15.387826079559865"><ele>803.1999999999999</ele><time>2026-04-28T13:26:40Z</time></trkpt><trkpt lat="38.07405035675838" lon="15.387930174717575"><ele>805.5999999999999</ele><time>2026-04-28T13:26:41Z</time></trkpt><trkpt lat="38.074107233676415" lon="15.388018571512147"><ele>808.0</ele><time>2026-04-28T13:26:43Z</time></trkpt><trkpt lat="38.07421307177239" lon="15.388047902035847"><ele>808.0</ele><time>2026-04-28T13:26:45Z</time></trkpt><trkpt lat="38.07427539315535" lon="15.388016754290197"><ele>808.0</ele><time>2026-04-28T13:26:46Z</time></trkpt><trkpt lat="38.07435967149607" lon="15.387986584942228"><ele>808.0</ele><time>2026-04-28T13:26:47Z</time></trkpt><trkpt lat="38.07442707709959" lon="15.38796889620606"><ele>808.0</ele><time>2026-04-28T13:26:48Z</time></trkpt><trkpt lat="38.07454424708984" lon="15.388016760727988"><ele>808.0</ele><time>2026-04-28T13:26:50Z</time></trkpt><trkpt lat="38.07458959455777" lon="15.388159141211935"><ele>808.0</ele><time>2026-04-28T13:26:52Z</time></trkpt><trkpt lat="38.07460129943382" lon="15.38832814662866"><ele>808.0</ele><time>2026-04-28T13:26:53Z</time></trkpt><trkpt lat="38.07460468702826" lon="15.388418036382255"><ele>808.0</ele><time>2026-04-28T13:26:54Z</time></trkpt><trkpt lat="38.07469969273461" lon="15.388507499091524"><ele>808.0</ele><time>2026-04-28T13:26:56Z</time></trkpt><trkpt lat="38.074766673917104" lon="15.388499549983262"><ele>808.0</ele><time>2026-04-28T13:26:57Z</time></trkpt><trkpt lat="38.07483763412352" lon="15.388498589598427"><ele>807.9999999999999</ele><time>2026-04-28T13:26:58Z</time></trkpt><trkpt lat="38.07489831068885" lon="15.388543550710539"><ele>808.0</ele><time>2026-04-28T13:27:00Z</time></trkpt><trkpt lat="38.074957850463576" lon="15.388609360390094"><ele>808.0</ele><time>2026-04-28T13:27:02Z</time></trkpt><trkpt lat="38.075079966444314" lon="15.388577081766892"><ele>808.0</ele><time>2026-04-28T13:27:04Z</time></trkpt><trkpt lat="38.07511416284197" lon="15.388500130623795"><ele>807.9999999999999</ele><time>2026-04-28T13:27:05Z</time></trkpt><trkpt lat="38.07518498598947" lon="15.388504825358288"><ele>808.0</ele><time>2026-04-28T13:27:07Z</time></trkpt><trkpt lat="38.075256178530225" lon="15.388527796734218"><ele>808.1666666666666</ele><time>2026-04-28T13:27:08Z</time></trkpt><trkpt lat="38.07533129523831" lon="15.388564483587093"><ele>808.3333333333333</ele><time>2026-04-28T13:27:09Z</time></trkpt><trkpt lat="38.0754182110788" lon="15.388595810056577"><ele>808.5</ele><time>2026-04-28T13:27:10Z</time></trkpt><trkpt lat="38.07550316090967" lon="15.388631380052745"><ele>808.6666666666667</ele><time>2026-04-28T13:27:11Z</time></trkpt><trkpt lat="38.07556759375725" lon="15.388691776963096"><ele>808.8333333333334</ele><time>2026-04-28T13:27:12Z</time></trkpt><trkpt lat="38.075633617652876" lon="15.388779319548284"><ele>809.0</ele><time>2026-04-28T13:27:14Z</time></trkpt><trkpt lat="38.07567053555061" lon="15.388886389439456"><ele>809.0000000000001</ele><time>2026-04-28T13:27:16Z</time></trkpt><trkpt lat="38.075743916655945" lon="15.388940965781947"><ele>809.0</ele><time>2026-04-28T13:27:18Z</time></trkpt><trkpt lat="38.07582066700482" lon="15.388888542953739"><ele>809.0</ele><time>2026-04-28T13:27:20Z</time></trkpt><trkpt lat="38.075885501977766" lon="15.38886221240133"><ele>809.0</ele><time>2026-04-28T13:27:21Z</time></trkpt><trkpt lat="38.07597357349429" lon="15.388908684092776"><ele>809.0000000000001</ele><time>2026-04-28T13:27:23Z</time></trkpt><trkpt lat="38.076050133047346" lon="15.388947447874184"><ele>809.0</ele><time>2026-04-28T13:27:24Z</time></trkpt><trkpt lat="38.076142198711935" lon="15.388998979783311"><ele>803.8333333333334</ele><time>2026-04-28T13:27:25Z</time></trkpt><trkpt lat="38.07620618784849" lon="15.389035475682222"><ele>798.6666666666667</ele><time>2026-04-28T13:27:26Z</time></trkpt><trkpt lat="38.07628433337025" lon="15.389015525804801"><ele>793.5</ele><time>2026-04-28T13:27:28Z</time></trkpt><trkpt lat="38.076365062917915" lon="15.388921207985232"><ele>788.3333333333333</ele><time>2026-04-28T13:27:30Z</time></trkpt><trkpt lat="38.07643584924819" lon="15.388893340150581"><ele>783.1666666666666</ele><time>2026-04-28T13:27:31Z</time></trkpt><trkpt lat="38.076475795044466" lon="15.388825860790332"><ele>778.0</ele><time>2026-04-28T13:27:34Z</time></trkpt><trkpt lat="38.07641343275869" lon="15.388795478484154"><ele>774.6666666666666</ele><time>2026-04-28T13:27:36Z</time></trkpt><trkpt lat="38.07633832377701" lon="15.388804884648534"><ele>771.3333333333333</ele><time>2026-04-28T13:27:37Z</time></trkpt><trkpt lat="38.07625149294459" lon="15.388806590611946"><ele>768.0</ele><time>2026-04-28T13:27:38Z</time></trkpt><trkpt lat="38.07617091270275" lon="15.388768515366754"><ele>764.6666666666666</ele><time>2026-04-28T13:27:39Z</time></trkpt><trkpt lat="38.07610555739907" lon="15.388714341800295"><ele>761.3333333333333</ele><time>2026-04-28T13:27:40Z</time></trkpt><trkpt lat="38.07604827590958" lon="15.388623295285194"><ele>758.0</ele><time>2026-04-28T13:27:41Z</time></trkpt><trkpt lat="38.07598167007516" lon="15.38852560241003"><ele>758.0</ele><time>2026-04-28T13:27:42Z</time></trkpt><trkpt lat="38.07589753670792" lon="15.38845133951221"><ele>758.0</ele><time>2026-04-28T13:27:43Z</time></trkpt><trkpt lat="38.07582289073065" lon="15.388380131613369"><ele>758.0</ele><time>2026-04-28T13:27:44Z</time></trkpt><trkpt lat="38.07574421593359" lon="15.388304036820495"><ele>758.0</ele><time>2026-04-28T13:27:45Z</time></trkpt><trkpt lat="38.0756966883065" lon="15.388230673890286"><ele>758.0</ele><time>2026-04-28T13:27:46Z</time></trkpt><trkpt lat="38.075653754062444" lon="15.388147084246059"><ele>758.0</ele><time>2026-04-28T13:27:47Z</time></trkpt><trkpt lat="38.07561632676227" lon="15.388044017140691"><ele>756.0</ele><time>2026-04-28T13:27:48Z</time></trkpt><trkpt lat="38.075553838828895" lon="15.387945608949426"><ele>754.0</ele><time>2026-04-28T13:27:49Z</time></trkpt><trkpt lat="38.0754835972746" lon="15.387859976820568"><ele>752.0</ele><time>2026-04-28T13:27:50Z</time></trkpt><trkpt lat="38.075418376342725" lon="15.387786928640534"><ele>750.0</ele><time>2026-04-28T13:27:51Z</time></trkpt><trkpt lat="38.07533582056827" lon="15.38772729909021"><ele>748.0</ele><time>2026-04-28T13:27:52Z</time></trkpt><trkpt lat="38.07526050544621" lon="15.38768520843012"><ele>748.0</ele><time>2026-04-28T13:27:53Z</time></trkpt><trkpt lat="38.07520845864422" lon="15.387631351373795"><ele>748.0</ele><time>2026-04-28T13:27:54Z</time></trkpt><trkpt lat="38.07517154063556" lon="15.387535915620319"><ele>748.0</ele><time>2026-04-28T13:27:55Z</time></trkpt><trkpt lat="38.075146485948494" lon="15.387458925692416"><ele>748.0</ele><time>2026-04-28T13:27:56Z</time></trkpt><trkpt lat="38.07517988549672" lon="15.387294273506443"><ele>748.0</ele><time>2026-04-28T13:27:58Z</time></trkpt><trkpt lat="38.075232548719164" lon="15.387194579745136"><ele>748.0</ele><time>2026-04-28T13:27:59Z</time></trkpt><trkpt lat="38.075300098932416" lon="15.387098007849113"><ele>746.1666666666667</ele><time>2026-04-28T13:28:00Z</time></trkpt><trkpt lat="38.075334745979504" lon="15.386992170470833"><ele>744.3333333333334</ele><time>2026-04-28T13:28:01Z</time></trkpt><trkpt lat="38.075327451489166" lon="15.386887714541592"><ele>742.5</ele><time>2026-04-28T13:28:02Z</time></trkpt><trkpt lat="38.07529167910256" lon="15.386790040223707"><ele>740.6666666666666</ele><time>2026-04-28T13:28:03Z</time></trkpt><trkpt lat="38.0752266245124" lon="15.38674198494114"><ele>738.8333333333333</ele><time>2026-04-28T13:28:04Z</time></trkpt><trkpt lat="38.0751475405644" lon="15.386683447001495"><ele>737.0</ele><time>2026-04-28T13:28:05Z</time></trkpt><trkpt lat="38.07510365984185" lon="15.386617810093382"><ele>737.0</ele><time>2026-04-28T13:28:06Z</time></trkpt><trkpt lat="38.07509811847906" lon="15.38649324321236"><ele>737.0</ele><time>2026-04-28T13:28:08Z</time></trkpt><trkpt lat="38.07512479974525" lon="15.38639303770232"><ele>737.0</ele><time>2026-04-28T13:28:09Z</time></trkpt><trkpt lat="38.075137312278464" lon="15.386279123623304"><ele>737.0</ele><time>2026-04-28T13:28:10Z</time></trkpt><trkpt lat="38.07515135736783" lon="15.386155529597293"><ele>737.0</ele><time>2026-04-28T13:28:12Z</time></trkpt><trkpt lat="38.075210830142524" lon="15.38607406195134"><ele>733.0</ele><time>2026-04-28T13:28:14Z</time></trkpt><trkpt lat="38.07527915666198" lon="15.386040648830907"><ele>729.0</ele><time>2026-04-28T13:28:15Z</time></trkpt><trkpt lat="38.0753831079034" lon="15.386005805082018"><ele>725.0</ele><time>2026-04-28T13:28:16Z</time></trkpt><trkpt lat="38.075461321642976" lon="15.385962656180904"><ele>721.0</ele><time>2026-04-28T13:28:17Z</time></trkpt><trkpt lat="38.07557566613382" lon="15.385916569473634"><ele>717.0</ele><time>2026-04-28T13:28:19Z</time></trkpt><trkpt lat="38.07568096481473" lon="15.385966581711916"><ele>717.0</ele><time>2026-04-28T13:28:21Z</time></trkpt><trkpt lat="38.075740094590905" lon="15.385995479455902"><ele>717.0</ele><time>2026-04-28T13:28:22Z</time></trkpt><trkpt lat="38.07582437286605" lon="15.385871828879115"><ele>717.0</ele><time>2026-04-28T13:28:24Z</time></trkpt><trkpt lat="38.07591575182348" lon="15.385796671412074"><ele>717.0</ele><time>2026-04-28T13:28:25Z</time></trkpt><trkpt lat="38.07598204172729" lon="15.385723307635962"><ele>717.0</ele><time>2026-04-28T13:28:26Z</time></trkpt><trkpt lat="38.07603918353479" lon="15.385673243905755"><ele>716.8333333333334</ele><time>2026-04-28T13:28:27Z</time></trkpt><trkpt lat="38.07610508657686" lon="15.38561448068481"><ele>716.6666666666666</ele><time>2026-04-28T13:28:28Z</time></trkpt><trkpt lat="38.076163768540454" lon="15.385568978734971"><ele>716.5</ele><time>2026-04-28T13:28:29Z</time></trkpt><trkpt lat="38.07622663505196" lon="15.385480024706048"><ele>716.3333333333333</ele><time>2026-04-28T13:28:31Z</time></trkpt><trkpt lat="38.076157622312536" lon="15.385371857319667"><ele>716.1666666666666</ele><time>2026-04-28T13:28:34Z</time></trkpt><trkpt lat="38.07607225618225" lon="15.385375774347725"><ele>716.0</ele><time>2026-04-28T13:28:36Z</time></trkpt><trkpt lat="38.07600500021071" lon="15.38544156689445"><ele>716.0</ele><time>2026-04-28T13:28:38Z</time></trkpt><trkpt lat="38.07593399337035" lon="15.38552369943121"><ele>716.0</ele><time>2026-04-28T13:28:40Z</time></trkpt><trkpt lat="38.07585000540168" lon="15.385588054969912"><ele>716.0</ele><time>2026-04-28T13:28:42Z</time></trkpt><trkpt lat="38.07578218026841" lon="15.385565208915045"><ele>716.0</ele><time>2026-04-28T13:28:44Z</time></trkpt><trkpt lat="38.07567476612818" lon="15.385523642347906"><ele>716.0</ele><time>2026-04-28T13:28:46Z</time></trkpt><trkpt lat="38.075568082351005" lon="15.385408681519774"><ele>712.5</ele><time>2026-04-28T13:28:48Z</time></trkpt><trkpt lat="38.07549974942876" lon="15.385312293550912"><ele>709.0</ele><time>2026-04-28T13:28:49Z</time></trkpt><trkpt lat="38.07538506842476" lon="15.385199522726444"><ele>705.5</ele><time>2026-04-28T13:28:50Z</time></trkpt><trkpt lat="38.07527160784592" lon="15.38509150954849"><ele>702.0</ele><time>2026-04-28T13:28:51Z</time></trkpt><trkpt lat="38.075141869172455" lon="15.38498995635735"><ele>702.0</ele><time>2026-04-28T13:28:52Z</time></trkpt><trkpt lat="38.075019100331915" lon="15.384906104981269"><ele>702.0</ele><time>2026-04-28T13:28:53Z</time></trkpt><trkpt lat="38.074903461570976" lon="15.384814415821443"><ele>702.0</ele><time>2026-04-28T13:28:54Z</time></trkpt><trkpt lat="38.07479436141089" lon="15.384765880879472"><ele>702.0</ele><time>2026-04-28T13:28:55Z</time></trkpt><trkpt lat="38.074700602967354" lon="15.384725187266646"><ele>701.8333333333334</ele><time>2026-04-28T13:28:56Z</time></trkpt><trkpt lat="38.07462229890142" lon="15.384701751190011"><ele>701.6666666666666</ele><time>2026-04-28T13:28:57Z</time></trkpt><trkpt lat="38.074557101230035" lon="15.384678761224409"><ele>701.5</ele><time>2026-04-28T13:28:58Z</time></trkpt><trkpt lat="38.07449620285402" lon="15.38465140530291"><ele>701.3333333333333</ele><time>2026-04-28T13:28:59Z</time></trkpt><trkpt lat="38.074425311927996" lon="15.384618957095311"><ele>701.1666666666666</ele><time>2026-04-28T13:29:00Z</time></trkpt><trkpt lat="38.07430613476589" lon="15.384653391261397"><ele>701.0</ele><time>2026-04-28T13:29:02Z</time></trkpt><trkpt lat="38.07422091401881" lon="15.384705433066365"><ele>701.8333333333333</ele><time>2026-04-28T13:29:03Z</time></trkpt><trkpt lat="38.07414590225576" lon="15.384734939288503"><ele>702.6666666666666</ele><time>2026-04-28T13:29:04Z</time></trkpt><trkpt lat="38.074074153521394" lon="15.384723048034092"><ele>703.5</ele><time>2026-04-28T13:29:05Z</time></trkpt><trkpt lat="38.07399878403866" lon="15.38466766332929"><ele>704.3333333333334</ele><time>2026-04-28T13:29:06Z</time></trkpt><trkpt lat="38.07391804741233" lon="15.384598911747123"><ele>705.1666666666667</ele><time>2026-04-28T13:29:07Z</time></trkpt><trkpt lat="38.073842787969845" lon="15.384511947374707"><ele>706.0</ele><time>2026-04-28T13:29:08Z</time></trkpt><trkpt lat="38.0737677098297" lon="15.384428593882056"><ele>703.5</ele><time>2026-04-28T13:29:09Z</time></trkpt><trkpt lat="38.073699172048904" lon="15.384345385344469"><ele>701.0</ele><time>2026-04-28T13:29:11Z</time></trkpt><trkpt lat="38.07364237180562" lon="15.38429735331462"><ele>698.5</ele><time>2026-04-28T13:29:13Z</time></trkpt><trkpt lat="38.07358024182749" lon="15.384211428670346"><ele>696.0</ele><time>2026-04-28T13:29:15Z</time></trkpt><trkpt lat="38.073544121634214" lon="15.384130157493802"><ele>693.5</ele><time>2026-04-28T13:29:16Z</time></trkpt><trkpt lat="38.07351211679822" lon="15.384024495290115"><ele>691.0</ele><time>2026-04-28T13:29:17Z</time></trkpt><trkpt lat="38.073472145576936" lon="15.383926635039522"><ele>691.0</ele><time>2026-04-28T13:29:18Z</time></trkpt><trkpt lat="38.07344353882721" lon="15.383847296111469"><ele>691.0</ele><time>2026-04-28T13:29:19Z</time></trkpt><trkpt lat="38.07333217587994" lon="15.383831209892653"><ele>691.0</ele><time>2026-04-28T13:29:22.999Z</time></trkpt><trkpt lat="38.073257205207256" lon="15.383852467041104"><ele>691.0</ele><time>2026-04-28T13:29:23.999Z</time></trkpt><trkpt lat="38.073193920642424" lon="15.383879175144722"><ele>691.0</ele><time>2026-04-28T13:29:24.999Z</time></trkpt><trkpt lat="38.07311337527698" lon="15.383905966372451"><ele>691.0</ele><time>2026-04-28T13:29:25.999Z</time></trkpt><trkpt lat="38.07298918829117" lon="15.383911989823773"><ele>691.25</ele><time>2026-04-28T13:29:26.999Z</time></trkpt><trkpt lat="38.07285427107887" lon="15.38390607450069"><ele>691.5</ele><time>2026-04-28T13:29:27.999Z</time></trkpt><trkpt lat="38.072727636542886" lon="15.383910052393892"><ele>691.75</ele><time>2026-04-28T13:29:28.999Z</time></trkpt><trkpt lat="38.07257236634152" lon="15.383954396362256"><ele>692.0</ele><time>2026-04-28T13:29:29.999Z</time></trkpt><trkpt lat="38.072441739926376" lon="15.383962854569493"><ele>690.4000000000001</ele><time>2026-04-28T13:29:30.999Z</time></trkpt><trkpt lat="38.0723242181752" lon="15.383981093529977"><ele>688.8000000000001</ele><time>2026-04-28T13:29:31.999Z</time></trkpt><trkpt lat="38.072223904360754" lon="15.383988081288846"><ele>687.2</ele><time>2026-04-28T13:29:32.999Z</time></trkpt><trkpt lat="38.072157511738105" lon="15.38404448676023"><ele>685.6</ele><time>2026-04-28T13:29:33.999Z</time></trkpt><trkpt lat="38.072071451116905" lon="15.383997451669124"><ele>684.0</ele><time>2026-04-28T13:29:34.999Z</time></trkpt><trkpt lat="38.07201723879834" lon="15.383924920934376"><ele>684.0</ele><time>2026-04-28T13:29:35.999Z</time></trkpt><trkpt lat="38.07190419825308" lon="15.383918032410817"><ele>684.0</ele><time>2026-04-28T13:29:38Z</time></trkpt><trkpt lat="38.07183965936355" lon="15.383925974695224"><ele>684.0</ele><time>2026-04-28T13:29:39Z</time></trkpt><trkpt lat="38.07176505125855" lon="15.383970046205956"><ele>684.0</ele><time>2026-04-28T13:29:40Z</time></trkpt><trkpt lat="38.071685925929735" lon="15.384030591408369"><ele>684.0</ele><time>2026-04-28T13:29:41Z</time></trkpt><trkpt lat="38.07160970897585" lon="15.38408418324946"><ele>684.0</ele><time>2026-04-28T13:29:42Z</time></trkpt><trkpt lat="38.071538441080705" lon="15.384163458042076"><ele>680.8000000000001</ele><time>2026-04-28T13:29:43Z</time></trkpt><trkpt lat="38.07147217761844" lon="15.384251351898182"><ele>677.6</ele><time>2026-04-28T13:29:44Z</time></trkpt><trkpt lat="38.071413516425885" lon="15.384302791408889"><ele>674.4</ele><time>2026-04-28T13:29:45Z</time></trkpt><trkpt lat="38.07129555428298" lon="15.38434267586648"><ele>671.2</ele><time>2026-04-28T13:29:47Z</time></trkpt><trkpt lat="38.071215124358446" lon="15.38431186726019"><ele>668.0</ele><time>2026-04-28T13:29:48Z</time></trkpt><trkpt lat="38.07112938444666" lon="15.384282404920501"><ele>668.0</ele><time>2026-04-28T13:29:49Z</time></trkpt><trkpt lat="38.071063851557334" lon="15.384255589102793"><ele>668.0</ele><time>2026-04-28T13:29:50Z</time></trkpt><trkpt lat="38.070996364163996" lon="15.384221642517742"><ele>668.0</ele><time>2026-04-28T13:29:51Z</time></trkpt><trkpt lat="38.07092835486573" lon="15.384180818544209"><ele>668.0</ele><time>2026-04-28T13:29:52Z</time></trkpt><trkpt lat="38.07086574448312" lon="15.38414569592954"><ele>668.0</ele><time>2026-04-28T13:29:53Z</time></trkpt><trkpt lat="38.070753674420246" lon="15.384103378612389"><ele>668.0</ele><time>2026-04-28T13:29:55Z</time></trkpt><trkpt lat="38.07065101346223" lon="15.384081779637912"><ele>666.4</ele><time>2026-04-28T13:29:57Z</time></trkpt><trkpt lat="38.0705440693653" lon="15.384030783978142"><ele>664.8</ele><time>2026-04-28T13:29:59Z</time></trkpt><trkpt lat="38.07050306621408" lon="15.383939179431229"><ele>663.2</ele><time>2026-04-28T13:30:01Z</time></trkpt><trkpt lat="38.07044135780115" lon="15.383785925833603"><ele>661.6</ele><time>2026-04-28T13:30:03Z</time></trkpt><trkpt lat="38.07039561554754" lon="15.383727327642527"><ele>660.0</ele><time>2026-04-28T13:30:04Z</time></trkpt><trkpt lat="38.07033557970178" lon="15.383688540511995"><ele>660.0</ele><time>2026-04-28T13:30:05Z</time></trkpt><trkpt lat="38.070251667732684" lon="15.38365003917194"><ele>660.0</ele><time>2026-04-28T13:30:06Z</time></trkpt><trkpt lat="38.070174124344405" lon="15.383627571665416"><ele>660.0</ele><time>2026-04-28T13:30:07Z</time></trkpt><trkpt lat="38.070101947388636" lon="15.383617374458781"><ele>660.0</ele><time>2026-04-28T13:30:08Z</time></trkpt><trkpt lat="38.07003713419479" lon="15.383627169340318"><ele>660.0</ele><time>2026-04-28T13:30:09Z</time></trkpt><trkpt lat="38.06993758600047" lon="15.383687659705307"><ele>660.0</ele><time>2026-04-28T13:30:11Z</time></trkpt><trkpt lat="38.069867915750876" lon="15.383743354497785"><ele>660.6</ele><time>2026-04-28T13:30:12Z</time></trkpt><trkpt lat="38.06977023947812" lon="15.383802893629234"><ele>661.2</ele><time>2026-04-28T13:30:13Z</time></trkpt><trkpt lat="38.06967117559752" lon="15.383859749897255"><ele>661.8</ele><time>2026-04-28T13:30:14Z</time></trkpt><trkpt lat="38.06958335110195" lon="15.383923915466342"><ele>662.4</ele><time>2026-04-28T13:30:15Z</time></trkpt><trkpt lat="38.06949610109449" lon="15.383991758904566"><ele>663.0</ele><time>2026-04-28T13:30:16Z</time></trkpt><trkpt lat="38.06940589955534" lon="15.384066256257723"><ele>663.0</ele><time>2026-04-28T13:30:17Z</time></trkpt><trkpt lat="38.06931453422772" lon="15.384149470977313"><ele>663.0</ele><time>2026-04-28T13:30:18Z</time></trkpt><trkpt lat="38.0692401946626" lon="15.384220325802966"><ele>663.0</ele><time>2026-04-28T13:30:19Z</time></trkpt><trkpt lat="38.069154559071634" lon="15.38429905468034"><ele>663.0</ele><time>2026-04-28T13:30:20Z</time></trkpt><trkpt lat="38.06907619010739" lon="15.384369537313843"><ele>663.0</ele><time>2026-04-28T13:30:21Z</time></trkpt><trkpt lat="38.068987181586245" lon="15.384441562036956"><ele>662.3333333333334</ele><time>2026-04-28T13:30:22Z</time></trkpt><trkpt lat="38.06890163313781" lon="15.384503344008534"><ele>661.6666666666666</ele><time>2026-04-28T13:30:23Z</time></trkpt><trkpt lat="38.06881521406157" lon="15.384542530203515"><ele>661.0</ele><time>2026-04-28T13:30:24Z</time></trkpt><trkpt lat="38.068752779535906" lon="15.384574859813878"><ele>660.3333333333333</ele><time>2026-04-28T13:30:25Z</time></trkpt><trkpt lat="38.06867382791585" lon="15.384594582564347"><ele>659.6666666666666</ele><time>2026-04-28T13:30:26Z</time></trkpt><trkpt lat="38.06857912902674" lon="15.384610696635065"><ele>659.0</ele><time>2026-04-28T13:30:27Z</time></trkpt><trkpt lat="38.06848598504854" lon="15.38461880487286"><ele>659.0</ele><time>2026-04-28T13:30:28Z</time></trkpt><trkpt lat="38.0683723300559" lon="15.384618688649969"><ele>659.0</ele><time>2026-04-28T13:30:29Z</time></trkpt><trkpt lat="38.06823167313801" lon="15.38461472015416"><ele>659.0</ele><time>2026-04-28T13:30:30Z</time></trkpt><trkpt lat="38.06807998878626" lon="15.384583760238993"><ele>659.0</ele><time>2026-04-28T13:30:31Z</time></trkpt><trkpt lat="38.067935380524" lon="15.38455830715966"><ele>656.8000000000001</ele><time>2026-04-28T13:30:32Z</time></trkpt><trkpt lat="38.06781319004528" lon="15.384526072311845"><ele>654.6</ele><time>2026-04-28T13:30:33Z</time></trkpt><trkpt lat="38.06770395237767" lon="15.384488981589836"><ele>652.4</ele><time>2026-04-28T13:30:34Z</time></trkpt><trkpt lat="38.067613772662824" lon="15.384475160726746"><ele>650.2</ele><time>2026-04-28T13:30:35Z</time></trkpt><trkpt lat="38.06751872965949" lon="15.384492200400487"><ele>648.0</ele><time>2026-04-28T13:30:36Z</time></trkpt><trkpt lat="38.06742395542638" lon="15.38453902899194"><ele>646.8</ele><time>2026-04-28T13:30:37Z</time></trkpt><trkpt lat="38.06736298305376" lon="15.3845626735118"><ele>645.5999999999999</ele><time>2026-04-28T13:30:38Z</time></trkpt><trkpt lat="38.06726776895922" lon="15.384533208842203"><ele>644.4000000000001</ele><time>2026-04-28T13:30:39Z</time></trkpt><trkpt lat="38.0671465655744" lon="15.3845028597947"><ele>643.2</ele><time>2026-04-28T13:30:40Z</time></trkpt><trkpt lat="38.06702046005032" lon="15.38445441197673"><ele>642.0</ele><time>2026-04-28T13:30:41Z</time></trkpt><trkpt lat="38.066911635504354" lon="15.384411974671796"><ele>642.0</ele><time>2026-04-28T13:30:42Z</time></trkpt><trkpt lat="38.06680841405434" lon="15.384401152780423"><ele>642.0</ele><time>2026-04-28T13:30:43Z</time></trkpt><trkpt lat="38.06670957683194" lon="15.384430820472419"><ele>642.0</ele><time>2026-04-28T13:30:44Z</time></trkpt><trkpt lat="38.0666000149075" lon="15.38447321976255"><ele>642.0</ele><time>2026-04-28T13:30:45Z</time></trkpt><trkpt lat="38.06648564938628" lon="15.384520369661251"><ele>642.0</ele><time>2026-04-28T13:30:46Z</time></trkpt><trkpt lat="38.06635844776987" lon="15.384556792998056"><ele>644.25</ele><time>2026-04-28T13:30:47Z</time></trkpt><trkpt lat="38.06621079986172" lon="15.384603694676928"><ele>646.5</ele><time>2026-04-28T13:30:48Z</time></trkpt><trkpt lat="38.066059585623734" lon="15.384634021900256"><ele>648.75</ele><time>2026-04-28T13:30:49Z</time></trkpt><trkpt lat="38.065920892142636" lon="15.384666250963305"><ele>651.0</ele><time>2026-04-28T13:30:50Z</time></trkpt><trkpt lat="38.06578793741624" lon="15.384686741692988"><ele>647.0</ele><time>2026-04-28T13:30:51Z</time></trkpt><trkpt lat="38.06564913786877" lon="15.384699120668616"><ele>643.0</ele><time>2026-04-28T13:30:52Z</time></trkpt><trkpt lat="38.06551537383041" lon="15.384706747463687"><ele>639.0</ele><time>2026-04-28T13:30:53Z</time></trkpt><trkpt lat="38.06539993667392" lon="15.384713651419666"><ele>635.0</ele><time>2026-04-28T13:30:54Z</time></trkpt><trkpt lat="38.065290198250125" lon="15.384728998566155"><ele>635.0</ele><time>2026-04-28T13:30:55Z</time></trkpt><trkpt lat="38.06517411621304" lon="15.384759162492308"><ele>635.0</ele><time>2026-04-28T13:30:56Z</time></trkpt><trkpt lat="38.0650507197073" lon="15.384783052464224"><ele>635.0</ele><time>2026-04-28T13:30:57Z</time></trkpt><trkpt lat="38.064942536509626" lon="15.384809743466294"><ele>635.0</ele><time>2026-04-28T13:30:58Z</time></trkpt><trkpt lat="38.064845839322594" lon="15.384848035906042"><ele>639.25</ele><time>2026-04-28T13:30:59Z</time></trkpt><trkpt lat="38.0647366338317" lon="15.384905696393185"><ele>643.5</ele><time>2026-04-28T13:31:00Z</time></trkpt><trkpt lat="38.06462725175597" lon="15.384984714462798"><ele>647.75</ele><time>2026-04-28T13:31:01Z</time></trkpt><trkpt lat="38.06452681867173" lon="15.385060516231446"><ele>652.0</ele><time>2026-04-28T13:31:02Z</time></trkpt><trkpt lat="38.06441914857777" lon="15.385141892806534"><ele>652.0</ele><time>2026-04-28T13:31:03Z</time></trkpt><trkpt lat="38.06433213533357" lon="15.385227469023462"><ele>652.0</ele><time>2026-04-28T13:31:04Z</time></trkpt><trkpt lat="38.06428482486888" lon="15.385313959846215"><ele>652.0</ele><time>2026-04-28T13:31:05Z</time></trkpt><trkpt lat="38.06425381801806" lon="15.385410407914595"><ele>652.0</ele><time>2026-04-28T13:31:06Z</time></trkpt><trkpt lat="38.06422505662991" lon="15.385569900839977"><ele>652.0</ele><time>2026-04-28T13:31:07Z</time></trkpt><trkpt lat="38.064195851087334" lon="15.385723242647849"><ele>649.2</ele><time>2026-04-28T13:31:08Z</time></trkpt><trkpt lat="38.06416682091246" lon="15.385880437165355"><ele>646.4000000000001</ele><time>2026-04-28T13:31:09Z</time></trkpt><trkpt lat="38.064126788733766" lon="15.38600271745732"><ele>643.5999999999999</ele><time>2026-04-28T13:31:10Z</time></trkpt><trkpt lat="38.06408204372549" lon="15.38611399625495"><ele>640.8</ele><time>2026-04-28T13:31:11Z</time></trkpt><trkpt lat="38.064053156057085" lon="15.38620141692054"><ele>638.0</ele><time>2026-04-28T13:31:12Z</time></trkpt><trkpt lat="38.06404144822142" lon="15.386293505217536"><ele>638.0</ele><time>2026-04-28T13:31:13Z</time></trkpt><trkpt lat="38.064016317474184" lon="15.386374464984163"><ele>638.0</ele><time>2026-04-28T13:31:14Z</time></trkpt><trkpt lat="38.06396349418034" lon="15.38644340762445"><ele>638.0</ele><time>2026-04-28T13:31:15Z</time></trkpt><trkpt lat="38.06389420497051" lon="15.386484257034487"><ele>638.0</ele><time>2026-04-28T13:31:16Z</time></trkpt><trkpt lat="38.06382884501764" lon="15.386480764663178"><ele>638.0</ele><time>2026-04-28T13:31:18Z</time></trkpt><trkpt lat="38.063701120017534" lon="15.386391191637953"><ele>638.0</ele><time>2026-04-28T13:31:20Z</time></trkpt><trkpt lat="38.06358040428337" lon="15.38634803244697"><ele>638.0</ele><time>2026-04-28T13:31:21Z</time></trkpt><trkpt lat="38.06347665680368" lon="15.38635539073992"><ele>638.0</ele><time>2026-04-28T13:31:22Z</time></trkpt><trkpt lat="38.063407095260835" lon="15.386414374369357"><ele>638.0</ele><time>2026-04-28T13:31:23Z</time></trkpt><trkpt lat="38.06334090125018" lon="15.386470285413274"><ele>638.0</ele><time>2026-04-28T13:31:24Z</time></trkpt><trkpt lat="38.06328577169531" lon="15.386562191227473"><ele>638.0</ele><time>2026-04-28T13:31:26Z</time></trkpt><trkpt lat="38.063201870057654" lon="15.386626325251934"><ele>637.75</ele><time>2026-04-28T13:31:27.999Z</time></trkpt><trkpt lat="38.06309505982632" lon="15.386684210786058"><ele>637.5</ele><time>2026-04-28T13:31:28.999Z</time></trkpt><trkpt lat="38.06300147021174" lon="15.386731754577099"><ele>637.25</ele><time>2026-04-28T13:31:29.999Z</time></trkpt><trkpt lat="38.06289784980691" lon="15.386760263088712"><ele>637.0</ele><time>2026-04-28T13:31:30.999Z</time></trkpt><trkpt lat="38.06276151564188" lon="15.386778924998671"><ele>637.0</ele><time>2026-04-28T13:31:31.999Z</time></trkpt><trkpt lat="38.06262088323512" lon="15.386795444858803"><ele>637.0</ele><time>2026-04-28T13:31:32.999Z</time></trkpt><trkpt lat="38.06250127414152" lon="15.386815353915473"><ele>637.0</ele><time>2026-04-28T13:31:33.999Z</time></trkpt><trkpt lat="38.06243574087492" lon="15.386837788535447"><ele>637.0</ele><time>2026-04-28T13:31:34.999Z</time></trkpt><trkpt lat="38.06236920420035" lon="15.386807742622619"><ele>637.0</ele><time>2026-04-28T13:31:35.999Z</time></trkpt><trkpt lat="38.06229857505876" lon="15.386779564313308"><ele>633.0</ele><time>2026-04-28T13:31:36.999Z</time></trkpt><trkpt lat="38.0622071366689" lon="15.38674117499523"><ele>629.0</ele><time>2026-04-28T13:31:37.999Z</time></trkpt><trkpt lat="38.06213304779541" lon="15.38673042296818"><ele>625.0</ele><time>2026-04-28T13:31:38.999Z</time></trkpt><trkpt lat="38.06205007933738" lon="15.38670289490347"><ele>621.0</ele><time>2026-04-28T13:31:39.999Z</time></trkpt><trkpt lat="38.06196748765816" lon="15.386643556294441"><ele>617.0</ele><time>2026-04-28T13:31:40.999Z</time></trkpt><trkpt lat="38.06186458688744" lon="15.386552421316507"><ele>617.0</ele><time>2026-04-28T13:31:41.999Z</time></trkpt><trkpt lat="38.06175957125507" lon="15.386469177741327"><ele>617.0</ele><time>2026-04-28T13:31:42.999Z</time></trkpt><trkpt lat="38.06164783693298" lon="15.386405763402866"><ele>617.0</ele><time>2026-04-28T13:31:44Z</time></trkpt><trkpt lat="38.06154956822107" lon="15.386397870304878"><ele>617.0</ele><time>2026-04-28T13:31:45Z</time></trkpt><trkpt lat="38.06147134522961" lon="15.386382040838237"><ele>617.0</ele><time>2026-04-28T13:31:46Z</time></trkpt><trkpt lat="38.06140273028941" lon="15.386369041900055"><ele>612.8000000000001</ele><time>2026-04-28T13:31:47Z</time></trkpt><trkpt lat="38.06128160150436" lon="15.386316505665395"><ele>608.6</ele><time>2026-04-28T13:31:49Z</time></trkpt><trkpt lat="38.06123031297557" lon="15.38623396697939"><ele>604.4000000000001</ele><time>2026-04-28T13:31:50Z</time></trkpt><trkpt lat="38.061197127788745" lon="15.386128585799295"><ele>600.2</ele><time>2026-04-28T13:31:51Z</time></trkpt><trkpt lat="38.06117510147416" lon="15.386005962895206"><ele>596.0</ele><time>2026-04-28T13:31:52Z</time></trkpt><trkpt lat="38.06117491578114" lon="15.385853864677731"><ele>596.0</ele><time>2026-04-28T13:31:53Z</time></trkpt><trkpt lat="38.061161686861155" lon="15.385695427193168"><ele>596.0</ele><time>2026-04-28T13:31:54Z</time></trkpt><trkpt lat="38.06115581431281" lon="15.38556096293161"><ele>596.0</ele><time>2026-04-28T13:31:55Z</time></trkpt><trkpt lat="38.06115329258302" lon="15.385415359055429"><ele>596.0</ele><time>2026-04-28T13:31:56Z</time></trkpt><trkpt lat="38.06113206901038" lon="15.385283846264175"><ele>601.75</ele><time>2026-04-28T13:31:57Z</time></trkpt><trkpt lat="38.061058810740484" lon="15.385160772758217"><ele>607.5</ele><time>2026-04-28T13:31:58Z</time></trkpt><trkpt lat="38.06097146835289" lon="15.385046717103146"><ele>613.25</ele><time>2026-04-28T13:31:59Z</time></trkpt><trkpt lat="38.06092579737973" lon="15.384927607473541"><ele>619.0</ele><time>2026-04-28T13:32:00Z</time></trkpt><trkpt lat="38.06086351091382" lon="15.38481180017876"><ele>620.0</ele><time>2026-04-28T13:32:01Z</time></trkpt><trkpt lat="38.06076840094534" lon="15.384748308280233"><ele>621.0</ele><time>2026-04-28T13:32:02Z</time></trkpt><trkpt lat="38.06066589038013" lon="15.384691813543443"><ele>622.0</ele><time>2026-04-28T13:32:03Z</time></trkpt><trkpt lat="38.0605597443742" lon="15.384633594247486"><ele>623.0</ele><time>2026-04-28T13:32:04Z</time></trkpt><trkpt lat="38.06046381425323" lon="15.384589468792763"><ele>624.0</ele><time>2026-04-28T13:32:05Z</time></trkpt><trkpt lat="38.06037693600698" lon="15.384564050103855"><ele>624.0</ele><time>2026-04-28T13:32:06Z</time></trkpt><trkpt lat="38.06026577986668" lon="15.384569524942432"><ele>624.0</ele><time>2026-04-28T13:32:07Z</time></trkpt><trkpt lat="38.06014860606627" lon="15.384598266676367"><ele>624.0</ele><time>2026-04-28T13:32:08Z</time></trkpt><trkpt lat="38.06001910450693" lon="15.384647531371455"><ele>624.0</ele><time>2026-04-28T13:32:09Z</time></trkpt><trkpt lat="38.059908640352425" lon="15.384660413235853"><ele>615.4</ele><time>2026-04-28T13:32:10Z</time></trkpt><trkpt lat="38.0598121076066" lon="15.384679595239918"><ele>606.8</ele><time>2026-04-28T13:32:11Z</time></trkpt><trkpt lat="38.05973639345258" lon="15.384724872518971"><ele>598.2</ele><time>2026-04-28T13:32:12Z</time></trkpt><trkpt lat="38.05968423626463" lon="15.384773732269027"><ele>589.6</ele><time>2026-04-28T13:32:13Z</time></trkpt><trkpt lat="38.059591484745006" lon="15.384802521040436"><ele>581.0</ele><time>2026-04-28T13:32:15Z</time></trkpt><trkpt lat="38.059518607336535" lon="15.384662068103014"><ele>581.0</ele><time>2026-04-28T13:32:17Z</time></trkpt><trkpt lat="38.059493620585" lon="15.384524688265568"><ele>581.0</ele><time>2026-04-28T13:32:18Z</time></trkpt><trkpt lat="38.05948294339995" lon="15.384348628904558"><ele>581.0</ele><time>2026-04-28T13:32:19Z</time></trkpt><trkpt lat="38.05946601421657" lon="15.38419758816754"><ele>581.0</ele><time>2026-04-28T13:32:20Z</time></trkpt><trkpt lat="38.0594494285107" lon="15.3840872264797"><ele>581.0</ele><time>2026-04-28T13:32:21Z</time></trkpt><trkpt lat="38.059437827825825" lon="15.383952776607043"><ele>581.0</ele><time>2026-04-28T13:32:23Z</time></trkpt><trkpt lat="38.0593729169237" lon="15.383926914576529"><ele>581.0</ele><time>2026-04-28T13:32:26Z</time></trkpt><trkpt lat="38.05932276695358" lon="15.384076305447051"><ele>581.0</ele><time>2026-04-28T13:32:28Z</time></trkpt><trkpt lat="38.059312730552605" lon="15.384199591878325"><ele>581.0</ele><time>2026-04-28T13:32:29Z</time></trkpt><trkpt lat="38.05929623651434" lon="15.384344804673965"><ele>581.0</ele><time>2026-04-28T13:32:30Z</time></trkpt><trkpt lat="38.05927379778804" lon="15.384477379054006"><ele>581.0</ele><time>2026-04-28T13:32:31Z</time></trkpt><trkpt lat="38.059250768222455" lon="15.384603654842964"><ele>581.0</ele><time>2026-04-28T13:32:32Z</time></trkpt><trkpt lat="38.05924464431387" lon="15.384730207400194"><ele>581.0</ele><time>2026-04-28T13:32:33Z</time></trkpt><trkpt lat="38.05925401286329" lon="15.384843769196609"><ele>581.0</ele><time>2026-04-28T13:32:34Z</time></trkpt><trkpt lat="38.05927598652607" lon="15.384962851554327"><ele>579.4</ele><time>2026-04-28T13:32:35Z</time></trkpt><trkpt lat="38.05931099898922" lon="15.38505907474171"><ele>577.8</ele><time>2026-04-28T13:32:36Z</time></trkpt><trkpt lat="38.059354298321146" lon="15.385118290405824"><ele>576.1999999999999</ele><time>2026-04-28T13:32:37Z</time></trkpt><trkpt lat="38.05929457382268" lon="15.385180372434931"><ele>574.6</ele><time>2026-04-28T13:32:40Z</time></trkpt><trkpt lat="38.05916902978266" lon="15.385029416348768"><ele>573.0</ele><time>2026-04-28T13:32:42Z</time></trkpt><trkpt lat="38.0590718709157" lon="15.384920397245187"><ele>571.75</ele><time>2026-04-28T13:32:43Z</time></trkpt><trkpt lat="38.05896058149842" lon="15.38483482468629"><ele>570.5</ele><time>2026-04-28T13:32:44Z</time></trkpt><trkpt lat="38.05885677816037" lon="15.384735540814736"><ele>569.25</ele><time>2026-04-28T13:32:45Z</time></trkpt><trkpt lat="38.058780053839705" lon="15.384625513400286"><ele>568.0</ele><time>2026-04-28T13:32:46Z</time></trkpt><trkpt lat="38.058718138615305" lon="15.384523539173696"><ele>566.6</ele><time>2026-04-28T13:32:47Z</time></trkpt><trkpt lat="38.05868594391234" lon="15.3844523982931"><ele>565.1999999999999</ele><time>2026-04-28T13:32:48Z</time></trkpt><trkpt lat="38.058685223723884" lon="15.38437242320673"><ele>563.8</ele><time>2026-04-28T13:32:49Z</time></trkpt><trkpt lat="38.05871012540935" lon="15.38425977550908"><ele>562.4</ele><time>2026-04-28T13:32:50Z</time></trkpt><trkpt lat="38.05874615482538" lon="15.384095852162588"><ele>561.0</ele><time>2026-04-28T13:32:51Z</time></trkpt><trkpt lat="38.058801870561354" lon="15.383932672321743"><ele>560.5</ele><time>2026-04-28T13:32:52Z</time></trkpt><trkpt lat="38.05884971978598" lon="15.38378609310835"><ele>560.0</ele><time>2026-04-28T13:32:53Z</time></trkpt><trkpt lat="38.058868166908084" lon="15.38364012530872"><ele>559.5</ele><time>2026-04-28T13:32:54Z</time></trkpt><trkpt lat="38.058873429800215" lon="15.38348912068467"><ele>559.0</ele><time>2026-04-28T13:32:55Z</time></trkpt><trkpt lat="38.05886491432246" lon="15.383324253107997"><ele>559.0</ele><time>2026-04-28T13:32:56Z</time></trkpt><trkpt lat="38.058830300841485" lon="15.38315035896488"><ele>559.0</ele><time>2026-04-28T13:32:57Z</time></trkpt><trkpt lat="38.05878360636157" lon="15.382992658315079"><ele>559.0</ele><time>2026-04-28T13:32:58Z</time></trkpt><trkpt lat="38.05873286292585" lon="15.382879411736436"><ele>559.0</ele><time>2026-04-28T13:32:59Z</time></trkpt><trkpt lat="38.05867163743908" lon="15.382798689928737"><ele>558.25</ele><time>2026-04-28T13:33:00Z</time></trkpt><trkpt lat="38.058613322224055" lon="15.382711910880182"><ele>557.5</ele><time>2026-04-28T13:33:01Z</time></trkpt><trkpt lat="38.05857746177194" lon="15.382572867583486"><ele>556.75</ele><time>2026-04-28T13:33:02Z</time></trkpt><trkpt lat="38.058553974489044" lon="15.382393562631586"><ele>556.0</ele><time>2026-04-28T13:33:03Z</time></trkpt><trkpt lat="38.05851109045196" lon="15.382229813705392"><ele>555.0</ele><time>2026-04-28T13:33:04Z</time></trkpt><trkpt lat="38.0584732984511" lon="15.382101622172604"><ele>554.0</ele><time>2026-04-28T13:33:05Z</time></trkpt><trkpt lat="38.058435884128826" lon="15.382017944127469"><ele>553.0</ele><time>2026-04-28T13:33:06Z</time></trkpt><trkpt lat="38.05833411627825" lon="15.381938366897101"><ele>552.0</ele><time>2026-04-28T13:33:08Z</time></trkpt><trkpt lat="38.0582687982913" lon="15.38190873107715"><ele>551.0</ele><time>2026-04-28T13:33:09Z</time></trkpt><trkpt lat="38.058205680982475" lon="15.381899664261192"><ele>550.0</ele><time>2026-04-28T13:33:10Z</time></trkpt><trkpt lat="38.05813604543425" lon="15.381909921039437"><ele>556.6</ele><time>2026-04-28T13:33:11Z</time></trkpt><trkpt lat="38.058059960073194" lon="15.381917223055392"><ele>563.2</ele><time>2026-04-28T13:33:13Z</time></trkpt><trkpt lat="38.05807376102401" lon="15.38176093740617"><ele>569.8</ele><time>2026-04-28T13:33:15Z</time></trkpt><trkpt lat="38.058041157778526" lon="15.381615007429327"><ele>576.4</ele><time>2026-04-28T13:33:16Z</time></trkpt><trkpt lat="38.05800307050404" lon="15.38147695816197"><ele>583.0</ele><time>2026-04-28T13:33:17Z</time></trkpt><trkpt lat="38.057968788977725" lon="15.381361292876639"><ele>581.0</ele><time>2026-04-28T13:33:18Z</time></trkpt><trkpt lat="38.05811398843281" lon="15.381268178618107"><ele>579.0</ele><time>2026-04-28T13:33:19Z</time></trkpt><trkpt lat="38.058174977710486" lon="15.381214303874003"><ele>577.0</ele><time>2026-04-28T13:33:21Z</time></trkpt><trkpt lat="38.05815328844618" lon="15.381110153669598"><ele>575.0</ele><time>2026-04-28T13:33:24.999Z</time></trkpt><trkpt lat="38.058084772872455" lon="15.38098644499063"><ele>573.0</ele><time>2026-04-28T13:33:26.999Z</time></trkpt><trkpt lat="38.058005172059204" lon="15.380892029209702"><ele>573.0</ele><time>2026-04-28T13:33:27.999Z</time></trkpt><trkpt lat="38.057927046147356" lon="15.380761592843978"><ele>573.0</ele><time>2026-04-28T13:33:28.999Z</time></trkpt><trkpt lat="38.05786087649284" lon="15.380650820139842"><ele>573.0</ele><time>2026-04-28T13:33:29.999Z</time></trkpt><trkpt lat="38.05780005454172" lon="15.380533309327387"><ele>573.0</ele><time>2026-04-28T13:33:30.999Z</time></trkpt><trkpt lat="38.05774339688389" lon="15.380417150112944"><ele>569.0</ele><time>2026-04-28T13:33:31.999Z</time></trkpt><trkpt lat="38.0576846247937" lon="15.38029977206854"><ele>565.0</ele><time>2026-04-28T13:33:32.999Z</time></trkpt><trkpt lat="38.0576100587202" lon="15.380201275887309"><ele>561.0</ele><time>2026-04-28T13:33:33.999Z</time></trkpt><trkpt lat="38.057510999603835" lon="15.38010134266914"><ele>557.0</ele><time>2026-04-28T13:33:34.999Z</time></trkpt><trkpt lat="38.05741556829548" lon="15.380001791593982"><ele>557.0</ele><time>2026-04-28T13:33:35.999Z</time></trkpt><trkpt lat="38.057326950296904" lon="15.379883205709005"><ele>557.0</ele><time>2026-04-28T13:33:36.999Z</time></trkpt><trkpt lat="38.05724439088355" lon="15.37978127014198"><ele>557.0</ele><time>2026-04-28T13:33:37.999Z</time></trkpt><trkpt lat="38.05713537551191" lon="15.379708876822809"><ele>557.0</ele><time>2026-04-28T13:33:38.999Z</time></trkpt><trkpt lat="38.057029454990044" lon="15.37966133103513"><ele>553.6</ele><time>2026-04-28T13:33:39.999Z</time></trkpt><trkpt lat="38.05694289014846" lon="15.37961506248622"><ele>550.2</ele><time>2026-04-28T13:33:40.999Z</time></trkpt><trkpt lat="38.05687333308926" lon="15.379561216643513"><ele>546.8</ele><time>2026-04-28T13:33:41.999Z</time></trkpt><trkpt lat="38.056807440594056" lon="15.379514412563664"><ele>543.4</ele><time>2026-04-28T13:33:42.999Z</time></trkpt><trkpt lat="38.056707202489235" lon="15.379481556426063"><ele>540.0</ele><time>2026-04-28T13:33:43.999Z</time></trkpt><trkpt lat="38.05658059132159" lon="15.379469205689576"><ele>540.0</ele><time>2026-04-28T13:33:44.999Z</time></trkpt><trkpt lat="38.056461871353015" lon="15.37943544855786"><ele>540.0</ele><time>2026-04-28T13:33:45.999Z</time></trkpt><trkpt lat="38.056353400075906" lon="15.379372982188196"><ele>540.0</ele><time>2026-04-28T13:33:46.999Z</time></trkpt><trkpt lat="38.05624788526085" lon="15.37934283178914"><ele>540.0</ele><time>2026-04-28T13:33:47.999Z</time></trkpt><trkpt lat="38.056154371841124" lon="15.379352323513018"><ele>540.0</ele><time>2026-04-28T13:33:49Z</time></trkpt><trkpt lat="38.056072961194765" lon="15.379336868423227"><ele>540.0</ele><time>2026-04-28T13:33:50Z</time></trkpt><trkpt lat="38.0560353574958" lon="15.379271747772359"><ele>540.0</ele><time>2026-04-28T13:33:55Z</time></trkpt><trkpt lat="38.0560516605965" lon="15.379152351275083"><ele>540.0</ele><time>2026-04-28T13:33:57Z</time></trkpt><trkpt lat="38.05610361812312" lon="15.379042485082708"><ele>540.0</ele><time>2026-04-28T13:33:59Z</time></trkpt><trkpt lat="38.05619158868317" lon="15.379003106076823"><ele>540.0</ele><time>2026-04-28T13:34:01Z</time></trkpt><trkpt lat="38.056240666006396" lon="15.378900813455617"><ele>540.0</ele><time>2026-04-28T13:34:03Z</time></trkpt><trkpt lat="38.05624229754167" lon="15.378810228306497"><ele>539.6</ele><time>2026-04-28T13:34:05Z</time></trkpt><trkpt lat="38.05620725434953" lon="15.378706263936621"><ele>539.2</ele><time>2026-04-28T13:34:07Z</time></trkpt><trkpt lat="38.05615729748149" lon="15.378617713381805"><ele>538.8</ele><time>2026-04-28T13:34:08Z</time></trkpt><trkpt lat="38.056101866021145" lon="15.378534329272364"><ele>538.4</ele><time>2026-04-28T13:34:09Z</time></trkpt><trkpt lat="38.05603504392139" lon="15.378441112863568"><ele>538.0</ele><time>2026-04-28T13:34:10Z</time></trkpt><trkpt lat="38.05595666947152" lon="15.378373048548685"><ele>538.0</ele><time>2026-04-28T13:34:11Z</time></trkpt><trkpt lat="38.055920749633486" lon="15.378289677305109"><ele>538.0</ele><time>2026-04-28T13:34:12Z</time></trkpt><trkpt lat="38.05588878271092" lon="15.378159481424015"><ele>538.0</ele><time>2026-04-28T13:34:13Z</time></trkpt><trkpt lat="38.055870871344766" lon="15.378033776091499"><ele>538.0</ele><time>2026-04-28T13:34:14Z</time></trkpt><trkpt lat="38.05587930053223" lon="15.377913000597982"><ele>538.0</ele><time>2026-04-28T13:34:15Z</time></trkpt><trkpt lat="38.055886493933535" lon="15.377827690261919"><ele>538.0</ele><time>2026-04-28T13:34:16Z</time></trkpt><trkpt lat="38.05588779622946" lon="15.377710595419172"><ele>536.75</ele><time>2026-04-28T13:34:17Z</time></trkpt><trkpt lat="38.05588010003123" lon="15.377567682204882"><ele>535.5</ele><time>2026-04-28T13:34:18Z</time></trkpt><trkpt lat="38.05590246470038" lon="15.377408970873542"><ele>534.25</ele><time>2026-04-28T13:34:19Z</time></trkpt><trkpt lat="38.055958811133124" lon="15.377224695612439"><ele>533.0</ele><time>2026-04-28T13:34:20Z</time></trkpt><trkpt lat="38.056000543865245" lon="15.377053309012272"><ele>532.0</ele><time>2026-04-28T13:34:21Z</time></trkpt><trkpt lat="38.056020535662824" lon="15.376893697658968"><ele>531.0</ele><time>2026-04-28T13:34:22Z</time></trkpt><trkpt lat="38.05602925225441" lon="15.376751204889857"><ele>530.0</ele><time>2026-04-28T13:34:23Z</time></trkpt><trkpt lat="38.05601763467895" lon="15.376631346907924"><ele>529.0</ele><time>2026-04-28T13:34:24Z</time></trkpt><trkpt lat="38.05599035606525" lon="15.376513186941136"><ele>528.0</ele><time>2026-04-28T13:34:25Z</time></trkpt><trkpt lat="38.05595955513445" lon="15.376394335741828"><ele>528.1999999999999</ele><time>2026-04-28T13:34:26Z</time></trkpt><trkpt lat="38.05593017817751" lon="15.376282899075912"><ele>528.4</ele><time>2026-04-28T13:34:27Z</time></trkpt><trkpt lat="38.05589214085952" lon="15.37618898411862"><ele>528.5999999999999</ele><time>2026-04-28T13:34:28Z</time></trkpt><trkpt lat="38.055831537861344" lon="15.37612605204892"><ele>528.8</ele><time>2026-04-28T13:34:29Z</time></trkpt><trkpt lat="38.055737870617705" lon="15.376058641694119"><ele>529.0</ele><time>2026-04-28T13:34:30Z</time></trkpt><trkpt lat="38.055644473592594" lon="15.375982362940508"><ele>529.0</ele><time>2026-04-28T13:34:31Z</time></trkpt><trkpt lat="38.05555753948018" lon="15.375926290445971"><ele>529.0</ele><time>2026-04-28T13:34:32Z</time></trkpt><trkpt lat="38.05548561356264" lon="15.375872610391642"><ele>529.0</ele><time>2026-04-28T13:34:33Z</time></trkpt><trkpt lat="38.055428605080046" lon="15.375836971909624"><ele>529.0</ele><time>2026-04-28T13:34:34Z</time></trkpt><trkpt lat="38.055394009607824" lon="15.375752510202723"><ele>529.0</ele><time>2026-04-28T13:34:37Z</time></trkpt><trkpt lat="38.0554617271559" lon="15.375614960052605"><ele>529.0</ele><time>2026-04-28T13:34:39Z</time></trkpt><trkpt lat="38.05551133818853" lon="15.375514099021116"><ele>534.6</ele><time>2026-04-28T13:34:40Z</time></trkpt><trkpt lat="38.05555120774918" lon="15.375405744581657"><ele>540.2</ele><time>2026-04-28T13:34:41Z</time></trkpt><trkpt lat="38.055565437468786" lon="15.375299477903432"><ele>545.8000000000001</ele><time>2026-04-28T13:34:42Z</time></trkpt><trkpt lat="38.055546384196575" lon="15.3751954773042"><ele>551.4</ele><time>2026-04-28T13:34:44Z</time></trkpt><trkpt lat="38.055462817327225" lon="15.375184961241475"><ele>557.0</ele><time>2026-04-28T13:34:46Z</time></trkpt><trkpt lat="38.05538729472168" lon="15.375273791355458"><ele>557.0</ele><time>2026-04-28T13:34:48Z</time></trkpt><trkpt lat="38.05531672865392" lon="15.3753193834672"><ele>557.0</ele><time>2026-04-28T13:34:49Z</time></trkpt><trkpt lat="38.05524378918385" lon="15.375356799679897"><ele>557.0</ele><time>2026-04-28T13:34:50Z</time></trkpt><trkpt lat="38.055224955785356" lon="15.375277493486072"><ele>557.0</ele><time>2026-04-28T13:35:04Z</time></trkpt><trkpt lat="38.055319497404064" lon="15.375227297942688"><ele>557.0</ele><time>2026-04-28T13:35:06Z</time></trkpt><trkpt lat="38.055376454071336" lon="15.375192326655956"><ele>557.0</ele><time>2026-04-28T13:35:07Z</time></trkpt><trkpt lat="38.05541564797657" lon="15.375052918900897"><ele>557.0</ele><time>2026-04-28T13:35:09Z</time></trkpt><trkpt lat="38.05542544128128" lon="15.374960006442542"><ele>557.0</ele><time>2026-04-28T13:35:10Z</time></trkpt><trkpt lat="38.05543674751515" lon="15.374864980300408"><ele>557.0</ele><time>2026-04-28T13:35:11Z</time></trkpt><trkpt lat="38.05552378392752" lon="15.374761617885808"><ele>557.0</ele><time>2026-04-28T13:35:13Z</time></trkpt><trkpt lat="38.05557358706712" lon="15.374708448835584"><ele>557.0</ele><time>2026-04-28T13:35:16Z</time></trkpt><trkpt lat="38.05546742474625" lon="15.37476700779067"><ele>557.0</ele><time>2026-04-28T13:35:36.999Z</time></trkpt><trkpt lat="38.055396731574824" lon="15.37484448639767"><ele>557.0</ele><time>2026-04-28T13:35:37.999Z</time></trkpt><trkpt lat="38.055331833175316" lon="15.374940514012042"><ele>557.0</ele><time>2026-04-28T13:35:38.999Z</time></trkpt><trkpt lat="38.05529623870915" lon="15.375036837144723"><ele>557.0</ele><time>2026-04-28T13:35:39.999Z</time></trkpt><trkpt lat="38.05524338005434" lon="15.375097654125426"><ele>557.0</ele><time>2026-04-28T13:35:40.999Z</time></trkpt><trkpt lat="38.05515285785794" lon="15.375130282550204"><ele>557.0</ele><time>2026-04-28T13:35:41.999Z</time></trkpt><trkpt lat="38.055077002159926" lon="15.375169730241122"><ele>557.0</ele><time>2026-04-28T13:35:42.999Z</time></trkpt><trkpt lat="38.05502172758513" lon="15.375212891767667"><ele>556.0</ele><time>2026-04-28T13:35:43.999Z</time></trkpt><trkpt lat="38.05493085332335" lon="15.3751770540442"><ele>555.0</ele><time>2026-04-28T13:35:46.999Z</time></trkpt><trkpt lat="38.05481682238982" lon="15.375096029729606"><ele>554.0</ele><time>2026-04-28T13:35:48.999Z</time></trkpt><trkpt lat="38.05474690385735" lon="15.37507578384359"><ele>553.0</ele><time>2026-04-28T13:35:49.999Z</time></trkpt><trkpt lat="38.05460445670536" lon="15.37509097544047"><ele>552.0</ele><time>2026-04-28T13:35:51.999Z</time></trkpt><trkpt lat="38.05452277125251" lon="15.375103391471697"><ele>552.0</ele><time>2026-04-28T13:35:52.999Z</time></trkpt><trkpt lat="38.0544414405525" lon="15.375101535762948"><ele>552.0</ele><time>2026-04-28T13:35:53.999Z</time></trkpt><trkpt lat="38.0543624566659" lon="15.375106003496626"><ele>552.0</ele><time>2026-04-28T13:35:55Z</time></trkpt><trkpt lat="38.05428321364451" lon="15.375097315873651"><ele>552.0</ele><time>2026-04-28T13:35:56Z</time></trkpt><trkpt lat="38.054183510107286" lon="15.37507898159981"><ele>552.0</ele><time>2026-04-28T13:35:57Z</time></trkpt><trkpt lat="38.05409655148663" lon="15.375056585394479"><ele>552.0</ele><time>2026-04-28T13:35:58Z</time></trkpt><trkpt lat="38.0540266121997" lon="15.37503207035048"><ele>552.2</ele><time>2026-04-28T13:35:59Z</time></trkpt><trkpt lat="38.05396531698731" lon="15.374968180636055"><ele>552.4000000000001</ele><time>2026-04-28T13:36:01Z</time></trkpt><trkpt lat="38.05394755206855" lon="15.374814410135697"><ele>552.5999999999999</ele><time>2026-04-28T13:36:03Z</time></trkpt><trkpt lat="38.053956864861235" lon="15.37469705545565"><ele>552.8</ele><time>2026-04-28T13:36:04Z</time></trkpt><trkpt lat="38.05396432894051" lon="15.374600363288563"><ele>553.0</ele><time>2026-04-28T13:36:05Z</time></trkpt><trkpt lat="38.053957791340906" lon="15.37450070655444"><ele>553.0</ele><time>2026-04-28T13:36:06Z</time></trkpt><trkpt lat="38.0539420589825" lon="15.374406499430199"><ele>553.0</ele><time>2026-04-28T13:36:07Z</time></trkpt><trkpt lat="38.0538875787493" lon="15.374273237816983"><ele>553.0</ele><time>2026-04-28T13:36:09Z</time></trkpt><trkpt lat="38.05381583935595" lon="15.374234774513832"><ele>553.0</ele><time>2026-04-28T13:36:11Z</time></trkpt><trkpt lat="38.053677696803916" lon="15.374269481251241"><ele>553.0</ele><time>2026-04-28T13:36:13Z</time></trkpt><trkpt lat="38.05358452320588" lon="15.3742784265665"><ele>553.0</ele><time>2026-04-28T13:36:14Z</time></trkpt><trkpt lat="38.053520021358516" lon="15.374279678794101"><ele>553.0</ele><time>2026-04-28T13:36:15Z</time></trkpt><trkpt lat="38.05343409802008" lon="15.374235528378003"><ele>553.0</ele><time>2026-04-28T13:36:16Z</time></trkpt><trkpt lat="38.053338285219006" lon="15.374203215074342"><ele>553.0</ele><time>2026-04-28T13:36:17Z</time></trkpt><trkpt lat="38.05325961520382" lon="15.374174552191494"><ele>553.0</ele><time>2026-04-28T13:36:18Z</time></trkpt><trkpt lat="38.05316904775205" lon="15.374095160582376"><ele>553.0</ele><time>2026-04-28T13:36:20Z</time></trkpt><trkpt lat="38.05313884435763" lon="15.373997063458704"><ele>550.1999999999999</ele><time>2026-04-28T13:36:21Z</time></trkpt><trkpt lat="38.05309704404143" lon="15.37387136066824"><ele>547.4</ele><time>2026-04-28T13:36:22Z</time></trkpt><trkpt lat="38.053049872523054" lon="15.373735166377658"><ele>544.5999999999999</ele><time>2026-04-28T13:36:23Z</time></trkpt><trkpt lat="38.053001994169925" lon="15.373630973701285"><ele>541.8</ele><time>2026-04-28T13:36:24Z</time></trkpt><trkpt lat="38.052946710621505" lon="15.3735534126122"><ele>539.0</ele><time>2026-04-28T13:36:25Z</time></trkpt><trkpt lat="38.05282305557099" lon="15.373509978681628"><ele>539.0</ele><time>2026-04-28T13:36:27Z</time></trkpt><trkpt lat="38.052741549756675" lon="15.37349613172936"><ele>539.0</ele><time>2026-04-28T13:36:28Z</time></trkpt><trkpt lat="38.05267667321472" lon="15.373458367555306"><ele>539.0</ele><time>2026-04-28T13:36:29Z</time></trkpt><trkpt lat="38.05258720956178" lon="15.373362882423148"><ele>539.0</ele><time>2026-04-28T13:36:31Z</time></trkpt><trkpt lat="38.05255665052011" lon="15.373280308577025"><ele>539.0</ele><time>2026-04-28T13:36:32Z</time></trkpt><trkpt lat="38.052492289629406" lon="15.373165239696565"><ele>539.0</ele><time>2026-04-28T13:36:34Z</time></trkpt><trkpt lat="38.05247147446215" lon="15.373074498619129"><ele>539.0</ele><time>2026-04-28T13:36:36Z</time></trkpt><trkpt lat="38.052517786450835" lon="15.372954113926314"><ele>539.0</ele><time>2026-04-28T13:36:39Z</time></trkpt><trkpt lat="38.052514178926266" lon="15.372772579765364"><ele>539.0</ele><time>2026-04-28T13:36:41Z</time></trkpt><trkpt lat="38.05250462579898" lon="15.372673553690081"><ele>539.0</ele><time>2026-04-28T13:36:42Z</time></trkpt><trkpt lat="38.05250081982807" lon="15.372560536904293"><ele>537.3333333333333</ele><time>2026-04-28T13:36:43Z</time></trkpt><trkpt lat="38.05247537992242" lon="15.372454482301414"><ele>535.6666666666666</ele><time>2026-04-28T13:36:44Z</time></trkpt><trkpt lat="38.05244843206436" lon="15.372374949355946"><ele>534.0</ele><time>2026-04-28T13:36:45Z</time></trkpt><trkpt lat="38.05239280669425" lon="15.372301545185204"><ele>532.3333333333334</ele><time>2026-04-28T13:36:47Z</time></trkpt><trkpt lat="38.05229009257236" lon="15.37234834621701"><ele>530.6666666666667</ele><time>2026-04-28T13:36:49Z</time></trkpt><trkpt lat="38.05226685581175" lon="15.372425644022297"><ele>529.0</ele><time>2026-04-28T13:36:50Z</time></trkpt><trkpt lat="38.05224995847173" lon="15.372536947933035"><ele>529.0</ele><time>2026-04-28T13:36:51Z</time></trkpt><trkpt lat="38.052196982387876" lon="15.372619669788367"><ele>529.0</ele><time>2026-04-28T13:36:53Z</time></trkpt><trkpt lat="38.05212730267716" lon="15.37264732513365"><ele>529.0</ele><time>2026-04-28T13:36:54Z</time></trkpt><trkpt lat="38.052004757982125" lon="15.372574541360922"><ele>529.0</ele><time>2026-04-28T13:36:56Z</time></trkpt><trkpt lat="38.051918162616744" lon="15.372463016210949"><ele>529.0</ele><time>2026-04-28T13:36:57Z</time></trkpt><trkpt lat="38.05179972858643" lon="15.372365364915971"><ele>529.0</ele><time>2026-04-28T13:36:58Z</time></trkpt><trkpt lat="38.05167388039113" lon="15.372309965596797"><ele>529.0</ele><time>2026-04-28T13:36:59Z</time></trkpt><trkpt lat="38.05156115239465" lon="15.372269480414579"><ele>529.0</ele><time>2026-04-28T13:37:00Z</time></trkpt><trkpt lat="38.05148008945117" lon="15.37224231443944"><ele>529.0</ele><time>2026-04-28T13:37:01Z</time></trkpt><trkpt lat="38.05135655849233" lon="15.372265652701248"><ele>528.0</ele><time>2026-04-28T13:37:03Z</time></trkpt><trkpt lat="38.051272633025654" lon="15.37231839045759"><ele>527.0</ele><time>2026-04-28T13:37:04Z</time></trkpt><trkpt lat="38.05116245159751" lon="15.37235163023282"><ele>526.0</ele><time>2026-04-28T13:37:06Z</time></trkpt><trkpt lat="38.05109370252152" lon="15.37235304681362"><ele>525.0</ele><time>2026-04-28T13:37:08Z</time></trkpt><trkpt lat="38.05102348711877" lon="15.372268998247797"><ele>524.0</ele><time>2026-04-28T13:37:10Z</time></trkpt><trkpt lat="38.05097669896676" lon="15.37220784038115"><ele>523.0</ele><time>2026-04-28T13:37:11Z</time></trkpt><trkpt lat="38.05093080713397" lon="15.372139993133217"><ele>523.0</ele><time>2026-04-28T13:37:12Z</time></trkpt><trkpt lat="38.05088968001306" lon="15.371995754321517"><ele>523.0</ele><time>2026-04-28T13:37:14Z</time></trkpt><trkpt lat="38.050931979195354" lon="15.371847435491373"><ele>523.0</ele><time>2026-04-28T13:37:16Z</time></trkpt><trkpt lat="38.05096358271024" lon="15.371754689167162"><ele>523.0</ele><time>2026-04-28T13:37:17Z</time></trkpt><trkpt lat="38.050928278108266" lon="15.371592393650072"><ele>523.0</ele><time>2026-04-28T13:37:19Z</time></trkpt><trkpt lat="38.0508829609039" lon="15.371497942336305"><ele>523.0</ele><time>2026-04-28T13:37:20Z</time></trkpt><trkpt lat="38.050848416887014" lon="15.371413962960995"><ele>523.0</ele><time>2026-04-28T13:37:21Z</time></trkpt><trkpt lat="38.050841694220665" lon="15.371326048359554"><ele>523.0</ele><time>2026-04-28T13:37:22Z</time></trkpt><trkpt lat="38.050757772163834" lon="15.371214021518973"><ele>523.0</ele><time>2026-04-28T13:37:24Z</time></trkpt><trkpt lat="38.050791208936445" lon="15.371126171631488"><ele>523.0</ele><time>2026-04-28T13:37:25.999Z</time></trkpt><trkpt lat="38.05081930593756" lon="15.371036482173"><ele>526.0</ele><time>2026-04-28T13:37:27.999Z</time></trkpt><trkpt lat="38.050776302326945" lon="15.37092093363378"><ele>529.0</ele><time>2026-04-28T13:37:29.999Z</time></trkpt><trkpt lat="38.05067075269023" lon="15.37088759648016"><ele>532.0</ele><time>2026-04-28T13:37:31.999Z</time></trkpt><trkpt lat="38.050593410886044" lon="15.370906919062545"><ele>535.0</ele><time>2026-04-28T13:37:32.999Z</time></trkpt><trkpt lat="38.050523665871076" lon="15.370893172165951"><ele>538.0</ele><time>2026-04-28T13:37:33.999Z</time></trkpt><trkpt lat="38.050458665167376" lon="15.37083967156889"><ele>541.0</ele><time>2026-04-28T13:37:34.999Z</time></trkpt><trkpt lat="38.050387982232905" lon="15.370811979126799"><ele>541.0</ele><time>2026-04-28T13:37:35.999Z</time></trkpt><trkpt lat="38.050303764327715" lon="15.370844126116133"><ele>541.0</ele><time>2026-04-28T13:37:36.999Z</time></trkpt><trkpt lat="38.05020564928798" lon="15.370889191945716"><ele>541.0</ele><time>2026-04-28T13:37:37.999Z</time></trkpt><trkpt lat="38.05011821362768" lon="15.37092362885998"><ele>541.0</ele><time>2026-04-28T13:37:38.999Z</time></trkpt><trkpt lat="38.05005458165176" lon="15.370944947188248"><ele>541.0</ele><time>2026-04-28T13:37:39.999Z</time></trkpt><trkpt lat="38.04993395668561" lon="15.370879969815775"><ele>544.5</ele><time>2026-04-28T13:37:41.999Z</time></trkpt><trkpt lat="38.049866658823866" lon="15.370835284209477"><ele>548.0</ele><time>2026-04-28T13:37:42.999Z</time></trkpt><trkpt lat="38.04978653937411" lon="15.370884200063449"><ele>551.5</ele><time>2026-04-28T13:37:44.999Z</time></trkpt><trkpt lat="38.04976243747958" lon="15.37097209960473"><ele>555.0</ele><time>2026-04-28T13:37:45.999Z</time></trkpt><trkpt lat="38.04974271778228" lon="15.37110282437011"><ele>558.5</ele><time>2026-04-28T13:37:46.999Z</time></trkpt><trkpt lat="38.049731027820826" lon="15.37121719175878"><ele>562.0</ele><time>2026-04-28T13:37:47.999Z</time></trkpt><trkpt lat="38.04970827256004" lon="15.371345470504904"><ele>556.2</ele><time>2026-04-28T13:37:49.999Z</time></trkpt><trkpt lat="38.04969929427598" lon="15.371485554711038"><ele>550.4000000000001</ele><time>2026-04-28T13:37:51.999Z</time></trkpt><trkpt lat="38.04967680856416" lon="15.371580106031042"><ele>544.5999999999999</ele><time>2026-04-28T13:37:52.999Z</time></trkpt><trkpt lat="38.04965142369928" lon="15.371672691449042"><ele>538.8</ele><time>2026-04-28T13:37:53.999Z</time></trkpt><trkpt lat="38.049610454851006" lon="15.371733814691753"><ele>533.0</ele><time>2026-04-28T13:37:54.999Z</time></trkpt><trkpt lat="38.04951283540405" lon="15.371837223016087"><ele>533.0</ele><time>2026-04-28T13:37:56.999Z</time></trkpt><trkpt lat="38.04943071679672" lon="15.371872143512482"><ele>533.0</ele><time>2026-04-28T13:37:57.999Z</time></trkpt><trkpt lat="38.04934396467641" lon="15.371917343424997"><ele>533.0</ele><time>2026-04-28T13:37:58.999Z</time></trkpt><trkpt lat="38.049285866811545" lon="15.3719631914553"><ele>533.0</ele><time>2026-04-28T13:37:59.999Z</time></trkpt><trkpt lat="38.049235784452065" lon="15.372022321605298"><ele>533.0</ele><time>2026-04-28T13:38:01Z</time></trkpt><trkpt lat="38.04917596381412" lon="15.37206003523131"><ele>533.0</ele><time>2026-04-28T13:38:02Z</time></trkpt><trkpt lat="38.049035899728736" lon="15.372027771034285"><ele>533.4</ele><time>2026-04-28T13:38:04Z</time></trkpt><trkpt lat="38.048931710793696" lon="15.372004597745457"><ele>533.8</ele><time>2026-04-28T13:38:05Z</time></trkpt><trkpt lat="38.048816264401225" lon="15.371977379686719"><ele>534.2</ele><time>2026-04-28T13:38:06Z</time></trkpt><trkpt lat="38.04871536952868" lon="15.371960406890501"><ele>534.6</ele><time>2026-04-28T13:38:07Z</time></trkpt><trkpt lat="38.04864276961056" lon="15.371946172601167"><ele>535.0</ele><time>2026-04-28T13:38:08Z</time></trkpt><trkpt lat="38.04851705198141" lon="15.371977129605161"><ele>535.0</ele><time>2026-04-28T13:38:10Z</time></trkpt><trkpt lat="38.04843974687557" lon="15.372041166191993"><ele>535.0</ele><time>2026-04-28T13:38:11Z</time></trkpt><trkpt lat="38.048378066340625" lon="15.372093487578653"><ele>535.0</ele><time>2026-04-28T13:38:12Z</time></trkpt><trkpt lat="38.0482654053326" lon="15.372144030372382"><ele>535.0</ele><time>2026-04-28T13:38:14Z</time></trkpt><trkpt lat="38.048197408149385" lon="15.372136158930456"><ele>535.0</ele><time>2026-04-28T13:38:15Z</time></trkpt><trkpt lat="38.048125248558556" lon="15.372134303442593"><ele>535.0</ele><time>2026-04-28T13:38:16Z</time></trkpt><trkpt lat="38.04806468340813" lon="15.372162192899415"><ele>532.0</ele><time>2026-04-28T13:38:17Z</time></trkpt><trkpt lat="38.048013645713375" lon="15.372214510882282"><ele>529.0</ele><time>2026-04-28T13:38:18Z</time></trkpt><trkpt lat="38.04796843633976" lon="15.372272653979245"><ele>526.0</ele><time>2026-04-28T13:38:20Z</time></trkpt><trkpt lat="38.04803591216323" lon="15.372346335095365"><ele>523.0</ele><time>2026-04-28T13:38:22Z</time></trkpt><trkpt lat="38.04810618484896" lon="15.372318223405374"><ele>520.0</ele><time>2026-04-28T13:38:23Z</time></trkpt><trkpt lat="38.0481976973105" lon="15.372270576042501"><ele>517.0</ele><time>2026-04-28T13:38:24Z</time></trkpt><trkpt lat="38.0482843368764" lon="15.37228153729831"><ele>517.0</ele><time>2026-04-28T13:38:25Z</time></trkpt><trkpt lat="38.04834143275532" lon="15.372317819950151"><ele>517.0</ele><time>2026-04-28T13:38:26Z</time></trkpt><trkpt lat="38.04841454868065" lon="15.372336714182547"><ele>517.0</ele><time>2026-04-28T13:38:29Z</time></trkpt><trkpt lat="38.048383903559895" lon="15.372411374028633"><ele>517.0</ele><time>2026-04-28T13:38:31Z</time></trkpt><trkpt lat="38.04824656531469" lon="15.372429668768682"><ele>517.0</ele><time>2026-04-28T13:38:33Z</time></trkpt><trkpt lat="38.04815434399803" lon="15.372440008215156"><ele>517.0</ele><time>2026-04-28T13:38:35Z</time></trkpt><trkpt lat="38.04811064659296" lon="15.372504507854078"><ele>517.0</ele><time>2026-04-28T13:38:36Z</time></trkpt><trkpt lat="38.04806384649536" lon="15.372587557555862"><ele>517.0</ele><time>2026-04-28T13:38:37Z</time></trkpt><trkpt lat="38.048003862472626" lon="15.372622509221555"><ele>517.0</ele><time>2026-04-28T13:38:38Z</time></trkpt><trkpt lat="38.04791699618935" lon="15.37265817694"><ele>517.0</ele><time>2026-04-28T13:38:40Z</time></trkpt><trkpt lat="38.04786653335618" lon="15.372810023127377"><ele>517.0</ele><time>2026-04-28T13:38:42Z</time></trkpt><trkpt lat="38.04784500148685" lon="15.37288563869915"><ele>517.0</ele><time>2026-04-28T13:38:43Z</time></trkpt><trkpt lat="38.047743604620656" lon="15.372990287162398"><ele>517.0</ele><time>2026-04-28T13:38:45Z</time></trkpt><trkpt lat="38.04766188222222" lon="15.373030775755723"><ele>517.0</ele><time>2026-04-28T13:38:46Z</time></trkpt><trkpt lat="38.0475929441549" lon="15.37307025882278"><ele>517.0</ele><time>2026-04-28T13:38:47Z</time></trkpt><trkpt lat="38.047532642134406" lon="15.373121590371632"><ele>517.0</ele><time>2026-04-28T13:38:48Z</time></trkpt><trkpt lat="38.047478728999614" lon="15.37318398923733"><ele>517.0</ele><time>2026-04-28T13:38:49Z</time></trkpt><trkpt lat="38.04743290393247" lon="15.373265244922651"><ele>517.0</ele><time>2026-04-28T13:38:50Z</time></trkpt><trkpt lat="38.047383951333266" lon="15.373352849114813"><ele>517.0</ele><time>2026-04-28T13:38:51Z</time></trkpt><trkpt lat="38.04732130802491" lon="15.373423358688186"><ele>517.0</ele><time>2026-04-28T13:38:52Z</time></trkpt><trkpt lat="38.047244327381335" lon="15.373473482167197"><ele>517.0</ele><time>2026-04-28T13:38:53Z</time></trkpt><trkpt lat="38.047157235595016" lon="15.373498057528506"><ele>517.0</ele><time>2026-04-28T13:38:54Z</time></trkpt><trkpt lat="38.047067628177956" lon="15.373512939361115"><ele>517.0</ele><time>2026-04-28T13:38:55Z</time></trkpt><trkpt lat="38.04699913065718" lon="15.37354056947135"><ele>517.0</ele><time>2026-04-28T13:38:56Z</time></trkpt><trkpt lat="38.046920748388814" lon="15.373668326245626"><ele>517.0</ele><time>2026-04-28T13:38:58Z</time></trkpt><trkpt lat="38.04689198728945" lon="15.373779389780358"><ele>517.0</ele><time>2026-04-28T13:38:59Z</time></trkpt><trkpt lat="38.046877991291694" lon="15.373896092825984"><ele>517.0</ele><time>2026-04-28T13:39:00Z</time></trkpt><trkpt lat="38.046876436207405" lon="15.374012736015876"><ele>517.0</ele><time>2026-04-28T13:39:01Z</time></trkpt><trkpt lat="38.046855158886345" lon="15.374110806923547"><ele>517.0</ele><time>2026-04-28T13:39:02Z</time></trkpt><trkpt lat="38.046808165279785" lon="15.374198044626004"><ele>517.0</ele><time>2026-04-28T13:39:03Z</time></trkpt><trkpt lat="38.04674720870879" lon="15.374288757480551"><ele>514.3333333333334</ele><time>2026-04-28T13:39:04Z</time></trkpt><trkpt lat="38.04670625190582" lon="15.374387606577589"><ele>511.6666666666667</ele><time>2026-04-28T13:39:05Z</time></trkpt><trkpt lat="38.04668042448647" lon="15.374500541433644"><ele>509.0</ele><time>2026-04-28T13:39:06Z</time></trkpt><trkpt lat="38.04667850158498" lon="15.374614906938877"><ele>506.33333333333337</ele><time>2026-04-28T13:39:07Z</time></trkpt><trkpt lat="38.04666822899463" lon="15.374713544233616"><ele>503.6666666666667</ele><time>2026-04-28T13:39:08Z</time></trkpt><trkpt lat="38.04664418412067" lon="15.374823311490397"><ele>501.0</ele><time>2026-04-28T13:39:09Z</time></trkpt><trkpt lat="38.046615868654214" lon="15.374962308780889"><ele>501.0</ele><time>2026-04-28T13:39:10Z</time></trkpt><trkpt lat="38.04658853214114" lon="15.37507590514612"><ele>501.0</ele><time>2026-04-28T13:39:11Z</time></trkpt><trkpt lat="38.046562804114494" lon="15.375183122505787"><ele>501.0</ele><time>2026-04-28T13:39:12Z</time></trkpt><trkpt lat="38.046547011888876" lon="15.375289078843577"><ele>501.0</ele><time>2026-04-28T13:39:13Z</time></trkpt><trkpt lat="38.04653792044212" lon="15.375384143695134"><ele>501.0</ele><time>2026-04-28T13:39:14Z</time></trkpt><trkpt lat="38.04652731370499" lon="15.375484094473569"><ele>501.0</ele><time>2026-04-28T13:39:15Z</time></trkpt><trkpt lat="38.04648681614678" lon="15.375568051300027"><ele>493.5</ele><time>2026-04-28T13:39:16Z</time></trkpt><trkpt lat="38.04643944007865" lon="15.375642398625036"><ele>486.0</ele><time>2026-04-28T13:39:17Z</time></trkpt><trkpt lat="38.04638484906875" lon="15.375696999402816"><ele>478.5</ele><time>2026-04-28T13:39:18Z</time></trkpt><trkpt lat="38.04630159838063" lon="15.375755733162414"><ele>471.0</ele><time>2026-04-28T13:39:19Z</time></trkpt><trkpt lat="38.04621328888988" lon="15.375795432104793"><ele>463.5</ele><time>2026-04-28T13:39:20Z</time></trkpt><trkpt lat="38.046112979215145" lon="15.375818599740882"><ele>456.0</ele><time>2026-04-28T13:39:21Z</time></trkpt><trkpt lat="38.04598667602001" lon="15.37583197475955"><ele>456.0</ele><time>2026-04-28T13:39:22Z</time></trkpt><trkpt lat="38.04587012621873" lon="15.375858589511266"><ele>456.0</ele><time>2026-04-28T13:39:23Z</time></trkpt><trkpt lat="38.04578122065123" lon="15.37590535005214"><ele>456.0</ele><time>2026-04-28T13:39:24Z</time></trkpt><trkpt lat="38.04571045976992" lon="15.37593497520614"><ele>456.0</ele><time>2026-04-28T13:39:25Z</time></trkpt><trkpt lat="38.045645304111446" lon="15.375938798365908"><ele>456.0</ele><time>2026-04-28T13:39:25.999Z</time></trkpt><trkpt lat="38.04556381239933" lon="15.375928607667035"><ele>456.0</ele><time>2026-04-28T13:39:26.999Z</time></trkpt><trkpt lat="38.04547475723187" lon="15.375908784211383"><ele>453.20000000000005</ele><time>2026-04-28T13:39:27.999Z</time></trkpt><trkpt lat="38.045394803322054" lon="15.37587220247094"><ele>450.40000000000003</ele><time>2026-04-28T13:39:28.999Z</time></trkpt><trkpt lat="38.04532061011228" lon="15.375824316961957"><ele>447.6</ele><time>2026-04-28T13:39:29.999Z</time></trkpt><trkpt lat="38.045238995271966" lon="15.375792236684186"><ele>444.8</ele><time>2026-04-28T13:39:30.999Z</time></trkpt><trkpt lat="38.045141613188775" lon="15.375778373164467"><ele>442.0</ele><time>2026-04-28T13:39:31.999Z</time></trkpt><trkpt lat="38.04502962961358" lon="15.375781494889113"><ele>439.50000000000006</ele><time>2026-04-28T13:39:32.999Z</time></trkpt><trkpt lat="38.04493600299959" lon="15.375774143261843"><ele>437.0</ele><time>2026-04-28T13:39:33.999Z</time></trkpt><trkpt lat="38.04486788745742" lon="15.375744324001323"><ele>434.5</ele><time>2026-04-28T13:39:34.999Z</time></trkpt><trkpt lat="38.04480140705287" lon="15.37568885999882"><ele>432.0</ele><time>2026-04-28T13:39:35.999Z</time></trkpt><trkpt lat="38.04473834339399" lon="15.375626884496022"><ele>429.50000000000006</ele><time>2026-04-28T13:39:36.999Z</time></trkpt><trkpt lat="38.04467406358725" lon="15.375582526707802"><ele>427.0</ele><time>2026-04-28T13:39:37.999Z</time></trkpt><trkpt lat="38.04459116838354" lon="15.375562656060543"><ele>427.0</ele><time>2026-04-28T13:39:38.999Z</time></trkpt><trkpt lat="38.04450043160913" lon="15.375580550082054"><ele>427.00000000000006</ele><time>2026-04-28T13:39:39.999Z</time></trkpt><trkpt lat="38.04440537024999" lon="15.375602860617066"><ele>427.00000000000006</ele><time>2026-04-28T13:39:40.999Z</time></trkpt><trkpt lat="38.04430949831686" lon="15.375595852661693"><ele>427.0</ele><time>2026-04-28T13:39:41.999Z</time></trkpt><trkpt lat="38.04420485456236" lon="15.375551786663918"><ele>427.0</ele><time>2026-04-28T13:39:42.999Z</time></trkpt><trkpt lat="38.04410502752902" lon="15.37549885057063"><ele>428.0</ele><time>2026-04-28T13:39:43.999Z</time></trkpt><trkpt lat="38.04400803881234" lon="15.375458231187853"><ele>429.00000000000006</ele><time>2026-04-28T13:39:44.999Z</time></trkpt><trkpt lat="38.043916630672605" lon="15.375413389863862"><ele>430.00000000000006</ele><time>2026-04-28T13:39:45.999Z</time></trkpt><trkpt lat="38.04382895830738" lon="15.375375149607835"><ele>431.0</ele><time>2026-04-28T13:39:46.999Z</time></trkpt><trkpt lat="38.04374031429928" lon="15.375354179807136"><ele>432.0</ele><time>2026-04-28T13:39:47.999Z</time></trkpt><trkpt lat="38.0436622842058" lon="15.37532802995725"><ele>432.0</ele><time>2026-04-28T13:39:48.999Z</time></trkpt><trkpt lat="38.043588008446086" lon="15.375250611674513"><ele>432.00000000000006</ele><time>2026-04-28T13:39:49.999Z</time></trkpt><trkpt lat="38.043520680025544" lon="15.375153397236186"><ele>432.00000000000006</ele><time>2026-04-28T13:39:50.999Z</time></trkpt><trkpt lat="38.04345773238207" lon="15.375052671675071"><ele>432.0</ele><time>2026-04-28T13:39:51.999Z</time></trkpt><trkpt lat="38.04340244171749" lon="15.37494232943286"><ele>432.0</ele><time>2026-04-28T13:39:52.999Z</time></trkpt><trkpt lat="38.043339978015915" lon="15.374846932360215"><ele>427.8</ele><time>2026-04-28T13:39:53.999Z</time></trkpt><trkpt lat="38.04325422671834" lon="15.374768573211842"><ele>423.6</ele><time>2026-04-28T13:39:54.999Z</time></trkpt><trkpt lat="38.04315747543138" lon="15.374719634737716"><ele>419.40000000000003</ele><time>2026-04-28T13:39:55.999Z</time></trkpt><trkpt lat="38.04308021003085" lon="15.374667064229232"><ele>415.20000000000005</ele><time>2026-04-28T13:39:56.999Z</time></trkpt><trkpt lat="38.0430193903013" lon="15.374625347792309"><ele>411.0</ele><time>2026-04-28T13:39:57.999Z</time></trkpt><trkpt lat="38.042959794311706" lon="15.374530320831456"><ele>411.0</ele><time>2026-04-28T13:39:59.999Z</time></trkpt><trkpt lat="38.04295575821942" lon="15.374419664594662"><ele>411.0</ele><time>2026-04-28T13:40:00.999Z</time></trkpt><trkpt lat="38.04294390934644" lon="15.374292945518782"><ele>411.0</ele><time>2026-04-28T13:40:01.999Z</time></trkpt><trkpt lat="38.04292378734843" lon="15.374202717493707"><ele>411.0</ele><time>2026-04-28T13:40:02.999Z</time></trkpt><trkpt lat="38.04279970043195" lon="15.374148871253027"><ele>411.0</ele><time>2026-04-28T13:40:04.999Z</time></trkpt><trkpt lat="38.04270881854852" lon="15.37412810121275"><ele>411.0</ele><time>2026-04-28T13:40:05.999Z</time></trkpt><trkpt lat="38.04263113912211" lon="15.374114577160093"><ele>411.0</ele><time>2026-04-28T13:40:07Z</time></trkpt><trkpt lat="38.0425683483871" lon="15.374100738931595"><ele>411.0</ele><time>2026-04-28T13:40:08Z</time></trkpt><trkpt lat="38.04250972116702" lon="15.374026655422048"><ele>411.0</ele><time>2026-04-28T13:40:10Z</time></trkpt><trkpt lat="38.04250028463548" lon="15.373937502224145"><ele>411.0</ele><time>2026-04-28T13:40:11Z</time></trkpt><trkpt lat="38.04250156451915" lon="15.373834263429705"><ele>411.0</ele><time>2026-04-28T13:40:12Z</time></trkpt><trkpt lat="38.0424823853954" lon="15.373756658741165"><ele>411.0</ele><time>2026-04-28T13:40:13Z</time></trkpt><trkpt lat="38.042445673474425" lon="15.373690156456837"><ele>407.8333333333333</ele><time>2026-04-28T13:40:14Z</time></trkpt><trkpt lat="38.042388045004344" lon="15.373630449544475"><ele>404.66666666666663</ele><time>2026-04-28T13:40:15Z</time></trkpt><trkpt lat="38.042327339741774" lon="15.373556271399295"><ele>401.5</ele><time>2026-04-28T13:40:16Z</time></trkpt><trkpt lat="38.04226812295267" lon="15.373480405454762"><ele>398.3333333333333</ele><time>2026-04-28T13:40:17Z</time></trkpt><trkpt lat="38.0421925243875" lon="15.373396988226473"><ele>395.16666666666663</ele><time>2026-04-28T13:40:18Z</time></trkpt><trkpt lat="38.04211887630214" lon="15.373318871598057"><ele>392.0</ele><time>2026-04-28T13:40:19Z</time></trkpt><trkpt lat="38.04205083558999" lon="15.373239522308406"><ele>392.0</ele><time>2026-04-28T13:40:20Z</time></trkpt><trkpt lat="38.04197276679851" lon="15.37316217060171"><ele>392.0</ele><time>2026-04-28T13:40:21Z</time></trkpt><trkpt lat="38.041902625825315" lon="15.373080990129024"><ele>392.0</ele><time>2026-04-28T13:40:22Z</time></trkpt><trkpt lat="38.04183158263501" lon="15.372999698450514"><ele>392.0</ele><time>2026-04-28T13:40:23Z</time></trkpt><trkpt lat="38.041771537547206" lon="15.372912955186143"><ele>392.0</ele><time>2026-04-28T13:40:24Z</time></trkpt><trkpt lat="38.04171563789051" lon="15.3728225041573"><ele>388.40000000000003</ele><time>2026-04-28T13:40:25Z</time></trkpt><trkpt lat="38.04165192530907" lon="15.372738112880771"><ele>384.8</ele><time>2026-04-28T13:40:26Z</time></trkpt><trkpt lat="38.041576151626586" lon="15.372669206722207"><ele>381.2</ele><time>2026-04-28T13:40:27Z</time></trkpt><trkpt lat="38.041509224371666" lon="15.372587686427279"><ele>377.6</ele><time>2026-04-28T13:40:28Z</time></trkpt><trkpt lat="38.041455757687054" lon="15.37249237896676"><ele>374.0</ele><time>2026-04-28T13:40:29Z</time></trkpt><trkpt lat="38.04141970468095" lon="15.372400970293262"><ele>374.0</ele><time>2026-04-28T13:40:30Z</time></trkpt><trkpt lat="38.04139307321066" lon="15.37231349995397"><ele>374.0</ele><time>2026-04-28T13:40:31Z</time></trkpt><trkpt lat="38.0413845092059" lon="15.372216286507776"><ele>374.0</ele><time>2026-04-28T13:40:32Z</time></trkpt><trkpt lat="38.04139359825687" lon="15.372099401431703"><ele>374.0</ele><time>2026-04-28T13:40:33Z</time></trkpt><trkpt lat="38.0413923438903" lon="15.371978026591009"><ele>374.0</ele><time>2026-04-28T13:40:34Z</time></trkpt><trkpt lat="38.04139015862456" lon="15.371866973496532"><ele>374.0</ele><time>2026-04-28T13:40:35Z</time></trkpt><trkpt lat="38.04140235929011" lon="15.371771053171123"><ele>375.1666666666667</ele><time>2026-04-28T13:40:36Z</time></trkpt><trkpt lat="38.04144687867168" lon="15.371650279946952"><ele>376.33333333333337</ele><time>2026-04-28T13:40:38Z</time></trkpt><trkpt lat="38.041396625760214" lon="15.371599637853235"><ele>377.5</ele><time>2026-04-28T13:40:41Z</time></trkpt><trkpt lat="38.04134040264965" lon="15.371642371511063"><ele>378.6666666666667</ele><time>2026-04-28T13:40:42Z</time></trkpt><trkpt lat="38.04127980948894" lon="15.37174008445467"><ele>379.8333333333333</ele><time>2026-04-28T13:40:43Z</time></trkpt><trkpt lat="38.0412072218174" lon="15.371843016362748"><ele>381.0</ele><time>2026-04-28T13:40:44Z</time></trkpt><trkpt lat="38.041134956325656" lon="15.3719277075531"><ele>381.0</ele><time>2026-04-28T13:40:45Z</time></trkpt><trkpt lat="38.04107254525614" lon="15.371999593448173"><ele>381.0</ele><time>2026-04-28T13:40:46Z</time></trkpt><trkpt lat="38.04100692762912" lon="15.372033896826636"><ele>381.0</ele><time>2026-04-28T13:40:47Z</time></trkpt><trkpt lat="38.04092805157755" lon="15.372046092314413"><ele>381.0</ele><time>2026-04-28T13:40:48Z</time></trkpt><trkpt lat="38.040836055312994" lon="15.372030061566477"><ele>381.0</ele><time>2026-04-28T13:40:49Z</time></trkpt><trkpt lat="38.04074964663548" lon="15.371997853219593"><ele>381.0</ele><time>2026-04-28T13:40:50Z</time></trkpt><trkpt lat="38.04066775726949" lon="15.371953130594454"><ele>378.85714285714283</ele><time>2026-04-28T13:40:51Z</time></trkpt><trkpt lat="38.04060095180039" lon="15.371898602313593"><ele>376.7142857142857</ele><time>2026-04-28T13:40:52Z</time></trkpt><trkpt lat="38.04055337464458" lon="15.371831597101234"><ele>374.57142857142856</ele><time>2026-04-28T13:40:53Z</time></trkpt><trkpt lat="38.040526331359025" lon="15.371748912784048"><ele>372.42857142857144</ele><time>2026-04-28T13:40:54Z</time></trkpt><trkpt lat="38.040497668145754" lon="15.37166956435046"><ele>370.28571428571433</ele><time>2026-04-28T13:40:55Z</time></trkpt><trkpt lat="38.04044255196932" lon="15.371615437603626"><ele>368.14285714285717</ele><time>2026-04-28T13:40:56Z</time></trkpt><trkpt lat="38.04035724667225" lon="15.371592837285974"><ele>366.0</ele><time>2026-04-28T13:40:57Z</time></trkpt><trkpt lat="38.04023857249932" lon="15.371582370487673"><ele>366.0</ele><time>2026-04-28T13:40:58Z</time></trkpt><trkpt lat="38.040125356749805" lon="15.37155709945216"><ele>366.0</ele><time>2026-04-28T13:40:59Z</time></trkpt><trkpt lat="38.0400323992368" lon="15.371515056990704"><ele>366.0</ele><time>2026-04-28T13:41:00Z</time></trkpt><trkpt lat="38.03995025875014" lon="15.371460128014816"><ele>366.0</ele><time>2026-04-28T13:41:01Z</time></trkpt><trkpt lat="38.03988111163261" lon="15.371396770267003"><ele>366.0</ele><time>2026-04-28T13:41:02Z</time></trkpt><trkpt lat="38.039825319716755" lon="15.371325952200245"><ele>363.6666666666667</ele><time>2026-04-28T13:41:03Z</time></trkpt><trkpt lat="38.03978421027356" lon="15.371255309991346"><ele>361.3333333333333</ele><time>2026-04-28T13:41:04Z</time></trkpt><trkpt lat="38.03970926910819" lon="15.371224245421647"><ele>359.0</ele><time>2026-04-28T13:41:06Z</time></trkpt><trkpt lat="38.03969310852545" lon="15.371356049023996"><ele>356.66666666666663</ele><time>2026-04-28T13:41:08Z</time></trkpt><trkpt lat="38.039755991089166" lon="15.371445741847912"><ele>354.3333333333333</ele><time>2026-04-28T13:41:09Z</time></trkpt><trkpt lat="38.03983290209453" lon="15.371511264365427"><ele>352.0</ele><time>2026-04-28T13:41:10Z</time></trkpt><trkpt lat="38.03989895637509" lon="15.371528455240561"><ele>351.5</ele><time>2026-04-28T13:41:11Z</time></trkpt><trkpt lat="38.039911889002504" lon="15.371613566193972"><ele>351.0</ele><time>2026-04-28T13:41:14Z</time></trkpt><trkpt lat="38.03980795602024" lon="15.371593081696112"><ele>350.5</ele><time>2026-04-28T13:41:16Z</time></trkpt><trkpt lat="38.03970331055228" lon="15.37152459353476"><ele>350.0</ele><time>2026-04-28T13:41:18Z</time></trkpt><trkpt lat="38.03961999983965" lon="15.371510419919765"><ele>349.5</ele><time>2026-04-28T13:41:20Z</time></trkpt><trkpt lat="38.03955423289804" lon="15.371503636077604"><ele>349.0</ele><time>2026-04-28T13:41:22Z</time></trkpt><trkpt lat="38.039480818872185" lon="15.371464463589456"><ele>349.0</ele><time>2026-04-28T13:41:24Z</time></trkpt><trkpt lat="38.039377828377724" lon="15.371402801331467"><ele>349.0</ele><time>2026-04-28T13:41:26Z</time></trkpt><trkpt lat="38.03930819697353" lon="15.371360880380134"><ele>349.0</ele><time>2026-04-28T13:41:27Z</time></trkpt><trkpt lat="38.03924115477835" lon="15.371313706006754"><ele>349.0</ele><time>2026-04-28T13:41:27.999Z</time></trkpt><trkpt lat="38.03916766881077" lon="15.371274491546167"><ele>349.0</ele><time>2026-04-28T13:41:28.999Z</time></trkpt><trkpt lat="38.039072137976525" lon="15.371248344614738"><ele>349.0</ele><time>2026-04-28T13:41:29.999Z</time></trkpt><trkpt lat="38.03895934211677" lon="15.371215775377225"><ele>346.4</ele><time>2026-04-28T13:41:30.999Z</time></trkpt><trkpt lat="38.03884307595808" lon="15.371190583298372"><ele>343.79999999999995</ele><time>2026-04-28T13:41:31.999Z</time></trkpt><trkpt lat="38.03873837799853" lon="15.3711766527012"><ele>341.20000000000005</ele><time>2026-04-28T13:41:32.999Z</time></trkpt><trkpt lat="38.03864619671814" lon="15.371166236785696"><ele>338.6</ele><time>2026-04-28T13:41:33.999Z</time></trkpt><trkpt lat="38.0385690283467" lon="15.371134171344506"><ele>336.0</ele><time>2026-04-28T13:41:34.999Z</time></trkpt><trkpt lat="38.03848898005652" lon="15.371081675840257"><ele>336.0</ele><time>2026-04-28T13:41:35.999Z</time></trkpt><trkpt lat="38.03840763221897" lon="15.37101422899872"><ele>336.0</ele><time>2026-04-28T13:41:36.999Z</time></trkpt><trkpt lat="38.03834146939016" lon="15.370973958785518"><ele>336.0</ele><time>2026-04-28T13:41:37.999Z</time></trkpt><trkpt lat="38.038285788210096" lon="15.370903224891393"><ele>336.0</ele><time>2026-04-28T13:41:39.999Z</time></trkpt><trkpt lat="38.03836935544722" lon="15.37080113149574"><ele>336.0</ele><time>2026-04-28T13:41:41.999Z</time></trkpt><trkpt lat="38.03846847775332" lon="15.370768402047814"><ele>336.0</ele><time>2026-04-28T13:41:42.999Z</time></trkpt><trkpt lat="38.038529767006246" lon="15.370747890987033"><ele>336.0</ele><time>2026-04-28T13:41:43.999Z</time></trkpt><trkpt lat="38.038514233211245" lon="15.37065550219827"><ele>336.0</ele><time>2026-04-28T13:41:45.999Z</time></trkpt><trkpt lat="38.03845133038046" lon="15.370645894631975"><ele>336.0</ele><time>2026-04-28T13:41:46.999Z</time></trkpt><trkpt lat="38.03831226922442" lon="15.370679212528943"><ele>336.0</ele><time>2026-04-28T13:41:48.999Z</time></trkpt><trkpt lat="38.038202893327274" lon="15.370629040964165"><ele>330.75</ele><time>2026-04-28T13:41:49.999Z</time></trkpt><trkpt lat="38.03808462176247" lon="15.370561456268735"><ele>325.5</ele><time>2026-04-28T13:41:50.999Z</time></trkpt><trkpt lat="38.03796525990984" lon="15.370504772713765"><ele>320.25</ele><time>2026-04-28T13:41:51.999Z</time></trkpt><trkpt lat="38.03784836527928" lon="15.37048060934523"><ele>315.0</ele><time>2026-04-28T13:41:52.999Z</time></trkpt><trkpt lat="38.037749171171086" lon="15.37045620240219"><ele>312.4</ele><time>2026-04-28T13:41:53.999Z</time></trkpt><trkpt lat="38.03765826817955" lon="15.370418716865442"><ele>309.8</ele><time>2026-04-28T13:41:54.999Z</time></trkpt><trkpt lat="38.03757872967686" lon="15.370349179579758"><ele>307.2</ele><time>2026-04-28T13:41:55.999Z</time></trkpt><trkpt lat="38.03751242048045" lon="15.37026989351993"><ele>304.6</ele><time>2026-04-28T13:41:56.999Z</time></trkpt><trkpt lat="38.03742709579375" lon="15.370223554426568"><ele>302.0</ele><time>2026-04-28T13:41:57.999Z</time></trkpt><trkpt lat="38.03732633192639" lon="15.370214280610526"><ele>301.1666666666667</ele><time>2026-04-28T13:41:58.999Z</time></trkpt><trkpt lat="38.03723015853249" lon="15.370224761139234"><ele>300.33333333333337</ele><time>2026-04-28T13:41:59.999Z</time></trkpt><trkpt lat="38.03713689278114" lon="15.370242680692547"><ele>299.5</ele><time>2026-04-28T13:42:00.999Z</time></trkpt><trkpt lat="38.03705190864007" lon="15.37021515770572"><ele>298.6666666666667</ele><time>2026-04-28T13:42:01.999Z</time></trkpt><trkpt lat="38.036977228526446" lon="15.37014520767189"><ele>297.8333333333333</ele><time>2026-04-28T13:42:02.999Z</time></trkpt><trkpt lat="38.036931953546514" lon="15.370086783388503"><ele>297.0</ele><time>2026-04-28T13:42:03.999Z</time></trkpt><trkpt lat="38.03684775525427" lon="15.370132597670725"><ele>297.0</ele><time>2026-04-28T13:42:05.999Z</time></trkpt><trkpt lat="38.036820840603916" lon="15.370240715008132"><ele>297.0</ele><time>2026-04-28T13:42:06.999Z</time></trkpt><trkpt lat="38.0368180360999" lon="15.37038002654369"><ele>297.0</ele><time>2026-04-28T13:42:07.999Z</time></trkpt><trkpt lat="38.03680802439887" lon="15.370482446967857"><ele>297.0</ele><time>2026-04-28T13:42:08.999Z</time></trkpt><trkpt lat="38.03682221396671" lon="15.37056776199917"><ele>297.0</ele><time>2026-04-28T13:42:09.999Z</time></trkpt><trkpt lat="38.03688065268289" lon="15.370633769129224"><ele>297.0</ele><time>2026-04-28T13:42:10.999Z</time></trkpt><trkpt lat="38.03697863749945" lon="15.370673501970414"><ele>297.0</ele><time>2026-04-28T13:42:11.999Z</time></trkpt><trkpt lat="38.037094386047144" lon="15.370720381211667"><ele>297.0</ele><time>2026-04-28T13:42:13Z</time></trkpt><trkpt lat="38.03719336683153" lon="15.370799216478092"><ele>297.0</ele><time>2026-04-28T13:42:14Z</time></trkpt><trkpt lat="38.03726867434946" lon="15.370909342739113"><ele>297.0</ele><time>2026-04-28T13:42:15Z</time></trkpt><trkpt lat="38.03735274821549" lon="15.371056792581852"><ele>297.0</ele><time>2026-04-28T13:42:16Z</time></trkpt><trkpt lat="38.03743320713195" lon="15.371185520143124"><ele>297.0</ele><time>2026-04-28T13:42:17Z</time></trkpt><trkpt lat="38.03751480298368" lon="15.371311080595524"><ele>297.0</ele><time>2026-04-28T13:42:18Z</time></trkpt><trkpt lat="38.037585159654654" lon="15.371433984410636"><ele>297.0</ele><time>2026-04-28T13:42:19Z</time></trkpt><trkpt lat="38.03764148649402" lon="15.371513947164255"><ele>297.8</ele><time>2026-04-28T13:42:20Z</time></trkpt><trkpt lat="38.037678283299684" lon="15.371596402517616"><ele>298.6</ele><time>2026-04-28T13:42:21Z</time></trkpt><trkpt lat="38.037763222984616" lon="15.371678547558071"><ele>299.40000000000003</ele><time>2026-04-28T13:42:22Z</time></trkpt><trkpt lat="38.0378589710567" lon="15.371772111258307"><ele>300.2</ele><time>2026-04-28T13:42:23Z</time></trkpt><trkpt lat="38.03793020450161" lon="15.371863906238675"><ele>301.0</ele><time>2026-04-28T13:42:24Z</time></trkpt><trkpt lat="38.03798244743554" lon="15.371961652996438"><ele>301.0</ele><time>2026-04-28T13:42:25Z</time></trkpt><trkpt lat="38.0380264931266" lon="15.372029541140229"><ele>301.0</ele><time>2026-04-28T13:42:26Z</time></trkpt><trkpt lat="38.038112918031956" lon="15.37211073696987"><ele>301.0</ele><time>2026-04-28T13:42:28Z</time></trkpt><trkpt lat="38.03806793239011" lon="15.372180593934516"><ele>301.0</ele><time>2026-04-28T13:42:32Z</time></trkpt><trkpt lat="38.03800712583179" lon="15.372139049449018"><ele>301.0</ele><time>2026-04-28T13:42:33Z</time></trkpt><trkpt lat="38.037940217183724" lon="15.37203560272222"><ele>301.0</ele><time>2026-04-28T13:42:34Z</time></trkpt><trkpt lat="38.03785259346364" lon="15.371921289379078"><ele>301.0</ele><time>2026-04-28T13:42:35Z</time></trkpt><trkpt lat="38.037742738351454" lon="15.371812248481788"><ele>301.0</ele><time>2026-04-28T13:42:36Z</time></trkpt><trkpt lat="38.03763416531746" lon="15.371721213471822"><ele>301.0</ele><time>2026-04-28T13:42:37Z</time></trkpt><trkpt lat="38.0375319620618" lon="15.37163435217471"><ele>301.0</ele><time>2026-04-28T13:42:38Z</time></trkpt><trkpt lat="38.037419504819816" lon="15.37154356325903"><ele>301.75</ele><time>2026-04-28T13:42:39Z</time></trkpt><trkpt lat="38.0373188736689" lon="15.371454941810471"><ele>302.5</ele><time>2026-04-28T13:42:40Z</time></trkpt><trkpt lat="38.03723039829987" lon="15.371369699959377"><ele>303.25</ele><time>2026-04-28T13:42:41Z</time></trkpt><trkpt lat="38.03713216272607" lon="15.371264877495408"><ele>304.0</ele><time>2026-04-28T13:42:43Z</time></trkpt><trkpt lat="38.037029081045894" lon="15.371210702140004"><ele>302.8333333333333</ele><time>2026-04-28T13:42:45Z</time></trkpt><trkpt lat="38.03694663136446" lon="15.371175093607837"><ele>301.66666666666663</ele><time>2026-04-28T13:42:47Z</time></trkpt><trkpt lat="38.03684047209721" lon="15.371194923988675"><ele>300.5</ele><time>2026-04-28T13:42:49Z</time></trkpt><trkpt lat="38.036761770882585" lon="15.371211937781277"><ele>299.3333333333333</ele><time>2026-04-28T13:42:50Z</time></trkpt><trkpt lat="38.03669141831929" lon="15.371208657859672"><ele>298.1666666666667</ele><time>2026-04-28T13:42:51Z</time></trkpt><trkpt lat="38.03661516146886" lon="15.371189446929316"><ele>297.0</ele><time>2026-04-28T13:42:52Z</time></trkpt><trkpt lat="38.03652701104067" lon="15.371138494828033"><ele>296.2</ele><time>2026-04-28T13:42:53Z</time></trkpt><trkpt lat="38.03645157199227" lon="15.371040717948855"><ele>295.4</ele><time>2026-04-28T13:42:54Z</time></trkpt><trkpt lat="38.03639688733663" lon="15.370983868137614"><ele>294.6</ele><time>2026-04-28T13:42:55Z</time></trkpt><trkpt lat="38.03633730465309" lon="15.370887679344502"><ele>293.8</ele><time>2026-04-28T13:42:57Z</time></trkpt><trkpt lat="38.036336692725115" lon="15.370719654492467"><ele>293.0</ele><time>2026-04-28T13:42:59Z</time></trkpt><trkpt lat="38.03636835481087" lon="15.370574103030167"><ele>289.5</ele><time>2026-04-28T13:43:00Z</time></trkpt><trkpt lat="38.03639112600643" lon="15.370420626701435"><ele>286.0</ele><time>2026-04-28T13:43:01Z</time></trkpt><trkpt lat="38.03640997002065" lon="15.370283790624294"><ele>282.5</ele><time>2026-04-28T13:43:02Z</time></trkpt><trkpt lat="38.03641341200104" lon="15.370142190703133"><ele>279.0</ele><time>2026-04-28T13:43:03Z</time></trkpt><trkpt lat="38.036418250933544" lon="15.369982831743403"><ele>279.0</ele><time>2026-04-28T13:43:04Z</time></trkpt><trkpt lat="38.036404304973495" lon="15.369815837632936"><ele>279.0</ele><time>2026-04-28T13:43:05Z</time></trkpt><trkpt lat="38.0363735231932" lon="15.369664991244276"><ele>279.0</ele><time>2026-04-28T13:43:06Z</time></trkpt><trkpt lat="38.03633542943949" lon="15.36953173048551"><ele>279.0</ele><time>2026-04-28T13:43:07Z</time></trkpt><trkpt lat="38.036291099161254" lon="15.369426733213324"><ele>279.3333333333333</ele><time>2026-04-28T13:43:08Z</time></trkpt><trkpt lat="38.0362697595025" lon="15.36934782648162"><ele>279.6666666666667</ele><time>2026-04-28T13:43:09Z</time></trkpt><trkpt lat="38.036309094770644" lon="15.369221169488457"><ele>280.0</ele><time>2026-04-28T13:43:11Z</time></trkpt><trkpt lat="38.03636973892383" lon="15.369187167127143"><ele>280.33333333333337</ele><time>2026-04-28T13:43:12Z</time></trkpt><trkpt lat="38.03643812267993" lon="15.369202811709117"><ele>280.6666666666667</ele><time>2026-04-28T13:43:13Z</time></trkpt><trkpt lat="38.036504713326245" lon="15.369257997852237"><ele>281.0</ele><time>2026-04-28T13:43:14Z</time></trkpt><trkpt lat="38.03657960786492" lon="15.369340677844296"><ele>282.0</ele><time>2026-04-28T13:43:15Z</time></trkpt><trkpt lat="38.03666907586535" lon="15.369424019571055"><ele>283.0</ele><time>2026-04-28T13:43:16Z</time></trkpt><trkpt lat="38.036776919463506" lon="15.369475089728937"><ele>284.0</ele><time>2026-04-28T13:43:17Z</time></trkpt><trkpt lat="38.036914333554314" lon="15.369496134110934"><ele>285.0</ele><time>2026-04-28T13:43:18Z</time></trkpt><trkpt lat="38.03704457261205" lon="15.369520846301674"><ele>285.0</ele><time>2026-04-28T13:43:19Z</time></trkpt><trkpt lat="38.03716748104372" lon="15.369565608422626"><ele>285.0</ele><time>2026-04-28T13:43:20Z</time></trkpt><trkpt lat="38.03727692529512" lon="15.369624051559269"><ele>285.0</ele><time>2026-04-28T13:43:20.999Z</time></trkpt><trkpt lat="38.03737113022518" lon="15.369679225806209"><ele>285.0</ele><time>2026-04-28T13:43:21.999Z</time></trkpt><trkpt lat="38.03746873674153" lon="15.369694833338468"><ele>285.0</ele><time>2026-04-28T13:43:22.999Z</time></trkpt><trkpt lat="38.03757622336363" lon="15.369675644974002"><ele>284.6</ele><time>2026-04-28T13:43:23.999Z</time></trkpt><trkpt lat="38.03767542022083" lon="15.369637937022041"><ele>284.2</ele><time>2026-04-28T13:43:24.999Z</time></trkpt><trkpt lat="38.0377686954685" lon="15.369582597528893"><ele>283.8</ele><time>2026-04-28T13:43:25.999Z</time></trkpt><trkpt lat="38.03784929738342" lon="15.369519400943094"><ele>283.4</ele><time>2026-04-28T13:43:26.999Z</time></trkpt><trkpt lat="38.03792856317256" lon="15.369451343061234"><ele>283.0</ele><time>2026-04-28T13:43:27.999Z</time></trkpt><trkpt lat="38.038017696108945" lon="15.369363850880708"><ele>283.0</ele><time>2026-04-28T13:43:28.999Z</time></trkpt><trkpt lat="38.03813254974314" lon="15.369270872113535"><ele>283.0</ele><time>2026-04-28T13:43:29.999Z</time></trkpt><trkpt lat="38.03825465166449" lon="15.369195566802023"><ele>283.0</ele><time>2026-04-28T13:43:30.999Z</time></trkpt><trkpt lat="38.03837965741926" lon="15.369149237125292"><ele>283.0</ele><time>2026-04-28T13:43:31.999Z</time></trkpt><trkpt lat="38.0384999385737" lon="15.369127345708492"><ele>284.75</ele><time>2026-04-28T13:43:32.999Z</time></trkpt><trkpt lat="38.03862324217962" lon="15.369116042563533"><ele>286.5</ele><time>2026-04-28T13:43:33.999Z</time></trkpt><trkpt lat="38.03874865816596" lon="15.36911277957158"><ele>288.25</ele><time>2026-04-28T13:43:34.999Z</time></trkpt><trkpt lat="38.03886277730153" lon="15.369126077026005"><ele>290.0</ele><time>2026-04-28T13:43:35.999Z</time></trkpt><trkpt lat="38.03897599387038" lon="15.369160496620367"><ele>290.0</ele><time>2026-04-28T13:43:36.999Z</time></trkpt><trkpt lat="38.03910246175785" lon="15.36922807211503"><ele>290.0</ele><time>2026-04-28T13:43:37.999Z</time></trkpt><trkpt lat="38.03922215327199" lon="15.369296022511035"><ele>290.0</ele><time>2026-04-28T13:43:38.999Z</time></trkpt><trkpt lat="38.03932641440237" lon="15.369349967711903"><ele>290.0</ele><time>2026-04-28T13:43:39.999Z</time></trkpt><trkpt lat="38.03943924401034" lon="15.369406827970208"><ele>290.6</ele><time>2026-04-28T13:43:40.999Z</time></trkpt><trkpt lat="38.03952370466902" lon="15.369454590757167"><ele>291.2</ele><time>2026-04-28T13:43:41.999Z</time></trkpt><trkpt lat="38.03961017601656" lon="15.369467868179132"><ele>291.8</ele><time>2026-04-28T13:43:42.999Z</time></trkpt><trkpt lat="38.03969300355994" lon="15.36945292732229"><ele>292.4</ele><time>2026-04-28T13:43:43.999Z</time></trkpt><trkpt lat="38.03980381436148" lon="15.369426003330727"><ele>293.0</ele><time>2026-04-28T13:43:44.999Z</time></trkpt><trkpt lat="38.03992679238578" lon="15.369402571448068"><ele>293.0</ele><time>2026-04-28T13:43:45.999Z</time></trkpt><trkpt lat="38.04005946970807" lon="15.369374719064187"><ele>293.0</ele><time>2026-04-28T13:43:46.999Z</time></trkpt><trkpt lat="38.04018482256666" lon="15.369335300720103"><ele>293.0</ele><time>2026-04-28T13:43:47.999Z</time></trkpt><trkpt lat="38.040310345642034" lon="15.369282795402526"><ele>293.0</ele><time>2026-04-28T13:43:48.999Z</time></trkpt><trkpt lat="38.04042263470141" lon="15.369229344811954"><ele>293.0</ele><time>2026-04-28T13:43:49.999Z</time></trkpt><trkpt lat="38.040525803900564" lon="15.369170715320818"><ele>293.0</ele><time>2026-04-28T13:43:50.999Z</time></trkpt><trkpt lat="38.040625168550854" lon="15.36911073921499"><ele>293.0</ele><time>2026-04-28T13:43:51.999Z</time></trkpt><trkpt lat="38.04073447525913" lon="15.36903405623048"><ele>293.0</ele><time>2026-04-28T13:43:52.999Z</time></trkpt><trkpt lat="38.04085714556568" lon="15.368949875557723"><ele>296.0</ele><time>2026-04-28T13:43:53.999Z</time></trkpt><trkpt lat="38.040998464756534" lon="15.368853661993366"><ele>299.0</ele><time>2026-04-28T13:43:54.999Z</time></trkpt><trkpt lat="38.04112092722666" lon="15.368763821724958"><ele>302.0</ele><time>2026-04-28T13:43:55.999Z</time></trkpt><trkpt lat="38.04123059737441" lon="15.368689221013945"><ele>305.0</ele><time>2026-04-28T13:43:56.999Z</time></trkpt><trkpt lat="38.04131790140039" lon="15.368640381211394"><ele>305.0</ele><time>2026-04-28T13:43:57.999Z</time></trkpt><trkpt lat="38.04140159520083" lon="15.368611342631011"><ele>305.0</ele><time>2026-04-28T13:43:58.999Z</time></trkpt><trkpt lat="38.04148388438757" lon="15.368590120347669"><ele>305.0</ele><time>2026-04-28T13:43:59.999Z</time></trkpt><trkpt lat="38.041583067810464" lon="15.368543889450635"><ele>305.0</ele><time>2026-04-28T13:44:00.999Z</time></trkpt><trkpt lat="38.04167640724546" lon="15.368493234396755"><ele>305.0</ele><time>2026-04-28T13:44:01.999Z</time></trkpt><trkpt lat="38.0417482878399" lon="15.368403763466361"><ele>306.0</ele><time>2026-04-28T13:44:02.999Z</time></trkpt><trkpt lat="38.041819238852035" lon="15.368291296606763"><ele>307.0</ele><time>2026-04-28T13:44:03.999Z</time></trkpt><trkpt lat="38.04188678779441" lon="15.368150155333716"><ele>308.0</ele><time>2026-04-28T13:44:04.999Z</time></trkpt><trkpt lat="38.041962104404135" lon="15.36800454894092"><ele>309.0</ele><time>2026-04-28T13:44:05.999Z</time></trkpt><trkpt lat="38.04203707565446" lon="15.367863376524504"><ele>309.0</ele><time>2026-04-28T13:44:06.999Z</time></trkpt><trkpt lat="38.04208834522766" lon="15.367767854240455"><ele>309.0</ele><time>2026-04-28T13:44:07.999Z</time></trkpt><trkpt lat="38.04213251420527" lon="15.367672798053952"><ele>309.0</ele><time>2026-04-28T13:44:08.999Z</time></trkpt><trkpt lat="38.04217030405327" lon="15.367544871245842"><ele>309.0</ele><time>2026-04-28T13:44:09.999Z</time></trkpt><trkpt lat="38.04220384207603" lon="15.367403658199684"><ele>309.0</ele><time>2026-04-28T13:44:10.999Z</time></trkpt><trkpt lat="38.04222598615973" lon="15.367256415251623"><ele>312.0</ele><time>2026-04-28T13:44:11.999Z</time></trkpt><trkpt lat="38.0422511889128" lon="15.36711395419145"><ele>315.0</ele><time>2026-04-28T13:44:12.999Z</time></trkpt><trkpt lat="38.04225465967205" lon="15.366979708699848"><ele>318.0</ele><time>2026-04-28T13:44:13.999Z</time></trkpt><trkpt lat="38.04224131231277" lon="15.366843030738822"><ele>321.0</ele><time>2026-04-28T13:44:14.999Z</time></trkpt><trkpt lat="38.042207541882455" lon="15.366693104023854"><ele>321.0</ele><time>2026-04-28T13:44:15.999Z</time></trkpt><trkpt lat="38.042162960003374" lon="15.366555931206902"><ele>321.0</ele><time>2026-04-28T13:44:16.999Z</time></trkpt><trkpt lat="38.04214103050155" lon="15.36640005200878"><ele>321.0</ele><time>2026-04-28T13:44:17.999Z</time></trkpt><trkpt lat="38.04212914216408" lon="15.366243495692299"><ele>321.0</ele><time>2026-04-28T13:44:19Z</time></trkpt><trkpt lat="38.04211757588481" lon="15.366090754190552"><ele>320.8</ele><time>2026-04-28T13:44:20Z</time></trkpt><trkpt lat="38.04208344652193" lon="15.365936642006957"><ele>320.6</ele><time>2026-04-28T13:44:21Z</time></trkpt><trkpt lat="38.042054365361466" lon="15.36579353450355"><ele>320.4</ele><time>2026-04-28T13:44:22Z</time></trkpt><trkpt lat="38.042036961948504" lon="15.365669307942287"><ele>320.2</ele><time>2026-04-28T13:44:23Z</time></trkpt><trkpt lat="38.04201835671577" lon="15.365549735333419"><ele>320.0</ele><time>2026-04-28T13:44:24Z</time></trkpt><trkpt lat="38.041993397782434" lon="15.365429201652017"><ele>319.8</ele><time>2026-04-28T13:44:25Z</time></trkpt><trkpt lat="38.04197704420839" lon="15.365308786988882"><ele>319.6</ele><time>2026-04-28T13:44:26Z</time></trkpt><trkpt lat="38.04195195529211" lon="15.365186022546373"><ele>319.4</ele><time>2026-04-28T13:44:27Z</time></trkpt><trkpt lat="38.04191229894704" lon="15.365078999230336"><ele>319.2</ele><time>2026-04-28T13:44:28Z</time></trkpt><trkpt lat="38.041859184954625" lon="15.364968435375866"><ele>319.0</ele><time>2026-04-28T13:44:29Z</time></trkpt><trkpt lat="38.041795374582385" lon="15.364846053360871"><ele>319.0</ele><time>2026-04-28T13:44:30Z</time></trkpt><trkpt lat="38.04174519500851" lon="15.364711855718982"><ele>319.0</ele><time>2026-04-28T13:44:31Z</time></trkpt><trkpt lat="38.04171321281808" lon="15.364581568569738"><ele>319.0</ele><time>2026-04-28T13:44:32Z</time></trkpt><trkpt lat="38.04169834702311" lon="15.364446239461316"><ele>319.0</ele><time>2026-04-28T13:44:33Z</time></trkpt><trkpt lat="38.041692328094" lon="15.364295715673796"><ele>320.0</ele><time>2026-04-28T13:44:34Z</time></trkpt><trkpt lat="38.04168969802428" lon="15.364150321635652"><ele>321.0</ele><time>2026-04-28T13:44:35Z</time></trkpt><trkpt lat="38.04166973108052" lon="15.364015249343296"><ele>322.0</ele><time>2026-04-28T13:44:36Z</time></trkpt><trkpt lat="38.04164736391917" lon="15.363893850433254"><ele>323.0</ele><time>2026-04-28T13:44:37Z</time></trkpt><trkpt lat="38.041623011174856" lon="15.363804369014476"><ele>324.0</ele><time>2026-04-28T13:44:38Z</time></trkpt><trkpt lat="38.0416297922329" lon="15.363707758031378"><ele>324.6</ele><time>2026-04-28T13:44:39Z</time></trkpt><trkpt lat="38.04164539355858" lon="15.363582868209589"><ele>325.2</ele><time>2026-04-28T13:44:40Z</time></trkpt><trkpt lat="38.041669264974836" lon="15.363446937715267"><ele>325.8</ele><time>2026-04-28T13:44:41Z</time></trkpt><trkpt lat="38.04170091034499" lon="15.363326754029803"><ele>326.40000000000003</ele><time>2026-04-28T13:44:42Z</time></trkpt><trkpt lat="38.04173027207958" lon="15.363240795621554"><ele>327.0</ele><time>2026-04-28T13:44:43Z</time></trkpt><trkpt lat="38.04181850790682" lon="15.363123518006773"><ele>327.0</ele><time>2026-04-28T13:44:45Z</time></trkpt><trkpt lat="38.04188701745015" lon="15.363041035103834"><ele>327.0</ele><time>2026-04-28T13:44:46Z</time></trkpt><trkpt lat="38.04195875603216" lon="15.362950675096172"><ele>327.0</ele><time>2026-04-28T13:44:47Z</time></trkpt><trkpt lat="38.042023471674604" lon="15.362888394111526"><ele>327.0</ele><time>2026-04-28T13:44:48Z</time></trkpt><trkpt lat="38.042148656679984" lon="15.362850977322369"><ele>327.0</ele><time>2026-04-28T13:44:50Z</time></trkpt><trkpt lat="38.042206426461156" lon="15.362796082990275"><ele>328.8</ele><time>2026-04-28T13:44:52Z</time></trkpt><trkpt lat="38.04211912441534" lon="15.362698230562113"><ele>330.6</ele><time>2026-04-28T13:44:55Z</time></trkpt><trkpt lat="38.04202814896032" lon="15.36259667827495"><ele>332.40000000000003</ele><time>2026-04-28T13:44:57Z</time></trkpt><trkpt lat="38.041992664758475" lon="15.362511900814308"><ele>334.20000000000005</ele><time>2026-04-28T13:44:58Z</time></trkpt><trkpt lat="38.04196212502775" lon="15.362397250399336"><ele>336.0</ele><time>2026-04-28T13:45:00Z</time></trkpt><trkpt lat="38.04188045037729" lon="15.362426822735824"><ele>336.0</ele><time>2026-04-28T13:45:03Z</time></trkpt><trkpt lat="38.04180533469664" lon="15.362505965441285"><ele>336.0</ele><time>2026-04-28T13:45:05Z</time></trkpt><trkpt lat="38.04169525103595" lon="15.362529506296793"><ele>336.0</ele><time>2026-04-28T13:45:07Z</time></trkpt><trkpt lat="38.04161114411624" lon="15.36257055439246"><ele>336.0</ele><time>2026-04-28T13:45:09Z</time></trkpt><trkpt lat="38.0415366547631" lon="15.36250980226234"><ele>336.0</ele><time>2026-04-28T13:45:59.999Z</time></trkpt><trkpt lat="38.04148424518458" lon="15.362447373667326"><ele>336.0</ele><time>2026-04-28T13:46:02.999Z</time></trkpt><trkpt lat="38.041580052812364" lon="15.362477625103752"><ele>336.0</ele><time>2026-04-28T13:46:17.999Z</time></trkpt><trkpt lat="38.04165701741026" lon="15.362444049102125"><ele>336.0</ele><time>2026-04-28T13:46:20.999Z</time></trkpt><trkpt lat="38.041607594969" lon="15.362370054386261"><ele>336.0</ele><time>2026-04-28T13:46:23.999Z</time></trkpt><trkpt lat="38.041529724995144" lon="15.362327471507967"><ele>336.0</ele><time>2026-04-28T13:46:27Z</time></trkpt><trkpt lat="38.04151940574601" lon="15.362244114583264"><ele>336.0</ele><time>2026-04-28T13:46:29Z</time></trkpt><trkpt lat="38.04152447215836" lon="15.3621228965831"><ele>345.5</ele><time>2026-04-28T13:46:31Z</time></trkpt><trkpt lat="38.04147225030284" lon="15.361993833232363"><ele>355.0</ele><time>2026-04-28T13:46:33Z</time></trkpt><trkpt lat="38.04144088142345" lon="15.36192404590719"><ele>364.5</ele><time>2026-04-28T13:46:34Z</time></trkpt><trkpt lat="38.04135836191275" lon="15.361834810713543"><ele>374.0</ele><time>2026-04-28T13:46:36Z</time></trkpt><trkpt lat="38.04130483717521" lon="15.361765591812365"><ele>383.5</ele><time>2026-04-28T13:46:38Z</time></trkpt><trkpt lat="38.04122821017815" lon="15.361759691504139"><ele>393.0</ele><time>2026-04-28T13:46:40Z</time></trkpt><trkpt lat="38.041173986552266" lon="15.361826968459825"><ele>393.0</ele><time>2026-04-28T13:46:42Z</time></trkpt><trkpt lat="38.041181663435715" lon="15.361708202187918"><ele>393.0</ele><time>2026-04-28T13:46:46Z</time></trkpt><trkpt lat="38.041239651076104" lon="15.361649695267344"><ele>393.0</ele><time>2026-04-28T13:46:47Z</time></trkpt><trkpt lat="38.04129679687041" lon="15.361576629156806"><ele>393.0</ele><time>2026-04-28T13:46:48Z</time></trkpt><trkpt lat="38.041335447429105" lon="15.36150805309441"><ele>393.0</ele><time>2026-04-28T13:46:49Z</time></trkpt><trkpt lat="38.0413935240585" lon="15.36147608412975"><ele>393.0</ele><time>2026-04-28T13:46:52Z</time></trkpt><trkpt lat="38.04148287209836" lon="15.361529336463757"><ele>393.0</ele><time>2026-04-28T13:46:54Z</time></trkpt><trkpt lat="38.04148831216194" lon="15.361634942861441"><ele>393.0</ele><time>2026-04-28T13:46:56Z</time></trkpt><trkpt lat="38.04145769233741" lon="15.36171095946445"><ele>393.0</ele><time>2026-04-28T13:46:59Z</time></trkpt><trkpt lat="38.04149221917046" lon="15.361531952531307"><ele>393.0</ele><time>2026-04-28T13:48:00.999Z</time></trkpt><trkpt lat="38.04147182662128" lon="15.36145126707329"><ele>393.0</ele><time>2026-04-28T13:48:01.999Z</time></trkpt><trkpt lat="38.04140398182221" lon="15.361419099991375"><ele>393.0</ele><time>2026-04-28T13:48:03.999Z</time></trkpt><trkpt lat="38.041317295509536" lon="15.361366059429646"><ele>393.0</ele><time>2026-04-28T13:48:05.999Z</time></trkpt><trkpt lat="38.04122041403174" lon="15.361305947334932"><ele>393.0</ele><time>2026-04-28T13:48:07.999Z</time></trkpt><trkpt lat="38.04115530061347" lon="15.361264483599061"><ele>393.0</ele><time>2026-04-28T13:48:09.999Z</time></trkpt><trkpt lat="38.04109353151138" lon="15.361337042329257"><ele>393.0</ele><time>2026-04-28T13:48:12.999Z</time></trkpt><trkpt lat="38.04112327769847" lon="15.361423307182251"><ele>393.0</ele><time>2026-04-28T13:48:14.999Z</time></trkpt><trkpt lat="38.04114608188794" lon="15.36151595705327"><ele>393.0</ele><time>2026-04-28T13:48:16.999Z</time></trkpt><trkpt lat="38.04107984406599" lon="15.361575501473625"><ele>393.0</ele><time>2026-04-28T13:48:18.999Z</time></trkpt><trkpt lat="38.040984627375636" lon="15.361641494287614"><ele>393.0</ele><time>2026-04-28T13:48:20.999Z</time></trkpt><trkpt lat="38.0408769993679" lon="15.361741580445413"><ele>393.0</ele><time>2026-04-28T13:48:22.999Z</time></trkpt><trkpt lat="38.040823732524025" lon="15.361790266517712"><ele>393.0</ele><time>2026-04-28T13:48:23.999Z</time></trkpt><trkpt lat="38.040791645118354" lon="15.36186743718575"><ele>393.0</ele><time>2026-04-28T13:48:25.999Z</time></trkpt><trkpt lat="38.04080711557799" lon="15.362031250918365"><ele>401.2</ele><time>2026-04-28T13:48:27.999Z</time></trkpt><trkpt lat="38.040757957939064" lon="15.362179406301111"><ele>409.4</ele><time>2026-04-28T13:48:29.999Z</time></trkpt><trkpt lat="38.04071904933515" lon="15.362256904885966"><ele>417.59999999999997</ele><time>2026-04-28T13:48:31Z</time></trkpt><trkpt lat="38.04069171515755" lon="15.36234660975035"><ele>425.79999999999995</ele><time>2026-04-28T13:48:32Z</time></trkpt><trkpt lat="38.040674421536465" lon="15.3624343092259"><ele>434.0</ele><time>2026-04-28T13:48:33Z</time></trkpt><trkpt lat="38.04066643598434" lon="15.362586430864123"><ele>434.0</ele><time>2026-04-28T13:48:35Z</time></trkpt><trkpt lat="38.04059078724632" lon="15.362677459383134"><ele>434.0</ele><time>2026-04-28T13:48:37Z</time></trkpt><trkpt lat="38.040507412185455" lon="15.362790641644926"><ele>434.0</ele><time>2026-04-28T13:48:39Z</time></trkpt><trkpt lat="38.04048791287178" lon="15.362882304936537"><ele>434.0</ele><time>2026-04-28T13:48:41Z</time></trkpt><trkpt lat="38.04044466669829" lon="15.362789550364422"><ele>434.0</ele><time>2026-04-28T13:48:45Z</time></trkpt><trkpt lat="38.0405031068929" lon="15.362670054324093"><ele>433.99999999999994</ele><time>2026-04-28T13:48:47Z</time></trkpt><trkpt lat="38.04052783413851" lon="15.36259543625036"><ele>434.0</ele><time>2026-04-28T13:48:48Z</time></trkpt><trkpt lat="38.04053273943291" lon="15.362469459002506"><ele>434.0</ele><time>2026-04-28T13:48:50Z</time></trkpt><trkpt lat="38.040517060676265" lon="15.36238854214705"><ele>434.0</ele><time>2026-04-28T13:48:51Z</time></trkpt><trkpt lat="38.04050652227164" lon="15.36230584106562"><ele>433.99999999999994</ele><time>2026-04-28T13:48:52Z</time></trkpt><trkpt lat="38.04050903753327" lon="15.362170937163333"><ele>434.0</ele><time>2026-04-28T13:48:54Z</time></trkpt><trkpt lat="38.04048714811757" lon="15.362028902825852"><ele>433.99999999999994</ele><time>2026-04-28T13:48:56Z</time></trkpt><trkpt lat="38.0404910734386" lon="15.36192347653908"><ele>434.0</ele><time>2026-04-28T13:48:58Z</time></trkpt><trkpt lat="38.04051205078718" lon="15.361845582274686"><ele>434.0</ele><time>2026-04-28T13:49:01Z</time></trkpt><trkpt lat="38.04043853136054" lon="15.361896815460849"><ele>434.0</ele><time>2026-04-28T13:49:07Z</time></trkpt><trkpt lat="38.04039687375394" lon="15.362046794571317"><ele>433.99999999999994</ele><time>2026-04-28T13:49:09Z</time></trkpt><trkpt lat="38.040397398853706" lon="15.362146678223965"><ele>434.0</ele><time>2026-04-28T13:49:10Z</time></trkpt><trkpt lat="38.040375082701445" lon="15.362280959308265"><ele>434.0</ele><time>2026-04-28T13:49:12Z</time></trkpt><trkpt lat="38.04034408931291" lon="15.362353573013985"><ele>434.0</ele><time>2026-04-28T13:49:25Z</time></trkpt><trkpt lat="38.04030688149681" lon="15.362433536834105"><ele>434.0</ele><time>2026-04-28T13:49:54.999Z</time></trkpt><trkpt lat="38.0402929079015" lon="15.362530819552866"><ele>434.0</ele><time>2026-04-28T13:50:14.999Z</time></trkpt><trkpt lat="38.04022199578258" lon="15.36269319406638"><ele>434.0</ele><time>2026-04-28T13:50:16.999Z</time></trkpt><trkpt lat="38.040181013183435" lon="15.362796420636212"><ele>433.99999999999994</ele><time>2026-04-28T13:50:17.999Z</time></trkpt><trkpt lat="38.04013588190095" lon="15.362893448013665"><ele>434.0</ele><time>2026-04-28T13:50:18.999Z</time></trkpt><trkpt lat="38.04008403205239" lon="15.362979167430383"><ele>434.0</ele><time>2026-04-28T13:50:19.999Z</time></trkpt><trkpt lat="38.04003238627458" lon="15.363065306946957"><ele>434.0</ele><time>2026-04-28T13:50:20.999Z</time></trkpt><trkpt lat="38.039986251309244" lon="15.363154678063093"><ele>433.99999999999994</ele><time>2026-04-28T13:50:21.999Z</time></trkpt><trkpt lat="38.039927518322905" lon="15.363227766201499"><ele>434.0</ele><time>2026-04-28T13:50:22.999Z</time></trkpt><trkpt lat="38.039836025845574" lon="15.363289903544176"><ele>437.4</ele><time>2026-04-28T13:50:23.999Z</time></trkpt><trkpt lat="38.03975670264279" lon="15.363369746457106"><ele>440.79999999999995</ele><time>2026-04-28T13:50:24.999Z</time></trkpt><trkpt lat="38.0397293380462" lon="15.363470050976002"><ele>444.20000000000005</ele><time>2026-04-28T13:50:25.999Z</time></trkpt><trkpt lat="38.039694556862834" lon="15.363614371285722"><ele>447.6</ele><time>2026-04-28T13:50:26.999Z</time></trkpt><trkpt lat="38.03967676976635" lon="15.363769203183073"><ele>451.0</ele><time>2026-04-28T13:50:27.999Z</time></trkpt><trkpt lat="38.039662452326894" lon="15.363925047353982"><ele>451.0</ele><time>2026-04-28T13:50:28.999Z</time></trkpt><trkpt lat="38.039642483662405" lon="15.364093525737056"><ele>451.0</ele><time>2026-04-28T13:50:29.999Z</time></trkpt><trkpt lat="38.03961737237467" lon="15.364267399027632"><ele>451.0</ele><time>2026-04-28T13:50:30.999Z</time></trkpt><trkpt lat="38.03960465743551" lon="15.364431958227147"><ele>451.0</ele><time>2026-04-28T13:50:31.999Z</time></trkpt><trkpt lat="38.03961162627142" lon="15.36459536893842"><ele>447.0</ele><time>2026-04-28T13:50:32.999Z</time></trkpt><trkpt lat="38.03961634783811" lon="15.364759660543951"><ele>443.0</ele><time>2026-04-28T13:50:33.999Z</time></trkpt><trkpt lat="38.0396313700534" lon="15.364900755670805"><ele>439.0</ele><time>2026-04-28T13:50:34.999Z</time></trkpt><trkpt lat="38.03963169931814" lon="15.365027459199075"><ele>435.0</ele><time>2026-04-28T13:50:35.999Z</time></trkpt><trkpt lat="38.039620593058544" lon="15.365143117482642"><ele>431.0</ele><time>2026-04-28T13:50:37Z</time></trkpt><trkpt lat="38.03961967152882" lon="15.365236030340341"><ele>430.99999999999994</ele><time>2026-04-28T13:50:38Z</time></trkpt><trkpt lat="38.03963603764863" lon="15.365316785365113"><ele>431.0</ele><time>2026-04-28T13:50:39Z</time></trkpt><trkpt lat="38.039675028922076" lon="15.36538975491426"><ele>431.0</ele><time>2026-04-28T13:50:40Z</time></trkpt><trkpt lat="38.03976493293876" lon="15.36547819059452"><ele>431.0</ele><time>2026-04-28T13:50:41Z</time></trkpt><trkpt lat="38.039842879754055" lon="15.36556173080521"><ele>430.99999999999994</ele><time>2026-04-28T13:50:42Z</time></trkpt><trkpt lat="38.03989164470166" lon="15.365623155330345"><ele>431.0</ele><time>2026-04-28T13:50:43Z</time></trkpt><trkpt lat="38.03981915947088" lon="15.365731856081556"><ele>425.6</ele><time>2026-04-28T13:50:46Z</time></trkpt><trkpt lat="38.039721130789616" lon="15.365737191339568"><ele>420.20000000000005</ele><time>2026-04-28T13:50:47Z</time></trkpt><trkpt lat="38.03960717596812" lon="15.365719257069316"><ele>414.79999999999995</ele><time>2026-04-28T13:50:48Z</time></trkpt><trkpt lat="38.03950093282829" lon="15.365696123296502"><ele>409.4</ele><time>2026-04-28T13:50:49Z</time></trkpt><trkpt lat="38.039394180004855" lon="15.365659990952766"><ele>404.0</ele><time>2026-04-28T13:50:50Z</time></trkpt><trkpt lat="38.03929222696883" lon="15.365638952094104"><ele>404.0</ele><time>2026-04-28T13:50:51Z</time></trkpt><trkpt lat="38.03919387441247" lon="15.365637601788784"><ele>404.0</ele><time>2026-04-28T13:50:52Z</time></trkpt><trkpt lat="38.03908727244983" lon="15.36562360765209"><ele>404.0</ele><time>2026-04-28T13:50:53Z</time></trkpt><trkpt lat="38.03899063484288" lon="15.365590230177878"><ele>404.0</ele><time>2026-04-28T13:50:54Z</time></trkpt><trkpt lat="38.038900093882944" lon="15.36555978131873"><ele>404.0</ele><time>2026-04-28T13:50:55Z</time></trkpt><trkpt lat="38.03883055252905" lon="15.365516992690761"><ele>404.6</ele><time>2026-04-28T13:50:56Z</time></trkpt><trkpt lat="38.03874166750632" lon="15.36552596676223"><ele>405.2</ele><time>2026-04-28T13:50:58Z</time></trkpt><trkpt lat="38.03870361778049" lon="15.36560440785223"><ele>405.8</ele><time>2026-04-28T13:50:59Z</time></trkpt><trkpt lat="38.03864944836984" lon="15.365711276848648"><ele>406.40000000000003</ele><time>2026-04-28T13:51:00Z</time></trkpt><trkpt lat="38.03858882294661" lon="15.365792388620997"><ele>407.0</ele><time>2026-04-28T13:51:01Z</time></trkpt><trkpt lat="38.038510458546774" lon="15.365876859179853"><ele>406.99999999999994</ele><time>2026-04-28T13:51:02Z</time></trkpt><trkpt lat="38.038436457068116" lon="15.365935829642114"><ele>407.0</ele><time>2026-04-28T13:51:03Z</time></trkpt><trkpt lat="38.03837120618678" lon="15.365984495172103"><ele>407.0</ele><time>2026-04-28T13:51:04Z</time></trkpt><trkpt lat="38.03830599812705" lon="15.366024409338301"><ele>407.0</ele><time>2026-04-28T13:51:05Z</time></trkpt><trkpt lat="38.0382301450933" lon="15.366049351478612"><ele>406.99999999999994</ele><time>2026-04-28T13:51:06Z</time></trkpt><trkpt lat="38.03812365143261" lon="15.366055771204373"><ele>407.0</ele><time>2026-04-28T13:51:07Z</time></trkpt><trkpt lat="38.03801858261516" lon="15.366067616553797"><ele>404.99999999999994</ele><time>2026-04-28T13:51:08Z</time></trkpt><trkpt lat="38.03792742101312" lon="15.366076404303938"><ele>403.0</ele><time>2026-04-28T13:51:09Z</time></trkpt><trkpt lat="38.03784953530684" lon="15.366095924975724"><ele>401.0</ele><time>2026-04-28T13:51:10Z</time></trkpt><trkpt lat="38.037779324832634" lon="15.36610948689125"><ele>399.0</ele><time>2026-04-28T13:51:11Z</time></trkpt><trkpt lat="38.037704944562414" lon="15.36609843570657"><ele>396.99999999999994</ele><time>2026-04-28T13:51:12Z</time></trkpt><trkpt lat="38.03762187913741" lon="15.366051946816532"><ele>395.0</ele><time>2026-04-28T13:51:13Z</time></trkpt><trkpt lat="38.03754781338602" lon="15.36597657682011"><ele>395.0</ele><time>2026-04-28T13:51:14Z</time></trkpt><trkpt lat="38.03747773172391" lon="15.365882009084437"><ele>395.0</ele><time>2026-04-28T13:51:15Z</time></trkpt><trkpt lat="38.037397881566186" lon="15.36576612524745"><ele>395.0</ele><time>2026-04-28T13:51:16Z</time></trkpt><trkpt lat="38.03732294396896" lon="15.365649846107457"><ele>395.0</ele><time>2026-04-28T13:51:17Z</time></trkpt><trkpt lat="38.037264476307115" lon="15.365551629717498"><ele>395.0</ele><time>2026-04-28T13:51:18Z</time></trkpt><trkpt lat="38.03722247548374" lon="15.365465911733889"><ele>394.8333333333333</ele><time>2026-04-28T13:51:19Z</time></trkpt><trkpt lat="38.03718080068659" lon="15.365362839149022"><ele>394.66666666666663</ele><time>2026-04-28T13:51:20Z</time></trkpt><trkpt lat="38.03713166845254" lon="15.365268379838458"><ele>394.5</ele><time>2026-04-28T13:51:21Z</time></trkpt><trkpt lat="38.03708587070775" lon="15.365188970473039"><ele>394.33333333333337</ele><time>2026-04-28T13:51:22Z</time></trkpt><trkpt lat="38.03704993587373" lon="15.365115028018288"><ele>394.1666666666667</ele><time>2026-04-28T13:51:23Z</time></trkpt><trkpt lat="38.03704010826433" lon="15.36502729600001"><ele>394.0</ele><time>2026-04-28T13:51:24Z</time></trkpt><trkpt lat="38.03702509321469" lon="15.364931176763752"><ele>394.00000000000006</ele><time>2026-04-28T13:51:25Z</time></trkpt><trkpt lat="38.03698258590958" lon="15.36482634518737"><ele>394.0</ele><time>2026-04-28T13:51:26Z</time></trkpt><trkpt lat="38.03692424078664" lon="15.36472816131622"><ele>394.0</ele><time>2026-04-28T13:51:27Z</time></trkpt><trkpt lat="38.03687683080902" lon="15.364634498362822"><ele>394.0</ele><time>2026-04-28T13:51:28Z</time></trkpt><trkpt lat="38.036826686230384" lon="15.364575498726204"><ele>394.00000000000006</ele><time>2026-04-28T13:51:29Z</time></trkpt><trkpt lat="38.03674263083933" lon="15.364549147775278"><ele>394.0</ele><time>2026-04-28T13:51:30Z</time></trkpt><trkpt lat="38.036638015168045" lon="15.364549318830026"><ele>391.0</ele><time>2026-04-28T13:51:31Z</time></trkpt><trkpt lat="38.03652596194003" lon="15.364576832141047"><ele>388.0</ele><time>2026-04-28T13:51:32Z</time></trkpt><trkpt lat="38.03643429488133" lon="15.364617731980362"><ele>385.0</ele><time>2026-04-28T13:51:33Z</time></trkpt><trkpt lat="38.036362302867424" lon="15.364679360944397"><ele>382.0</ele><time>2026-04-28T13:51:34Z</time></trkpt><trkpt lat="38.03629816794911" lon="15.364777465159943"><ele>379.0</ele><time>2026-04-28T13:51:35Z</time></trkpt><trkpt lat="38.0362494932774" lon="15.364874672343662"><ele>379.0</ele><time>2026-04-28T13:51:36Z</time></trkpt><trkpt lat="38.03619765643079" lon="15.364933709624065"><ele>379.0</ele><time>2026-04-28T13:51:37Z</time></trkpt><trkpt lat="38.036114643614674" lon="15.364985106410453"><ele>379.0</ele><time>2026-04-28T13:51:38Z</time></trkpt><trkpt lat="38.03601962549622" lon="15.365024135399407"><ele>379.0</ele><time>2026-04-28T13:51:39Z</time></trkpt><trkpt lat="38.03593708243994" lon="15.36502942342683"><ele>379.0</ele><time>2026-04-28T13:51:40Z</time></trkpt><trkpt lat="38.03585052891879" lon="15.36500105359532"><ele>379.0</ele><time>2026-04-28T13:51:40.999Z</time></trkpt><trkpt lat="38.035757325285786" lon="15.364939947240392"><ele>381.4</ele><time>2026-04-28T13:51:41.999Z</time></trkpt><trkpt lat="38.035688709637355" lon="15.364856295594517"><ele>383.79999999999995</ele><time>2026-04-28T13:51:42.999Z</time></trkpt><trkpt lat="38.03564784634886" lon="15.364761269179638"><ele>386.20000000000005</ele><time>2026-04-28T13:51:43.999Z</time></trkpt><trkpt lat="38.03560521807064" lon="15.364631220758321"><ele>388.6</ele><time>2026-04-28T13:51:44.999Z</time></trkpt><trkpt lat="38.03555037876906" lon="15.364504631850599"><ele>391.0</ele><time>2026-04-28T13:51:45.999Z</time></trkpt><trkpt lat="38.03548848590045" lon="15.364432246644068"><ele>391.0</ele><time>2026-04-28T13:51:46.999Z</time></trkpt><trkpt lat="38.03542869941331" lon="15.364398728794367"><ele>391.0</ele><time>2026-04-28T13:51:47.999Z</time></trkpt><trkpt lat="38.035323315008974" lon="15.36439720805212"><ele>391.0</ele><time>2026-04-28T13:51:49.999Z</time></trkpt><trkpt lat="38.03522734712349" lon="15.364513140748292"><ele>391.0</ele><time>2026-04-28T13:51:51.999Z</time></trkpt><trkpt lat="38.03519224222935" lon="15.364648407010389"><ele>391.0</ele><time>2026-04-28T13:51:52.999Z</time></trkpt><trkpt lat="38.035154138701785" lon="15.364777779487563"><ele>391.0</ele><time>2026-04-28T13:51:53.999Z</time></trkpt><trkpt lat="38.035096019507186" lon="15.364834704323151"><ele>391.0</ele><time>2026-04-28T13:51:54.999Z</time></trkpt><trkpt lat="38.03502480904904" lon="15.364920005363603"><ele>391.0</ele><time>2026-04-28T13:51:56.999Z</time></trkpt><trkpt lat="38.034992599197075" lon="15.365127001211512"><ele>391.0</ele><time>2026-04-28T13:51:58.999Z</time></trkpt><trkpt lat="38.03501655421271" lon="15.36526851081246"><ele>391.0</ele><time>2026-04-28T13:51:59.999Z</time></trkpt><trkpt lat="38.035034277398054" lon="15.3654104053105"><ele>391.0</ele><time>2026-04-28T13:52:00.999Z</time></trkpt><trkpt lat="38.035045580421375" lon="15.365523119480173"><ele>391.0</ele><time>2026-04-28T13:52:01.999Z</time></trkpt><trkpt lat="38.035041222845564" lon="15.365635146419987"><ele>391.0</ele><time>2026-04-28T13:52:02.999Z</time></trkpt><trkpt lat="38.03505276922677" lon="15.365753150841792"><ele>391.0</ele><time>2026-04-28T13:52:03.999Z</time></trkpt><trkpt lat="38.03507883883362" lon="15.365851195044995"><ele>389.6666666666667</ele><time>2026-04-28T13:52:04.999Z</time></trkpt><trkpt lat="38.035092753026646" lon="15.365944964184436"><ele>388.33333333333337</ele><time>2026-04-28T13:52:05.999Z</time></trkpt><trkpt lat="38.03510788091507" lon="15.36602645921052"><ele>387.0</ele><time>2026-04-28T13:52:06.999Z</time></trkpt><trkpt lat="38.035081514011374" lon="15.366161843816993"><ele>385.6666666666667</ele><time>2026-04-28T13:52:08.999Z</time></trkpt><trkpt lat="38.0350353980147" lon="15.366220446988091"><ele>384.33333333333337</ele><time>2026-04-28T13:52:09.999Z</time></trkpt><trkpt lat="38.03499357805824" lon="15.366293979918716"><ele>383.0</ele><time>2026-04-28T13:52:10.999Z</time></trkpt><trkpt lat="38.0349840813132" lon="15.366382297861584"><ele>384.0</ele><time>2026-04-28T13:52:11.999Z</time></trkpt><trkpt lat="38.03499778840739" lon="15.366483707571007"><ele>385.0</ele><time>2026-04-28T13:52:12.999Z</time></trkpt><trkpt lat="38.03503445089062" lon="15.36657734383166"><ele>386.0</ele><time>2026-04-28T13:52:13.999Z</time></trkpt><trkpt lat="38.035062043741334" lon="15.36671369795055"><ele>387.0</ele><time>2026-04-28T13:52:15.999Z</time></trkpt><trkpt lat="38.03498139796967" lon="15.366804851055315"><ele>388.0</ele><time>2026-04-28T13:52:17.999Z</time></trkpt><trkpt lat="38.03488987027205" lon="15.366859483470808"><ele>388.0</ele><time>2026-04-28T13:52:18.999Z</time></trkpt><trkpt lat="38.034795546388914" lon="15.366939591358195"><ele>388.0</ele><time>2026-04-28T13:52:19.999Z</time></trkpt><trkpt lat="38.034722095240035" lon="15.367024365320974"><ele>388.0</ele><time>2026-04-28T13:52:20.999Z</time></trkpt><trkpt lat="38.03467179898499" lon="15.367149876433356"><ele>388.0</ele><time>2026-04-28T13:52:21.999Z</time></trkpt><trkpt lat="38.03463127434189" lon="15.367250747163844"><ele>388.0</ele><time>2026-04-28T13:52:22.999Z</time></trkpt><trkpt lat="38.03458381718885" lon="15.367313182919803"><ele>382.33333333333337</ele><time>2026-04-28T13:52:23.999Z</time></trkpt><trkpt lat="38.03452353190251" lon="15.367363424535112"><ele>376.6666666666667</ele><time>2026-04-28T13:52:24.999Z</time></trkpt><trkpt lat="38.034444347056926" lon="15.367399918370184"><ele>371.0</ele><time>2026-04-28T13:52:25.999Z</time></trkpt><trkpt lat="38.034385826171274" lon="15.367470828531314"><ele>365.33333333333337</ele><time>2026-04-28T13:52:26.999Z</time></trkpt><trkpt lat="38.03435851628976" lon="15.367575843934075"><ele>359.6666666666667</ele><time>2026-04-28T13:52:27.999Z</time></trkpt><trkpt lat="38.03433663930229" lon="15.367684293929972"><ele>354.0</ele><time>2026-04-28T13:52:28.999Z</time></trkpt><trkpt lat="38.03431179968842" lon="15.367764988187616"><ele>354.0</ele><time>2026-04-28T13:52:29.999Z</time></trkpt><trkpt lat="38.034230629485556" lon="15.36783414723568"><ele>354.0</ele><time>2026-04-28T13:52:31.999Z</time></trkpt><trkpt lat="38.0341695460994" lon="15.367804247858025"><ele>354.0</ele><time>2026-04-28T13:52:32.999Z</time></trkpt><trkpt lat="38.034091534355625" lon="15.367749283615433"><ele>354.0</ele><time>2026-04-28T13:52:33.999Z</time></trkpt><trkpt lat="38.03401184914048" lon="15.36769429467893"><ele>354.0</ele><time>2026-04-28T13:52:34.999Z</time></trkpt><trkpt lat="38.03392098332074" lon="15.36764743516964"><ele>354.0</ele><time>2026-04-28T13:52:35.999Z</time></trkpt><trkpt lat="38.033827439419056" lon="15.367621783546493"><ele>350.0</ele><time>2026-04-28T13:52:36.999Z</time></trkpt><trkpt lat="38.033733534339724" lon="15.367635461713974"><ele>346.0</ele><time>2026-04-28T13:52:37.999Z</time></trkpt><trkpt lat="38.03364043449237" lon="15.367660152680653"><ele>342.0</ele><time>2026-04-28T13:52:38.999Z</time></trkpt><trkpt lat="38.033569475418645" lon="15.367659707654095"><ele>338.0</ele><time>2026-04-28T13:52:39.999Z</time></trkpt><trkpt lat="38.03345098265128" lon="15.367581246159855"><ele>334.0</ele><time>2026-04-28T13:52:42Z</time></trkpt><trkpt lat="38.033370114290776" lon="15.36750802291885"><ele>334.66666666666663</ele><time>2026-04-28T13:52:43Z</time></trkpt><trkpt lat="38.03329434571653" lon="15.367457021358108"><ele>335.3333333333333</ele><time>2026-04-28T13:52:44Z</time></trkpt><trkpt lat="38.03322392655152" lon="15.367407832667176"><ele>336.0</ele><time>2026-04-28T13:52:45Z</time></trkpt><trkpt lat="38.03316189706034" lon="15.367351908974044"><ele>336.6666666666667</ele><time>2026-04-28T13:52:46Z</time></trkpt><trkpt lat="38.033074413847174" lon="15.367269747441716"><ele>337.33333333333337</ele><time>2026-04-28T13:52:48Z</time></trkpt><trkpt lat="38.03299295318965" lon="15.367333140332828"><ele>338.0</ele><time>2026-04-28T13:52:50Z</time></trkpt><trkpt lat="38.032977506155945" lon="15.36742913353063"><ele>338.0</ele><time>2026-04-28T13:52:51Z</time></trkpt><trkpt lat="38.03299161278314" lon="15.367541208173037"><ele>338.0</ele><time>2026-04-28T13:52:52Z</time></trkpt><trkpt lat="38.03299827847354" lon="15.367639964252495"><ele>338.0</ele><time>2026-04-28T13:52:53Z</time></trkpt><trkpt lat="38.03297933418177" lon="15.367719086438262"><ele>338.0</ele><time>2026-04-28T13:52:54Z</time></trkpt><trkpt lat="38.03292063926094" lon="15.367785919792276"><ele>338.0</ele><time>2026-04-28T13:52:55Z</time></trkpt><trkpt lat="38.032844278990936" lon="15.367844989472022"><ele>338.0</ele><time>2026-04-28T13:52:56Z</time></trkpt><trkpt lat="38.032759540296176" lon="15.367897957889053"><ele>338.0</ele><time>2026-04-28T13:52:57Z</time></trkpt><trkpt lat="38.0326895963995" lon="15.367950283600734"><ele>338.0</ele><time>2026-04-28T13:52:58Z</time></trkpt><trkpt lat="38.032605010762786" lon="15.367981529776147"><ele>338.0</ele><time>2026-04-28T13:52:59Z</time></trkpt><trkpt lat="38.032521388555324" lon="15.368003276657062"><ele>338.0</ele><time>2026-04-28T13:53:00Z</time></trkpt><trkpt lat="38.032450658116886" lon="15.368043072514327"><ele>338.0</ele><time>2026-04-28T13:53:01Z</time></trkpt><trkpt lat="38.03240165587748" lon="15.368118223455559"><ele>338.0</ele><time>2026-04-28T13:53:02Z</time></trkpt><trkpt lat="38.03236702353491" lon="15.36823072455139"><ele>338.83333333333337</ele><time>2026-04-28T13:53:03Z</time></trkpt><trkpt lat="38.032330419825676" lon="15.368342876217836"><ele>339.6666666666667</ele><time>2026-04-28T13:53:04Z</time></trkpt><trkpt lat="38.03227229431044" lon="15.368414974863029"><ele>340.5</ele><time>2026-04-28T13:53:05Z</time></trkpt><trkpt lat="38.032196084745635" lon="15.36847216776792"><ele>341.3333333333333</ele><time>2026-04-28T13:53:06Z</time></trkpt><trkpt lat="38.032112777791475" lon="15.368530397022276"><ele>342.16666666666663</ele><time>2026-04-28T13:53:07Z</time></trkpt><trkpt lat="38.03203881354338" lon="15.368581368926845"><ele>343.0</ele><time>2026-04-28T13:53:08Z</time></trkpt><trkpt lat="38.03196570685377" lon="15.36864177774531"><ele>343.0</ele><time>2026-04-28T13:53:09Z</time></trkpt><trkpt lat="38.03189889550301" lon="15.368707952966563"><ele>343.0</ele><time>2026-04-28T13:53:10Z</time></trkpt><trkpt lat="38.031840126531904" lon="15.368785462139153"><ele>343.0</ele><time>2026-04-28T13:53:11Z</time></trkpt><trkpt lat="38.03178324937634" lon="15.368867527102951"><ele>343.0</ele><time>2026-04-28T13:53:12Z</time></trkpt><trkpt lat="38.031735509454265" lon="15.368990482343257"><ele>343.0</ele><time>2026-04-28T13:53:13Z</time></trkpt><trkpt lat="38.03168159030796" lon="15.369102623815872"><ele>343.2</ele><time>2026-04-28T13:53:14Z</time></trkpt><trkpt lat="38.03165667833732" lon="15.36922113172725"><ele>343.4</ele><time>2026-04-28T13:53:15Z</time></trkpt><trkpt lat="38.03161987340014" lon="15.369325985747322"><ele>343.59999999999997</ele><time>2026-04-28T13:53:16Z</time></trkpt><trkpt lat="38.03156110521751" lon="15.36940867612073"><ele>343.79999999999995</ele><time>2026-04-28T13:53:17Z</time></trkpt><trkpt lat="38.0315098122782" lon="15.369504654283356"><ele>344.0</ele><time>2026-04-28T13:53:18Z</time></trkpt><trkpt lat="38.03145095616454" lon="15.369630630182842"><ele>337.0</ele><time>2026-04-28T13:53:19Z</time></trkpt><trkpt lat="38.031372397061354" lon="15.369766462639005"><ele>330.0</ele><time>2026-04-28T13:53:20Z</time></trkpt><trkpt lat="38.03129521860932" lon="15.369899412717734"><ele>323.0</ele><time>2026-04-28T13:53:21Z</time></trkpt><trkpt lat="38.03122810043445" lon="15.370023233116491"><ele>316.0</ele><time>2026-04-28T13:53:22Z</time></trkpt><trkpt lat="38.03116593543985" lon="15.37013469899866"><ele>316.0</ele><time>2026-04-28T13:53:23Z</time></trkpt><trkpt lat="38.0311198003964" lon="15.37022923753528"><ele>316.0</ele><time>2026-04-28T13:53:24Z</time></trkpt><trkpt lat="38.031076251682165" lon="15.370290759958488"><ele>316.0</ele><time>2026-04-28T13:53:25Z</time></trkpt><trkpt lat="38.03103156775431" lon="15.370369920169475"><ele>316.0</ele><time>2026-04-28T13:53:27Z</time></trkpt><trkpt lat="38.03101348583542" lon="15.370463556681933"><ele>316.0</ele><time>2026-04-28T13:53:32Z</time></trkpt><trkpt lat="38.031010796088445" lon="15.370594735142928"><ele>316.0</ele><time>2026-04-28T13:53:36Z</time></trkpt><trkpt lat="38.031018386070656" lon="15.370687214445129"><ele>312.16666666666663</ele><time>2026-04-28T13:53:37Z</time></trkpt><trkpt lat="38.03101360400797" lon="15.370790487542811"><ele>308.3333333333333</ele><time>2026-04-28T13:53:37.999Z</time></trkpt><trkpt lat="38.03100154292304" lon="15.370880128204789"><ele>304.5</ele><time>2026-04-28T13:53:38.999Z</time></trkpt><trkpt lat="38.03098685384867" lon="15.370992384176906"><ele>300.6666666666667</ele><time>2026-04-28T13:53:39.999Z</time></trkpt><trkpt lat="38.03097277597102" lon="15.371104970130858"><ele>296.83333333333337</ele><time>2026-04-28T13:53:40.999Z</time></trkpt><trkpt lat="38.03094863872155" lon="15.371196582757229"><ele>293.0</ele><time>2026-04-28T13:53:41.999Z</time></trkpt><trkpt lat="38.03090354429202" lon="15.371265148027964"><ele>293.0</ele><time>2026-04-28T13:53:42.999Z</time></trkpt><trkpt lat="38.03085423177992" lon="15.371316399132782"><ele>293.0</ele><time>2026-04-28T13:53:43.999Z</time></trkpt><trkpt lat="38.03079049633773" lon="15.371338635234062"><ele>293.0</ele><time>2026-04-28T13:53:44.999Z</time></trkpt><trkpt lat="38.030707588669024" lon="15.371338156355469"><ele>293.0</ele><time>2026-04-28T13:53:45.999Z</time></trkpt><trkpt lat="38.03060674502036" lon="15.371322962971039"><ele>293.0</ele><time>2026-04-28T13:53:46.999Z</time></trkpt><trkpt lat="38.030491278017685" lon="15.37130072692203"><ele>293.0</ele><time>2026-04-28T13:53:47.999Z</time></trkpt><trkpt lat="38.03036911287898" lon="15.371295238951907"><ele>292.8</ele><time>2026-04-28T13:53:48.999Z</time></trkpt><trkpt lat="38.030248143253175" lon="15.37131083994021"><ele>292.6</ele><time>2026-04-28T13:53:49.999Z</time></trkpt><trkpt lat="38.030141027763" lon="15.371336649823972"><ele>292.4</ele><time>2026-04-28T13:53:50.999Z</time></trkpt><trkpt lat="38.03004429098185" lon="15.371384730071817"><ele>292.2</ele><time>2026-04-28T13:53:51.999Z</time></trkpt><trkpt lat="38.029955271103915" lon="15.371448921287922"><ele>292.0</ele><time>2026-04-28T13:53:52.999Z</time></trkpt><trkpt lat="38.02988387812575" lon="15.37154493038179"><ele>284.0</ele><time>2026-04-28T13:53:53.999Z</time></trkpt><trkpt lat="38.029820687972844" lon="15.371645867907638"><ele>276.0</ele><time>2026-04-28T13:53:54.999Z</time></trkpt><trkpt lat="38.02975615420407" lon="15.371751586095321"><ele>268.0</ele><time>2026-04-28T13:53:55.999Z</time></trkpt><trkpt lat="38.02969232657868" lon="15.37185132624861"><ele>260.0</ele><time>2026-04-28T13:53:56.999Z</time></trkpt><trkpt lat="38.02963038754378" lon="15.371939658669552"><ele>252.0</ele><time>2026-04-28T13:53:57.999Z</time></trkpt><trkpt lat="38.02957438611005" lon="15.372014393784816"><ele>252.0</ele><time>2026-04-28T13:53:58.999Z</time></trkpt><trkpt lat="38.02952876321705" lon="15.372083152011415"><ele>252.0</ele><time>2026-04-28T13:53:59.999Z</time></trkpt><trkpt lat="38.02944034058907" lon="15.37215885936968"><ele>252.0</ele><time>2026-04-28T13:54:01.999Z</time></trkpt><trkpt lat="38.029331229513424" lon="15.372077260610673"><ele>252.0</ele><time>2026-04-28T13:54:03.999Z</time></trkpt><trkpt lat="38.02927287756966" lon="15.371966859865914"><ele>252.0</ele><time>2026-04-28T13:54:04.999Z</time></trkpt><trkpt lat="38.02921505780348" lon="15.371857324076498"><ele>252.0</ele><time>2026-04-28T13:54:05.999Z</time></trkpt><trkpt lat="38.02915313365431" lon="15.371749928511617"><ele>252.0</ele><time>2026-04-28T13:54:06.999Z</time></trkpt><trkpt lat="38.02909692767327" lon="15.371629928197187"><ele>252.0</ele><time>2026-04-28T13:54:07.999Z</time></trkpt><trkpt lat="38.029048588808074" lon="15.371512843698865"><ele>252.0</ele><time>2026-04-28T13:54:08.999Z</time></trkpt><trkpt lat="38.029001502897685" lon="15.371428435812273"><ele>252.0</ele><time>2026-04-28T13:54:09.999Z</time></trkpt><trkpt lat="38.028938323106495" lon="15.371373613507906"><ele>253.39999999999998</ele><time>2026-04-28T13:54:10.999Z</time></trkpt><trkpt lat="38.02887594646011" lon="15.37132644298737"><ele>254.79999999999998</ele><time>2026-04-28T13:54:11.999Z</time></trkpt><trkpt lat="38.02882949740811" lon="15.371258055493367"><ele>256.2</ele><time>2026-04-28T13:54:12.999Z</time></trkpt><trkpt lat="38.02878140379198" lon="15.37114794432444"><ele>257.59999999999997</ele><time>2026-04-28T13:54:13.999Z</time></trkpt><trkpt lat="38.02873110512898" lon="15.37100337816491"><ele>259.0</ele><time>2026-04-28T13:54:14.999Z</time></trkpt><trkpt lat="38.028683244029324" lon="15.370852523894674"><ele>259.0</ele><time>2026-04-28T13:54:15.999Z</time></trkpt><trkpt lat="38.028647121110794" lon="15.37069488733913"><ele>259.0</ele><time>2026-04-28T13:54:16.999Z</time></trkpt><trkpt lat="38.028626877148845" lon="15.370543543311404"><ele>259.0</ele><time>2026-04-28T13:54:17.999Z</time></trkpt><trkpt lat="38.028613402668384" lon="15.370383329536823"><ele>259.0</ele><time>2026-04-28T13:54:18.999Z</time></trkpt><trkpt lat="38.02861456670619" lon="15.370231696480843"><ele>260.2</ele><time>2026-04-28T13:54:19.999Z</time></trkpt><trkpt lat="38.02860778752128" lon="15.370092108743009"><ele>261.4</ele><time>2026-04-28T13:54:20.999Z</time></trkpt><trkpt lat="38.02861178737414" lon="15.369966450841778"><ele>262.6</ele><time>2026-04-28T13:54:21.999Z</time></trkpt><trkpt lat="38.02862175122531" lon="15.369830792385669"><ele>263.8</ele><time>2026-04-28T13:54:22.999Z</time></trkpt><trkpt lat="38.02861650549962" lon="15.369713186627873"><ele>265.0</ele><time>2026-04-28T13:54:23.999Z</time></trkpt><trkpt lat="38.02861838636574" lon="15.369628487397039"><ele>266.4</ele><time>2026-04-28T13:54:24.999Z</time></trkpt><trkpt lat="38.02865128991812" lon="15.369555062727052"><ele>267.8</ele><time>2026-04-28T13:54:25.999Z</time></trkpt><trkpt lat="38.02868523026524" lon="15.369469753476865"><ele>269.2</ele><time>2026-04-28T13:54:26.999Z</time></trkpt><trkpt lat="38.02869779573164" lon="15.369352761142583"><ele>270.6</ele><time>2026-04-28T13:54:27.999Z</time></trkpt><trkpt lat="38.028715246384735" lon="15.369205025343044"><ele>272.0</ele><time>2026-04-28T13:54:28.999Z</time></trkpt><trkpt lat="38.02872380417633" lon="15.369056282107639"><ele>272.0</ele><time>2026-04-28T13:54:29.999Z</time></trkpt><trkpt lat="38.02874356406959" lon="15.368927733599758"><ele>272.0</ele><time>2026-04-28T13:54:30.999Z</time></trkpt><trkpt lat="38.028754282224355" lon="15.368796129501677"><ele>272.0</ele><time>2026-04-28T13:54:31.999Z</time></trkpt><trkpt lat="38.02875724858563" lon="15.368661051738535"><ele>272.0</ele><time>2026-04-28T13:54:32.999Z</time></trkpt><trkpt lat="38.02876173918701" lon="15.368531911102407"><ele>272.0</ele><time>2026-04-28T13:54:33.999Z</time></trkpt><trkpt lat="38.028790944862855" lon="15.368397321280419"><ele>273.5</ele><time>2026-04-28T13:54:34.999Z</time></trkpt><trkpt lat="38.02882266226605" lon="15.368232798145142"><ele>275.0</ele><time>2026-04-28T13:54:35.999Z</time></trkpt><trkpt lat="38.0288586571852" lon="15.368078170266475"><ele>276.5</ele><time>2026-04-28T13:54:36.999Z</time></trkpt><trkpt lat="38.02890218263136" lon="15.367926854017954"><ele>278.0</ele><time>2026-04-28T13:54:37.999Z</time></trkpt><trkpt lat="38.02894264459856" lon="15.367767632860284"><ele>280.0</ele><time>2026-04-28T13:54:38.999Z</time></trkpt><trkpt lat="38.02898239768223" lon="15.367613651183937"><ele>282.0</ele><time>2026-04-28T13:54:39.999Z</time></trkpt><trkpt lat="38.0290108030822" lon="15.367488407413093"><ele>284.0</ele><time>2026-04-28T13:54:40.999Z</time></trkpt><trkpt lat="38.02903319068647" lon="15.367390622447184"><ele>286.0</ele><time>2026-04-28T13:54:41.999Z</time></trkpt><trkpt lat="38.0290430950101" lon="15.367309445924507"><ele>288.0</ele><time>2026-04-28T13:54:42.999Z</time></trkpt><trkpt lat="38.02904886646993" lon="15.367191704575504"><ele>293.6</ele><time>2026-04-28T13:54:43.999Z</time></trkpt><trkpt lat="38.02905319218361" lon="15.367051255863288"><ele>299.20000000000005</ele><time>2026-04-28T13:54:44.999Z</time></trkpt><trkpt lat="38.02905003890293" lon="15.366919223162759"><ele>304.8</ele><time>2026-04-28T13:54:45.999Z</time></trkpt><trkpt lat="38.02903622152664" lon="15.366787729726903"><ele>310.40000000000003</ele><time>2026-04-28T13:54:47Z</time></trkpt><trkpt lat="38.02903434194417" lon="15.366659706325272"><ele>316.0</ele><time>2026-04-28T13:54:48Z</time></trkpt><trkpt lat="38.029043498800995" lon="15.36654112003769"><ele>316.0</ele><time>2026-04-28T13:54:49Z</time></trkpt><trkpt lat="38.029057046590076" lon="15.366400446448637"><ele>316.0</ele><time>2026-04-28T13:54:50Z</time></trkpt><trkpt lat="38.02907194860488" lon="15.366259135853875"><ele>316.0</ele><time>2026-04-28T13:54:51Z</time></trkpt><trkpt lat="38.029083581645686" lon="15.366137442530547"><ele>316.0</ele><time>2026-04-28T13:54:52Z</time></trkpt><trkpt lat="38.02909879731617" lon="15.366004367205768"><ele>316.0</ele><time>2026-04-28T13:54:53Z</time></trkpt><trkpt lat="38.02910018939889" lon="15.365890613656026"><ele>320.0</ele><time>2026-04-28T13:54:54Z</time></trkpt><trkpt lat="38.02909596661799" lon="15.365778355458568"><ele>324.0</ele><time>2026-04-28T13:54:55Z</time></trkpt><trkpt lat="38.02909220750473" lon="15.365657185993978"><ele>328.0</ele><time>2026-04-28T13:54:56Z</time></trkpt><trkpt lat="38.02910720659637" lon="15.365517121205654"><ele>332.0</ele><time>2026-04-28T13:54:57Z</time></trkpt><trkpt lat="38.029096986366916" lon="15.365388907883204"><ele>336.0</ele><time>2026-04-28T13:54:58Z</time></trkpt><trkpt lat="38.0290728970785" lon="15.36527728526496"><ele>336.6</ele><time>2026-04-28T13:54:59Z</time></trkpt><trkpt lat="38.029048195563384" lon="15.365180292185258"><ele>337.20000000000005</ele><time>2026-04-28T13:55:00Z</time></trkpt><trkpt lat="38.02904729884711" lon="15.365049810617418"><ele>337.79999999999995</ele><time>2026-04-28T13:55:02Z</time></trkpt><trkpt lat="38.029098512876516" lon="15.364876398368231"><ele>338.4</ele><time>2026-04-28T13:55:04Z</time></trkpt><trkpt lat="38.029122367962" lon="15.364751739522152"><ele>339.0</ele><time>2026-04-28T13:55:05Z</time></trkpt><trkpt lat="38.02914195890879" lon="15.36461806554915"><ele>336.8333333333333</ele><time>2026-04-28T13:55:06Z</time></trkpt><trkpt lat="38.02915154758163" lon="15.364515559365216"><ele>334.6666666666667</ele><time>2026-04-28T13:55:07Z</time></trkpt><trkpt lat="38.02914288084124" lon="15.364414965460297"><ele>332.5</ele><time>2026-04-28T13:55:08Z</time></trkpt><trkpt lat="38.02911342430087" lon="15.36431833143817"><ele>330.33333333333337</ele><time>2026-04-28T13:55:09Z</time></trkpt><trkpt lat="38.02907353431705" lon="15.364226931548114"><ele>328.1666666666667</ele><time>2026-04-28T13:55:10Z</time></trkpt><trkpt lat="38.029004790647136" lon="15.364116036679341"><ele>326.0</ele><time>2026-04-28T13:55:11Z</time></trkpt><trkpt lat="38.0289463818083" lon="15.36400103265601"><ele>325.8</ele><time>2026-04-28T13:55:12Z</time></trkpt><trkpt lat="38.02888430656483" lon="15.36386962358149"><ele>325.6</ele><time>2026-04-28T13:55:13Z</time></trkpt><trkpt lat="38.02879957483515" lon="15.363742920534643"><ele>325.4</ele><time>2026-04-28T13:55:14Z</time></trkpt><trkpt lat="38.028716912401784" lon="15.36365085953373"><ele>325.2</ele><time>2026-04-28T13:55:15Z</time></trkpt><trkpt lat="38.02864600598185" lon="15.363588248107327"><ele>325.0</ele><time>2026-04-28T13:55:16Z</time></trkpt><trkpt lat="38.02858472464311" lon="15.363544931625873"><ele>328.0</ele><time>2026-04-28T13:55:17Z</time></trkpt><trkpt lat="38.02848577140584" lon="15.363517263847497"><ele>331.0</ele><time>2026-04-28T13:55:18Z</time></trkpt><trkpt lat="38.028386629787235" lon="15.363522322529969"><ele>334.0</ele><time>2026-04-28T13:55:19Z</time></trkpt><trkpt lat="38.02829633105313" lon="15.363534321541216"><ele>337.0</ele><time>2026-04-28T13:55:20Z</time></trkpt><trkpt lat="38.02820435182748" lon="15.363537507909774"><ele>340.0</ele><time>2026-04-28T13:55:22Z</time></trkpt><trkpt lat="38.028128167860295" lon="15.36362259506843"><ele>340.2</ele><time>2026-04-28T13:55:24Z</time></trkpt><trkpt lat="38.02808373981647" lon="15.363709924289424"><ele>340.4</ele><time>2026-04-28T13:55:27Z</time></trkpt><trkpt lat="38.02798221036852" lon="15.363834915145244"><ele>340.6</ele><time>2026-04-28T13:55:29Z</time></trkpt><trkpt lat="38.027936724073605" lon="15.363902373160396"><ele>340.8</ele><time>2026-04-28T13:55:31Z</time></trkpt><trkpt lat="38.02783614443132" lon="15.36394468228593"><ele>341.0</ele><time>2026-04-28T13:55:33Z</time></trkpt><trkpt lat="38.027767713242554" lon="15.363966442917198"><ele>342.5</ele><time>2026-04-28T13:55:34Z</time></trkpt><trkpt lat="38.0277047664409" lon="15.363989803329645"><ele>344.0</ele><time>2026-04-28T13:55:35Z</time></trkpt><trkpt lat="38.02760980710508" lon="15.364031997791086"><ele>345.5</ele><time>2026-04-28T13:55:37Z</time></trkpt><trkpt lat="38.027495848546465" lon="15.364043198926456"><ele>347.0</ele><time>2026-04-28T13:55:39Z</time></trkpt><trkpt lat="38.02742399499364" lon="15.364043059004693"><ele>348.5</ele><time>2026-04-28T13:55:40Z</time></trkpt><trkpt lat="38.02734040993693" lon="15.364037608090804"><ele>350.0</ele><time>2026-04-28T13:55:41Z</time></trkpt><trkpt lat="38.02726663680716" lon="15.364030155246072"><ele>350.0</ele><time>2026-04-28T13:55:41.999Z</time></trkpt><trkpt lat="38.02720296709167" lon="15.364014625785993"><ele>350.0</ele><time>2026-04-28T13:55:42.999Z</time></trkpt><trkpt lat="38.02716173788574" lon="15.363901573198023"><ele>350.0</ele><time>2026-04-28T13:55:44.999Z</time></trkpt><trkpt lat="38.02714900770202" lon="15.363783977625166"><ele>350.0</ele><time>2026-04-28T13:55:46.999Z</time></trkpt><trkpt lat="38.02712296297831" lon="15.363704022503631"><ele>350.0</ele><time>2026-04-28T13:55:54.999Z</time></trkpt><trkpt lat="38.027028371254104" lon="15.363750339158274"><ele>350.0</ele><time>2026-04-28T13:55:57.999Z</time></trkpt><trkpt lat="38.02696723048797" lon="15.363896141883968"><ele>350.0</ele><time>2026-04-28T13:55:59.999Z</time></trkpt><trkpt lat="38.02689121902153" lon="15.36397149410251"><ele>350.0</ele><time>2026-04-28T13:56:01.999Z</time></trkpt><trkpt lat="38.02679244844908" lon="15.363941497064658"><ele>350.0</ele><time>2026-04-28T13:56:04.999Z</time></trkpt><trkpt lat="38.02667647565157" lon="15.363896303204736"><ele>350.0</ele><time>2026-04-28T13:56:06.999Z</time></trkpt><trkpt lat="38.026614866969986" lon="15.36387731004662"><ele>350.0</ele><time>2026-04-28T13:56:07.999Z</time></trkpt><trkpt lat="38.026546297505675" lon="15.363863836398563"><ele>354.6666666666667</ele><time>2026-04-28T13:56:08.999Z</time></trkpt><trkpt lat="38.0264721218392" lon="15.363837876089724"><ele>359.33333333333337</ele><time>2026-04-28T13:56:09.999Z</time></trkpt><trkpt lat="38.026403985595024" lon="15.363807607632305"><ele>364.0</ele><time>2026-04-28T13:56:10.999Z</time></trkpt><trkpt lat="38.02629090337498" lon="15.363814246925452"><ele>368.6666666666667</ele><time>2026-04-28T13:56:12.999Z</time></trkpt><trkpt lat="38.02619333685355" lon="15.36386558454941"><ele>373.3333333333333</ele><time>2026-04-28T13:56:14.999Z</time></trkpt><trkpt lat="38.02613073141456" lon="15.363904118897215"><ele>378.0</ele><time>2026-04-28T13:56:15.999Z</time></trkpt><trkpt lat="38.02605740929985" lon="15.363930914666676"><ele>378.0</ele><time>2026-04-28T13:56:16.999Z</time></trkpt><trkpt lat="38.025981936736244" lon="15.363952046128423"><ele>378.0</ele><time>2026-04-28T13:56:17.999Z</time></trkpt><trkpt lat="38.02586447712986" lon="15.363956884953685"><ele>378.0</ele><time>2026-04-28T13:56:19.999Z</time></trkpt><trkpt lat="38.034795546388914" lon="15.366939591358195"><ele>379.6666666666667</ele><time>2026-04-28T13:52:19.999Z</time></trkpt><trkpt lat="38.034722095240035" lon="15.367024365320974"><ele>381.33333333333337</ele><time>2026-04-28T13:52:20.999Z</time></trkpt><trkpt lat="38.03467179898499" lon="15.367149876433356"><ele>383.0</ele><time>2026-04-28T13:52:21.999Z</time></trkpt><trkpt lat="38.03463127434189" lon="15.367250747163844"><ele>384.6666666666667</ele><time>2026-04-28T13:52:22.999Z</time></trkpt><trkpt lat="38.03458381718885" lon="15.367313182919803"><ele>386.33333333333337</ele><time>2026-04-28T13:52:23.999Z</time></trkpt><trkpt lat="38.03452353190251" lon="15.367363424535112"><ele>388.0</ele><time>2026-04-28T13:52:24.999Z</time></trkpt><trkpt lat="38.034444347056926" lon="15.367399918370184"><ele>382.33333333333337</ele><time>2026-04-28T13:52:25.999Z</time></trkpt><trkpt lat="38.034385826171274" lon="15.367470828531314"><ele>376.6666666666667</ele><time>2026-04-28T13:52:26.999Z</time></trkpt><trkpt lat="38.03435851628976" lon="15.367575843934075"><ele>371.0</ele><time>2026-04-28T13:52:27.999Z</time></trkpt><trkpt lat="38.03433663930229" lon="15.367684293929972"><ele>365.33333333333337</ele><time>2026-04-28T13:52:28.999Z</time></trkpt><trkpt lat="38.03431179968842" lon="15.367764988187616"><ele>359.6666666666667</ele><time>2026-04-28T13:52:29.999Z</time></trkpt><trkpt lat="38.034230629485556" lon="15.36783414723568"><ele>354.0</ele><time>2026-04-28T13:52:31.999Z</time></trkpt><trkpt lat="38.0341695460994" lon="15.367804247858025"><ele>350.0</ele><time>2026-04-28T13:52:32.999Z</time></trkpt><trkpt lat="38.034091534355625" lon="15.367749283615433"><ele>346.0</ele><time>2026-04-28T13:52:33.999Z</time></trkpt><trkpt lat="38.03401184914048" lon="15.36769429467893"><ele>342.0</ele><time>2026-04-28T13:52:34.999Z</time></trkpt><trkpt lat="38.03392098332074" lon="15.36764743516964"><ele>338.0</ele><time>2026-04-28T13:52:35.999Z</time></trkpt><trkpt lat="38.033827439419056" lon="15.367621783546493"><ele>334.0</ele><time>2026-04-28T13:52:36.999Z</time></trkpt><trkpt lat="38.033733534339724" lon="15.367635461713974"><ele>334.0</ele><time>2026-04-28T13:52:37.999Z</time></trkpt><trkpt lat="38.03364043449237" lon="15.367660152680653"><ele>334.0</ele><time>2026-04-28T13:52:38.999Z</time></trkpt><trkpt lat="38.033569475418645" lon="15.367659707654095"><ele>334.0</ele><time>2026-04-28T13:52:39.999Z</time></trkpt><trkpt lat="38.03345098265128" lon="15.367581246159855"><ele>334.0</ele><time>2026-04-28T13:52:42Z</time></trkpt><trkpt lat="38.033370114290776" lon="15.36750802291885"><ele>334.0</ele><time>2026-04-28T13:52:43Z</time></trkpt><trkpt lat="38.03329434571653" lon="15.367457021358108"><ele>334.66666666666663</ele><time>2026-04-28T13:52:44Z</time></trkpt><trkpt lat="38.03322392655152" lon="15.367407832667176"><ele>335.3333333333333</ele><time>2026-04-28T13:52:45Z</time></trkpt><trkpt lat="38.03316189706034" lon="15.367351908974044"><ele>336.0</ele><time>2026-04-28T13:52:46Z</time></trkpt><trkpt lat="38.033074413847174" lon="15.367269747441716"><ele>336.6666666666667</ele><time>2026-04-28T13:52:48Z</time></trkpt><trkpt lat="38.03299295318965" lon="15.367333140332828"><ele>337.33333333333337</ele><time>2026-04-28T13:52:50Z</time></trkpt><trkpt lat="38.032977506155945" lon="15.36742913353063"><ele>338.0</ele><time>2026-04-28T13:52:51Z</time></trkpt><trkpt lat="38.03299161278314" lon="15.367541208173037"><ele>338.0</ele><time>2026-04-28T13:52:52Z</time></trkpt><trkpt lat="38.03299827847354" lon="15.367639964252495"><ele>338.0</ele><time>2026-04-28T13:52:53Z</time></trkpt><trkpt lat="38.03297933418177" lon="15.367719086438262"><ele>338.0</ele><time>2026-04-28T13:52:54Z</time></trkpt><trkpt lat="38.03292063926094" lon="15.367785919792276"><ele>338.0</ele><time>2026-04-28T13:52:55Z</time></trkpt><trkpt lat="38.032844278990936" lon="15.367844989472022"><ele>338.0</ele><time>2026-04-28T13:52:56Z</time></trkpt><trkpt lat="38.032759540296176" lon="15.367897957889053"><ele>338.0</ele><time>2026-04-28T13:52:57Z</time></trkpt><trkpt lat="38.0326895963995" lon="15.367950283600734"><ele>338.0</ele><time>2026-04-28T13:52:58Z</time></trkpt><trkpt lat="38.032605010762786" lon="15.367981529776147"><ele>338.0</ele><time>2026-04-28T13:52:59Z</time></trkpt><trkpt lat="38.032521388555324" lon="15.368003276657062"><ele>338.0</ele><time>2026-04-28T13:53:00Z</time></trkpt><trkpt lat="38.032450658116886" lon="15.368043072514327"><ele>338.0</ele><time>2026-04-28T13:53:01Z</time></trkpt><trkpt lat="38.03240165587748" lon="15.368118223455559"><ele>338.0</ele><time>2026-04-28T13:53:02Z</time></trkpt><trkpt lat="38.03236702353491" lon="15.36823072455139"><ele>338.0</ele><time>2026-04-28T13:53:03Z</time></trkpt><trkpt lat="38.032330419825676" lon="15.368342876217836"><ele>338.83333333333337</ele><time>2026-04-28T13:53:04Z</time></trkpt><trkpt lat="38.03227229431044" lon="15.368414974863029"><ele>339.6666666666667</ele><time>2026-04-28T13:53:05Z</time></trkpt><trkpt lat="38.032196084745635" lon="15.36847216776792"><ele>340.5</ele><time>2026-04-28T13:53:06Z</time></trkpt><trkpt lat="38.032112777791475" lon="15.368530397022276"><ele>341.3333333333333</ele><time>2026-04-28T13:53:07Z</time></trkpt><trkpt lat="38.03203881354338" lon="15.368581368926845"><ele>342.16666666666663</ele><time>2026-04-28T13:53:08Z</time></trkpt><trkpt lat="38.03196570685377" lon="15.36864177774531"><ele>343.0</ele><time>2026-04-28T13:53:09Z</time></trkpt><trkpt lat="38.03189889550301" lon="15.368707952966563"><ele>343.0</ele><time>2026-04-28T13:53:10Z</time></trkpt><trkpt lat="38.031840126531904" lon="15.368785462139153"><ele>343.0</ele><time>2026-04-28T13:53:11Z</time></trkpt><trkpt lat="38.03178324937634" lon="15.368867527102951"><ele>343.0</ele><time>2026-04-28T13:53:12Z</time></trkpt><trkpt lat="38.031735509454265" lon="15.368990482343257"><ele>343.0</ele><time>2026-04-28T13:53:13Z</time></trkpt><trkpt lat="38.03168159030796" lon="15.369102623815872"><ele>343.0</ele><time>2026-04-28T13:53:14Z</time></trkpt><trkpt lat="38.03165667833732" lon="15.36922113172725"><ele>343.2</ele><time>2026-04-28T13:53:15Z</time></trkpt><trkpt lat="38.03161987340014" lon="15.369325985747322"><ele>343.4</ele><time>2026-04-28T13:53:16Z</time></trkpt><trkpt lat="38.03156110521751" lon="15.36940867612073"><ele>343.59999999999997</ele><time>2026-04-28T13:53:17Z</time></trkpt><trkpt lat="38.0315098122782" lon="15.369504654283356"><ele>343.79999999999995</ele><time>2026-04-28T13:53:18Z</time></trkpt><trkpt lat="38.03145095616454" lon="15.369630630182842"><ele>344.0</ele><time>2026-04-28T13:53:19Z</time></trkpt><trkpt lat="38.031372397061354" lon="15.369766462639005"><ele>338.4</ele><time>2026-04-28T13:53:20Z</time></trkpt><trkpt lat="38.03129521860932" lon="15.369899412717734"><ele>332.79999999999995</ele><time>2026-04-28T13:53:21Z</time></trkpt><trkpt lat="38.03122810043445" lon="15.370023233116491"><ele>327.20000000000005</ele><time>2026-04-28T13:53:22Z</time></trkpt><trkpt lat="38.03116593543985" lon="15.37013469899866"><ele>321.6</ele><time>2026-04-28T13:53:23Z</time></trkpt><trkpt lat="38.0311198003964" lon="15.37022923753528"><ele>316.0</ele><time>2026-04-28T13:53:24Z</time></trkpt><trkpt lat="38.031076251682165" lon="15.370290759958488"><ele>316.0</ele><time>2026-04-28T13:53:25Z</time></trkpt><trkpt lat="38.03103156775431" lon="15.370369920169475"><ele>316.0</ele><time>2026-04-28T13:53:27Z</time></trkpt><trkpt lat="38.03101348583542" lon="15.370463556681933"><ele>316.0</ele><time>2026-04-28T13:53:32Z</time></trkpt><trkpt lat="38.031010796088445" lon="15.370594735142928"><ele>316.0</ele><time>2026-04-28T13:53:36Z</time></trkpt><trkpt lat="38.031018386070656" lon="15.370687214445129"><ele>316.0</ele><time>2026-04-28T13:53:37Z</time></trkpt><trkpt lat="38.03101360400797" lon="15.370790487542811"><ele>316.0</ele><time>2026-04-28T13:53:37.999Z</time></trkpt><trkpt lat="38.03100154292304" lon="15.370880128204789"><ele>312.16666666666663</ele><time>2026-04-28T13:53:38.999Z</time></trkpt><trkpt lat="38.03098685384867" lon="15.370992384176906"><ele>308.3333333333333</ele><time>2026-04-28T13:53:39.999Z</time></trkpt><trkpt lat="38.03097277597102" lon="15.371104970130858"><ele>304.5</ele><time>2026-04-28T13:53:40.999Z</time></trkpt><trkpt lat="38.03094863872155" lon="15.371196582757229"><ele>300.6666666666667</ele><time>2026-04-28T13:53:41.999Z</time></trkpt><trkpt lat="38.03090354429202" lon="15.371265148027964"><ele>296.83333333333337</ele><time>2026-04-28T13:53:42.999Z</time></trkpt><trkpt lat="38.03085423177992" lon="15.371316399132782"><ele>293.0</ele><time>2026-04-28T13:53:43.999Z</time></trkpt><trkpt lat="38.03079049633773" lon="15.371338635234062"><ele>292.8</ele><time>2026-04-28T13:53:44.999Z</time></trkpt><trkpt lat="38.030707588669024" lon="15.371338156355469"><ele>292.6</ele><time>2026-04-28T13:53:45.999Z</time></trkpt><trkpt lat="38.03060674502036" lon="15.371322962971039"><ele>292.4</ele><time>2026-04-28T13:53:46.999Z</time></trkpt><trkpt lat="38.030491278017685" lon="15.37130072692203"><ele>292.2</ele><time>2026-04-28T13:53:47.999Z</time></trkpt><trkpt lat="38.03036911287898" lon="15.371295238951907"><ele>292.0</ele><time>2026-04-28T13:53:48.999Z</time></trkpt><trkpt lat="38.030248143253175" lon="15.37131083994021"><ele>292.0</ele><time>2026-04-28T13:53:49.999Z</time></trkpt><trkpt lat="38.030141027763" lon="15.371336649823972"><ele>292.0</ele><time>2026-04-28T13:53:50.999Z</time></trkpt><trkpt lat="38.03004429098185" lon="15.371384730071817"><ele>292.0</ele><time>2026-04-28T13:53:51.999Z</time></trkpt><trkpt lat="38.029955271103915" lon="15.371448921287922"><ele>292.0</ele><time>2026-04-28T13:53:52.999Z</time></trkpt><trkpt lat="38.02988387812575" lon="15.37154493038179"><ele>292.0</ele><time>2026-04-28T13:53:53.999Z</time></trkpt><trkpt lat="38.029820687972844" lon="15.371645867907638"><ele>284.0</ele><time>2026-04-28T13:53:54.999Z</time></trkpt><trkpt lat="38.02975615420407" lon="15.371751586095321"><ele>276.0</ele><time>2026-04-28T13:53:55.999Z</time></trkpt><trkpt lat="38.02969232657868" lon="15.37185132624861"><ele>268.0</ele><time>2026-04-28T13:53:56.999Z</time></trkpt><trkpt lat="38.02963038754378" lon="15.371939658669552"><ele>260.0</ele><time>2026-04-28T13:53:57.999Z</time></trkpt><trkpt lat="38.02957438611005" lon="15.372014393784816"><ele>252.0</ele><time>2026-04-28T13:53:58.999Z</time></trkpt><trkpt lat="38.02952876321705" lon="15.372083152011415"><ele>252.0</ele><time>2026-04-28T13:53:59.999Z</time></trkpt><trkpt lat="38.02944034058907" lon="15.37215885936968"><ele>252.0</ele><time>2026-04-28T13:54:01.999Z</time></trkpt><trkpt lat="38.029331229513424" lon="15.372077260610673"><ele>252.0</ele><time>2026-04-28T13:54:03.999Z</time></trkpt><trkpt lat="38.02927287756966" lon="15.371966859865914"><ele>252.0</ele><time>2026-04-28T13:54:04.999Z</time></trkpt><trkpt lat="38.02921505780348" lon="15.371857324076498"><ele>252.0</ele><time>2026-04-28T13:54:05.999Z</time></trkpt><trkpt lat="38.02915313365431" lon="15.371749928511617"><ele>251.83333333333334</ele><time>2026-04-28T13:54:06.999Z</time></trkpt><trkpt lat="38.02909692767327" lon="15.371629928197187"><ele>251.66666666666669</ele><time>2026-04-28T13:54:07.999Z</time></trkpt><trkpt lat="38.029048588808074" lon="15.371512843698865"><ele>251.5</ele><time>2026-04-28T13:54:08.999Z</time></trkpt><trkpt lat="38.029001502897685" lon="15.371428435812273"><ele>251.33333333333334</ele><time>2026-04-28T13:54:09.999Z</time></trkpt><trkpt lat="38.028938323106495" lon="15.371373613507906"><ele>251.16666666666669</ele><time>2026-04-28T13:54:10.999Z</time></trkpt><trkpt lat="38.02887594646011" lon="15.37132644298737"><ele>251.0</ele><time>2026-04-28T13:54:11.999Z</time></trkpt><trkpt lat="38.02882949740811" lon="15.371258055493367"><ele>253.0</ele><time>2026-04-28T13:54:12.999Z</time></trkpt><trkpt lat="38.02878140379198" lon="15.37114794432444"><ele>255.0</ele><time>2026-04-28T13:54:13.999Z</time></trkpt><trkpt lat="38.02873110512898" lon="15.37100337816491"><ele>257.0</ele><time>2026-04-28T13:54:14.999Z</time></trkpt><trkpt lat="38.028683244029324" lon="15.370852523894674"><ele>259.0</ele><time>2026-04-28T13:54:15.999Z</time></trkpt><trkpt lat="38.028647121110794" lon="15.37069488733913"><ele>259.0</ele><time>2026-04-28T13:54:16.999Z</time></trkpt><trkpt lat="38.028626877148845" lon="15.370543543311404"><ele>259.0</ele><time>2026-04-28T13:54:17.999Z</time></trkpt><trkpt lat="38.028613402668384" lon="15.370383329536823"><ele>259.0</ele><time>2026-04-28T13:54:18.999Z</time></trkpt><trkpt lat="38.02861456670619" lon="15.370231696480843"><ele>259.0</ele><time>2026-04-28T13:54:19.999Z</time></trkpt><trkpt lat="38.02860778752128" lon="15.370092108743009"><ele>260.0</ele><time>2026-04-28T13:54:20.999Z</time></trkpt><trkpt lat="38.02861178737414" lon="15.369966450841778"><ele>261.0</ele><time>2026-04-28T13:54:21.999Z</time></trkpt><trkpt lat="38.02862175122531" lon="15.369830792385669"><ele>262.0</ele><time>2026-04-28T13:54:22.999Z</time></trkpt><trkpt lat="38.02861650549962" lon="15.369713186627873"><ele>263.0</ele><time>2026-04-28T13:54:23.999Z</time></trkpt><trkpt lat="38.02861838636574" lon="15.369628487397039"><ele>264.0</ele><time>2026-04-28T13:54:24.999Z</time></trkpt><trkpt lat="38.02865128991812" lon="15.369555062727052"><ele>265.0</ele><time>2026-04-28T13:54:25.999Z</time></trkpt><trkpt lat="38.02868523026524" lon="15.369469753476865"><ele>266.4</ele><time>2026-04-28T13:54:26.999Z</time></trkpt><trkpt lat="38.02869779573164" lon="15.369352761142583"><ele>267.8</ele><time>2026-04-28T13:54:27.999Z</time></trkpt><trkpt lat="38.028715246384735" lon="15.369205025343044"><ele>269.2</ele><time>2026-04-28T13:54:28.999Z</time></trkpt><trkpt lat="38.02872380417633" lon="15.369056282107639"><ele>270.6</ele><time>2026-04-28T13:54:29.999Z</time></trkpt><trkpt lat="38.02874356406959" lon="15.368927733599758"><ele>272.0</ele><time>2026-04-28T13:54:30.999Z</time></trkpt><trkpt lat="38.028754282224355" lon="15.368796129501677"><ele>273.5</ele><time>2026-04-28T13:54:31.999Z</time></trkpt><trkpt lat="38.02875724858563" lon="15.368661051738535"><ele>275.0</ele><time>2026-04-28T13:54:32.999Z</time></trkpt><trkpt lat="38.02876173918701" lon="15.368531911102407"><ele>276.5</ele><time>2026-04-28T13:54:33.999Z</time></trkpt><trkpt lat="38.028790944862855" lon="15.368397321280419"><ele>278.0</ele><time>2026-04-28T13:54:34.999Z</time></trkpt><trkpt lat="38.02882266226605" lon="15.368232798145142"><ele>278.0</ele><time>2026-04-28T13:54:35.999Z</time></trkpt><trkpt lat="38.0288586571852" lon="15.368078170266475"><ele>278.0</ele><time>2026-04-28T13:54:36.999Z</time></trkpt><trkpt lat="38.02890218263136" lon="15.367926854017954"><ele>278.0</ele><time>2026-04-28T13:54:37.999Z</time></trkpt><trkpt lat="38.02894264459856" lon="15.367767632860284"><ele>278.0</ele><time>2026-04-28T13:54:38.999Z</time></trkpt><trkpt lat="38.02898239768223" lon="15.367613651183937"><ele>280.0</ele><time>2026-04-28T13:54:39.999Z</time></trkpt><trkpt lat="38.0290108030822" lon="15.367488407413093"><ele>282.0</ele><time>2026-04-28T13:54:40.999Z</time></trkpt><trkpt lat="38.02903319068647" lon="15.367390622447184"><ele>284.0</ele><time>2026-04-28T13:54:41.999Z</time></trkpt><trkpt lat="38.0290430950101" lon="15.367309445924507"><ele>286.0</ele><time>2026-04-28T13:54:42.999Z</time></trkpt><trkpt lat="38.02904886646993" lon="15.367191704575504"><ele>288.0</ele><time>2026-04-28T13:54:43.999Z</time></trkpt><trkpt lat="38.02905319218361" lon="15.367051255863288"><ele>293.6</ele><time>2026-04-28T13:54:44.999Z</time></trkpt><trkpt lat="38.02905003890293" lon="15.366919223162759"><ele>299.20000000000005</ele><time>2026-04-28T13:54:45.999Z</time></trkpt><trkpt lat="38.02903622152664" lon="15.366787729726903"><ele>304.8</ele><time>2026-04-28T13:54:47Z</time></trkpt><trkpt lat="38.02903434194417" lon="15.366659706325272"><ele>310.40000000000003</ele><time>2026-04-28T13:54:48Z</time></trkpt><trkpt lat="38.029043498800995" lon="15.36654112003769"><ele>316.0</ele><time>2026-04-28T13:54:49Z</time></trkpt><trkpt lat="38.029057046590076" lon="15.366400446448637"><ele>320.0</ele><time>2026-04-28T13:54:50Z</time></trkpt><trkpt lat="38.02907194860488" lon="15.366259135853875"><ele>324.0</ele><time>2026-04-28T13:54:51Z</time></trkpt><trkpt lat="38.029083581645686" lon="15.366137442530547"><ele>328.0</ele><time>2026-04-28T13:54:52Z</time></trkpt><trkpt lat="38.02909879731617" lon="15.366004367205768"><ele>332.0</ele><time>2026-04-28T13:54:53Z</time></trkpt><trkpt lat="38.02910018939889" lon="15.365890613656026"><ele>336.0</ele><time>2026-04-28T13:54:54Z</time></trkpt><trkpt lat="38.02909596661799" lon="15.365778355458568"><ele>336.0</ele><time>2026-04-28T13:54:55Z</time></trkpt><trkpt lat="38.02909220750473" lon="15.365657185993978"><ele>336.0</ele><time>2026-04-28T13:54:56Z</time></trkpt><trkpt lat="38.02910720659637" lon="15.365517121205654"><ele>336.0</ele><time>2026-04-28T13:54:57Z</time></trkpt><trkpt lat="38.029096986366916" lon="15.365388907883204"><ele>336.0</ele><time>2026-04-28T13:54:58Z</time></trkpt><trkpt lat="38.0290728970785" lon="15.36527728526496"><ele>336.0</ele><time>2026-04-28T13:54:59Z</time></trkpt><trkpt lat="38.029048195563384" lon="15.365180292185258"><ele>336.75</ele><time>2026-04-28T13:55:00Z</time></trkpt><trkpt lat="38.02904729884711" lon="15.365049810617418"><ele>337.5</ele><time>2026-04-28T13:55:02Z</time></trkpt><trkpt lat="38.029098512876516" lon="15.364876398368231"><ele>338.25</ele><time>2026-04-28T13:55:04Z</time></trkpt><trkpt lat="38.029122367962" lon="15.364751739522152"><ele>339.0</ele><time>2026-04-28T13:55:05Z</time></trkpt><trkpt lat="38.02914195890879" lon="15.36461806554915"><ele>336.8333333333333</ele><time>2026-04-28T13:55:06Z</time></trkpt><trkpt lat="38.02915154758163" lon="15.364515559365216"><ele>334.6666666666667</ele><time>2026-04-28T13:55:07Z</time></trkpt><trkpt lat="38.02914288084124" lon="15.364414965460297"><ele>332.5</ele><time>2026-04-28T13:55:08Z</time></trkpt><trkpt lat="38.02911342430087" lon="15.36431833143817"><ele>330.33333333333337</ele><time>2026-04-28T13:55:09Z</time></trkpt><trkpt lat="38.02907353431705" lon="15.364226931548114"><ele>328.1666666666667</ele><time>2026-04-28T13:55:10Z</time></trkpt><trkpt lat="38.029004790647136" lon="15.364116036679341"><ele>326.0</ele><time>2026-04-28T13:55:11Z</time></trkpt><trkpt lat="38.0289463818083" lon="15.36400103265601"><ele>325.8</ele><time>2026-04-28T13:55:12Z</time></trkpt><trkpt lat="38.02888430656483" lon="15.36386962358149"><ele>325.6</ele><time>2026-04-28T13:55:13Z</time></trkpt><trkpt lat="38.02879957483515" lon="15.363742920534643"><ele>325.4</ele><time>2026-04-28T13:55:14Z</time></trkpt><trkpt lat="38.028716912401784" lon="15.36365085953373"><ele>325.2</ele><time>2026-04-28T13:55:15Z</time></trkpt><trkpt lat="38.02864600598185" lon="15.363588248107327"><ele>325.0</ele><time>2026-04-28T13:55:16Z</time></trkpt><trkpt lat="38.02858472464311" lon="15.363544931625873"><ele>328.0</ele><time>2026-04-28T13:55:17Z</time></trkpt><trkpt lat="38.02848577140584" lon="15.363517263847497"><ele>331.0</ele><time>2026-04-28T13:55:18Z</time></trkpt><trkpt lat="38.028386629787235" lon="15.363522322529969"><ele>334.0</ele><time>2026-04-28T13:55:19Z</time></trkpt><trkpt lat="38.02829633105313" lon="15.363534321541216"><ele>337.0</ele><time>2026-04-28T13:55:20Z</time></trkpt><trkpt lat="38.02820435182748" lon="15.363537507909774"><ele>340.0</ele><time>2026-04-28T13:55:22Z</time></trkpt><trkpt lat="38.028128167860295" lon="15.36362259506843"><ele>340.2</ele><time>2026-04-28T13:55:24Z</time></trkpt><trkpt lat="38.02808373981647" lon="15.363709924289424"><ele>340.4</ele><time>2026-04-28T13:55:27Z</time></trkpt><trkpt lat="38.02798221036852" lon="15.363834915145244"><ele>340.6</ele><time>2026-04-28T13:55:29Z</time></trkpt><trkpt lat="38.027936724073605" lon="15.363902373160396"><ele>340.8</ele><time>2026-04-28T13:55:31Z</time></trkpt><trkpt lat="38.02783614443132" lon="15.36394468228593"><ele>341.0</ele><time>2026-04-28T13:55:33Z</time></trkpt><trkpt lat="38.027767713242554" lon="15.363966442917198"><ele>342.5</ele><time>2026-04-28T13:55:34Z</time></trkpt><trkpt lat="38.0277047664409" lon="15.363989803329645"><ele>344.0</ele><time>2026-04-28T13:55:35Z</time></trkpt><trkpt lat="38.02760980710508" lon="15.364031997791086"><ele>345.5</ele><time>2026-04-28T13:55:37Z</time></trkpt><trkpt lat="38.027495848546465" lon="15.364043198926456"><ele>347.0</ele><time>2026-04-28T13:55:39Z</time></trkpt><trkpt lat="38.02742399499364" lon="15.364043059004693"><ele>348.5</ele><time>2026-04-28T13:55:40Z</time></trkpt><trkpt lat="38.02734040993693" lon="15.364037608090804"><ele>350.0</ele><time>2026-04-28T13:55:41Z</time></trkpt><trkpt lat="38.02726663680716" lon="15.364030155246072"><ele>350.0</ele><time>2026-04-28T13:55:41.999Z</time></trkpt><trkpt lat="38.02720296709167" lon="15.364014625785993"><ele>350.0</ele><time>2026-04-28T13:55:42.999Z</time></trkpt><trkpt lat="38.02716173788574" lon="15.363901573198023"><ele>350.0</ele><time>2026-04-28T13:55:44.999Z</time></trkpt><trkpt lat="38.02714900770202" lon="15.363783977625166"><ele>350.0</ele><time>2026-04-28T13:55:46.999Z</time></trkpt><trkpt lat="38.02712296297831" lon="15.363704022503631"><ele>350.0</ele><time>2026-04-28T13:55:54.999Z</time></trkpt><trkpt lat="38.027028371254104" lon="15.363750339158274"><ele>350.0</ele><time>2026-04-28T13:55:57.999Z</time></trkpt><trkpt lat="38.02696723048797" lon="15.363896141883968"><ele>350.0</ele><time>2026-04-28T13:55:59.999Z</time></trkpt><trkpt lat="38.02689121902153" lon="15.36397149410251"><ele>350.0</ele><time>2026-04-28T13:56:01.999Z</time></trkpt><trkpt lat="38.02679244844908" lon="15.363941497064658"><ele>350.0</ele><time>2026-04-28T13:56:04.999Z</time></trkpt><trkpt lat="38.02667647565157" lon="15.363896303204736"><ele>350.0</ele><time>2026-04-28T13:56:06.999Z</time></trkpt><trkpt lat="38.026614866969986" lon="15.36387731004662"><ele>350.0</ele><time>2026-04-28T13:56:07.999Z</time></trkpt><trkpt lat="38.026546297505675" lon="15.363863836398563"><ele>354.6666666666667</ele><time>2026-04-28T13:56:08.999Z</time></trkpt><trkpt lat="38.0264721218392" lon="15.363837876089724"><ele>359.33333333333337</ele><time>2026-04-28T13:56:09.999Z</time></trkpt><trkpt lat="38.026403985595024" lon="15.363807607632305"><ele>364.0</ele><time>2026-04-28T13:56:10.999Z</time></trkpt><trkpt lat="38.02629090337498" lon="15.363814246925452"><ele>368.6666666666667</ele><time>2026-04-28T13:56:12.999Z</time></trkpt><trkpt lat="38.02619333685355" lon="15.36386558454941"><ele>373.3333333333333</ele><time>2026-04-28T13:56:14.999Z</time></trkpt><trkpt lat="38.02613073141456" lon="15.363904118897215"><ele>378.0</ele><time>2026-04-28T13:56:15.999Z</time></trkpt><trkpt lat="38.02605740929985" lon="15.363930914666676"><ele>378.0</ele><time>2026-04-28T13:56:16.999Z</time></trkpt><trkpt lat="38.025981936736244" lon="15.363952046128423"><ele>378.0</ele><time>2026-04-28T13:56:17.999Z</time></trkpt><trkpt lat="38.02586447712986" lon="15.363956884953685"><ele>378.0</ele><time>2026-04-28T13:56:19.999Z</time></trkpt><trkpt lat="38.02576516039093" lon="15.363920577024157"><ele>378.0</ele><time>2026-04-28T13:56:21.999Z</time></trkpt><trkpt lat="38.025721567426324" lon="15.364009633001446"><ele>378.0</ele><time>2026-04-28T13:56:24.999Z</time></trkpt><trkpt lat="38.025780117872266" lon="15.36408268430283"><ele>378.0</ele><time>2026-04-28T13:56:26.999Z</time></trkpt><trkpt lat="38.02588915941097" lon="15.364092353953255"><ele>378.0</ele><time>2026-04-28T13:56:28.999Z</time></trkpt><trkpt lat="38.0259947888658" lon="15.364192546772669"><ele>378.0</ele><time>2026-04-28T13:56:30.999Z</time></trkpt><trkpt lat="38.026056395882605" lon="15.364254398413626"><ele>378.0</ele><time>2026-04-28T13:56:31.999Z</time></trkpt><trkpt lat="38.02612544523314" lon="15.364312694901601"><ele>378.0</ele><time>2026-04-28T13:56:32.999Z</time></trkpt><trkpt lat="38.02620368036609" lon="15.364379949677334"><ele>378.0</ele><time>2026-04-28T13:56:34.999Z</time></trkpt><trkpt lat="38.026167948599976" lon="15.36450896699082"><ele>378.0</ele><time>2026-04-28T13:56:36.999Z</time></trkpt><trkpt lat="38.02611837528941" lon="15.364568710060583"><ele>378.0</ele><time>2026-04-28T13:56:37.999Z</time></trkpt><trkpt lat="38.02608293740169" lon="15.364686153237443"><ele>378.0</ele><time>2026-04-28T13:56:39.999Z</time></trkpt><trkpt lat="38.02619041970219" lon="15.364761022637904"><ele>378.0</ele><time>2026-04-28T13:56:41.999Z</time></trkpt><trkpt lat="38.02626237719163" lon="15.364777911320132"><ele>382.2</ele><time>2026-04-28T13:56:42.999Z</time></trkpt><trkpt lat="38.02636028489432" lon="15.364819279828673"><ele>386.4</ele><time>2026-04-28T13:56:44.999Z</time></trkpt><trkpt lat="38.026384551918845" lon="15.36489377953932"><ele>390.59999999999997</ele><time>2026-04-28T13:56:45.999Z</time></trkpt><trkpt lat="38.02641675138911" lon="15.365006649294097"><ele>394.79999999999995</ele><time>2026-04-28T13:56:46.999Z</time></trkpt><trkpt lat="38.02646227688091" lon="15.365096762342189"><ele>399.0</ele><time>2026-04-28T13:56:47.999Z</time></trkpt><trkpt lat="38.02657039443871" lon="15.36517029288787"><ele>399.0</ele><time>2026-04-28T13:56:49.999Z</time></trkpt><trkpt lat="38.02654600079436" lon="15.36525218116991"><ele>399.0</ele><time>2026-04-28T13:56:53Z</time></trkpt><trkpt lat="38.02656427579049" lon="15.36517086229875"><ele>399.0</ele><time>2026-04-28T13:56:59Z</time></trkpt><trkpt lat="38.026502455752976" lon="15.365207352709128"><ele>399.0</ele><time>2026-04-28T13:57:19Z</time></trkpt><trkpt lat="38.02640487354345" lon="15.365128691031176"><ele>399.0</ele><time>2026-04-28T13:57:21Z</time></trkpt><trkpt lat="38.026345137446704" lon="15.365093746306183"><ele>399.0</ele><time>2026-04-28T13:57:22Z</time></trkpt><trkpt lat="38.026285440144996" lon="15.365064582240747"><ele>399.0</ele><time>2026-04-28T13:57:23Z</time></trkpt><trkpt lat="38.026210638185276" lon="15.365039528248563"><ele>399.0</ele><time>2026-04-28T13:57:24Z</time></trkpt><trkpt lat="38.026137161045135" lon="15.36502916847381"><ele>399.0</ele><time>2026-04-28T13:57:25Z</time></trkpt><trkpt lat="38.0260562328369" lon="15.36501254147832"><ele>399.0</ele><time>2026-04-28T13:57:26Z</time></trkpt><trkpt lat="38.02595825626223" lon="15.364997851448548"><ele>399.0</ele><time>2026-04-28T13:57:27Z</time></trkpt><trkpt lat="38.02587527818558" lon="15.364998300786748"><ele>399.0</ele><time>2026-04-28T13:57:28Z</time></trkpt><trkpt lat="38.025781105682896" lon="15.365018853417812"><ele>399.0</ele><time>2026-04-28T13:57:29Z</time></trkpt><trkpt lat="38.025700423898726" lon="15.365052968510076"><ele>402.6</ele><time>2026-04-28T13:57:30Z</time></trkpt><trkpt lat="38.02561471018664" lon="15.365084039100893"><ele>406.2</ele><time>2026-04-28T13:57:31Z</time></trkpt><trkpt lat="38.02553280401116" lon="15.365117875533294"><ele>409.8</ele><time>2026-04-28T13:57:32Z</time></trkpt><trkpt lat="38.02545029632146" lon="15.365164277415605"><ele>413.40000000000003</ele><time>2026-04-28T13:57:34Z</time></trkpt><trkpt lat="38.025407327629864" lon="15.365060394903413"><ele>417.0</ele><time>2026-04-28T13:57:37Z</time></trkpt><trkpt lat="38.025424898102145" lon="15.364934273534857"><ele>417.0</ele><time>2026-04-28T13:57:39Z</time></trkpt><trkpt lat="38.02533559617754" lon="15.364908232143035"><ele>417.0</ele><time>2026-04-28T13:57:41Z</time></trkpt><trkpt lat="38.02518404164912" lon="15.36496732430549"><ele>417.0</ele><time>2026-04-28T13:57:43Z</time></trkpt><trkpt lat="38.025106651371566" lon="15.365018960092334"><ele>417.0</ele><time>2026-04-28T13:57:44Z</time></trkpt><trkpt lat="38.02502749413325" lon="15.365077108880053"><ele>417.0</ele><time>2026-04-28T13:57:44.999Z</time></trkpt><trkpt lat="38.02495613073444" lon="15.365130034051562"><ele>421.8333333333333</ele><time>2026-04-28T13:57:45.999Z</time></trkpt><trkpt lat="38.02489276048568" lon="15.365176003963334"><ele>426.66666666666663</ele><time>2026-04-28T13:57:46.999Z</time></trkpt><trkpt lat="38.024829540844564" lon="15.365102011400712"><ele>431.5</ele><time>2026-04-28T13:57:49.999Z</time></trkpt><trkpt lat="38.02474662243653" lon="15.365028605179305"><ele>436.3333333333333</ele><time>2026-04-28T13:57:51.999Z</time></trkpt><trkpt lat="38.02469948173805" lon="15.365096107171833"><ele>441.16666666666663</ele><time>2026-04-28T13:57:53.999Z</time></trkpt><trkpt lat="38.0247606881532" lon="15.365147578953733"><ele>446.0</ele><time>2026-04-28T13:57:58.999Z</time></trkpt><trkpt lat="38.02480971383506" lon="15.365208620510497"><ele>446.0</ele><time>2026-04-28T13:57:59.999Z</time></trkpt><trkpt lat="38.02489231430406" lon="15.365277944064552"><ele>446.0</ele><time>2026-04-28T13:58:01.999Z</time></trkpt><trkpt lat="38.02496478599634" lon="15.365357634206113"><ele>446.0</ele><time>2026-04-28T13:58:03.999Z</time></trkpt><trkpt lat="38.02504473120046" lon="15.365459830506541"><ele>446.0</ele><time>2026-04-28T13:58:05.999Z</time></trkpt><trkpt lat="38.02508277489597" lon="15.365587919928043"><ele>446.0</ele><time>2026-04-28T13:58:07.999Z</time></trkpt><trkpt lat="38.02514526534827" lon="15.36566403503372"><ele>446.6</ele><time>2026-04-28T13:58:09.999Z</time></trkpt><trkpt lat="38.02527047824548" lon="15.365724290578159"><ele>447.20000000000005</ele><time>2026-04-28T13:58:11.999Z</time></trkpt><trkpt lat="38.02531963669406" lon="15.36579276538934"><ele>447.79999999999995</ele><time>2026-04-28T13:58:12.999Z</time></trkpt><trkpt lat="38.02539713340639" lon="15.365823773159724"><ele>448.4</ele><time>2026-04-28T13:58:13.999Z</time></trkpt><trkpt lat="38.02547559967545" lon="15.365868985607547"><ele>449.0</ele><time>2026-04-28T13:58:14.999Z</time></trkpt><trkpt lat="38.025539885634245" lon="15.36592088256744"><ele>449.0</ele><time>2026-04-28T13:58:15.999Z</time></trkpt><trkpt lat="38.02565281082571" lon="15.366027946852482"><ele>449.0</ele><time>2026-04-28T13:58:17.999Z</time></trkpt><trkpt lat="38.02570880896768" lon="15.366100460450307"><ele>449.0</ele><time>2026-04-28T13:58:18.999Z</time></trkpt><trkpt lat="38.025745395189546" lon="15.366201568726375"><ele>449.0</ele><time>2026-04-28T13:58:19.999Z</time></trkpt><trkpt lat="38.02578908070544" lon="15.36631872298572"><ele>449.0</ele><time>2026-04-28T13:58:20.999Z</time></trkpt><trkpt lat="38.02583919260232" lon="15.366394249057826"><ele>450.16666666666663</ele><time>2026-04-28T13:58:21.999Z</time></trkpt><trkpt lat="38.02588907124045" lon="15.366452431601113"><ele>451.3333333333333</ele><time>2026-04-28T13:58:24.999Z</time></trkpt><trkpt lat="38.02583521014321" lon="15.36650053171118"><ele>452.5</ele><time>2026-04-28T13:58:26.999Z</time></trkpt><trkpt lat="38.02571666343171" lon="15.366528650518791"><ele>453.66666666666663</ele><time>2026-04-28T13:58:29.999Z</time></trkpt><trkpt lat="38.02564792683284" lon="15.366495294006018"><ele>454.8333333333333</ele><time>2026-04-28T13:58:30.999Z</time></trkpt><trkpt lat="38.02558043970407" lon="15.366460168964437"><ele>456.0</ele><time>2026-04-28T13:58:31.999Z</time></trkpt><trkpt lat="38.025512329410994" lon="15.366426104308232"><ele>460.20000000000005</ele><time>2026-04-28T13:58:32.999Z</time></trkpt><trkpt lat="38.02545034655521" lon="15.366404300607075"><ele>464.40000000000003</ele><time>2026-04-28T13:58:33.999Z</time></trkpt><trkpt lat="38.025399999604225" lon="15.366491962360643"><ele>468.6</ele><time>2026-04-28T13:58:35.999Z</time></trkpt><trkpt lat="38.0254290126788" lon="15.366635245614914"><ele>472.8</ele><time>2026-04-28T13:58:37.999Z</time></trkpt><trkpt lat="38.02546057597701" lon="15.366733495646878"><ele>477.0</ele><time>2026-04-28T13:58:38.999Z</time></trkpt><trkpt lat="38.025501703060414" lon="15.366850201432486"><ele>477.0</ele><time>2026-04-28T13:58:39.999Z</time></trkpt><trkpt lat="38.02553056387667" lon="15.366946484114626"><ele>477.00000000000006</ele><time>2026-04-28T13:58:40.999Z</time></trkpt><trkpt lat="38.025530383234425" lon="15.367081080281697"><ele>477.00000000000006</ele><time>2026-04-28T13:58:42.999Z</time></trkpt><trkpt lat="38.02542372387719" lon="15.367082379182987"><ele>477.0</ele><time>2026-04-28T13:58:44.999Z</time></trkpt><trkpt lat="38.02531220209628" lon="15.36701337526941"><ele>477.0</ele><time>2026-04-28T13:58:46.999Z</time></trkpt><trkpt lat="38.02525153708194" lon="15.366985600804856"><ele>477.0</ele><time>2026-04-28T13:58:47.999Z</time></trkpt><trkpt lat="38.02516140196695" lon="15.366940342354688"><ele>477.0</ele><time>2026-04-28T13:58:48.999Z</time></trkpt><trkpt lat="38.025037567009356" lon="15.366801222846666"><ele>477.0</ele><time>2026-04-28T13:58:49.999Z</time></trkpt><trkpt lat="38.02494508307359" lon="15.366747589377919"><ele>477.0</ele><time>2026-04-28T13:58:50.999Z</time></trkpt><trkpt lat="38.02485924413792" lon="15.366697121098866"><ele>481.6</ele><time>2026-04-28T13:58:51.999Z</time></trkpt><trkpt lat="38.024785531736455" lon="15.366691864590155"><ele>486.20000000000005</ele><time>2026-04-28T13:58:52.999Z</time></trkpt><trkpt lat="38.024687948631424" lon="15.366689059643237"><ele>490.8</ele><time>2026-04-28T13:58:53.999Z</time></trkpt><trkpt lat="38.024574918817514" lon="15.366682650552177"><ele>495.4</ele><time>2026-04-28T13:58:54.999Z</time></trkpt><trkpt lat="38.024473130981" lon="15.366659457082331"><ele>500.0</ele><time>2026-04-28T13:58:55.999Z</time></trkpt><trkpt lat="38.02438571326859" lon="15.366629078938361"><ele>500.0</ele><time>2026-04-28T13:58:56.999Z</time></trkpt><trkpt lat="38.02428144663842" lon="15.366610327321416"><ele>500.0</ele><time>2026-04-28T13:58:57.999Z</time></trkpt><trkpt lat="38.02419009467007" lon="15.366592261384502"><ele>500.0</ele><time>2026-04-28T13:58:59Z</time></trkpt><trkpt lat="38.02410385595765" lon="15.366542397518627"><ele>500.0</ele><time>2026-04-28T13:59:00Z</time></trkpt><trkpt lat="38.02402617439241" lon="15.366484349466315"><ele>500.0</ele><time>2026-04-28T13:59:01Z</time></trkpt><trkpt lat="38.023948382806466" lon="15.366438534174764"><ele>504.49999999999994</ele><time>2026-04-28T13:59:02Z</time></trkpt><trkpt lat="38.023880871084955" lon="15.366434003225722"><ele>509.0</ele><time>2026-04-28T13:59:04Z</time></trkpt><trkpt lat="38.02387483833957" lon="15.36654731142156"><ele>513.5</ele><time>2026-04-28T13:59:06Z</time></trkpt><trkpt lat="38.02391342031954" lon="15.366621198698311"><ele>518.0</ele><time>2026-04-28T13:59:07Z</time></trkpt><trkpt lat="38.02396434942214" lon="15.366695540462564"><ele>522.5</ele><time>2026-04-28T13:59:08Z</time></trkpt><trkpt lat="38.02401025749867" lon="15.366790154032815"><ele>527.0</ele><time>2026-04-28T13:59:09Z</time></trkpt><trkpt lat="38.02405273186421" lon="15.36687870373306"><ele>527.0</ele><time>2026-04-28T13:59:10Z</time></trkpt><trkpt lat="38.0241113238261" lon="15.367012548881396"><ele>527.0</ele><time>2026-04-28T13:59:12Z</time></trkpt><trkpt lat="38.02414931625354" lon="15.367154045928416"><ele>527.0</ele><time>2026-04-28T13:59:14Z</time></trkpt><trkpt lat="38.024121777729114" lon="15.367238868232558"><ele>527.0</ele><time>2026-04-28T13:59:17Z</time></trkpt><trkpt lat="38.02403627036828" lon="15.367218880626147"><ele>527.0</ele><time>2026-04-28T13:59:20Z</time></trkpt><trkpt lat="38.02399473402262" lon="15.367154677409781"><ele>527.0</ele><time>2026-04-28T13:59:23Z</time></trkpt><trkpt lat="38.023562799397936" lon="15.366819654469305"><ele>527.0</ele><time>2026-04-28T13:59:26Z</time></trkpt><trkpt lat="38.023477051630465" lon="15.36674305228042"><ele>527.0</ele><time>2026-04-28T13:59:27Z</time></trkpt><trkpt lat="38.02338493155097" lon="15.366678179551403"><ele>527.0</ele><time>2026-04-28T13:59:28Z</time></trkpt><trkpt lat="38.02329453123924" lon="15.366635588640763"><ele>527.0</ele><time>2026-04-28T13:59:29Z</time></trkpt><trkpt lat="38.02322052402579" lon="15.366622913824859"><ele>527.0</ele><time>2026-04-28T13:59:30Z</time></trkpt><trkpt lat="38.023131855434514" lon="15.366619352903388"><ele>531.3333333333333</ele><time>2026-04-28T13:59:32Z</time></trkpt><trkpt lat="38.02303170305415" lon="15.366683670096178"><ele>535.6666666666666</ele><time>2026-04-28T13:59:34Z</time></trkpt><trkpt lat="38.02296219415121" lon="15.36670532248229"><ele>540.0</ele><time>2026-04-28T13:59:35Z</time></trkpt><trkpt lat="38.02288211638055" lon="15.366708468970376"><ele>544.3333333333334</ele><time>2026-04-28T13:59:36Z</time></trkpt><trkpt lat="38.02280034817294" lon="15.366699183721499"><ele>548.6666666666667</ele><time>2026-04-28T13:59:37Z</time></trkpt><trkpt lat="38.02272590129212" lon="15.36667196847461"><ele>553.0</ele><time>2026-04-28T13:59:38Z</time></trkpt><trkpt lat="38.02266164968354" lon="15.366622650052827"><ele>553.0</ele><time>2026-04-28T13:59:39Z</time></trkpt><trkpt lat="38.02260394968142" lon="15.366590019152964"><ele>553.0</ele><time>2026-04-28T13:59:40Z</time></trkpt><trkpt lat="38.022530958926176" lon="15.366559203848997"><ele>553.0</ele><time>2026-04-28T13:59:42Z</time></trkpt><trkpt lat="38.022624020751756" lon="15.366575764741016"><ele>553.0</ele><time>2026-04-28T13:59:43Z</time></trkpt><trkpt lat="38.02263412548574" lon="15.366701928353077"><ele>553.0</ele><time>2026-04-28T13:59:47Z</time></trkpt><trkpt lat="38.02266127733105" lon="15.366774929088267"><ele>553.0</ele><time>2026-04-28T13:59:48Z</time></trkpt><trkpt lat="38.022695602103695" lon="15.366863924647248"><ele>553.0</ele><time>2026-04-28T13:59:49Z</time></trkpt><trkpt lat="38.0227395245185" lon="15.366955506850125"><ele>553.0</ele><time>2026-04-28T13:59:49.999Z</time></trkpt><trkpt lat="38.02277475741558" lon="15.367024486080437"><ele>553.0</ele><time>2026-04-28T13:59:50.999Z</time></trkpt><trkpt lat="38.02279973193491" lon="15.367129362502808"><ele>553.0</ele><time>2026-04-28T13:59:52.999Z</time></trkpt><trkpt lat="38.02271037127786" lon="15.367183672727958"><ele>553.0</ele><time>2026-04-28T13:59:54.999Z</time></trkpt><trkpt lat="38.02264611743204" lon="15.367141476138835"><ele>553.0</ele><time>2026-04-28T13:59:55.999Z</time></trkpt><trkpt lat="38.022577093738626" lon="15.36708013360982"><ele>553.0</ele><time>2026-04-28T13:59:56.999Z</time></trkpt><trkpt lat="38.02253215343399" lon="15.367007909840432"><ele>553.0</ele><time>2026-04-28T13:59:57.999Z</time></trkpt><trkpt lat="38.02249315367206" lon="15.366912653818348"><ele>553.0</ele><time>2026-04-28T13:59:58.999Z</time></trkpt><trkpt lat="38.02244210549237" lon="15.366834859592654"><ele>553.0</ele><time>2026-04-28T14:00:00.999Z</time></trkpt><trkpt lat="38.02238467357999" lon="15.366888881334472"><ele>553.0</ele><time>2026-04-28T14:00:03.999Z</time></trkpt><trkpt lat="38.02240223307716" lon="15.367012349707336"><ele>553.0</ele><time>2026-04-28T14:00:05.999Z</time></trkpt><trkpt lat="38.02243927084418" lon="15.367110296367017"><ele>557.5</ele><time>2026-04-28T14:00:06.999Z</time></trkpt><trkpt lat="38.02247443753331" lon="15.367247407485063"><ele>562.0</ele><time>2026-04-28T14:00:07.999Z</time></trkpt><trkpt lat="38.02251130486358" lon="15.367422452092972"><ele>566.5</ele><time>2026-04-28T14:00:08.999Z</time></trkpt><trkpt lat="38.02255461496823" lon="15.367582825465973"><ele>571.0</ele><time>2026-04-28T14:00:09.999Z</time></trkpt><trkpt lat="38.022605946407005" lon="15.367714442326795"><ele>571.0</ele><time>2026-04-28T14:00:10.999Z</time></trkpt><trkpt lat="38.0226616189939" lon="15.367827225119587"><ele>571.0</ele><time>2026-04-28T14:00:11.999Z</time></trkpt><trkpt lat="38.02272729807214" lon="15.367932814087135"><ele>571.0</ele><time>2026-04-28T14:00:12.999Z</time></trkpt><trkpt lat="38.022801366384954" lon="15.368009328800461"><ele>571.0</ele><time>2026-04-28T14:00:13.999Z</time></trkpt><trkpt lat="38.02285484609672" lon="15.368078808948031"><ele>571.0</ele><time>2026-04-28T14:00:14.999Z</time></trkpt><trkpt lat="38.02291682970874" lon="15.368177694619247"><ele>576.75</ele><time>2026-04-28T14:00:15.999Z</time></trkpt><trkpt lat="38.02299755593491" lon="15.36830816258589"><ele>582.5</ele><time>2026-04-28T14:00:16.999Z</time></trkpt><trkpt lat="38.023078154717425" lon="15.36841631540058"><ele>588.25</ele><time>2026-04-28T14:00:17.999Z</time></trkpt><trkpt lat="38.02317380921045" lon="15.368534779172814"><ele>594.0</ele><time>2026-04-28T14:00:18.999Z</time></trkpt><trkpt lat="38.02326783670862" lon="15.368637634356055"><ele>593.5</ele><time>2026-04-28T14:00:19.999Z</time></trkpt><trkpt lat="38.02334633816868" lon="15.368718757829415"><ele>593.0</ele><time>2026-04-28T14:00:20.999Z</time></trkpt><trkpt lat="38.02342175468021" lon="15.368773865680543"><ele>592.5</ele><time>2026-04-28T14:00:21.999Z</time></trkpt><trkpt lat="38.02349329050038" lon="15.36882093784387"><ele>592.0</ele><time>2026-04-28T14:00:22.999Z</time></trkpt><trkpt lat="38.023572281405606" lon="15.368870588460807"><ele>591.5</ele><time>2026-04-28T14:00:23.999Z</time></trkpt><trkpt lat="38.02363981548852" lon="15.36892161402741"><ele>591.0</ele><time>2026-04-28T14:00:24.999Z</time></trkpt><trkpt lat="38.023698266864585" lon="15.368977802365466"><ele>591.0</ele><time>2026-04-28T14:00:25.999Z</time></trkpt><trkpt lat="38.02374347897978" lon="15.369096145362517"><ele>591.0</ele><time>2026-04-28T14:00:27.999Z</time></trkpt><trkpt lat="38.02373419338326" lon="15.36918814237567"><ele>591.0</ele><time>2026-04-28T14:00:28.999Z</time></trkpt><trkpt lat="38.023716136298475" lon="15.369300488206349"><ele>591.0</ele><time>2026-04-28T14:00:29.999Z</time></trkpt><trkpt lat="38.02369505620562" lon="15.369441313758461"><ele>591.0</ele><time>2026-04-28T14:00:30.999Z</time></trkpt><trkpt lat="38.02366707768989" lon="15.369583257994265"><ele>593.5</ele><time>2026-04-28T14:00:31.999Z</time></trkpt><trkpt lat="38.02363692519408" lon="15.369742305859319"><ele>596.0</ele><time>2026-04-28T14:00:32.999Z</time></trkpt><trkpt lat="38.02360157460016" lon="15.36991146624401"><ele>598.5</ele><time>2026-04-28T14:00:33.999Z</time></trkpt><trkpt lat="38.023563514629735" lon="15.37006647709075"><ele>601.0</ele><time>2026-04-28T14:00:34.999Z</time></trkpt><trkpt lat="38.02353209183808" lon="15.37020711926879"><ele>601.0</ele><time>2026-04-28T14:00:35.999Z</time></trkpt><trkpt lat="38.02350689060349" lon="15.370350337607656"><ele>601.0</ele><time>2026-04-28T14:00:36.999Z</time></trkpt><trkpt lat="38.02349786021697" lon="15.370501740201822"><ele>601.0</ele><time>2026-04-28T14:00:37.999Z</time></trkpt><trkpt lat="38.023496131590875" lon="15.37063381935433"><ele>601.0</ele><time>2026-04-28T14:00:38.999Z</time></trkpt><trkpt lat="38.023497468679466" lon="15.370755394995882"><ele>601.0</ele><time>2026-04-28T14:00:39.999Z</time></trkpt><trkpt lat="38.02348116949846" lon="15.370858747479277"><ele>601.0</ele><time>2026-04-28T14:00:40.999Z</time></trkpt><trkpt lat="38.023438119008105" lon="15.370952329247459"><ele>601.0</ele><time>2026-04-28T14:00:41.999Z</time></trkpt><trkpt lat="38.023424758071485" lon="15.371047124037082"><ele>601.0</ele><time>2026-04-28T14:00:42.999Z</time></trkpt><trkpt lat="38.023438555567054" lon="15.371154165092848"><ele>601.0</ele><time>2026-04-28T14:00:43.999Z</time></trkpt><trkpt lat="38.02347607561455" lon="15.371242032293356"><ele>601.0</ele><time>2026-04-28T14:00:44.999Z</time></trkpt><trkpt lat="38.02350893507559" lon="15.371337296979693"><ele>601.0</ele><time>2026-04-28T14:00:45.999Z</time></trkpt><trkpt lat="38.02356132991367" lon="15.3714306672938"><ele>600.1666666666667</ele><time>2026-04-28T14:00:46.999Z</time></trkpt><trkpt lat="38.02361521030171" lon="15.371502483915227"><ele>599.3333333333334</ele><time>2026-04-28T14:00:47.999Z</time></trkpt><trkpt lat="38.02366526067583" lon="15.371569089013649"><ele>598.5</ele><time>2026-04-28T14:00:48.999Z</time></trkpt><trkpt lat="38.02370691934155" lon="15.371707476277999"><ele>597.6666666666666</ele><time>2026-04-28T14:00:50.999Z</time></trkpt><trkpt lat="38.023721125256564" lon="15.371818468540765"><ele>596.8333333333333</ele><time>2026-04-28T14:00:51.999Z</time></trkpt><trkpt lat="38.02372420194998" lon="15.371932909496026"><ele>596.0</ele><time>2026-04-28T14:00:52.999Z</time></trkpt><trkpt lat="38.023727996743986" lon="15.372053040044602"><ele>596.0</ele><time>2026-04-28T14:00:54.999Z</time></trkpt><trkpt lat="38.02369042806042" lon="15.372134439785503"><ele>596.0</ele><time>2026-04-28T14:00:56.999Z</time></trkpt><trkpt lat="38.023632109882705" lon="15.372190626873845"><ele>596.0</ele><time>2026-04-28T14:00:57.999Z</time></trkpt><trkpt lat="38.02356301847016" lon="15.372222849132129"><ele>596.0</ele><time>2026-04-28T14:00:58.999Z</time></trkpt><trkpt lat="38.02348454632058" lon="15.372244863941603"><ele>596.0</ele><time>2026-04-28T14:00:59.999Z</time></trkpt><trkpt lat="38.02339642794014" lon="15.372254448368412"><ele>596.0</ele><time>2026-04-28T14:01:00.999Z</time></trkpt><trkpt lat="38.02330918310832" lon="15.372239403456389"><ele>594.6666666666666</ele><time>2026-04-28T14:01:01.999Z</time></trkpt><trkpt lat="38.02323493932461" lon="15.372221085538142"><ele>593.3333333333333</ele><time>2026-04-28T14:01:02.999Z</time></trkpt><trkpt lat="38.02315472101878" lon="15.372175924417068"><ele>592.0</ele><time>2026-04-28T14:01:03.999Z</time></trkpt><trkpt lat="38.023064030403134" lon="15.372104542463855"><ele>590.6666666666666</ele><time>2026-04-28T14:01:05Z</time></trkpt><trkpt lat="38.02298335862214" lon="15.372056634226361"><ele>589.3333333333334</ele><time>2026-04-28T14:01:06Z</time></trkpt><trkpt lat="38.02290341987172" lon="15.372031494236364"><ele>588.0</ele><time>2026-04-28T14:01:07Z</time></trkpt><trkpt lat="38.02283185076258" lon="15.372040952741253"><ele>588.0</ele><time>2026-04-28T14:01:08Z</time></trkpt><trkpt lat="38.02276322195684" lon="15.372045223176736"><ele>588.0</ele><time>2026-04-28T14:01:09Z</time></trkpt><trkpt lat="38.022675103383214" lon="15.372010672415048"><ele>588.0</ele><time>2026-04-28T14:01:10Z</time></trkpt><trkpt lat="38.02257206078773" lon="15.371949590991376"><ele>588.0</ele><time>2026-04-28T14:01:11Z</time></trkpt><trkpt lat="38.022458722624386" lon="15.371902596247919"><ele>588.0</ele><time>2026-04-28T14:01:12Z</time></trkpt><trkpt lat="38.02235184433745" lon="15.371874417596947"><ele>583.1999999999999</ele><time>2026-04-28T14:01:13Z</time></trkpt><trkpt lat="38.02224467141468" lon="15.371859345676736"><ele>578.4</ele><time>2026-04-28T14:01:14Z</time></trkpt><trkpt lat="38.02214094147999" lon="15.37184304207508"><ele>573.5999999999999</ele><time>2026-04-28T14:01:15Z</time></trkpt><trkpt lat="38.022042080586665" lon="15.371827902531043"><ele>568.8</ele><time>2026-04-28T14:01:16Z</time></trkpt><trkpt lat="38.021943457679654" lon="15.371807493575751"><ele>564.0</ele><time>2026-04-28T14:01:17Z</time></trkpt><trkpt lat="38.02184426279891" lon="15.371791962679687"><ele>564.0</ele><time>2026-04-28T14:01:18Z</time></trkpt><trkpt lat="38.021748972120264" lon="15.37177633219684"><ele>564.0</ele><time>2026-04-28T14:01:19Z</time></trkpt><trkpt lat="38.02165856865467" lon="15.371774144951566"><ele>564.0</ele><time>2026-04-28T14:01:20Z</time></trkpt><trkpt lat="38.02158222647257" lon="15.371785749449666"><ele>564.0</ele><time>2026-04-28T14:01:21Z</time></trkpt><trkpt lat="38.02151487441101" lon="15.371790323679543"><ele>564.0</ele><time>2026-04-28T14:01:22Z</time></trkpt><trkpt lat="38.021382795547645" lon="15.3717319881932"><ele>560.8</ele><time>2026-04-28T14:01:24Z</time></trkpt><trkpt lat="38.02126924444584" lon="15.371651835171374"><ele>557.5999999999999</ele><time>2026-04-28T14:01:25Z</time></trkpt><trkpt lat="38.02117214138787" lon="15.371613563997423"><ele>554.4</ele><time>2026-04-28T14:01:26Z</time></trkpt><trkpt lat="38.02109971508244" lon="15.371602008216213"><ele>551.1999999999999</ele><time>2026-04-28T14:01:27Z</time></trkpt><trkpt lat="38.0210300955608" lon="15.371621218422169"><ele>548.0</ele><time>2026-04-28T14:01:28Z</time></trkpt><trkpt lat="38.02095438316464" lon="15.371627637946935"><ele>548.0</ele><time>2026-04-28T14:01:29Z</time></trkpt><trkpt lat="38.02088415635941" lon="15.37161648032868"><ele>548.0</ele><time>2026-04-28T14:01:30Z</time></trkpt><trkpt lat="38.02077534095843" lon="15.371591079119762"><ele>548.0</ele><time>2026-04-28T14:01:32Z</time></trkpt><trkpt lat="38.02070343305386" lon="15.371511085676076"><ele>548.0</ele><time>2026-04-28T14:01:34Z</time></trkpt><trkpt lat="38.02070816114279" lon="15.371637239733941"><ele>548.0</ele><time>2026-04-28T14:01:38Z</time></trkpt><trkpt lat="38.02077950607462" lon="15.371699390209358"><ele>548.0000000000001</ele><time>2026-04-28T14:01:39Z</time></trkpt><trkpt lat="38.02084762839766" lon="15.37173118328408"><ele>548.0</ele><time>2026-04-28T14:01:40Z</time></trkpt><trkpt lat="38.020910592707686" lon="15.371761873196784"><ele>548.0</ele><time>2026-04-28T14:01:41Z</time></trkpt><trkpt lat="38.020984032127906" lon="15.371793713032233"><ele>548.0</ele><time>2026-04-28T14:01:42Z</time></trkpt><trkpt lat="38.02104372623018" lon="15.371831170028209"><ele>548.0</ele><time>2026-04-28T14:01:43Z</time></trkpt><trkpt lat="38.02110008986249" lon="15.371896446620179"><ele>548.0000000000001</ele><time>2026-04-28T14:01:44Z</time></trkpt><trkpt lat="38.02115981999554" lon="15.371973447125459"><ele>548.0</ele><time>2026-04-28T14:01:45Z</time></trkpt><trkpt lat="38.02120073875779" lon="15.372049983359407"><ele>548.0</ele><time>2026-04-28T14:01:46Z</time></trkpt><trkpt lat="38.021236165185776" lon="15.372133795081004"><ele>548.0</ele><time>2026-04-28T14:01:47Z</time></trkpt><trkpt lat="38.02126892049785" lon="15.372217682539912"><ele>548.0</ele><time>2026-04-28T14:01:48Z</time></trkpt><trkpt lat="38.021311244695156" lon="15.372305623063832"><ele>548.0</ele><time>2026-04-28T14:01:49Z</time></trkpt><trkpt lat="38.021362915192356" lon="15.372379759573683"><ele>548.0</ele><time>2026-04-28T14:01:50Z</time></trkpt><trkpt lat="38.021417514896974" lon="15.372445907717502"><ele>548.0</ele><time>2026-04-28T14:01:51Z</time></trkpt><trkpt lat="38.0214786602226" lon="15.372504180790035"><ele>543.1999999999999</ele><time>2026-04-28T14:01:52Z</time></trkpt><trkpt lat="38.0215455924935" lon="15.37256081178952"><ele>538.4</ele><time>2026-04-28T14:01:53Z</time></trkpt><trkpt lat="38.02161573780966" lon="15.372617641949331"><ele>533.5999999999999</ele><time>2026-04-28T14:01:53.999Z</time></trkpt><trkpt lat="38.02168376414443" lon="15.372668857600589"><ele>528.8</ele><time>2026-04-28T14:01:54.999Z</time></trkpt><trkpt lat="38.02173227600886" lon="15.372732290651001"><ele>524.0</ele><time>2026-04-28T14:01:55.999Z</time></trkpt><trkpt lat="38.021811513723435" lon="15.372880567909885"><ele>524.0</ele><time>2026-04-28T14:01:57.999Z</time></trkpt><trkpt lat="38.02185798432936" lon="15.372941722043308"><ele>524.0</ele><time>2026-04-28T14:01:58.999Z</time></trkpt><trkpt lat="38.021924255909056" lon="15.372992005870723"><ele>524.0</ele><time>2026-04-28T14:01:59.999Z</time></trkpt><trkpt lat="38.02200107567639" lon="15.373022537169803"><ele>524.0</ele><time>2026-04-28T14:02:00.999Z</time></trkpt><trkpt lat="38.02208300932659" lon="15.37304514625155"><ele>524.0</ele><time>2026-04-28T14:02:01.999Z</time></trkpt><trkpt lat="38.02217108696466" lon="15.373073132472912"><ele>524.0</ele><time>2026-04-28T14:02:02.999Z</time></trkpt><trkpt lat="38.02225772237092" lon="15.373111803706859"><ele>521.5</ele><time>2026-04-28T14:02:03.999Z</time></trkpt><trkpt lat="38.022343994870994" lon="15.373167363782787"><ele>519.0</ele><time>2026-04-28T14:02:04.999Z</time></trkpt><trkpt lat="38.02241715027059" lon="15.373219355324613"><ele>516.5</ele><time>2026-04-28T14:02:05.999Z</time></trkpt><trkpt lat="38.022465700423545" lon="15.373294842524986"><ele>514.0</ele><time>2026-04-28T14:02:06.999Z</time></trkpt><trkpt lat="38.022503622487434" lon="15.3733848071351"><ele>511.49999999999994</ele><time>2026-04-28T14:02:07.999Z</time></trkpt><trkpt lat="38.02254936166864" lon="15.373485012083643"><ele>509.0</ele><time>2026-04-28T14:02:08.999Z</time></trkpt><trkpt lat="38.02260818141268" lon="15.373574639308492"><ele>509.0</ele><time>2026-04-28T14:02:09.999Z</time></trkpt><trkpt lat="38.02268733004474" lon="15.373656907036928"><ele>509.0</ele><time>2026-04-28T14:02:10.999Z</time></trkpt><trkpt lat="38.022750007449055" lon="15.373745118214377"><ele>509.0</ele><time>2026-04-28T14:02:11.999Z</time></trkpt><trkpt lat="38.022792655502045" lon="15.373837496185933"><ele>509.0</ele><time>2026-04-28T14:02:12.999Z</time></trkpt><trkpt lat="38.02282511679252" lon="15.373954239427242"><ele>509.0</ele><time>2026-04-28T14:02:13.999Z</time></trkpt><trkpt lat="38.02286841464664" lon="15.374039360398754"><ele>502.2</ele><time>2026-04-28T14:02:14.999Z</time></trkpt><trkpt lat="38.02291441220849" lon="15.374124877315639"><ele>495.4</ele><time>2026-04-28T14:02:15.999Z</time></trkpt><trkpt lat="38.022962697214915" lon="15.374198020143695"><ele>488.6</ele><time>2026-04-28T14:02:16.999Z</time></trkpt><trkpt lat="38.023025438394995" lon="15.37426601425184"><ele>481.8</ele><time>2026-04-28T14:02:17.999Z</time></trkpt><trkpt lat="38.02311160433535" lon="15.374337541826641"><ele>475.0</ele><time>2026-04-28T14:02:18.999Z</time></trkpt><trkpt lat="38.023211553565275" lon="15.374418625947797"><ele>475.00000000000006</ele><time>2026-04-28T14:02:19.999Z</time></trkpt><trkpt lat="38.02330125678217" lon="15.374486924716377"><ele>475.0</ele><time>2026-04-28T14:02:20.999Z</time></trkpt><trkpt lat="38.02337262028077" lon="15.374556564691888"><ele>475.0</ele><time>2026-04-28T14:02:21.999Z</time></trkpt><trkpt lat="38.02341391856114" lon="15.37463635741571"><ele>475.0</ele><time>2026-04-28T14:02:22.999Z</time></trkpt><trkpt lat="38.02344471454106" lon="15.37474888398167"><ele>475.00000000000006</ele><time>2026-04-28T14:02:23.999Z</time></trkpt><trkpt lat="38.023465743465906" lon="15.374843193480327"><ele>475.0</ele><time>2026-04-28T14:02:24.999Z</time></trkpt><trkpt lat="38.02356414319795" lon="15.37495142687409"><ele>474.83333333333337</ele><time>2026-04-28T14:02:26.999Z</time></trkpt><trkpt lat="38.02366055262848" lon="15.375034033321452"><ele>474.6666666666667</ele><time>2026-04-28T14:02:27.999Z</time></trkpt><trkpt lat="38.023745091315966" lon="15.375126105478303"><ele>474.5</ele><time>2026-04-28T14:02:28.999Z</time></trkpt><trkpt lat="38.02380569398764" lon="15.375187095590984"><ele>474.33333333333337</ele><time>2026-04-28T14:02:29.999Z</time></trkpt><trkpt lat="38.023860910964494" lon="15.375230251939898"><ele>474.1666666666667</ele><time>2026-04-28T14:02:30.999Z</time></trkpt><trkpt lat="38.0239334387219" lon="15.375254939176044"><ele>474.0</ele><time>2026-04-28T14:02:31.999Z</time></trkpt><trkpt lat="38.024034421694786" lon="15.375284144170514"><ele>474.0</ele><time>2026-04-28T14:02:32.999Z</time></trkpt><trkpt lat="38.024144277584256" lon="15.375321415841286"><ele>474.0</ele><time>2026-04-28T14:02:33.999Z</time></trkpt><trkpt lat="38.02423130900222" lon="15.375364917475414"><ele>474.0</ele><time>2026-04-28T14:02:34.999Z</time></trkpt><trkpt lat="38.02430833616382" lon="15.375392430232674"><ele>474.0</ele><time>2026-04-28T14:02:35.999Z</time></trkpt><trkpt lat="38.02437142278353" lon="15.375400831048642"><ele>474.0</ele><time>2026-04-28T14:02:36.999Z</time></trkpt><trkpt lat="38.02444545149765" lon="15.375454607393008"><ele>474.0</ele><time>2026-04-28T14:02:38.999Z</time></trkpt><trkpt lat="38.02443228203196" lon="15.375557595059586"><ele>474.0</ele><time>2026-04-28T14:02:40.999Z</time></trkpt><trkpt lat="38.024338644047646" lon="15.375581151409786"><ele>474.0</ele><time>2026-04-28T14:02:42.999Z</time></trkpt><trkpt lat="38.0242544577431" lon="15.37555746085686"><ele>474.0</ele><time>2026-04-28T14:02:43.999Z</time></trkpt><trkpt lat="38.024153745067615" lon="15.375525599256386"><ele>474.0</ele><time>2026-04-28T14:02:44.999Z</time></trkpt><trkpt lat="38.02404098896935" lon="15.375481350022305"><ele>474.0</ele><time>2026-04-28T14:02:45.999Z</time></trkpt><trkpt lat="38.02392523672776" lon="15.375467639648228"><ele>474.0</ele><time>2026-04-28T14:02:46.999Z</time></trkpt><trkpt lat="38.023840564743175" lon="15.375452009720082"><ele>474.0</ele><time>2026-04-28T14:02:47.999Z</time></trkpt><trkpt lat="38.02376356943112" lon="15.375423537779165"><ele>474.0</ele><time>2026-04-28T14:02:48.999Z</time></trkpt><trkpt lat="38.02368899971629" lon="15.375369500584613"><ele>474.0</ele><time>2026-04-28T14:02:49.999Z</time></trkpt><trkpt lat="38.02359694245992" lon="15.375301547387359"><ele>474.0</ele><time>2026-04-28T14:02:50.999Z</time></trkpt><trkpt lat="38.0235005150096" lon="15.37524158249214"><ele>474.0</ele><time>2026-04-28T14:02:51.999Z</time></trkpt><trkpt lat="38.023406752992415" lon="15.375192601727498"><ele>474.0</ele><time>2026-04-28T14:02:52.999Z</time></trkpt><trkpt lat="38.023324981927786" lon="15.375162186481115"><ele>474.0</ele><time>2026-04-28T14:02:53.999Z</time></trkpt><trkpt lat="38.02323952859297" lon="15.375157338584618"><ele>474.0</ele><time>2026-04-28T14:02:54.999Z</time></trkpt><trkpt lat="38.02314990160152" lon="15.375166033490762"><ele>474.0</ele><time>2026-04-28T14:02:55.999Z</time></trkpt><trkpt lat="38.0230603490577" lon="15.375171834149054"><ele>469.0</ele><time>2026-04-28T14:02:56.999Z</time></trkpt><trkpt lat="38.0229905122575" lon="15.375157676041402"><ele>464.0</ele><time>2026-04-28T14:02:57.999Z</time></trkpt><trkpt lat="38.02291889686004" lon="15.375155801013712"><ele>459.0</ele><time>2026-04-28T14:02:59.999Z</time></trkpt><trkpt lat="38.02295126497197" lon="15.375264839725418"><ele>454.0</ele><time>2026-04-28T14:03:01.999Z</time></trkpt><trkpt lat="38.023028512049166" lon="15.375300742048038"><ele>449.0</ele><time>2026-04-28T14:03:02.999Z</time></trkpt><trkpt lat="38.02310939273255" lon="15.375314376772636"><ele>444.0</ele><time>2026-04-28T14:03:03.999Z</time></trkpt><trkpt lat="38.02320860907055" lon="15.37535260908547"><ele>444.0</ele><time>2026-04-28T14:03:05.999Z</time></trkpt><trkpt lat="38.02328293369042" lon="15.375405349598406"><ele>444.0</ele><time>2026-04-28T14:03:07.999Z</time></trkpt><trkpt lat="38.02334675606955" lon="15.37545831075142"><ele>444.0</ele><time>2026-04-28T14:03:09.999Z</time></trkpt><trkpt lat="38.02340680259543" lon="15.375502924524886"><ele>444.0</ele><time>2026-04-28T14:03:11Z</time></trkpt><trkpt lat="38.02348447947706" lon="15.375572868916532"><ele>444.0</ele><time>2026-04-28T14:03:12Z</time></trkpt><trkpt lat="38.023560372298995" lon="15.375644211883731"><ele>444.0</ele><time>2026-04-28T14:03:13Z</time></trkpt><trkpt lat="38.0236246461627" lon="15.375709628230506"><ele>442.5</ele><time>2026-04-28T14:03:14Z</time></trkpt><trkpt lat="38.023682665726476" lon="15.375778851894916"><ele>441.0</ele><time>2026-04-28T14:03:15Z</time></trkpt><trkpt lat="38.02374109041744" lon="15.375841350733387"><ele>439.5</ele><time>2026-04-28T14:03:16Z</time></trkpt><trkpt lat="38.02380607845619" lon="15.375878599903642"><ele>438.0</ele><time>2026-04-28T14:03:17Z</time></trkpt><trkpt lat="38.023884427355334" lon="15.375920460601762"><ele>436.5</ele><time>2026-04-28T14:03:19Z</time></trkpt><trkpt lat="38.02386502082289" lon="15.376000673194676"><ele>435.0</ele><time>2026-04-28T14:03:21Z</time></trkpt><trkpt lat="38.02371250063679" lon="15.375992690216629"><ele>435.0</ele><time>2026-04-28T14:03:23Z</time></trkpt><trkpt lat="38.023585773130954" lon="15.37594290533941"><ele>435.0</ele><time>2026-04-28T14:03:24Z</time></trkpt><trkpt lat="38.02346136606188" lon="15.37588676768506"><ele>435.0</ele><time>2026-04-28T14:03:25Z</time></trkpt><trkpt lat="38.02335202435134" lon="15.375845446526313"><ele>435.0</ele><time>2026-04-28T14:03:26Z</time></trkpt><trkpt lat="38.02323990472153" lon="15.375814212241004"><ele>429.2</ele><time>2026-04-28T14:03:27Z</time></trkpt><trkpt lat="38.02313239705306" lon="15.37579845571548"><ele>423.4</ele><time>2026-04-28T14:03:28Z</time></trkpt><trkpt lat="38.023026775987624" lon="15.375787457328856"><ele>417.6</ele><time>2026-04-28T14:03:29Z</time></trkpt><trkpt lat="38.022928204674145" lon="15.375784686913647"><ele>411.8</ele><time>2026-04-28T14:03:30Z</time></trkpt><trkpt lat="38.02282938254579" lon="15.37576540013863"><ele>406.0</ele><time>2026-04-28T14:03:31Z</time></trkpt><trkpt lat="38.022728397520005" lon="15.37573336952305"><ele>406.0</ele><time>2026-04-28T14:03:32Z</time></trkpt><trkpt lat="38.02262655798888" lon="15.375722557760684"><ele>406.0</ele><time>2026-04-28T14:03:33Z</time></trkpt><trkpt lat="38.022534446393635" lon="15.375711551759316"><ele>406.0</ele><time>2026-04-28T14:03:34Z</time></trkpt><trkpt lat="38.02244724827158" lon="15.375694214556196"><ele>406.0</ele><time>2026-04-28T14:03:35Z</time></trkpt><trkpt lat="38.02236914097708" lon="15.375670718249731"><ele>406.0</ele><time>2026-04-28T14:03:36Z</time></trkpt><trkpt lat="38.02228654614928" lon="15.375604451972336"><ele>407.8</ele><time>2026-04-28T14:03:38Z</time></trkpt><trkpt lat="38.02228241410666" lon="15.375513107703547"><ele>409.6</ele><time>2026-04-28T14:03:40Z</time></trkpt><trkpt lat="38.02225914721106" lon="15.375361879398056"><ele>411.4</ele><time>2026-04-28T14:03:42Z</time></trkpt><trkpt lat="38.02217731288373" lon="15.375248645510556"><ele>413.2</ele><time>2026-04-28T14:03:44Z</time></trkpt><trkpt lat="38.02207861830116" lon="15.375166118973729"><ele>415.0</ele><time>2026-04-28T14:03:46Z</time></trkpt><trkpt lat="38.02195379919396" lon="15.37512110246542"><ele>415.00000000000006</ele><time>2026-04-28T14:03:48Z</time></trkpt><trkpt lat="38.02188563208608" lon="15.375101868910484"><ele>415.0</ele><time>2026-04-28T14:03:49Z</time></trkpt><trkpt lat="38.02181909583375" lon="15.375084594411609"><ele>415.0</ele><time>2026-04-28T14:03:50Z</time></trkpt><trkpt lat="38.021715430867864" lon="15.375064610310066"><ele>415.0</ele><time>2026-04-28T14:03:52Z</time></trkpt><trkpt lat="38.0216529339203" lon="15.375099153968897"><ele>415.00000000000006</ele><time>2026-04-28T14:03:55Z</time></trkpt><trkpt lat="38.02175476060301" lon="15.375138765887659"><ele>415.0</ele><time>2026-04-28T14:03:58Z</time></trkpt><trkpt lat="38.02186480076485" lon="15.37518654103096"><ele>415.0</ele><time>2026-04-28T14:03:59.999Z</time></trkpt><trkpt lat="38.02192763137215" lon="15.375268879944175"><ele>415.0</ele><time>2026-04-28T14:04:00.999Z</time></trkpt><trkpt lat="38.02199019781818" lon="15.37537425330463"><ele>415.0</ele><time>2026-04-28T14:04:01.999Z</time></trkpt><trkpt lat="38.02204285474299" lon="15.37547869484767"><ele>415.0</ele><time>2026-04-28T14:04:02.999Z</time></trkpt><trkpt lat="38.022093534604736" lon="15.375563037619974"><ele>415.0</ele><time>2026-04-28T14:04:03.999Z</time></trkpt><trkpt lat="38.02214975263691" lon="15.375663060817311"><ele>415.0</ele><time>2026-04-28T14:04:05.999Z</time></trkpt><trkpt lat="38.02209311145213" lon="15.375723150532139"><ele>415.0</ele><time>2026-04-28T14:04:07.999Z</time></trkpt><trkpt lat="38.02195008144903" lon="15.375619847191265"><ele>415.0</ele><time>2026-04-28T14:04:09.999Z</time></trkpt><trkpt lat="38.02187189380858" lon="15.375515071505678"><ele>415.0</ele><time>2026-04-28T14:04:10.999Z</time></trkpt><trkpt lat="38.021811674447406" lon="15.375412885159342"><ele>415.00000000000006</ele><time>2026-04-28T14:04:11.999Z</time></trkpt><trkpt lat="38.02175432997563" lon="15.375353245214956"><ele>415.0</ele><time>2026-04-28T14:04:12.999Z</time></trkpt><trkpt lat="38.02166430881468" lon="15.375338273835004"><ele>415.0</ele><time>2026-04-28T14:04:13.999Z</time></trkpt><trkpt lat="38.021563955489384" lon="15.375329034165045"><ele>415.0</ele><time>2026-04-28T14:04:14.999Z</time></trkpt><trkpt lat="38.021491096889505" lon="15.375316059714718"><ele>415.00000000000006</ele><time>2026-04-28T14:04:15.999Z</time></trkpt><trkpt lat="38.02142006268142" lon="15.375287333282758"><ele>415.0</ele><time>2026-04-28T14:04:17.999Z</time></trkpt><trkpt lat="38.02136847807444" lon="15.375359982384452"><ele>412.4</ele><time>2026-04-28T14:04:19.999Z</time></trkpt><trkpt lat="38.021389802376106" lon="15.37551197578817"><ele>409.8</ele><time>2026-04-28T14:04:21.999Z</time></trkpt><trkpt lat="38.02144365632522" lon="15.37558840703034"><ele>407.20000000000005</ele><time>2026-04-28T14:04:22.999Z</time></trkpt><trkpt lat="38.02148668194082" lon="15.375662365526313"><ele>404.6</ele><time>2026-04-28T14:04:23.999Z</time></trkpt><trkpt lat="38.02147248503038" lon="15.37581086223266"><ele>402.0</ele><time>2026-04-28T14:04:25.999Z</time></trkpt><trkpt lat="38.02143980042647" lon="15.375928278024768"><ele>402.0</ele><time>2026-04-28T14:04:26.999Z</time></trkpt><trkpt lat="38.02144109099807" lon="15.376045367558348"><ele>402.0</ele><time>2026-04-28T14:04:27.999Z</time></trkpt><trkpt lat="38.02146172286194" lon="15.376147749775543"><ele>402.0</ele><time>2026-04-28T14:04:28.999Z</time></trkpt><trkpt lat="38.021471457822244" lon="15.376231462442382"><ele>402.0</ele><time>2026-04-28T14:04:29.999Z</time></trkpt><trkpt lat="38.02141758590683" lon="15.376331943598"><ele>402.0</ele><time>2026-04-28T14:04:31.999Z</time></trkpt><trkpt lat="38.02134406506902" lon="15.376342641513785"><ele>402.0</ele><time>2026-04-28T14:04:32.999Z</time></trkpt><trkpt lat="38.02123842668205" lon="15.37631811745317"><ele>402.0</ele><time>2026-04-28T14:04:33.999Z</time></trkpt><trkpt lat="38.02112829772157" lon="15.376278571022183"><ele>402.0</ele><time>2026-04-28T14:04:34.999Z</time></trkpt><trkpt lat="38.02105082083063" lon="15.376260305355315"><ele>402.0</ele><time>2026-04-28T14:04:35.999Z</time></trkpt><trkpt lat="38.02101189082765" lon="15.37634733483302"><ele>402.0</ele><time>2026-04-28T14:04:38.999Z</time></trkpt><trkpt lat="38.02114039590042" lon="15.37638684424807"><ele>402.0</ele><time>2026-04-28T14:04:40.999Z</time></trkpt><trkpt lat="38.02122298319847" lon="15.376412668820972"><ele>397.8333333333333</ele><time>2026-04-28T14:04:41.999Z</time></trkpt><trkpt lat="38.02129453820555" lon="15.376484608187285"><ele>393.6666666666667</ele><time>2026-04-28T14:04:43.999Z</time></trkpt><trkpt lat="38.021238044866145" lon="15.376553049085135"><ele>389.5</ele><time>2026-04-28T14:04:45.999Z</time></trkpt><trkpt lat="38.02116806929993" lon="15.376542387832679"><ele>385.33333333333337</ele><time>2026-04-28T14:04:46.999Z</time></trkpt><trkpt lat="38.02110728466805" lon="15.376503987612935"><ele>381.1666666666667</ele><time>2026-04-28T14:04:47.999Z</time></trkpt><trkpt lat="38.02109961189223" lon="15.376632289594138"><ele>377.0</ele><time>2026-04-28T14:04:50.999Z</time></trkpt><trkpt lat="38.02117648934212" lon="15.376697471850457"><ele>377.0</ele><time>2026-04-28T14:04:51.999Z</time></trkpt><trkpt lat="38.02127967165449" lon="15.37673168739015"><ele>377.0</ele><time>2026-04-28T14:04:52.999Z</time></trkpt><trkpt lat="38.02137600797565" lon="15.376738570201539"><ele>377.0</ele><time>2026-04-28T14:04:53.999Z</time></trkpt><trkpt lat="38.0214569032775" lon="15.376766522437313"><ele>377.0</ele><time>2026-04-28T14:04:54.999Z</time></trkpt><trkpt lat="38.021553945720356" lon="15.37681544975502"><ele>377.0</ele><time>2026-04-28T14:04:56.999Z</time></trkpt><trkpt lat="38.02167934160144" lon="15.376818069218439"><ele>375.33333333333337</ele><time>2026-04-28T14:04:58.999Z</time></trkpt><trkpt lat="38.02174345049461" lon="15.37683149346711"><ele>373.6666666666667</ele><time>2026-04-28T14:04:59.999Z</time></trkpt><trkpt lat="38.0218580405604" lon="15.376868213911754"><ele>372.0</ele><time>2026-04-28T14:05:01.999Z</time></trkpt><trkpt lat="38.02194867727124" lon="15.376786711866437"><ele>370.3333333333333</ele><time>2026-04-28T14:05:03.999Z</time></trkpt><trkpt lat="38.02197116475544" lon="15.37670026602595"><ele>368.66666666666663</ele><time>2026-04-28T14:05:04.999Z</time></trkpt><trkpt lat="38.021980294996" lon="15.376609194784377"><ele>367.0</ele><time>2026-04-28T14:05:05.999Z</time></trkpt><trkpt lat="38.02201769441716" lon="15.376499556677391"><ele>367.0</ele><time>2026-04-28T14:05:07.999Z</time></trkpt><trkpt lat="38.02209377728497" lon="15.376554525543384"><ele>367.0</ele><time>2026-04-28T14:05:10.999Z</time></trkpt><trkpt lat="38.022069647938416" lon="15.376744071255192"><ele>367.0</ele><time>2026-04-28T14:05:12.999Z</time></trkpt><trkpt lat="38.02205386818185" lon="15.376857916639164"><ele>367.0</ele><time>2026-04-28T14:05:13.999Z</time></trkpt><trkpt lat="38.02204702599895" lon="15.37695065825638"><ele>367.0</ele><time>2026-04-28T14:05:14.999Z</time></trkpt><trkpt lat="38.02204178417312" lon="15.37704298194132"><ele>367.0</ele><time>2026-04-28T14:05:15.999Z</time></trkpt><trkpt lat="38.022071151246934" lon="15.377148595032962"><ele>367.0</ele><time>2026-04-28T14:05:17Z</time></trkpt><trkpt lat="38.02209500202449" lon="15.37725549692275"><ele>367.0</ele><time>2026-04-28T14:05:18Z</time></trkpt><trkpt lat="38.02210478911158" lon="15.377354522034906"><ele>367.0</ele><time>2026-04-28T14:05:19Z</time></trkpt><trkpt lat="38.02210509342575" lon="15.377441182883306"><ele>367.0</ele><time>2026-04-28T14:05:20Z</time></trkpt><trkpt lat="38.02211107900144" lon="15.377548870083292"><ele>367.0</ele><time>2026-04-28T14:05:22Z</time></trkpt><trkpt lat="38.02202163150122" lon="15.37758447182231"><ele>361.6</ele><time>2026-04-28T14:05:24Z</time></trkpt><trkpt lat="38.021964549768526" lon="15.377541712819376"><ele>356.20000000000005</ele><time>2026-04-28T14:05:25Z</time></trkpt><trkpt lat="38.02191157563204" lon="15.377595539701542"><ele>350.8</ele><time>2026-04-28T14:05:28Z</time></trkpt><trkpt lat="38.02203736372135" lon="15.37769856352805"><ele>345.4</ele><time>2026-04-28T14:05:30Z</time></trkpt><trkpt lat="38.022127016104776" lon="15.377727655652643"><ele>340.0</ele><time>2026-04-28T14:05:31Z</time></trkpt><trkpt lat="38.022213026625636" lon="15.377724602704362"><ele>340.0</ele><time>2026-04-28T14:05:32Z</time></trkpt><trkpt lat="38.0223074107907" lon="15.377735745453528"><ele>340.0</ele><time>2026-04-28T14:05:34Z</time></trkpt><trkpt lat="38.02230219538276" lon="15.377857004937951"><ele>340.0</ele><time>2026-04-28T14:05:36Z</time></trkpt><trkpt lat="38.022150786136" lon="15.37790311726995"><ele>340.0</ele><time>2026-04-28T14:05:38Z</time></trkpt><trkpt lat="38.022010409358536" lon="15.377886726770274"><ele>340.0</ele><time>2026-04-28T14:05:39Z</time></trkpt><trkpt lat="38.021876629120506" lon="15.37787843662841"><ele>340.0</ele><time>2026-04-28T14:05:40Z</time></trkpt><trkpt lat="38.02177262494755" lon="15.377886225385762"><ele>340.0</ele><time>2026-04-28T14:05:41Z</time></trkpt><trkpt lat="38.021697445733906" lon="15.377884300196884"><ele>340.0</ele><time>2026-04-28T14:05:42Z</time></trkpt><trkpt lat="38.021598616643175" lon="15.377965332077736"><ele>340.0</ele><time>2026-04-28T14:05:44Z</time></trkpt><trkpt lat="38.02154423222678" lon="15.378080493580175"><ele>338.75</ele><time>2026-04-28T14:05:45Z</time></trkpt><trkpt lat="38.02148829253504" lon="15.378197434819812"><ele>337.5</ele><time>2026-04-28T14:05:46Z</time></trkpt><trkpt lat="38.02140733990337" lon="15.378278951079118"><ele>336.25</ele><time>2026-04-28T14:05:47Z</time></trkpt><trkpt lat="38.021295720015786" lon="15.37835963954013"><ele>335.0</ele><time>2026-04-28T14:05:48Z</time></trkpt><trkpt lat="38.02118875423267" lon="15.378457419330767"><ele>335.0</ele><time>2026-04-28T14:05:49Z</time></trkpt><trkpt lat="38.02108372438819" lon="15.3785470510903"><ele>335.0</ele><time>2026-04-28T14:05:50Z</time></trkpt><trkpt lat="38.0209814725085" lon="15.378626708892059"><ele>335.0</ele><time>2026-04-28T14:05:51Z</time></trkpt><trkpt lat="38.02089406411423" lon="15.378679303238243"><ele>335.0</ele><time>2026-04-28T14:05:52Z</time></trkpt><trkpt lat="38.02079213215046" lon="15.37872435150504"><ele>333.0</ele><time>2026-04-28T14:05:53Z</time></trkpt><trkpt lat="38.02068062837085" lon="15.37876141041807"><ele>331.0</ele><time>2026-04-28T14:05:54Z</time></trkpt><trkpt lat="38.02049178836676" lon="15.378801832114736"><ele>329.0</ele><time>2026-04-28T14:05:56Z</time></trkpt><trkpt lat="38.02041404671571" lon="15.378810535922856"><ele>327.0</ele><time>2026-04-28T14:05:57Z</time></trkpt><trkpt lat="38.02034025019189" lon="15.37895269924407"><ele>327.0</ele><time>2026-04-28T14:05:59Z</time></trkpt><trkpt lat="38.02031085679942" lon="15.379056922495037"><ele>327.0</ele><time>2026-04-28T14:06:00Z</time></trkpt><trkpt lat="38.02026893008081" lon="15.379130022837568"><ele>327.0</ele><time>2026-04-28T14:06:01Z</time></trkpt><trkpt lat="38.020200369157706" lon="15.379188856104678"><ele>327.0</ele><time>2026-04-28T14:06:02Z</time></trkpt><trkpt lat="38.020128638416416" lon="15.379256918630405"><ele>327.0</ele><time>2026-04-28T14:06:03Z</time></trkpt><trkpt lat="38.020005562678676" lon="15.379265887876251"><ele>326.40000000000003</ele><time>2026-04-28T14:06:04Z</time></trkpt><trkpt lat="38.019907809703334" lon="15.379297503188013"><ele>325.8</ele><time>2026-04-28T14:06:05.999Z</time></trkpt><trkpt lat="38.019849565299445" lon="15.379229481218934"><ele>325.2</ele><time>2026-04-28T14:06:06.999Z</time></trkpt><trkpt lat="38.019764172284845" lon="15.379145828585152"><ele>324.6</ele><time>2026-04-28T14:06:07.999Z</time></trkpt><trkpt lat="38.01966142706834" lon="15.379070480288954"><ele>324.0</ele><time>2026-04-28T14:06:08.999Z</time></trkpt><trkpt lat="38.01955226776456" lon="15.378990997497603"><ele>324.0</ele><time>2026-04-28T14:06:09.999Z</time></trkpt><trkpt lat="38.01942235809138" lon="15.378941796793352"><ele>324.0</ele><time>2026-04-28T14:06:10.999Z</time></trkpt><trkpt lat="38.019311183888895" lon="15.378905520094902"><ele>324.0</ele><time>2026-04-28T14:06:11.999Z</time></trkpt><trkpt lat="38.019191556400926" lon="15.3788642968465"><ele>324.0</ele><time>2026-04-28T14:06:12.999Z</time></trkpt><trkpt lat="38.01905979540938" lon="15.378853293866092"><ele>324.6</ele><time>2026-04-28T14:06:13.999Z</time></trkpt><trkpt lat="38.018949427776775" lon="15.378856191137219"><ele>325.2</ele><time>2026-04-28T14:06:14.999Z</time></trkpt><trkpt lat="38.018847873778356" lon="15.378876261072062"><ele>325.8</ele><time>2026-04-28T14:06:15.999Z</time></trkpt><trkpt lat="38.01875437413186" lon="15.378916643344468"><ele>326.40000000000003</ele><time>2026-04-28T14:06:16.999Z</time></trkpt><trkpt lat="38.01869210410833" lon="15.378936515863506"><ele>327.0</ele><time>2026-04-28T14:06:17.999Z</time></trkpt><trkpt lat="38.01859046693991" lon="15.378888065610225"><ele>327.0</ele><time>2026-04-28T14:06:19.999Z</time></trkpt><trkpt lat="38.018513059341316" lon="15.37888535554397"><ele>327.0</ele><time>2026-04-28T14:06:20.999Z</time></trkpt><trkpt lat="38.01842643222251" lon="15.378918538939075"><ele>327.0</ele><time>2026-04-28T14:06:21.999Z</time></trkpt><trkpt lat="38.01832909653106" lon="15.378986078147875"><ele>327.0</ele><time>2026-04-28T14:06:22.999Z</time></trkpt><trkpt lat="38.01824501914985" lon="15.379037613111576"><ele>327.0</ele><time>2026-04-28T14:06:23.999Z</time></trkpt><trkpt lat="38.018174574685226" lon="15.379049099773088"><ele>327.0</ele><time>2026-04-28T14:06:24.999Z</time></trkpt><trkpt lat="38.01810698095585" lon="15.379029732443605"><ele>326.6</ele><time>2026-04-28T14:06:25.999Z</time></trkpt><trkpt lat="38.018058013379246" lon="15.378974826082182"><ele>326.20000000000005</ele><time>2026-04-28T14:06:26.999Z</time></trkpt><trkpt lat="38.018007691274576" lon="15.378877228597279"><ele>325.8</ele><time>2026-04-28T14:06:27.999Z</time></trkpt><trkpt lat="38.017918599410685" lon="15.37878627874759"><ele>325.4</ele><time>2026-04-28T14:06:28.999Z</time></trkpt><trkpt lat="38.017826612394586" lon="15.378724512105464"><ele>325.0</ele><time>2026-04-28T14:06:29.999Z</time></trkpt><trkpt lat="38.01775800782165" lon="15.378667802030694"><ele>332.75</ele><time>2026-04-28T14:06:30.999Z</time></trkpt><trkpt lat="38.017698010753286" lon="15.378568868126552"><ele>340.5</ele><time>2026-04-28T14:06:31.999Z</time></trkpt><trkpt lat="38.017636835254955" lon="15.378437091443534"><ele>348.25</ele><time>2026-04-28T14:06:32.999Z</time></trkpt><trkpt lat="38.017556158364165" lon="15.378320728744308"><ele>356.0</ele><time>2026-04-28T14:06:33.999Z</time></trkpt><trkpt lat="38.01746161327209" lon="15.378230751656947"><ele>357.20000000000005</ele><time>2026-04-28T14:06:34.999Z</time></trkpt><trkpt lat="38.01739295920928" lon="15.37813139729571"><ele>358.40000000000003</ele><time>2026-04-28T14:06:35.999Z</time></trkpt><trkpt lat="38.01731991807239" lon="15.37801554147242"><ele>359.6</ele><time>2026-04-28T14:06:36.999Z</time></trkpt><trkpt lat="38.017248917585995" lon="15.377929269929725"><ele>360.8</ele><time>2026-04-28T14:06:37.999Z</time></trkpt><trkpt lat="38.01718419537224" lon="15.37785467440369"><ele>362.0</ele><time>2026-04-28T14:06:38.999Z</time></trkpt><trkpt lat="38.0171543430465" lon="15.377744505089233"><ele>365.20000000000005</ele><time>2026-04-28T14:06:39.999Z</time></trkpt><trkpt lat="38.017124855116755" lon="15.377657985266941"><ele>368.4</ele><time>2026-04-28T14:06:40.999Z</time></trkpt><trkpt lat="38.01704350362455" lon="15.377577135945529"><ele>371.6</ele><time>2026-04-28T14:06:41.999Z</time></trkpt><trkpt lat="38.01695454207902" lon="15.377481401964104"><ele>374.79999999999995</ele><time>2026-04-28T14:06:42.999Z</time></trkpt><trkpt lat="38.016879403011785" lon="15.37739737109785"><ele>378.0</ele><time>2026-04-28T14:06:43.999Z</time></trkpt><trkpt lat="38.01682586977616" lon="15.377315333089433"><ele>378.0</ele><time>2026-04-28T14:06:44.999Z</time></trkpt><trkpt lat="38.01678565928914" lon="15.37723308249696"><ele>378.0</ele><time>2026-04-28T14:06:45.999Z</time></trkpt><trkpt lat="38.016733904008134" lon="15.377167393514554"><ele>378.0</ele><time>2026-04-28T14:06:46.999Z</time></trkpt><trkpt lat="38.016672582872204" lon="15.377109034942741"><ele>378.0</ele><time>2026-04-28T14:06:47.999Z</time></trkpt><trkpt lat="38.01657943463901" lon="15.377077459652114"><ele>378.0</ele><time>2026-04-28T14:06:49.999Z</time></trkpt><trkpt lat="38.016513964538156" lon="15.377105245039663"><ele>378.0</ele><time>2026-04-28T14:06:50.999Z</time></trkpt><trkpt lat="38.01644912718532" lon="15.377149749653208"><ele>385.0</ele><time>2026-04-28T14:06:51.999Z</time></trkpt><trkpt lat="38.01640777954382" lon="15.377256149834402"><ele>392.0</ele><time>2026-04-28T14:06:53.999Z</time></trkpt><trkpt lat="38.01642730761986" lon="15.377345090721084"><ele>399.0</ele><time>2026-04-28T14:06:54.999Z</time></trkpt><trkpt lat="38.01644949335549" lon="15.377438277462284"><ele>406.0</ele><time>2026-04-28T14:06:55.999Z</time></trkpt><trkpt lat="38.01643090586638" lon="15.377564962663564"><ele>413.0</ele><time>2026-04-28T14:06:57.999Z</time></trkpt><trkpt lat="38.0164525727886" lon="15.377649636186893"><ele>420.0</ele><time>2026-04-28T14:07:26Z</time></trkpt><trkpt lat="38.016455212750834" lon="15.377732269282102"><ele>420.0</ele><time>2026-04-28T14:07:27Z</time></trkpt><trkpt lat="38.01644798013267" lon="15.377840170887195"><ele>420.0</ele><time>2026-04-28T14:07:28Z</time></trkpt><trkpt lat="38.01643940372058" lon="15.377971400571749"><ele>420.0</ele><time>2026-04-28T14:07:29Z</time></trkpt><trkpt lat="38.01644465943043" lon="15.378096824561124"><ele>420.0</ele><time>2026-04-28T14:07:30Z</time></trkpt><trkpt lat="38.01645172783515" lon="15.37822189509864"><ele>420.0</ele><time>2026-04-28T14:07:31Z</time></trkpt><trkpt lat="38.01645268895933" lon="15.37833956589906"><ele>419.0</ele><time>2026-04-28T14:07:32Z</time></trkpt><trkpt lat="38.0164275779494" lon="15.378436831544056"><ele>418.0</ele><time>2026-04-28T14:07:33Z</time></trkpt><trkpt lat="38.016390536367965" lon="15.378535860203417"><ele>417.0</ele><time>2026-04-28T14:07:34Z</time></trkpt><trkpt lat="38.01634462884036" lon="15.37865545031467"><ele>416.0</ele><time>2026-04-28T14:07:35Z</time></trkpt><trkpt lat="38.016308285486055" lon="15.378803835035333"><ele>415.0</ele><time>2026-04-28T14:07:36Z</time></trkpt><trkpt lat="38.01629454219378" lon="15.378957168195857"><ele>413.5</ele><time>2026-04-28T14:07:37Z</time></trkpt><trkpt lat="38.01628347239116" lon="15.379100956405676"><ele>412.0</ele><time>2026-04-28T14:07:38Z</time></trkpt><trkpt lat="38.01624302376245" lon="15.379236284209457"><ele>410.5</ele><time>2026-04-28T14:07:39Z</time></trkpt><trkpt lat="38.016215432708584" lon="15.379376378778689"><ele>409.0</ele><time>2026-04-28T14:07:40Z</time></trkpt><trkpt lat="38.01622831378827" lon="15.379517091295176"><ele>409.0</ele><time>2026-04-28T14:07:41Z</time></trkpt><trkpt lat="38.01626372243863" lon="15.379652457802946"><ele>409.0</ele><time>2026-04-28T14:07:42Z</time></trkpt><trkpt lat="38.01632157905436" lon="15.379800585244855"><ele>409.0</ele><time>2026-04-28T14:07:43Z</time></trkpt><trkpt lat="38.016375068518386" lon="15.379936822510683"><ele>409.0</ele><time>2026-04-28T14:07:44Z</time></trkpt><trkpt lat="38.01640589682608" lon="15.380057366534784"><ele>407.4</ele><time>2026-04-28T14:07:45Z</time></trkpt><trkpt lat="38.01642428809167" lon="15.380177884956366"><ele>405.79999999999995</ele><time>2026-04-28T14:07:46Z</time></trkpt><trkpt lat="38.0164182620771" lon="15.380307635577669"><ele>404.20000000000005</ele><time>2026-04-28T14:07:47Z</time></trkpt><trkpt lat="38.01642927335173" lon="15.38042731615536"><ele>402.6</ele><time>2026-04-28T14:07:48Z</time></trkpt><trkpt lat="38.01646088001411" lon="15.380535420201161"><ele>401.0</ele><time>2026-04-28T14:07:49Z</time></trkpt><trkpt lat="38.01646704728789" lon="15.380654427513651"><ele>395.8</ele><time>2026-04-28T14:07:50Z</time></trkpt><trkpt lat="38.01645773869669" lon="15.380767640894751"><ele>390.6</ele><time>2026-04-28T14:07:51Z</time></trkpt><trkpt lat="38.01637947769737" lon="15.380868144901292"><ele>385.4</ele><time>2026-04-28T14:07:53Z</time></trkpt><trkpt lat="38.016275833137904" lon="15.380885746279535"><ele>380.2</ele><time>2026-04-28T14:07:54Z</time></trkpt><trkpt lat="38.01615861084575" lon="15.380917473381654"><ele>375.0</ele><time>2026-04-28T14:07:55Z</time></trkpt><trkpt lat="38.01604147638143" lon="15.380971456601074"><ele>375.0</ele><time>2026-04-28T14:07:56Z</time></trkpt><trkpt lat="38.01594844980972" lon="15.38101970198829"><ele>375.0</ele><time>2026-04-28T14:07:57Z</time></trkpt><trkpt lat="38.01587262181325" lon="15.381039093630106"><ele>375.0</ele><time>2026-04-28T14:07:58Z</time></trkpt><trkpt lat="38.0157729347883" lon="15.381026362550795"><ele>375.0</ele><time>2026-04-28T14:07:59Z</time></trkpt><trkpt lat="38.01566611256602" lon="15.381017963936806"><ele>375.0</ele><time>2026-04-28T14:08:00Z</time></trkpt><trkpt lat="38.015573178302105" lon="15.381045775519219"><ele>377.3333333333333</ele><time>2026-04-28T14:08:01Z</time></trkpt><trkpt lat="38.01546589181054" lon="15.38101796903826"><ele>379.66666666666663</ele><time>2026-04-28T14:08:03Z</time></trkpt><trkpt lat="38.015418420284455" lon="15.38094985985472"><ele>382.0</ele><time>2026-04-28T14:08:04Z</time></trkpt><trkpt lat="38.01536326980032" lon="15.380873908209855"><ele>384.3333333333333</ele><time>2026-04-28T14:08:05Z</time></trkpt><trkpt lat="38.0152907366385" lon="15.380822446097882"><ele>386.66666666666663</ele><time>2026-04-28T14:08:06Z</time></trkpt><trkpt lat="38.01522459731257" lon="15.380814387807202"><ele>389.0</ele><time>2026-04-28T14:08:07Z</time></trkpt><trkpt lat="38.015174264073494" lon="15.380969917624029"><ele>388.99999999999994</ele><time>2026-04-28T14:08:09Z</time></trkpt><trkpt lat="38.015146624798426" lon="15.381057016404199"><ele>389.0</ele><time>2026-04-28T14:08:10Z</time></trkpt><trkpt lat="38.01510017884082" lon="15.381112144117184"><ele>389.0</ele><time>2026-04-28T14:08:11Z</time></trkpt><trkpt lat="38.015038949498" lon="15.381184152126758"><ele>389.0</ele><time>2026-04-28T14:08:12Z</time></trkpt><trkpt lat="38.014969912403814" lon="15.381219137625637"><ele>388.99999999999994</ele><time>2026-04-28T14:08:13Z</time></trkpt><trkpt lat="38.01488302956291" lon="15.381244317256423"><ele>389.0</ele><time>2026-04-28T14:08:14Z</time></trkpt><trkpt lat="38.014794829550205" lon="15.381245833100824"><ele>388.3333333333333</ele><time>2026-04-28T14:08:14.999Z</time></trkpt><trkpt lat="38.0146916883075" lon="15.38122711472965"><ele>387.66666666666663</ele><time>2026-04-28T14:08:15.999Z</time></trkpt><trkpt lat="38.014609659159305" lon="15.38120653545874"><ele>387.0</ele><time>2026-04-28T14:08:16.999Z</time></trkpt><trkpt lat="38.01454122526634" lon="15.38120923874119"><ele>386.33333333333337</ele><time>2026-04-28T14:08:17.999Z</time></trkpt><trkpt lat="38.01447831506453" lon="15.381256626773638"><ele>385.6666666666667</ele><time>2026-04-28T14:08:18.999Z</time></trkpt><trkpt lat="38.01442696857745" lon="15.38132595728607"><ele>385.0</ele><time>2026-04-28T14:08:19.999Z</time></trkpt><trkpt lat="38.0144070378592" lon="15.38140474254864"><ele>385.0</ele><time>2026-04-28T14:08:20.999Z</time></trkpt><trkpt lat="38.014428572277005" lon="15.381499811833947"><ele>385.0</ele><time>2026-04-28T14:08:21.999Z</time></trkpt><trkpt lat="38.01446604195869" lon="15.381606419684866"><ele>385.0</ele><time>2026-04-28T14:08:22.999Z</time></trkpt><trkpt lat="38.014483332106586" lon="15.381714198639914"><ele>385.0</ele><time>2026-04-28T14:08:23.999Z</time></trkpt><trkpt lat="38.014468869485796" lon="15.381808575122635"><ele>385.0</ele><time>2026-04-28T14:08:24.999Z</time></trkpt><trkpt lat="38.0143759334153" lon="15.38192399897368"><ele>385.0</ele><time>2026-04-28T14:08:26.999Z</time></trkpt><trkpt lat="38.01429818022661" lon="15.381973140509222"><ele>385.0</ele><time>2026-04-28T14:08:27.999Z</time></trkpt><trkpt lat="38.01420120084681" lon="15.382040780973728"><ele>385.0</ele><time>2026-04-28T14:08:28.999Z</time></trkpt><trkpt lat="38.014123397066484" lon="15.382140031377007"><ele>385.0</ele><time>2026-04-28T14:08:29.999Z</time></trkpt><trkpt lat="38.014067264000516" lon="15.38222316568223"><ele>385.0</ele><time>2026-04-28T14:08:30.999Z</time></trkpt><trkpt lat="38.01400146720151" lon="15.382269593243448"><ele>387.6</ele><time>2026-04-28T14:08:31.999Z</time></trkpt><trkpt lat="38.01392439319855" lon="15.382318087085721"><ele>390.2</ele><time>2026-04-28T14:08:32.999Z</time></trkpt><trkpt lat="38.01385761245356" lon="15.382385871407307"><ele>392.79999999999995</ele><time>2026-04-28T14:08:33.999Z</time></trkpt><trkpt lat="38.0138126233651" lon="15.3824829159871"><ele>395.4</ele><time>2026-04-28T14:08:34.999Z</time></trkpt><trkpt lat="38.01378059371981" lon="15.38260048377386"><ele>398.0</ele><time>2026-04-28T14:08:35.999Z</time></trkpt><trkpt lat="38.01376354671231" lon="15.382721943961439"><ele>397.99999999999994</ele><time>2026-04-28T14:08:36.999Z</time></trkpt><trkpt lat="38.01375580210627" lon="15.382839063674027"><ele>398.0</ele><time>2026-04-28T14:08:37.999Z</time></trkpt><trkpt lat="38.01374847679077" lon="15.382959065037"><ele>398.0</ele><time>2026-04-28T14:08:38.999Z</time></trkpt><trkpt lat="38.013732572873714" lon="15.383089424981975"><ele>398.0</ele><time>2026-04-28T14:08:39.999Z</time></trkpt><trkpt lat="38.01371356293867" lon="15.383185100833169"><ele>397.99999999999994</ele><time>2026-04-28T14:08:40.999Z</time></trkpt><trkpt lat="38.01367303846085" lon="15.383260302106374"><ele>398.0</ele><time>2026-04-28T14:08:41.999Z</time></trkpt><trkpt lat="38.01360625887399" lon="15.383332710642529"><ele>396.79999999999995</ele><time>2026-04-28T14:08:42.999Z</time></trkpt><trkpt lat="38.01350955194002" lon="15.383393056489588"><ele>395.6</ele><time>2026-04-28T14:08:43.999Z</time></trkpt><trkpt lat="38.013398521787906" lon="15.383444345441049"><ele>394.4</ele><time>2026-04-28T14:08:44.999Z</time></trkpt><trkpt lat="38.0133160704874" lon="15.38351078175954"><ele>393.20000000000005</ele><time>2026-04-28T14:08:45.999Z</time></trkpt><trkpt lat="38.013256567480255" lon="15.383601323356444"><ele>392.0</ele><time>2026-04-28T14:08:46.999Z</time></trkpt><trkpt lat="38.01320053669531" lon="15.383704202952673"><ele>391.0</ele><time>2026-04-28T14:08:47.999Z</time></trkpt><trkpt lat="38.01315381991936" lon="15.38379863700876"><ele>390.0</ele><time>2026-04-28T14:08:48.999Z</time></trkpt><trkpt lat="38.013084815429515" lon="15.383863670222814"><ele>389.0</ele><time>2026-04-28T14:08:49.999Z</time></trkpt><trkpt lat="38.01299098327113" lon="15.38390034536077"><ele>388.0</ele><time>2026-04-28T14:08:50.999Z</time></trkpt><trkpt lat="38.01289082028549" lon="15.383933103293623"><ele>387.0</ele><time>2026-04-28T14:08:51.999Z</time></trkpt><trkpt lat="38.01279655605913" lon="15.383939509148146"><ele>387.0</ele><time>2026-04-28T14:08:52.999Z</time></trkpt><trkpt lat="38.01270195775875" lon="15.383927732521112"><ele>387.0</ele><time>2026-04-28T14:08:53.999Z</time></trkpt><trkpt lat="38.012605990869005" lon="15.383890520501664"><ele>387.0</ele><time>2026-04-28T14:08:54.999Z</time></trkpt><trkpt lat="38.01251701514357" lon="15.383844858797147"><ele>387.0</ele><time>2026-04-28T14:08:55.999Z</time></trkpt><trkpt lat="38.0124214349558" lon="15.383811367820046"><ele>387.0</ele><time>2026-04-28T14:08:56.999Z</time></trkpt><trkpt lat="38.012303193875454" lon="15.383798157923431"><ele>397.8</ele><time>2026-04-28T14:08:57.999Z</time></trkpt><trkpt lat="38.01217657967916" lon="15.383757361200507"><ele>408.6</ele><time>2026-04-28T14:08:58.999Z</time></trkpt><trkpt lat="38.01208368063102" lon="15.383754731528995"><ele>419.40000000000003</ele><time>2026-04-28T14:08:59.999Z</time></trkpt><trkpt lat="38.01198638986638" lon="15.38377679948248"><ele>430.20000000000005</ele><time>2026-04-28T14:09:00.999Z</time></trkpt><trkpt lat="38.011873769275454" lon="15.38379389974182"><ele>441.0</ele><time>2026-04-28T14:09:01.999Z</time></trkpt><trkpt lat="38.011779807056826" lon="15.383812712909629"><ele>441.0</ele><time>2026-04-28T14:09:02.999Z</time></trkpt><trkpt lat="38.01170401470115" lon="15.38384436585058"><ele>441.0</ele><time>2026-04-28T14:09:03.999Z</time></trkpt><trkpt lat="38.011641956120194" lon="15.383877573059916"><ele>441.0</ele><time>2026-04-28T14:09:04.999Z</time></trkpt><trkpt lat="38.0115533217208" lon="15.38392962524213"><ele>441.0</ele><time>2026-04-28T14:09:05.999Z</time></trkpt><trkpt lat="38.01148184293385" lon="15.38397176723632"><ele>441.0</ele><time>2026-04-28T14:09:06.999Z</time></trkpt><trkpt lat="38.01143258801233" lon="15.3840280169248"><ele>441.0</ele><time>2026-04-28T14:09:07.999Z</time></trkpt><trkpt lat="38.01138894386423" lon="15.384103966313292"><ele>440.8333333333333</ele><time>2026-04-28T14:09:08.999Z</time></trkpt><trkpt lat="38.011345427849434" lon="15.384206232455275"><ele>440.66666666666663</ele><time>2026-04-28T14:09:09.999Z</time></trkpt><trkpt lat="38.01129280122398" lon="15.38427449522849"><ele>440.5</ele><time>2026-04-28T14:09:10.999Z</time></trkpt><trkpt lat="38.011239628066065" lon="15.384317278817951"><ele>440.3333333333333</ele><time>2026-04-28T14:09:11.999Z</time></trkpt><trkpt lat="38.0111656425086" lon="15.384314150489004"><ele>440.16666666666663</ele><time>2026-04-28T14:09:12.999Z</time></trkpt><trkpt lat="38.01107281021177" lon="15.38430027182968"><ele>440.0</ele><time>2026-04-28T14:09:13.999Z</time></trkpt><trkpt lat="38.010987271350615" lon="15.384368448543055"><ele>439.99999999999994</ele><time>2026-04-28T14:09:15.999Z</time></trkpt><trkpt lat="38.01098610230834" lon="15.38444935716162"><ele>440.0</ele><time>2026-04-28T14:09:16.999Z</time></trkpt><trkpt lat="38.011001914524456" lon="15.384528512138145"><ele>440.0</ele><time>2026-04-28T14:09:17.999Z</time></trkpt><trkpt lat="38.01099532776569" lon="15.384610014751287"><ele>440.0</ele><time>2026-04-28T14:09:18.999Z</time></trkpt><trkpt lat="38.010948014170694" lon="15.384700774312186"><ele>439.99999999999994</ele><time>2026-04-28T14:09:19.999Z</time></trkpt><trkpt lat="38.010870263074324" lon="15.384827990594573"><ele>440.0</ele><time>2026-04-28T14:09:20.999Z</time></trkpt><trkpt lat="38.0108189673781" lon="15.384946770867298"><ele>443.8333333333333</ele><time>2026-04-28T14:09:21.999Z</time></trkpt><trkpt lat="38.01078352332074" lon="15.385032020421148"><ele>447.66666666666663</ele><time>2026-04-28T14:09:22.999Z</time></trkpt><trkpt lat="38.01073458414397" lon="15.385089597674177"><ele>451.5</ele><time>2026-04-28T14:09:23.999Z</time></trkpt><trkpt lat="38.01066001327729" lon="15.385148453944359"><ele>455.33333333333337</ele><time>2026-04-28T14:09:24.999Z</time></trkpt><trkpt lat="38.01060735863528" lon="15.385224368189064"><ele>459.1666666666667</ele><time>2026-04-28T14:09:25.999Z</time></trkpt><trkpt lat="38.0105864958681" lon="15.38532973687213"><ele>463.0</ele><time>2026-04-28T14:09:26.999Z</time></trkpt><trkpt lat="38.01056885543258" lon="15.38545757392081"><ele>463.00000000000006</ele><time>2026-04-28T14:09:27.999Z</time></trkpt><trkpt lat="38.0105369165673" lon="15.38554643620803"><ele>463.0</ele><time>2026-04-28T14:09:29Z</time></trkpt><trkpt lat="38.01046198864589" lon="15.38555186596657"><ele>463.0</ele><time>2026-04-28T14:09:31Z</time></trkpt><trkpt lat="38.01044423258414" lon="15.385424687625331"><ele>463.0</ele><time>2026-04-28T14:09:33Z</time></trkpt><trkpt lat="38.010466687047455" lon="15.385320475734686"><ele>463.00000000000006</ele><time>2026-04-28T14:09:34Z</time></trkpt><trkpt lat="38.010506717243274" lon="15.38520498300429"><ele>463.0</ele><time>2026-04-28T14:09:35Z</time></trkpt><trkpt lat="38.010530812167076" lon="15.38513093046951"><ele>463.0</ele><time>2026-04-28T14:09:36Z</time></trkpt><trkpt lat="38.01045632894399" lon="15.385091571573831"><ele>462.99999999999994</ele><time>2026-04-28T14:09:39Z</time></trkpt><trkpt lat="38.01039845133909" lon="15.385151270673093"><ele>462.99999999999994</ele><time>2026-04-28T14:09:40Z</time></trkpt><trkpt lat="38.01034421772754" lon="15.385270405091072"><ele>463.0</ele><time>2026-04-28T14:09:41Z</time></trkpt><trkpt lat="38.01027016778685" lon="15.38541462230627"><ele>463.0</ele><time>2026-04-28T14:09:42Z</time></trkpt><trkpt lat="38.01018016267557" lon="15.385518572058865"><ele>460.33333333333337</ele><time>2026-04-28T14:09:43Z</time></trkpt><trkpt lat="38.01010059005605" lon="15.385592416600938"><ele>457.6666666666667</ele><time>2026-04-28T14:09:44Z</time></trkpt><trkpt lat="38.01002812643679" lon="15.385652690656583"><ele>455.0</ele><time>2026-04-28T14:09:45Z</time></trkpt><trkpt lat="38.009952863363814" lon="15.385686820655971"><ele>452.33333333333337</ele><time>2026-04-28T14:09:46Z</time></trkpt><trkpt lat="38.00987819013402" lon="15.385717074282947"><ele>449.6666666666667</ele><time>2026-04-28T14:09:47Z</time></trkpt><trkpt lat="38.00980423686325" lon="15.385758891817664"><ele>447.0</ele><time>2026-04-28T14:09:48Z</time></trkpt><trkpt lat="38.00974307922244" lon="15.385819345718785"><ele>447.0</ele><time>2026-04-28T14:09:49Z</time></trkpt><trkpt lat="38.00967813088274" lon="15.38587484835573"><ele>447.00000000000006</ele><time>2026-04-28T14:09:50Z</time></trkpt><trkpt lat="38.00960955025012" lon="15.385911112888197"><ele>447.00000000000006</ele><time>2026-04-28T14:09:51Z</time></trkpt><trkpt lat="38.009532894261675" lon="15.385945095904018"><ele>447.0</ele><time>2026-04-28T14:09:52Z</time></trkpt><trkpt lat="38.00942179819341" lon="15.385959497438327"><ele>447.0</ele><time>2026-04-28T14:09:53Z</time></trkpt><trkpt lat="38.009295905224334" lon="15.385975141225146"><ele>447.0</ele><time>2026-04-28T14:09:54Z</time></trkpt><trkpt lat="38.009187695362684" lon="15.38600789256407"><ele>447.00000000000006</ele><time>2026-04-28T14:09:55Z</time></trkpt><trkpt lat="38.00910496100222" lon="15.386077224886291"><ele>447.00000000000006</ele><time>2026-04-28T14:09:56Z</time></trkpt><trkpt lat="38.00902957166495" lon="15.38617409679908"><ele>447.0</ele><time>2026-04-28T14:09:57Z</time></trkpt><trkpt lat="38.008941343709566" lon="15.386263812068306"><ele>447.0</ele><time>2026-04-28T14:09:58Z</time></trkpt><trkpt lat="38.00887567274347" lon="15.386349090277077"><ele>443.1666666666667</ele><time>2026-04-28T14:09:59Z</time></trkpt><trkpt lat="38.008825099888575" lon="15.386411106492297"><ele>439.33333333333337</ele><time>2026-04-28T14:10:00Z</time></trkpt><trkpt lat="38.0087646314461" lon="15.386444199111267"><ele>435.5</ele><time>2026-04-28T14:10:01Z</time></trkpt><trkpt lat="38.00867024524954" lon="15.38646893119436"><ele>431.6666666666667</ele><time>2026-04-28T14:10:02Z</time></trkpt><trkpt lat="38.00856834142229" lon="15.386486882457572"><ele>427.83333333333337</ele><time>2026-04-28T14:10:03Z</time></trkpt><trkpt lat="38.00850631245543" lon="15.38650161647827"><ele>424.0</ele><time>2026-04-28T14:10:04Z</time></trkpt><trkpt lat="38.00843206267994" lon="15.386486008834021"><ele>424.0</ele><time>2026-04-28T14:10:07Z</time></trkpt><trkpt lat="38.00836285940372" lon="15.386443885531103"><ele>424.0</ele><time>2026-04-28T14:10:08Z</time></trkpt><trkpt lat="38.00827928400586" lon="15.386382734935625"><ele>424.0</ele><time>2026-04-28T14:10:09Z</time></trkpt><trkpt lat="38.00819207830073" lon="15.386336907206527"><ele>424.0</ele><time>2026-04-28T14:10:10Z</time></trkpt><trkpt lat="38.008087270027445" lon="15.386328064508774"><ele>424.0</ele><time>2026-04-28T14:10:11Z</time></trkpt><trkpt lat="38.00797028378705" lon="15.38632790727173"><ele>423.6</ele><time>2026-04-28T14:10:12Z</time></trkpt><trkpt lat="38.00784711403543" lon="15.386330097200082"><ele>423.2</ele><time>2026-04-28T14:10:13Z</time></trkpt><trkpt lat="38.0077230631665" lon="15.386350065566678"><ele>422.8</ele><time>2026-04-28T14:10:14Z</time></trkpt><trkpt lat="38.00762050968191" lon="15.38634879501942"><ele>422.40000000000003</ele><time>2026-04-28T14:10:15Z</time></trkpt><trkpt lat="38.00752867670886" lon="15.386358192507501"><ele>422.0</ele><time>2026-04-28T14:10:16Z</time></trkpt><trkpt lat="38.00742859044937" lon="15.386399748799985"><ele>421.8</ele><time>2026-04-28T14:10:17Z</time></trkpt><trkpt lat="38.00733278068587" lon="15.386450712368292"><ele>421.6</ele><time>2026-04-28T14:10:17.999Z</time></trkpt><trkpt lat="38.00725851329461" lon="15.386520989155835"><ele>421.40000000000003</ele><time>2026-04-28T14:10:18.999Z</time></trkpt><trkpt lat="38.0071937501066" lon="15.386613025665014"><ele>421.20000000000005</ele><time>2026-04-28T14:10:19.999Z</time></trkpt><trkpt lat="38.0071326015013" lon="15.386717785910001"><ele>421.0</ele><time>2026-04-28T14:10:20.999Z</time></trkpt><trkpt lat="38.00707338766584" lon="15.386809392857153"><ele>421.00000000000006</ele><time>2026-04-28T14:10:21.999Z</time></trkpt><trkpt lat="38.007023896463224" lon="15.386880914240965"><ele>421.0</ele><time>2026-04-28T14:10:22.999Z</time></trkpt><trkpt lat="38.0069752907034" lon="15.386947314003237"><ele>421.0</ele><time>2026-04-28T14:10:23.999Z</time></trkpt><trkpt lat="38.006887910566675" lon="15.387018020271965"><ele>421.0</ele><time>2026-04-28T14:10:25.999Z</time></trkpt><trkpt lat="38.006824692381464" lon="15.387017129708159"><ele>421.00000000000006</ele><time>2026-04-28T14:10:26.999Z</time></trkpt><trkpt lat="38.00673170562249" lon="15.386974302741859"><ele>421.0</ele><time>2026-04-28T14:10:27.999Z</time></trkpt><trkpt lat="38.00663225610143" lon="15.386942836487979"><ele>417.0</ele><time>2026-04-28T14:10:28.999Z</time></trkpt><trkpt lat="38.0065372359844" lon="15.38692711653712"><ele>413.0</ele><time>2026-04-28T14:10:29.999Z</time></trkpt><trkpt lat="38.006438904923684" lon="15.386891674516589"><ele>409.0</ele><time>2026-04-28T14:10:30.999Z</time></trkpt><trkpt lat="38.00635829864992" lon="15.386866447131407"><ele>405.0</ele><time>2026-04-28T14:10:31.999Z</time></trkpt><trkpt lat="38.006290251795654" lon="15.386846115594146"><ele>401.0</ele><time>2026-04-28T14:10:32.999Z</time></trkpt><trkpt lat="38.00618345895617" lon="15.386828987257006"><ele>400.99999999999994</ele><time>2026-04-28T14:10:34.999Z</time></trkpt><trkpt lat="38.006112421621324" lon="15.386831219642383"><ele>401.0</ele><time>2026-04-28T14:10:36.999Z</time></trkpt><trkpt lat="38.00605013906189" lon="15.386766582201409"><ele>401.0</ele><time>2026-04-28T14:10:39.999Z</time></trkpt><trkpt lat="38.00601177536673" lon="15.386650418307037"><ele>401.0</ele><time>2026-04-28T14:10:41.999Z</time></trkpt><trkpt lat="38.00597182196661" lon="15.38655382335014"><ele>400.99999999999994</ele><time>2026-04-28T14:10:43.999Z</time></trkpt><trkpt lat="38.005905976086474" lon="15.386508173785803"><ele>401.0</ele><time>2026-04-28T14:10:45.999Z</time></trkpt><trkpt lat="38.00578642750221" lon="15.386492093402868"><ele>399.0</ele><time>2026-04-28T14:10:47.999Z</time></trkpt><trkpt lat="38.00569056771307" lon="15.386503271847388"><ele>397.0</ele><time>2026-04-28T14:10:48.999Z</time></trkpt><trkpt lat="38.00557814187037" lon="15.386509553645823"><ele>395.0</ele><time>2026-04-28T14:10:49.999Z</time></trkpt><trkpt lat="38.005471561824315" lon="15.386516199232041"><ele>393.0</ele><time>2026-04-28T14:10:50.999Z</time></trkpt><trkpt lat="38.005371183944675" lon="15.386521895146307"><ele>391.0</ele><time>2026-04-28T14:10:51.999Z</time></trkpt><trkpt lat="38.00528703635701" lon="15.386521107688948"><ele>391.0</ele><time>2026-04-28T14:10:52.999Z</time></trkpt><trkpt lat="38.005196997976945" lon="15.38650569801871"><ele>391.0</ele><time>2026-04-28T14:10:53.999Z</time></trkpt><trkpt lat="38.00511005315271" lon="15.386491951118554"><ele>391.0</ele><time>2026-04-28T14:10:54.999Z</time></trkpt><trkpt lat="38.005017619906134" lon="15.386483882735043"><ele>391.0</ele><time>2026-04-28T14:10:55.999Z</time></trkpt><trkpt lat="38.00491480125879" lon="15.386499802006444"><ele>391.0</ele><time>2026-04-28T14:10:56.999Z</time></trkpt><trkpt lat="38.00480977926974" lon="15.386529751029844"><ele>390.6</ele><time>2026-04-28T14:10:57.999Z</time></trkpt><trkpt lat="38.00471246997687" lon="15.386561880424333"><ele>390.20000000000005</ele><time>2026-04-28T14:10:58.999Z</time></trkpt><trkpt lat="38.00461241107537" lon="15.386592494404495"><ele>389.79999999999995</ele><time>2026-04-28T14:10:59.999Z</time></trkpt><trkpt lat="38.00451810388374" lon="15.386624760382855"><ele>389.4</ele><time>2026-04-28T14:11:00.999Z</time></trkpt><trkpt lat="38.00443591454808" lon="15.38665313695262"><ele>389.0</ele><time>2026-04-28T14:11:01.999Z</time></trkpt><trkpt lat="38.00436634285489" lon="15.386663313578985"><ele>389.0</ele><time>2026-04-28T14:11:02.999Z</time></trkpt><trkpt lat="38.004291525075246" lon="15.386666995405989"><ele>389.0</ele><time>2026-04-28T14:11:03.999Z</time></trkpt><trkpt lat="38.00421372923288" lon="15.386686277878752"><ele>389.0</ele><time>2026-04-28T14:11:04.999Z</time></trkpt><trkpt lat="38.00413069560354" lon="15.386710345285517"><ele>389.0</ele><time>2026-04-28T14:11:05.999Z</time></trkpt><trkpt lat="38.0040222818583" lon="15.38673615727898"><ele>389.0</ele><time>2026-04-28T14:11:06.999Z</time></trkpt><trkpt lat="38.00388836299878" lon="15.386759175595037"><ele>391.25</ele><time>2026-04-28T14:11:07.999Z</time></trkpt><trkpt lat="38.00374309880379" lon="15.386758666478247"><ele>393.5</ele><time>2026-04-28T14:11:08.999Z</time></trkpt><trkpt lat="38.003628607554894" lon="15.386753172926426"><ele>395.75</ele><time>2026-04-28T14:11:09.999Z</time></trkpt><trkpt lat="38.00351754693086" lon="15.386754208616416"><ele>398.0</ele><time>2026-04-28T14:11:10.999Z</time></trkpt><trkpt lat="38.003391746941446" lon="15.38675697882075"><ele>396.75</ele><time>2026-04-28T14:11:11.999Z</time></trkpt><trkpt lat="38.00326213965035" lon="15.386769133483606"><ele>395.5</ele><time>2026-04-28T14:11:12.999Z</time></trkpt><trkpt lat="38.00313915241435" lon="15.38678994353833"><ele>394.25</ele><time>2026-04-28T14:11:13.999Z</time></trkpt><trkpt lat="38.003026092575745" lon="15.386819266211258"><ele>393.0</ele><time>2026-04-28T14:11:14.999Z</time></trkpt><trkpt lat="38.00294301486619" lon="15.386850521135226"><ele>393.0</ele><time>2026-04-28T14:11:15.999Z</time></trkpt><trkpt lat="38.00286908667234" lon="15.386876349970354"><ele>393.0</ele><time>2026-04-28T14:11:16.999Z</time></trkpt><trkpt lat="38.002740215432574" lon="15.386866212759147"><ele>393.0</ele><time>2026-04-28T14:11:18.999Z</time></trkpt><trkpt lat="38.00265354580385" lon="15.386800178711786"><ele>393.0</ele><time>2026-04-28T14:11:20.999Z</time></trkpt><trkpt lat="38.00261955821085" lon="15.386701193884571"><ele>393.0</ele><time>2026-04-28T14:11:22.999Z</time></trkpt><trkpt lat="38.00261338022365" lon="15.386610126603482"><ele>393.0</ele><time>2026-04-28T14:11:23.999Z</time></trkpt><trkpt lat="38.00260951816995" lon="15.386511776002575"><ele>393.0</ele><time>2026-04-28T14:11:24.999Z</time></trkpt><trkpt lat="38.002620516421345" lon="15.386430544207936"><ele>393.0</ele><time>2026-04-28T14:11:25.999Z</time></trkpt><trkpt lat="38.00263781854056" lon="15.386343863845784"><ele>393.0</ele><time>2026-04-28T14:11:26.999Z</time></trkpt><trkpt lat="38.002662693891224" lon="15.386233005104227"><ele>393.0</ele><time>2026-04-28T14:11:27.999Z</time></trkpt><trkpt lat="38.00269542524466" lon="15.386125801092152"><ele>393.0</ele><time>2026-04-28T14:11:28.999Z</time></trkpt><trkpt lat="38.002720370130994" lon="15.386017604324563"><ele>392.3333333333333</ele><time>2026-04-28T14:11:29.999Z</time></trkpt><trkpt lat="38.00274095600594" lon="15.385907781359041"><ele>391.66666666666663</ele><time>2026-04-28T14:11:30.999Z</time></trkpt><trkpt lat="38.00274062237425" lon="15.385786232665724"><ele>391.0</ele><time>2026-04-28T14:11:31.999Z</time></trkpt><trkpt lat="38.00274779010872" lon="15.385680401496472"><ele>390.3333333333333</ele><time>2026-04-28T14:11:32.999Z</time></trkpt><trkpt lat="38.00276310281146" lon="15.38558281629575"><ele>389.66666666666663</ele><time>2026-04-28T14:11:34Z</time></trkpt><trkpt lat="38.00277971148459" lon="15.385479355057146"><ele>389.0</ele><time>2026-04-28T14:11:35Z</time></trkpt><trkpt lat="38.00280870929947" lon="15.38536289590925"><ele>388.0</ele><time>2026-04-28T14:11:36Z</time></trkpt><trkpt lat="38.002853858526976" lon="15.385247949234278"><ele>387.0</ele><time>2026-04-28T14:11:37Z</time></trkpt><trkpt lat="38.002897484928106" lon="15.38512932610908"><ele>386.0</ele><time>2026-04-28T14:11:38Z</time></trkpt><trkpt lat="38.002929971477336" lon="15.38501641239628"><ele>385.0</ele><time>2026-04-28T14:11:39Z</time></trkpt><trkpt lat="38.00294876796161" lon="15.38491777738555"><ele>384.0</ele><time>2026-04-28T14:11:40Z</time></trkpt><trkpt lat="38.00295589575967" lon="15.38481038066725"><ele>384.0</ele><time>2026-04-28T14:11:41Z</time></trkpt><trkpt lat="38.00294255354217" lon="15.384691309350393"><ele>384.0</ele><time>2026-04-28T14:11:42Z</time></trkpt><trkpt lat="38.00292528189814" lon="15.384565122851075"><ele>384.0</ele><time>2026-04-28T14:11:43Z</time></trkpt><trkpt lat="38.002910277561064" lon="15.384433038198564"><ele>384.0</ele><time>2026-04-28T14:11:44Z</time></trkpt><trkpt lat="38.002902298505234" lon="15.384319440546044"><ele>384.0</ele><time>2026-04-28T14:11:45Z</time></trkpt><trkpt lat="38.002900131306774" lon="15.384211689127085"><ele>382.0</ele><time>2026-04-28T14:11:46Z</time></trkpt><trkpt lat="38.002903900597474" lon="15.38412127417341"><ele>380.0</ele><time>2026-04-28T14:11:47Z</time></trkpt><trkpt lat="38.002940506793855" lon="15.383957617187525"><ele>378.0</ele><time>2026-04-28T14:11:49Z</time></trkpt><trkpt lat="38.002976890661905" lon="15.383831814668598"><ele>376.0</ele><time>2026-04-28T14:11:50Z</time></trkpt><trkpt lat="38.00300815991725" lon="15.38370019602649"><ele>374.0</ele><time>2026-04-28T14:11:51Z</time></trkpt><trkpt lat="38.00302044663972" lon="15.383569702937365"><ele>373.0</ele><time>2026-04-28T14:11:52Z</time></trkpt><trkpt lat="38.0030217077825" lon="15.383445507487641"><ele>372.0</ele><time>2026-04-28T14:11:53Z</time></trkpt><trkpt lat="38.00301078005594" lon="15.38333056313558"><ele>371.0</ele><time>2026-04-28T14:11:54Z</time></trkpt><trkpt lat="38.00301291511441" lon="15.383234476515389"><ele>370.0</ele><time>2026-04-28T14:11:55Z</time></trkpt><trkpt lat="38.00304196768069" lon="15.383100791628104"><ele>369.0</ele><time>2026-04-28T14:11:57Z</time></trkpt><trkpt lat="38.00311166968553" lon="15.3829959853898"><ele>369.0</ele><time>2026-04-28T14:11:59Z</time></trkpt><trkpt lat="38.003163509443475" lon="15.382926828720867"><ele>369.0</ele><time>2026-04-28T14:12:00Z</time></trkpt><trkpt lat="38.00320776546181" lon="15.382857026783983"><ele>369.0</ele><time>2026-04-28T14:12:01Z</time></trkpt><trkpt lat="38.00321441068104" lon="15.382719720867827"><ele>369.0</ele><time>2026-04-28T14:12:03Z</time></trkpt><trkpt lat="38.00322390267975" lon="15.382622207696272"><ele>369.0</ele><time>2026-04-28T14:12:04Z</time></trkpt><trkpt lat="38.00323848100343" lon="15.382508477605821"><ele>369.0</ele><time>2026-04-28T14:12:05Z</time></trkpt><trkpt lat="38.00323931808397" lon="15.382403584709529"><ele>369.0</ele><time>2026-04-28T14:12:06Z</time></trkpt><trkpt lat="38.003234937596105" lon="15.382303393856754"><ele>369.0</ele><time>2026-04-28T14:12:07Z</time></trkpt><trkpt lat="38.00323142924723" lon="15.382221927857143"><ele>369.0</ele><time>2026-04-28T14:12:08Z</time></trkpt><trkpt lat="38.00323728485691" lon="15.382109538272648"><ele>369.0</ele><time>2026-04-28T14:12:10Z</time></trkpt><trkpt lat="38.003286764718375" lon="15.381976612161912"><ele>369.0</ele><time>2026-04-28T14:12:12Z</time></trkpt><trkpt lat="38.00332095755899" lon="15.381905495704109"><ele>369.0</ele><time>2026-04-28T14:12:13Z</time></trkpt><trkpt lat="38.003334219898164" lon="15.381739918516423"><ele>367.0</ele><time>2026-04-28T14:12:15Z</time></trkpt><trkpt lat="38.003336353292546" lon="15.381647170438095"><ele>365.0</ele><time>2026-04-28T14:12:16Z</time></trkpt><trkpt lat="38.003344974605305" lon="15.381560453673774"><ele>363.0</ele><time>2026-04-28T14:12:16.999Z</time></trkpt><trkpt lat="38.003397895318734" lon="15.38143275776299"><ele>361.0</ele><time>2026-04-28T14:12:18.999Z</time></trkpt><trkpt lat="38.00344797212517" lon="15.381367403804662"><ele>359.0</ele><time>2026-04-28T14:12:19.999Z</time></trkpt><trkpt lat="38.003501037832365" lon="15.381302813289615"><ele>357.0</ele><time>2026-04-28T14:12:20.999Z</time></trkpt><trkpt lat="38.003556420637615" lon="15.381238366400485"><ele>357.0</ele><time>2026-04-28T14:12:21.999Z</time></trkpt><trkpt lat="38.003605475000676" lon="15.38115794309097"><ele>357.0</ele><time>2026-04-28T14:12:22.999Z</time></trkpt><trkpt lat="38.0036486432226" lon="15.38107283775712"><ele>357.0</ele><time>2026-04-28T14:12:23.999Z</time></trkpt><trkpt lat="38.00369231951495" lon="15.380994252799617"><ele>357.0</ele><time>2026-04-28T14:12:24.999Z</time></trkpt><trkpt lat="38.00372898981294" lon="15.380913203141644"><ele>357.0</ele><time>2026-04-28T14:12:25.999Z</time></trkpt><trkpt lat="38.00379033788269" lon="15.380803796128903"><ele>357.0</ele><time>2026-04-28T14:12:27.999Z</time></trkpt><trkpt lat="38.003886103848195" lon="15.380716974218046"><ele>357.0</ele><time>2026-04-28T14:12:29.999Z</time></trkpt><trkpt lat="38.00394745162283" lon="15.38064056516849"><ele>357.0</ele><time>2026-04-28T14:12:30.999Z</time></trkpt><trkpt lat="38.00400534043998" lon="15.380572178731049"><ele>357.0</ele><time>2026-04-28T14:12:31.999Z</time></trkpt><trkpt lat="38.004072561292475" lon="15.380517679078013"><ele>357.0</ele><time>2026-04-28T14:12:32.999Z</time></trkpt><trkpt lat="38.004132022799375" lon="15.380470523049544"><ele>357.0</ele><time>2026-04-28T14:12:33.999Z</time></trkpt><trkpt lat="38.004157039387735" lon="15.380325214262507"><ele>357.0</ele><time>2026-04-28T14:12:35.999Z</time></trkpt><trkpt lat="38.00414714104506" lon="15.380242147095029"><ele>353.0</ele><time>2026-04-28T14:12:36.999Z</time></trkpt><trkpt lat="38.00414187779695" lon="15.380160381811024"><ele>349.0</ele><time>2026-04-28T14:12:37.999Z</time></trkpt><trkpt lat="38.00413987007824" lon="15.380072646701565"><ele>345.0</ele><time>2026-04-28T14:12:38.999Z</time></trkpt><trkpt lat="38.00419484392237" lon="15.379943927004096"><ele>341.0</ele><time>2026-04-28T14:12:40.999Z</time></trkpt><trkpt lat="38.00425364519059" lon="15.379893522032615"><ele>337.0</ele><time>2026-04-28T14:12:41.999Z</time></trkpt><trkpt lat="38.004336456008765" lon="15.37987243159773"><ele>333.0</ele><time>2026-04-28T14:12:42.999Z</time></trkpt><trkpt lat="38.00441978691023" lon="15.379846234690858"><ele>339.0</ele><time>2026-04-28T14:12:43.999Z</time></trkpt><trkpt lat="38.00451185687403" lon="15.379752664430207"><ele>345.0</ele><time>2026-04-28T14:12:45.999Z</time></trkpt><trkpt lat="38.0045486790424" lon="15.379618432873423"><ele>351.0</ele><time>2026-04-28T14:12:47.999Z</time></trkpt><trkpt lat="38.00456967432365" lon="15.379517576485824"><ele>357.0</ele><time>2026-04-28T14:12:48.999Z</time></trkpt><trkpt lat="38.00460075037837" lon="15.379407428996666"><ele>363.0</ele><time>2026-04-28T14:12:49.999Z</time></trkpt><trkpt lat="38.00463106309378" lon="15.379288722674305"><ele>363.0</ele><time>2026-04-28T14:12:50.999Z</time></trkpt><trkpt lat="38.004646247826116" lon="15.379157621416526"><ele>363.0</ele><time>2026-04-28T14:12:51.999Z</time></trkpt><trkpt lat="38.00465305612586" lon="15.379025798424113"><ele>363.0</ele><time>2026-04-28T14:12:52.999Z</time></trkpt><trkpt lat="38.00466267007186" lon="15.37892360387329"><ele>363.0</ele><time>2026-04-28T14:12:53.999Z</time></trkpt><trkpt lat="38.00465996248032" lon="15.378835102088956"><ele>363.0</ele><time>2026-04-28T14:12:54.999Z</time></trkpt><trkpt lat="38.004657483108105" lon="15.378716917929204"><ele>358.59999999999997</ele><time>2026-04-28T14:12:56.999Z</time></trkpt><trkpt lat="38.004753004287494" lon="15.378665521633312"><ele>354.2</ele><time>2026-04-28T14:12:58.999Z</time></trkpt><trkpt lat="38.00484504998366" lon="15.378674408852957"><ele>349.8</ele><time>2026-04-28T14:12:59.999Z</time></trkpt><trkpt lat="38.00493601464172" lon="15.37865458726697"><ele>345.4</ele><time>2026-04-28T14:13:00.999Z</time></trkpt><trkpt lat="38.005001840570436" lon="15.378616583288808"><ele>341.0</ele><time>2026-04-28T14:13:01.999Z</time></trkpt><trkpt lat="38.0050649663153" lon="15.378534061083688"><ele>346.5</ele><time>2026-04-28T14:13:03.999Z</time></trkpt><trkpt lat="38.00506956197027" lon="15.37843046253299"><ele>352.0</ele><time>2026-04-28T14:13:04.999Z</time></trkpt><trkpt lat="38.00507238692081" lon="15.378300563057278"><ele>357.5</ele><time>2026-04-28T14:13:05.999Z</time></trkpt><trkpt lat="38.00507713704592" lon="15.378191674749518"><ele>363.0</ele><time>2026-04-28T14:13:06.999Z</time></trkpt><trkpt lat="38.005073305529926" lon="15.378108252437745"><ele>368.5</ele><time>2026-04-28T14:13:07.999Z</time></trkpt><trkpt lat="38.005081362115" lon="15.37802777083642"><ele>374.0</ele><time>2026-04-28T14:13:08.999Z</time></trkpt><trkpt lat="38.0051068811676" lon="15.37794131773017"><ele>374.0</ele><time>2026-04-28T14:13:09.999Z</time></trkpt><trkpt lat="38.005140742138686" lon="15.37784143515805"><ele>374.0</ele><time>2026-04-28T14:13:10.999Z</time></trkpt><trkpt lat="38.005167363395564" lon="15.37773985565882"><ele>374.0</ele><time>2026-04-28T14:13:11.999Z</time></trkpt><trkpt lat="38.00518575167964" lon="15.377662974128382"><ele>374.0</ele><time>2026-04-28T14:13:12.999Z</time></trkpt><trkpt lat="38.005202310728585" lon="15.37758441703437"><ele>374.0</ele><time>2026-04-28T14:13:13.999Z</time></trkpt><trkpt lat="38.005218197641454" lon="15.37750281743036"><ele>374.0</ele><time>2026-04-28T14:13:14.999Z</time></trkpt><trkpt lat="38.0052334536935" lon="15.377418782863037"><ele>374.0</ele><time>2026-04-28T14:13:15.999Z</time></trkpt><trkpt lat="38.00524959862365" lon="15.377327852217363"><ele>374.0</ele><time>2026-04-28T14:13:16.999Z</time></trkpt><trkpt lat="38.00525320645595" lon="15.377227709739444"><ele>374.0</ele><time>2026-04-28T14:13:17.999Z</time></trkpt><trkpt lat="38.0052498151264" lon="15.377132779627642"><ele>374.0</ele><time>2026-04-28T14:13:18.999Z</time></trkpt><trkpt lat="38.00523886228385" lon="15.37705147158304"><ele>374.0</ele><time>2026-04-28T14:13:19.999Z</time></trkpt><trkpt lat="38.00519794045055" lon="15.37691467625076"><ele>374.0</ele><time>2026-04-28T14:13:21.999Z</time></trkpt><trkpt lat="38.005172534505" lon="15.37679784108478"><ele>374.0</ele><time>2026-04-28T14:13:23.999Z</time></trkpt><trkpt lat="38.00520679194901" lon="15.376672479057502"><ele>373.83333333333337</ele><time>2026-04-28T14:13:25.999Z</time></trkpt><trkpt lat="38.00522985401898" lon="15.376575212151211"><ele>373.6666666666667</ele><time>2026-04-28T14:13:27.999Z</time></trkpt><trkpt lat="38.005142622698486" lon="15.376484573585545"><ele>373.5</ele><time>2026-04-28T14:13:29.999Z</time></trkpt><trkpt lat="38.005079534743786" lon="15.376439435456682"><ele>373.3333333333333</ele><time>2026-04-28T14:13:30.999Z</time></trkpt><trkpt lat="38.00500824491197" lon="15.376386534217104"><ele>373.16666666666663</ele><time>2026-04-28T14:13:31.999Z</time></trkpt><trkpt lat="38.00492425984533" lon="15.376333744608704"><ele>373.0</ele><time>2026-04-28T14:13:33.999Z</time></trkpt><trkpt lat="38.004897015081156" lon="15.376187749030837"><ele>368.0</ele><time>2026-04-28T14:13:36.999Z</time></trkpt><trkpt lat="38.00488871499675" lon="15.376059985939166"><ele>363.0</ele><time>2026-04-28T14:13:38.999Z</time></trkpt><trkpt lat="38.00487054262093" lon="15.375922285152912"><ele>358.0</ele><time>2026-04-28T14:13:41Z</time></trkpt><trkpt lat="38.00485355825775" lon="15.37583640607036"><ele>353.0</ele><time>2026-04-28T14:13:42Z</time></trkpt><trkpt lat="38.00485490431622" lon="15.375743069939007"><ele>348.0</ele><time>2026-04-28T14:13:43Z</time></trkpt><trkpt lat="38.004868109616325" lon="15.375640860899246"><ele>343.0</ele><time>2026-04-28T14:13:44Z</time></trkpt><trkpt lat="38.00489246891507" lon="15.375543580301033"><ele>343.85714285714283</ele><time>2026-04-28T14:13:45Z</time></trkpt><trkpt lat="38.00491112058892" lon="15.37545512206972"><ele>344.7142857142857</ele><time>2026-04-28T14:13:46Z</time></trkpt><trkpt lat="38.00493710764681" lon="15.375378209559424"><ele>345.57142857142856</ele><time>2026-04-28T14:13:47Z</time></trkpt><trkpt lat="38.00496481168351" lon="15.375304204686344"><ele>346.42857142857144</ele><time>2026-04-28T14:13:48Z</time></trkpt><trkpt lat="38.005016459016886" lon="15.375219240912127"><ele>347.2857142857143</ele><time>2026-04-28T14:13:49Z</time></trkpt><trkpt lat="38.0050599060848" lon="15.37513379417335"><ele>348.1428571428571</ele><time>2026-04-28T14:13:50Z</time></trkpt><trkpt lat="38.00510240401777" lon="15.37505360688217"><ele>349.0</ele><time>2026-04-28T14:13:51Z</time></trkpt><trkpt lat="38.00512618196532" lon="15.374969836695692"><ele>349.0</ele><time>2026-04-28T14:13:52Z</time></trkpt><trkpt lat="38.005156897861696" lon="15.37485893352705"><ele>349.0</ele><time>2026-04-28T14:13:54Z</time></trkpt><trkpt lat="38.005098104040236" lon="15.374777303390577"><ele>349.0</ele><time>2026-04-28T14:13:57Z</time></trkpt><trkpt lat="38.00501250756898" lon="15.374783407203987"><ele>349.0</ele><time>2026-04-28T14:13:59Z</time></trkpt><trkpt lat="38.004931692273" lon="15.374882887520014"><ele>349.0</ele><time>2026-04-28T14:14:01Z</time></trkpt><trkpt lat="38.004861244604356" lon="15.374961052948873"><ele>349.0</ele><time>2026-04-28T14:14:03Z</time></trkpt><trkpt lat="38.00484511340694" lon="15.37486288746503"><ele>349.0</ele><time>2026-04-28T14:14:07Z</time></trkpt><trkpt lat="38.00485190914498" lon="15.374595890057961"><ele>349.0</ele><time>2026-04-28T14:14:09Z</time></trkpt><trkpt lat="38.004863288578626" lon="15.374502537321986"><ele>349.0</ele><time>2026-04-28T14:14:10Z</time></trkpt><trkpt lat="38.004944119872505" lon="15.374444716364298"><ele>350.4</ele><time>2026-04-28T14:14:13Z</time></trkpt><trkpt lat="38.00507361502362" lon="15.374434003502925"><ele>351.79999999999995</ele><time>2026-04-28T14:14:15Z</time></trkpt><trkpt lat="38.005147775125984" lon="15.374441854425314"><ele>353.20000000000005</ele><time>2026-04-28T14:14:16Z</time></trkpt><trkpt lat="38.0052268909029" lon="15.374430427588901"><ele>354.6</ele><time>2026-04-28T14:14:17Z</time></trkpt><trkpt lat="38.00529472994835" lon="15.374404235198382"><ele>356.0</ele><time>2026-04-28T14:14:18Z</time></trkpt><trkpt lat="38.00536939576207" lon="15.374325796142543"><ele>356.0</ele><time>2026-04-28T14:14:19.999Z</time></trkpt><trkpt lat="38.00530489992055" lon="15.374221407259716"><ele>356.0</ele><time>2026-04-28T14:14:21.999Z</time></trkpt><trkpt lat="38.00520114456002" lon="15.374211730933432"><ele>356.0</ele><time>2026-04-28T14:14:23.999Z</time></trkpt><trkpt lat="38.00510144690988" lon="15.37418496703921"><ele>356.0</ele><time>2026-04-28T14:14:25.999Z</time></trkpt><trkpt lat="38.005039473109285" lon="15.374141449080957"><ele>356.0</ele><time>2026-04-28T14:14:26.999Z</time></trkpt><trkpt lat="38.004994500543226" lon="15.374083407578354"><ele>356.0</ele><time>2026-04-28T14:14:27.999Z</time></trkpt><trkpt lat="38.00494352612119" lon="15.373982265202864"><ele>357.83333333333337</ele><time>2026-04-28T14:14:28.999Z</time></trkpt><trkpt lat="38.004873478931955" lon="15.37396096854019"><ele>359.6666666666667</ele><time>2026-04-28T14:14:29.999Z</time></trkpt><trkpt lat="38.00478207028408" lon="15.373950671376408"><ele>361.5</ele><time>2026-04-28T14:14:30.999Z</time></trkpt><trkpt lat="38.004690243519306" lon="15.373956892776897"><ele>363.3333333333333</ele><time>2026-04-28T14:14:31.999Z</time></trkpt><trkpt lat="38.004596884194434" lon="15.373961819987898"><ele>365.16666666666663</ele><time>2026-04-28T14:14:32.999Z</time></trkpt><trkpt lat="38.00452246526341" lon="15.373975192119513"><ele>367.0</ele><time>2026-04-28T14:14:33.999Z</time></trkpt><trkpt lat="38.00440634433795" lon="15.374060814465714"><ele>367.0</ele><time>2026-04-28T14:14:35.999Z</time></trkpt><trkpt lat="38.0043507801454" lon="15.374143485086154"><ele>367.0</ele><time>2026-04-28T14:14:36.999Z</time></trkpt><trkpt lat="38.00428154334196" lon="15.37420475504724"><ele>367.0</ele><time>2026-04-28T14:14:37.999Z</time></trkpt><trkpt lat="38.00423043316572" lon="15.374278269372994"><ele>367.0</ele><time>2026-04-28T14:14:38.999Z</time></trkpt><trkpt lat="38.00419991928102" lon="15.374367014457256"><ele>367.0</ele><time>2026-04-28T14:14:39.999Z</time></trkpt><trkpt lat="38.00417045950248" lon="15.3744589440145"><ele>367.0</ele><time>2026-04-28T14:14:40.999Z</time></trkpt><trkpt lat="38.004115675811526" lon="15.37456323067574"><ele>372.40000000000003</ele><time>2026-04-28T14:14:42.999Z</time></trkpt><trkpt lat="38.00401714367572" lon="15.374582703036548"><ele>377.8</ele><time>2026-04-28T14:14:44.999Z</time></trkpt><trkpt lat="38.003928607628104" lon="15.374596410049959"><ele>383.2</ele><time>2026-04-28T14:14:45.999Z</time></trkpt><trkpt lat="38.00383069072397" lon="15.374631859097263"><ele>388.6</ele><time>2026-04-28T14:14:46.999Z</time></trkpt><trkpt lat="38.003740790122734" lon="15.37465700350963"><ele>394.0</ele><time>2026-04-28T14:14:47.999Z</time></trkpt><trkpt lat="38.0036432306588" lon="15.374670039823709"><ele>394.0</ele><time>2026-04-28T14:14:48.999Z</time></trkpt><trkpt lat="38.00353998453272" lon="15.374674222785274"><ele>394.0</ele><time>2026-04-28T14:14:49.999Z</time></trkpt><trkpt lat="38.003450389984444" lon="15.374673655383488"><ele>394.0</ele><time>2026-04-28T14:14:50.999Z</time></trkpt><trkpt lat="38.00335482820247" lon="15.374690210599026"><ele>394.0</ele><time>2026-04-28T14:14:51.999Z</time></trkpt><trkpt lat="38.00325527776749" lon="15.37472869670434"><ele>394.0</ele><time>2026-04-28T14:14:52.999Z</time></trkpt><trkpt lat="38.003167083778436" lon="15.374769120442284"><ele>394.50000000000006</ele><time>2026-04-28T14:14:53.999Z</time></trkpt><trkpt lat="38.00307501250076" lon="15.37479556621105"><ele>395.0</ele><time>2026-04-28T14:14:54.999Z</time></trkpt><trkpt lat="38.00298949552059" lon="15.37482846390734"><ele>395.5</ele><time>2026-04-28T14:14:55.999Z</time></trkpt><trkpt lat="38.002912475602365" lon="15.374892348638735"><ele>396.0</ele><time>2026-04-28T14:14:56.999Z</time></trkpt><trkpt lat="38.0028408506152" lon="15.374955039496005"><ele>396.50000000000006</ele><time>2026-04-28T14:14:57.999Z</time></trkpt><trkpt lat="38.00277361615009" lon="15.375011874850644"><ele>397.0</ele><time>2026-04-28T14:14:58.999Z</time></trkpt><trkpt lat="38.002736556686095" lon="15.375083324543041"><ele>397.0</ele><time>2026-04-28T14:14:59.999Z</time></trkpt><trkpt lat="38.002715718798974" lon="15.375206992743308"><ele>397.0</ele><time>2026-04-28T14:15:00.999Z</time></trkpt><trkpt lat="38.00268363961746" lon="15.375341463802654"><ele>397.0</ele><time>2026-04-28T14:15:01.999Z</time></trkpt><trkpt lat="38.00266054120586" lon="15.37545548085386"><ele>397.0</ele><time>2026-04-28T14:15:02.999Z</time></trkpt><trkpt lat="38.002653603739915" lon="15.37556468565703"><ele>397.0</ele><time>2026-04-28T14:15:03.999Z</time></trkpt><trkpt lat="38.00265383143571" lon="15.375656639519752"><ele>394.8</ele><time>2026-04-28T14:15:04.999Z</time></trkpt><trkpt lat="38.00263919597386" lon="15.375757694935391"><ele>392.6</ele><time>2026-04-28T14:15:05.999Z</time></trkpt><trkpt lat="38.002615880492584" lon="15.375891589899346"><ele>390.40000000000003</ele><time>2026-04-28T14:15:06.999Z</time></trkpt><trkpt lat="38.00254930774343" lon="15.376052973783784"><ele>388.20000000000005</ele><time>2026-04-28T14:15:07.999Z</time></trkpt><trkpt lat="38.002547717426566" lon="15.376191019746356"><ele>386.0</ele><time>2026-04-28T14:15:08.999Z</time></trkpt><trkpt lat="38.002575768486935" lon="15.376322015363167"><ele>384.16666666666663</ele><time>2026-04-28T14:15:09.999Z</time></trkpt><trkpt lat="38.00258218873236" lon="15.376443233753728"><ele>382.3333333333333</ele><time>2026-04-28T14:15:10.999Z</time></trkpt><trkpt lat="38.00258466117755" lon="15.376553412429946"><ele>380.5</ele><time>2026-04-28T14:15:11.999Z</time></trkpt><trkpt lat="38.00257612221512" lon="15.376646491205364"><ele>378.66666666666663</ele><time>2026-04-28T14:15:12.999Z</time></trkpt><trkpt lat="38.002537877027684" lon="15.376725278830133"><ele>376.8333333333333</ele><time>2026-04-28T14:15:13.999Z</time></trkpt><trkpt lat="38.002487660449056" lon="15.376860637875385"><ele>375.0</ele><time>2026-04-28T14:15:14.999Z</time></trkpt><trkpt lat="38.00246545329835" lon="15.376974319868038"><ele>376.1666666666667</ele><time>2026-04-28T14:15:15.999Z</time></trkpt><trkpt lat="38.002430859413046" lon="15.37708892045035"><ele>377.3333333333333</ele><time>2026-04-28T14:15:16.999Z</time></trkpt><trkpt lat="38.00239038157882" lon="15.377179631124985"><ele>378.5</ele><time>2026-04-28T14:15:17.999Z</time></trkpt><trkpt lat="38.00235073906451" lon="15.377262377599784"><ele>379.66666666666663</ele><time>2026-04-28T14:15:18.999Z</time></trkpt><trkpt lat="38.00229877462607" lon="15.377340156579967"><ele>380.8333333333333</ele><time>2026-04-28T14:15:19.999Z</time></trkpt><trkpt lat="38.00224148629238" lon="15.377393489621767"><ele>382.0</ele><time>2026-04-28T14:15:20.999Z</time></trkpt><trkpt lat="38.0021809089387" lon="15.377459553752866"><ele>382.0</ele><time>2026-04-28T14:15:21.999Z</time></trkpt><trkpt lat="38.002134669197304" lon="15.377525768336032"><ele>382.0</ele><time>2026-04-28T14:15:22.999Z</time></trkpt><trkpt lat="38.00208772985059" lon="15.377597639481026"><ele>382.0</ele><time>2026-04-28T14:15:23.999Z</time></trkpt><trkpt lat="38.00204542560183" lon="15.377665367237608"><ele>382.0</ele><time>2026-04-28T14:15:24.999Z</time></trkpt><trkpt lat="38.002007798395915" lon="15.377731702871525"><ele>382.0</ele><time>2026-04-28T14:15:25.999Z</time></trkpt><trkpt lat="38.001928321458465" lon="15.37781622900232"><ele>382.0</ele><time>2026-04-28T14:15:26.999Z</time></trkpt><trkpt lat="38.001874579177795" lon="15.377894945004467"><ele>382.0</ele><time>2026-04-28T14:15:27.999Z</time></trkpt><trkpt lat="38.00184436284229" lon="15.377978636057286"><ele>382.0</ele><time>2026-04-28T14:15:28.999Z</time></trkpt><trkpt lat="38.00178302805843" lon="15.378079445211325"><ele>382.0</ele><time>2026-04-28T14:15:30.999Z</time></trkpt><trkpt lat="38.00172010274817" lon="15.378097772983539"><ele>382.0</ele><time>2026-04-28T14:15:31.999Z</time></trkpt><trkpt lat="38.00164883685686" lon="15.378108258934008"><ele>382.0</ele><time>2026-04-28T14:15:32.999Z</time></trkpt><trkpt lat="38.00157480787476" lon="15.378117883252182"><ele>382.0</ele><time>2026-04-28T14:15:33.999Z</time></trkpt><trkpt lat="38.00150035528186" lon="15.378149681021892"><ele>381.3333333333333</ele><time>2026-04-28T14:15:34.999Z</time></trkpt><trkpt lat="38.00143271761778" lon="15.378188118412464"><ele>380.66666666666663</ele><time>2026-04-28T14:15:35.999Z</time></trkpt><trkpt lat="38.001373865867784" lon="15.378272440030765"><ele>380.0</ele><time>2026-04-28T14:15:36.999Z</time></trkpt><trkpt lat="38.00132377687039" lon="15.378380307726927"><ele>379.3333333333333</ele><time>2026-04-28T14:15:37.999Z</time></trkpt><trkpt lat="38.00126567706999" lon="15.378464726920043"><ele>378.6666666666667</ele><time>2026-04-28T14:15:38.999Z</time></trkpt><trkpt lat="38.001191029956395" lon="15.378527363991596"><ele>378.0</ele><time>2026-04-28T14:15:39.999Z</time></trkpt><trkpt lat="38.0010979880142" lon="15.378605007986623"><ele>378.0</ele><time>2026-04-28T14:15:40.999Z</time></trkpt><trkpt lat="38.00103218109212" lon="15.378689141209126"><ele>378.0</ele><time>2026-04-28T14:15:41.999Z</time></trkpt><trkpt lat="38.00097042086305" lon="15.378733603679676"><ele>378.0</ele><time>2026-04-28T14:15:42.999Z</time></trkpt><trkpt lat="38.00084214517193" lon="15.37875995355302"><ele>378.0</ele><time>2026-04-28T14:15:45Z</time></trkpt><trkpt lat="38.00074711419963" lon="15.378754884673775"><ele>378.0</ele><time>2026-04-28T14:15:46Z</time></trkpt><trkpt lat="38.000671519909396" lon="15.378770064063147"><ele>375.0</ele><time>2026-04-28T14:15:47Z</time></trkpt><trkpt lat="38.000594454641536" lon="15.378878913683456"><ele>372.0</ele><time>2026-04-28T14:15:49Z</time></trkpt><trkpt lat="38.0005260116955" lon="15.378956905671098"><ele>369.0</ele><time>2026-04-28T14:15:50Z</time></trkpt><trkpt lat="38.00042673416898" lon="15.379008262127051"><ele>366.0</ele><time>2026-04-28T14:15:51Z</time></trkpt><trkpt lat="38.000349732357364" lon="15.379084103713916"><ele>363.0</ele><time>2026-04-28T14:15:52Z</time></trkpt><trkpt lat="38.000233872702275" lon="15.37917274857984"><ele>363.0</ele><time>2026-04-28T14:15:53Z</time></trkpt><trkpt lat="38.000135166987015" lon="15.379257762631193"><ele>363.0</ele><time>2026-04-28T14:15:54Z</time></trkpt><trkpt lat="38.000020812879164" lon="15.379305617486082"><ele>363.0</ele><time>2026-04-28T14:15:55Z</time></trkpt><trkpt lat="37.99993386815076" lon="15.379326038363448"><ele>363.0</ele><time>2026-04-28T14:15:56Z</time></trkpt><trkpt lat="37.99984151682302" lon="15.379345313232733"><ele>363.0</ele><time>2026-04-28T14:15:57Z</time></trkpt><trkpt lat="37.999752458192965" lon="15.379377504577464"><ele>363.0</ele><time>2026-04-28T14:15:58Z</time></trkpt><trkpt lat="37.99965145442349" lon="15.379455704270324"><ele>363.0</ele><time>2026-04-28T14:15:59Z</time></trkpt><trkpt lat="37.99955082948659" lon="15.379550692523846"><ele>363.0</ele><time>2026-04-28T14:16:00Z</time></trkpt><trkpt lat="37.99945996070316" lon="15.379625411152935"><ele>363.0</ele><time>2026-04-28T14:16:01Z</time></trkpt><trkpt lat="37.99937638405948" lon="15.379688497734863"><ele>363.0</ele><time>2026-04-28T14:16:02Z</time></trkpt><trkpt lat="37.99929554750707" lon="15.379745380222893"><ele>362.0</ele><time>2026-04-28T14:16:03Z</time></trkpt><trkpt lat="37.99923099938963" lon="15.379814195412383"><ele>361.0</ele><time>2026-04-28T14:16:04Z</time></trkpt><trkpt lat="37.99916650570081" lon="15.379904640502836"><ele>360.0</ele><time>2026-04-28T14:16:05Z</time></trkpt><trkpt lat="37.99909419615752" lon="15.379983747575071"><ele>359.0</ele><time>2026-04-28T14:16:06Z</time></trkpt><trkpt lat="37.99901344186681" lon="15.380037307541873"><ele>358.0</ele><time>2026-04-28T14:16:07Z</time></trkpt><trkpt lat="37.99891006568056" lon="15.38010084903458"><ele>358.0</ele><time>2026-04-28T14:16:08Z</time></trkpt><trkpt lat="37.99885898217646" lon="15.380155045887097"><ele>358.0</ele><time>2026-04-28T14:16:09Z</time></trkpt><trkpt lat="37.99881954130169" lon="15.38023287241076"><ele>358.0</ele><time>2026-04-28T14:16:10Z</time></trkpt><trkpt lat="37.998792686233706" lon="15.380346892202795"><ele>358.0</ele><time>2026-04-28T14:16:11Z</time></trkpt><trkpt lat="37.9987572160726" lon="15.380468408819489"><ele>358.0</ele><time>2026-04-28T14:16:12Z</time></trkpt><trkpt lat="37.998692780157455" lon="15.380595571791552"><ele>357.0</ele><time>2026-04-28T14:16:13Z</time></trkpt><trkpt lat="37.99861184462693" lon="15.38071940579945"><ele>356.0</ele><time>2026-04-28T14:16:14Z</time></trkpt><trkpt lat="37.99855292125294" lon="15.380824145348816"><ele>355.0</ele><time>2026-04-28T14:16:15Z</time></trkpt><trkpt lat="37.99851208854184" lon="15.380901355362056"><ele>354.0</ele><time>2026-04-28T14:16:16Z</time></trkpt><trkpt lat="37.998453810697804" lon="15.380949117164132"><ele>353.0</ele><time>2026-04-28T14:16:19Z</time></trkpt><trkpt lat="37.99832463708602" lon="15.38082627858565"><ele>353.0</ele><time>2026-04-28T14:16:37.999Z</time></trkpt><trkpt lat="37.998259496118486" lon="15.380775048239434"><ele>353.0</ele><time>2026-04-28T14:16:38.999Z</time></trkpt><trkpt lat="37.99818453938954" lon="15.380722523154725"><ele>353.0</ele><time>2026-04-28T14:16:39.999Z</time></trkpt><trkpt lat="37.998101940004545" lon="15.380686904258296"><ele>353.0</ele><time>2026-04-28T14:16:40.999Z</time></trkpt><trkpt lat="37.998017773563156" lon="15.380646852451951"><ele>353.0</ele><time>2026-04-28T14:16:41.999Z</time></trkpt><trkpt lat="37.99792290273301" lon="15.380599185678221"><ele>353.0</ele><time>2026-04-28T14:16:42.999Z</time></trkpt><trkpt lat="37.99782516964765" lon="15.380537390524998"><ele>358.79999999999995</ele><time>2026-04-28T14:16:43.999Z</time></trkpt><trkpt lat="37.99773561504165" lon="15.380465780516841"><ele>364.6</ele><time>2026-04-28T14:16:44.999Z</time></trkpt><trkpt lat="37.99763684224719" lon="15.38039978083904"><ele>370.4</ele><time>2026-04-28T14:16:45.999Z</time></trkpt><trkpt lat="37.9975391407235" lon="15.380329366062456"><ele>376.20000000000005</ele><time>2026-04-28T14:16:46.999Z</time></trkpt><trkpt lat="37.99744610090457" lon="15.380258814021655"><ele>382.0</ele><time>2026-04-28T14:16:47.999Z</time></trkpt><trkpt lat="37.99735167802999" lon="15.380193959223615"><ele>382.6</ele><time>2026-04-28T14:16:48.999Z</time></trkpt><trkpt lat="37.99725559791914" lon="15.380148820518588"><ele>383.20000000000005</ele><time>2026-04-28T14:16:49.999Z</time></trkpt><trkpt lat="37.997165484104876" lon="15.380119974107675"><ele>383.8</ele><time>2026-04-28T14:16:50.999Z</time></trkpt><trkpt lat="37.99707607167471" lon="15.380114009584176"><ele>384.4</ele><time>2026-04-28T14:16:51.999Z</time></trkpt><trkpt lat="37.996979929216884" lon="15.380136091713496"><ele>385.0</ele><time>2026-04-28T14:16:52.999Z</time></trkpt><trkpt lat="37.996851531127376" lon="15.380182132979323"><ele>385.0</ele><time>2026-04-28T14:16:53.999Z</time></trkpt><trkpt lat="37.996726776961566" lon="15.38022871356831"><ele>385.0</ele><time>2026-04-28T14:16:54.999Z</time></trkpt><trkpt lat="37.99663328748345" lon="15.380254086637072"><ele>385.0</ele><time>2026-04-28T14:16:55.999Z</time></trkpt><trkpt lat="37.99655488032541" lon="15.380265672384331"><ele>385.0</ele><time>2026-04-28T14:16:56.999Z</time></trkpt><trkpt lat="37.99648806312683" lon="15.380263883589713"><ele>385.0</ele><time>2026-04-28T14:16:57.999Z</time></trkpt><trkpt lat="37.9963372834335" lon="15.3802539967717"><ele>382.6666666666667</ele><time>2026-04-28T14:16:59.999Z</time></trkpt><trkpt lat="37.9962352109699" lon="15.380239394522508"><ele>380.33333333333337</ele><time>2026-04-28T14:17:00.999Z</time></trkpt><trkpt lat="37.996144926279186" lon="15.380212362317389"><ele>378.0</ele><time>2026-04-28T14:17:01.999Z</time></trkpt><trkpt lat="37.99606411018626" lon="15.380193199621761"><ele>375.6666666666667</ele><time>2026-04-28T14:17:02.999Z</time></trkpt><trkpt lat="37.99598014360211" lon="15.380174175095059"><ele>373.33333333333337</ele><time>2026-04-28T14:17:03.999Z</time></trkpt><trkpt lat="37.99589949377809" lon="15.380164390688211"><ele>371.0</ele><time>2026-04-28T14:17:04.999Z</time></trkpt><trkpt lat="37.99583151513457" lon="15.380165870359436"><ele>368.5</ele><time>2026-04-28T14:17:05.999Z</time></trkpt><trkpt lat="37.99575527203233" lon="15.380159713768835"><ele>366.0</ele><time>2026-04-28T14:17:06.999Z</time></trkpt><trkpt lat="37.99568896094618" lon="15.38016438956292"><ele>363.5</ele><time>2026-04-28T14:17:07.999Z</time></trkpt><trkpt lat="37.99558257648405" lon="15.38017315610573"><ele>361.0</ele><time>2026-04-28T14:17:09.999Z</time></trkpt><trkpt lat="37.995545250813265" lon="15.380104004111296"><ele>358.5</ele><time>2026-04-28T14:17:15.999Z</time></trkpt><trkpt lat="37.99560222588456" lon="15.38005321351015"><ele>356.0</ele><time>2026-04-28T14:18:45.999Z</time></trkpt><trkpt lat="37.99569089907017" lon="15.379995653413355"><ele>356.0</ele><time>2026-04-28T14:18:48.999Z</time></trkpt><trkpt lat="37.99574734583081" lon="15.379935339585316"><ele>356.0</ele><time>2026-04-28T14:18:50.999Z</time></trkpt><trkpt lat="37.99573370366253" lon="15.379850574226676"><ele>356.0</ele><time>2026-04-28T14:18:53.999Z</time></trkpt><trkpt lat="37.995660914849445" lon="15.379876580098685"><ele>356.0</ele><time>2026-04-28T14:18:55.999Z</time></trkpt><trkpt lat="37.995604125997325" lon="15.379916252599502"><ele>356.0</ele><time>2026-04-28T14:18:56.999Z</time></trkpt><trkpt lat="37.995474022351026" lon="15.379921588208376"><ele>356.0</ele><time>2026-04-28T14:18:58.999Z</time></trkpt><trkpt lat="37.99540403894913" lon="15.379902742781645"><ele>356.0</ele><time>2026-04-28T14:18:59.999Z</time></trkpt><trkpt lat="37.995334113410486" lon="15.379878254921689"><ele>356.0</ele><time>2026-04-28T14:19:01.999Z</time></trkpt><trkpt lat="37.995270915759235" lon="15.379850632587313"><ele>356.0</ele><time>2026-04-28T14:19:05.999Z</time></trkpt><trkpt lat="37.995443210723295" lon="15.379907441491016"><ele>356.0</ele><time>2026-04-28T14:19:35.999Z</time></trkpt><trkpt lat="37.99553644480285" lon="15.379937018880673"><ele>356.0</ele><time>2026-04-28T14:19:36.999Z</time></trkpt><trkpt lat="37.99561602413554" lon="15.379942857540717"><ele>356.0</ele><time>2026-04-28T14:19:37.999Z</time></trkpt><trkpt lat="37.995675486359055" lon="15.37991431925361"><ele>356.0</ele><time>2026-04-28T14:19:38.999Z</time></trkpt><trkpt lat="37.99564274827709" lon="15.380045333600389"><ele>356.0</ele><time>2026-04-28T14:19:43.999Z</time></trkpt><trkpt lat="37.99557627539007" lon="15.38007374803817"><ele>356.0</ele><time>2026-04-28T14:19:44.999Z</time></trkpt><trkpt lat="37.995592806217076" lon="15.380158497189408"><ele>356.0</ele><time>2026-04-28T14:19:48.999Z</time></trkpt><trkpt lat="37.995714862332576" lon="15.380124353313759"><ele>356.0</ele><time>2026-04-28T14:19:50.999Z</time></trkpt><trkpt lat="37.99578486629719" lon="15.380092584285867"><ele>358.5</ele><time>2026-04-28T14:19:51.999Z</time></trkpt><trkpt lat="37.99585222652444" lon="15.38007725708475"><ele>361.0</ele><time>2026-04-28T14:19:52.999Z</time></trkpt><trkpt lat="37.99592412492103" lon="15.38006576098712"><ele>363.5</ele><time>2026-04-28T14:19:53.999Z</time></trkpt><trkpt lat="37.995991533996964" lon="15.380056822587846"><ele>366.0</ele><time>2026-04-28T14:19:54.999Z</time></trkpt><trkpt lat="37.996069908439374" lon="15.38005052597164"><ele>368.5</ele><time>2026-04-28T14:19:55.999Z</time></trkpt><trkpt lat="37.996141125410475" lon="15.380049531404294"><ele>371.0</ele><time>2026-04-28T14:19:57Z</time></trkpt><trkpt lat="37.99624287581632" lon="15.380037769993919"><ele>371.0</ele><time>2026-04-28T14:19:59Z</time></trkpt><trkpt lat="37.99632847174256" lon="15.379924860879347"><ele>371.0</ele><time>2026-04-28T14:20:01Z</time></trkpt><trkpt lat="37.99636985320494" lon="15.379846291317104"><ele>371.0</ele><time>2026-04-28T14:20:02Z</time></trkpt><trkpt lat="37.996413607178624" lon="15.37974520106976"><ele>371.0</ele><time>2026-04-28T14:20:03Z</time></trkpt><trkpt lat="37.99645757444996" lon="15.37966022768199"><ele>371.0</ele><time>2026-04-28T14:20:04Z</time></trkpt><trkpt lat="37.99649559403573" lon="15.379576506075768"><ele>371.0</ele><time>2026-04-28T14:20:05Z</time></trkpt><trkpt lat="37.99652479415533" lon="15.379499307280316"><ele>371.0</ele><time>2026-04-28T14:20:06Z</time></trkpt><trkpt lat="37.99655632688264" lon="15.379412413656597"><ele>371.0</ele><time>2026-04-28T14:20:07Z</time></trkpt><trkpt lat="37.996592769725275" lon="15.379326951398236"><ele>371.0</ele><time>2026-04-28T14:20:08Z</time></trkpt><trkpt lat="37.99663982000102" lon="15.379242618176287"><ele>371.0</ele><time>2026-04-28T14:20:09Z</time></trkpt><trkpt lat="37.99670278539297" lon="15.379166291927872"><ele>371.0</ele><time>2026-04-28T14:20:10Z</time></trkpt><trkpt lat="37.99678414004962" lon="15.379090842436753"><ele>371.0</ele><time>2026-04-28T14:20:11Z</time></trkpt><trkpt lat="37.996878714258735" lon="15.379018721068572"><ele>372.0</ele><time>2026-04-28T14:20:12Z</time></trkpt><trkpt lat="37.996959533528695" lon="15.378952829385762"><ele>373.0</ele><time>2026-04-28T14:20:13Z</time></trkpt><trkpt lat="37.997002212620174" lon="15.378891765244143"><ele>374.0</ele><time>2026-04-28T14:20:14Z</time></trkpt><trkpt lat="37.997029797752134" lon="15.378799639448856"><ele>375.0</ele><time>2026-04-28T14:20:15Z</time></trkpt><trkpt lat="37.997048787653945" lon="15.378679373155185"><ele>376.0</ele><time>2026-04-28T14:20:16Z</time></trkpt><trkpt lat="37.99706709289107" lon="15.37856171715308"><ele>377.0</ele><time>2026-04-28T14:20:17Z</time></trkpt><trkpt lat="37.99708501567075" lon="15.37844439121112"><ele>377.0</ele><time>2026-04-28T14:20:18Z</time></trkpt><trkpt lat="37.99709311357085" lon="15.378341824082726"><ele>377.0</ele><time>2026-04-28T14:20:19Z</time></trkpt><trkpt lat="37.997101699601664" lon="15.378257986874067"><ele>377.0</ele><time>2026-04-28T14:20:20Z</time></trkpt><trkpt lat="37.99718683769635" lon="15.378112494711926"><ele>377.0</ele><time>2026-04-28T14:20:22Z</time></trkpt><trkpt lat="37.99724840839927" lon="15.378043989038112"><ele>377.0</ele><time>2026-04-28T14:20:23Z</time></trkpt><trkpt lat="37.99731880949138" lon="15.378005414545555"><ele>377.0</ele><time>2026-04-28T14:20:24Z</time></trkpt><trkpt lat="37.99739845632498" lon="15.377997255628184"><ele>379.40000000000003</ele><time>2026-04-28T14:20:25Z</time></trkpt><trkpt lat="37.9974882467363" lon="15.377995918637929"><ele>381.8</ele><time>2026-04-28T14:20:26Z</time></trkpt><trkpt lat="37.99758927545335" lon="15.3780057741035"><ele>384.2</ele><time>2026-04-28T14:20:27Z</time></trkpt><trkpt lat="37.99768290137918" lon="15.37797896041374"><ele>386.6</ele><time>2026-04-28T14:20:28Z</time></trkpt><trkpt lat="37.99778490313536" lon="15.377933868574111"><ele>389.0</ele><time>2026-04-28T14:20:29Z</time></trkpt><trkpt lat="37.99787602645001" lon="15.377912788254504"><ele>389.0</ele><time>2026-04-28T14:20:30Z</time></trkpt><trkpt lat="37.99795137233719" lon="15.377882852188076"><ele>389.0</ele><time>2026-04-28T14:20:31Z</time></trkpt><trkpt lat="37.998019291748285" lon="15.377821121958474"><ele>389.0</ele><time>2026-04-28T14:20:32Z</time></trkpt><trkpt lat="37.99808266097835" lon="15.377719796783861"><ele>389.0</ele><time>2026-04-28T14:20:33Z</time></trkpt><trkpt lat="37.99814546493709" lon="15.377633147990617"><ele>389.0</ele><time>2026-04-28T14:20:34Z</time></trkpt><trkpt lat="37.99822590312919" lon="15.37756572012818"><ele>389.0</ele><time>2026-04-28T14:20:35Z</time></trkpt><trkpt lat="37.998314460420914" lon="15.37752323294963"><ele>389.0</ele><time>2026-04-28T14:20:36Z</time></trkpt><trkpt lat="37.99839510501808" lon="15.377479520559813"><ele>389.0</ele><time>2026-04-28T14:20:37Z</time></trkpt><trkpt lat="37.998448034807254" lon="15.377425110907536"><ele>389.0</ele><time>2026-04-28T14:20:37.999Z</time></trkpt><trkpt lat="37.99845766375804" lon="15.377247133952899"><ele>389.0</ele><time>2026-04-28T14:20:39.999Z</time></trkpt><trkpt lat="37.99845736659465" lon="15.377146364925636"><ele>389.49999999999994</ele><time>2026-04-28T14:20:40.999Z</time></trkpt><trkpt lat="37.9984379980386" lon="15.377051790318317"><ele>390.0</ele><time>2026-04-28T14:20:41.999Z</time></trkpt><trkpt lat="37.99839919169749" lon="15.376976139704066"><ele>390.5</ele><time>2026-04-28T14:20:42.999Z</time></trkpt><trkpt lat="37.998335875359324" lon="15.376942443809288"><ele>391.0</ele><time>2026-04-28T14:20:43.999Z</time></trkpt><trkpt lat="37.998262852471754" lon="15.376941815170934"><ele>391.49999999999994</ele><time>2026-04-28T14:20:44.999Z</time></trkpt><trkpt lat="37.99818202290715" lon="15.376971923396045"><ele>392.0</ele><time>2026-04-28T14:20:45.999Z</time></trkpt><trkpt lat="37.99810555852538" lon="15.377024919212209"><ele>392.0</ele><time>2026-04-28T14:20:46.999Z</time></trkpt><trkpt lat="37.99800583570006" lon="15.376985381301946"><ele>392.0</ele><time>2026-04-28T14:20:48.999Z</time></trkpt><trkpt lat="37.997967534465026" lon="15.37690506270882"><ele>392.0</ele><time>2026-04-28T14:20:49.999Z</time></trkpt><trkpt lat="37.99792870016857" lon="15.37677579095378"><ele>392.0</ele><time>2026-04-28T14:20:50.999Z</time></trkpt><trkpt lat="37.99788413721757" lon="15.376673018868791"><ele>392.0</ele><time>2026-04-28T14:20:51.999Z</time></trkpt><trkpt lat="37.9978692891951" lon="15.37653393392616"><ele>392.0</ele><time>2026-04-28T14:20:53.999Z</time></trkpt><trkpt lat="37.99795997609652" lon="15.376400946316595"><ele>392.0</ele><time>2026-04-28T14:20:55.999Z</time></trkpt><trkpt lat="37.99802343725781" lon="15.376322460746318"><ele>392.0</ele><time>2026-04-28T14:20:56.999Z</time></trkpt><trkpt lat="37.99808264792348" lon="15.376230263484638"><ele>392.0</ele><time>2026-04-28T14:20:57.999Z</time></trkpt><trkpt lat="37.99813789749761" lon="15.376123486643204"><ele>392.0</ele><time>2026-04-28T14:20:58.999Z</time></trkpt><trkpt lat="37.99818504556991" lon="15.376012103108975"><ele>391.8</ele><time>2026-04-28T14:20:59.999Z</time></trkpt><trkpt lat="37.998209572835265" lon="15.375917867001098"><ele>391.6</ele><time>2026-04-28T14:21:00.999Z</time></trkpt><trkpt lat="37.99828109212901" lon="15.375780306682065"><ele>391.40000000000003</ele><time>2026-04-28T14:21:02.999Z</time></trkpt><trkpt lat="37.99834350597939" lon="15.375700331439994"><ele>391.20000000000005</ele><time>2026-04-28T14:21:03.999Z</time></trkpt><trkpt lat="37.99841805629503" lon="15.375634494236873"><ele>391.0</ele><time>2026-04-28T14:21:04.999Z</time></trkpt><trkpt lat="37.998508744038915" lon="15.37555955297051"><ele>393.4</ele><time>2026-04-28T14:21:05.999Z</time></trkpt><trkpt lat="37.998595662998206" lon="15.375489319009864"><ele>395.8</ele><time>2026-04-28T14:21:06.999Z</time></trkpt><trkpt lat="37.99867540474786" lon="15.375438829342905"><ele>398.2</ele><time>2026-04-28T14:21:07.999Z</time></trkpt><trkpt lat="37.998760159600316" lon="15.375395618981967"><ele>400.59999999999997</ele><time>2026-04-28T14:21:08.999Z</time></trkpt><trkpt lat="37.998857190970995" lon="15.375368821191497"><ele>403.0</ele><time>2026-04-28T14:21:09.999Z</time></trkpt><trkpt lat="37.998969475530814" lon="15.375351604975194"><ele>403.0</ele><time>2026-04-28T14:21:10.999Z</time></trkpt><trkpt lat="37.999087687635566" lon="15.375327967963004"><ele>403.0</ele><time>2026-04-28T14:21:11.999Z</time></trkpt><trkpt lat="37.99919981166254" lon="15.3752774850485"><ele>403.0</ele><time>2026-04-28T14:21:12.999Z</time></trkpt><trkpt lat="37.999299382672916" lon="15.375207940455963"><ele>403.0</ele><time>2026-04-28T14:21:13.999Z</time></trkpt><trkpt lat="37.99938221921788" lon="15.37514867633618"><ele>403.0</ele><time>2026-04-28T14:21:14.999Z</time></trkpt><trkpt lat="37.99943559923477" lon="15.37508160946826"><ele>408.6666666666667</ele><time>2026-04-28T14:21:15.999Z</time></trkpt><trkpt lat="37.99948374647506" lon="15.374981746443495"><ele>414.33333333333337</ele><time>2026-04-28T14:21:16.999Z</time></trkpt><trkpt lat="37.99951938800396" lon="15.374905131334403"><ele>420.0</ele><time>2026-04-28T14:21:17.999Z</time></trkpt><trkpt lat="37.99949202523367" lon="15.374799226822457"><ele>425.66666666666663</ele><time>2026-04-28T14:21:19.999Z</time></trkpt><trkpt lat="37.99942814617049" lon="15.374746865310724"><ele>431.3333333333333</ele><time>2026-04-28T14:21:20.999Z</time></trkpt><trkpt lat="37.9993456556894" lon="15.37472991903485"><ele>437.0</ele><time>2026-04-28T14:21:21.999Z</time></trkpt><trkpt lat="37.999227489150734" lon="15.374722217608541"><ele>436.25</ele><time>2026-04-28T14:21:22.999Z</time></trkpt><trkpt lat="37.99909566399064" lon="15.37469388456304"><ele>435.5</ele><time>2026-04-28T14:21:23.999Z</time></trkpt><trkpt lat="37.99897688529022" lon="15.374655591207139"><ele>434.75</ele><time>2026-04-28T14:21:24.999Z</time></trkpt><trkpt lat="37.99886581803133" lon="15.374618395612579"><ele>434.0</ele><time>2026-04-28T14:21:25.999Z</time></trkpt><trkpt lat="37.99877637771542" lon="15.374579172428202"><ele>434.0</ele><time>2026-04-28T14:21:26.999Z</time></trkpt><trkpt lat="37.99868030254733" lon="15.37455330808322"><ele>434.0</ele><time>2026-04-28T14:21:27.999Z</time></trkpt><trkpt lat="37.998579035466356" lon="15.374542704149155"><ele>434.0</ele><time>2026-04-28T14:21:28.999Z</time></trkpt><trkpt lat="37.99847008439801" lon="15.374523139930242"><ele>434.0</ele><time>2026-04-28T14:21:29.999Z</time></trkpt><trkpt lat="37.998368091218914" lon="15.374488040904236"><ele>434.0</ele><time>2026-04-28T14:21:30.999Z</time></trkpt><trkpt lat="37.99825991874125" lon="15.374445034466"><ele>430.49999999999994</ele><time>2026-04-28T14:21:31.999Z</time></trkpt><trkpt lat="37.99815214834923" lon="15.37440885901323"><ele>427.0</ele><time>2026-04-28T14:21:32.999Z</time></trkpt><trkpt lat="37.99807215947539" lon="15.374374261931175"><ele>423.5</ele><time>2026-04-28T14:21:33.999Z</time></trkpt><trkpt lat="37.99801202794933" lon="15.374344918176256"><ele>420.0</ele><time>2026-04-28T14:21:34.999Z</time></trkpt><trkpt lat="37.997913526922645" lon="15.374255307437537"><ele>416.49999999999994</ele><time>2026-04-28T14:21:36.999Z</time></trkpt><trkpt lat="37.99787425576849" lon="15.374191522193883"><ele>413.0</ele><time>2026-04-28T14:21:37.999Z</time></trkpt><trkpt lat="37.997846579675574" lon="15.374040851353145"><ele>412.99999999999994</ele><time>2026-04-28T14:21:39.999Z</time></trkpt><trkpt lat="37.997853753072775" lon="15.373954316009513"><ele>413.0</ele><time>2026-04-28T14:21:40.999Z</time></trkpt><trkpt lat="37.99790550579854" lon="15.373847399428225"><ele>413.0</ele><time>2026-04-28T14:21:42.999Z</time></trkpt><trkpt lat="37.99794678007177" lon="15.373782926335629"><ele>413.0</ele><time>2026-04-28T14:22:08Z</time></trkpt><trkpt lat="37.9979524454791" lon="15.373694537455282"><ele>412.99999999999994</ele><time>2026-04-28T14:22:13Z</time></trkpt><trkpt lat="37.99800672547251" lon="15.37358481202573"><ele>413.0</ele><time>2026-04-28T14:22:17Z</time></trkpt><trkpt lat="37.998045016528536" lon="15.373505818359973"><ele>412.99999999999994</ele><time>2026-04-28T14:22:18Z</time></trkpt><trkpt lat="37.998088307181746" lon="15.373429303930614"><ele>413.0</ele><time>2026-04-28T14:22:19Z</time></trkpt><trkpt lat="37.99812759476998" lon="15.37336080612105"><ele>413.0</ele><time>2026-04-28T14:22:20Z</time></trkpt><trkpt lat="37.9981661780957" lon="15.373275772231723"><ele>413.0</ele><time>2026-04-28T14:22:21Z</time></trkpt><trkpt lat="37.99820313896103" lon="15.373174400292003"><ele>412.99999999999994</ele><time>2026-04-28T14:22:22Z</time></trkpt><trkpt lat="37.998224384774716" lon="15.373072184918646"><ele>413.0</ele><time>2026-04-28T14:22:23Z</time></trkpt><trkpt lat="37.99823531906771" lon="15.37295015517157"><ele>412.4</ele><time>2026-04-28T14:22:24Z</time></trkpt><trkpt lat="37.99823517746541" lon="15.372839204395108"><ele>411.79999999999995</ele><time>2026-04-28T14:22:25Z</time></trkpt><trkpt lat="37.9981940637636" lon="15.372722122905305"><ele>411.2</ele><time>2026-04-28T14:22:27Z</time></trkpt><trkpt lat="37.99808979850845" lon="15.37266758864687"><ele>410.6</ele><time>2026-04-28T14:22:29Z</time></trkpt><trkpt lat="37.9980269607765" lon="15.372624976082909"><ele>410.0</ele><time>2026-04-28T14:22:30Z</time></trkpt><trkpt lat="37.99799522990289" lon="15.372533115196992"><ele>410.0</ele><time>2026-04-28T14:22:32Z</time></trkpt><trkpt lat="37.997927356358424" lon="15.37228782950614"><ele>410.0</ele><time>2026-04-28T14:22:35Z</time></trkpt><trkpt lat="37.99793446595844" lon="15.372193047471024"><ele>410.0</ele><time>2026-04-28T14:22:36Z</time></trkpt><trkpt lat="37.99794009384161" lon="15.372075914367475"><ele>410.0</ele><time>2026-04-28T14:22:37Z</time></trkpt><trkpt lat="37.9979380863947" lon="15.37199261408558"><ele>410.0</ele><time>2026-04-28T14:22:38Z</time></trkpt><trkpt lat="37.99796507480982" lon="15.3719076239221"><ele>410.0</ele><time>2026-04-28T14:22:40Z</time></trkpt><trkpt lat="37.99808051619699" lon="15.372165538443328"><ele>410.0</ele><time>2026-04-28T14:22:42.999Z</time></trkpt><trkpt lat="37.998132526113395" lon="15.372304602024485"><ele>410.0</ele><time>2026-04-28T14:22:44.999Z</time></trkpt><trkpt lat="37.99820452237262" lon="15.372325806024223"><ele>410.0</ele><time>2026-04-28T14:22:46.999Z</time></trkpt><trkpt lat="37.99828464447568" lon="15.372227694249103"><ele>419.3333333333333</ele><time>2026-04-28T14:22:48.999Z</time></trkpt><trkpt lat="37.99835488033659" lon="15.372130126654234"><ele>428.66666666666663</ele><time>2026-04-28T14:22:49.999Z</time></trkpt><trkpt lat="37.998424778496215" lon="15.372073474764761"><ele>438.0</ele><time>2026-04-28T14:22:50.999Z</time></trkpt><trkpt lat="37.998503840196356" lon="15.372028462994823"><ele>447.33333333333337</ele><time>2026-04-28T14:22:51.999Z</time></trkpt><trkpt lat="37.99857476501375" lon="15.372038995516863"><ele>456.6666666666667</ele><time>2026-04-28T14:22:52.999Z</time></trkpt><trkpt lat="37.99863938170632" lon="15.372033832018763"><ele>466.0</ele><time>2026-04-28T14:22:53.999Z</time></trkpt><trkpt lat="37.99861101000794" lon="15.3719317431301"><ele>466.00000000000006</ele><time>2026-04-28T14:22:54.999Z</time></trkpt><trkpt lat="37.99853923670574" lon="15.37187197880788"><ele>466.0</ele><time>2026-04-28T14:22:56.999Z</time></trkpt><trkpt lat="37.99843320756347" lon="15.37186457646835"><ele>466.0</ele><time>2026-04-28T14:22:59.999Z</time></trkpt><trkpt lat="37.99836810336214" lon="15.371839959144953"><ele>466.0</ele><time>2026-04-28T14:23:00.999Z</time></trkpt><trkpt lat="37.99830517842014" lon="15.371814079292115"><ele>466.00000000000006</ele><time>2026-04-28T14:23:01.999Z</time></trkpt><trkpt lat="37.99824063989059" lon="15.371696388230463"><ele>466.0</ele><time>2026-04-28T14:23:03.999Z</time></trkpt><trkpt lat="37.99822568916822" lon="15.371595685731961"><ele>460.83333333333337</ele><time>2026-04-28T14:23:04.999Z</time></trkpt><trkpt lat="37.99816428217768" lon="15.371561325367471"><ele>455.6666666666667</ele><time>2026-04-28T14:23:05.999Z</time></trkpt><trkpt lat="37.99811386795321" lon="15.37150355708088"><ele>450.5</ele><time>2026-04-28T14:23:06.999Z</time></trkpt><trkpt lat="37.99805704308103" lon="15.371462355949573"><ele>445.33333333333337</ele><time>2026-04-28T14:23:07.999Z</time></trkpt><trkpt lat="37.99793586622415" lon="15.371436900334707"><ele>440.1666666666667</ele><time>2026-04-28T14:23:09.999Z</time></trkpt><trkpt lat="37.9978865529932" lon="15.371357880227663"><ele>435.0</ele><time>2026-04-28T14:23:11.999Z</time></trkpt><trkpt lat="37.99795854857156" lon="15.371272816749025"><ele>435.0</ele><time>2026-04-28T14:23:13.999Z</time></trkpt><trkpt lat="37.99805485900667" lon="15.371178063060189"><ele>435.0</ele><time>2026-04-28T14:23:15.999Z</time></trkpt><trkpt lat="37.998115254207185" lon="15.371124215633087"><ele>435.0</ele><time>2026-04-28T14:23:16.999Z</time></trkpt><trkpt lat="37.998178941167446" lon="15.371064600968648"><ele>435.0</ele><time>2026-04-28T14:23:17.999Z</time></trkpt><trkpt lat="37.998205793265576" lon="15.370922199301846"><ele>435.0</ele><time>2026-04-28T14:23:18.999Z</time></trkpt><trkpt lat="37.998245404663265" lon="15.370844009755723"><ele>435.0</ele><time>2026-04-28T14:23:19.999Z</time></trkpt><trkpt lat="37.99827302512418" lon="15.370755922117777"><ele>435.0</ele><time>2026-04-28T14:23:20.999Z</time></trkpt><trkpt lat="37.99829294210466" lon="15.370659132686479"><ele>435.0</ele><time>2026-04-28T14:23:21.999Z</time></trkpt><trkpt lat="37.998316567710056" lon="15.370580637026134"><ele>435.0</ele><time>2026-04-28T14:23:22.999Z</time></trkpt><trkpt lat="37.99835459275965" lon="15.37050130189583"><ele>435.0</ele><time>2026-04-28T14:23:23.999Z</time></trkpt><trkpt lat="37.998434489461644" lon="15.370392421444906"><ele>435.0</ele><time>2026-04-28T14:23:25.999Z</time></trkpt><trkpt lat="37.9985600612866" lon="15.370365282034857"><ele>436.4</ele><time>2026-04-28T14:23:27.999Z</time></trkpt><trkpt lat="37.99865589741745" lon="15.370368183265672"><ele>437.8</ele><time>2026-04-28T14:23:28.999Z</time></trkpt><trkpt lat="37.99874300896982" lon="15.370385242725957"><ele>439.20000000000005</ele><time>2026-04-28T14:23:29.999Z</time></trkpt><trkpt lat="37.998829540852306" lon="15.370397141256735"><ele>440.6</ele><time>2026-04-28T14:23:30.999Z</time></trkpt><trkpt lat="37.99893579349802" lon="15.370384073302988"><ele>442.0</ele><time>2026-04-28T14:23:31.999Z</time></trkpt><trkpt lat="37.999047946655566" lon="15.370344866734406"><ele>442.00000000000006</ele><time>2026-04-28T14:23:32.999Z</time></trkpt><trkpt lat="37.99914229874322" lon="15.370312325152222"><ele>442.0</ele><time>2026-04-28T14:23:33.999Z</time></trkpt><trkpt lat="37.9992235882425" lon="15.370307783681874"><ele>442.0</ele><time>2026-04-28T14:23:34.999Z</time></trkpt><trkpt lat="37.99930743777184" lon="15.370316313603064"><ele>442.0</ele><time>2026-04-28T14:23:35.999Z</time></trkpt><trkpt lat="37.999387785495735" lon="15.370306401473304"><ele>442.00000000000006</ele><time>2026-04-28T14:23:36.999Z</time></trkpt><trkpt lat="37.99947299310911" lon="15.370240951686544"><ele>442.0</ele><time>2026-04-28T14:23:37.999Z</time></trkpt><trkpt lat="37.999556212584146" lon="15.370156934346104"><ele>443.1666666666667</ele><time>2026-04-28T14:23:38.999Z</time></trkpt><trkpt lat="37.99962361871371" lon="15.370085953737924"><ele>444.33333333333337</ele><time>2026-04-28T14:23:39.999Z</time></trkpt><trkpt lat="37.99966221567669" lon="15.370010758840113"><ele>445.5</ele><time>2026-04-28T14:23:40.999Z</time></trkpt><trkpt lat="37.99967309348492" lon="15.369923257486068"><ele>446.66666666666663</ele><time>2026-04-28T14:23:41.999Z</time></trkpt><trkpt lat="37.99965668931736" lon="15.369830793739624"><ele>447.8333333333333</ele><time>2026-04-28T14:23:42.999Z</time></trkpt><trkpt lat="37.999625192633715" lon="15.369710820326675"><ele>449.0</ele><time>2026-04-28T14:23:43.999Z</time></trkpt><trkpt lat="37.99960164211518" lon="15.369579187201383"><ele>448.99999999999994</ele><time>2026-04-28T14:23:44.999Z</time></trkpt><trkpt lat="37.99959002882794" lon="15.36948240726832"><ele>449.0</ele><time>2026-04-28T14:23:45.999Z</time></trkpt><trkpt lat="37.99958263958745" lon="15.369393854666777"><ele>449.0</ele><time>2026-04-28T14:23:46.999Z</time></trkpt><trkpt lat="37.99956071037237" lon="15.369267018752275"><ele>449.0</ele><time>2026-04-28T14:23:48.999Z</time></trkpt><trkpt lat="37.999614216268604" lon="15.36915784139805"><ele>448.99999999999994</ele><time>2026-04-28T14:23:50.999Z</time></trkpt><trkpt lat="37.99967463520207" lon="15.36911884176425"><ele>449.0</ele><time>2026-04-28T14:23:51.999Z</time></trkpt><trkpt lat="37.99979074579315" lon="15.369093954074136"><ele>448.99999999999994</ele><time>2026-04-28T14:23:53.999Z</time></trkpt><trkpt lat="37.99987040336987" lon="15.369110738235701"><ele>449.0</ele><time>2026-04-28T14:23:54.999Z</time></trkpt><trkpt lat="37.99994618987564" lon="15.3691109583149"><ele>449.0</ele><time>2026-04-28T14:23:55.999Z</time></trkpt><trkpt lat="38.00001160638628" lon="15.36908387751901"><ele>449.0</ele><time>2026-04-28T14:23:56.999Z</time></trkpt><trkpt lat="38.000082576924235" lon="15.369019918043467"><ele>448.99999999999994</ele><time>2026-04-28T14:23:57.999Z</time></trkpt><trkpt lat="38.00016095329118" lon="15.369012941126563"><ele>449.0</ele><time>2026-04-28T14:23:58.999Z</time></trkpt><trkpt lat="38.000249094791066" lon="15.369023655021993"><ele>449.0</ele><time>2026-04-28T14:23:59.999Z</time></trkpt><trkpt lat="38.00032831090652" lon="15.369046014755662"><ele>449.0</ele><time>2026-04-28T14:24:00.999Z</time></trkpt><trkpt lat="38.00044126973528" lon="15.369052119250604"><ele>449.0</ele><time>2026-04-28T14:24:02.999Z</time></trkpt><trkpt lat="38.00047658132133" lon="15.36891239832491"><ele>449.0</ele><time>2026-04-28T14:24:04.999Z</time></trkpt><trkpt lat="38.00046975952718" lon="15.36877950116823"><ele>449.0</ele><time>2026-04-28T14:24:06.999Z</time></trkpt><trkpt lat="38.000504583472214" lon="15.368670621033708"><ele>448.66666666666663</ele><time>2026-04-28T14:24:09Z</time></trkpt><trkpt lat="38.00052751801764" lon="15.368593429456974"><ele>448.3333333333333</ele><time>2026-04-28T14:24:10Z</time></trkpt><trkpt lat="38.000589449359445" lon="15.3684954398267"><ele>448.0</ele><time>2026-04-28T14:24:12Z</time></trkpt><trkpt lat="38.00065572306256" lon="15.368484101576216"><ele>447.66666666666663</ele><time>2026-04-28T14:24:13Z</time></trkpt><trkpt lat="38.00074680513068" lon="15.368477341613742"><ele>447.3333333333333</ele><time>2026-04-28T14:24:14Z</time></trkpt><trkpt lat="38.000804740269835" lon="15.368424467584184"><ele>447.0</ele><time>2026-04-28T14:24:15Z</time></trkpt><trkpt lat="38.000839034520915" lon="15.36833358162452"><ele>447.0</ele><time>2026-04-28T14:24:16Z</time></trkpt><trkpt lat="38.00085852156156" lon="15.36823872206396"><ele>447.00000000000006</ele><time>2026-04-28T14:24:17Z</time></trkpt><trkpt lat="38.0008812790255" lon="15.36816100054006"><ele>447.00000000000006</ele><time>2026-04-28T14:24:18Z</time></trkpt><trkpt lat="38.00094910819749" lon="15.368086927552952"><ele>447.0</ele><time>2026-04-28T14:24:19Z</time></trkpt><trkpt lat="38.00103711402946" lon="15.368005515647823"><ele>447.0</ele><time>2026-04-28T14:24:20Z</time></trkpt><trkpt lat="38.001122784208135" lon="15.36791427047293"><ele>442.5</ele><time>2026-04-28T14:24:21Z</time></trkpt><trkpt lat="38.001191402577014" lon="15.367844193786967"><ele>438.0</ele><time>2026-04-28T14:24:22Z</time></trkpt><trkpt lat="38.00123484289656" lon="15.367763894398646"><ele>433.5</ele><time>2026-04-28T14:24:24Z</time></trkpt><trkpt lat="38.001313743513364" lon="15.367773342527927"><ele>429.0</ele><time>2026-04-28T14:24:26Z</time></trkpt><trkpt lat="38.00138025026286" lon="15.367825420710233"><ele>424.5</ele><time>2026-04-28T14:24:27Z</time></trkpt><trkpt lat="38.00146262716268" lon="15.367883352934852"><ele>420.0</ele><time>2026-04-28T14:24:28Z</time></trkpt><trkpt lat="38.001556463819405" lon="15.367904582647528"><ele>420.0</ele><time>2026-04-28T14:24:29Z</time></trkpt><trkpt lat="38.00162999227174" lon="15.367892782551046"><ele>420.0</ele><time>2026-04-28T14:24:30Z</time></trkpt><trkpt lat="38.00170108015272" lon="15.367774806404755"><ele>420.0</ele><time>2026-04-28T14:24:32Z</time></trkpt><trkpt lat="38.001678088297574" lon="15.367592751088532"><ele>420.0</ele><time>2026-04-28T14:24:34Z</time></trkpt><trkpt lat="38.0016774050375" lon="15.367494683702404"><ele>420.0</ele><time>2026-04-28T14:24:35Z</time></trkpt><trkpt lat="38.00166153955501" lon="15.367397382860867"><ele>420.0</ele><time>2026-04-28T14:24:36Z</time></trkpt><trkpt lat="38.001641534855764" lon="15.367283801984883"><ele>420.0</ele><time>2026-04-28T14:24:38Z</time></trkpt><trkpt lat="38.001703072190004" lon="15.367227611112954"><ele>420.0</ele><time>2026-04-28T14:24:41.999Z</time></trkpt><trkpt lat="38.001814166013844" lon="15.367202767595353"><ele>420.0</ele><time>2026-04-28T14:24:43.999Z</time></trkpt><trkpt lat="38.001930279576904" lon="15.3672157363784"><ele>420.0</ele><time>2026-04-28T14:24:45.999Z</time></trkpt><trkpt lat="38.00204803163591" lon="15.367199217514615"><ele>422.0</ele><time>2026-04-28T14:24:47.999Z</time></trkpt><trkpt lat="38.00215765766271" lon="15.367133731704417"><ele>424.0</ele><time>2026-04-28T14:24:49.999Z</time></trkpt><trkpt lat="38.002213492684646" lon="15.36708179110297"><ele>426.0</ele><time>2026-04-28T14:24:50.999Z</time></trkpt><trkpt lat="38.002289283197506" lon="15.367008233648603"><ele>428.0</ele><time>2026-04-28T14:24:52.999Z</time></trkpt><trkpt lat="38.002237538408885" lon="15.366876041464588"><ele>430.0</ele><time>2026-04-28T14:24:55.999Z</time></trkpt><trkpt lat="38.00217697812183" lon="15.366812000570862"><ele>430.0</ele><time>2026-04-28T14:24:56.999Z</time></trkpt><trkpt lat="38.00210987969997" lon="15.366743670036902"><ele>430.0</ele><time>2026-04-28T14:24:57.999Z</time></trkpt><trkpt lat="38.002040206013874" lon="15.366669120125913"><ele>430.0</ele><time>2026-04-28T14:24:58.999Z</time></trkpt><trkpt lat="38.001978383972116" lon="15.36660153921465"><ele>430.0</ele><time>2026-04-28T14:24:59.999Z</time></trkpt><trkpt lat="38.00192735057821" lon="15.366534217853326"><ele>430.0</ele><time>2026-04-28T14:25:00.999Z</time></trkpt><trkpt lat="38.00184443910611" lon="15.366426256284003"><ele>429.4</ele><time>2026-04-28T14:25:02.999Z</time></trkpt><trkpt lat="38.001771735852124" lon="15.366341053031228"><ele>428.8</ele><time>2026-04-28T14:25:04.999Z</time></trkpt><trkpt lat="38.00167303840635" lon="15.366316152790073"><ele>428.20000000000005</ele><time>2026-04-28T14:25:06.999Z</time></trkpt><trkpt lat="38.001567208707975" lon="15.366330041963336"><ele>427.6</ele><time>2026-04-28T14:25:08.999Z</time></trkpt><trkpt lat="38.00147891908733" lon="15.366303189027628"><ele>427.0</ele><time>2026-04-28T14:25:10.999Z</time></trkpt><trkpt lat="38.00139711580912" lon="15.366302710656274"><ele>427.0</ele><time>2026-04-28T14:25:12.999Z</time></trkpt><trkpt lat="38.0013093935616" lon="15.36629216067173"><ele>427.00000000000006</ele><time>2026-04-28T14:25:14.999Z</time></trkpt><trkpt lat="38.00121843586898" lon="15.366284906722816"><ele>427.00000000000006</ele><time>2026-04-28T14:25:16.999Z</time></trkpt><trkpt lat="38.001118813841366" lon="15.366258064354886"><ele>427.0</ele><time>2026-04-28T14:25:18.999Z</time></trkpt><trkpt lat="38.001021723764254" lon="15.36620640707975"><ele>427.0</ele><time>2026-04-28T14:25:20.999Z</time></trkpt><trkpt lat="38.00094877859456" lon="15.366147125928103"><ele>427.0</ele><time>2026-04-28T14:25:22.999Z</time></trkpt><trkpt lat="38.00086532951328" lon="15.366086699815034"><ele>427.00000000000006</ele><time>2026-04-28T14:25:24.999Z</time></trkpt><trkpt lat="38.00077892777623" lon="15.366020882177722"><ele>427.00000000000006</ele><time>2026-04-28T14:25:26.999Z</time></trkpt><trkpt lat="38.00070357304867" lon="15.365930887250377"><ele>427.0</ele><time>2026-04-28T14:25:28.999Z</time></trkpt><trkpt lat="38.00065394823778" lon="15.365787933821503"><ele>427.0</ele><time>2026-04-28T14:25:30.999Z</time></trkpt><trkpt lat="38.00063316017714" lon="15.365691592814384"><ele>424.50000000000006</ele><time>2026-04-28T14:25:31.999Z</time></trkpt><trkpt lat="38.000604174021795" lon="15.365593237904717"><ele>422.0</ele><time>2026-04-28T14:25:32.999Z</time></trkpt><trkpt lat="38.00057412490226" lon="15.365500663213432"><ele>419.5</ele><time>2026-04-28T14:25:33.999Z</time></trkpt><trkpt lat="38.000548034381616" lon="15.365406188820618"><ele>417.0</ele><time>2026-04-28T14:25:34.999Z</time></trkpt><trkpt lat="38.00052297282825" lon="15.365317871898561"><ele>414.50000000000006</ele><time>2026-04-28T14:25:35.999Z</time></trkpt><trkpt lat="38.00046997373116" lon="15.36522219014322"><ele>412.0</ele><time>2026-04-28T14:25:37.999Z</time></trkpt><trkpt lat="38.00033767853896" lon="15.365165742863919"><ele>412.00000000000006</ele><time>2026-04-28T14:25:39.999Z</time></trkpt><trkpt lat="38.00027280534701" lon="15.365120267947667"><ele>412.0</ele><time>2026-04-28T14:25:40.999Z</time></trkpt><trkpt lat="38.00017522755246" lon="15.365034503664369"><ele>412.0</ele><time>2026-04-28T14:25:42.999Z</time></trkpt><trkpt lat="38.00013309576851" lon="15.36496769678873"><ele>412.0</ele><time>2026-04-28T14:25:43.999Z</time></trkpt><trkpt lat="38.000101041767444" lon="15.364897381068323"><ele>412.00000000000006</ele><time>2026-04-28T14:25:44.999Z</time></trkpt><trkpt lat="38.0000752309842" lon="15.364822528782422"><ele>412.0</ele><time>2026-04-28T14:25:45.999Z</time></trkpt><trkpt lat="38.00005482536247" lon="15.364745910543412"><ele>412.6666666666667</ele><time>2026-04-28T14:25:46.999Z</time></trkpt><trkpt lat="38.00004666331279" lon="15.364648118882247"><ele>413.33333333333337</ele><time>2026-04-28T14:25:48.999Z</time></trkpt><trkpt lat="38.0000599439053" lon="15.364539829852804"><ele>414.0</ele><time>2026-04-28T14:25:50.999Z</time></trkpt><trkpt lat="38.00011609658726" lon="15.364453367836624"><ele>414.66666666666663</ele><time>2026-04-28T14:25:52.999Z</time></trkpt><trkpt lat="38.00017779746633" lon="15.364399463144435"><ele>415.3333333333333</ele><time>2026-04-28T14:25:53.999Z</time></trkpt><trkpt lat="38.000244944450685" lon="15.364324811848077"><ele>416.0</ele><time>2026-04-28T14:25:55.999Z</time></trkpt><trkpt lat="38.000218236639235" lon="15.364246012845456"><ele>415.99999999999994</ele><time>2026-04-28T14:25:57.999Z</time></trkpt><trkpt lat="38.00014127145579" lon="15.364264741015097"><ele>416.0</ele><time>2026-04-28T14:25:59.999Z</time></trkpt><trkpt lat="38.0000428465579" lon="15.36432037244835"><ele>416.0</ele><time>2026-04-28T14:26:01.999Z</time></trkpt><trkpt lat="37.99997031541371" lon="15.364354053745673"><ele>416.0</ele><time>2026-04-28T14:26:02.999Z</time></trkpt><trkpt lat="37.999897417995264" lon="15.36439099867482"><ele>415.99999999999994</ele><time>2026-04-28T14:26:03.999Z</time></trkpt><trkpt lat="37.99983940166621" lon="15.364455751613006"><ele>416.0</ele><time>2026-04-28T14:26:04.999Z</time></trkpt><trkpt lat="37.99979305684402" lon="15.36454454711564"><ele>415.99999999999994</ele><time>2026-04-28T14:26:05.999Z</time></trkpt><trkpt lat="37.999749731193695" lon="15.364627017155664"><ele>416.0</ele><time>2026-04-28T14:26:06.999Z</time></trkpt><trkpt lat="37.999690288216385" lon="15.364692757257101"><ele>416.0</ele><time>2026-04-28T14:26:07.999Z</time></trkpt><trkpt lat="37.999620022086944" lon="15.364756331050694"><ele>416.0</ele><time>2026-04-28T14:26:08.999Z</time></trkpt><trkpt lat="37.999559324925826" lon="15.36481314744103"><ele>415.99999999999994</ele><time>2026-04-28T14:26:09.999Z</time></trkpt><trkpt lat="37.999517052836026" lon="15.364903774215966"><ele>416.0</ele><time>2026-04-28T14:26:11.999Z</time></trkpt><trkpt lat="37.999549124151585" lon="15.365037564459914"><ele>415.20000000000005</ele><time>2026-04-28T14:26:14Z</time></trkpt><trkpt lat="37.99956376997073" lon="15.365135168550504"><ele>414.40000000000003</ele><time>2026-04-28T14:26:15Z</time></trkpt><trkpt lat="37.99956935130936" lon="15.365247570646035"><ele>413.6</ele><time>2026-04-28T14:26:16Z</time></trkpt><trkpt lat="37.99958903050052" lon="15.365366666846667"><ele>412.8</ele><time>2026-04-28T14:26:17Z</time></trkpt><trkpt lat="37.99961475284785" lon="15.36547680369739"><ele>412.0</ele><time>2026-04-28T14:26:18Z</time></trkpt><trkpt lat="37.999683625982065" lon="15.3655669292697"><ele>408.6666666666667</ele><time>2026-04-28T14:26:19Z</time></trkpt><trkpt lat="37.99974828835656" lon="15.365640650473289"><ele>405.33333333333337</ele><time>2026-04-28T14:26:20Z</time></trkpt><trkpt lat="37.99979793447251" lon="15.365694238447487"><ele>402.0</ele><time>2026-04-28T14:26:21Z</time></trkpt><trkpt lat="37.99983238596383" lon="15.365772984230563"><ele>398.66666666666663</ele><time>2026-04-28T14:26:23Z</time></trkpt><trkpt lat="37.999816775227615" lon="15.365907590201147"><ele>395.3333333333333</ele><time>2026-04-28T14:26:25Z</time></trkpt><trkpt lat="37.99978002950679" lon="15.365995138713116"><ele>392.0</ele><time>2026-04-28T14:26:26Z</time></trkpt><trkpt lat="37.99973198141008" lon="15.366072562546377"><ele>391.99999999999994</ele><time>2026-04-28T14:26:27Z</time></trkpt><trkpt lat="37.99968135780702" lon="15.366141318635648"><ele>392.0</ele><time>2026-04-28T14:26:28Z</time></trkpt><trkpt lat="37.99963512428377" lon="15.366212927371855"><ele>392.0</ele><time>2026-04-28T14:26:29Z</time></trkpt><trkpt lat="37.99960169219459" lon="15.366294584375682"><ele>392.0</ele><time>2026-04-28T14:26:30Z</time></trkpt><trkpt lat="37.999577696882625" lon="15.366375058144623"><ele>391.99999999999994</ele><time>2026-04-28T14:26:31Z</time></trkpt><trkpt lat="37.999517952349905" lon="15.366482519874776"><ele>392.0</ele><time>2026-04-28T14:26:33Z</time></trkpt><trkpt lat="37.99944865647955" lon="15.366506979092128"><ele>390.20000000000005</ele><time>2026-04-28T14:26:34Z</time></trkpt><trkpt lat="37.99935288326557" lon="15.366519626988314"><ele>388.4</ele><time>2026-04-28T14:26:35Z</time></trkpt><trkpt lat="37.99925994576411" lon="15.366536358755022"><ele>386.6</ele><time>2026-04-28T14:26:36Z</time></trkpt><trkpt lat="37.999158438712" lon="15.366547162923776"><ele>384.79999999999995</ele><time>2026-04-28T14:26:37Z</time></trkpt><trkpt lat="37.99905509677058" lon="15.366555916130032"><ele>383.0</ele><time>2026-04-28T14:26:38Z</time></trkpt><trkpt lat="37.998951047572326" lon="15.366563796338355"><ele>387.2</ele><time>2026-04-28T14:26:39Z</time></trkpt><trkpt lat="37.99884282972903" lon="15.366563267885585"><ele>391.4</ele><time>2026-04-28T14:26:40Z</time></trkpt><trkpt lat="37.99872903108399" lon="15.366590158696207"><ele>395.59999999999997</ele><time>2026-04-28T14:26:41Z</time></trkpt><trkpt lat="37.99861893972419" lon="15.3666236444465"><ele>399.79999999999995</ele><time>2026-04-28T14:26:42Z</time></trkpt><trkpt lat="37.99851639750162" lon="15.36667822111766"><ele>404.0</ele><time>2026-04-28T14:26:43Z</time></trkpt><trkpt lat="37.998418635237066" lon="15.366730306938416"><ele>413.75</ele><time>2026-04-28T14:26:44Z</time></trkpt><trkpt lat="37.99831246175941" lon="15.36681424800876"><ele>423.5</ele><time>2026-04-28T14:26:45Z</time></trkpt><trkpt lat="37.998211579016555" lon="15.366888249090898"><ele>433.25</ele><time>2026-04-28T14:26:46Z</time></trkpt><trkpt lat="37.99811757204845" lon="15.36695916393544"><ele>443.0</ele><time>2026-04-28T14:26:47Z</time></trkpt><trkpt lat="37.99803103253498" lon="15.367048583864065"><ele>442.99999999999994</ele><time>2026-04-28T14:26:48Z</time></trkpt><trkpt lat="37.99796083396918" lon="15.367139101083657"><ele>443.0</ele><time>2026-04-28T14:26:49Z</time></trkpt><trkpt lat="37.99790007653211" lon="15.367212114382038"><ele>443.0</ele><time>2026-04-28T14:26:50Z</time></trkpt><trkpt lat="37.997829314149485" lon="15.36723374822904"><ele>443.0</ele><time>2026-04-28T14:26:51Z</time></trkpt><trkpt lat="37.99774793360076" lon="15.367223612561423"><ele>442.99999999999994</ele><time>2026-04-28T14:26:52Z</time></trkpt><trkpt lat="37.99764481421199" lon="15.367192806797268"><ele>443.0</ele><time>2026-04-28T14:26:52.999Z</time></trkpt><trkpt lat="37.99752080626144" lon="15.367164629082483"><ele>447.2</ele><time>2026-04-28T14:26:53.999Z</time></trkpt><trkpt lat="37.99740983500055" lon="15.367135594778116"><ele>451.4</ele><time>2026-04-28T14:26:54.999Z</time></trkpt><trkpt lat="37.997336833505514" lon="15.36710212534173"><ele>455.59999999999997</ele><time>2026-04-28T14:26:55.999Z</time></trkpt><trkpt lat="37.9972742516462" lon="15.367050342586584"><ele>459.79999999999995</ele><time>2026-04-28T14:26:56.999Z</time></trkpt><trkpt lat="37.99722422044862" lon="15.366998298194213"><ele>464.0</ele><time>2026-04-28T14:26:57.999Z</time></trkpt><trkpt lat="37.99710843300153" lon="15.367035199988983"><ele>464.0</ele><time>2026-04-28T14:26:59.999Z</time></trkpt><trkpt lat="37.99703071885547" lon="15.367133660451273"><ele>464.0</ele><time>2026-04-28T14:27:00.999Z</time></trkpt><trkpt lat="37.99694662059188" lon="15.367229116313128"><ele>464.0</ele><time>2026-04-28T14:27:01.999Z</time></trkpt><trkpt lat="37.99687739846363" lon="15.36727714757536"><ele>464.0</ele><time>2026-04-28T14:27:02.999Z</time></trkpt><trkpt lat="37.99680803503161" lon="15.36731103995155"><ele>464.0</ele><time>2026-04-28T14:27:03.999Z</time></trkpt><trkpt lat="37.99671161052512" lon="15.367295389121427"><ele>457.8333333333333</ele><time>2026-04-28T14:27:05.999Z</time></trkpt><trkpt lat="37.9967082961731" lon="15.367377621227112"><ele>451.66666666666663</ele><time>2026-04-28T14:47:21Z</time></trkpt><trkpt lat="37.996631766198036" lon="15.367419260534774"><ele>445.5</ele><time>2026-04-28T14:47:25Z</time></trkpt><trkpt lat="37.99654608750671" lon="15.367451859119162"><ele>439.33333333333337</ele><time>2026-04-28T14:47:27Z</time></trkpt><trkpt lat="37.996456626358416" lon="15.367449361114415"><ele>433.1666666666667</ele><time>2026-04-28T14:47:29Z</time></trkpt><trkpt lat="37.996356476139475" lon="15.367379162950908"><ele>427.0</ele><time>2026-04-28T14:47:31Z</time></trkpt><trkpt lat="37.996319202280766" lon="15.367307006566731"><ele>427.00000000000006</ele><time>2026-04-28T14:47:32Z</time></trkpt><trkpt lat="37.99628473108636" lon="15.367219930887257"><ele>427.0</ele><time>2026-04-28T14:47:33Z</time></trkpt><trkpt lat="37.99625953183538" lon="15.367121530551382"><ele>427.0</ele><time>2026-04-28T14:47:34Z</time></trkpt><trkpt lat="37.996240515215085" lon="15.367005610968219"><ele>427.0</ele><time>2026-04-28T14:47:35Z</time></trkpt><trkpt lat="37.996235602121025" lon="15.366876605369058"><ele>427.00000000000006</ele><time>2026-04-28T14:47:36Z</time></trkpt><trkpt lat="37.99623735053974" lon="15.366769263969159"><ele>427.0</ele><time>2026-04-28T14:47:37Z</time></trkpt><trkpt lat="37.99624335010204" lon="15.366646778188558"><ele>433.6</ele><time>2026-04-28T14:47:38Z</time></trkpt><trkpt lat="37.996262397399015" lon="15.366550751518366"><ele>440.20000000000005</ele><time>2026-04-28T14:47:39Z</time></trkpt><trkpt lat="37.99622702618729" lon="15.366444265919302"><ele>446.8</ele><time>2026-04-28T14:47:41Z</time></trkpt><trkpt lat="37.99611641197419" lon="15.366402693415573"><ele>453.4</ele><time>2026-04-28T14:47:43Z</time></trkpt><trkpt lat="37.996023939817256" lon="15.366481510450155"><ele>460.0</ele><time>2026-04-28T14:47:45Z</time></trkpt><trkpt lat="37.99598645484614" lon="15.366584902098493"><ele>460.0</ele><time>2026-04-28T14:47:46Z</time></trkpt><trkpt lat="37.99596576894951" lon="15.366686059815885"><ele>460.0</ele><time>2026-04-28T14:47:47Z</time></trkpt><trkpt lat="37.99587189065163" lon="15.36679824427906"><ele>460.0</ele><time>2026-04-28T14:47:49Z</time></trkpt><trkpt lat="37.99578648318531" lon="15.366847565064122"><ele>460.0</ele><time>2026-04-28T14:47:50Z</time></trkpt><trkpt lat="37.99569840150062" lon="15.366879695147347"><ele>460.0</ele><time>2026-04-28T14:47:51Z</time></trkpt><trkpt lat="37.995601679804636" lon="15.366917991054207"><ele>459.00000000000006</ele><time>2026-04-28T14:47:51.999Z</time></trkpt><trkpt lat="37.99551345500378" lon="15.36694819538622"><ele>458.0</ele><time>2026-04-28T14:47:52.999Z</time></trkpt><trkpt lat="37.995423071454745" lon="15.366985673512378"><ele>457.0</ele><time>2026-04-28T14:47:53.999Z</time></trkpt><trkpt lat="37.99535935186163" lon="15.3670490880995"><ele>456.0</ele><time>2026-04-28T14:47:54.999Z</time></trkpt><trkpt lat="37.99529140061768" lon="15.367127310876539"><ele>455.00000000000006</ele><time>2026-04-28T14:47:55.999Z</time></trkpt><trkpt lat="37.99523452440728" lon="15.367177398290472"><ele>454.0</ele><time>2026-04-28T14:47:56.999Z</time></trkpt><trkpt lat="37.99516863019624" lon="15.367196351117341"><ele>454.0</ele><time>2026-04-28T14:47:57.999Z</time></trkpt><trkpt lat="37.99506875390335" lon="15.367192535123667"><ele>454.0</ele><time>2026-04-28T14:47:58.999Z</time></trkpt><trkpt lat="37.99495007943097" lon="15.367182733686528"><ele>454.0</ele><time>2026-04-28T14:47:59.999Z</time></trkpt><trkpt lat="37.99484109187588" lon="15.367183354266691"><ele>454.0</ele><time>2026-04-28T14:48:00.999Z</time></trkpt><trkpt lat="37.994744217388416" lon="15.367211784142189"><ele>454.0</ele><time>2026-04-28T14:48:01.999Z</time></trkpt><trkpt lat="37.99467085325181" lon="15.367238689607541"><ele>456.2</ele><time>2026-04-28T14:48:02.999Z</time></trkpt><trkpt lat="37.99457400011268" lon="15.367236706656696"><ele>458.4</ele><time>2026-04-28T14:48:04.999Z</time></trkpt><trkpt lat="37.99452565226211" lon="15.367116758841957"><ele>460.6</ele><time>2026-04-28T14:48:06.999Z</time></trkpt><trkpt lat="37.994506060795935" lon="15.367017484991143"><ele>462.8</ele><time>2026-04-28T14:48:07.999Z</time></trkpt><trkpt lat="37.99446708675085" lon="15.36694847956138"><ele>465.0</ele><time>2026-04-28T14:48:08.999Z</time></trkpt><trkpt lat="37.99436229222415" lon="15.366961896824442"><ele>465.0</ele><time>2026-04-28T14:48:10.999Z</time></trkpt><trkpt lat="37.994288691440346" lon="15.36700946897115"><ele>465.0</ele><time>2026-04-28T14:48:11.999Z</time></trkpt><trkpt lat="37.99421455624948" lon="15.367026482005066"><ele>465.0</ele><time>2026-04-28T14:48:12.999Z</time></trkpt><trkpt lat="37.994136491510076" lon="15.367031524069553"><ele>465.0</ele><time>2026-04-28T14:48:13.999Z</time></trkpt><trkpt lat="37.99406447452685" lon="15.367055509533284"><ele>465.0</ele><time>2026-04-28T14:48:14.999Z</time></trkpt><trkpt lat="37.99399067211698" lon="15.367104318136343"><ele>465.0</ele><time>2026-04-28T14:48:16.999Z</time></trkpt><trkpt lat="37.993971760580656" lon="15.367227451953621"><ele>460.8333333333333</ele><time>2026-04-28T14:48:18.999Z</time></trkpt><trkpt lat="37.9939572114079" lon="15.367322827567467"><ele>456.66666666666663</ele><time>2026-04-28T14:48:19.999Z</time></trkpt><trkpt lat="37.99392208724874" lon="15.367411903285022"><ele>452.5</ele><time>2026-04-28T14:48:20.999Z</time></trkpt><trkpt lat="37.99388972943463" lon="15.36748285601145"><ele>448.3333333333333</ele><time>2026-04-28T14:48:21.999Z</time></trkpt><trkpt lat="37.99391351877882" lon="15.36760657795724"><ele>444.16666666666663</ele><time>2026-04-28T14:48:23.999Z</time></trkpt><trkpt lat="37.993947708403496" lon="15.367697988838565"><ele>440.0</ele><time>2026-04-28T14:48:24.999Z</time></trkpt><trkpt lat="37.99397576604942" lon="15.367801556883029"><ele>439.99999999999994</ele><time>2026-04-28T14:48:25.999Z</time></trkpt><trkpt lat="37.99398383014474" lon="15.367902969723215"><ele>440.0</ele><time>2026-04-28T14:48:26.999Z</time></trkpt><trkpt lat="37.99397950820026" lon="15.36800593103218"><ele>440.0</ele><time>2026-04-28T14:48:27.999Z</time></trkpt><trkpt lat="37.99397282843" lon="15.368095890174482"><ele>440.0</ele><time>2026-04-28T14:48:28.999Z</time></trkpt><trkpt lat="37.99395020287322" lon="15.368231551253544"><ele>439.99999999999994</ele><time>2026-04-28T14:48:30.999Z</time></trkpt><trkpt lat="37.9939176113902" lon="15.36831006866048"><ele>440.0</ele><time>2026-04-28T14:48:31.999Z</time></trkpt><trkpt lat="37.99386795601877" lon="15.368406870439266"><ele>437.6</ele><time>2026-04-28T14:48:32.999Z</time></trkpt><trkpt lat="37.99381382427921" lon="15.368518902617835"><ele>435.2</ele><time>2026-04-28T14:48:33.999Z</time></trkpt><trkpt lat="37.99376943138718" lon="15.368636698937348"><ele>432.79999999999995</ele><time>2026-04-28T14:48:34.999Z</time></trkpt><trkpt lat="37.99372521847786" lon="15.368747633320178"><ele>430.4</ele><time>2026-04-28T14:48:35.999Z</time></trkpt><trkpt lat="37.9936746583146" lon="15.368827498671443"><ele>428.0</ele><time>2026-04-28T14:48:36.999Z</time></trkpt><trkpt lat="37.99361830738618" lon="15.36887257585684"><ele>425.4</ele><time>2026-04-28T14:48:37.999Z</time></trkpt><trkpt lat="37.99353983313164" lon="15.36891676935069"><ele>422.79999999999995</ele><time>2026-04-28T14:48:38.999Z</time></trkpt><trkpt lat="37.993443724151156" lon="15.368961312660128"><ele>420.2</ele><time>2026-04-28T14:48:39.999Z</time></trkpt><trkpt lat="37.99334235375252" lon="15.369005042143966"><ele>417.6</ele><time>2026-04-28T14:48:40.999Z</time></trkpt><trkpt lat="37.99323621992888" lon="15.369038186882328"><ele>415.0</ele><time>2026-04-28T14:48:41.999Z</time></trkpt><trkpt lat="37.99312102650262" lon="15.369086654532595"><ele>421.0</ele><time>2026-04-28T14:48:43.999Z</time></trkpt><trkpt lat="37.993084860530125" lon="15.369170051200834"><ele>427.0</ele><time>2026-04-28T14:48:44.999Z</time></trkpt><trkpt lat="37.99304893792201" lon="15.36927605284332"><ele>433.0</ele><time>2026-04-28T14:48:45.999Z</time></trkpt><trkpt lat="37.993020212741634" lon="15.369399639744362"><ele>439.0</ele><time>2026-04-28T14:48:46.999Z</time></trkpt><trkpt lat="37.99299733249009" lon="15.369525621381605"><ele>445.0</ele><time>2026-04-28T14:48:47.999Z</time></trkpt><trkpt lat="37.99298581103197" lon="15.369650015679833"><ele>445.00000000000006</ele><time>2026-04-28T14:48:48.999Z</time></trkpt><trkpt lat="37.99297437188888" lon="15.369768175331455"><ele>445.0</ele><time>2026-04-28T14:48:49.999Z</time></trkpt><trkpt lat="37.992958119121084" lon="15.369857783114076"><ele>445.0</ele><time>2026-04-28T14:48:51.999Z</time></trkpt><trkpt lat="37.99290595778061" lon="15.36973424087469"><ele>445.0</ele><time>2026-04-28T14:48:58.999Z</time></trkpt><trkpt lat="37.99291197490018" lon="15.369645277586184"><ele>445.00000000000006</ele><time>2026-04-28T14:48:59.999Z</time></trkpt><trkpt lat="37.992919436315326" lon="15.369526919470573"><ele>445.0</ele><time>2026-04-28T14:49:01.999Z</time></trkpt><trkpt lat="37.99290001191229" lon="15.369395557152153"><ele>445.00000000000006</ele><time>2026-04-28T14:49:03.999Z</time></trkpt><trkpt lat="37.992914917598405" lon="15.36930667575042"><ele>445.0</ele><time>2026-04-28T14:49:04.999Z</time></trkpt><trkpt lat="37.99294442077766" lon="15.369221937895237"><ele>445.0</ele><time>2026-04-28T14:49:05.999Z</time></trkpt><trkpt lat="37.9929764553143" lon="15.369133100168012"><ele>445.0</ele><time>2026-04-28T14:49:06.999Z</time></trkpt><trkpt lat="37.99300806874048" lon="15.36904906538418"><ele>445.00000000000006</ele><time>2026-04-28T14:49:07.999Z</time></trkpt><trkpt lat="37.9930249179187" lon="15.368943041492248"><ele>445.0</ele><time>2026-04-28T14:49:08.999Z</time></trkpt><trkpt lat="37.99304020285986" lon="15.368832304701595"><ele>447.83333333333337</ele><time>2026-04-28T14:49:09.999Z</time></trkpt><trkpt lat="37.99306631573265" lon="15.368701541777508"><ele>450.6666666666667</ele><time>2026-04-28T14:49:10.999Z</time></trkpt><trkpt lat="37.99311064071449" lon="15.368596509540572"><ele>453.5</ele><time>2026-04-28T14:49:11.999Z</time></trkpt><trkpt lat="37.99315073659243" lon="15.368483535855418"><ele>456.33333333333337</ele><time>2026-04-28T14:49:12.999Z</time></trkpt><trkpt lat="37.99318089410413" lon="15.368390562715247"><ele>459.1666666666667</ele><time>2026-04-28T14:49:13.999Z</time></trkpt><trkpt lat="37.99319945981055" lon="15.368306551730797"><ele>462.0</ele><time>2026-04-28T14:49:14.999Z</time></trkpt><trkpt lat="37.993207783946154" lon="15.368210075224406"><ele>462.0</ele><time>2026-04-28T14:49:15.999Z</time></trkpt><trkpt lat="37.99320225677738" lon="15.368091812960511"><ele>462.00000000000006</ele><time>2026-04-28T14:49:16.999Z</time></trkpt><trkpt lat="37.993186457985864" lon="15.367966426328724"><ele>462.00000000000006</ele><time>2026-04-28T14:49:17.999Z</time></trkpt><trkpt lat="37.993184875353826" lon="15.367861491383263"><ele>462.0</ele><time>2026-04-28T14:49:18.999Z</time></trkpt><trkpt lat="37.99320444773915" lon="15.367748597970614"><ele>462.0</ele><time>2026-04-28T14:49:20Z</time></trkpt><trkpt lat="37.993225683406905" lon="15.367634256199535"><ele>464.20000000000005</ele><time>2026-04-28T14:49:21Z</time></trkpt><trkpt lat="37.993159490359375" lon="15.367580854738149"><ele>466.40000000000003</ele><time>2026-04-28T14:49:25Z</time></trkpt><trkpt lat="37.99310860261766" lon="15.367652116241477"><ele>468.59999999999997</ele><time>2026-04-28T14:49:26Z</time></trkpt><trkpt lat="37.99306343747562" lon="15.367767169302253"><ele>470.79999999999995</ele><time>2026-04-28T14:49:27Z</time></trkpt><trkpt lat="37.992996758049316" lon="15.36789037718969"><ele>473.0</ele><time>2026-04-28T14:49:28Z</time></trkpt><trkpt lat="37.99291580515777" lon="15.367994661990645"><ele>470.25</ele><time>2026-04-28T14:49:29Z</time></trkpt><trkpt lat="37.992833960551096" lon="15.368096022661101"><ele>467.5</ele><time>2026-04-28T14:49:30Z</time></trkpt><trkpt lat="37.99274829277423" lon="15.36819175806387"><ele>464.75</ele><time>2026-04-28T14:49:31Z</time></trkpt><trkpt lat="37.99264532353935" lon="15.3682812959505"><ele>462.0</ele><time>2026-04-28T14:49:32Z</time></trkpt><trkpt lat="37.992534770572675" lon="15.368396735072817"><ele>468.75</ele><time>2026-04-28T14:49:33Z</time></trkpt><trkpt lat="37.992436652176515" lon="15.36851773681652"><ele>475.5</ele><time>2026-04-28T14:49:34Z</time></trkpt><trkpt lat="37.99234889371555" lon="15.368615060374566"><ele>482.25</ele><time>2026-04-28T14:49:35Z</time></trkpt><trkpt lat="37.99227664023958" lon="15.368705624406516"><ele>489.0</ele><time>2026-04-28T14:49:36Z</time></trkpt><trkpt lat="37.99222674113406" lon="15.368841234492576"><ele>488.0</ele><time>2026-04-28T14:49:38Z</time></trkpt><trkpt lat="37.99223874788137" lon="15.368969068715282"><ele>487.0</ele><time>2026-04-28T14:49:40Z</time></trkpt><trkpt lat="37.99223622047222" lon="15.36904962771333"><ele>486.0</ele><time>2026-04-28T14:49:41Z</time></trkpt><trkpt lat="37.992233293931314" lon="15.369140901329876"><ele>485.0</ele><time>2026-04-28T14:49:42Z</time></trkpt><trkpt lat="37.99216131917408" lon="15.36909836716938"><ele>484.0</ele><time>2026-04-28T14:49:43Z</time></trkpt><trkpt lat="37.99208364165334" lon="15.368947721449198"><ele>484.0</ele><time>2026-04-28T14:49:45Z</time></trkpt><trkpt lat="37.992052376358835" lon="15.368875028521805"><ele>484.0</ele><time>2026-04-28T14:49:46Z</time></trkpt><trkpt lat="37.99196118266098" lon="15.368787237374518"><ele>484.0</ele><time>2026-04-28T14:49:47Z</time></trkpt><trkpt lat="37.99186928649184" lon="15.368698414573503"><ele>484.0</ele><time>2026-04-28T14:49:48Z</time></trkpt><trkpt lat="37.99181303879922" lon="15.368619105231755"><ele>484.0</ele><time>2026-04-28T14:49:49Z</time></trkpt><trkpt lat="37.99178329023927" lon="15.368535145849071"><ele>485.0</ele><time>2026-04-28T14:49:50Z</time></trkpt><trkpt lat="37.991777097911104" lon="15.368437110959663"><ele>486.0</ele><time>2026-04-28T14:49:51Z</time></trkpt><trkpt lat="37.99176978846848" lon="15.368314202292314"><ele>487.0</ele><time>2026-04-28T14:49:52Z</time></trkpt><trkpt lat="37.99177206967032" lon="15.368157450476076"><ele>488.0</ele><time>2026-04-28T14:49:53Z</time></trkpt><trkpt lat="37.99178629218161" lon="15.367991180140535"><ele>489.0</ele><time>2026-04-28T14:49:54Z</time></trkpt><trkpt lat="37.991795267370705" lon="15.367831847820256"><ele>491.0</ele><time>2026-04-28T14:49:55Z</time></trkpt><trkpt lat="37.9918358127093" lon="15.367667004191917"><ele>493.0</ele><time>2026-04-28T14:49:56Z</time></trkpt><trkpt lat="37.99188070619402" lon="15.367506876834591"><ele>495.0</ele><time>2026-04-28T14:49:57Z</time></trkpt><trkpt lat="37.99193716477891" lon="15.36736651185743"><ele>497.0</ele><time>2026-04-28T14:49:58Z</time></trkpt><trkpt lat="37.99198379594622" lon="15.36725459808366"><ele>499.8</ele><time>2026-04-28T14:49:59Z</time></trkpt><trkpt lat="37.99202660415499" lon="15.367146392614949"><ele>502.6</ele><time>2026-04-28T14:50:00Z</time></trkpt><trkpt lat="37.99206696586457" lon="15.36707716772877"><ele>505.40000000000003</ele><time>2026-04-28T14:50:01Z</time></trkpt><trkpt lat="37.99214427311557" lon="15.36692626421681"><ele>508.20000000000005</ele><time>2026-04-28T14:50:03Z</time></trkpt><trkpt lat="37.99217437411429" lon="15.366826853581756"><ele>511.0</ele><time>2026-04-28T14:50:04Z</time></trkpt><trkpt lat="37.99219622730551" lon="15.366684077731868"><ele>511.00000000000006</ele><time>2026-04-28T14:50:05Z</time></trkpt><trkpt lat="37.992221676410146" lon="15.366541164447877"><ele>511.0</ele><time>2026-04-28T14:50:06Z</time></trkpt><trkpt lat="37.9922281336667" lon="15.366423299440259"><ele>511.0</ele><time>2026-04-28T14:50:07Z</time></trkpt><trkpt lat="37.99223713338998" lon="15.366343043886651"><ele>511.0</ele><time>2026-04-28T14:50:08Z</time></trkpt><trkpt lat="37.99225111210477" lon="15.366261421619667"><ele>511.00000000000006</ele><time>2026-04-28T14:50:09Z</time></trkpt><trkpt lat="37.9922889471339" lon="15.366146445589232"><ele>511.0</ele><time>2026-04-28T14:50:11Z</time></trkpt><trkpt lat="37.99230312734312" lon="15.366051817817953"><ele>512.4</ele><time>2026-04-28T14:50:13.999Z</time></trkpt><trkpt lat="37.99221775660896" lon="15.36596979239816"><ele>513.8</ele><time>2026-04-28T14:50:15.999Z</time></trkpt><trkpt lat="37.992142212844904" lon="15.365928030163529"><ele>515.1999999999999</ele><time>2026-04-28T14:50:16.999Z</time></trkpt><trkpt lat="37.992046174948285" lon="15.365898724900871"><ele>516.6</ele><time>2026-04-28T14:50:17.999Z</time></trkpt><trkpt lat="37.99194977334503" lon="15.365859875393738"><ele>518.0</ele><time>2026-04-28T14:50:18.999Z</time></trkpt><trkpt lat="37.991875727183796" lon="15.365826011010693"><ele>518.0</ele><time>2026-04-28T14:50:19.999Z</time></trkpt><trkpt lat="37.991794892428985" lon="15.365814735293984"><ele>518.0</ele><time>2026-04-28T14:50:20.999Z</time></trkpt><trkpt lat="37.991705008695604" lon="15.365812649987674"><ele>518.0</ele><time>2026-04-28T14:50:21.999Z</time></trkpt><trkpt lat="37.99157908657603" lon="15.365804513988504"><ele>518.0</ele><time>2026-04-28T14:50:22.999Z</time></trkpt><trkpt lat="37.99148377682486" lon="15.365787522177001"><ele>518.0</ele><time>2026-04-28T14:50:24.999Z</time></trkpt><trkpt lat="37.99140436815411" lon="15.365688360195495"><ele>517.3333333333333</ele><time>2026-04-28T14:50:26.999Z</time></trkpt><trkpt lat="37.99135365531298" lon="15.365615716359445"><ele>516.6666666666666</ele><time>2026-04-28T14:50:27.999Z</time></trkpt><trkpt lat="37.99125457038385" lon="15.365544518832145"><ele>516.0</ele><time>2026-04-28T14:50:29.999Z</time></trkpt><trkpt lat="37.99119179905375" lon="15.365535515988128"><ele>515.3333333333334</ele><time>2026-04-28T14:50:30.999Z</time></trkpt><trkpt lat="37.991125724733664" lon="15.365534846271384"><ele>514.6666666666667</ele><time>2026-04-28T14:50:31.999Z</time></trkpt><trkpt lat="37.9910500272395" lon="15.365504382273928"><ele>514.0</ele><time>2026-04-28T14:50:33.999Z</time></trkpt><trkpt lat="37.99098036708934" lon="15.365439249076951"><ele>516.0</ele><time>2026-04-28T14:50:36.999Z</time></trkpt><trkpt lat="37.990932971786705" lon="15.36535171945901"><ele>518.0</ele><time>2026-04-28T14:50:40.999Z</time></trkpt><trkpt lat="37.9908566745019" lon="15.365388251903031"><ele>520.0</ele><time>2026-04-28T14:50:44.999Z</time></trkpt><trkpt lat="37.9907954524347" lon="15.365365302418304"><ele>522.0</ele><time>2026-04-28T14:50:48.999Z</time></trkpt><trkpt lat="37.99074718386949" lon="15.365303078585406"><ele>524.0</ele><time>2026-04-28T14:50:51.999Z</time></trkpt><trkpt lat="37.99065898691414" lon="15.365306069205946"><ele>526.0</ele><time>2026-04-28T14:50:54.999Z</time></trkpt><trkpt lat="37.99057551129175" lon="15.365280004349525"><ele>518.75</ele><time>2026-04-28T14:50:57.999Z</time></trkpt><trkpt lat="37.990398315776005" lon="15.36523385069826"><ele>511.5</ele><time>2026-04-28T14:50:58.999Z</time></trkpt><trkpt lat="37.99031651315191" lon="15.365167787055078"><ele>504.25</ele><time>2026-04-28T14:51:00.999Z</time></trkpt><trkpt lat="37.99023064277413" lon="15.365169264848495"><ele>497.0</ele><time>2026-04-28T14:51:02.999Z</time></trkpt><trkpt lat="37.99013776809627" lon="15.365214163015827"><ele>496.99999999999994</ele><time>2026-04-28T14:51:04.999Z</time></trkpt><trkpt lat="37.990080672138" lon="15.365281238448862"><ele>497.0</ele><time>2026-04-28T14:51:06.999Z</time></trkpt><trkpt lat="37.99003467612188" lon="15.365384228619208"><ele>497.0</ele><time>2026-04-28T14:51:08.999Z</time></trkpt><trkpt lat="37.990008306329955" lon="15.365490557345657"><ele>497.0</ele><time>2026-04-28T14:51:10.999Z</time></trkpt><trkpt lat="37.990015777580396" lon="15.365575604786313"><ele>496.99999999999994</ele><time>2026-04-28T14:51:12.999Z</time></trkpt><trkpt lat="37.98999380520146" lon="15.365655175909215"><ele>497.0</ele><time>2026-04-28T14:51:14.999Z</time></trkpt><trkpt lat="37.98992246615362" lon="15.365666825340329"><ele>492.16666666666663</ele><time>2026-04-28T14:51:20.999Z</time></trkpt><trkpt lat="37.98990873615802" lon="15.365556314587094"><ele>487.3333333333333</ele><time>2026-04-28T14:51:24.999Z</time></trkpt><trkpt lat="37.989928434993864" lon="15.365447189389943"><ele>482.5</ele><time>2026-04-28T14:51:27Z</time></trkpt><trkpt lat="37.989935952864506" lon="15.365331087020882"><ele>477.66666666666663</ele><time>2026-04-28T14:51:29Z</time></trkpt><trkpt lat="37.98994628557622" lon="15.36524001040508"><ele>472.8333333333333</ele><time>2026-04-28T14:51:31Z</time></trkpt><trkpt lat="37.98994591443821" lon="15.36515799834956"><ele>468.0</ele><time>2026-04-28T14:51:33Z</time></trkpt><trkpt lat="37.989928009064684" lon="15.365054719649171"><ele>467.8333333333333</ele><time>2026-04-28T14:51:35Z</time></trkpt><trkpt lat="37.98992540184309" lon="15.364933469437226"><ele>467.66666666666663</ele><time>2026-04-28T14:51:37Z</time></trkpt><trkpt lat="37.98991867858738" lon="15.36480909221611"><ele>467.5</ele><time>2026-04-28T14:51:39Z</time></trkpt><trkpt lat="37.98990573198014" lon="15.364703909655411"><ele>467.3333333333333</ele><time>2026-04-28T14:51:41Z</time></trkpt><trkpt lat="37.98988385898345" lon="15.364611584330573"><ele>467.16666666666663</ele><time>2026-04-28T14:51:43Z</time></trkpt><trkpt lat="37.9898452830953" lon="15.364543718307797"><ele>467.0</ele><time>2026-04-28T14:51:45Z</time></trkpt><trkpt lat="37.98976503012884" lon="15.364493402483449"><ele>462.99999999999994</ele><time>2026-04-28T14:51:47Z</time></trkpt><trkpt lat="37.989699927058226" lon="15.364483436742347"><ele>459.0</ele><time>2026-04-28T14:51:48Z</time></trkpt><trkpt lat="37.98959053174562" lon="15.364455634139325"><ele>455.0</ele><time>2026-04-28T14:51:50Z</time></trkpt><trkpt lat="37.989505734101954" lon="15.364411764631235"><ele>451.0</ele><time>2026-04-28T14:51:52Z</time></trkpt><trkpt lat="37.989436558916985" lon="15.364407867008062"><ele>446.99999999999994</ele><time>2026-04-28T14:51:54Z</time></trkpt><trkpt lat="37.989405390439295" lon="15.364514890951876"><ele>443.0</ele><time>2026-04-28T14:51:56Z</time></trkpt><trkpt lat="37.98942457800475" lon="15.364647470369299"><ele>442.99999999999994</ele><time>2026-04-28T14:51:58Z</time></trkpt><trkpt lat="37.989400384211386" lon="15.364752055075655"><ele>443.0</ele><time>2026-04-28T14:52:00Z</time></trkpt><trkpt lat="37.989350978152835" lon="15.364841982923904"><ele>443.0</ele><time>2026-04-28T14:52:02Z</time></trkpt><trkpt lat="37.98929165266463" lon="15.364930626654536"><ele>443.0</ele><time>2026-04-28T14:52:04Z</time></trkpt><trkpt lat="37.9892456876346" lon="15.364997068872889"><ele>442.99999999999994</ele><time>2026-04-28T14:52:06Z</time></trkpt><trkpt lat="37.98916467538555" lon="15.364958696417087"><ele>443.0</ele><time>2026-04-28T14:52:10Z</time></trkpt><trkpt lat="37.989110558469555" lon="15.364879132595293"><ele>443.0</ele><time>2026-04-28T14:52:12Z</time></trkpt><trkpt lat="37.989006072053705" lon="15.364817033133493"><ele>442.99999999999994</ele><time>2026-04-28T14:52:14Z</time></trkpt><trkpt lat="37.988913252655884" lon="15.364828644884629"><ele>442.99999999999994</ele><time>2026-04-28T14:52:15Z</time></trkpt><trkpt lat="37.98881334243902" lon="15.364837107980978"><ele>443.0</ele><time>2026-04-28T14:52:16Z</time></trkpt><trkpt lat="37.98871495464261" lon="15.36483324830577"><ele>443.0</ele><time>2026-04-28T14:52:17Z</time></trkpt><trkpt lat="37.98863938374416" lon="15.364826269647258"><ele>442.99999999999994</ele><time>2026-04-28T14:52:18Z</time></trkpt><trkpt lat="37.988566079393536" lon="15.364811046576735"><ele>443.0</ele><time>2026-04-28T14:52:18.999Z</time></trkpt><trkpt lat="37.988492596008456" lon="15.364800152923152"><ele>443.0</ele><time>2026-04-28T14:52:19.999Z</time></trkpt><trkpt lat="37.9884242603697" lon="15.364827712513534"><ele>443.0</ele><time>2026-04-28T14:52:20.999Z</time></trkpt><trkpt lat="37.9883537166026" lon="15.364874103911784"><ele>442.99999999999994</ele><time>2026-04-28T14:52:21.999Z</time></trkpt><trkpt lat="37.98824941677305" lon="15.364928924922534"><ele>443.0</ele><time>2026-04-28T14:52:23.999Z</time></trkpt><trkpt lat="37.98814134921067" lon="15.365011784281931"><ele>440.0</ele><time>2026-04-28T14:52:25.999Z</time></trkpt><trkpt lat="37.98809090505839" lon="15.365075544375053"><ele>436.99999999999994</ele><time>2026-04-28T14:52:26.999Z</time></trkpt><trkpt lat="37.98799825223271" lon="15.365173484715578"><ele>433.99999999999994</ele><time>2026-04-28T14:52:28.999Z</time></trkpt><trkpt lat="37.98791249538506" lon="15.365260899471394"><ele>431.0</ele><time>2026-04-28T14:52:30.999Z</time></trkpt><trkpt lat="37.987822871862704" lon="15.365313079897069"><ele>428.0</ele><time>2026-04-28T14:52:32.999Z</time></trkpt><trkpt lat="37.987728027373734" lon="15.365347848397937"><ele>427.99999999999994</ele><time>2026-04-28T14:52:34.999Z</time></trkpt><trkpt lat="37.9876840011391" lon="15.36540515138052"><ele>428.0</ele><time>2026-04-28T14:52:36.999Z</time></trkpt><trkpt lat="37.98759760449938" lon="15.365489822278564"><ele>428.0</ele><time>2026-04-28T14:52:37.999Z</time></trkpt><trkpt lat="37.98755902432441" lon="15.365556267583242"><ele>428.0</ele><time>2026-04-28T14:52:38.999Z</time></trkpt><trkpt lat="37.98751421735915" lon="15.36562338362461"><ele>427.99999999999994</ele><time>2026-04-28T14:52:39.999Z</time></trkpt><trkpt lat="37.987464679760784" lon="15.365700499315027"><ele>428.0</ele><time>2026-04-28T14:52:40.999Z</time></trkpt><trkpt lat="37.98741436402194" lon="15.365780478197621"><ele>424.99999999999994</ele><time>2026-04-28T14:52:41.999Z</time></trkpt><trkpt lat="37.98737429449577" lon="15.365848888058641"><ele>422.0</ele><time>2026-04-28T14:52:42.999Z</time></trkpt><trkpt lat="37.987346306629334" lon="15.365920874377583"><ele>419.0</ele><time>2026-04-28T14:52:43.999Z</time></trkpt><trkpt lat="37.98732386445575" lon="15.36600589553959"><ele>416.0</ele><time>2026-04-28T14:52:44.999Z</time></trkpt><trkpt lat="37.98729308141791" lon="15.366090206170567"><ele>412.99999999999994</ele><time>2026-04-28T14:52:45.999Z</time></trkpt><trkpt lat="37.98725791954152" lon="15.366181222286047"><ele>410.0</ele><time>2026-04-28T14:52:46.999Z</time></trkpt><trkpt lat="37.98721577989238" lon="15.366316023781627"><ele>408.0</ele><time>2026-04-28T14:52:48.999Z</time></trkpt><trkpt lat="37.987157215770395" lon="15.36642707880366"><ele>406.0</ele><time>2026-04-28T14:52:50.999Z</time></trkpt><trkpt lat="37.98711638131112" lon="15.36652208832996"><ele>404.0</ele><time>2026-04-28T14:52:52.999Z</time></trkpt><trkpt lat="37.987109419537326" lon="15.366628319889186"><ele>402.0</ele><time>2026-04-28T14:52:54.999Z</time></trkpt><trkpt lat="37.98713785670708" lon="15.36679745097056"><ele>400.0</ele><time>2026-04-28T14:52:56.999Z</time></trkpt><trkpt lat="37.987202660777754" lon="15.366929215612787"><ele>400.0</ele><time>2026-04-28T14:52:58.999Z</time></trkpt><trkpt lat="37.98726497564739" lon="15.367034612038868"><ele>400.0</ele><time>2026-04-28T14:53:00.999Z</time></trkpt><trkpt lat="37.98730264613082" lon="15.367102558691025"><ele>400.0</ele><time>2026-04-28T14:53:02.999Z</time></trkpt><trkpt lat="37.98738745587353" lon="15.367065841755398"><ele>400.0</ele><time>2026-04-28T14:53:04.999Z</time></trkpt><trkpt lat="37.98748767846897" lon="15.36704684676123"><ele>400.0</ele><time>2026-04-28T14:53:07.999Z</time></trkpt><trkpt lat="37.987414812611156" lon="15.367200852889358"><ele>396.2</ele><time>2026-04-28T14:53:12.999Z</time></trkpt><trkpt lat="37.987348557901036" lon="15.36725344757002"><ele>392.4</ele><time>2026-04-28T14:53:13.999Z</time></trkpt><trkpt lat="37.98725190648572" lon="15.367340508987816"><ele>388.6</ele><time>2026-04-28T14:53:15.999Z</time></trkpt><trkpt lat="37.98717388159372" lon="15.367451870157344"><ele>384.8</ele><time>2026-04-28T14:53:17.999Z</time></trkpt><trkpt lat="37.987117244137174" lon="15.36755843117913"><ele>381.0</ele><time>2026-04-28T14:53:18.999Z</time></trkpt><trkpt lat="37.98706967985595" lon="15.367681636867395"><ele>381.0</ele><time>2026-04-28T14:53:19.999Z</time></trkpt><trkpt lat="37.98703578162506" lon="15.367800043930135"><ele>381.0</ele><time>2026-04-28T14:53:20.999Z</time></trkpt><trkpt lat="37.987006435513244" lon="15.367898511162373"><ele>381.0</ele><time>2026-04-28T14:53:21.999Z</time></trkpt><trkpt lat="37.98697202969525" lon="15.36799150617873"><ele>381.0</ele><time>2026-04-28T14:53:22.999Z</time></trkpt><trkpt lat="37.98693928339079" lon="15.36807311755226"><ele>381.0</ele><time>2026-04-28T14:53:23.999Z</time></trkpt><trkpt lat="37.986899712036326" lon="15.36814990676173"><ele>381.0</ele><time>2026-04-28T14:53:24.999Z</time></trkpt><trkpt lat="37.98685766017157" lon="15.368223266690611"><ele>378.8333333333333</ele><time>2026-04-28T14:53:25.999Z</time></trkpt><trkpt lat="37.98681804616983" lon="15.368306117253608"><ele>376.6666666666667</ele><time>2026-04-28T14:53:26.999Z</time></trkpt><trkpt lat="37.986787404623264" lon="15.368387427518858"><ele>374.5</ele><time>2026-04-28T14:53:27.999Z</time></trkpt><trkpt lat="37.986766439660336" lon="15.368465823332132"><ele>372.33333333333337</ele><time>2026-04-28T14:53:28.999Z</time></trkpt><trkpt lat="37.98674196425892" lon="15.368617464355845"><ele>370.1666666666667</ele><time>2026-04-28T14:53:30.999Z</time></trkpt><trkpt lat="37.98669881927398" lon="15.368720674008712"><ele>368.0</ele><time>2026-04-28T14:53:33Z</time></trkpt><trkpt lat="37.98659686359845" lon="15.368823818073148"><ele>368.1666666666667</ele><time>2026-04-28T14:53:35Z</time></trkpt><trkpt lat="37.98654341064142" lon="15.368868459754253"><ele>368.33333333333337</ele><time>2026-04-28T14:53:36Z</time></trkpt><trkpt lat="37.98647344648608" lon="15.368914526041412"><ele>368.5</ele><time>2026-04-28T14:53:37Z</time></trkpt><trkpt lat="37.9863943403182" lon="15.368974384236777"><ele>368.6666666666667</ele><time>2026-04-28T14:53:38Z</time></trkpt><trkpt lat="37.98632374004625" lon="15.3690232839494"><ele>368.8333333333333</ele><time>2026-04-28T14:53:39Z</time></trkpt><trkpt lat="37.986221136262316" lon="15.36908049674414"><ele>369.0</ele><time>2026-04-28T14:53:41Z</time></trkpt><trkpt lat="37.98612265539211" lon="15.369192631995666"><ele>369.0</ele><time>2026-04-28T14:53:43Z</time></trkpt><trkpt lat="37.98607012069014" lon="15.369277526938799"><ele>369.0</ele><time>2026-04-28T14:53:44Z</time></trkpt><trkpt lat="37.985983620888305" lon="15.369371307579934"><ele>369.0</ele><time>2026-04-28T14:53:46Z</time></trkpt><trkpt lat="37.985892292571144" lon="15.369451932695672"><ele>369.0</ele><time>2026-04-28T14:53:48Z</time></trkpt><trkpt lat="37.985828498425874" lon="15.369518684080031"><ele>369.0</ele><time>2026-04-28T14:53:50Z</time></trkpt><trkpt lat="37.985747474572655" lon="15.369524582327832"><ele>367.2</ele><time>2026-04-28T14:53:52Z</time></trkpt><trkpt lat="37.985629338258285" lon="15.369510173140561"><ele>365.4</ele><time>2026-04-28T14:53:54Z</time></trkpt><trkpt lat="37.985519025792655" lon="15.369561957041768"><ele>363.6</ele><time>2026-04-28T14:53:56Z</time></trkpt><trkpt lat="37.98547555158341" lon="15.369638874801742"><ele>361.8</ele><time>2026-04-28T14:53:57Z</time></trkpt><trkpt lat="37.98544422321692" lon="15.369741455650333"><ele>360.0</ele><time>2026-04-28T14:53:58Z</time></trkpt><trkpt lat="37.98540892649541" lon="15.369846139474475"><ele>360.0</ele><time>2026-04-28T14:53:59Z</time></trkpt><trkpt lat="37.98537564199946" lon="15.369934934544572"><ele>360.0</ele><time>2026-04-28T14:54:00Z</time></trkpt><trkpt lat="37.985352150272284" lon="15.370024383519938"><ele>360.0</ele><time>2026-04-28T14:54:01Z</time></trkpt><trkpt lat="37.98534336394213" lon="15.37019136724475"><ele>360.0</ele><time>2026-04-28T14:54:03Z</time></trkpt><trkpt lat="37.98532573884802" lon="15.370299775174832"><ele>360.0</ele><time>2026-04-28T14:54:05Z</time></trkpt><trkpt lat="37.98526910913309" lon="15.37039546356383"><ele>360.0</ele><time>2026-04-28T14:54:08Z</time></trkpt><trkpt lat="37.985186708210094" lon="15.370493142525682"><ele>360.0</ele><time>2026-04-28T14:54:10Z</time></trkpt><trkpt lat="37.98513618244467" lon="15.370559987131026"><ele>360.0</ele><time>2026-04-28T14:54:11Z</time></trkpt><trkpt lat="37.985085265833646" lon="15.370636809418608"><ele>360.0</ele><time>2026-04-28T14:54:12Z</time></trkpt><trkpt lat="37.98504250919027" lon="15.370710152488199"><ele>360.0</ele><time>2026-04-28T14:54:13Z</time></trkpt><trkpt lat="37.98502351300404" lon="15.370791843577468"><ele>360.0</ele><time>2026-04-28T14:54:14Z</time></trkpt><trkpt lat="37.98503744629279" lon="15.370886579059396"><ele>357.8333333333333</ele><time>2026-04-28T14:54:15Z</time></trkpt><trkpt lat="37.98505647246066" lon="15.37099092983825"><ele>355.6666666666667</ele><time>2026-04-28T14:54:16Z</time></trkpt><trkpt lat="37.98507197198195" lon="15.371071059200293"><ele>353.5</ele><time>2026-04-28T14:54:17Z</time></trkpt><trkpt lat="37.985082002111454" lon="15.371182164421414"><ele>351.33333333333337</ele><time>2026-04-28T14:54:19Z</time></trkpt><trkpt lat="37.98499058104011" lon="15.371188597951084"><ele>349.1666666666667</ele><time>2026-04-28T14:54:22Z</time></trkpt><trkpt lat="37.984912350896316" lon="15.371134109445324"><ele>347.0</ele><time>2026-04-28T14:54:23.999Z</time></trkpt><trkpt lat="37.98485147544404" lon="15.371186338461525"><ele>345.8</ele><time>2026-04-28T14:54:25.999Z</time></trkpt><trkpt lat="37.98486662720435" lon="15.371282727755224"><ele>344.6</ele><time>2026-04-28T14:54:27.999Z</time></trkpt><trkpt lat="37.98493085116451" lon="15.371333411321668"><ele>343.40000000000003</ele><time>2026-04-28T14:54:29.999Z</time></trkpt><trkpt lat="37.98495982286369" lon="15.371418497756217"><ele>342.20000000000005</ele><time>2026-04-28T14:54:33.999Z</time></trkpt><trkpt lat="37.98500430583992" lon="15.371478791592486"><ele>341.0</ele><time>2026-04-28T14:54:38.999Z</time></trkpt><trkpt lat="37.98490688068775" lon="15.37131567140241"><ele>341.0</ele><time>2026-04-28T14:54:55.999Z</time></trkpt><trkpt lat="37.9848287177746" lon="15.371211512414988"><ele>341.0</ele><time>2026-04-28T14:54:57.999Z</time></trkpt><trkpt lat="37.9848932407482" lon="15.371071438072375"><ele>341.0</ele><time>2026-04-28T14:55:01.999Z</time></trkpt><trkpt lat="37.98492507105893" lon="15.370977920597227"><ele>341.0</ele><time>2026-04-28T14:55:02.999Z</time></trkpt><trkpt lat="37.98488002690661" lon="15.370846006231158"><ele>341.0</ele><time>2026-04-28T14:55:04.999Z</time></trkpt><trkpt lat="37.98485410753491" lon="15.370733274391686"><ele>341.0</ele><time>2026-04-28T14:55:06.999Z</time></trkpt><trkpt lat="37.984807533477" lon="15.37061033929891"><ele>341.0</ele><time>2026-04-28T14:55:08.999Z</time></trkpt><trkpt lat="37.984727598854285" lon="15.370504702487246"><ele>341.0</ele><time>2026-04-28T14:55:10.999Z</time></trkpt><trkpt lat="37.98466371872713" lon="15.370477581235937"><ele>341.0</ele><time>2026-04-28T14:55:11.999Z</time></trkpt><trkpt lat="37.984567322233744" lon="15.370437812949538"><ele>341.0</ele><time>2026-04-28T14:55:12.999Z</time></trkpt><trkpt lat="37.98448260959365" lon="15.370404854311836"><ele>340.20000000000005</ele><time>2026-04-28T14:55:13.999Z</time></trkpt><trkpt lat="37.98440041100251" lon="15.370371044707275"><ele>339.40000000000003</ele><time>2026-04-28T14:55:14.999Z</time></trkpt><trkpt lat="37.98432662952935" lon="15.370348194788985"><ele>338.6</ele><time>2026-04-28T14:55:15.999Z</time></trkpt><trkpt lat="37.98421869511619" lon="15.370328519457358"><ele>337.8</ele><time>2026-04-28T14:55:17.999Z</time></trkpt><trkpt lat="37.98415580881702" lon="15.370204475306558"><ele>337.0</ele><time>2026-04-28T14:55:19.999Z</time></trkpt><trkpt lat="37.984177366107595" lon="15.370127882443908"><ele>337.0</ele><time>2026-04-28T14:55:21.999Z</time></trkpt><trkpt lat="37.98425012381869" lon="15.370051680115758"><ele>337.0</ele><time>2026-04-28T14:55:23.999Z</time></trkpt><trkpt lat="37.98434406730846" lon="15.369991446635503"><ele>337.0</ele><time>2026-04-28T14:55:24.999Z</time></trkpt><trkpt lat="37.98444234335326" lon="15.369933950231216"><ele>337.0</ele><time>2026-04-28T14:55:25.999Z</time></trkpt><trkpt lat="37.98453311119059" lon="15.369860979848978"><ele>337.0</ele><time>2026-04-28T14:55:26.999Z</time></trkpt><trkpt lat="37.9846123531651" lon="15.369784140824528"><ele>337.0</ele><time>2026-04-28T14:55:27.999Z</time></trkpt><trkpt lat="37.984687412113985" lon="15.369701772962033"><ele>337.0</ele><time>2026-04-28T14:55:28.999Z</time></trkpt><trkpt lat="37.98476832984175" lon="15.369633020841285"><ele>337.0</ele><time>2026-04-28T14:55:29.999Z</time></trkpt><trkpt lat="37.9848584161485" lon="15.369557480186497"><ele>337.0</ele><time>2026-04-28T14:55:30.999Z</time></trkpt><trkpt lat="37.98494264236373" lon="15.369475067932417"><ele>337.0</ele><time>2026-04-28T14:55:31.999Z</time></trkpt><trkpt lat="37.985010108491096" lon="15.369488969725426"><ele>333.8</ele><time>2026-04-28T14:55:32.999Z</time></trkpt><trkpt lat="37.98504744334165" lon="15.369406751195811"><ele>330.6</ele><time>2026-04-28T14:55:33.999Z</time></trkpt><trkpt lat="37.98497093606624" lon="15.369485690428824"><ele>327.40000000000003</ele><time>2026-04-28T14:55:49Z</time></trkpt><trkpt lat="37.98486436427946" lon="15.369510908818167"><ele>324.20000000000005</ele><time>2026-04-28T14:55:50Z</time></trkpt><trkpt lat="37.984769652749634" lon="15.369551120919391"><ele>321.0</ele><time>2026-04-28T14:55:51Z</time></trkpt><trkpt lat="37.98467605748991" lon="15.369575281612171"><ele>321.0</ele><time>2026-04-28T14:55:52Z</time></trkpt><trkpt lat="37.984582973456085" lon="15.369598808670746"><ele>321.0</ele><time>2026-04-28T14:55:53Z</time></trkpt><trkpt lat="37.98449185912505" lon="15.369625414927576"><ele>321.0</ele><time>2026-04-28T14:55:54Z</time></trkpt><trkpt lat="37.98439632641006" lon="15.369670352678972"><ele>321.0</ele><time>2026-04-28T14:55:55Z</time></trkpt><trkpt lat="37.98429111898215" lon="15.369709115584318"><ele>321.0</ele><time>2026-04-28T14:55:56Z</time></trkpt><trkpt lat="37.98419679483263" lon="15.369753356986095"><ele>320.0</ele><time>2026-04-28T14:55:57Z</time></trkpt><trkpt lat="37.984102735684715" lon="15.369789888322472"><ele>319.0</ele><time>2026-04-28T14:55:58Z</time></trkpt><trkpt lat="37.98401622214378" lon="15.369808276327257"><ele>318.0</ele><time>2026-04-28T14:55:59Z</time></trkpt><trkpt lat="37.98394318606341" lon="15.369820099707923"><ele>317.0</ele><time>2026-04-28T14:56:00Z</time></trkpt><trkpt lat="37.9838685559923" lon="15.369844129098254"><ele>316.0</ele><time>2026-04-28T14:56:01Z</time></trkpt><trkpt lat="37.98375686638827" lon="15.36990497621687"><ele>316.0</ele><time>2026-04-28T14:56:02Z</time></trkpt><trkpt lat="37.9836718731342" lon="15.369956060677003"><ele>316.0</ele><time>2026-04-28T14:56:03Z</time></trkpt><trkpt lat="37.983602029806114" lon="15.36996390878165"><ele>316.0</ele><time>2026-04-28T14:56:04Z</time></trkpt><trkpt lat="37.98353879114625" lon="15.369979341932224"><ele>316.0</ele><time>2026-04-28T14:56:05Z</time></trkpt><trkpt lat="37.9834486878442" lon="15.369969805683436"><ele>316.0</ele><time>2026-04-28T14:56:07Z</time></trkpt><trkpt lat="37.98344443953728" lon="15.369881319683726"><ele>316.0</ele><time>2026-04-28T14:56:10Z</time></trkpt><trkpt lat="37.98351855037889" lon="15.369812338232569"><ele>316.0</ele><time>2026-04-28T14:56:11Z</time></trkpt><trkpt lat="37.983595936270675" lon="15.369730878462667"><ele>316.0</ele><time>2026-04-28T14:56:12Z</time></trkpt><trkpt lat="37.98363963218854" lon="15.369624462699235"><ele>316.0</ele><time>2026-04-28T14:56:14Z</time></trkpt><trkpt lat="37.983554501792135" lon="15.369515728556253"><ele>316.0</ele><time>2026-04-28T14:56:16Z</time></trkpt><trkpt lat="37.98347272851122" lon="15.36948772668374"><ele>316.0</ele><time>2026-04-28T14:56:17Z</time></trkpt><trkpt lat="37.98335953273214" lon="15.369477928021098"><ele>307.2</ele><time>2026-04-28T14:56:18Z</time></trkpt><trkpt lat="37.98326983583514" lon="15.369455229867938"><ele>298.40000000000003</ele><time>2026-04-28T14:56:19Z</time></trkpt><trkpt lat="37.9831557209369" lon="15.369351844368719"><ele>289.6</ele><time>2026-04-28T14:56:20Z</time></trkpt><trkpt lat="37.98304860750723" lon="15.369389085656115"><ele>280.8</ele><time>2026-04-28T14:56:22Z</time></trkpt><trkpt lat="37.9829978711355" lon="15.369330078487726"><ele>272.0</ele><time>2026-04-28T14:56:23.999Z</time></trkpt><trkpt lat="37.98308368684384" lon="15.369186644766003"><ele>272.0</ele><time>2026-04-28T14:56:25.999Z</time></trkpt><trkpt lat="37.98313109080667" lon="15.369064353673135"><ele>272.0</ele><time>2026-04-28T14:56:26.999Z</time></trkpt><trkpt lat="37.983154896338014" lon="15.368978338149613"><ele>272.0</ele><time>2026-04-28T14:56:27.999Z</time></trkpt><trkpt lat="37.98318457899048" lon="15.368867555634223"><ele>272.0</ele><time>2026-04-28T14:56:28.999Z</time></trkpt><trkpt lat="37.98320829620747" lon="15.368733549936112"><ele>272.0</ele><time>2026-04-28T14:56:29.999Z</time></trkpt><trkpt lat="37.98321540689875" lon="15.36860376086631"><ele>269.0</ele><time>2026-04-28T14:56:30.999Z</time></trkpt><trkpt lat="37.98323295430648" lon="15.368474185178023"><ele>266.0</ele><time>2026-04-28T14:56:31.999Z</time></trkpt><trkpt lat="37.983251857031775" lon="15.368338926411976"><ele>263.0</ele><time>2026-04-28T14:56:32.999Z</time></trkpt><trkpt lat="37.98328521941463" lon="15.368219393265631"><ele>260.0</ele><time>2026-04-28T14:56:33.999Z</time></trkpt><trkpt lat="37.9833116006965" lon="15.368109158929537"><ele>257.0</ele><time>2026-04-28T14:56:34.999Z</time></trkpt><trkpt lat="37.983334759477984" lon="15.36803169989561"><ele>259.6</ele><time>2026-04-28T14:56:35.999Z</time></trkpt><trkpt lat="37.983379918154505" lon="15.367955235157586"><ele>262.2</ele><time>2026-04-28T14:56:36.999Z</time></trkpt><trkpt lat="37.98345607993377" lon="15.367885012669998"><ele>264.8</ele><time>2026-04-28T14:56:37.999Z</time></trkpt><trkpt lat="37.983534029274225" lon="15.367773512816816"><ele>267.4</ele><time>2026-04-28T14:56:38.999Z</time></trkpt><trkpt lat="37.983581660039206" lon="15.367670468096735"><ele>270.0</ele><time>2026-04-28T14:56:39.999Z</time></trkpt><trkpt lat="37.98361883851581" lon="15.367575584339708"><ele>270.0</ele><time>2026-04-28T14:56:40.999Z</time></trkpt><trkpt lat="37.98368252671062" lon="15.36748718166756"><ele>270.0</ele><time>2026-04-28T14:56:42.999Z</time></trkpt><trkpt lat="37.983749276151954" lon="15.367463880496246"><ele>270.0</ele><time>2026-04-28T14:56:43.999Z</time></trkpt><trkpt lat="37.98381567002952" lon="15.367441655880887"><ele>270.0</ele><time>2026-04-28T14:56:44.999Z</time></trkpt><trkpt lat="37.98386799218982" lon="15.367380698964178"><ele>270.0</ele><time>2026-04-28T14:56:45.999Z</time></trkpt><trkpt lat="37.98387967923573" lon="15.367280181536223"><ele>270.0</ele><time>2026-04-28T14:56:46.999Z</time></trkpt><trkpt lat="37.98388672664032" lon="15.367150860944145"><ele>267.0</ele><time>2026-04-28T14:56:47.999Z</time></trkpt><trkpt lat="37.98390788817157" lon="15.366999841295977"><ele>264.0</ele><time>2026-04-28T14:56:48.999Z</time></trkpt><trkpt lat="37.983932481555186" lon="15.366861356527945"><ele>261.0</ele><time>2026-04-28T14:56:49.999Z</time></trkpt><trkpt lat="37.98395873909463" lon="15.366706903116032"><ele>258.0</ele><time>2026-04-28T14:56:50.999Z</time></trkpt><trkpt lat="37.9839883322471" lon="15.366574691222844"><ele>258.0</ele><time>2026-04-28T14:56:51.999Z</time></trkpt><trkpt lat="37.98400400114296" lon="15.366460539490534"><ele>258.0</ele><time>2026-04-28T14:56:52.999Z</time></trkpt><trkpt lat="37.98403256841779" lon="15.366358354216475"><ele>258.0</ele><time>2026-04-28T14:56:53.999Z</time></trkpt><trkpt lat="37.98407716763885" lon="15.366254569782276"><ele>258.0</ele><time>2026-04-28T14:56:54.999Z</time></trkpt><trkpt lat="37.984129948569084" lon="15.366143143867186"><ele>258.0</ele><time>2026-04-28T14:56:55.999Z</time></trkpt><trkpt lat="37.98413789018122" lon="15.366063543514736"><ele>258.0</ele><time>2026-04-28T14:56:56.999Z</time></trkpt><trkpt lat="37.98411809660535" lon="15.365953273737356"><ele>255.33333333333334</ele><time>2026-04-28T14:56:57.999Z</time></trkpt><trkpt lat="37.98409904738685" lon="15.365840335243965"><ele>252.66666666666669</ele><time>2026-04-28T14:56:58.999Z</time></trkpt><trkpt lat="37.98410570031589" lon="15.365741682895553"><ele>250.0</ele><time>2026-04-28T14:56:59.999Z</time></trkpt><trkpt lat="37.984125001492856" lon="15.36565098685199"><ele>247.33333333333334</ele><time>2026-04-28T14:57:00.999Z</time></trkpt><trkpt lat="37.98414841570194" lon="15.365553326568651"><ele>244.66666666666669</ele><time>2026-04-28T14:57:01.999Z</time></trkpt><trkpt lat="37.984151685643496" lon="15.365453768807557"><ele>242.0</ele><time>2026-04-28T14:57:02.999Z</time></trkpt><trkpt lat="37.98414307066247" lon="15.365371791995273"><ele>239.8</ele><time>2026-04-28T14:57:03.999Z</time></trkpt><trkpt lat="37.98414161699881" lon="15.365243432888786"><ele>237.6</ele><time>2026-04-28T14:57:05.999Z</time></trkpt><trkpt lat="37.98418170105641" lon="15.365128943751401"><ele>235.40000000000003</ele><time>2026-04-28T14:57:06.999Z</time></trkpt><trkpt lat="37.98421659787716" lon="15.365011725800194"><ele>233.20000000000002</ele><time>2026-04-28T14:57:07.999Z</time></trkpt><trkpt lat="37.9842635451792" lon="15.36490989623618"><ele>231.0</ele><time>2026-04-28T14:57:08.999Z</time></trkpt><trkpt lat="37.984268626751486" lon="15.364773898309597"><ele>229.5</ele><time>2026-04-28T14:57:10.999Z</time></trkpt><trkpt lat="37.9842281050045" lon="15.36467206464135"><ele>228.0</ele><time>2026-04-28T14:57:11.999Z</time></trkpt><trkpt lat="37.98415249043817" lon="15.364561108115621"><ele>226.5</ele><time>2026-04-28T14:57:12.999Z</time></trkpt><trkpt lat="37.984109761749565" lon="15.364470001412231"><ele>225.0</ele><time>2026-04-28T14:57:13.999Z</time></trkpt><trkpt lat="37.98408217205651" lon="15.36437202994397"><ele>223.5</ele><time>2026-04-28T14:57:14.999Z</time></trkpt><trkpt lat="37.98404712506237" lon="15.36428426728618"><ele>222.0</ele><time>2026-04-28T14:57:15.999Z</time></trkpt><trkpt lat="37.98400940037729" lon="15.364193765414965"><ele>222.0</ele><time>2026-04-28T14:57:16.999Z</time></trkpt><trkpt lat="37.9839772889502" lon="15.36410717420294"><ele>222.0</ele><time>2026-04-28T14:57:17.999Z</time></trkpt><trkpt lat="37.98396717744317" lon="15.364013020437422"><ele>222.0</ele><time>2026-04-28T14:57:18.999Z</time></trkpt><trkpt lat="37.98395852264624" lon="15.363914247887672"><ele>222.0</ele><time>2026-04-28T14:57:19.999Z</time></trkpt><trkpt lat="37.98397264940128" lon="15.363802436047585"><ele>222.0</ele><time>2026-04-28T14:57:20.999Z</time></trkpt><trkpt lat="37.98398163167169" lon="15.363684648658563"><ele>222.0</ele><time>2026-04-28T14:57:21.999Z</time></trkpt><trkpt lat="37.983987662073154" lon="15.363570109344508"><ele>219.83333333333334</ele><time>2026-04-28T14:57:22.999Z</time></trkpt><trkpt lat="37.98397858402164" lon="15.363476337799643"><ele>217.66666666666669</ele><time>2026-04-28T14:57:23.999Z</time></trkpt><trkpt lat="37.9839651155252" lon="15.363376138371551"><ele>215.5</ele><time>2026-04-28T14:57:24.999Z</time></trkpt><trkpt lat="37.98395703286446" lon="15.363286575561537"><ele>213.33333333333334</ele><time>2026-04-28T14:57:25.999Z</time></trkpt><trkpt lat="37.98394756108944" lon="15.36315703148094"><ele>211.16666666666669</ele><time>2026-04-28T14:57:27.999Z</time></trkpt><trkpt lat="37.983998190551645" lon="15.363058803430295"><ele>209.0</ele><time>2026-04-28T14:57:29.999Z</time></trkpt><trkpt lat="37.98406670556165" lon="15.362993363932484"><ele>210.50000000000003</ele><time>2026-04-28T14:57:30.999Z</time></trkpt><trkpt lat="37.9841298164613" lon="15.362929749996727"><ele>212.0</ele><time>2026-04-28T14:57:31.999Z</time></trkpt><trkpt lat="37.98417952888918" lon="15.362838616884584"><ele>213.5</ele><time>2026-04-28T14:57:32.999Z</time></trkpt><trkpt lat="37.98422956560158" lon="15.362749443932866"><ele>215.0</ele><time>2026-04-28T14:57:33.999Z</time></trkpt><trkpt lat="37.98427109245542" lon="15.36265073968959"><ele>216.50000000000003</ele><time>2026-04-28T14:57:34.999Z</time></trkpt><trkpt lat="37.98431495347687" lon="15.362570253225146"><ele>218.0</ele><time>2026-04-28T14:57:35.999Z</time></trkpt><trkpt lat="37.98437644755525" lon="15.362494363884265"><ele>218.00000000000003</ele><time>2026-04-28T14:57:36.999Z</time></trkpt><trkpt lat="37.98444516542514" lon="15.362424379914334"><ele>218.0</ele><time>2026-04-28T14:57:37.999Z</time></trkpt><trkpt lat="37.98450547165714" lon="15.362363834772015"><ele>218.0</ele><time>2026-04-28T14:57:38.999Z</time></trkpt><trkpt lat="37.984547236081404" lon="15.362301976129825"><ele>218.0</ele><time>2026-04-28T14:57:39.999Z</time></trkpt><trkpt lat="37.98457926233804" lon="15.362197194944011"><ele>218.00000000000003</ele><time>2026-04-28T14:57:41.999Z</time></trkpt><trkpt lat="37.984619422584544" lon="15.362116066466198"><ele>218.0</ele><time>2026-04-28T14:57:42.999Z</time></trkpt><trkpt lat="37.984677341428764" lon="15.36201193290665"><ele>213.16666666666669</ele><time>2026-04-28T14:57:45Z</time></trkpt><trkpt lat="37.98469209002032" lon="15.361927147400701"><ele>208.33333333333334</ele><time>2026-04-28T14:57:47Z</time></trkpt><trkpt lat="37.98475440949015" lon="15.361846267524248"><ele>203.5</ele><time>2026-04-28T14:57:51Z</time></trkpt><trkpt lat="37.984818012295676" lon="15.361811610588655"><ele>198.66666666666669</ele><time>2026-04-28T14:57:53Z</time></trkpt><trkpt lat="37.98485665998285" lon="15.361728079308422"><ele>193.83333333333334</ele><time>2026-04-28T14:57:55Z</time></trkpt><trkpt lat="37.98493007678272" lon="15.361615463692619"><ele>189.0</ele><time>2026-04-28T14:57:57Z</time></trkpt><trkpt lat="37.98497860412546" lon="15.36155622699869"><ele>191.39999999999998</ele><time>2026-04-28T14:57:58Z</time></trkpt><trkpt lat="37.98506404825276" lon="15.361444885590213"><ele>193.8</ele><time>2026-04-28T14:58:00Z</time></trkpt><trkpt lat="37.98514337839123" lon="15.36135488199653"><ele>196.2</ele><time>2026-04-28T14:58:02Z</time></trkpt><trkpt lat="37.9852229691511" lon="15.361241869527813"><ele>198.60000000000002</ele><time>2026-04-28T14:58:04Z</time></trkpt><trkpt lat="37.98526638917373" lon="15.361182400253247"><ele>201.0</ele><time>2026-04-28T14:58:05Z</time></trkpt><trkpt lat="37.98531353318149" lon="15.361119805867132"><ele>201.0</ele><time>2026-04-28T14:58:06Z</time></trkpt><trkpt lat="37.98535766248848" lon="15.361058123609032"><ele>201.0</ele><time>2026-04-28T14:58:07Z</time></trkpt><trkpt lat="37.985479367513584" lon="15.360977497755815"><ele>201.0</ele><time>2026-04-28T14:58:09Z</time></trkpt><trkpt lat="37.985544447002404" lon="15.360922094451933"><ele>201.0</ele><time>2026-04-28T14:58:10Z</time></trkpt><trkpt lat="37.98560516505454" lon="15.360886977281023"><ele>201.0</ele><time>2026-04-28T14:58:11Z</time></trkpt><trkpt lat="37.9856718713658" lon="15.360801243892164"><ele>201.0</ele><time>2026-04-28T14:58:13Z</time></trkpt><trkpt lat="37.98573588355088" lon="15.36072952999318"><ele>201.0</ele><time>2026-04-28T14:58:15Z</time></trkpt><trkpt lat="37.98578677474608" lon="15.360671723685078"><ele>201.0</ele><time>2026-04-28T14:58:16Z</time></trkpt><trkpt lat="37.985835604212625" lon="15.360618050082715"><ele>201.0</ele><time>2026-04-28T14:58:17Z</time></trkpt><trkpt lat="37.98588771290824" lon="15.360552006844811"><ele>201.0</ele><time>2026-04-28T14:58:18Z</time></trkpt><trkpt lat="37.98593252954195" lon="15.36047841536879"><ele>201.0</ele><time>2026-04-28T14:58:19Z</time></trkpt><trkpt lat="37.98598167818603" lon="15.36040665478102"><ele>201.0</ele><time>2026-04-28T14:58:20Z</time></trkpt><trkpt lat="37.98603343607232" lon="15.360328393572763"><ele>201.0</ele><time>2026-04-28T14:58:21Z</time></trkpt><trkpt lat="37.98608868944919" lon="15.360255804348359"><ele>200.83333333333334</ele><time>2026-04-28T14:58:22Z</time></trkpt><trkpt lat="37.98614700395434" lon="15.360198344770346"><ele>200.66666666666669</ele><time>2026-04-28T14:58:23Z</time></trkpt><trkpt lat="37.98620418827374" lon="15.360153332061044"><ele>200.5</ele><time>2026-04-28T14:58:24Z</time></trkpt><trkpt lat="37.98626839973241" lon="15.360128282352543"><ele>200.33333333333334</ele><time>2026-04-28T14:58:25Z</time></trkpt><trkpt lat="37.98633435743074" lon="15.360124443188367"><ele>200.16666666666669</ele><time>2026-04-28T14:58:25.999Z</time></trkpt><trkpt lat="37.9863963659923" lon="15.360141888423769"><ele>200.0</ele><time>2026-04-28T14:58:26.999Z</time></trkpt><trkpt lat="37.98651459728124" lon="15.360174005985533"><ele>200.0</ele><time>2026-04-28T14:58:28.999Z</time></trkpt><trkpt lat="37.98657396212536" lon="15.360116992592154"><ele>200.0</ele><time>2026-04-28T14:58:29.999Z</time></trkpt><trkpt lat="37.986618745858465" lon="15.360021104876312"><ele>200.0</ele><time>2026-04-28T14:58:30.999Z</time></trkpt><trkpt lat="37.98663710360949" lon="15.35990353799923"><ele>200.0</ele><time>2026-04-28T14:58:31.999Z</time></trkpt><trkpt lat="37.98663663748335" lon="15.359770346854408"><ele>200.0</ele><time>2026-04-28T14:58:32.999Z</time></trkpt><trkpt lat="37.986617141602004" lon="15.35963074264723"><ele>200.6</ele><time>2026-04-28T14:58:33.999Z</time></trkpt><trkpt lat="37.98660573848346" lon="15.359492548547712"><ele>201.2</ele><time>2026-04-28T14:58:34.999Z</time></trkpt><trkpt lat="37.98660047811225" lon="15.359349727172075"><ele>201.8</ele><time>2026-04-28T14:58:35.999Z</time></trkpt><trkpt lat="37.98659242902593" lon="15.359212075460968"><ele>202.4</ele><time>2026-04-28T14:58:36.999Z</time></trkpt><trkpt lat="37.9865854310626" lon="15.359093528653972"><ele>203.0</ele><time>2026-04-28T14:58:37.999Z</time></trkpt><trkpt lat="37.98659472216851" lon="15.35900705736417"><ele>203.00000000000003</ele><time>2026-04-28T14:58:38.999Z</time></trkpt><trkpt lat="37.98659275642254" lon="15.358900064268992"><ele>203.0</ele><time>2026-04-28T14:58:40.999Z</time></trkpt><trkpt lat="37.98659656290996" lon="15.358804789494181"><ele>203.0</ele><time>2026-04-28T14:58:41.999Z</time></trkpt><trkpt lat="37.98660187110886" lon="15.358682056771142"><ele>203.0</ele><time>2026-04-28T14:58:42.999Z</time></trkpt><trkpt lat="37.98660109777179" lon="15.358567754795288"><ele>203.00000000000003</ele><time>2026-04-28T14:58:43.999Z</time></trkpt><trkpt lat="37.98661075550131" lon="15.35846676526316"><ele>203.0</ele><time>2026-04-28T14:58:44.999Z</time></trkpt><trkpt lat="37.98662367020831" lon="15.358377642080175"><ele>207.0</ele><time>2026-04-28T14:58:45.999Z</time></trkpt><trkpt lat="37.98671247359975" lon="15.358282649894546"><ele>211.0</ele><time>2026-04-28T14:58:47.999Z</time></trkpt><trkpt lat="37.98678234005013" lon="15.358253591224356"><ele>215.0</ele><time>2026-04-28T14:58:48.999Z</time></trkpt><trkpt lat="37.986876261007744" lon="15.358189599636155"><ele>219.0</ele><time>2026-04-28T14:58:49.999Z</time></trkpt><trkpt lat="37.9869631888642" lon="15.358125988352656"><ele>223.0</ele><time>2026-04-28T14:58:50.999Z</time></trkpt><trkpt lat="37.98705410242319" lon="15.358085838639832"><ele>223.0</ele><time>2026-04-28T14:58:51.999Z</time></trkpt><trkpt lat="37.987146226856645" lon="15.358080745151488"><ele>223.0</ele><time>2026-04-28T14:58:52.999Z</time></trkpt><trkpt lat="37.987270007886316" lon="15.358084862646331"><ele>223.0</ele><time>2026-04-28T14:58:53.999Z</time></trkpt><trkpt lat="37.987368267797166" lon="15.358057784768615"><ele>223.0</ele><time>2026-04-28T14:58:54.999Z</time></trkpt><trkpt lat="37.98745816297549" lon="15.35799332757428"><ele>223.0</ele><time>2026-04-28T14:58:55.999Z</time></trkpt><trkpt lat="37.987521279045836" lon="15.357911898721031"><ele>222.4</ele><time>2026-04-28T14:58:56.999Z</time></trkpt><trkpt lat="37.98754098497737" lon="15.357800764167239"><ele>221.8</ele><time>2026-04-28T14:58:57.999Z</time></trkpt><trkpt lat="37.987547465648866" lon="15.357655636297185"><ele>221.2</ele><time>2026-04-28T14:58:58.999Z</time></trkpt><trkpt lat="37.987567932723714" lon="15.357527675844146"><ele>220.6</ele><time>2026-04-28T14:58:59.999Z</time></trkpt><trkpt lat="37.987584731483295" lon="15.357421705586415"><ele>220.0</ele><time>2026-04-28T14:59:00.999Z</time></trkpt><trkpt lat="37.987604553198466" lon="15.357326346876441"><ele>219.99999999999997</ele><time>2026-04-28T14:59:01.999Z</time></trkpt><trkpt lat="37.98759342688216" lon="15.357225158942914"><ele>220.0</ele><time>2026-04-28T14:59:02.999Z</time></trkpt><trkpt lat="37.987549382519056" lon="15.357131671983373"><ele>220.0</ele><time>2026-04-28T14:59:03.999Z</time></trkpt><trkpt lat="37.98747237111432" lon="15.357057512091743"><ele>220.0</ele><time>2026-04-28T14:59:04.999Z</time></trkpt><trkpt lat="37.98738622157103" lon="15.357003883348876"><ele>219.99999999999997</ele><time>2026-04-28T14:59:05.999Z</time></trkpt><trkpt lat="37.987328180618974" lon="15.356943605431619"><ele>220.0</ele><time>2026-04-28T14:59:06.999Z</time></trkpt><trkpt lat="37.987318479632975" lon="15.3568580405818"><ele>218.0</ele><time>2026-04-28T14:59:07.999Z</time></trkpt><trkpt lat="37.987301977627695" lon="15.356774312607783"><ele>216.0</ele><time>2026-04-28T14:59:08.999Z</time></trkpt><trkpt lat="37.98733573326429" lon="15.356544755615587"><ele>214.0</ele><time>2026-04-28T14:59:09.999Z</time></trkpt><trkpt lat="37.98736174521429" lon="15.356411956417444"><ele>212.0</ele><time>2026-04-28T14:59:10.999Z</time></trkpt><trkpt lat="37.987396781465534" lon="15.356269252346934"><ele>212.0</ele><time>2026-04-28T14:59:11.999Z</time></trkpt><trkpt lat="37.987428251672306" lon="15.356070473038258"><ele>212.0</ele><time>2026-04-28T14:59:12.999Z</time></trkpt><trkpt lat="37.98743083573668" lon="15.355854978795492"><ele>212.0</ele><time>2026-04-28T14:59:13.999Z</time></trkpt><trkpt lat="37.98741050710131" lon="15.355665789461389"><ele>209.8</ele><time>2026-04-28T14:59:14.999Z</time></trkpt><trkpt lat="37.9874007454769" lon="15.355507526686539"><ele>207.6</ele><time>2026-04-28T14:59:15.999Z</time></trkpt><trkpt lat="37.98740177511614" lon="15.355374413690134"><ele>205.4</ele><time>2026-04-28T14:59:16.999Z</time></trkpt><trkpt lat="37.98743429128975" lon="15.355271398913548"><ele>203.20000000000002</ele><time>2026-04-28T14:59:17.999Z</time></trkpt><trkpt lat="37.98748838239607" lon="15.355205606773442"><ele>201.0</ele><time>2026-04-28T14:59:18.999Z</time></trkpt><trkpt lat="37.98756471463082" lon="15.35513454425843"><ele>210.25</ele><time>2026-04-28T14:59:19.999Z</time></trkpt><trkpt lat="37.98765014691724" lon="15.355067414970241"><ele>219.5</ele><time>2026-04-28T14:59:20.999Z</time></trkpt><trkpt lat="37.98775602654543" lon="15.355022901502803"><ele>228.75</ele><time>2026-04-28T14:59:21.999Z</time></trkpt><trkpt lat="37.987888765919635" lon="15.354983708875507"><ele>238.0</ele><time>2026-04-28T14:59:22.999Z</time></trkpt><trkpt lat="37.98803901104424" lon="15.35490092526845"><ele>238.0</ele><time>2026-04-28T14:59:23.999Z</time></trkpt><trkpt lat="37.988146215632234" lon="15.35481972847389"><ele>238.0</ele><time>2026-04-28T14:59:24.999Z</time></trkpt><trkpt lat="37.98821827205347" lon="15.35473161465672"><ele>238.0</ele><time>2026-04-28T14:59:25.999Z</time></trkpt><trkpt lat="37.98824187098657" lon="15.354610719373367"><ele>238.0</ele><time>2026-04-28T14:59:26.999Z</time></trkpt><trkpt lat="37.98821106909043" lon="15.35449175090851"><ele>238.0</ele><time>2026-04-28T14:59:27.999Z</time></trkpt><trkpt lat="37.98814075239451" lon="15.35439388836297"><ele>237.0</ele><time>2026-04-28T14:59:28.999Z</time></trkpt><trkpt lat="37.9880656348943" lon="15.354303523632924"><ele>236.0</ele><time>2026-04-28T14:59:29.999Z</time></trkpt><trkpt lat="37.98803140892866" lon="15.354202554518524"><ele>235.0</ele><time>2026-04-28T14:59:30.999Z</time></trkpt><trkpt lat="37.98806132412898" lon="15.354092282984812"><ele>234.0</ele><time>2026-04-28T14:59:31.999Z</time></trkpt><trkpt lat="37.9881187266013" lon="15.353981237706002"><ele>233.0</ele><time>2026-04-28T14:59:32.999Z</time></trkpt><trkpt lat="37.9881915060997" lon="15.35383321133423"><ele>233.0</ele><time>2026-04-28T14:59:33.999Z</time></trkpt><trkpt lat="37.98826042198883" lon="15.353779225337098"><ele>233.0</ele><time>2026-04-28T14:59:34.999Z</time></trkpt><trkpt lat="37.98829294849317" lon="15.35360052230211"><ele>233.0</ele><time>2026-04-28T14:59:35.999Z</time></trkpt><trkpt lat="37.98830344873094" lon="15.353401530597717"><ele>233.0</ele><time>2026-04-28T14:59:36.999Z</time></trkpt><trkpt lat="37.98829454620058" lon="15.353215853345148"><ele>233.0</ele><time>2026-04-28T14:59:37.999Z</time></trkpt><trkpt lat="37.98829545275339" lon="15.353048443134627"><ele>233.0</ele><time>2026-04-28T14:59:38.999Z</time></trkpt><trkpt lat="37.98830038296889" lon="15.352887274479379"><ele>233.0</ele><time>2026-04-28T14:59:39.999Z</time></trkpt><trkpt lat="37.98830782868992" lon="15.352734832200522"><ele>233.0</ele><time>2026-04-28T14:59:40.999Z</time></trkpt><trkpt lat="37.988344448068545" lon="15.352582744918054"><ele>235.75</ele><time>2026-04-28T14:59:41.999Z</time></trkpt><trkpt lat="37.98839717899462" lon="15.352422087727394"><ele>238.5</ele><time>2026-04-28T14:59:42.999Z</time></trkpt><trkpt lat="37.98844918684776" lon="15.352255865065102"><ele>241.25</ele><time>2026-04-28T14:59:43.999Z</time></trkpt><trkpt lat="37.98849957174336" lon="15.35210712312661"><ele>244.0</ele><time>2026-04-28T14:59:44.999Z</time></trkpt><trkpt lat="37.98853347376572" lon="15.351965698946902"><ele>244.0</ele><time>2026-04-28T14:59:45.999Z</time></trkpt><trkpt lat="37.98856276306094" lon="15.351828548094398"><ele>243.99999999999997</ele><time>2026-04-28T14:59:46.999Z</time></trkpt><trkpt lat="37.988606206872795" lon="15.351692014449416"><ele>243.99999999999997</ele><time>2026-04-28T14:59:47.999Z</time></trkpt><trkpt lat="37.98863924154313" lon="15.351564492511326"><ele>244.0</ele><time>2026-04-28T14:59:48.999Z</time></trkpt><trkpt lat="37.988697115252585" lon="15.351464614155672"><ele>244.0</ele><time>2026-04-28T14:59:50Z</time></trkpt><trkpt lat="37.98878437321676" lon="15.351410200613628"><ele>244.0</ele><time>2026-04-28T14:59:51Z</time></trkpt><trkpt lat="37.98890203459034" lon="15.351391752110114"><ele>244.0</ele><time>2026-04-28T14:59:52Z</time></trkpt><trkpt lat="37.98904185430313" lon="15.351384440866104"><ele>244.0</ele><time>2026-04-28T14:59:53Z</time></trkpt><trkpt lat="37.98917826044471" lon="15.351368804667509"><ele>244.0</ele><time>2026-04-28T14:59:54Z</time></trkpt><trkpt lat="37.98932349377651" lon="15.351274021132227"><ele>245.0</ele><time>2026-04-28T14:59:55Z</time></trkpt><trkpt lat="37.98947617302378" lon="15.35133936216709"><ele>246.0</ele><time>2026-04-28T14:59:56Z</time></trkpt><trkpt lat="37.98960935253853" lon="15.351454832021378"><ele>247.0</ele><time>2026-04-28T14:59:57Z</time></trkpt><trkpt lat="37.98971184868179" lon="15.351520247354236"><ele>248.0</ele><time>2026-04-28T14:59:58Z</time></trkpt><trkpt lat="37.989810938008986" lon="15.351522989561458"><ele>248.0</ele><time>2026-04-28T14:59:59Z</time></trkpt><trkpt lat="37.98992629576654" lon="15.351465686976443"><ele>248.0</ele><time>2026-04-28T15:00:00Z</time></trkpt><trkpt lat="37.99004630810044" lon="15.351362376387257"><ele>248.0</ele><time>2026-04-28T15:00:01Z</time></trkpt><trkpt lat="37.99017868843498" lon="15.351272977377803"><ele>248.0</ele><time>2026-04-28T15:00:02Z</time></trkpt><trkpt lat="37.99032920792506" lon="15.351261069091729"><ele>238.66666666666669</ele><time>2026-04-28T15:00:03Z</time></trkpt><trkpt lat="37.99049751235222" lon="15.351217410870268"><ele>229.33333333333331</ele><time>2026-04-28T15:00:04Z</time></trkpt><trkpt lat="37.99063960060283" lon="15.351157496535128"><ele>220.0</ele><time>2026-04-28T15:00:05Z</time></trkpt><trkpt lat="37.99076507995005" lon="15.351091559263816"><ele>225.0</ele><time>2026-04-28T15:00:06Z</time></trkpt><trkpt lat="37.9908738340112" lon="15.351040692845759"><ele>230.0</ele><time>2026-04-28T15:00:07Z</time></trkpt><trkpt lat="37.99097326557731" lon="15.35103924206207"><ele>235.0</ele><time>2026-04-28T15:00:08Z</time></trkpt><trkpt lat="37.99108736821611" lon="15.351093697244659"><ele>240.0</ele><time>2026-04-28T15:00:09Z</time></trkpt><trkpt lat="37.991214533949965" lon="15.351167056415488"><ele>240.0</ele><time>2026-04-28T15:00:10Z</time></trkpt><trkpt lat="37.99135606488095" lon="15.351246466447598"><ele>240.0</ele><time>2026-04-28T15:00:11Z</time></trkpt><trkpt lat="37.9914843390128" lon="15.351320416285652"><ele>240.0</ele><time>2026-04-28T15:00:12Z</time></trkpt><trkpt lat="37.99159035560809" lon="15.351386813762328"><ele>240.0</ele><time>2026-04-28T15:00:13Z</time></trkpt><trkpt lat="37.99167901771889" lon="15.351442802498902"><ele>248.6</ele><time>2026-04-28T15:00:14Z</time></trkpt><trkpt lat="37.991756694255336" lon="15.351471937922286"><ele>257.2</ele><time>2026-04-28T15:00:15Z</time></trkpt><trkpt lat="37.99182948703899" lon="15.351422745426794"><ele>265.8</ele><time>2026-04-28T15:00:16Z</time></trkpt><trkpt lat="37.99187685709475" lon="15.351333138095317"><ele>274.4</ele><time>2026-04-28T15:00:17Z</time></trkpt><trkpt lat="37.99187923058716" lon="15.351212275551113"><ele>283.0</ele><time>2026-04-28T15:00:18Z</time></trkpt><trkpt lat="37.99177699284273" lon="15.35104723505054"><ele>284.0</ele><time>2026-04-28T15:00:19Z</time></trkpt><trkpt lat="37.99171181280079" lon="15.350936692875637"><ele>285.0</ele><time>2026-04-28T15:00:20Z</time></trkpt><trkpt lat="37.99168492660203" lon="15.350793090490091"><ele>286.0</ele><time>2026-04-28T15:00:21Z</time></trkpt><trkpt lat="37.99170397868166" lon="15.350672147671542"><ele>287.0</ele><time>2026-04-28T15:00:22Z</time></trkpt><trkpt lat="37.991757735853675" lon="15.350538164287016"><ele>288.0</ele><time>2026-04-28T15:00:23Z</time></trkpt><trkpt lat="37.99183557254039" lon="15.350413308731612"><ele>282.3333333333333</ele><time>2026-04-28T15:00:24Z</time></trkpt><trkpt lat="37.991937535041366" lon="15.35027501287009"><ele>276.66666666666663</ele><time>2026-04-28T15:00:25Z</time></trkpt><trkpt lat="37.9920322899294" lon="15.350124660590517"><ele>271.0</ele><time>2026-04-28T15:00:26Z</time></trkpt><trkpt lat="37.99211535977523" lon="15.349958072744316"><ele>271.0</ele><time>2026-04-28T15:00:26.999Z</time></trkpt><trkpt lat="37.99217380900036" lon="15.349783913264863"><ele>271.0</ele><time>2026-04-28T15:00:27.999Z</time></trkpt><trkpt lat="37.99222623446767" lon="15.349617884005005"><ele>271.0</ele><time>2026-04-28T15:00:28.999Z</time></trkpt><trkpt lat="37.99227454669353" lon="15.349470183511816"><ele>271.0</ele><time>2026-04-28T15:00:29.999Z</time></trkpt><trkpt lat="37.99231427483978" lon="15.349351530289452"><ele>272.3333333333333</ele><time>2026-04-28T15:00:30.999Z</time></trkpt><trkpt lat="37.99235992400174" lon="15.349255741662311"><ele>273.6666666666667</ele><time>2026-04-28T15:00:31.999Z</time></trkpt><trkpt lat="37.99242577647816" lon="15.349218085961315"><ele>275.0</ele><time>2026-04-28T15:00:32.999Z</time></trkpt><trkpt lat="37.99274429048669" lon="15.349215637883482"><ele>275.0</ele><time>2026-04-28T15:00:35.999Z</time></trkpt><trkpt lat="37.992851261109784" lon="15.349123110177736"><ele>275.0</ele><time>2026-04-28T15:00:36.999Z</time></trkpt><trkpt lat="37.992951717048555" lon="15.34903217485124"><ele>275.0</ele><time>2026-04-28T15:00:37.999Z</time></trkpt><trkpt lat="37.99303800357059" lon="15.348967137493062"><ele>275.0</ele><time>2026-04-28T15:00:38.999Z</time></trkpt><trkpt lat="37.99311861026901" lon="15.348907608037054"><ele>275.0</ele><time>2026-04-28T15:00:39.999Z</time></trkpt><trkpt lat="37.99318708079959" lon="15.348852814036762"><ele>274.0</ele><time>2026-04-28T15:00:40.999Z</time></trkpt><trkpt lat="37.99321914477509" lon="15.348758173394708"><ele>273.0</ele><time>2026-04-28T15:00:41.999Z</time></trkpt><trkpt lat="37.993206928097294" lon="15.348607495064156"><ele>272.0</ele><time>2026-04-28T15:00:42.999Z</time></trkpt><trkpt lat="37.99318144618837" lon="15.348446242988032"><ele>271.0</ele><time>2026-04-28T15:00:43.999Z</time></trkpt><trkpt lat="37.99317427883108" lon="15.348303524113247"><ele>270.0</ele><time>2026-04-28T15:00:44.999Z</time></trkpt><trkpt lat="37.993162006466875" lon="15.348193186333813"><ele>270.0</ele><time>2026-04-28T15:00:45.999Z</time></trkpt><trkpt lat="37.99310852921376" lon="15.348118296327208"><ele>270.0</ele><time>2026-04-28T15:00:46.999Z</time></trkpt><trkpt lat="37.99301842473592" lon="15.348095395121506"><ele>270.0</ele><time>2026-04-28T15:00:47.999Z</time></trkpt><trkpt lat="37.99291148600829" lon="15.34811717312796"><ele>270.0</ele><time>2026-04-28T15:00:48.999Z</time></trkpt><trkpt lat="37.99281029648229" lon="15.34814819314669"><ele>270.0</ele><time>2026-04-28T15:00:49.999Z</time></trkpt><trkpt lat="37.99272612983806" lon="15.348125716062437"><ele>270.0</ele><time>2026-04-28T15:00:50.999Z</time></trkpt><trkpt lat="37.99266925710716" lon="15.348060291448926"><ele>270.0</ele><time>2026-04-28T15:00:51.999Z</time></trkpt><trkpt lat="37.9926389364423" lon="15.347968125911585"><ele>270.0</ele><time>2026-04-28T15:00:52.999Z</time></trkpt><trkpt lat="37.992634506382934" lon="15.347845987640728"><ele>270.0</ele><time>2026-04-28T15:00:53.999Z</time></trkpt><trkpt lat="37.99264047947322" lon="15.347701452198118"><ele>270.0</ele><time>2026-04-28T15:00:54.999Z</time></trkpt><trkpt lat="37.9926089067482" lon="15.34755778844425"><ele>272.75</ele><time>2026-04-28T15:00:55.999Z</time></trkpt><trkpt lat="37.99253835884464" lon="15.34744194186902"><ele>275.5</ele><time>2026-04-28T15:00:56.999Z</time></trkpt><trkpt lat="37.992479165309526" lon="15.3473448577036"><ele>278.25</ele><time>2026-04-28T15:00:57.999Z</time></trkpt><trkpt lat="37.99246051346922" lon="15.347210588523847"><ele>281.0</ele><time>2026-04-28T15:00:58.999Z</time></trkpt><trkpt lat="37.99245344952453" lon="15.347041913523299"><ele>281.0</ele><time>2026-04-28T15:00:59.999Z</time></trkpt><trkpt lat="37.99243978131483" lon="15.346867456819325"><ele>281.0</ele><time>2026-04-28T15:01:00.999Z</time></trkpt><trkpt lat="37.99244527962167" lon="15.346697238029066"><ele>281.0</ele><time>2026-04-28T15:01:01.999Z</time></trkpt><trkpt lat="37.99248519105341" lon="15.346525111256966"><ele>281.0</ele><time>2026-04-28T15:01:02.999Z</time></trkpt><trkpt lat="37.99254427139346" lon="15.346359948985663"><ele>284.8</ele><time>2026-04-28T15:01:03.999Z</time></trkpt><trkpt lat="37.99257858383002" lon="15.346233492280193"><ele>288.6</ele><time>2026-04-28T15:01:04.999Z</time></trkpt><trkpt lat="37.99257871868687" lon="15.346129855999829"><ele>292.4</ele><time>2026-04-28T15:01:05.999Z</time></trkpt><trkpt lat="37.992528505982506" lon="15.34603650762834"><ele>296.2</ele><time>2026-04-28T15:01:06.999Z</time></trkpt><trkpt lat="37.9924295212887" lon="15.34596453962904"><ele>300.0</ele><time>2026-04-28T15:01:07.999Z</time></trkpt><trkpt lat="37.9923033553064" lon="15.34594805525829"><ele>300.0</ele><time>2026-04-28T15:01:08.999Z</time></trkpt><trkpt lat="37.99217265953129" lon="15.345992805431852"><ele>300.0</ele><time>2026-04-28T15:01:09.999Z</time></trkpt><trkpt lat="37.992070373791655" lon="15.346041930028226"><ele>300.0</ele><time>2026-04-28T15:01:10.999Z</time></trkpt><trkpt lat="37.991964288044194" lon="15.346034744559093"><ele>300.0</ele><time>2026-04-28T15:01:11.999Z</time></trkpt><trkpt lat="37.99183941232917" lon="15.345972666854331"><ele>300.0</ele><time>2026-04-28T15:01:12.999Z</time></trkpt><trkpt lat="37.991694096754095" lon="15.345885878706563"><ele>300.0</ele><time>2026-04-28T15:01:13.999Z</time></trkpt><trkpt lat="37.991540421499934" lon="15.345810808015667"><ele>300.0</ele><time>2026-04-28T15:01:14.999Z</time></trkpt><trkpt lat="37.99142679725701" lon="15.345751188100635"><ele>300.0</ele><time>2026-04-28T15:01:15.999Z</time></trkpt><trkpt lat="37.99133271320377" lon="15.345691970913895"><ele>303.0</ele><time>2026-04-28T15:01:16.999Z</time></trkpt><trkpt lat="37.991247443484525" lon="15.345586658052742"><ele>306.0</ele><time>2026-04-28T15:01:17.999Z</time></trkpt><trkpt lat="37.99117584681821" lon="15.345445428477689"><ele>309.0</ele><time>2026-04-28T15:01:18.999Z</time></trkpt><trkpt lat="37.991123037628235" lon="15.345303482950065"><ele>312.0</ele><time>2026-04-28T15:01:19.999Z</time></trkpt><trkpt lat="37.99108759375716" lon="15.345134392296117"><ele>312.0</ele><time>2026-04-28T15:01:20.999Z</time></trkpt><trkpt lat="37.99106033216793" lon="15.344937941383884"><ele>312.0</ele><time>2026-04-28T15:01:21.999Z</time></trkpt><trkpt lat="37.99100803400926" lon="15.344762555777848"><ele>312.0</ele><time>2026-04-28T15:01:22.999Z</time></trkpt><trkpt lat="37.99092961064915" lon="15.344624621228794"><ele>312.0</ele><time>2026-04-28T15:01:23.999Z</time></trkpt><trkpt lat="37.99083187783" lon="15.344531278595179"><ele>314.4</ele><time>2026-04-28T15:01:24.999Z</time></trkpt><trkpt lat="37.99075315648079" lon="15.344440652879806"><ele>316.79999999999995</ele><time>2026-04-28T15:01:25.999Z</time></trkpt><trkpt lat="37.990719409279066" lon="15.344335326511066"><ele>319.2</ele><time>2026-04-28T15:01:26.999Z</time></trkpt><trkpt lat="37.99073867910856" lon="15.344220953176517"><ele>321.59999999999997</ele><time>2026-04-28T15:01:27.999Z</time></trkpt><trkpt lat="37.990807464131095" lon="15.344129477585254"><ele>324.0</ele><time>2026-04-28T15:01:28.999Z</time></trkpt><trkpt lat="37.990912629342986" lon="15.344050412483298"><ele>324.0</ele><time>2026-04-28T15:01:29.999Z</time></trkpt><trkpt lat="37.99104745976206" lon="15.343990035301406"><ele>324.0</ele><time>2026-04-28T15:01:30.999Z</time></trkpt><trkpt lat="37.99119811036767" lon="15.343952986061058"><ele>324.0</ele><time>2026-04-28T15:01:31.999Z</time></trkpt><trkpt lat="37.99132851485776" lon="15.34390222860077"><ele>324.0</ele><time>2026-04-28T15:01:32.999Z</time></trkpt><trkpt lat="37.99144446123291" lon="15.343833136462226"><ele>317.6666666666667</ele><time>2026-04-28T15:01:33.999Z</time></trkpt><trkpt lat="37.991500677507524" lon="15.34357829818713"><ele>311.33333333333337</ele><time>2026-04-28T15:01:34.999Z</time></trkpt><trkpt lat="37.99152730878422" lon="15.343390343662882"><ele>305.0</ele><time>2026-04-28T15:01:35.999Z</time></trkpt><trkpt lat="37.99157960169678" lon="15.3432122431297"><ele>312.25</ele><time>2026-04-28T15:01:36.999Z</time></trkpt><trkpt lat="37.991679269803285" lon="15.343072489543271"><ele>319.5</ele><time>2026-04-28T15:01:37.999Z</time></trkpt><trkpt lat="37.99178667346568" lon="15.34292671896524"><ele>326.75</ele><time>2026-04-28T15:01:38.999Z</time></trkpt><trkpt lat="37.99185340451402" lon="15.342775143356224"><ele>334.0</ele><time>2026-04-28T15:01:39.999Z</time></trkpt><trkpt lat="37.99188693905363" lon="15.342598146207518"><ele>334.0</ele><time>2026-04-28T15:01:40.999Z</time></trkpt><trkpt lat="37.99190045192155" lon="15.342415073690129"><ele>334.0</ele><time>2026-04-28T15:01:41.999Z</time></trkpt><trkpt lat="37.99189559804272" lon="15.342265639563568"><ele>334.0</ele><time>2026-04-28T15:01:42.999Z</time></trkpt><trkpt lat="37.99187714709526" lon="15.342115521623137"><ele>334.0</ele><time>2026-04-28T15:01:43.999Z</time></trkpt><trkpt lat="37.99189274956344" lon="15.341990416028873"><ele>328.16666666666663</ele><time>2026-04-28T15:01:44.999Z</time></trkpt><trkpt lat="37.99195731154261" lon="15.341896910312048"><ele>322.3333333333333</ele><time>2026-04-28T15:01:45.999Z</time></trkpt><trkpt lat="37.992011913610774" lon="15.341839650457617"><ele>316.5</ele><time>2026-04-28T15:01:46.999Z</time></trkpt><trkpt lat="37.99207345475083" lon="15.341800593877586"><ele>310.6666666666667</ele><time>2026-04-28T15:01:47.999Z</time></trkpt><trkpt lat="37.992170329580595" lon="15.341828612588689"><ele>304.83333333333337</ele><time>2026-04-28T15:01:48.998Z</time></trkpt><trkpt lat="37.992275931699005" lon="15.341789393538418"><ele>299.0</ele><time>2026-04-28T15:01:49.998Z</time></trkpt><trkpt lat="37.992379653026" lon="15.341673622435247"><ele>299.0</ele><time>2026-04-28T15:01:50.998Z</time></trkpt><trkpt lat="37.992470071552766" lon="15.341593519356941"><ele>299.0</ele><time>2026-04-28T15:01:51.998Z</time></trkpt><trkpt lat="37.99255736985282" lon="15.34156290624179"><ele>299.0</ele><time>2026-04-28T15:01:52.998Z</time></trkpt><trkpt lat="37.992674917372035" lon="15.341575846655024"><ele>299.0</ele><time>2026-04-28T15:01:53.998Z</time></trkpt><trkpt lat="37.992788797576736" lon="15.341592202277429"><ele>299.0</ele><time>2026-04-28T15:01:54.998Z</time></trkpt><trkpt lat="37.99293488781559" lon="15.341591977496995"><ele>305.0</ele><time>2026-04-28T15:01:56Z</time></trkpt><trkpt lat="37.993073037084386" lon="15.34158285811738"><ele>311.0</ele><time>2026-04-28T15:01:57Z</time></trkpt><trkpt lat="37.9932264662509" lon="15.341540162132853"><ele>317.0</ele><time>2026-04-28T15:01:58Z</time></trkpt><trkpt lat="37.993364013686005" lon="15.341470268942102"><ele>323.0</ele><time>2026-04-28T15:01:59Z</time></trkpt><trkpt lat="37.99349460424625" lon="15.341388390846364"><ele>318.25</ele><time>2026-04-28T15:02:00Z</time></trkpt><trkpt lat="37.99362128374702" lon="15.341303996480036"><ele>313.5</ele><time>2026-04-28T15:02:01Z</time></trkpt><trkpt lat="37.993742217618674" lon="15.341212132637288"><ele>308.75</ele><time>2026-04-28T15:02:02Z</time></trkpt><trkpt lat="37.99386991991899" lon="15.341127490384665"><ele>304.0</ele><time>2026-04-28T15:02:03Z</time></trkpt><trkpt lat="37.994001958730585" lon="15.341069177930537"><ele>304.0</ele><time>2026-04-28T15:02:04Z</time></trkpt><trkpt lat="37.99414244507176" lon="15.34103678275526"><ele>304.0</ele><time>2026-04-28T15:02:05Z</time></trkpt><trkpt lat="37.99428761024244" lon="15.34100546465698"><ele>304.0</ele><time>2026-04-28T15:02:06Z</time></trkpt><trkpt lat="37.994434488817554" lon="15.340990819976206"><ele>304.0</ele><time>2026-04-28T15:02:07Z</time></trkpt><trkpt lat="37.99450132918342" lon="15.340857070263603"><ele>305.75</ele><time>2026-04-28T15:02:08Z</time></trkpt><trkpt lat="37.99461547731239" lon="15.340824100356478"><ele>307.5</ele><time>2026-04-28T15:02:09Z</time></trkpt><trkpt lat="37.994702227357614" lon="15.340731751840305"><ele>309.25</ele><time>2026-04-28T15:02:10Z</time></trkpt><trkpt lat="37.994753768794645" lon="15.34059673964601"><ele>311.0</ele><time>2026-04-28T15:02:11Z</time></trkpt><trkpt lat="37.994806401780245" lon="15.340428131809931"><ele>311.0</ele><time>2026-04-28T15:02:12Z</time></trkpt><trkpt lat="37.99490089719973" lon="15.340309126973663"><ele>311.0</ele><time>2026-04-28T15:02:13Z</time></trkpt><trkpt lat="37.994969706573876" lon="15.340188793907629"><ele>311.0</ele><time>2026-04-28T15:02:14Z</time></trkpt><trkpt lat="37.99497807960029" lon="15.340036852359395"><ele>311.0</ele><time>2026-04-28T15:02:15Z</time></trkpt><trkpt lat="37.99500421175175" lon="15.339899438529931"><ele>314.20000000000005</ele><time>2026-04-28T15:02:16Z</time></trkpt><trkpt lat="37.99506833039127" lon="15.339810781081136"><ele>317.40000000000003</ele><time>2026-04-28T15:02:17Z</time></trkpt><trkpt lat="37.995154905760195" lon="15.339799592103999"><ele>320.6</ele><time>2026-04-28T15:02:18Z</time></trkpt><trkpt lat="37.99524853556178" lon="15.339840693831391"><ele>323.8</ele><time>2026-04-28T15:02:19Z</time></trkpt><trkpt lat="37.99533201731937" lon="15.339954198883309"><ele>327.0</ele><time>2026-04-28T15:02:20Z</time></trkpt><trkpt lat="37.99543470149936" lon="15.340030944620542"><ele>327.0</ele><time>2026-04-28T15:02:21Z</time></trkpt><trkpt lat="37.99553820558148" lon="15.340071771012967"><ele>327.0</ele><time>2026-04-28T15:02:22Z</time></trkpt><trkpt lat="37.99563665729928" lon="15.34010428908235"><ele>327.0</ele><time>2026-04-28T15:02:23Z</time></trkpt><trkpt lat="37.99574956148422" lon="15.340131394495215"><ele>327.0</ele><time>2026-04-28T15:02:24Z</time></trkpt><trkpt lat="37.995871920622356" lon="15.340184172754634"><ele>332.8</ele><time>2026-04-28T15:02:25Z</time></trkpt><trkpt lat="37.995993801864934" lon="15.340265589716482"><ele>338.6</ele><time>2026-04-28T15:02:26Z</time></trkpt><trkpt lat="37.99610714344108" lon="15.340312795335368"><ele>344.40000000000003</ele><time>2026-04-28T15:02:27Z</time></trkpt><trkpt lat="37.99620650182828" lon="15.340325156449175"><ele>350.20000000000005</ele><time>2026-04-28T15:02:28Z</time></trkpt><trkpt lat="37.99629290631037" lon="15.340299599328807"><ele>356.0</ele><time>2026-04-28T15:02:28.999Z</time></trkpt><trkpt lat="37.996356489262396" lon="15.340219276190057"><ele>356.0</ele><time>2026-04-28T15:02:29.999Z</time></trkpt><trkpt lat="37.99638661305533" lon="15.340098853708959"><ele>356.0</ele><time>2026-04-28T15:02:30.999Z</time></trkpt><trkpt lat="37.996376122746945" lon="15.339963777485874"><ele>356.0</ele><time>2026-04-28T15:02:31.999Z</time></trkpt><trkpt lat="37.99632047747039" lon="15.339856137268162"><ele>356.0</ele><time>2026-04-28T15:02:32.999Z</time></trkpt><trkpt lat="37.996233214584045" lon="15.339755905703312"><ele>356.0</ele><time>2026-04-28T15:02:33.999Z</time></trkpt><trkpt lat="37.99612276476602" lon="15.339660649590835"><ele>361.6666666666667</ele><time>2026-04-28T15:02:34.999Z</time></trkpt><trkpt lat="37.996059378986025" lon="15.339564567857886"><ele>367.3333333333333</ele><time>2026-04-28T15:02:35.999Z</time></trkpt><trkpt lat="37.9960707595857" lon="15.339194975846913"><ele>373.0</ele><time>2026-04-28T15:02:39.999Z</time></trkpt><trkpt lat="37.99605039645719" lon="15.339101554043932"><ele>373.0</ele><time>2026-04-28T15:02:40.999Z</time></trkpt><trkpt lat="37.9959878973387" lon="15.339031687015384"><ele>373.0</ele><time>2026-04-28T15:02:41.999Z</time></trkpt><trkpt lat="37.99566976910224" lon="15.338322605742649"><ele>365.66666666666663</ele><time>2026-04-28T15:02:48.999Z</time></trkpt><trkpt lat="37.99568830239968" lon="15.33803723016487"><ele>358.3333333333333</ele><time>2026-04-28T15:02:50.999Z</time></trkpt><trkpt lat="37.995654243960324" lon="15.337913435970954"><ele>351.0</ele><time>2026-04-28T15:02:51.999Z</time></trkpt><trkpt lat="37.99557211943465" lon="15.33764842968292"><ele>356.0</ele><time>2026-04-28T15:02:54.999Z</time></trkpt><trkpt lat="37.995858123114495" lon="15.337468731401973"><ele>361.0</ele><time>2026-04-28T15:02:58.999Z</time></trkpt><trkpt lat="37.99593848604033" lon="15.337495526012722"><ele>366.0</ele><time>2026-04-28T15:02:59.999Z</time></trkpt><trkpt lat="37.99606376657527" lon="15.337488804674159"><ele>366.0</ele><time>2026-04-28T15:03:00.999Z</time></trkpt><trkpt lat="37.99619141858044" lon="15.337413159358553"><ele>366.0</ele><time>2026-04-28T15:03:01.999Z</time></trkpt><trkpt lat="37.996309224681305" lon="15.337274283673427"><ele>366.0</ele><time>2026-04-28T15:03:02.999Z</time></trkpt><trkpt lat="37.9964304802159" lon="15.337111094216889"><ele>363.0</ele><time>2026-04-28T15:03:03.999Z</time></trkpt><trkpt lat="37.996555610780995" lon="15.336976549157903"><ele>360.0</ele><time>2026-04-28T15:03:04.999Z</time></trkpt><trkpt lat="37.99668253020313" lon="15.336859704912627"><ele>357.0</ele><time>2026-04-28T15:03:05.999Z</time></trkpt><trkpt lat="37.99679826519812" lon="15.336743508149086"><ele>357.0</ele><time>2026-04-28T15:03:06.999Z</time></trkpt><trkpt lat="37.996900829304074" lon="15.336635740137092"><ele>357.0</ele><time>2026-04-28T15:03:07.999Z</time></trkpt><trkpt lat="37.997001346699065" lon="15.336513328936057"><ele>357.0</ele><time>2026-04-28T15:03:08.999Z</time></trkpt><trkpt lat="37.99708412619013" lon="15.33635565693306"><ele>357.0</ele><time>2026-04-28T15:03:09.999Z</time></trkpt><trkpt lat="37.997145555263984" lon="15.336203974783599"><ele>359.20000000000005</ele><time>2026-04-28T15:03:10.999Z</time></trkpt><trkpt lat="37.99719736580923" lon="15.336077174086554"><ele>361.4</ele><time>2026-04-28T15:03:11.999Z</time></trkpt><trkpt lat="37.99722116855322" lon="15.33596523238121"><ele>363.6</ele><time>2026-04-28T15:03:12.999Z</time></trkpt><trkpt lat="37.997194096188274" lon="15.335836184518403"><ele>365.79999999999995</ele><time>2026-04-28T15:03:13.999Z</time></trkpt><trkpt lat="37.99712439779992" lon="15.335693851756893"><ele>368.0</ele><time>2026-04-28T15:03:14.999Z</time></trkpt><trkpt lat="37.99705457015951" lon="15.33554970880268"><ele>366.0</ele><time>2026-04-28T15:03:15.999Z</time></trkpt><trkpt lat="37.99699596759664" lon="15.33540770344255"><ele>364.0</ele><time>2026-04-28T15:03:16.999Z</time></trkpt><trkpt lat="37.99693617130294" lon="15.33530622224029"><ele>362.0</ele><time>2026-04-28T15:03:17.999Z</time></trkpt><trkpt lat="37.99685312357127" lon="15.335245800387678"><ele>360.0</ele><time>2026-04-28T15:03:18.999Z</time></trkpt><trkpt lat="37.99673661900406" lon="15.335223743547616"><ele>358.0</ele><time>2026-04-28T15:03:19.999Z</time></trkpt><trkpt lat="37.99662216032247" lon="15.335217112820562"><ele>358.0</ele><time>2026-04-28T15:03:20.999Z</time></trkpt><trkpt lat="37.996536069330965" lon="15.335181206937845"><ele>358.0</ele><time>2026-04-28T15:03:21.999Z</time></trkpt><trkpt lat="37.99648439733464" lon="15.3350460394493"><ele>358.0</ele><time>2026-04-28T15:03:23.999Z</time></trkpt><trkpt lat="37.996506756167065" lon="15.334944759208343"><ele>358.0</ele><time>2026-04-28T15:03:24.999Z</time></trkpt><trkpt lat="37.99654477063577" lon="15.334812030826338"><ele>358.0</ele><time>2026-04-28T15:03:25.999Z</time></trkpt><trkpt lat="37.99652729061025" lon="15.334662639431489"><ele>361.25</ele><time>2026-04-28T15:03:26.999Z</time></trkpt><trkpt lat="37.99646154410089" lon="15.33450871332597"><ele>364.5</ele><time>2026-04-28T15:03:27.999Z</time></trkpt><trkpt lat="37.996404488543305" lon="15.33437441866438"><ele>367.75</ele><time>2026-04-28T15:03:28.999Z</time></trkpt><trkpt lat="37.99638449946396" lon="15.334242886677686"><ele>371.0</ele><time>2026-04-28T15:03:29.999Z</time></trkpt><trkpt lat="37.99640655841521" lon="15.33410666518131"><ele>371.0</ele><time>2026-04-28T15:03:30.999Z</time></trkpt><trkpt lat="37.996462389353354" lon="15.333974223480789"><ele>371.0</ele><time>2026-04-28T15:03:31.999Z</time></trkpt><trkpt lat="37.99655384835472" lon="15.333848345622112"><ele>371.0</ele><time>2026-04-28T15:03:32.999Z</time></trkpt><trkpt lat="37.996658362013925" lon="15.333730839690752"><ele>371.0</ele><time>2026-04-28T15:03:33.999Z</time></trkpt><trkpt lat="37.99673912418057" lon="15.333597935331074"><ele>377.25</ele><time>2026-04-28T15:03:34.999Z</time></trkpt><trkpt lat="37.99679036057464" lon="15.333456566686367"><ele>383.5</ele><time>2026-04-28T15:03:35.999Z</time></trkpt><trkpt lat="37.996855143063726" lon="15.333339244481797"><ele>389.75</ele><time>2026-04-28T15:03:36.999Z</time></trkpt><trkpt lat="37.99692734570639" lon="15.333224973334966"><ele>396.0</ele><time>2026-04-28T15:03:37.999Z</time></trkpt><trkpt lat="37.99696597472667" lon="15.333078150453455"><ele>392.25</ele><time>2026-04-28T15:03:38.999Z</time></trkpt><trkpt lat="37.99695793078791" lon="15.332916110297942"><ele>388.5</ele><time>2026-04-28T15:03:39.999Z</time></trkpt><trkpt lat="37.99696383066671" lon="15.332773065385874"><ele>384.75</ele><time>2026-04-28T15:03:40.999Z</time></trkpt><trkpt lat="37.99700529950351" lon="15.332647995056691"><ele>381.0</ele><time>2026-04-28T15:03:41.999Z</time></trkpt><trkpt lat="37.997082284439756" lon="15.3325503669246"><ele>381.0</ele><time>2026-04-28T15:03:42.999Z</time></trkpt><trkpt lat="37.99713116035038" lon="15.332443337361244"><ele>381.0</ele><time>2026-04-28T15:03:43.999Z</time></trkpt><trkpt lat="37.99713228054007" lon="15.332315082104076"><ele>381.0</ele><time>2026-04-28T15:03:44.999Z</time></trkpt><trkpt lat="37.99711518856747" lon="15.332213963216489"><ele>381.0</ele><time>2026-04-28T15:03:45.999Z</time></trkpt><trkpt lat="37.99712763799843" lon="15.3321062447552"><ele>381.0</ele><time>2026-04-28T15:03:46.999Z</time></trkpt><trkpt lat="37.997185302961526" lon="15.332009650482876"><ele>379.0</ele><time>2026-04-28T15:03:47.999Z</time></trkpt><trkpt lat="37.997269054689" lon="15.331928337104126"><ele>377.0</ele><time>2026-04-28T15:03:48.999Z</time></trkpt><trkpt lat="37.997357056460956" lon="15.331854102125153"><ele>375.0</ele><time>2026-04-28T15:03:49.998Z</time></trkpt><trkpt lat="37.99743355849251" lon="15.3317813466142"><ele>373.0</ele><time>2026-04-28T15:03:50.998Z</time></trkpt><trkpt lat="37.99748515715549" lon="15.331732097281849"><ele>371.0</ele><time>2026-04-28T15:03:51.998Z</time></trkpt><trkpt lat="37.99752176596817" lon="15.331632333194781"><ele>371.0</ele><time>2026-04-28T15:03:53.998Z</time></trkpt><trkpt lat="37.99747697575751" lon="15.33147398313173"><ele>371.0</ele><time>2026-04-28T15:03:55.998Z</time></trkpt><trkpt lat="37.9974173729356" lon="15.331398107711419"><ele>371.0</ele><time>2026-04-28T15:03:56.998Z</time></trkpt><trkpt lat="37.99732375147645" lon="15.331327216431491"><ele>371.0</ele><time>2026-04-28T15:03:57.998Z</time></trkpt><trkpt lat="37.99721205350171" lon="15.331229244680394"><ele>374.4</ele><time>2026-04-28T15:03:58.998Z</time></trkpt><trkpt lat="37.99711479752326" lon="15.331121610011122"><ele>377.8</ele><time>2026-04-28T15:03:59.998Z</time></trkpt><trkpt lat="37.997047755736496" lon="15.331027548047786"><ele>381.2</ele><time>2026-04-28T15:04:00.998Z</time></trkpt><trkpt lat="37.997023175640756" lon="15.330929767666515"><ele>384.59999999999997</ele><time>2026-04-28T15:04:02Z</time></trkpt><trkpt lat="37.99703269618113" lon="15.33080040462551"><ele>388.0</ele><time>2026-04-28T15:04:03Z</time></trkpt><trkpt lat="37.99707645501679" lon="15.330663451988242"><ele>391.25</ele><time>2026-04-28T15:04:04Z</time></trkpt><trkpt lat="37.99709339646194" lon="15.330540085627431"><ele>394.5</ele><time>2026-04-28T15:04:05Z</time></trkpt><trkpt lat="37.99704042678679" lon="15.330428040794969"><ele>397.75</ele><time>2026-04-28T15:04:06Z</time></trkpt><trkpt lat="37.996934354524576" lon="15.330323976507419"><ele>401.0</ele><time>2026-04-28T15:04:07Z</time></trkpt><trkpt lat="37.99682845221094" lon="15.330230862109326"><ele>401.0</ele><time>2026-04-28T15:04:08Z</time></trkpt><trkpt lat="37.996762890267924" lon="15.330132967788291"><ele>401.0</ele><time>2026-04-28T15:04:09Z</time></trkpt><trkpt lat="37.99671981546442" lon="15.3300279948573"><ele>401.0</ele><time>2026-04-28T15:04:10Z</time></trkpt><trkpt lat="37.996706980859415" lon="15.329921101297737"><ele>401.0</ele><time>2026-04-28T15:04:11Z</time></trkpt><trkpt lat="37.996738974389245" lon="15.329799083584291"><ele>401.0</ele><time>2026-04-28T15:04:12Z</time></trkpt><trkpt lat="37.99680085989622" lon="15.329659563785645"><ele>395.25</ele><time>2026-04-28T15:04:13Z</time></trkpt><trkpt lat="37.99687749880946" lon="15.329517773244618"><ele>389.5</ele><time>2026-04-28T15:04:14Z</time></trkpt><trkpt lat="37.99696443618973" lon="15.32938921293557"><ele>383.75</ele><time>2026-04-28T15:04:15Z</time></trkpt><trkpt lat="37.997088903944544" lon="15.329260559915044"><ele>378.0</ele><time>2026-04-28T15:04:16Z</time></trkpt><trkpt lat="37.99721834636712" lon="15.32912532578084"><ele>378.0</ele><time>2026-04-28T15:04:17Z</time></trkpt><trkpt lat="37.99732196427104" lon="15.328972904735783"><ele>378.0</ele><time>2026-04-28T15:04:18Z</time></trkpt><trkpt lat="37.99740637785134" lon="15.328828799698973"><ele>378.0</ele><time>2026-04-28T15:04:19Z</time></trkpt><trkpt lat="37.99749896219709" lon="15.328708719366665"><ele>378.0</ele><time>2026-04-28T15:04:20Z</time></trkpt><trkpt lat="37.99761168260325" lon="15.328601803803172"><ele>373.0</ele><time>2026-04-28T15:04:21Z</time></trkpt><trkpt lat="37.997737826712324" lon="15.328511816876818"><ele>368.0</ele><time>2026-04-28T15:04:22Z</time></trkpt><trkpt lat="37.99786378511547" lon="15.3284485005958"><ele>363.0</ele><time>2026-04-28T15:04:23Z</time></trkpt><trkpt lat="37.997992336209485" lon="15.328425059548989"><ele>358.0</ele><time>2026-04-28T15:04:24Z</time></trkpt><trkpt lat="37.99812713391584" lon="15.32844814791691"><ele>358.0</ele><time>2026-04-28T15:04:25Z</time></trkpt><trkpt lat="37.99827319046552" lon="15.328508923243753"><ele>358.0</ele><time>2026-04-28T15:04:26Z</time></trkpt><trkpt lat="37.99841125005091" lon="15.328538128949349"><ele>358.0</ele><time>2026-04-28T15:04:27Z</time></trkpt><trkpt lat="37.99852883373882" lon="15.328526391748195"><ele>358.0</ele><time>2026-04-28T15:04:27.999Z</time></trkpt><trkpt lat="37.99862030805109" lon="15.328535506102806"><ele>359.0</ele><time>2026-04-28T15:04:28.999Z</time></trkpt><trkpt lat="37.9986974927088" lon="15.328609456066415"><ele>360.0</ele><time>2026-04-28T15:04:29.999Z</time></trkpt><trkpt lat="37.99876892130643" lon="15.32871015909233"><ele>361.0</ele><time>2026-04-28T15:04:30.999Z</time></trkpt><trkpt lat="37.998846851410555" lon="15.328745213163497"><ele>362.0</ele><time>2026-04-28T15:04:31.999Z</time></trkpt><trkpt lat="37.99893924774228" lon="15.328713942929559"><ele>363.0</ele><time>2026-04-28T15:04:32.999Z</time></trkpt><trkpt lat="37.99902936300895" lon="15.328631380642749"><ele>363.0</ele><time>2026-04-28T15:04:33.999Z</time></trkpt><trkpt lat="37.99910679897205" lon="15.328507526322543"><ele>363.0</ele><time>2026-04-28T15:04:34.999Z</time></trkpt><trkpt lat="37.99915487077103" lon="15.328359465636513"><ele>363.0</ele><time>2026-04-28T15:04:35.999Z</time></trkpt><trkpt lat="37.9991754370702" lon="15.3281777563507"><ele>363.0</ele><time>2026-04-28T15:04:36.999Z</time></trkpt><trkpt lat="37.99919437252538" lon="15.327992893416791"><ele>365.5</ele><time>2026-04-28T15:04:37.999Z</time></trkpt><trkpt lat="37.99921920345874" lon="15.327806320955434"><ele>368.0</ele><time>2026-04-28T15:04:38.999Z</time></trkpt><trkpt lat="37.9992436146846" lon="15.327631024143734"><ele>370.5</ele><time>2026-04-28T15:04:39.999Z</time></trkpt><trkpt lat="37.9992616713627" lon="15.327477351434698"><ele>373.0</ele><time>2026-04-28T15:04:40.999Z</time></trkpt><trkpt lat="37.99927523179877" lon="15.32735749287026"><ele>373.0</ele><time>2026-04-28T15:04:41.999Z</time></trkpt><trkpt lat="37.99926305907252" lon="15.327259558106464"><ele>373.0</ele><time>2026-04-28T15:04:42.999Z</time></trkpt><trkpt lat="37.99919852347261" lon="15.327172475512102"><ele>373.0</ele><time>2026-04-28T15:04:43.999Z</time></trkpt><trkpt lat="37.999093435094046" lon="15.327103121440723"><ele>373.0</ele><time>2026-04-28T15:04:44.999Z</time></trkpt><trkpt lat="37.99897256414548" lon="15.327044735527899"><ele>373.0</ele><time>2026-04-28T15:04:45.999Z</time></trkpt><trkpt lat="37.99886002259647" lon="15.326985565298765"><ele>375.0</ele><time>2026-04-28T15:04:46.999Z</time></trkpt><trkpt lat="37.9987747449006" lon="15.32692107940094"><ele>377.0</ele><time>2026-04-28T15:04:47.999Z</time></trkpt><trkpt lat="37.99871914010823" lon="15.326852890299527"><ele>379.0</ele><time>2026-04-28T15:04:48.999Z</time></trkpt><trkpt lat="37.99869614570609" lon="15.326769801842676"><ele>381.0</ele><time>2026-04-28T15:04:49.999Z</time></trkpt><trkpt lat="37.99872050237553" lon="15.326663926495069"><ele>383.00000000000006</ele><time>2026-04-28T15:04:50.999Z</time></trkpt><trkpt lat="37.998778770024344" lon="15.326540297858006"><ele>385.0</ele><time>2026-04-28T15:04:51.999Z</time></trkpt><trkpt lat="37.99882850524457" lon="15.32640280748414"><ele>387.25</ele><time>2026-04-28T15:04:52.999Z</time></trkpt><trkpt lat="37.998832055192366" lon="15.32623523050319"><ele>389.5</ele><time>2026-04-28T15:04:53.999Z</time></trkpt><trkpt lat="37.99882566467975" lon="15.326071702412069"><ele>391.75</ele><time>2026-04-28T15:04:54.999Z</time></trkpt><trkpt lat="37.998850919557555" lon="15.325937930163569"><ele>394.0</ele><time>2026-04-28T15:04:55.999Z</time></trkpt><trkpt lat="37.99890722589191" lon="15.325842871952924"><ele>394.0</ele><time>2026-04-28T15:04:56.999Z</time></trkpt><trkpt lat="37.998914103322655" lon="15.325724258167902"><ele>394.0</ele><time>2026-04-28T15:04:57.999Z</time></trkpt><trkpt lat="37.99885083781603" lon="15.325601937641993"><ele>394.0</ele><time>2026-04-28T15:04:58.999Z</time></trkpt><trkpt lat="37.998743126061775" lon="15.325481101041653"><ele>394.0</ele><time>2026-04-28T15:04:59.999Z</time></trkpt><trkpt lat="37.99862043039223" lon="15.325370054799714"><ele>398.75</ele><time>2026-04-28T15:05:00.999Z</time></trkpt><trkpt lat="37.998515013910385" lon="15.32527078179165"><ele>403.5</ele><time>2026-04-28T15:05:01.999Z</time></trkpt><trkpt lat="37.99844965672658" lon="15.325154413772736"><ele>408.25</ele><time>2026-04-28T15:05:02.999Z</time></trkpt><trkpt lat="37.99841814235737" lon="15.325019904946954"><ele>413.0</ele><time>2026-04-28T15:05:03.999Z</time></trkpt><trkpt lat="37.99842834812763" lon="15.3248604536082"><ele>415.5</ele><time>2026-04-28T15:05:04.999Z</time></trkpt><trkpt lat="37.99846004009735" lon="15.324684839550548"><ele>418.0</ele><time>2026-04-28T15:05:05.999Z</time></trkpt><trkpt lat="37.99851050999742" lon="15.324521561557077"><ele>420.5</ele><time>2026-04-28T15:05:06.999Z</time></trkpt><trkpt lat="37.99854360014101" lon="15.324404125296407"><ele>423.0</ele><time>2026-04-28T15:05:07.999Z</time></trkpt><trkpt lat="37.998503216240316" lon="15.32428235429647"><ele>423.0</ele><time>2026-04-28T15:05:08.999Z</time></trkpt><trkpt lat="37.99842430348859" lon="15.324185919657536"><ele>423.0</ele><time>2026-04-28T15:05:09.999Z</time></trkpt><trkpt lat="37.99830396572466" lon="15.324125541665579"><ele>423.0</ele><time>2026-04-28T15:05:10.999Z</time></trkpt><trkpt lat="37.998183858407046" lon="15.324069365619133"><ele>423.0</ele><time>2026-04-28T15:05:11.999Z</time></trkpt><trkpt lat="37.99808888748188" lon="15.324004366806966"><ele>418.6666666666667</ele><time>2026-04-28T15:05:12.999Z</time></trkpt><trkpt lat="37.998009986574566" lon="15.323941562857618"><ele>414.33333333333337</ele><time>2026-04-28T15:05:13.999Z</time></trkpt><trkpt lat="37.99795288484117" lon="15.32386994924041"><ele>410.0</ele><time>2026-04-28T15:05:14.999Z</time></trkpt><trkpt lat="37.99793448645811" lon="15.323777481577961"><ele>405.6666666666667</ele><time>2026-04-28T15:05:15.999Z</time></trkpt><trkpt lat="37.997968522014965" lon="15.323682654788282"><ele>401.33333333333337</ele><time>2026-04-28T15:05:16.999Z</time></trkpt><trkpt lat="37.99804841906194" lon="15.323581208025855"><ele>397.0</ele><time>2026-04-28T15:05:17.999Z</time></trkpt><trkpt lat="37.99814128659311" lon="15.323471703256388"><ele>397.0</ele><time>2026-04-28T15:05:18.999Z</time></trkpt><trkpt lat="37.99822956552957" lon="15.32332117739415"><ele>397.0</ele><time>2026-04-28T15:05:19.999Z</time></trkpt><trkpt lat="37.9983032799628" lon="15.323138667175073"><ele>397.0</ele><time>2026-04-28T15:05:20.999Z</time></trkpt><trkpt lat="37.99835720949716" lon="15.322934235153719"><ele>396.0</ele><time>2026-04-28T15:05:21.999Z</time></trkpt><trkpt lat="37.99838368537557" lon="15.32274625772299"><ele>395.0</ele><time>2026-04-28T15:05:22.999Z</time></trkpt><trkpt lat="37.99839361277499" lon="15.32259765832935"><ele>394.0</ele><time>2026-04-28T15:05:23.999Z</time></trkpt><trkpt lat="37.99838217575609" lon="15.32246756575802"><ele>393.0</ele><time>2026-04-28T15:05:24.999Z</time></trkpt><trkpt lat="37.998325475379644" lon="15.322340056219995"><ele>391.59999999999997</ele><time>2026-04-28T15:05:25.999Z</time></trkpt><trkpt lat="37.99825643389039" lon="15.322214253694206"><ele>390.2</ele><time>2026-04-28T15:05:26.999Z</time></trkpt><trkpt lat="37.99823460729025" lon="15.322095721728536"><ele>388.8</ele><time>2026-04-28T15:05:27.999Z</time></trkpt><trkpt lat="37.998267058523034" lon="15.32199177643661"><ele>387.4</ele><time>2026-04-28T15:05:28.999Z</time></trkpt><trkpt lat="37.9983505452098" lon="15.321899751538123"><ele>386.0</ele><time>2026-04-28T15:05:29.999Z</time></trkpt><trkpt lat="37.99846151825935" lon="15.321813396922506"><ele>389.75</ele><time>2026-04-28T15:05:30.999Z</time></trkpt><trkpt lat="37.998577873302445" lon="15.32170707389468"><ele>393.5</ele><time>2026-04-28T15:05:31.999Z</time></trkpt><trkpt lat="37.998684452153135" lon="15.32156575380838"><ele>397.25</ele><time>2026-04-28T15:05:32.999Z</time></trkpt><trkpt lat="37.998778008170596" lon="15.32141852974482"><ele>401.0</ele><time>2026-04-28T15:05:33.999Z</time></trkpt><trkpt lat="37.99887080939477" lon="15.321302932927233"><ele>401.0</ele><time>2026-04-28T15:05:34.999Z</time></trkpt><trkpt lat="37.99897963140081" lon="15.321221144320004"><ele>401.0</ele><time>2026-04-28T15:05:35.999Z</time></trkpt><trkpt lat="37.999086077990086" lon="15.32117087488222"><ele>401.0</ele><time>2026-04-28T15:05:36.999Z</time></trkpt><trkpt lat="37.99915746716488" lon="15.321092002195517"><ele>401.0</ele><time>2026-04-28T15:05:37.999Z</time></trkpt><trkpt lat="37.99917877533393" lon="15.320947197505603"><ele>402.5</ele><time>2026-04-28T15:05:38.999Z</time></trkpt><trkpt lat="37.99920273284308" lon="15.320778480234459"><ele>404.0</ele><time>2026-04-28T15:05:39.999Z</time></trkpt><trkpt lat="37.99926496011305" lon="15.320623148075677"><ele>405.5</ele><time>2026-04-28T15:05:40.999Z</time></trkpt><trkpt lat="37.9993639884384" lon="15.32051879570636"><ele>407.0</ele><time>2026-04-28T15:05:41.999Z</time></trkpt><trkpt lat="37.999456495604036" lon="15.320461868162038"><ele>407.0</ele><time>2026-04-28T15:05:42.999Z</time></trkpt><trkpt lat="37.999556255395" lon="15.320456779218032"><ele>407.0</ele><time>2026-04-28T15:05:43.998Z</time></trkpt><trkpt lat="37.9996700413897" lon="15.320468025180789"><ele>407.0</ele><time>2026-04-28T15:05:44.998Z</time></trkpt><trkpt lat="37.99976228844799" lon="15.320420471703931"><ele>407.0</ele><time>2026-04-28T15:05:45.998Z</time></trkpt><trkpt lat="37.99984158385518" lon="15.320297217175515"><ele>407.0</ele><time>2026-04-28T15:05:46.998Z</time></trkpt><trkpt lat="37.999912257848855" lon="15.32012683708769"><ele>407.0</ele><time>2026-04-28T15:05:47.998Z</time></trkpt><trkpt lat="37.999988291500735" lon="15.319936025769177"><ele>407.0</ele><time>2026-04-28T15:05:48.998Z</time></trkpt><trkpt lat="38.0000815977301" lon="15.31974784889497"><ele>407.0</ele><time>2026-04-28T15:05:49.998Z</time></trkpt><trkpt lat="38.00016315432616" lon="15.319585452056593"><ele>402.0</ele><time>2026-04-28T15:05:50.998Z</time></trkpt><trkpt lat="38.00022529421935" lon="15.319448198267269"><ele>397.0</ele><time>2026-04-28T15:05:51.998Z</time></trkpt><trkpt lat="38.00028851717235" lon="15.319339632021721"><ele>392.0</ele><time>2026-04-28T15:05:52.998Z</time></trkpt><trkpt lat="38.0003829611917" lon="15.319275665926083"><ele>387.0</ele><time>2026-04-28T15:05:53.998Z</time></trkpt><trkpt lat="38.00051587643442" lon="15.319248671268268"><ele>387.0</ele><time>2026-04-28T15:05:54.998Z</time></trkpt><trkpt lat="38.00065675668779" lon="15.31922241473902"><ele>387.0</ele><time>2026-04-28T15:05:55.998Z</time></trkpt><trkpt lat="38.0007578722595" lon="15.319151305002691"><ele>387.0</ele><time>2026-04-28T15:05:56.998Z</time></trkpt><trkpt lat="38.00083488655012" lon="15.319029735896397"><ele>387.0</ele><time>2026-04-28T15:05:57.998Z</time></trkpt><trkpt lat="38.00089078658697" lon="15.318872195915436"><ele>389.20000000000005</ele><time>2026-04-28T15:05:58.998Z</time></trkpt><trkpt lat="38.00092160243004" lon="15.318714642125189"><ele>391.4</ele><time>2026-04-28T15:05:59.998Z</time></trkpt><trkpt lat="38.00096679789497" lon="15.318609838279114"><ele>393.6</ele><time>2026-04-28T15:06:00.998Z</time></trkpt><trkpt lat="38.00104148926968" lon="15.318551145597453"><ele>395.79999999999995</ele><time>2026-04-28T15:06:01.998Z</time></trkpt><trkpt lat="38.001146599734135" lon="15.318538068181882"><ele>398.0</ele><time>2026-04-28T15:06:02.998Z</time></trkpt><trkpt lat="38.001269181813356" lon="15.318543771931276"><ele>398.0</ele><time>2026-04-28T15:06:03.998Z</time></trkpt><trkpt lat="38.00142122217067" lon="15.318542263213383"><ele>398.0</ele><time>2026-04-28T15:06:04.998Z</time></trkpt><trkpt lat="38.00157292299983" lon="15.31848696346543"><ele>398.0</ele><time>2026-04-28T15:06:05.998Z</time></trkpt><trkpt lat="38.0017067363988" lon="15.318425411926984"><ele>403.5</ele><time>2026-04-28T15:06:06.998Z</time></trkpt><trkpt lat="38.001827479013244" lon="15.318388008890727"><ele>409.0</ele><time>2026-04-28T15:06:08Z</time></trkpt><trkpt lat="38.001945949763865" lon="15.318344505063555"><ele>414.5</ele><time>2026-04-28T15:06:09Z</time></trkpt><trkpt lat="38.002060053650645" lon="15.318305433867353"><ele>420.0</ele><time>2026-04-28T15:06:10Z</time></trkpt><trkpt lat="38.002159824197506" lon="15.318243925027094"><ele>420.0</ele><time>2026-04-28T15:06:11Z</time></trkpt><trkpt lat="38.00224015070602" lon="15.318153063239329"><ele>420.0</ele><time>2026-04-28T15:06:12Z</time></trkpt><trkpt lat="38.00230751358887" lon="15.318027563977761"><ele>420.0</ele><time>2026-04-28T15:06:13Z</time></trkpt><trkpt lat="38.002365632339654" lon="15.317869208242554"><ele>420.0</ele><time>2026-04-28T15:06:14Z</time></trkpt><trkpt lat="38.0024264895375" lon="15.317716098523041"><ele>420.6</ele><time>2026-04-28T15:06:15Z</time></trkpt><trkpt lat="38.00248592695757" lon="15.317590317251863"><ele>421.2</ele><time>2026-04-28T15:06:16Z</time></trkpt><trkpt lat="38.00253909828302" lon="15.317488901495006"><ele>421.79999999999995</ele><time>2026-04-28T15:06:17Z</time></trkpt><trkpt lat="38.00257673088392" lon="15.31741048721505"><ele>422.4</ele><time>2026-04-28T15:06:18Z</time></trkpt><trkpt lat="38.00267043641606" lon="15.317353060870873"><ele>423.0</ele><time>2026-04-28T15:06:20Z</time></trkpt><trkpt lat="38.00276774620063" lon="15.317396001718766"><ele>423.0</ele><time>2026-04-28T15:06:21Z</time></trkpt><trkpt lat="38.00288962442696" lon="15.317435913296457"><ele>423.0</ele><time>2026-04-28T15:06:22Z</time></trkpt><trkpt lat="38.003000233693186" lon="15.31746137497248"><ele>423.0</ele><time>2026-04-28T15:06:23Z</time></trkpt><trkpt lat="38.00308866808531" lon="15.317480636847598"><ele>423.0</ele><time>2026-04-28T15:06:24Z</time></trkpt><trkpt lat="38.00316861364438" lon="15.317501454392415"><ele>423.0</ele><time>2026-04-28T15:06:25Z</time></trkpt><trkpt lat="38.00325057044325" lon="15.31749724072978"><ele>423.79999999999995</ele><time>2026-04-28T15:06:26Z</time></trkpt><trkpt lat="38.003338042293485" lon="15.317437432120538"><ele>424.6</ele><time>2026-04-28T15:06:27Z</time></trkpt><trkpt lat="38.0034263447971" lon="15.317342986187716"><ele>425.40000000000003</ele><time>2026-04-28T15:06:28Z</time></trkpt><trkpt lat="38.00350293354573" lon="15.317267708811409"><ele>426.20000000000005</ele><time>2026-04-28T15:06:29Z</time></trkpt><trkpt lat="38.003566148549666" lon="15.317223090669106"><ele>427.0</ele><time>2026-04-28T15:06:29.999Z</time></trkpt><trkpt lat="38.00364548659879" lon="15.317188185241813"><ele>424.6</ele><time>2026-04-28T15:06:31.999Z</time></trkpt><trkpt lat="38.003720000948995" lon="15.317140865555794"><ele>422.20000000000005</ele><time>2026-04-28T15:06:33.999Z</time></trkpt><trkpt lat="38.0037650605826" lon="15.317071755311714"><ele>419.8</ele><time>2026-04-28T15:06:34.999Z</time></trkpt><trkpt lat="38.00385868936523" lon="15.316985076079378"><ele>417.4</ele><time>2026-04-28T15:06:35.999Z</time></trkpt><trkpt lat="38.003971629818665" lon="15.316890311438417"><ele>415.0</ele><time>2026-04-28T15:06:36.999Z</time></trkpt><trkpt lat="38.0040762255831" lon="15.316817830272523"><ele>418.5</ele><time>2026-04-28T15:06:37.999Z</time></trkpt><trkpt lat="38.00419423101758" lon="15.316721422994396"><ele>422.0</ele><time>2026-04-28T15:06:38.999Z</time></trkpt><trkpt lat="38.00431657316241" lon="15.316622657845581"><ele>425.5</ele><time>2026-04-28T15:06:39.999Z</time></trkpt><trkpt lat="38.00443810247389" lon="15.316518741081532"><ele>429.0</ele><time>2026-04-28T15:06:40.999Z</time></trkpt><trkpt lat="38.00455942526624" lon="15.316426377041342"><ele>426.5</ele><time>2026-04-28T15:06:41.999Z</time></trkpt><trkpt lat="38.00467418623489" lon="15.316333763555406"><ele>424.0</ele><time>2026-04-28T15:06:42.999Z</time></trkpt><trkpt lat="38.00478902237977" lon="15.31624018679342"><ele>421.5</ele><time>2026-04-28T15:06:43.999Z</time></trkpt><trkpt lat="38.004916861100966" lon="15.316141652304982"><ele>419.0</ele><time>2026-04-28T15:06:44.999Z</time></trkpt><trkpt lat="38.005033845898836" lon="15.316054043232077"><ele>419.0</ele><time>2026-04-28T15:06:45.999Z</time></trkpt><trkpt lat="38.005126979749804" lon="15.315969061007962"><ele>419.0</ele><time>2026-04-28T15:06:46.999Z</time></trkpt><trkpt lat="38.005218238495125" lon="15.315892531510837"><ele>419.0</ele><time>2026-04-28T15:06:47.999Z</time></trkpt><trkpt lat="38.00529748794262" lon="15.315821843533362"><ele>419.0</ele><time>2026-04-28T15:06:48.999Z</time></trkpt><trkpt lat="38.005356198961984" lon="15.315735880843258"><ele>419.0</ele><time>2026-04-28T15:06:49.999Z</time></trkpt><trkpt lat="38.0053802874906" lon="15.31562363289135"><ele>420.2</ele><time>2026-04-28T15:06:50.999Z</time></trkpt><trkpt lat="38.00536821389527" lon="15.315500467648926"><ele>421.4</ele><time>2026-04-28T15:06:51.999Z</time></trkpt><trkpt lat="38.00531583872129" lon="15.31538931828282"><ele>422.6</ele><time>2026-04-28T15:06:52.999Z</time></trkpt><trkpt lat="38.00523022390975" lon="15.315285279122902"><ele>423.8</ele><time>2026-04-28T15:06:53.999Z</time></trkpt><trkpt lat="38.005118515363186" lon="15.315215592897815"><ele>425.0</ele><time>2026-04-28T15:06:54.999Z</time></trkpt><trkpt lat="38.00503664263525" lon="15.315156021152026"><ele>425.0</ele><time>2026-04-28T15:06:55.999Z</time></trkpt><trkpt lat="38.004979715800694" lon="15.31510921468045"><ele>425.0</ele><time>2026-04-28T15:06:56.999Z</time></trkpt><trkpt lat="38.00495310075159" lon="15.31495134533511"><ele>425.0</ele><time>2026-04-28T15:06:58.999Z</time></trkpt><trkpt lat="38.00499714868568" lon="15.314855358501848"><ele>425.0</ele><time>2026-04-28T15:06:59.999Z</time></trkpt><trkpt lat="38.005068043127714" lon="15.314751303117987"><ele>425.0</ele><time>2026-04-28T15:07:00.999Z</time></trkpt><trkpt lat="38.005123479378305" lon="15.314607899928253"><ele>423.0</ele><time>2026-04-28T15:07:01.999Z</time></trkpt><trkpt lat="38.00518542750065" lon="15.31446631583348"><ele>421.0</ele><time>2026-04-28T15:07:02.999Z</time></trkpt><trkpt lat="38.00526146456364" lon="15.314330456862326"><ele>419.0</ele><time>2026-04-28T15:07:03.999Z</time></trkpt><trkpt lat="38.005349862785096" lon="15.314197686753081"><ele>417.0</ele><time>2026-04-28T15:07:04.999Z</time></trkpt><trkpt lat="38.00544605234652" lon="15.314067446315644"><ele>417.0</ele><time>2026-04-28T15:07:05.999Z</time></trkpt><trkpt lat="38.00551758409768" lon="15.313919902537773"><ele>417.0</ele><time>2026-04-28T15:07:06.999Z</time></trkpt><trkpt lat="38.005567073996005" lon="15.313745937585436"><ele>417.0</ele><time>2026-04-28T15:07:07.999Z</time></trkpt><trkpt lat="38.005621959426634" lon="15.313575268323307"><ele>417.0</ele><time>2026-04-28T15:07:08.999Z</time></trkpt><trkpt lat="38.00567695707992" lon="15.31341766998575"><ele>417.25</ele><time>2026-04-28T15:07:09.999Z</time></trkpt><trkpt lat="38.005725904287864" lon="15.313266604174013"><ele>417.5</ele><time>2026-04-28T15:07:10.999Z</time></trkpt><trkpt lat="38.00579310777328" lon="15.31313322547621"><ele>417.75</ele><time>2026-04-28T15:07:11.999Z</time></trkpt><trkpt lat="38.00587270535965" lon="15.313022866275528"><ele>418.0</ele><time>2026-04-28T15:07:12.999Z</time></trkpt><trkpt lat="38.00595999076859" lon="15.31294741465678"><ele>418.0</ele><time>2026-04-28T15:07:13.999Z</time></trkpt><trkpt lat="38.006057038119984" lon="15.312904531194253"><ele>418.0</ele><time>2026-04-28T15:07:14.999Z</time></trkpt><trkpt lat="38.006181742502044" lon="15.312879642615417"><ele>418.0</ele><time>2026-04-28T15:07:15.999Z</time></trkpt><trkpt lat="38.00632283578268" lon="15.312844340201085"><ele>418.0</ele><time>2026-04-28T15:07:16.999Z</time></trkpt><trkpt lat="38.00646377244538" lon="15.312794010767705"><ele>418.0</ele><time>2026-04-28T15:07:17.999Z</time></trkpt><trkpt lat="38.00658515754778" lon="15.312730032382603"><ele>418.0</ele><time>2026-04-28T15:07:18.999Z</time></trkpt><trkpt lat="38.00669238147024" lon="15.312646163263663"><ele>418.0</ele><time>2026-04-28T15:07:19.999Z</time></trkpt><trkpt lat="38.00681379879731" lon="15.312553617411535"><ele>418.0</ele><time>2026-04-28T15:07:20.999Z</time></trkpt><trkpt lat="38.006950012596555" lon="15.312459293598124"><ele>419.33333333333337</ele><time>2026-04-28T15:07:21.999Z</time></trkpt><trkpt lat="38.007096199992446" lon="15.312365620230954"><ele>420.66666666666663</ele><time>2026-04-28T15:07:22.999Z</time></trkpt><trkpt lat="38.00725286630703" lon="15.312265215061899"><ele>422.0</ele><time>2026-04-28T15:07:23.999Z</time></trkpt><trkpt lat="38.00741178703602" lon="15.312168413715241"><ele>425.5</ele><time>2026-04-28T15:07:24.999Z</time></trkpt><trkpt lat="38.007534072580206" lon="15.312085778890612"><ele>429.0</ele><time>2026-04-28T15:07:25.999Z</time></trkpt><trkpt lat="38.00763988213809" lon="15.312011364113486"><ele>432.5</ele><time>2026-04-28T15:07:26.999Z</time></trkpt><trkpt lat="38.00772343970802" lon="15.311895734593712"><ele>436.0</ele><time>2026-04-28T15:07:27.999Z</time></trkpt><trkpt lat="38.00779551688705" lon="15.31175614740668"><ele>436.0</ele><time>2026-04-28T15:07:28.999Z</time></trkpt><trkpt lat="38.00785130627667" lon="15.311608979391334"><ele>436.0</ele><time>2026-04-28T15:07:29.999Z</time></trkpt><trkpt lat="38.00790048897144" lon="15.311511808850833"><ele>436.0</ele><time>2026-04-28T15:07:30.999Z</time></trkpt><trkpt lat="38.00796801733194" lon="15.311467738739502"><ele>436.0</ele><time>2026-04-28T15:07:31.999Z</time></trkpt><trkpt lat="38.00806512488384" lon="15.311455966274428"><ele>436.0</ele><time>2026-04-28T15:07:32.999Z</time></trkpt><trkpt lat="38.00817388977628" lon="15.3114867081255"><ele>436.0</ele><time>2026-04-28T15:07:33.999Z</time></trkpt><trkpt lat="38.008286519747514" lon="15.31155191613121"><ele>436.0</ele><time>2026-04-28T15:07:34.999Z</time></trkpt><trkpt lat="38.0083908864094" lon="15.31159882454661"><ele>436.0</ele><time>2026-04-28T15:07:35.999Z</time></trkpt><trkpt lat="38.00847692738272" lon="15.311604293762123"><ele>436.0</ele><time>2026-04-28T15:07:36.999Z</time></trkpt><trkpt lat="38.008554360956005" lon="15.311562891109578"><ele>436.0</ele><time>2026-04-28T15:07:37.999Z</time></trkpt><trkpt lat="38.00862604810378" lon="15.311476833750785"><ele>435.8</ele><time>2026-04-28T15:07:38.999Z</time></trkpt><trkpt lat="38.0087011126429" lon="15.311406678794475"><ele>435.6</ele><time>2026-04-28T15:07:39.999Z</time></trkpt><trkpt lat="38.00878674964021" lon="15.311393438653802"><ele>435.4</ele><time>2026-04-28T15:07:40.999Z</time></trkpt><trkpt lat="38.00888670190744" lon="15.311398397985446"><ele>435.2</ele><time>2026-04-28T15:07:41.999Z</time></trkpt><trkpt lat="38.00898981817028" lon="15.311440863060525"><ele>435.0</ele><time>2026-04-28T15:07:42.999Z</time></trkpt><trkpt lat="38.00908717282154" lon="15.311505104561531"><ele>438.0</ele><time>2026-04-28T15:07:43.999Z</time></trkpt><trkpt lat="38.0091744300591" lon="15.311545513541647"><ele>441.0</ele><time>2026-04-28T15:07:44.999Z</time></trkpt><trkpt lat="38.00924927018343" lon="15.311532007909518"><ele>444.0</ele><time>2026-04-28T15:07:45.999Z</time></trkpt><trkpt lat="38.00930572032389" lon="15.311475904405565"><ele>447.0</ele><time>2026-04-28T15:07:46.999Z</time></trkpt><trkpt lat="38.00933927040993" lon="15.311369233054284"><ele>450.0</ele><time>2026-04-28T15:07:47.999Z</time></trkpt><trkpt lat="38.009349993357034" lon="15.31125590217145"><ele>453.0</ele><time>2026-04-28T15:07:48.999Z</time></trkpt><trkpt lat="38.00932851232274" lon="15.311121677793452"><ele>453.0</ele><time>2026-04-28T15:07:49.999Z</time></trkpt><trkpt lat="38.009288479882" lon="15.310983778744902"><ele>452.99999999999994</ele><time>2026-04-28T15:07:50.998Z</time></trkpt><trkpt lat="38.0092881576433" lon="15.310861647759696"><ele>452.99999999999994</ele><time>2026-04-28T15:07:51.998Z</time></trkpt><trkpt lat="38.00931995326534" lon="15.310747160759709"><ele>453.0</ele><time>2026-04-28T15:07:52.998Z</time></trkpt><trkpt lat="38.00936999675063" lon="15.310651449572644"><ele>453.0</ele><time>2026-04-28T15:07:53.998Z</time></trkpt><trkpt lat="38.00944616890026" lon="15.310551855263656"><ele>452.75</ele><time>2026-04-28T15:07:54.998Z</time></trkpt><trkpt lat="38.0095310275835" lon="15.310439631563797"><ele>452.5</ele><time>2026-04-28T15:07:55.998Z</time></trkpt><trkpt lat="38.00958790921866" lon="15.310290979771969"><ele>452.25</ele><time>2026-04-28T15:07:56.998Z</time></trkpt><trkpt lat="38.00961769741962" lon="15.310123283460962"><ele>452.0</ele><time>2026-04-28T15:07:57.998Z</time></trkpt><trkpt lat="38.00965112783296" lon="15.30999248984447"><ele>452.0</ele><time>2026-04-28T15:07:58.998Z</time></trkpt><trkpt lat="38.009685575015126" lon="15.309898522792954"><ele>452.00000000000006</ele><time>2026-04-28T15:07:59.998Z</time></trkpt><trkpt lat="38.00971381087453" lon="15.30982385696518"><ele>452.00000000000006</ele><time>2026-04-28T15:08:00.998Z</time></trkpt><trkpt lat="38.0097119861848" lon="15.309699472359235"><ele>452.0</ele><time>2026-04-28T15:08:02.998Z</time></trkpt><trkpt lat="38.00962169228088" lon="15.309569733800261"><ele>452.0</ele><time>2026-04-28T15:08:04.998Z</time></trkpt><trkpt lat="38.00954932695197" lon="15.309522831928417"><ele>453.8333333333333</ele><time>2026-04-28T15:08:05.998Z</time></trkpt><trkpt lat="38.00947540394102" lon="15.30947339910807"><ele>455.66666666666663</ele><time>2026-04-28T15:08:06.998Z</time></trkpt><trkpt lat="38.009400615752384" lon="15.309421099240433"><ele>457.5</ele><time>2026-04-28T15:08:07.998Z</time></trkpt><trkpt lat="38.00932396340786" lon="15.309364674615905"><ele>459.33333333333337</ele><time>2026-04-28T15:08:08.998Z</time></trkpt><trkpt lat="38.00924718048957" lon="15.309306380078485"><ele>461.1666666666667</ele><time>2026-04-28T15:08:09.998Z</time></trkpt><trkpt lat="38.00918247992301" lon="15.309245751074496"><ele>463.0</ele><time>2026-04-28T15:08:10.998Z</time></trkpt><trkpt lat="38.00915885462021" lon="15.309092937618878"><ele>463.0</ele><time>2026-04-28T15:08:12.998Z</time></trkpt><trkpt lat="38.009202736484305" lon="15.30898083373872"><ele>462.99999999999994</ele><time>2026-04-28T15:08:14Z</time></trkpt><trkpt lat="38.009235183218124" lon="15.308880304180668"><ele>462.99999999999994</ele><time>2026-04-28T15:08:15Z</time></trkpt><trkpt lat="38.00925928953384" lon="15.308780953015184"><ele>463.0</ele><time>2026-04-28T15:08:16Z</time></trkpt><trkpt lat="38.00928718956163" lon="15.308672370417858"><ele>463.0</ele><time>2026-04-28T15:08:17Z</time></trkpt><trkpt lat="38.00932346512237" lon="15.308558289323349"><ele>467.2</ele><time>2026-04-28T15:08:18Z</time></trkpt><trkpt lat="38.00937238388998" lon="15.308434454521189"><ele>471.4</ele><time>2026-04-28T15:08:19Z</time></trkpt><trkpt lat="38.00943874257027" lon="15.308323310147173"><ele>475.59999999999997</ele><time>2026-04-28T15:08:20Z</time></trkpt><trkpt lat="38.0095102754402" lon="15.308220255346583"><ele>479.79999999999995</ele><time>2026-04-28T15:08:21Z</time></trkpt><trkpt lat="38.00958057861132" lon="15.308125270901785"><ele>484.0</ele><time>2026-04-28T15:08:22Z</time></trkpt><trkpt lat="38.00965179658953" lon="15.308045823698327"><ele>484.4</ele><time>2026-04-28T15:08:23Z</time></trkpt><trkpt lat="38.00973562770105" lon="15.307993226645126"><ele>484.79999999999995</ele><time>2026-04-28T15:08:24Z</time></trkpt><trkpt lat="38.009839637240866" lon="15.307941608103778"><ele>485.20000000000005</ele><time>2026-04-28T15:08:25Z</time></trkpt><trkpt lat="38.009951442700185" lon="15.30788646098657"><ele>485.6</ele><time>2026-04-28T15:08:26Z</time></trkpt><trkpt lat="38.010059849886076" lon="15.307828632610526"><ele>486.0</ele><time>2026-04-28T15:08:27Z</time></trkpt><trkpt lat="38.01014353584574" lon="15.307773538965213"><ele>486.0</ele><time>2026-04-28T15:08:28Z</time></trkpt><trkpt lat="38.010202358226145" lon="15.307709828794835"><ele>486.0</ele><time>2026-04-28T15:08:29Z</time></trkpt><trkpt lat="38.01022827249407" lon="15.307631201600175"><ele>486.0</ele><time>2026-04-28T15:08:30Z</time></trkpt><trkpt lat="38.01023760599548" lon="15.307524768631795"><ele>486.0</ele><time>2026-04-28T15:08:31Z</time></trkpt><trkpt lat="38.0102322513681" lon="15.307406777365768"><ele>486.0</ele><time>2026-04-28T15:08:32Z</time></trkpt><trkpt lat="38.01031094877963" lon="15.307260261007736"><ele>495.5</ele><time>2026-04-28T15:08:34Z</time></trkpt><trkpt lat="38.010398923904354" lon="15.307182977399235"><ele>505.0</ele><time>2026-04-28T15:08:35Z</time></trkpt><trkpt lat="38.01050904650836" lon="15.307093217318391"><ele>514.5</ele><time>2026-04-28T15:08:35.999Z</time></trkpt><trkpt lat="38.010617477686715" lon="15.306983381976274"><ele>524.0</ele><time>2026-04-28T15:08:36.999Z</time></trkpt><trkpt lat="38.01072194873774" lon="15.306839583445843"><ele>524.0</ele><time>2026-04-28T15:08:37.999Z</time></trkpt><trkpt lat="38.010818769535526" lon="15.30666380950757"><ele>524.0</ele><time>2026-04-28T15:08:38.999Z</time></trkpt><trkpt lat="38.010901086555684" lon="15.306510209509174"><ele>524.0</ele><time>2026-04-28T15:08:39.999Z</time></trkpt><trkpt lat="38.01097672057546" lon="15.306394715412983"><ele>524.0</ele><time>2026-04-28T15:08:40.999Z</time></trkpt><trkpt lat="38.01104247063362" lon="15.30630739703548"><ele>524.25</ele><time>2026-04-28T15:08:41.999Z</time></trkpt><trkpt lat="38.011119056208635" lon="15.306254660832382"><ele>524.5</ele><time>2026-04-28T15:08:42.999Z</time></trkpt><trkpt lat="38.01122404029057" lon="15.306231455824578"><ele>524.75</ele><time>2026-04-28T15:08:43.999Z</time></trkpt><trkpt lat="38.011339034328465" lon="15.30618726373934"><ele>525.0</ele><time>2026-04-28T15:08:44.999Z</time></trkpt><trkpt lat="38.01146395766283" lon="15.30610504413945"><ele>525.0</ele><time>2026-04-28T15:08:45.999Z</time></trkpt><trkpt lat="38.011589819640356" lon="15.305996952034889"><ele>525.0</ele><time>2026-04-28T15:08:46.999Z</time></trkpt><trkpt lat="38.01169772606953" lon="15.305906396031009"><ele>525.0</ele><time>2026-04-28T15:08:47.999Z</time></trkpt><trkpt lat="38.01178772153258" lon="15.305824591201864"><ele>525.0</ele><time>2026-04-28T15:08:48.999Z</time></trkpt><trkpt lat="38.01186516094528" lon="15.305727780071434"><ele>519.5</ele><time>2026-04-28T15:08:49.999Z</time></trkpt><trkpt lat="38.01192896920067" lon="15.305583160701152"><ele>514.0</ele><time>2026-04-28T15:08:50.999Z</time></trkpt><trkpt lat="38.0119803150872" lon="15.305439109360607"><ele>508.5</ele><time>2026-04-28T15:08:51.999Z</time></trkpt><trkpt lat="38.01204454757334" lon="15.305335149209403"><ele>503.0</ele><time>2026-04-28T15:08:52.999Z</time></trkpt><trkpt lat="38.01213684613884" lon="15.305269207296405"><ele>503.0</ele><time>2026-04-28T15:08:53.999Z</time></trkpt><trkpt lat="38.01224521558126" lon="15.305198840557532"><ele>502.99999999999994</ele><time>2026-04-28T15:08:54.999Z</time></trkpt><trkpt lat="38.012342436841614" lon="15.305142111793883"><ele>502.99999999999994</ele><time>2026-04-28T15:08:55.999Z</time></trkpt><trkpt lat="38.01244627908409" lon="15.305098661864413"><ele>503.0</ele><time>2026-04-28T15:08:57.999Z</time></trkpt><trkpt lat="38.01253552423766" lon="15.30511181043896"><ele>503.0</ele><time>2026-04-28T15:08:58.999Z</time></trkpt><trkpt lat="38.012619311306175" lon="15.305160619006577"><ele>504.0</ele><time>2026-04-28T15:08:59.999Z</time></trkpt><trkpt lat="38.01269801844818" lon="15.305246246217589"><ele>504.99999999999994</ele><time>2026-04-28T15:09:00.999Z</time></trkpt><trkpt lat="38.012774660496866" lon="15.30535407082362"><ele>505.99999999999994</ele><time>2026-04-28T15:09:01.999Z</time></trkpt><trkpt lat="38.01284228429684" lon="15.30545130270814"><ele>507.0</ele><time>2026-04-28T15:09:02.999Z</time></trkpt><trkpt lat="38.01292388437636" lon="15.30549823115954"><ele>508.0</ele><time>2026-04-28T15:09:03.999Z</time></trkpt><trkpt lat="38.013029343403254" lon="15.305490763163478"><ele>508.0</ele><time>2026-04-28T15:09:04.999Z</time></trkpt><trkpt lat="38.013159507535235" lon="15.30545783001054"><ele>508.0</ele><time>2026-04-28T15:09:05.999Z</time></trkpt><trkpt lat="38.013317266306856" lon="15.30542334219518"><ele>508.0</ele><time>2026-04-28T15:09:06.999Z</time></trkpt><trkpt lat="38.01348226731115" lon="15.305373100697691"><ele>511.25</ele><time>2026-04-28T15:09:07.999Z</time></trkpt><trkpt lat="38.013634647730385" lon="15.305321297643644"><ele>514.5</ele><time>2026-04-28T15:09:08.999Z</time></trkpt><trkpt lat="38.013776633433125" lon="15.305279143581108"><ele>517.75</ele><time>2026-04-28T15:09:09.999Z</time></trkpt><trkpt lat="38.01391588058768" lon="15.305256650930108"><ele>521.0</ele><time>2026-04-28T15:09:10.999Z</time></trkpt><trkpt lat="38.01406215906962" lon="15.305264486245967"><ele>521.25</ele><time>2026-04-28T15:09:11.999Z</time></trkpt><trkpt lat="38.014213075963696" lon="15.305279618627594"><ele>521.5</ele><time>2026-04-28T15:09:12.999Z</time></trkpt><trkpt lat="38.014347977573685" lon="15.3052945395885"><ele>521.75</ele><time>2026-04-28T15:09:13.999Z</time></trkpt><trkpt lat="38.014464362336525" lon="15.305318577925888"><ele>522.0</ele><time>2026-04-28T15:09:14.999Z</time></trkpt><trkpt lat="38.014572914869085" lon="15.305353049717933"><ele>522.0</ele><time>2026-04-28T15:09:15.999Z</time></trkpt><trkpt lat="38.01468524711104" lon="15.30536940733409"><ele>522.0</ele><time>2026-04-28T15:09:16.999Z</time></trkpt><trkpt lat="38.014795322858845" lon="15.3053576596858"><ele>522.0</ele><time>2026-04-28T15:09:17.999Z</time></trkpt><trkpt lat="38.01488082354553" lon="15.305324770341585"><ele>522.0</ele><time>2026-04-28T15:09:18.999Z</time></trkpt><trkpt lat="38.014933928643536" lon="15.305262273152472"><ele>522.0</ele><time>2026-04-28T15:09:19.999Z</time></trkpt><trkpt lat="38.01495576333265" lon="15.305151201361106"><ele>522.0</ele><time>2026-04-28T15:09:20.999Z</time></trkpt><trkpt lat="38.01495330358652" lon="15.30498962793279"><ele>522.0</ele><time>2026-04-28T15:09:21.999Z</time></trkpt><trkpt lat="38.01497318017089" lon="15.304849268986132"><ele>522.0</ele><time>2026-04-28T15:09:22.999Z</time></trkpt><trkpt lat="38.01503482237058" lon="15.304735890552331"><ele>522.0</ele><time>2026-04-28T15:09:23.999Z</time></trkpt><trkpt lat="38.01512726176375" lon="15.304646274436665"><ele>526.4</ele><time>2026-04-28T15:09:24.999Z</time></trkpt><trkpt lat="38.01522719616566" lon="15.304551958712239"><ele>530.8000000000001</ele><time>2026-04-28T15:09:25.999Z</time></trkpt><trkpt lat="38.01532185812812" lon="15.304459505136617"><ele>535.2</ele><time>2026-04-28T15:09:26.999Z</time></trkpt><trkpt lat="38.01540750324969" lon="15.3043927295714"><ele>539.6</ele><time>2026-04-28T15:09:27.999Z</time></trkpt><trkpt lat="38.01548625152588" lon="15.304365424617963"><ele>544.0</ele><time>2026-04-28T15:09:28.999Z</time></trkpt><trkpt lat="38.01555760840359" lon="15.30437114462507"><ele>544.0</ele><time>2026-04-28T15:09:29.999Z</time></trkpt><trkpt lat="38.01564863227631" lon="15.304410891288299"><ele>544.0</ele><time>2026-04-28T15:09:30.999Z</time></trkpt><trkpt lat="38.015740769696706" lon="15.30443585821726"><ele>544.0</ele><time>2026-04-28T15:09:31.999Z</time></trkpt><trkpt lat="38.01580681842351" lon="15.304423587958455"><ele>544.0</ele><time>2026-04-28T15:09:32.999Z</time></trkpt><trkpt lat="38.01585914363374" lon="15.304286740769747"><ele>544.0</ele><time>2026-04-28T15:09:34.999Z</time></trkpt><trkpt lat="38.015823880933425" lon="15.304199543475681"><ele>544.0</ele><time>2026-04-28T15:09:35.999Z</time></trkpt><trkpt lat="38.01575255226066" lon="15.30414331530756"><ele>544.0</ele><time>2026-04-28T15:09:36.999Z</time></trkpt><trkpt lat="38.01565380560969" lon="15.304153412132086"><ele>544.0</ele><time>2026-04-28T15:09:37.999Z</time></trkpt><trkpt lat="38.01553372267389" lon="15.304208204129624"><ele>544.0</ele><time>2026-04-28T15:09:38.999Z</time></trkpt><trkpt lat="38.0154083466495" lon="15.304246250086436"><ele>544.0</ele><time>2026-04-28T15:09:39.999Z</time></trkpt><trkpt lat="38.01528737773683" lon="15.30426657656987"><ele>544.0</ele><time>2026-04-28T15:09:40.999Z</time></trkpt><trkpt lat="38.0151535355006" lon="15.304322285954957"><ele>544.0</ele><time>2026-04-28T15:09:41.999Z</time></trkpt><trkpt lat="38.01502881724656" lon="15.304399719509767"><ele>544.0</ele><time>2026-04-28T15:09:42.999Z</time></trkpt><trkpt lat="38.014930650433605" lon="15.304477907495786"><ele>544.0</ele><time>2026-04-28T15:09:43.999Z</time></trkpt><trkpt lat="38.014848984376336" lon="15.304555913948938"><ele>547.1666666666667</ele><time>2026-04-28T15:09:44.999Z</time></trkpt><trkpt lat="38.014785606372044" lon="15.304645714166616"><ele>550.3333333333334</ele><time>2026-04-28T15:09:45.999Z</time></trkpt><trkpt lat="38.0147151813615" lon="15.304745114580804"><ele>553.5</ele><time>2026-04-28T15:09:46.999Z</time></trkpt><trkpt lat="38.014653135915204" lon="15.304786564003324"><ele>556.6666666666666</ele><time>2026-04-28T15:09:47.999Z</time></trkpt><trkpt lat="38.014584458168535" lon="15.304765139536565"><ele>559.8333333333333</ele><time>2026-04-28T15:09:48.999Z</time></trkpt><trkpt lat="38.01448610475653" lon="15.304707939480458"><ele>563.0</ele><time>2026-04-28T15:09:49.999Z</time></trkpt><trkpt lat="38.0143804637816" lon="15.304686884871495"><ele>563.0</ele><time>2026-04-28T15:09:50.999Z</time></trkpt><trkpt lat="38.014289846828135" lon="15.304685644365264"><ele>563.0</ele><time>2026-04-28T15:09:51.999Z</time></trkpt><trkpt lat="38.01422317351551" lon="15.30463857193821"><ele>563.0</ele><time>2026-04-28T15:09:52.999Z</time></trkpt><trkpt lat="38.014166985584644" lon="15.304564573579237"><ele>563.0</ele><time>2026-04-28T15:09:53.999Z</time></trkpt><trkpt lat="38.01409672631637" lon="15.304495250419182"><ele>563.0</ele><time>2026-04-28T15:09:54.999Z</time></trkpt><trkpt lat="38.014027182035576" lon="15.304486714610018"><ele>563.0</ele><time>2026-04-28T15:09:55.998Z</time></trkpt><trkpt lat="38.01393656744429" lon="15.304528575061058"><ele>562.0</ele><time>2026-04-28T15:09:56.998Z</time></trkpt><trkpt lat="38.013835593754024" lon="15.304574421731004"><ele>561.0</ele><time>2026-04-28T15:09:57.998Z</time></trkpt><trkpt lat="38.01375732204672" lon="15.304586706962251"><ele>560.0</ele><time>2026-04-28T15:09:58.998Z</time></trkpt><trkpt lat="38.01367783966813" lon="15.304529479311311"><ele>559.0</ele><time>2026-04-28T15:09:59.998Z</time></trkpt><trkpt lat="38.01357763861801" lon="15.304498271470779"><ele>558.0</ele><time>2026-04-28T15:10:00.998Z</time></trkpt><trkpt lat="38.01347440216009" lon="15.30453148768787"><ele>558.0</ele><time>2026-04-28T15:10:01.998Z</time></trkpt><trkpt lat="38.01337632535468" lon="15.304615248916454"><ele>558.0</ele><time>2026-04-28T15:10:02.998Z</time></trkpt><trkpt lat="38.01330456497468" lon="15.304693741421204"><ele>558.0</ele><time>2026-04-28T15:10:03.998Z</time></trkpt><trkpt lat="38.013214498707924" lon="15.304684781820997"><ele>558.0</ele><time>2026-04-28T15:10:04.998Z</time></trkpt><trkpt lat="38.013158854454225" lon="15.304523559992075"><ele>558.0</ele><time>2026-04-28T15:10:05.998Z</time></trkpt><trkpt lat="38.01306955540957" lon="15.304442311377432"><ele>561.1999999999999</ele><time>2026-04-28T15:10:06.998Z</time></trkpt><trkpt lat="38.013023090696365" lon="15.304325636213594"><ele>564.4</ele><time>2026-04-28T15:10:07.998Z</time></trkpt><trkpt lat="38.01300532313941" lon="15.304212593367739"><ele>567.5999999999999</ele><time>2026-04-28T15:10:08.998Z</time></trkpt><trkpt lat="38.01299600133881" lon="15.304054662046953"><ele>570.8</ele><time>2026-04-28T15:10:09.998Z</time></trkpt><trkpt lat="38.01296855594136" lon="15.303912520810275"><ele>574.0</ele><time>2026-04-28T15:10:10.998Z</time></trkpt><trkpt lat="38.01290175463932" lon="15.30379692475971"><ele>574.0</ele><time>2026-04-28T15:10:11.998Z</time></trkpt><trkpt lat="38.012844420735945" lon="15.30370669651036"><ele>574.0</ele><time>2026-04-28T15:10:12.998Z</time></trkpt><trkpt lat="38.01273654434944" lon="15.303694461656756"><ele>574.0</ele><time>2026-04-28T15:10:13.998Z</time></trkpt><trkpt lat="38.01264438066336" lon="15.303658084210129"><ele>574.0</ele><time>2026-04-28T15:10:14.998Z</time></trkpt><trkpt lat="38.012583776607094" lon="15.303553122129768"><ele>574.0</ele><time>2026-04-28T15:10:15.998Z</time></trkpt><trkpt lat="38.01255193690668" lon="15.303421127596792"><ele>574.0</ele><time>2026-04-28T15:10:16.998Z</time></trkpt><trkpt lat="38.01250214502696" lon="15.303327068175177"><ele>574.0</ele><time>2026-04-28T15:10:17.998Z</time></trkpt><trkpt lat="38.012431560689514" lon="15.303307929672371"><ele>574.0</ele><time>2026-04-28T15:10:18.998Z</time></trkpt><trkpt lat="38.01236458201601" lon="15.303311791964747"><ele>574.0</ele><time>2026-04-28T15:10:20Z</time></trkpt><trkpt lat="38.01224680214894" lon="15.303364171069322"><ele>574.0</ele><time>2026-04-28T15:10:21Z</time></trkpt><trkpt lat="38.0121406674746" lon="15.303438402339982"><ele>571.5</ele><time>2026-04-28T15:10:22Z</time></trkpt><trkpt lat="38.0119996047819" lon="15.303516901636788"><ele>569.0</ele><time>2026-04-28T15:10:23Z</time></trkpt><trkpt lat="38.01188128006836" lon="15.303569192242753"><ele>566.5</ele><time>2026-04-28T15:10:24Z</time></trkpt><trkpt lat="38.01178283716486" lon="15.303596708866975"><ele>564.0</ele><time>2026-04-28T15:10:25Z</time></trkpt><trkpt lat="38.011668734463115" lon="15.303701522680123"><ele>559.75</ele><time>2026-04-28T15:10:26Z</time></trkpt><trkpt lat="38.01160259778945" lon="15.303657738501729"><ele>555.5</ele><time>2026-04-28T15:10:27Z</time></trkpt><trkpt lat="38.01153154203467" lon="15.303546082321963"><ele>551.25</ele><time>2026-04-28T15:10:28Z</time></trkpt><trkpt lat="38.011457430453206" lon="15.303394933082359"><ele>547.0</ele><time>2026-04-28T15:10:29Z</time></trkpt><trkpt lat="38.01137608400272" lon="15.303225743488005"><ele>547.0</ele><time>2026-04-28T15:10:30Z</time></trkpt><trkpt lat="38.01127396886629" lon="15.303105605287305"><ele>547.0</ele><time>2026-04-28T15:10:31Z</time></trkpt><trkpt lat="38.01118189250808" lon="15.303020167015145"><ele>547.0</ele><time>2026-04-28T15:10:32Z</time></trkpt><trkpt lat="38.01110828410212" lon="15.302898703960757"><ele>547.0</ele><time>2026-04-28T15:10:33Z</time></trkpt><trkpt lat="38.011048843014834" lon="15.302742707312193"><ele>552.0</ele><time>2026-04-28T15:10:34Z</time></trkpt><trkpt lat="38.01101169596599" lon="15.302565171013148"><ele>557.0</ele><time>2026-04-28T15:10:35Z</time></trkpt><trkpt lat="38.01099062387878" lon="15.302410841590671"><ele>562.0</ele><time>2026-04-28T15:10:36Z</time></trkpt><trkpt lat="38.01097988966519" lon="15.302270312955212"><ele>567.0</ele><time>2026-04-28T15:10:37Z</time></trkpt><trkpt lat="38.01098562371625" lon="15.302176839869844"><ele>568.5</ele><time>2026-04-28T15:10:38Z</time></trkpt><trkpt lat="38.011010995034155" lon="15.302067973631404"><ele>570.0</ele><time>2026-04-28T15:10:40Z</time></trkpt><trkpt lat="38.01108170111955" lon="15.302053775891109"><ele>571.5</ele><time>2026-04-28T15:11:01.999Z</time></trkpt><trkpt lat="38.01109205391938" lon="15.301973775720606"><ele>573.0</ele><time>2026-04-28T15:11:08.999Z</time></trkpt><trkpt lat="38.011115989382375" lon="15.301878130132899"><ele>574.5</ele><time>2026-04-28T15:11:09.999Z</time></trkpt><trkpt lat="38.011160323760684" lon="15.301743958860568"><ele>576.0</ele><time>2026-04-28T15:11:10.999Z</time></trkpt><trkpt lat="38.011211063844854" lon="15.301571421210614"><ele>581.6666666666666</ele><time>2026-04-28T15:11:11.999Z</time></trkpt><trkpt lat="38.01126350956093" lon="15.301389538220471"><ele>587.3333333333333</ele><time>2026-04-28T15:11:12.999Z</time></trkpt><trkpt lat="38.01130816901233" lon="15.30120401146759"><ele>593.0</ele><time>2026-04-28T15:11:13.999Z</time></trkpt><trkpt lat="38.01135240123812" lon="15.301022670954675"><ele>593.0</ele><time>2026-04-28T15:11:14.999Z</time></trkpt><trkpt lat="38.0113909141172" lon="15.300865121883573"><ele>593.0</ele><time>2026-04-28T15:11:15.999Z</time></trkpt><trkpt lat="38.011411111974894" lon="15.300730576565234"><ele>593.0</ele><time>2026-04-28T15:11:16.999Z</time></trkpt><trkpt lat="38.01140056642311" lon="15.300583913739514"><ele>593.0</ele><time>2026-04-28T15:11:17.999Z</time></trkpt><trkpt lat="38.01137416560743" lon="15.300439739583078"><ele>598.1999999999999</ele><time>2026-04-28T15:11:18.999Z</time></trkpt><trkpt lat="38.011353203350964" lon="15.300330124934955"><ele>603.4</ele><time>2026-04-28T15:11:19.999Z</time></trkpt><trkpt lat="38.01129047194573" lon="15.30025741680805"><ele>608.5999999999999</ele><time>2026-04-28T15:11:21.999Z</time></trkpt><trkpt lat="38.011176459674715" lon="15.30031230854715"><ele>613.8</ele><time>2026-04-28T15:11:23.999Z</time></trkpt><trkpt lat="38.01111425233567" lon="15.300372405799502"><ele>619.0</ele><time>2026-04-28T15:11:24.999Z</time></trkpt><trkpt lat="38.01105833696203" lon="15.300446991547096"><ele>619.0</ele><time>2026-04-28T15:11:25.999Z</time></trkpt><trkpt lat="38.011019827549624" lon="15.300520346511638"><ele>619.0</ele><time>2026-04-28T15:11:26.999Z</time></trkpt><trkpt lat="38.01096503319237" lon="15.300568296099199"><ele>619.0</ele><time>2026-04-28T15:11:27.999Z</time></trkpt><trkpt lat="38.01089838918705" lon="15.300589999744155"><ele>619.0</ele><time>2026-04-28T15:11:28.999Z</time></trkpt><trkpt lat="38.0108057070338" lon="15.300622293622492"><ele>619.0</ele><time>2026-04-28T15:11:29.999Z</time></trkpt><trkpt lat="38.01074645666747" lon="15.300653312424027"><ele>619.0</ele><time>2026-04-28T15:11:30.999Z</time></trkpt><trkpt lat="38.010690226775665" lon="15.30078848821822"><ele>619.6</ele><time>2026-04-28T15:11:32.999Z</time></trkpt><trkpt lat="38.01064374385974" lon="15.30087858985206"><ele>620.2</ele><time>2026-04-28T15:11:33.999Z</time></trkpt><trkpt lat="38.010575160292746" lon="15.3009356354302"><ele>620.8000000000001</ele><time>2026-04-28T15:11:34.999Z</time></trkpt><trkpt lat="38.01049445201707" lon="15.301000755082685"><ele>621.4</ele><time>2026-04-28T15:11:35.999Z</time></trkpt><trkpt lat="38.010430063388455" lon="15.301094615597133"><ele>622.0</ele><time>2026-04-28T15:11:36.999Z</time></trkpt><trkpt lat="38.01037384398355" lon="15.301195287235808"><ele>622.0</ele><time>2026-04-28T15:11:37.999Z</time></trkpt><trkpt lat="38.0102870466494" lon="15.301294494275384"><ele>622.0</ele><time>2026-04-28T15:11:38.999Z</time></trkpt><trkpt lat="38.010203039764704" lon="15.301349728516202"><ele>622.0</ele><time>2026-04-28T15:11:39.999Z</time></trkpt><trkpt lat="38.01011451134625" lon="15.301405117644377"><ele>622.0</ele><time>2026-04-28T15:11:40.999Z</time></trkpt><trkpt lat="38.010034494198806" lon="15.301489133907944"><ele>622.0</ele><time>2026-04-28T15:11:41.999Z</time></trkpt><trkpt lat="38.00996466313855" lon="15.301590355053838"><ele>620.6666666666667</ele><time>2026-04-28T15:11:42.999Z</time></trkpt><trkpt lat="38.00991479536361" lon="15.301664391216146"><ele>619.3333333333334</ele><time>2026-04-28T15:11:43.999Z</time></trkpt><trkpt lat="38.009826883172664" lon="15.301704471620804"><ele>618.0</ele><time>2026-04-28T15:11:45.999Z</time></trkpt><trkpt lat="38.00975126718438" lon="15.301679518393716"><ele>616.6666666666666</ele><time>2026-04-28T15:11:46.999Z</time></trkpt><trkpt lat="38.00966944188984" lon="15.301616541593644"><ele>615.3333333333333</ele><time>2026-04-28T15:11:47.999Z</time></trkpt><trkpt lat="38.00960834163311" lon="15.301543767217558"><ele>614.0</ele><time>2026-04-28T15:11:48.999Z</time></trkpt><trkpt lat="38.00957938971289" lon="15.301449076408867"><ele>616.6</ele><time>2026-04-28T15:11:49.999Z</time></trkpt><trkpt lat="38.00953775136168" lon="15.301351938689143"><ele>619.2</ele><time>2026-04-28T15:11:50.999Z</time></trkpt><trkpt lat="38.009494635413574" lon="15.30129125990136"><ele>621.8000000000001</ele><time>2026-04-28T15:11:51.999Z</time></trkpt><trkpt lat="38.00937477277493" lon="15.301250889976439"><ele>624.4</ele><time>2026-04-28T15:11:53.999Z</time></trkpt><trkpt lat="38.00925738781255" lon="15.301281221524407"><ele>627.0</ele><time>2026-04-28T15:11:55.999Z</time></trkpt><trkpt lat="38.00919285718111" lon="15.301304608015736"><ele>624.4</ele><time>2026-04-28T15:11:56.999Z</time></trkpt><trkpt lat="38.009149635965265" lon="15.3014072529767"><ele>621.8000000000001</ele><time>2026-04-28T15:11:58.999Z</time></trkpt><trkpt lat="38.009211955660504" lon="15.301560326899065"><ele>619.2</ele><time>2026-04-28T15:12:00.998Z</time></trkpt><trkpt lat="38.00923425056817" lon="15.301655563455288"><ele>616.6</ele><time>2026-04-28T15:12:01.998Z</time></trkpt><trkpt lat="38.009203206341084" lon="15.301793463363326"><ele>614.0</ele><time>2026-04-28T15:12:02.998Z</time></trkpt><trkpt lat="38.00919541942832" lon="15.301892970682598"><ele>614.0</ele><time>2026-04-28T15:12:03.998Z</time></trkpt><trkpt lat="38.00922301714676" lon="15.30197641224296"><ele>614.0</ele><time>2026-04-28T15:12:04.998Z</time></trkpt><trkpt lat="38.00928712135131" lon="15.302066881637646"><ele>614.0</ele><time>2026-04-28T15:12:05.998Z</time></trkpt><trkpt lat="38.00935412675883" lon="15.302169824097023"><ele>614.0</ele><time>2026-04-28T15:12:06.998Z</time></trkpt><trkpt lat="38.00940377852463" lon="15.30225941330338"><ele>614.0</ele><time>2026-04-28T15:12:07.998Z</time></trkpt><trkpt lat="38.00944263760616" lon="15.3023329064422"><ele>614.0</ele><time>2026-04-28T15:12:08.998Z</time></trkpt><trkpt lat="38.00943428601785" lon="15.302449240555841"><ele>615.8</ele><time>2026-04-28T15:12:09.998Z</time></trkpt><trkpt lat="38.00942325766176" lon="15.30259577032262"><ele>617.5999999999999</ele><time>2026-04-28T15:12:10.998Z</time></trkpt><trkpt lat="38.0094214973428" lon="15.302742821955157"><ele>619.4</ele><time>2026-04-28T15:12:11.998Z</time></trkpt><trkpt lat="38.00941183313601" lon="15.302858704659442"><ele>621.1999999999999</ele><time>2026-04-28T15:12:12.998Z</time></trkpt><trkpt lat="38.009419802167514" lon="15.302969284821756"><ele>623.0</ele><time>2026-04-28T15:12:13.998Z</time></trkpt><trkpt lat="38.009454257315554" lon="15.303090282294336"><ele>623.1666666666666</ele><time>2026-04-28T15:12:14.998Z</time></trkpt><trkpt lat="38.00947660276047" lon="15.303197048990011"><ele>623.3333333333333</ele><time>2026-04-28T15:12:15.998Z</time></trkpt><trkpt lat="38.009482842910955" lon="15.303297358854984"><ele>623.5</ele><time>2026-04-28T15:12:16.998Z</time></trkpt><trkpt lat="38.00947421478393" lon="15.303405920364737"><ele>623.6666666666666</ele><time>2026-04-28T15:12:17.998Z</time></trkpt><trkpt lat="38.00942613383994" lon="15.30350707747054"><ele>623.8333333333334</ele><time>2026-04-28T15:12:18.998Z</time></trkpt><trkpt lat="38.00937055495347" lon="15.30359079384261"><ele>624.0</ele><time>2026-04-28T15:12:19.998Z</time></trkpt><trkpt lat="38.009310082150066" lon="15.30368651260634"><ele>624.0</ele><time>2026-04-28T15:12:20.998Z</time></trkpt><trkpt lat="38.00927223925263" lon="15.303783006155113"><ele>624.0</ele><time>2026-04-28T15:12:21.998Z</time></trkpt><trkpt lat="38.009283050822575" lon="15.303889504757331"><ele>624.0</ele><time>2026-04-28T15:12:22.998Z</time></trkpt><trkpt lat="38.00930928224475" lon="15.304033637963824"><ele>624.0</ele><time>2026-04-28T15:12:23.998Z</time></trkpt><trkpt lat="38.00933177457677" lon="15.30418808189186"><ele>624.0</ele><time>2026-04-28T15:12:24.998Z</time></trkpt><trkpt lat="38.00933611579363" lon="15.304330182170604"><ele>624.0</ele><time>2026-04-28T15:12:25.999Z</time></trkpt><trkpt lat="38.00934029433129" lon="15.304458717382717"><ele>624.0</ele><time>2026-04-28T15:12:26.999Z</time></trkpt><trkpt lat="38.00935266046063" lon="15.304584966684367"><ele>624.0</ele><time>2026-04-28T15:12:27.999Z</time></trkpt><trkpt lat="38.00936523392093" lon="15.304694478928182"><ele>624.0</ele><time>2026-04-28T15:12:28.999Z</time></trkpt><trkpt lat="38.009348571359716" lon="15.304794092187782"><ele>624.0</ele><time>2026-04-28T15:12:29.999Z</time></trkpt><trkpt lat="38.00930933165143" lon="15.304864249888913"><ele>624.0</ele><time>2026-04-28T15:12:30.999Z</time></trkpt><trkpt lat="38.009179029109376" lon="15.304889311744198"><ele>625.5</ele><time>2026-04-28T15:12:32.999Z</time></trkpt><trkpt lat="38.00909905018483" lon="15.304840081141656"><ele>627.0</ele><time>2026-04-28T15:12:33.999Z</time></trkpt><trkpt lat="38.00902635957479" lon="15.304759753544792"><ele>628.5</ele><time>2026-04-28T15:12:34.999Z</time></trkpt><trkpt lat="38.008956555356555" lon="15.304660494335069"><ele>630.0</ele><time>2026-04-28T15:12:35.999Z</time></trkpt><trkpt lat="38.00890031201205" lon="15.304581520989398"><ele>631.5</ele><time>2026-04-28T15:12:36.999Z</time></trkpt><trkpt lat="38.00884029142033" lon="15.304539596449288"><ele>633.0</ele><time>2026-04-28T15:12:37.999Z</time></trkpt><trkpt lat="38.00876564859962" lon="15.304524865959285"><ele>633.0</ele><time>2026-04-28T15:12:38.999Z</time></trkpt><trkpt lat="38.00868682857997" lon="15.30453129558132"><ele>633.0</ele><time>2026-04-28T15:12:39.999Z</time></trkpt><trkpt lat="38.00861011356367" lon="15.304513657544234"><ele>633.0</ele><time>2026-04-28T15:12:40.999Z</time></trkpt><trkpt lat="38.00855649229109" lon="15.304441520691265"><ele>633.0</ele><time>2026-04-28T15:12:41.999Z</time></trkpt><trkpt lat="38.008505648881155" lon="15.304344137268505"><ele>633.0</ele><time>2026-04-28T15:12:42.999Z</time></trkpt><trkpt lat="38.008446286189724" lon="15.304237799772425"><ele>633.0</ele><time>2026-04-28T15:12:43.999Z</time></trkpt><trkpt lat="38.00838981623014" lon="15.304141110519641"><ele>633.0</ele><time>2026-04-28T15:12:44.999Z</time></trkpt><trkpt lat="38.00833708938079" lon="15.304095665318458"><ele>633.0</ele><time>2026-04-28T15:12:45.999Z</time></trkpt><trkpt lat="38.00827280798504" lon="15.30407712621728"><ele>633.0</ele><time>2026-04-28T15:12:46.999Z</time></trkpt><trkpt lat="38.008167916113614" lon="15.30408446004456"><ele>633.0</ele><time>2026-04-28T15:12:47.999Z</time></trkpt><trkpt lat="38.00806633958184" lon="15.3040908926931"><ele>633.0</ele><time>2026-04-28T15:12:48.999Z</time></trkpt><trkpt lat="38.007982906929556" lon="15.304081689205615"><ele>633.0</ele><time>2026-04-28T15:12:49.999Z</time></trkpt><trkpt lat="38.00790115013706" lon="15.3040436236142"><ele>635.4</ele><time>2026-04-28T15:12:50.999Z</time></trkpt><trkpt lat="38.00781768776556" lon="15.303987999691453"><ele>637.8</ele><time>2026-04-28T15:12:51.999Z</time></trkpt><trkpt lat="38.00776713526812" lon="15.303906345629903"><ele>640.2</ele><time>2026-04-28T15:12:52.999Z</time></trkpt><trkpt lat="38.00772364121804" lon="15.303814995329745"><ele>642.6</ele><time>2026-04-28T15:12:53.999Z</time></trkpt><trkpt lat="38.007668958960515" lon="15.303704018437546"><ele>645.0</ele><time>2026-04-28T15:12:54.999Z</time></trkpt><trkpt lat="38.007601712969745" lon="15.303614050210319"><ele>645.0</ele><time>2026-04-28T15:12:55.999Z</time></trkpt><trkpt lat="38.0075416991178" lon="15.303535490403366"><ele>645.0</ele><time>2026-04-28T15:12:56.999Z</time></trkpt><trkpt lat="38.00750483930077" lon="15.303440680220902"><ele>645.0</ele><time>2026-04-28T15:12:57.999Z</time></trkpt><trkpt lat="38.00746602242015" lon="15.303334441172707"><ele>645.0</ele><time>2026-04-28T15:12:58.999Z</time></trkpt><trkpt lat="38.00740919081029" lon="15.303239337182772"><ele>645.0</ele><time>2026-04-28T15:12:59.999Z</time></trkpt><trkpt lat="38.00734374743004" lon="15.30314145185695"><ele>649.4</ele><time>2026-04-28T15:13:00.999Z</time></trkpt><trkpt lat="38.00727902072281" lon="15.303054429901097"><ele>653.8</ele><time>2026-04-28T15:13:01.999Z</time></trkpt><trkpt lat="38.007235707070656" lon="15.302948333645427"><ele>658.2</ele><time>2026-04-28T15:13:02.999Z</time></trkpt><trkpt lat="38.00718321679946" lon="15.30285099214838"><ele>662.6</ele><time>2026-04-28T15:13:03.999Z</time></trkpt><trkpt lat="38.00711730950642" lon="15.302765603320417"><ele>667.0</ele><time>2026-04-28T15:13:04.999Z</time></trkpt><trkpt lat="38.007028015047766" lon="15.302719727030377"><ele>667.0</ele><time>2026-04-28T15:13:05.999Z</time></trkpt><trkpt lat="38.00691777397588" lon="15.302696257743492"><ele>667.0</ele><time>2026-04-28T15:13:06.999Z</time></trkpt><trkpt lat="38.006825493274505" lon="15.302660799360273"><ele>667.0</ele><time>2026-04-28T15:13:07.999Z</time></trkpt><trkpt lat="38.006735631530475" lon="15.302611695690269"><ele>667.0</ele><time>2026-04-28T15:13:08.999Z</time></trkpt><trkpt lat="38.006645020647476" lon="15.302565811460411"><ele>667.0</ele><time>2026-04-28T15:13:09.999Z</time></trkpt><trkpt lat="38.00657449051316" lon="15.302552300193788"><ele>667.0</ele><time>2026-04-28T15:13:10.999Z</time></trkpt><trkpt lat="38.006488150533826" lon="15.302611459257582"><ele>667.0</ele><time>2026-04-28T15:13:12.999Z</time></trkpt><trkpt lat="38.00649174297974" lon="15.30274335151731"><ele>667.0</ele><time>2026-04-28T15:13:14.999Z</time></trkpt><trkpt lat="38.00655367308185" lon="15.302806856667967"><ele>667.0</ele><time>2026-04-28T15:13:15.999Z</time></trkpt><trkpt lat="38.00662032021765" lon="15.302842723620946"><ele>667.0</ele><time>2026-04-28T15:13:16.999Z</time></trkpt><trkpt lat="38.0066810721109" lon="15.302889489755863"><ele>667.0</ele><time>2026-04-28T15:13:17.999Z</time></trkpt><trkpt lat="38.00674337725187" lon="15.303006193149496"><ele>665.0</ele><time>2026-04-28T15:13:19.999Z</time></trkpt><trkpt lat="38.00675691753696" lon="15.303118339892343"><ele>663.0</ele><time>2026-04-28T15:13:21.999Z</time></trkpt><trkpt lat="38.00677522015114" lon="15.30324452571536"><ele>661.0</ele><time>2026-04-28T15:13:23.999Z</time></trkpt><trkpt lat="38.00675723535037" lon="15.303385892009645"><ele>659.0</ele><time>2026-04-28T15:13:25.999Z</time></trkpt><trkpt lat="38.00673414489477" lon="15.303479388503673"><ele>657.0</ele><time>2026-04-28T15:13:26.999Z</time></trkpt><trkpt lat="38.00670563336494" lon="15.303565390196866"><ele>664.4000000000001</ele><time>2026-04-28T15:13:27.999Z</time></trkpt><trkpt lat="38.00665551331995" lon="15.30370581101665"><ele>671.8000000000001</ele><time>2026-04-28T15:13:29.999Z</time></trkpt><trkpt lat="38.006538391292864" lon="15.303765496328088"><ele>679.2</ele><time>2026-04-28T15:13:31.999Z</time></trkpt><trkpt lat="38.006457018246046" lon="15.303767050439259"><ele>686.6</ele><time>2026-04-28T15:13:32.999Z</time></trkpt><trkpt lat="38.006368159161674" lon="15.30377245502872"><ele>694.0</ele><time>2026-04-28T15:13:33.999Z</time></trkpt><trkpt lat="38.00629916836421" lon="15.30379018031423"><ele>694.0</ele><time>2026-04-28T15:13:34.999Z</time></trkpt><trkpt lat="38.00625212929903" lon="15.303854750940783"><ele>694.0</ele><time>2026-04-28T15:13:35.999Z</time></trkpt><trkpt lat="38.006206204971114" lon="15.303950392001768"><ele>694.0</ele><time>2026-04-28T15:13:36.999Z</time></trkpt><trkpt lat="38.00614850160288" lon="15.304020968072523"><ele>694.0</ele><time>2026-04-28T15:13:37.999Z</time></trkpt><trkpt lat="38.00608286536903" lon="15.304071069386277"><ele>694.0</ele><time>2026-04-28T15:13:38.999Z</time></trkpt><trkpt lat="38.00601641666319" lon="15.304122709278424"><ele>694.0</ele><time>2026-04-28T15:13:39.999Z</time></trkpt><trkpt lat="38.00598479318052" lon="15.304247867712457"><ele>691.8333333333334</ele><time>2026-04-28T15:13:41.999Z</time></trkpt><trkpt lat="38.006011166053995" lon="15.304347542015227"><ele>689.6666666666667</ele><time>2026-04-28T15:13:42.999Z</time></trkpt><trkpt lat="38.00603710291223" lon="15.304439316204864"><ele>687.5</ele><time>2026-04-28T15:13:43.999Z</time></trkpt><trkpt lat="38.006019472563445" lon="15.304564169162713"><ele>685.3333333333334</ele><time>2026-04-28T15:13:45.999Z</time></trkpt><trkpt lat="38.005969363256916" lon="15.304625195054973"><ele>683.1666666666666</ele><time>2026-04-28T15:13:46.999Z</time></trkpt><trkpt lat="38.005911402136405" lon="15.30467631104541"><ele>681.0</ele><time>2026-04-28T15:13:47.999Z</time></trkpt><trkpt lat="38.00583047778462" lon="15.304705953247344"><ele>682.5</ele><time>2026-04-28T15:13:48.999Z</time></trkpt><trkpt lat="38.005757926950814" lon="15.304738006537926"><ele>684.0</ele><time>2026-04-28T15:13:49.999Z</time></trkpt><trkpt lat="38.005707848891454" lon="15.304850974769654"><ele>685.5</ele><time>2026-04-28T15:13:51.999Z</time></trkpt><trkpt lat="38.00572916073607" lon="15.304934945958365"><ele>687.0</ele><time>2026-04-28T15:13:52.999Z</time></trkpt><trkpt lat="38.00577581814849" lon="15.305016710853808"><ele>688.5</ele><time>2026-04-28T15:13:53.999Z</time></trkpt><trkpt lat="38.00582158028262" lon="15.305098662655956"><ele>690.0</ele><time>2026-04-28T15:13:54.999Z</time></trkpt><trkpt lat="38.00584293070118" lon="15.305185047209678"><ele>690.0</ele><time>2026-04-28T15:13:55.999Z</time></trkpt><trkpt lat="38.00584099451784" lon="15.305330509360902"><ele>690.0</ele><time>2026-04-28T15:13:57.999Z</time></trkpt><trkpt lat="38.00581926541296" lon="15.305415208193676"><ele>690.0</ele><time>2026-04-28T15:13:58.999Z</time></trkpt><trkpt lat="38.005759058311426" lon="15.305511143851403"><ele>690.0</ele><time>2026-04-28T15:14:00.999Z</time></trkpt><trkpt lat="38.0056947391564" lon="15.305536594909846"><ele>690.0</ele><time>2026-04-28T15:14:01.999Z</time></trkpt><trkpt lat="38.00561195638641" lon="15.305573664021274"><ele>690.0</ele><time>2026-04-28T15:14:02.998Z</time></trkpt><trkpt lat="38.00553086197943" lon="15.305644574243"><ele>683.0</ele><time>2026-04-28T15:14:03.998Z</time></trkpt><trkpt lat="38.00547212150144" lon="15.305704925959592"><ele>676.0</ele><time>2026-04-28T15:14:04.998Z</time></trkpt><trkpt lat="38.00532718410839" lon="15.305726284173074"><ele>669.0</ele><time>2026-04-28T15:14:06.998Z</time></trkpt><trkpt lat="38.00523560046937" lon="15.305704602859118"><ele>662.0</ele><time>2026-04-28T15:14:07.998Z</time></trkpt><trkpt lat="38.00514693206197" lon="15.305656297068042"><ele>655.0</ele><time>2026-04-28T15:14:08.998Z</time></trkpt><trkpt lat="38.00507376127487" lon="15.305618093910663"><ele>654.6</ele><time>2026-04-28T15:14:09.998Z</time></trkpt><trkpt lat="38.005011565285166" lon="15.305577229914547"><ele>654.2</ele><time>2026-04-28T15:14:10.998Z</time></trkpt><trkpt lat="38.00494112862766" lon="15.305439259190454"><ele>653.8</ele><time>2026-04-28T15:14:12.998Z</time></trkpt><trkpt lat="38.00492177862869" lon="15.305345510575478"><ele>653.4</ele><time>2026-04-28T15:14:13.998Z</time></trkpt><trkpt lat="38.004909978525" lon="15.305227837971957"><ele>653.0</ele><time>2026-04-28T15:14:14.998Z</time></trkpt><trkpt lat="38.00487638803302" lon="15.305119889817634"><ele>653.0</ele><time>2026-04-28T15:14:15.998Z</time></trkpt><trkpt lat="38.004812641204644" lon="15.305051279796627"><ele>653.0</ele><time>2026-04-28T15:14:16.998Z</time></trkpt><trkpt lat="38.00474870477561" lon="15.305006962800281"><ele>653.0</ele><time>2026-04-28T15:14:17.998Z</time></trkpt><trkpt lat="38.00467132018721" lon="15.304993256372475"><ele>653.0</ele><time>2026-04-28T15:14:18.998Z</time></trkpt><trkpt lat="38.004592287910235" lon="15.305002449195298"><ele>653.0</ele><time>2026-04-28T15:14:19.998Z</time></trkpt><trkpt lat="38.00451759224234" lon="15.305005435485102"><ele>653.0</ele><time>2026-04-28T15:14:20.998Z</time></trkpt><trkpt lat="38.00444458796402" lon="15.304889922951709"><ele>653.0</ele><time>2026-04-28T15:14:22.998Z</time></trkpt><trkpt lat="38.00442191055509" lon="15.304794911353198"><ele>653.0</ele><time>2026-04-28T15:14:23.998Z</time></trkpt><trkpt lat="38.00440406870535" lon="15.30469283795492"><ele>653.0</ele><time>2026-04-28T15:14:24.998Z</time></trkpt><trkpt lat="38.00437075048078" lon="15.304598601331357"><ele>653.0</ele><time>2026-04-28T15:14:25.998Z</time></trkpt><trkpt lat="38.004317137226515" lon="15.30452820859159"><ele>653.0</ele><time>2026-04-28T15:14:26.998Z</time></trkpt><trkpt lat="38.00423469106885" lon="15.304488266204464"><ele>653.0</ele><time>2026-04-28T15:14:27.998Z</time></trkpt><trkpt lat="38.00415040865223" lon="15.304412111461895"><ele>653.8</ele><time>2026-04-28T15:14:29.998Z</time></trkpt><trkpt lat="38.00416088028576" lon="15.304266664380476"><ele>654.5999999999999</ele><time>2026-04-28T15:14:31.999Z</time></trkpt><trkpt lat="38.00418573698996" lon="15.304164668053541"><ele>655.4000000000001</ele><time>2026-04-28T15:14:32.999Z</time></trkpt><trkpt lat="38.00418609144467" lon="15.304060584725953"><ele>656.2</ele><time>2026-04-28T15:14:33.999Z</time></trkpt><trkpt lat="38.00411118129099" lon="15.303945324374165"><ele>657.0</ele><time>2026-04-28T15:14:35.999Z</time></trkpt><trkpt lat="38.00403097450392" lon="15.303905921310413"><ele>662.8333333333334</ele><time>2026-04-28T15:14:36.999Z</time></trkpt><trkpt lat="38.00395757282502" lon="15.30387085181449"><ele>668.6666666666666</ele><time>2026-04-28T15:14:37.999Z</time></trkpt><trkpt lat="38.00388012409159" lon="15.303777742216436"><ele>674.5</ele><time>2026-04-28T15:14:39.999Z</time></trkpt><trkpt lat="38.00386832623725" lon="15.303690373991149"><ele>680.3333333333333</ele><time>2026-04-28T15:14:40.999Z</time></trkpt><trkpt lat="38.00385073693478" lon="15.303580740491007"><ele>686.1666666666666</ele><time>2026-04-28T15:14:41.999Z</time></trkpt><trkpt lat="38.00382247863077" lon="15.303457014115137"><ele>692.0</ele><time>2026-04-28T15:14:42.999Z</time></trkpt><trkpt lat="38.003777295031874" lon="15.303362332103514"><ele>692.0</ele><time>2026-04-28T15:14:43.999Z</time></trkpt><trkpt lat="38.00371961292015" lon="15.303287862710004"><ele>692.0</ele><time>2026-04-28T15:14:44.999Z</time></trkpt><trkpt lat="38.00364470049657" lon="15.303191018447082"><ele>692.0</ele><time>2026-04-28T15:14:45.999Z</time></trkpt><trkpt lat="38.00357304574835" lon="15.303113839686953"><ele>692.0</ele><time>2026-04-28T15:14:46.999Z</time></trkpt><trkpt lat="38.00351672822074" lon="15.303046096526849"><ele>692.0</ele><time>2026-04-28T15:14:47.999Z</time></trkpt><trkpt lat="38.00348130865078" lon="15.302971191177303"><ele>692.0</ele><time>2026-04-28T15:14:48.999Z</time></trkpt><trkpt lat="38.00338085126154" lon="15.302905003828005"><ele>695.3333333333333</ele><time>2026-04-28T15:14:50.999Z</time></trkpt><trkpt lat="38.00329568793455" lon="15.302925423673505"><ele>698.6666666666666</ele><time>2026-04-28T15:14:51.999Z</time></trkpt><trkpt lat="38.00320365766549" lon="15.302951034379483"><ele>702.0</ele><time>2026-04-28T15:14:52.999Z</time></trkpt><trkpt lat="38.0031392130326" lon="15.302993888359964"><ele>705.3333333333334</ele><time>2026-04-28T15:14:53.999Z</time></trkpt><trkpt lat="38.00309132533038" lon="15.303072202406609"><ele>708.6666666666667</ele><time>2026-04-28T15:14:54.999Z</time></trkpt><trkpt lat="38.0030577126169" lon="15.303147983792448"><ele>712.0</ele><time>2026-04-28T15:14:55.999Z</time></trkpt><trkpt lat="38.00298448892062" lon="15.303195017768731"><ele>712.0</ele><time>2026-04-28T15:14:56.999Z</time></trkpt><trkpt lat="38.002926127875355" lon="15.30315804212198"><ele>712.0</ele><time>2026-04-28T15:14:57.999Z</time></trkpt><trkpt lat="38.00283428711589" lon="15.303091951243024"><ele>712.0</ele><time>2026-04-28T15:14:58.999Z</time></trkpt><trkpt lat="38.00275567797298" lon="15.303049929385441"><ele>712.0</ele><time>2026-04-28T15:14:59.999Z</time></trkpt><trkpt lat="38.00267958947843" lon="15.303027090136165"><ele>712.0</ele><time>2026-04-28T15:15:00.999Z</time></trkpt><trkpt lat="38.002612450633045" lon="15.303049925992667"><ele>712.0</ele><time>2026-04-28T15:15:01.999Z</time></trkpt><trkpt lat="38.00255184481663" lon="15.30311196473646"><ele>712.0</ele><time>2026-04-28T15:15:02.999Z</time></trkpt><trkpt lat="38.00250139944863" lon="15.303181824387478"><ele>712.0</ele><time>2026-04-28T15:15:03.999Z</time></trkpt><trkpt lat="38.00244691077236" lon="15.3032778924179"><ele>712.0</ele><time>2026-04-28T15:15:04.999Z</time></trkpt><trkpt lat="38.00236309798915" lon="15.3033655306329"><ele>712.0</ele><time>2026-04-28T15:15:05.999Z</time></trkpt><trkpt lat="38.00227172286273" lon="15.30346406577116"><ele>712.0</ele><time>2026-04-28T15:15:06.999Z</time></trkpt><trkpt lat="38.00219782427995" lon="15.303555964105534"><ele>718.1666666666667</ele><time>2026-04-28T15:15:07.999Z</time></trkpt><trkpt lat="38.00215240947294" lon="15.303636206751795"><ele>724.3333333333334</ele><time>2026-04-28T15:15:08.999Z</time></trkpt><trkpt lat="38.00213463436325" lon="15.30372707113058"><ele>730.5</ele><time>2026-04-28T15:15:09.999Z</time></trkpt><trkpt lat="38.002130250598704" lon="15.303847167968884"><ele>736.6666666666666</ele><time>2026-04-28T15:15:10.999Z</time></trkpt><trkpt lat="38.00210557738378" lon="15.303948029580008"><ele>742.8333333333333</ele><time>2026-04-28T15:15:11.999Z</time></trkpt><trkpt lat="38.00205202298799" lon="15.304005710382567"><ele>749.0</ele><time>2026-04-28T15:15:12.999Z</time></trkpt><trkpt lat="38.00197952401273" lon="15.304068353825121"><ele>749.0</ele><time>2026-04-28T15:15:13.999Z</time></trkpt><trkpt lat="38.001916739093176" lon="15.304132471137905"><ele>749.0</ele><time>2026-04-28T15:15:14.999Z</time></trkpt><trkpt lat="38.00188378618429" lon="15.304227657771097"><ele>749.0</ele><time>2026-04-28T15:15:15.999Z</time></trkpt><trkpt lat="38.00186806665475" lon="15.304368146046478"><ele>749.0</ele><time>2026-04-28T15:15:16.999Z</time></trkpt><trkpt lat="38.00185551810677" lon="15.304532851467982"><ele>749.0</ele><time>2026-04-28T15:15:17.999Z</time></trkpt><trkpt lat="38.00184436770489" lon="15.304667548769928"><ele>746.6666666666666</ele><time>2026-04-28T15:15:18.999Z</time></trkpt><trkpt lat="38.001829314311266" lon="15.304777030141393"><ele>744.3333333333333</ele><time>2026-04-28T15:15:19.999Z</time></trkpt><trkpt lat="38.00185882716803" lon="15.304874883538394"><ele>742.0</ele><time>2026-04-28T15:15:20.999Z</time></trkpt><trkpt lat="38.00190795962361" lon="15.304960329823968"><ele>739.6666666666666</ele><time>2026-04-28T15:15:21.999Z</time></trkpt><trkpt lat="38.00194065161946" lon="15.305031642263504"><ele>737.3333333333334</ele><time>2026-04-28T15:15:22.999Z</time></trkpt><trkpt lat="38.001930615725875" lon="15.305124826261007"><ele>735.0</ele><time>2026-04-28T15:15:23.999Z</time></trkpt><trkpt lat="38.00190333332986" lon="15.30525250071411"><ele>735.0</ele><time>2026-04-28T15:15:24.999Z</time></trkpt><trkpt lat="38.00188407967613" lon="15.305352397018117"><ele>735.0</ele><time>2026-04-28T15:15:25.999Z</time></trkpt><trkpt lat="38.00182916861307" lon="15.30547318653184"><ele>735.0</ele><time>2026-04-28T15:15:27.999Z</time></trkpt><trkpt lat="38.00176539656618" lon="15.305537930700194"><ele>735.0</ele><time>2026-04-28T15:15:28.999Z</time></trkpt><trkpt lat="38.001682852863134" lon="15.30560734241771"><ele>735.0</ele><time>2026-04-28T15:15:29.999Z</time></trkpt><trkpt lat="38.00161198017343" lon="15.305662074650407"><ele>732.8333333333334</ele><time>2026-04-28T15:15:30.999Z</time></trkpt><trkpt lat="38.001541932676034" lon="15.305690599533675"><ele>730.6666666666666</ele><time>2026-04-28T15:15:31.999Z</time></trkpt><trkpt lat="38.00147757969144" lon="15.30569643684214"><ele>728.5</ele><time>2026-04-28T15:15:32.999Z</time></trkpt><trkpt lat="38.00141225539064" lon="15.30566918689776"><ele>726.3333333333333</ele><time>2026-04-28T15:15:33.999Z</time></trkpt><trkpt lat="38.001337053438505" lon="15.30560937450421"><ele>724.1666666666666</ele><time>2026-04-28T15:15:34.999Z</time></trkpt><trkpt lat="38.00125335971758" lon="15.305550817387784"><ele>722.0</ele><time>2026-04-28T15:15:35.999Z</time></trkpt><trkpt lat="38.00116418346524" lon="15.30552951468768"><ele>727.4000000000001</ele><time>2026-04-28T15:15:36.999Z</time></trkpt><trkpt lat="38.00106845736038" lon="15.305532848773538"><ele>732.8000000000001</ele><time>2026-04-28T15:15:37.999Z</time></trkpt><trkpt lat="38.000966948693" lon="15.305545416724256"><ele>738.2</ele><time>2026-04-28T15:15:38.999Z</time></trkpt><trkpt lat="38.000869789190105" lon="15.30554408818598"><ele>743.6</ele><time>2026-04-28T15:15:39.999Z</time></trkpt><trkpt lat="38.000761747430815" lon="15.305536374099571"><ele>749.0</ele><time>2026-04-28T15:15:40.999Z</time></trkpt><trkpt lat="38.000656969192804" lon="15.305523224725208"><ele>749.0</ele><time>2026-04-28T15:15:41.999Z</time></trkpt><trkpt lat="38.00056896507191" lon="15.305494581943064"><ele>749.0</ele><time>2026-04-28T15:15:42.999Z</time></trkpt><trkpt lat="38.00048962743384" lon="15.305462747966299"><ele>749.0</ele><time>2026-04-28T15:15:43.999Z</time></trkpt><trkpt lat="38.000405402789724" lon="15.305425186890895"><ele>749.0</ele><time>2026-04-28T15:15:44.999Z</time></trkpt><trkpt lat="38.00033468971056" lon="15.305379101476882"><ele>749.0</ele><time>2026-04-28T15:15:45.999Z</time></trkpt><trkpt lat="38.000264505760555" lon="15.305275705069432"><ele>749.0</ele><time>2026-04-28T15:15:47.999Z</time></trkpt><trkpt lat="38.00023774910656" lon="15.305162363094219"><ele>749.0</ele><time>2026-04-28T15:15:48.999Z</time></trkpt><trkpt lat="38.00018598658326" lon="15.305074849373783"><ele>749.0</ele><time>2026-04-28T15:15:49.999Z</time></trkpt><trkpt lat="38.00011224569507" lon="15.30500206550447"><ele>749.0</ele><time>2026-04-28T15:15:50.999Z</time></trkpt><trkpt lat="38.0000359328493" lon="15.304915426764692"><ele>749.0</ele><time>2026-04-28T15:15:51.999Z</time></trkpt><trkpt lat="37.9999842246746" lon="15.3048399288904"><ele>749.0</ele><time>2026-04-28T15:15:52.999Z</time></trkpt><trkpt lat="37.99992611196834" lon="15.304799603483326"><ele>749.0</ele><time>2026-04-28T15:15:53.999Z</time></trkpt><trkpt lat="37.999830190231734" lon="15.304807224506872"><ele>749.0</ele><time>2026-04-28T15:15:54.999Z</time></trkpt><trkpt lat="37.9997236506312" lon="15.304838548741335"><ele>749.0</ele><time>2026-04-28T15:15:55.999Z</time></trkpt><trkpt lat="37.99962723275897" lon="15.304867474181249"><ele>749.0</ele><time>2026-04-28T15:15:56.999Z</time></trkpt><trkpt lat="37.99955185158382" lon="15.304851105769522"><ele>749.0</ele><time>2026-04-28T15:15:57.999Z</time></trkpt><trkpt lat="37.999480900276936" lon="15.304796649609662"><ele>752.8000000000001</ele><time>2026-04-28T15:15:58.999Z</time></trkpt><trkpt lat="37.99940231186579" lon="15.304729032559106"><ele>756.6</ele><time>2026-04-28T15:15:59.999Z</time></trkpt><trkpt lat="37.999321617078095" lon="15.304665581583597"><ele>760.4</ele><time>2026-04-28T15:16:00.999Z</time></trkpt><trkpt lat="37.999242685145354" lon="15.304575662595425"><ele>764.2</ele><time>2026-04-28T15:16:02.999Z</time></trkpt><trkpt lat="37.999219642000476" lon="15.304431281816118"><ele>768.0</ele><time>2026-04-28T15:16:04.999Z</time></trkpt><trkpt lat="37.99922134477791" lon="15.304339238058745"><ele>768.0</ele><time>2026-04-28T15:16:05.999Z</time></trkpt><trkpt lat="37.99923952914834" lon="15.304260745368154"><ele>768.0</ele><time>2026-04-28T15:16:06.999Z</time></trkpt><trkpt lat="37.999291254860886" lon="15.304172462118173"><ele>768.0</ele><time>2026-04-28T15:16:08.998Z</time></trkpt><trkpt lat="37.99948790714676" lon="15.304085643548378"><ele>768.0</ele><time>2026-04-28T15:17:25.999Z</time></trkpt><trkpt lat="37.999567307043726" lon="15.304035741573495"><ele>768.0</ele><time>2026-04-28T15:17:26.999Z</time></trkpt><trkpt lat="37.99964616007821" lon="15.303963166105955"><ele>764.2</ele><time>2026-04-28T15:17:27.999Z</time></trkpt><trkpt lat="37.99970640092528" lon="15.303867559736462"><ele>760.4</ele><time>2026-04-28T15:17:28.999Z</time></trkpt><trkpt lat="37.99975560042954" lon="15.30375117117244"><ele>756.6</ele><time>2026-04-28T15:17:29.999Z</time></trkpt><trkpt lat="37.999806688709356" lon="15.303655872432252"><ele>752.8000000000001</ele><time>2026-04-28T15:17:30.999Z</time></trkpt><trkpt lat="37.99988276948275" lon="15.303584363015284"><ele>749.0</ele><time>2026-04-28T15:17:31.999Z</time></trkpt><trkpt lat="37.99997322796917" lon="15.303531840013331"><ele>749.0</ele><time>2026-04-28T15:17:32.999Z</time></trkpt><trkpt lat="38.00006720421807" lon="15.303491649906954"><ele>749.0</ele><time>2026-04-28T15:17:33.999Z</time></trkpt><trkpt lat="38.00013890810228" lon="15.30342972468096"><ele>749.0</ele><time>2026-04-28T15:17:34.999Z</time></trkpt><trkpt lat="38.00020202890912" lon="15.303336444655562"><ele>749.0</ele><time>2026-04-28T15:17:35.999Z</time></trkpt><trkpt lat="38.00027730223973" lon="15.303218686343108"><ele>749.0</ele><time>2026-04-28T15:17:36.999Z</time></trkpt><trkpt lat="38.000359429230876" lon="15.303107643769449"><ele>745.6</ele><time>2026-04-28T15:17:37.999Z</time></trkpt><trkpt lat="38.00043289001396" lon="15.303008257814444"><ele>742.2</ele><time>2026-04-28T15:17:38.999Z</time></trkpt><trkpt lat="38.00048021122678" lon="15.302891147462804"><ele>738.8000000000001</ele><time>2026-04-28T15:17:39.999Z</time></trkpt><trkpt lat="38.00051615119748" lon="15.302757704374734"><ele>735.4000000000001</ele><time>2026-04-28T15:17:40.999Z</time></trkpt><trkpt lat="38.00054509136821" lon="15.302614578358277"><ele>732.0</ele><time>2026-04-28T15:17:41.999Z</time></trkpt><trkpt lat="38.000559466617524" lon="15.30246708420388"><ele>732.0</ele><time>2026-04-28T15:17:42.999Z</time></trkpt><trkpt lat="38.000565008590215" lon="15.302324347593041"><ele>732.0</ele><time>2026-04-28T15:17:43.999Z</time></trkpt><trkpt lat="38.00055333564985" lon="15.302179291120424"><ele>732.0</ele><time>2026-04-28T15:17:44.999Z</time></trkpt><trkpt lat="38.0005332470678" lon="15.302020590243709"><ele>732.0</ele><time>2026-04-28T15:17:45.999Z</time></trkpt><trkpt lat="38.00053317840758" lon="15.301871155370314"><ele>732.0</ele><time>2026-04-28T15:17:46.999Z</time></trkpt><trkpt lat="38.00053276116752" lon="15.301746012369007"><ele>732.0</ele><time>2026-04-28T15:17:47.999Z</time></trkpt><trkpt lat="38.000528276644836" lon="15.301614819085799"><ele>732.0</ele><time>2026-04-28T15:17:48.999Z</time></trkpt><trkpt lat="38.00051848613269" lon="15.301498364016924"><ele>732.0</ele><time>2026-04-28T15:17:49.999Z</time></trkpt><trkpt lat="38.000490662226134" lon="15.301425338424814"><ele>732.0</ele><time>2026-04-28T15:17:50.999Z</time></trkpt><trkpt lat="38.00038142789187" lon="15.301342330997924"><ele>736.2</ele><time>2026-04-28T15:17:52.999Z</time></trkpt><trkpt lat="38.00032211526273" lon="15.301297696176912"><ele>740.4000000000001</ele><time>2026-04-28T15:17:53.999Z</time></trkpt><trkpt lat="38.00032873655091" lon="15.30115048880643"><ele>744.5999999999999</ele><time>2026-04-28T15:17:55.999Z</time></trkpt><trkpt lat="38.00038440840193" lon="15.301045446174793"><ele>748.8</ele><time>2026-04-28T15:17:56.999Z</time></trkpt><trkpt lat="38.000439581146736" lon="15.30094970962162"><ele>753.0</ele><time>2026-04-28T15:17:57.999Z</time></trkpt><trkpt lat="38.000425409056255" lon="15.300834670112627"><ele>753.0</ele><time>2026-04-28T15:17:59.999Z</time></trkpt><trkpt lat="38.000325919429265" lon="15.300765832674958"><ele>753.0</ele><time>2026-04-28T15:18:01.999Z</time></trkpt><trkpt lat="38.000298574782626" lon="15.30067319715327"><ele>753.0</ele><time>2026-04-28T15:18:02.999Z</time></trkpt><trkpt lat="38.0003060135734" lon="15.30054926809908"><ele>753.0</ele><time>2026-04-28T15:18:03.999Z</time></trkpt><trkpt lat="38.00029388597013" lon="15.30042970470409"><ele>753.0</ele><time>2026-04-28T15:18:04.999Z</time></trkpt><trkpt lat="38.00023896725542" lon="15.300330509101999"><ele>753.5999999999999</ele><time>2026-04-28T15:18:05.999Z</time></trkpt><trkpt lat="38.0001699502377" lon="15.300270376931662"><ele>754.1999999999999</ele><time>2026-04-28T15:18:06.999Z</time></trkpt><trkpt lat="38.000170219500106" lon="15.300116145699347"><ele>754.8</ele><time>2026-04-28T15:18:08.999Z</time></trkpt><trkpt lat="38.000227492393435" lon="15.300021855980413"><ele>755.4</ele><time>2026-04-28T15:18:09.999Z</time></trkpt><trkpt lat="38.000299506015004" lon="15.299903995235002"><ele>756.0</ele><time>2026-04-28T15:18:10.998Z</time></trkpt><trkpt lat="38.00036682329647" lon="15.299769515886595"><ele>757.4</ele><time>2026-04-28T15:18:11.998Z</time></trkpt><trkpt lat="38.000406345307006" lon="15.299651735891237"><ele>758.8</ele><time>2026-04-28T15:18:12.998Z</time></trkpt><trkpt lat="38.00039955927751" lon="15.299533274971983"><ele>760.1999999999999</ele><time>2026-04-28T15:18:13.998Z</time></trkpt><trkpt lat="38.000362714825606" lon="15.29939638070679"><ele>761.5999999999999</ele><time>2026-04-28T15:18:14.998Z</time></trkpt><trkpt lat="38.00031749851016" lon="15.299234371839473"><ele>763.0</ele><time>2026-04-28T15:18:15.998Z</time></trkpt><trkpt lat="38.000280280897" lon="15.299090404128146"><ele>763.0</ele><time>2026-04-28T15:18:16.998Z</time></trkpt><trkpt lat="38.0002566299354" lon="15.298960118849005"><ele>763.0</ele><time>2026-04-28T15:18:17.998Z</time></trkpt><trkpt lat="38.00023434133315" lon="15.298859272384545"><ele>763.0</ele><time>2026-04-28T15:18:18.998Z</time></trkpt><trkpt lat="38.00024156301869" lon="15.298749554351536"><ele>763.0</ele><time>2026-04-28T15:18:20.998Z</time></trkpt><trkpt lat="38.00035876869174" lon="15.298708403543388"><ele>763.0</ele><time>2026-04-28T15:18:22.998Z</time></trkpt><trkpt lat="38.00045902648535" lon="15.298721211005219"><ele>763.25</ele><time>2026-04-28T15:18:23.998Z</time></trkpt><trkpt lat="38.00057555956295" lon="15.298745914676951"><ele>763.5</ele><time>2026-04-28T15:18:24.998Z</time></trkpt><trkpt lat="38.00069965286903" lon="15.298774243285267"><ele>763.75</ele><time>2026-04-28T15:18:25.998Z</time></trkpt><trkpt lat="38.00083245270773" lon="15.298804794367983"><ele>764.0</ele><time>2026-04-28T15:18:26.998Z</time></trkpt><trkpt lat="38.00095886615499" lon="15.29882846735294"><ele>764.0</ele><time>2026-04-28T15:18:27.998Z</time></trkpt><trkpt lat="38.00108264683007" lon="15.298851016186276"><ele>764.0</ele><time>2026-04-28T15:18:28.998Z</time></trkpt><trkpt lat="38.00119953032353" lon="15.298852162226193"><ele>764.0</ele><time>2026-04-28T15:18:29.998Z</time></trkpt><trkpt lat="38.00132704364116" lon="15.298823309495097"><ele>764.0</ele><time>2026-04-28T15:18:30.998Z</time></trkpt><trkpt lat="38.00145552536591" lon="15.29880738134778"><ele>764.0</ele><time>2026-04-28T15:18:31.998Z</time></trkpt><trkpt lat="38.0015553537843" lon="15.29879190203736"><ele>764.0</ele><time>2026-04-28T15:18:32.998Z</time></trkpt><trkpt lat="38.00165251446011" lon="15.298741970446374"><ele>764.0</ele><time>2026-04-28T15:18:33.998Z</time></trkpt><trkpt lat="38.00174534028561" lon="15.298669216004665"><ele>764.0</ele><time>2026-04-28T15:18:34.998Z</time></trkpt><trkpt lat="38.00182645412417" lon="15.298617070517297"><ele>764.0</ele><time>2026-04-28T15:18:35.998Z</time></trkpt><trkpt lat="38.001923141826495" lon="15.298590529475725"><ele>765.2</ele><time>2026-04-28T15:18:36.998Z</time></trkpt><trkpt lat="38.002042495808055" lon="15.298567940874536"><ele>766.4000000000001</ele><time>2026-04-28T15:18:37.998Z</time></trkpt><trkpt lat="38.00214377688026" lon="15.298559710186355"><ele>767.6</ele><time>2026-04-28T15:18:38.998Z</time></trkpt><trkpt lat="38.0022588333541" lon="15.298563899124842"><ele>768.8</ele><time>2026-04-28T15:18:39.998Z</time></trkpt><trkpt lat="38.00236713510947" lon="15.298556077900749"><ele>770.0</ele><time>2026-04-28T15:18:40.998Z</time></trkpt><trkpt lat="38.00248604572024" lon="15.2984951474287"><ele>771.2</ele><time>2026-04-28T15:18:41.998Z</time></trkpt><trkpt lat="38.00257864799781" lon="15.298443888811232"><ele>772.4</ele><time>2026-04-28T15:18:42.999Z</time></trkpt><trkpt lat="38.00264471598152" lon="15.298412406061987"><ele>773.5999999999999</ele><time>2026-04-28T15:18:43.999Z</time></trkpt><trkpt lat="38.002784042953046" lon="15.298419926020296"><ele>774.8</ele><time>2026-04-28T15:18:45.999Z</time></trkpt><trkpt lat="38.002876409799974" lon="15.298481987219118"><ele>776.0</ele><time>2026-04-28T15:18:46.999Z</time></trkpt><trkpt lat="38.00296515293676" lon="15.298544862231335"><ele>776.0</ele><time>2026-04-28T15:18:47.999Z</time></trkpt><trkpt lat="38.00303116293328" lon="15.298566293308491"><ele>776.0</ele><time>2026-04-28T15:18:48.999Z</time></trkpt><trkpt lat="38.003111939845425" lon="15.298541824759825"><ele>776.0</ele><time>2026-04-28T15:18:49.999Z</time></trkpt><trkpt lat="38.003233082178674" lon="15.2985095022005"><ele>776.0</ele><time>2026-04-28T15:18:50.999Z</time></trkpt><trkpt lat="38.00335537407743" lon="15.298474563642767"><ele>776.0</ele><time>2026-04-28T15:18:51.999Z</time></trkpt><trkpt lat="38.00347726395999" lon="15.298409846505995"><ele>777.1999999999999</ele><time>2026-04-28T15:18:52.999Z</time></trkpt><trkpt lat="38.00359738775798" lon="15.298340655559462"><ele>778.4</ele><time>2026-04-28T15:18:53.999Z</time></trkpt><trkpt lat="38.00368629117875" lon="15.298299199173414"><ele>779.6</ele><time>2026-04-28T15:18:54.999Z</time></trkpt><trkpt lat="38.00375172055854" lon="15.298254065407182"><ele>780.8</ele><time>2026-04-28T15:18:55.999Z</time></trkpt><trkpt lat="38.00379478421856" lon="15.298158868270894"><ele>782.0</ele><time>2026-04-28T15:18:56.999Z</time></trkpt><trkpt lat="38.003840075339504" lon="15.298030044721422"><ele>779.4000000000001</ele><time>2026-04-28T15:18:57.999Z</time></trkpt><trkpt lat="38.00389329796804" lon="15.297899377979316"><ele>776.8000000000001</ele><time>2026-04-28T15:18:58.999Z</time></trkpt><trkpt lat="38.003945677086506" lon="15.297807668058217"><ele>774.2</ele><time>2026-04-28T15:18:59.999Z</time></trkpt><trkpt lat="38.004000933596586" lon="15.297746153678585"><ele>771.6</ele><time>2026-04-28T15:19:00.999Z</time></trkpt><trkpt lat="38.00411302889008" lon="15.297688221528396"><ele>769.0</ele><time>2026-04-28T15:19:02.999Z</time></trkpt><trkpt lat="38.004205092116536" lon="15.297724142592635"><ele>769.0</ele><time>2026-04-28T15:19:03.999Z</time></trkpt><trkpt lat="38.0043371138765" lon="15.297781486835804"><ele>769.0</ele><time>2026-04-28T15:19:04.999Z</time></trkpt><trkpt lat="38.0044848752262" lon="15.297833207689466"><ele>769.0</ele><time>2026-04-28T15:19:05.999Z</time></trkpt><trkpt lat="38.004634298659205" lon="15.297920181376053"><ele>769.0</ele><time>2026-04-28T15:19:06.999Z</time></trkpt><trkpt lat="38.00476304030983" lon="15.297990215595435"><ele>769.0</ele><time>2026-04-28T15:19:07.999Z</time></trkpt><trkpt lat="38.004888105164106" lon="15.298041993199616"><ele>769.0</ele><time>2026-04-28T15:19:08.999Z</time></trkpt><trkpt lat="38.004995978321794" lon="15.29807776147102"><ele>769.0</ele><time>2026-04-28T15:19:09.999Z</time></trkpt><trkpt lat="38.00510490728419" lon="15.29809986337914"><ele>768.5</ele><time>2026-04-28T15:19:10.999Z</time></trkpt><trkpt lat="38.00521194678379" lon="15.298083963770543"><ele>768.0</ele><time>2026-04-28T15:19:11.999Z</time></trkpt><trkpt lat="38.005318140388354" lon="15.298032121988054"><ele>767.5</ele><time>2026-04-28T15:19:12.999Z</time></trkpt><trkpt lat="38.00542479536506" lon="15.297955436284111"><ele>767.0</ele><time>2026-04-28T15:19:13.999Z</time></trkpt><trkpt lat="38.0055156629206" lon="15.297835221924228"><ele>767.0</ele><time>2026-04-28T15:19:14.999Z</time></trkpt><trkpt lat="38.005602599394386" lon="15.29771159652713"><ele>767.0</ele><time>2026-04-28T15:19:15.999Z</time></trkpt><trkpt lat="38.00567358237022" lon="15.297592287984504"><ele>767.0</ele><time>2026-04-28T15:19:16.999Z</time></trkpt><trkpt lat="38.00573563223432" lon="15.297519877785255"><ele>767.0</ele><time>2026-04-28T15:19:17.999Z</time></trkpt><trkpt lat="38.00579734312695" lon="15.297475453720036"><ele>767.0</ele><time>2026-04-28T15:19:18.999Z</time></trkpt><trkpt lat="38.00588919961586" lon="15.297458775027975"><ele>768.3333333333333</ele><time>2026-04-28T15:19:19.999Z</time></trkpt><trkpt lat="38.00600280588003" lon="15.297431347914058"><ele>769.6666666666666</ele><time>2026-04-28T15:19:20.999Z</time></trkpt><trkpt lat="38.006063015838016" lon="15.297387001431701"><ele>771.0</ele><time>2026-04-28T15:19:21.999Z</time></trkpt><trkpt lat="38.00608058681812" lon="15.297307156326777"><ele>772.3333333333333</ele><time>2026-04-28T15:19:22.999Z</time></trkpt><trkpt lat="38.00609117428428" lon="15.29719510446486"><ele>773.6666666666666</ele><time>2026-04-28T15:19:23.999Z</time></trkpt><trkpt lat="38.006107798627085" lon="15.297061435416765"><ele>775.0</ele><time>2026-04-28T15:19:24.999Z</time></trkpt><trkpt lat="38.0061327899398" lon="15.296979328585522"><ele>775.6</ele><time>2026-04-28T15:19:25.999Z</time></trkpt><trkpt lat="38.00619235834329" lon="15.296924267818488"><ele>776.2</ele><time>2026-04-28T15:19:26.999Z</time></trkpt><trkpt lat="38.00627734956798" lon="15.296893286703328"><ele>776.8</ele><time>2026-04-28T15:19:27.999Z</time></trkpt><trkpt lat="38.006389757180216" lon="15.296880051766717"><ele>777.4</ele><time>2026-04-28T15:19:28.999Z</time></trkpt><trkpt lat="38.00654535580468" lon="15.296843761135266"><ele>778.0</ele><time>2026-04-28T15:19:29.999Z</time></trkpt><trkpt lat="38.00669664795522" lon="15.29678967896172"><ele>778.0</ele><time>2026-04-28T15:19:30.999Z</time></trkpt><trkpt lat="38.00683330620015" lon="15.296728309733206"><ele>778.0</ele><time>2026-04-28T15:19:31.999Z</time></trkpt><trkpt lat="38.00695240972982" lon="15.296696182659183"><ele>778.0</ele><time>2026-04-28T15:19:32.999Z</time></trkpt><trkpt lat="38.00703682574804" lon="15.296656182136953"><ele>778.0</ele><time>2026-04-28T15:19:33.999Z</time></trkpt><trkpt lat="38.00711325832779" lon="15.296594658008496"><ele>778.0</ele><time>2026-04-28T15:19:34.999Z</time></trkpt><trkpt lat="38.00717450823663" lon="15.29651048641541"><ele>780.8</ele><time>2026-04-28T15:19:35.999Z</time></trkpt><trkpt lat="38.00722408503533" lon="15.296418686559615"><ele>783.5999999999999</ele><time>2026-04-28T15:19:36.999Z</time></trkpt><trkpt lat="38.00728587454274" lon="15.296316149599892"><ele>786.4000000000001</ele><time>2026-04-28T15:19:37.999Z</time></trkpt><trkpt lat="38.00735866989958" lon="15.296215980146137"><ele>789.2</ele><time>2026-04-28T15:19:38.999Z</time></trkpt><trkpt lat="38.00744978298821" lon="15.29611722844145"><ele>792.0</ele><time>2026-04-28T15:19:39.999Z</time></trkpt><trkpt lat="38.007532276962166" lon="15.296019065924476"><ele>792.0</ele><time>2026-04-28T15:19:40.999Z</time></trkpt><trkpt lat="38.007569638643126" lon="15.295919633874849"><ele>792.0</ele><time>2026-04-28T15:19:41.999Z</time></trkpt><trkpt lat="38.00757449551487" lon="15.295816649929751"><ele>792.0</ele><time>2026-04-28T15:19:42.999Z</time></trkpt><trkpt lat="38.007559784630494" lon="15.295705701583845"><ele>792.0</ele><time>2026-04-28T15:19:43.999Z</time></trkpt><trkpt lat="38.007549903052976" lon="15.295603287354494"><ele>792.0</ele><time>2026-04-28T15:19:44.999Z</time></trkpt><trkpt lat="38.007605580708066" lon="15.295496223521553"><ele>792.0</ele><time>2026-04-28T15:19:46.999Z</time></trkpt><trkpt lat="38.00768181043285" lon="15.295445713355338"><ele>792.8</ele><time>2026-04-28T15:19:47.999Z</time></trkpt><trkpt lat="38.00776849475151" lon="15.295370543130867"><ele>793.6</ele><time>2026-04-28T15:19:48.999Z</time></trkpt><trkpt lat="38.00780976813251" lon="15.295279970051538"><ele>794.4</ele><time>2026-04-28T15:19:49.999Z</time></trkpt><trkpt lat="38.00777349931948" lon="15.295126039469311"><ele>795.1999999999999</ele><time>2026-04-28T15:19:51.999Z</time></trkpt><trkpt lat="38.00771497831006" lon="15.295047826703694"><ele>796.0</ele><time>2026-04-28T15:19:52.999Z</time></trkpt><trkpt lat="38.00764358326896" lon="15.294973851579337"><ele>796.0</ele><time>2026-04-28T15:19:53.999Z</time></trkpt><trkpt lat="38.00757544192274" lon="15.294887010265766"><ele>796.0</ele><time>2026-04-28T15:19:54.999Z</time></trkpt><trkpt lat="38.00752094917737" lon="15.294766207569678"><ele>796.0</ele><time>2026-04-28T15:19:55.999Z</time></trkpt><trkpt lat="38.00746327367803" lon="15.294632843223287"><ele>796.0</ele><time>2026-04-28T15:19:56.999Z</time></trkpt><trkpt lat="38.007420176126836" lon="15.294503178748789"><ele>796.0</ele><time>2026-04-28T15:19:57.999Z</time></trkpt><trkpt lat="38.0073776453688" lon="15.294408576795494"><ele>791.4999999999999</ele><time>2026-04-28T15:19:58.999Z</time></trkpt><trkpt lat="38.00734930650195" lon="15.29430233792647"><ele>787.0</ele><time>2026-04-28T15:19:59.999Z</time></trkpt><trkpt lat="38.007329453214176" lon="15.294173520582168"><ele>782.5</ele><time>2026-04-28T15:20:00.999Z</time></trkpt><trkpt lat="38.00731154864695" lon="15.29406586654688"><ele>778.0</ele><time>2026-04-28T15:20:01.999Z</time></trkpt><trkpt lat="38.00732231470581" lon="15.293981105837808"><ele>773.4999999999999</ele><time>2026-04-28T15:20:02.999Z</time></trkpt><trkpt lat="38.007368728170036" lon="15.29386880217689"><ele>769.0</ele><time>2026-04-28T15:20:03.999Z</time></trkpt><trkpt lat="38.00742458206573" lon="15.293742912385824"><ele>767.4000000000001</ele><time>2026-04-28T15:20:04.999Z</time></trkpt><trkpt lat="38.0074819247848" lon="15.293627446259851"><ele>765.8</ele><time>2026-04-28T15:20:05.999Z</time></trkpt><trkpt lat="38.00754032675379" lon="15.293503488621814"><ele>764.2</ele><time>2026-04-28T15:20:06.999Z</time></trkpt><trkpt lat="38.007562820430245" lon="15.293360855804139"><ele>762.5999999999999</ele><time>2026-04-28T15:20:07.999Z</time></trkpt><trkpt lat="38.007587389708505" lon="15.293224425159544"><ele>761.0</ele><time>2026-04-28T15:20:08.999Z</time></trkpt><trkpt lat="38.00760230334199" lon="15.293095610410594"><ele>767.1666666666666</ele><time>2026-04-28T15:20:09.999Z</time></trkpt><trkpt lat="38.007613061927756" lon="15.292998203878819"><ele>773.3333333333333</ele><time>2026-04-28T15:20:10.999Z</time></trkpt><trkpt lat="38.00768524002449" lon="15.29291224571712"><ele>779.5</ele><time>2026-04-28T15:20:12.999Z</time></trkpt><trkpt lat="38.00776476246402" lon="15.292901874823468"><ele>785.6666666666666</ele><time>2026-04-28T15:20:13.998Z</time></trkpt><trkpt lat="38.00784735552938" lon="15.292924110291752"><ele>791.8333333333334</ele><time>2026-04-28T15:20:14.998Z</time></trkpt><trkpt lat="38.00791365387122" lon="15.292968458352682"><ele>798.0</ele><time>2026-04-28T15:20:15.998Z</time></trkpt><trkpt lat="38.00798588675985" lon="15.293039988359135"><ele>800.2</ele><time>2026-04-28T15:20:16.998Z</time></trkpt><trkpt lat="38.0080776650312" lon="15.293115323617668"><ele>802.4</ele><time>2026-04-28T15:20:17.998Z</time></trkpt><trkpt lat="38.00817708277183" lon="15.293174931517575"><ele>804.6</ele><time>2026-04-28T15:20:18.998Z</time></trkpt><trkpt lat="38.00826933471003" lon="15.293200481525757"><ele>806.8000000000001</ele><time>2026-04-28T15:20:19.998Z</time></trkpt><trkpt lat="38.008350555335845" lon="15.293185461800034"><ele>809.0</ele><time>2026-04-28T15:20:20.998Z</time></trkpt><trkpt lat="38.008431624346024" lon="15.293150457444906"><ele>813.6</ele><time>2026-04-28T15:20:21.998Z</time></trkpt><trkpt lat="38.0085342842216" lon="15.29314652537836"><ele>818.2</ele><time>2026-04-28T15:20:22.998Z</time></trkpt><trkpt lat="38.008640959751155" lon="15.293178187718866"><ele>822.8000000000001</ele><time>2026-04-28T15:20:23.998Z</time></trkpt><trkpt lat="38.00874865917444" lon="15.293229115281889"><ele>827.4000000000001</ele><time>2026-04-28T15:20:24.998Z</time></trkpt><trkpt lat="38.00884055314498" lon="15.293293783336464"><ele>832.0</ele><time>2026-04-28T15:20:25.998Z</time></trkpt><trkpt lat="38.008917228182604" lon="15.293371990846255"><ele>832.0</ele><time>2026-04-28T15:20:26.998Z</time></trkpt><trkpt lat="38.00898622516176" lon="15.29342907159585"><ele>832.0</ele><time>2026-04-28T15:20:27.998Z</time></trkpt><trkpt lat="38.0090543033461" lon="15.293400120128958"><ele>832.0</ele><time>2026-04-28T15:20:28.998Z</time></trkpt><trkpt lat="38.009150191675744" lon="15.293325420316094"><ele>832.0</ele><time>2026-04-28T15:20:29.998Z</time></trkpt><trkpt lat="38.009244827468585" lon="15.293242417329798"><ele>832.0</ele><time>2026-04-28T15:20:30.998Z</time></trkpt><trkpt lat="38.00934751883163" lon="15.293206164929776"><ele>832.75</ele><time>2026-04-28T15:20:31.998Z</time></trkpt><trkpt lat="38.00948001429392" lon="15.293214601877922"><ele>833.5</ele><time>2026-04-28T15:20:32.998Z</time></trkpt><trkpt lat="38.00960715982523" lon="15.293227178399318"><ele>834.25</ele><time>2026-04-28T15:20:33.998Z</time></trkpt><trkpt lat="38.00968147985966" lon="15.29320464736678"><ele>835.0</ele><time>2026-04-28T15:20:34.998Z</time></trkpt><trkpt lat="38.00971039976689" lon="15.293030647161217"><ele>835.8</ele><time>2026-04-28T15:20:36.998Z</time></trkpt><trkpt lat="38.00970935584475" lon="15.292931710653713"><ele>836.6</ele><time>2026-04-28T15:20:37.998Z</time></trkpt><trkpt lat="38.00975152968075" lon="15.292854883682823"><ele>837.4000000000001</ele><time>2026-04-28T15:20:38.998Z</time></trkpt><trkpt lat="38.00983961386692" lon="15.292816184442703"><ele>838.2</ele><time>2026-04-28T15:20:39.998Z</time></trkpt><trkpt lat="38.0099543941679" lon="15.292766366896373"><ele>839.0</ele><time>2026-04-28T15:20:40.998Z</time></trkpt><trkpt lat="38.01003830538643" lon="15.292686623166063"><ele>839.0</ele><time>2026-04-28T15:20:41.998Z</time></trkpt><trkpt lat="38.01007314796662" lon="15.292579272293146"><ele>839.0</ele><time>2026-04-28T15:20:42.998Z</time></trkpt><trkpt lat="38.010078208655294" lon="15.292464344431941"><ele>839.0</ele><time>2026-04-28T15:20:43.998Z</time></trkpt><trkpt lat="38.01006843283787" lon="15.292352835918223"><ele>839.0</ele><time>2026-04-28T15:20:44.998Z</time></trkpt><trkpt lat="38.0100423603646" lon="15.292228903970791"><ele>839.0</ele><time>2026-04-28T15:20:45.998Z</time></trkpt><trkpt lat="38.010012884494785" lon="15.292120732863221"><ele>836.3333333333334</ele><time>2026-04-28T15:20:46.998Z</time></trkpt><trkpt lat="38.01002717289423" lon="15.29203593686582"><ele>833.6666666666667</ele><time>2026-04-28T15:20:47.998Z</time></trkpt><trkpt lat="38.010072650074825" lon="15.29194315442095"><ele>831.0</ele><time>2026-04-28T15:20:48.999Z</time></trkpt><trkpt lat="38.01013954360137" lon="15.2919010158773"><ele>828.3333333333333</ele><time>2026-04-28T15:20:49.999Z</time></trkpt><trkpt lat="38.0102228172292" lon="15.291882987711638"><ele>825.6666666666666</ele><time>2026-04-28T15:20:50.999Z</time></trkpt><trkpt lat="38.01032898855619" lon="15.291899119939922"><ele>823.0</ele><time>2026-04-28T15:20:51.999Z</time></trkpt><trkpt lat="38.01044847184269" lon="15.291916929107542"><ele>823.0</ele><time>2026-04-28T15:20:52.999Z</time></trkpt><trkpt lat="38.01058113871299" lon="15.29189830863996"><ele>823.0</ele><time>2026-04-28T15:20:53.999Z</time></trkpt><trkpt lat="38.01072102866578" lon="15.291857266206305"><ele>823.0</ele><time>2026-04-28T15:20:54.999Z</time></trkpt><trkpt lat="38.01084297069485" lon="15.291815627681506"><ele>823.0</ele><time>2026-04-28T15:20:55.999Z</time></trkpt><trkpt lat="38.01092990511666" lon="15.291771127616263"><ele>828.5</ele><time>2026-04-28T15:20:56.999Z</time></trkpt><trkpt lat="38.011010734229174" lon="15.291753466988116"><ele>834.0</ele><time>2026-04-28T15:20:57.999Z</time></trkpt><trkpt lat="38.0111302087678" lon="15.291764274118487"><ele>839.5</ele><time>2026-04-28T15:20:58.999Z</time></trkpt><trkpt lat="38.011293982825414" lon="15.29176481967297"><ele>845.0</ele><time>2026-04-28T15:20:59.999Z</time></trkpt><trkpt lat="38.011450204853816" lon="15.29176691873745"><ele>845.0</ele><time>2026-04-28T15:21:00.999Z</time></trkpt><trkpt lat="38.01158419752548" lon="15.291779713002782"><ele>845.0</ele><time>2026-04-28T15:21:01.999Z</time></trkpt><trkpt lat="38.011713079789985" lon="15.291807322482661"><ele>845.0</ele><time>2026-04-28T15:21:02.999Z</time></trkpt><trkpt lat="38.01182085068978" lon="15.291821975114471"><ele>845.0</ele><time>2026-04-28T15:21:03.999Z</time></trkpt><trkpt lat="38.0119215427083" lon="15.29179168665326"><ele>846.25</ele><time>2026-04-28T15:21:04.999Z</time></trkpt><trkpt lat="38.012041763009066" lon="15.291726800586098"><ele>847.5</ele><time>2026-04-28T15:21:05.999Z</time></trkpt><trkpt lat="38.0121369768477" lon="15.29166146197952"><ele>848.75</ele><time>2026-04-28T15:21:06.999Z</time></trkpt><trkpt lat="38.01224011634772" lon="15.291638418227071"><ele>850.0</ele><time>2026-04-28T15:21:07.999Z</time></trkpt><trkpt lat="38.01236348868055" lon="15.291643603474643"><ele>850.75</ele><time>2026-04-28T15:21:08.999Z</time></trkpt><trkpt lat="38.012491475783875" lon="15.291683086829948"><ele>851.5</ele><time>2026-04-28T15:21:09.999Z</time></trkpt><trkpt lat="38.0126022677233" lon="15.291681211183096"><ele>852.25</ele><time>2026-04-28T15:21:10.999Z</time></trkpt><trkpt lat="38.01271544285057" lon="15.291641868408298"><ele>853.0</ele><time>2026-04-28T15:21:11.999Z</time></trkpt><trkpt lat="38.01284943237461" lon="15.291572828335077"><ele>853.0</ele><time>2026-04-28T15:21:12.999Z</time></trkpt><trkpt lat="38.01297854821383" lon="15.29151628429072"><ele>853.0</ele><time>2026-04-28T15:21:13.999Z</time></trkpt><trkpt lat="38.01308996295184" lon="15.291477397330931"><ele>853.0</ele><time>2026-04-28T15:21:14.999Z</time></trkpt><trkpt lat="38.013206324371225" lon="15.291447407539973"><ele>853.0</ele><time>2026-04-28T15:21:15.999Z</time></trkpt><trkpt lat="38.01335589669074" lon="15.291448984454767"><ele>855.0</ele><time>2026-04-28T15:21:16.999Z</time></trkpt><trkpt lat="38.0134885416923" lon="15.291447612131742"><ele>857.0</ele><time>2026-04-28T15:21:17.999Z</time></trkpt><trkpt lat="38.01361640383268" lon="15.291417772818665"><ele>859.0</ele><time>2026-04-28T15:21:18.999Z</time></trkpt><trkpt lat="38.01373336852771" lon="15.291368376075892"><ele>861.0</ele><time>2026-04-28T15:21:19.999Z</time></trkpt><trkpt lat="38.01382711790155" lon="15.291290110070422"><ele>860.1999999999999</ele><time>2026-04-28T15:21:20.999Z</time></trkpt><trkpt lat="38.01391494585583" lon="15.291198261895136"><ele>859.3999999999999</ele><time>2026-04-28T15:21:21.999Z</time></trkpt><trkpt lat="38.013988382510064" lon="15.291117243428413"><ele>858.6</ele><time>2026-04-28T15:21:22.999Z</time></trkpt><trkpt lat="38.01409211028688" lon="15.29105986124909"><ele>857.8</ele><time>2026-04-28T15:21:23.999Z</time></trkpt><trkpt lat="38.01418058876824" lon="15.291007301581091"><ele>857.0</ele><time>2026-04-28T15:21:24.999Z</time></trkpt><trkpt lat="38.01424584873927" lon="15.290948782698674"><ele>857.0</ele><time>2026-04-28T15:21:25.999Z</time></trkpt><trkpt lat="38.014295472243084" lon="15.290850460369269"><ele>857.0</ele><time>2026-04-28T15:21:26.999Z</time></trkpt><trkpt lat="38.01434326568966" lon="15.290774600597926"><ele>857.0</ele><time>2026-04-28T15:21:27.999Z</time></trkpt><trkpt lat="38.01440675128843" lon="15.290723292746828"><ele>857.0</ele><time>2026-04-28T15:21:28.999Z</time></trkpt><trkpt lat="38.01451057916295" lon="15.290693771066701"><ele>857.0</ele><time>2026-04-28T15:21:29.999Z</time></trkpt><trkpt lat="38.01461761788604" lon="15.290634621364458"><ele>857.0</ele><time>2026-04-28T15:21:30.999Z</time></trkpt><trkpt lat="38.014723790744334" lon="15.290549879517945"><ele>857.0</ele><time>2026-04-28T15:21:31.999Z</time></trkpt><trkpt lat="38.014836536403315" lon="15.29060901085318"><ele>857.0</ele><time>2026-04-28T15:21:32.999Z</time></trkpt><trkpt lat="38.014961089823984" lon="15.290502354526573"><ele>857.0</ele><time>2026-04-28T15:21:33.999Z</time></trkpt><trkpt lat="38.01507261705629" lon="15.290402638745482"><ele>858.2</ele><time>2026-04-28T15:21:34.999Z</time></trkpt><trkpt lat="38.01515011037387" lon="15.290337179504988"><ele>859.4000000000001</ele><time>2026-04-28T15:21:35.999Z</time></trkpt><trkpt lat="38.01516746507588" lon="15.290195609414688"><ele>860.5999999999999</ele><time>2026-04-28T15:21:37.999Z</time></trkpt><trkpt lat="38.015174305914286" lon="15.290081962732636"><ele>861.8</ele><time>2026-04-28T15:21:38.999Z</time></trkpt><trkpt lat="38.0151916231037" lon="15.28996156350004"><ele>863.0</ele><time>2026-04-28T15:21:39.999Z</time></trkpt><trkpt lat="38.01518342282915" lon="15.28985559665373"><ele>863.8</ele><time>2026-04-28T15:21:40.999Z</time></trkpt><trkpt lat="38.01517924954558" lon="15.289721043934794"><ele>864.5999999999999</ele><time>2026-04-28T15:21:41.999Z</time></trkpt><trkpt lat="38.015172638012125" lon="15.289602911590848"><ele>865.4000000000001</ele><time>2026-04-28T15:21:42.999Z</time></trkpt><trkpt lat="38.01516475022322" lon="15.289463168589183"><ele>866.2</ele><time>2026-04-28T15:21:43.999Z</time></trkpt><trkpt lat="38.01515693724592" lon="15.28930512041496"><ele>867.0</ele><time>2026-04-28T15:21:44.999Z</time></trkpt><trkpt lat="38.01515027318649" lon="15.289138928342258"><ele>867.0</ele><time>2026-04-28T15:21:45.999Z</time></trkpt><trkpt lat="38.01512803048464" lon="15.288987604181283"><ele>867.0</ele><time>2026-04-28T15:21:46.999Z</time></trkpt><trkpt lat="38.0150970138074" lon="15.28883664377264"><ele>867.0</ele><time>2026-04-28T15:21:47.999Z</time></trkpt><trkpt lat="38.015062075992894" lon="15.288720250835567"><ele>867.0</ele><time>2026-04-28T15:21:48.999Z</time></trkpt><trkpt lat="38.015033135150176" lon="15.28863432746809"><ele>867.0</ele><time>2026-04-28T15:21:49.999Z</time></trkpt><trkpt lat="38.01508061192415" lon="15.28850116003438"><ele>866.0</ele><time>2026-04-28T15:21:51.999Z</time></trkpt><trkpt lat="38.01520012194595" lon="15.288493105367284"><ele>865.0</ele><time>2026-04-28T15:21:53.999Z</time></trkpt><trkpt lat="38.01527851026026" lon="15.28850305957814"><ele>864.0</ele><time>2026-04-28T15:21:54.999Z</time></trkpt><trkpt lat="38.01537354120649" lon="15.288533201949575"><ele>863.0</ele><time>2026-04-28T15:21:55.999Z</time></trkpt><trkpt lat="38.015496042763424" lon="15.28858813359215"><ele>862.0</ele><time>2026-04-28T15:21:56.999Z</time></trkpt><trkpt lat="38.01567787039432" lon="15.28875943475167"><ele>861.9999999999999</ele><time>2026-04-28T15:21:57.999Z</time></trkpt><trkpt lat="38.01574605087857" lon="15.288754123546388"><ele>862.0</ele><time>2026-04-28T15:21:58.999Z</time></trkpt><trkpt lat="38.01580839028526" lon="15.288716089735065"><ele>862.0</ele><time>2026-04-28T15:22:00.999Z</time></trkpt><trkpt lat="38.015923154477356" lon="15.28874880590442"><ele>862.0</ele><time>2026-04-28T15:22:03.999Z</time></trkpt><trkpt lat="38.016003702204856" lon="15.288798978468735"><ele>861.9999999999999</ele><time>2026-04-28T15:22:04.999Z</time></trkpt><trkpt lat="38.016091441803624" lon="15.288839581844547"><ele>862.0</ele><time>2026-04-28T15:22:05.999Z</time></trkpt><trkpt lat="38.01618133921077" lon="15.288884271538544"><ele>863.4999999999999</ele><time>2026-04-28T15:22:06.999Z</time></trkpt><trkpt lat="38.0162732502911" lon="15.288930096830663"><ele>865.0</ele><time>2026-04-28T15:22:07.999Z</time></trkpt><trkpt lat="38.01636534818284" lon="15.28894503221501"><ele>866.5</ele><time>2026-04-28T15:22:08.999Z</time></trkpt><trkpt lat="38.016437859938144" lon="15.288937273180114"><ele>868.0</ele><time>2026-04-28T15:22:09.999Z</time></trkpt><trkpt lat="38.016508395572" lon="15.288908556170059"><ele>869.4999999999999</ele><time>2026-04-28T15:22:10.999Z</time></trkpt><trkpt lat="38.01657982325463" lon="15.288892957387322"><ele>871.0</ele><time>2026-04-28T15:22:11.999Z</time></trkpt><trkpt lat="38.01667472336397" lon="15.28893792917987"><ele>874.5999999999999</ele><time>2026-04-28T15:22:12.999Z</time></trkpt><trkpt lat="38.01678631959066" lon="15.28902486648678"><ele>878.1999999999999</ele><time>2026-04-28T15:22:13.999Z</time></trkpt><trkpt lat="38.016869976357924" lon="15.28905524233562"><ele>881.8000000000001</ele><time>2026-04-28T15:22:14.999Z</time></trkpt><trkpt lat="38.01695443194547" lon="15.289050372353955"><ele>885.4000000000001</ele><time>2026-04-28T15:22:15.999Z</time></trkpt><trkpt lat="38.017058909890544" lon="15.288981785123285"><ele>889.0</ele><time>2026-04-28T15:22:16.999Z</time></trkpt><trkpt lat="38.01718887267626" lon="15.288947403140451"><ele>889.0</ele><time>2026-04-28T15:22:17.999Z</time></trkpt><trkpt lat="38.017312356310335" lon="15.288956861762978"><ele>889.0</ele><time>2026-04-28T15:22:18.999Z</time></trkpt><trkpt lat="38.017410284550444" lon="15.288984901108636"><ele>889.0</ele><time>2026-04-28T15:22:19.999Z</time></trkpt><trkpt lat="38.01754540214249" lon="15.288979757202654"><ele>889.0</ele><time>2026-04-28T15:22:20.999Z</time></trkpt><trkpt lat="38.017686429799575" lon="15.288956867927995"><ele>888.3333333333333</ele><time>2026-04-28T15:22:21.999Z</time></trkpt><trkpt lat="38.01782213513373" lon="15.288958628598968"><ele>887.6666666666667</ele><time>2026-04-28T15:22:22.999Z</time></trkpt><trkpt lat="38.01795115141298" lon="15.288956716995663"><ele>887.0</ele><time>2026-04-28T15:22:23.999Z</time></trkpt><trkpt lat="38.01813778709965" lon="15.289008790672316"><ele>887.0</ele><time>2026-04-28T15:22:24.999Z</time></trkpt><trkpt lat="38.01826088215439" lon="15.289003533550066"><ele>887.0</ele><time>2026-04-28T15:22:25.999Z</time></trkpt><trkpt lat="38.0183865498706" lon="15.289019289397224"><ele>887.0</ele><time>2026-04-28T15:22:26.999Z</time></trkpt><trkpt lat="38.01851447289996" lon="15.289045217227851"><ele>887.0</ele><time>2026-04-28T15:22:27.999Z</time></trkpt><trkpt lat="38.01864150777848" lon="15.289096781683783"><ele>886.4000000000001</ele><time>2026-04-28T15:22:28.999Z</time></trkpt><trkpt lat="38.01875997190334" lon="15.289136637225036"><ele>885.8000000000001</ele><time>2026-04-28T15:22:29.998Z</time></trkpt><trkpt lat="38.01886727124354" lon="15.28914945860913"><ele>885.2</ele><time>2026-04-28T15:22:30.998Z</time></trkpt><trkpt lat="38.01896341472479" lon="15.289149180417771"><ele>884.6</ele><time>2026-04-28T15:22:31.998Z</time></trkpt><trkpt lat="38.01907298393747" lon="15.289158478466604"><ele>884.0</ele><time>2026-04-28T15:22:32.998Z</time></trkpt><trkpt lat="38.01920388135519" lon="15.289177985819506"><ele>883.0</ele><time>2026-04-28T15:22:33.998Z</time></trkpt><trkpt lat="38.01933575111026" lon="15.289218613680093"><ele>882.0</ele><time>2026-04-28T15:22:34.998Z</time></trkpt><trkpt lat="38.019468854254555" lon="15.28927276433378"><ele>881.0</ele><time>2026-04-28T15:22:35.998Z</time></trkpt><trkpt lat="38.019597821901115" lon="15.28931879570687"><ele>880.0</ele><time>2026-04-28T15:22:36.998Z</time></trkpt><trkpt lat="38.019727581944196" lon="15.28934450133706"><ele>880.0</ele><time>2026-04-28T15:22:37.998Z</time></trkpt><trkpt lat="38.01983821446345" lon="15.289365931070671"><ele>880.0</ele><time>2026-04-28T15:22:38.998Z</time></trkpt><trkpt lat="38.019939228897" lon="15.289361466012275"><ele>880.0</ele><time>2026-04-28T15:22:39.998Z</time></trkpt><trkpt lat="38.02003250667025" lon="15.289358524012137"><ele>880.0</ele><time>2026-04-28T15:22:40.998Z</time></trkpt><trkpt lat="38.02011908760142" lon="15.289361902639538"><ele>880.0</ele><time>2026-04-28T15:22:41.998Z</time></trkpt><trkpt lat="38.020217204715145" lon="15.28937462512196"><ele>879.5</ele><time>2026-04-28T15:22:42.998Z</time></trkpt><trkpt lat="38.020348298223304" lon="15.289379659041606"><ele>879.0</ele><time>2026-04-28T15:22:43.998Z</time></trkpt><trkpt lat="38.02049048612389" lon="15.289368282341895"><ele>878.5</ele><time>2026-04-28T15:22:44.998Z</time></trkpt><trkpt lat="38.020635449278714" lon="15.289359500541543"><ele>878.0</ele><time>2026-04-28T15:22:45.998Z</time></trkpt><trkpt lat="38.020751968726444" lon="15.289339272606345"><ele>879.25</ele><time>2026-04-28T15:22:46.998Z</time></trkpt><trkpt lat="38.020867358552536" lon="15.289292093634986"><ele>880.5</ele><time>2026-04-28T15:22:47.998Z</time></trkpt><trkpt lat="38.02101086027267" lon="15.289240759296714"><ele>881.75</ele><time>2026-04-28T15:22:48.998Z</time></trkpt><trkpt lat="38.02116120869713" lon="15.289176718128742"><ele>883.0</ele><time>2026-04-28T15:22:49.998Z</time></trkpt><trkpt lat="38.02128465576723" lon="15.289111124621536"><ele>883.0</ele><time>2026-04-28T15:22:50.998Z</time></trkpt><trkpt lat="38.02138952088981" lon="15.289061446124347"><ele>883.0</ele><time>2026-04-28T15:22:51.998Z</time></trkpt><trkpt lat="38.02149259941261" lon="15.289016445273939"><ele>883.0</ele><time>2026-04-28T15:22:52.998Z</time></trkpt><trkpt lat="38.0216025365019" lon="15.288975636799043"><ele>883.0</ele><time>2026-04-28T15:22:54Z</time></trkpt><trkpt lat="38.02172070704688" lon="15.28892545821664"><ele>883.5</ele><time>2026-04-28T15:22:55Z</time></trkpt><trkpt lat="38.021851528106644" lon="15.288853822398018"><ele>884.0</ele><time>2026-04-28T15:22:56Z</time></trkpt><trkpt lat="38.021984157050284" lon="15.2887750994112"><ele>884.5</ele><time>2026-04-28T15:22:57Z</time></trkpt><trkpt lat="38.022085491746395" lon="15.288697759051715"><ele>885.0</ele><time>2026-04-28T15:22:58Z</time></trkpt><trkpt lat="38.02214805900794" lon="15.28860955309544"><ele>885.0</ele><time>2026-04-28T15:22:59Z</time></trkpt><trkpt lat="38.02221503522607" lon="15.288496589058523"><ele>885.0</ele><time>2026-04-28T15:23:00Z</time></trkpt><trkpt lat="38.02227124100928" lon="15.28838328042295"><ele>885.0</ele><time>2026-04-28T15:23:01Z</time></trkpt><trkpt lat="38.02232955110444" lon="15.288302941350073"><ele>885.0</ele><time>2026-04-28T15:23:02Z</time></trkpt><trkpt lat="38.02238798078815" lon="15.28824644008863"><ele>885.0</ele><time>2026-04-28T15:23:03Z</time></trkpt><trkpt lat="38.02245188636686" lon="15.288175105814558"><ele>887.2</ele><time>2026-04-28T15:23:04Z</time></trkpt><trkpt lat="38.02248093756341" lon="15.288078146208939"><ele>889.4</ele><time>2026-04-28T15:23:05Z</time></trkpt><trkpt lat="38.0225108998675" lon="15.287958133449418"><ele>891.5999999999999</ele><time>2026-04-28T15:23:06Z</time></trkpt><trkpt lat="38.02254609085571" lon="15.287818793461978"><ele>893.8</ele><time>2026-04-28T15:23:07Z</time></trkpt><trkpt lat="38.022579817786315" lon="15.287707627649189"><ele>896.0</ele><time>2026-04-28T15:23:08Z</time></trkpt><trkpt lat="38.02261926091199" lon="15.287615008608146"><ele>896.0</ele><time>2026-04-28T15:23:09Z</time></trkpt><trkpt lat="38.02270204570944" lon="15.287516136193409"><ele>895.9999999999999</ele><time>2026-04-28T15:23:10Z</time></trkpt><trkpt lat="38.02278773900286" lon="15.287443100382498"><ele>895.9999999999999</ele><time>2026-04-28T15:23:11Z</time></trkpt><trkpt lat="38.022856843029466" lon="15.287389012734652"><ele>896.0</ele><time>2026-04-28T15:23:12Z</time></trkpt><trkpt lat="38.02289608993638" lon="15.287262284185234"><ele>896.0</ele><time>2026-04-28T15:23:13.999Z</time></trkpt><trkpt lat="38.02289195684523" lon="15.287154046270423"><ele>895.3333333333334</ele><time>2026-04-28T15:23:14.999Z</time></trkpt><trkpt lat="38.02288319582943" lon="15.287023692433243"><ele>894.6666666666667</ele><time>2026-04-28T15:23:15.999Z</time></trkpt><trkpt lat="38.022872814738896" lon="15.286907156405615"><ele>894.0</ele><time>2026-04-28T15:23:16.999Z</time></trkpt><trkpt lat="38.022869346006715" lon="15.286825436688838"><ele>893.3333333333333</ele><time>2026-04-28T15:23:17.999Z</time></trkpt><trkpt lat="38.022887445961985" lon="15.28673298283374"><ele>892.6666666666666</ele><time>2026-04-28T15:23:18.999Z</time></trkpt><trkpt lat="38.022887315611534" lon="15.286611854202324"><ele>892.0</ele><time>2026-04-28T15:23:19.999Z</time></trkpt><trkpt lat="38.0228667341588" lon="15.286471925026365"><ele>894.0</ele><time>2026-04-28T15:23:20.999Z</time></trkpt><trkpt lat="38.02281612488717" lon="15.286328342461543"><ele>896.0</ele><time>2026-04-28T15:23:21.999Z</time></trkpt><trkpt lat="38.02277799659961" lon="15.28622676591395"><ele>898.0</ele><time>2026-04-28T15:23:22.999Z</time></trkpt><trkpt lat="38.02279820239479" lon="15.286035640684803"><ele>900.0</ele><time>2026-04-28T15:23:24.999Z</time></trkpt><trkpt lat="38.02282968268078" lon="15.285906990198226"><ele>900.0</ele><time>2026-04-28T15:23:25.999Z</time></trkpt><trkpt lat="38.02288017722914" lon="15.285824786269107"><ele>900.0</ele><time>2026-04-28T15:23:27.999Z</time></trkpt><trkpt lat="38.02294733943877" lon="15.285803594854318"><ele>900.0</ele><time>2026-04-28T15:23:28.999Z</time></trkpt><trkpt lat="38.02301338820713" lon="15.28583203608353"><ele>900.0</ele><time>2026-04-28T15:23:29.999Z</time></trkpt><trkpt lat="38.02307994890194" lon="15.285877237209156"><ele>900.0</ele><time>2026-04-28T15:23:30.999Z</time></trkpt><trkpt lat="38.02315475688358" lon="15.285912600674045"><ele>900.0</ele><time>2026-04-28T15:23:31.999Z</time></trkpt><trkpt lat="38.02324736889334" lon="15.285932231094248"><ele>905.2</ele><time>2026-04-28T15:23:32.999Z</time></trkpt><trkpt lat="38.02335169816088" lon="15.285938215178232"><ele>910.4</ele><time>2026-04-28T15:23:33.999Z</time></trkpt><trkpt lat="38.02345631615685" lon="15.285935828204915"><ele>915.5999999999999</ele><time>2026-04-28T15:23:34.999Z</time></trkpt><trkpt lat="38.023560584247406" lon="15.285928861443317"><ele>920.8</ele><time>2026-04-28T15:23:35.999Z</time></trkpt><trkpt lat="38.023627407875516" lon="15.285895284908497"><ele>926.0</ele><time>2026-04-28T15:23:36.999Z</time></trkpt><trkpt lat="38.02367045938207" lon="15.285992733560162"><ele>926.0</ele><time>2026-04-28T15:23:40.999Z</time></trkpt><trkpt lat="38.023566051439026" lon="15.28603786511285"><ele>925.9999999999999</ele><time>2026-04-28T15:23:42.999Z</time></trkpt><trkpt lat="38.0234943596748" lon="15.286052013418907"><ele>925.9999999999999</ele><time>2026-04-28T15:23:43.999Z</time></trkpt><trkpt lat="38.023396989022636" lon="15.28609363646879"><ele>926.0</ele><time>2026-04-28T15:23:44.999Z</time></trkpt><trkpt lat="38.02332158261945" lon="15.286112836300683"><ele>926.0</ele><time>2026-04-28T15:23:45.999Z</time></trkpt><trkpt lat="38.02320649462269" lon="15.286107382203618"><ele>930.25</ele><time>2026-04-28T15:23:47.999Z</time></trkpt><trkpt lat="38.02317421008065" lon="15.286223140709827"><ele>934.5</ele><time>2026-04-28T15:23:49.999Z</time></trkpt><trkpt lat="38.02325020614352" lon="15.28637724247299"><ele>938.75</ele><time>2026-04-28T15:23:51.999Z</time></trkpt><trkpt lat="38.023288965791075" lon="15.286506630975115"><ele>943.0</ele><time>2026-04-28T15:23:52.999Z</time></trkpt><trkpt lat="38.02334093061092" lon="15.286645430721364"><ele>943.0</ele><time>2026-04-28T15:23:53.999Z</time></trkpt><trkpt lat="38.02337852757042" lon="15.286770356648871"><ele>943.0</ele><time>2026-04-28T15:23:54.999Z</time></trkpt><trkpt lat="38.02337842113372" lon="15.286866181726793"><ele>943.0</ele><time>2026-04-28T15:23:55.999Z</time></trkpt><trkpt lat="38.02334632615165" lon="15.28694023914867"><ele>943.0</ele><time>2026-04-28T15:23:56.999Z</time></trkpt><trkpt lat="38.02329041548922" lon="15.287032371526534"><ele>943.0</ele><time>2026-04-28T15:23:57.999Z</time></trkpt><trkpt lat="38.023314212864214" lon="15.287175371192768"><ele>942.9999999999999</ele><time>2026-04-28T15:23:59.999Z</time></trkpt><trkpt lat="38.02335527732173" lon="15.28724049764002"><ele>943.0</ele><time>2026-04-28T15:24:00.999Z</time></trkpt><trkpt lat="38.02340416533348" lon="15.287353028821872"><ele>943.0</ele><time>2026-04-28T15:24:01.999Z</time></trkpt><trkpt lat="38.023398928800894" lon="15.287469901689477"><ele>943.0</ele><time>2026-04-28T15:24:02.999Z</time></trkpt><trkpt lat="38.02337227724402" lon="15.287573936632013"><ele>942.9999999999999</ele><time>2026-04-28T15:24:03.999Z</time></trkpt><trkpt lat="38.02331767026974" lon="15.28767868873162"><ele>943.0</ele><time>2026-04-28T15:24:04.999Z</time></trkpt><trkpt lat="38.02326677899428" lon="15.287804592515048"><ele>938.2</ele><time>2026-04-28T15:24:05.999Z</time></trkpt><trkpt lat="38.02326081237928" lon="15.287926138393601"><ele>933.4</ele><time>2026-04-28T15:24:06.999Z</time></trkpt><trkpt lat="38.023276185798274" lon="15.288038820457217"><ele>928.6000000000001</ele><time>2026-04-28T15:24:07.999Z</time></trkpt><trkpt lat="38.02328545709629" lon="15.288156811626248"><ele>923.8000000000001</ele><time>2026-04-28T15:24:08.999Z</time></trkpt><trkpt lat="38.023252756286674" lon="15.288264949633067"><ele>919.0</ele><time>2026-04-28T15:24:09.999Z</time></trkpt><trkpt lat="38.023213994642354" lon="15.2883650028151"><ele>918.9999999999999</ele><time>2026-04-28T15:24:10.999Z</time></trkpt><trkpt lat="38.02320169193328" lon="15.28846612485203"><ele>919.0</ele><time>2026-04-28T15:24:11.999Z</time></trkpt><trkpt lat="38.02321629789248" lon="15.288554215089706"><ele>919.0</ele><time>2026-04-28T15:24:12.999Z</time></trkpt><trkpt lat="38.02325230465125" lon="15.288643013113528"><ele>919.0</ele><time>2026-04-28T15:24:13.999Z</time></trkpt><trkpt lat="38.023291994781026" lon="15.28874964749466"><ele>918.9999999999999</ele><time>2026-04-28T15:24:14.999Z</time></trkpt><trkpt lat="38.0233225679969" lon="15.288875933411585"><ele>919.0</ele><time>2026-04-28T15:24:15.999Z</time></trkpt><trkpt lat="38.02332766198366" lon="15.28900040960962"><ele>925.3333333333333</ele><time>2026-04-28T15:24:16.999Z</time></trkpt><trkpt lat="38.02331413559204" lon="15.289123435855684"><ele>931.6666666666666</ele><time>2026-04-28T15:24:17.999Z</time></trkpt><trkpt lat="38.02332228126876" lon="15.28920447365981"><ele>938.0</ele><time>2026-04-28T15:24:18.999Z</time></trkpt><trkpt lat="38.02336860609852" lon="15.28929119587725"><ele>944.3333333333333</ele><time>2026-04-28T15:24:19.999Z</time></trkpt><trkpt lat="38.02343725336233" lon="15.289343738067991"><ele>950.6666666666666</ele><time>2026-04-28T15:24:20.999Z</time></trkpt><trkpt lat="38.023516065582314" lon="15.289418115759215"><ele>957.0</ele><time>2026-04-28T15:24:21.999Z</time></trkpt><trkpt lat="38.02359398826398" lon="15.28950027495114"><ele>957.0</ele><time>2026-04-28T15:24:22.999Z</time></trkpt><trkpt lat="38.023677080362376" lon="15.289574018031217"><ele>957.0</ele><time>2026-04-28T15:24:23.999Z</time></trkpt><trkpt lat="38.023764256432685" lon="15.289647355268086"><ele>957.0</ele><time>2026-04-28T15:24:24.999Z</time></trkpt><trkpt lat="38.02383103719744" lon="15.289690536100304"><ele>957.0</ele><time>2026-04-28T15:24:25.999Z</time></trkpt><trkpt lat="38.02395809825723" lon="15.289714531379706"><ele>957.0</ele><time>2026-04-28T15:24:27.999Z</time></trkpt><trkpt lat="38.024033149105236" lon="15.289715865125917"><ele>957.0</ele><time>2026-04-28T15:24:28.999Z</time></trkpt><trkpt lat="38.02411782409637" lon="15.28970997347345"><ele>957.0</ele><time>2026-04-28T15:24:29.999Z</time></trkpt><trkpt lat="38.02420601443731" lon="15.289689724004278"><ele>957.0</ele><time>2026-04-28T15:24:30.999Z</time></trkpt><trkpt lat="38.02429246375391" lon="15.28967311477236"><ele>957.0</ele><time>2026-04-28T15:24:31.999Z</time></trkpt><trkpt lat="38.024364269728636" lon="15.289661716540042"><ele>957.0</ele><time>2026-04-28T15:24:32.999Z</time></trkpt><trkpt lat="38.02443843747775" lon="15.289635184030574"><ele>957.0</ele><time>2026-04-28T15:24:33.999Z</time></trkpt><trkpt lat="38.024517449690585" lon="15.289588100098811"><ele>961.4000000000001</ele><time>2026-04-28T15:24:34.999Z</time></trkpt><trkpt lat="38.02461366826001" lon="15.289528475367662"><ele>965.8000000000001</ele><time>2026-04-28T15:24:35.999Z</time></trkpt><trkpt lat="38.02470341784058" lon="15.289489462631732"><ele>970.2</ele><time>2026-04-28T15:24:36.999Z</time></trkpt><trkpt lat="38.02479651266867" lon="15.289485031362284"><ele>974.6</ele><time>2026-04-28T15:24:37.998Z</time></trkpt><trkpt lat="38.02486910611628" lon="15.289477795435985"><ele>979.0</ele><time>2026-04-28T15:24:38.998Z</time></trkpt><trkpt lat="38.02495093155551" lon="15.289480610309836"><ele>980.4000000000001</ele><time>2026-04-28T15:24:39.998Z</time></trkpt><trkpt lat="38.02505355169765" lon="15.289497672263845"><ele>981.8000000000001</ele><time>2026-04-28T15:24:40.998Z</time></trkpt><trkpt lat="38.025165268253154" lon="15.289503873064055"><ele>983.1999999999999</ele><time>2026-04-28T15:24:41.998Z</time></trkpt><trkpt lat="38.0252692709495" lon="15.289494460294565"><ele>984.5999999999999</ele><time>2026-04-28T15:24:42.998Z</time></trkpt><trkpt lat="38.02534500526391" lon="15.289500737139623"><ele>986.0</ele><time>2026-04-28T15:24:43.998Z</time></trkpt><trkpt lat="38.025415545870935" lon="15.289508320933324"><ele>986.0000000000001</ele><time>2026-04-28T15:24:44.998Z</time></trkpt><trkpt lat="38.025524041029335" lon="15.289453954165419"><ele>986.0</ele><time>2026-04-28T15:24:46.998Z</time></trkpt><trkpt lat="38.02554985189284" lon="15.289362997833582"><ele>986.0</ele><time>2026-04-28T15:24:47.998Z</time></trkpt><trkpt lat="38.02554556612069" lon="15.289250153218958"><ele>986.0</ele><time>2026-04-28T15:24:48.998Z</time></trkpt><trkpt lat="38.02551022131984" lon="15.289167275880564"><ele>986.0000000000001</ele><time>2026-04-28T15:24:49.998Z</time></trkpt><trkpt lat="38.025441945409526" lon="15.28912342887378"><ele>986.0</ele><time>2026-04-28T15:24:50.998Z</time></trkpt><trkpt lat="38.025355002877674" lon="15.289083784633855"><ele>986.0</ele><time>2026-04-28T15:24:51.998Z</time></trkpt><trkpt lat="38.025257684103984" lon="15.289024423354645"><ele>985.9999999999999</ele><time>2026-04-28T15:24:52.998Z</time></trkpt><trkpt lat="38.025156304411645" lon="15.288959845997278"><ele>985.9999999999999</ele><time>2026-04-28T15:24:53.998Z</time></trkpt><trkpt lat="38.02506309668745" lon="15.28889604000513"><ele>986.0</ele><time>2026-04-28T15:24:54.998Z</time></trkpt><trkpt lat="38.02496927338747" lon="15.288856242267572"><ele>986.0</ele><time>2026-04-28T15:24:55.998Z</time></trkpt><trkpt lat="38.02485991996544" lon="15.288810567981704"><ele>987.1666666666667</ele><time>2026-04-28T15:24:56.998Z</time></trkpt><trkpt lat="38.02475871231676" lon="15.288781092371925"><ele>988.3333333333334</ele><time>2026-04-28T15:24:57.998Z</time></trkpt><trkpt lat="38.02466593826105" lon="15.2887581151859"><ele>989.5</ele><time>2026-04-28T15:24:59Z</time></trkpt><trkpt lat="38.024580019513756" lon="15.288726728750182"><ele>990.6666666666667</ele><time>2026-04-28T15:25:00Z</time></trkpt><trkpt lat="38.02450117561705" lon="15.288698909902735"><ele>991.8333333333334</ele><time>2026-04-28T15:25:01Z</time></trkpt><trkpt lat="38.024434596045936" lon="15.288663470209936"><ele>993.0</ele><time>2026-04-28T15:25:02Z</time></trkpt><trkpt lat="38.024383140421754" lon="15.288616828110667"><ele>993.0</ele><time>2026-04-28T15:25:03Z</time></trkpt><trkpt lat="38.02432626287793" lon="15.288541817650811"><ele>993.0</ele><time>2026-04-28T15:25:04Z</time></trkpt><trkpt lat="38.02425359059603" lon="15.288468523522964"><ele>993.0</ele><time>2026-04-28T15:25:05Z</time></trkpt><trkpt lat="38.024198176506765" lon="15.288391499003158"><ele>993.0</ele><time>2026-04-28T15:25:06Z</time></trkpt><trkpt lat="38.02416253785997" lon="15.288304242022472"><ele>993.0</ele><time>2026-04-28T15:25:07Z</time></trkpt><trkpt lat="38.0241449227931" lon="15.28820961645213"><ele>993.0</ele><time>2026-04-28T15:25:08Z</time></trkpt><trkpt lat="38.02415002118708" lon="15.288108734500343"><ele>992.8333333333334</ele><time>2026-04-28T15:25:09Z</time></trkpt><trkpt lat="38.0241840855071" lon="15.28802660480462"><ele>992.6666666666667</ele><time>2026-04-28T15:25:10Z</time></trkpt><trkpt lat="38.02424175235219" lon="15.287966388766073"><ele>992.5</ele><time>2026-04-28T15:25:11Z</time></trkpt><trkpt lat="38.024310531428355" lon="15.28793629088892"><ele>992.3333333333334</ele><time>2026-04-28T15:25:12Z</time></trkpt><trkpt lat="38.02437590298031" lon="15.287932292579875"><ele>992.1666666666667</ele><time>2026-04-28T15:25:13Z</time></trkpt><trkpt lat="38.02446002663625" lon="15.287921480633893"><ele>992.0</ele><time>2026-04-28T15:25:14Z</time></trkpt><trkpt lat="38.02454914639509" lon="15.287870711950715"><ele>992.0000000000001</ele><time>2026-04-28T15:25:15Z</time></trkpt><trkpt lat="38.02461951956774" lon="15.287790233591267"><ele>992.0</ele><time>2026-04-28T15:25:16Z</time></trkpt><trkpt lat="38.02465787271895" lon="15.287703241888522"><ele>992.0</ele><time>2026-04-28T15:25:17Z</time></trkpt><trkpt lat="38.024697183280736" lon="15.287620036706855"><ele>992.0</ele><time>2026-04-28T15:25:18Z</time></trkpt><trkpt lat="38.02475845487893" lon="15.287553985986213"><ele>992.0000000000001</ele><time>2026-04-28T15:25:19Z</time></trkpt><trkpt lat="38.02482815854634" lon="15.287496771420736"><ele>992.0</ele><time>2026-04-28T15:25:19.999Z</time></trkpt><trkpt lat="38.02489770433414" lon="15.28745070529119"><ele>991.0</ele><time>2026-04-28T15:25:20.999Z</time></trkpt><trkpt lat="38.02498484707456" lon="15.287399797680196"><ele>990.0</ele><time>2026-04-28T15:25:21.999Z</time></trkpt><trkpt lat="38.02506025958298" lon="15.287331096728195"><ele>989.0</ele><time>2026-04-28T15:25:22.999Z</time></trkpt><trkpt lat="38.025138994875086" lon="15.287272811609776"><ele>988.0</ele><time>2026-04-28T15:25:23.999Z</time></trkpt><trkpt lat="38.02521812000403" lon="15.287246753963466"><ele>987.0</ele><time>2026-04-28T15:25:24.999Z</time></trkpt><trkpt lat="38.0253155778165" lon="15.287213877998202"><ele>987.0</ele><time>2026-04-28T15:25:25.999Z</time></trkpt><trkpt lat="38.02540140322851" lon="15.287177479473394"><ele>987.0</ele><time>2026-04-28T15:25:26.999Z</time></trkpt><trkpt lat="38.02546899109785" lon="15.287136363669264"><ele>987.0</ele><time>2026-04-28T15:25:27.999Z</time></trkpt><trkpt lat="38.025535114127514" lon="15.287095236394737"><ele>987.0</ele><time>2026-04-28T15:25:28.999Z</time></trkpt><trkpt lat="38.02562165688699" lon="15.287081796837265"><ele>987.0</ele><time>2026-04-28T15:25:29.999Z</time></trkpt><trkpt lat="38.02570502819436" lon="15.287061432300389"><ele>987.0</ele><time>2026-04-28T15:25:30.999Z</time></trkpt><trkpt lat="38.025758752327924" lon="15.287014059390723"><ele>992.0</ele><time>2026-04-28T15:25:31.999Z</time></trkpt><trkpt lat="38.02582618107965" lon="15.28697163080144"><ele>997.0</ele><time>2026-04-28T15:25:33.999Z</time></trkpt><trkpt lat="38.02590997952536" lon="15.286969577474968"><ele>1002.0</ele><time>2026-04-28T15:25:34.999Z</time></trkpt><trkpt lat="38.02600096201563" lon="15.286962548243983"><ele>1007.0</ele><time>2026-04-28T15:25:35.999Z</time></trkpt><trkpt lat="38.02606948442443" lon="15.286929700874865"><ele>1012.0</ele><time>2026-04-28T15:25:36.999Z</time></trkpt><trkpt lat="38.026123528134086" lon="15.28687195873716"><ele>1017.0</ele><time>2026-04-28T15:25:37.999Z</time></trkpt><trkpt lat="38.026163991691455" lon="15.28679715706343"><ele>1017.0</ele><time>2026-04-28T15:25:38.999Z</time></trkpt><trkpt lat="38.02623180274102" lon="15.286752743705666"><ele>1017.0</ele><time>2026-04-28T15:25:39.999Z</time></trkpt><trkpt lat="38.02635138024932" lon="15.286677844672813"><ele>1017.0</ele><time>2026-04-28T15:25:41.999Z</time></trkpt><trkpt lat="38.026418979944616" lon="15.286663621799189"><ele>1017.0</ele><time>2026-04-28T15:25:42.999Z</time></trkpt><trkpt lat="38.02648030570806" lon="15.286644285020392"><ele>1017.0</ele><time>2026-04-28T15:25:43.999Z</time></trkpt><trkpt lat="38.02655149001293" lon="15.286563556938114"><ele>1017.0</ele><time>2026-04-28T15:25:45.999Z</time></trkpt><trkpt lat="38.02658661444117" lon="15.286655399855656"><ele>1017.0</ele><time>2026-04-28T15:25:47.999Z</time></trkpt><trkpt lat="38.026592173007685" lon="15.286771723081158"><ele>1017.0</ele><time>2026-04-28T15:25:49.999Z</time></trkpt><trkpt lat="38.02652984737784" lon="15.286839289289906"><ele>1017.0</ele><time>2026-04-28T15:25:50.999Z</time></trkpt><trkpt lat="38.02646940514129" lon="15.286871447898232"><ele>1017.0</ele><time>2026-04-28T15:25:51.999Z</time></trkpt><trkpt lat="38.02640765973094" lon="15.286935014986097"><ele>1017.0</ele><time>2026-04-28T15:25:52.999Z</time></trkpt><trkpt lat="38.02635421521335" lon="15.287007620114203"><ele>1017.0</ele><time>2026-04-28T15:25:53.999Z</time></trkpt><trkpt lat="38.02632038637889" lon="15.287130955619482"><ele>1017.0</ele><time>2026-04-28T15:25:54.999Z</time></trkpt><trkpt lat="38.026267069604614" lon="15.287236393303337"><ele>1017.0</ele><time>2026-04-28T15:25:55.999Z</time></trkpt><trkpt lat="38.026208798306804" lon="15.287318236086794"><ele>1017.0</ele><time>2026-04-28T15:25:56.999Z</time></trkpt><trkpt lat="38.0261407839233" lon="15.287362101206572"><ele>1017.0</ele><time>2026-04-28T15:25:57.999Z</time></trkpt><trkpt lat="38.02606748451894" lon="15.287421087751188"><ele>1017.0</ele><time>2026-04-28T15:25:58.999Z</time></trkpt><trkpt lat="38.025996742667374" lon="15.287477884387272"><ele>1017.0</ele><time>2026-04-28T15:25:59.999Z</time></trkpt><trkpt lat="38.02593373716554" lon="15.28753453103731"><ele>1017.1666666666666</ele><time>2026-04-28T15:26:00.999Z</time></trkpt><trkpt lat="38.0258608226085" lon="15.287587322018075"><ele>1017.3333333333333</ele><time>2026-04-28T15:26:01.999Z</time></trkpt><trkpt lat="38.02579607298034" lon="15.287630912733839"><ele>1017.5</ele><time>2026-04-28T15:26:02.999Z</time></trkpt><trkpt lat="38.02574523766242" lon="15.287743685499734"><ele>1017.6666666666666</ele><time>2026-04-28T15:26:04.999Z</time></trkpt><trkpt lat="38.02579205969283" lon="15.287843412171467"><ele>1017.8333333333333</ele><time>2026-04-28T15:26:06.999Z</time></trkpt><trkpt lat="38.025848199565154" lon="15.287790011500142"><ele>1018.0</ele><time>2026-04-28T15:26:09.999Z</time></trkpt><trkpt lat="38.02593706935371" lon="15.287694086856188"><ele>1023.2</ele><time>2026-04-28T15:26:11.999Z</time></trkpt><trkpt lat="38.02599303441422" lon="15.287638498797751"><ele>1028.4</ele><time>2026-04-28T15:26:12.999Z</time></trkpt><trkpt lat="38.02606662234525" lon="15.287569428201648"><ele>1033.6000000000001</ele><time>2026-04-28T15:26:13.999Z</time></trkpt><trkpt lat="38.026141374349905" lon="15.287522292165853"><ele>1038.8</ele><time>2026-04-28T15:26:14.999Z</time></trkpt><trkpt lat="38.02622237042471" lon="15.28744382522927"><ele>1044.0</ele><time>2026-04-28T15:26:15.999Z</time></trkpt><trkpt lat="38.02631440092454" lon="15.287378350396256"><ele>1044.0</ele><time>2026-04-28T15:26:16.999Z</time></trkpt><trkpt lat="38.026413461403116" lon="15.28733983926761"><ele>1044.0</ele><time>2026-04-28T15:26:17.999Z</time></trkpt><trkpt lat="38.02651294601457" lon="15.28728685037667"><ele>1044.0</ele><time>2026-04-28T15:26:18.999Z</time></trkpt><trkpt lat="38.02659690741646" lon="15.287213628403387"><ele>1044.0</ele><time>2026-04-28T15:26:19.999Z</time></trkpt><trkpt lat="38.02669866628505" lon="15.287156768167087"><ele>1044.0</ele><time>2026-04-28T15:26:20.999Z</time></trkpt><trkpt lat="38.02680471626068" lon="15.287121534251382"><ele>1044.6666666666667</ele><time>2026-04-28T15:26:21.999Z</time></trkpt><trkpt lat="38.02688376349173" lon="15.287081907444938"><ele>1045.3333333333333</ele><time>2026-04-28T15:26:22.999Z</time></trkpt><trkpt lat="38.02696119805144" lon="15.287025801588795"><ele>1046.0</ele><time>2026-04-28T15:26:23.999Z</time></trkpt><trkpt lat="38.02704284159904" lon="15.286974213035105"><ele>1046.6666666666665</ele><time>2026-04-28T15:26:24.999Z</time></trkpt><trkpt lat="38.02712962419443" lon="15.28694106202268"><ele>1047.3333333333333</ele><time>2026-04-28T15:26:25.999Z</time></trkpt><trkpt lat="38.02721458569967" lon="15.286914445285987"><ele>1048.0</ele><time>2026-04-28T15:26:26.999Z</time></trkpt><trkpt lat="38.02732370261726" lon="15.286898132425762"><ele>1048.0</ele><time>2026-04-28T15:26:27.999Z</time></trkpt><trkpt lat="38.027418849586404" lon="15.286883905986882"><ele>1048.0</ele><time>2026-04-28T15:26:28.999Z</time></trkpt><trkpt lat="38.02751447882297" lon="15.286906645548557"><ele>1048.0</ele><time>2026-04-28T15:26:29.999Z</time></trkpt><trkpt lat="38.0275879934701" lon="15.286955004670785"><ele>1048.0</ele><time>2026-04-28T15:26:30.999Z</time></trkpt><trkpt lat="38.02766129250208" lon="15.287032386070228"><ele>1048.0</ele><time>2026-04-28T15:26:31.999Z</time></trkpt><trkpt lat="38.02774098080267" lon="15.287091764531437"><ele>1050.5</ele><time>2026-04-28T15:26:32.999Z</time></trkpt><trkpt lat="38.027829790401476" lon="15.28713025920238"><ele>1053.0</ele><time>2026-04-28T15:26:33.999Z</time></trkpt><trkpt lat="38.027895218882676" lon="15.287172747424588"><ele>1055.5</ele><time>2026-04-28T15:26:34.999Z</time></trkpt><trkpt lat="38.02795301934991" lon="15.287221654193315"><ele>1058.0</ele><time>2026-04-28T15:26:35.999Z</time></trkpt><trkpt lat="38.02801707275647" lon="15.287274848912684"><ele>1060.5</ele><time>2026-04-28T15:26:36.999Z</time></trkpt><trkpt lat="38.02807026612092" lon="15.287337394470036"><ele>1063.0</ele><time>2026-04-28T15:26:37.999Z</time></trkpt><trkpt lat="38.02816632259257" lon="15.28738394101732"><ele>1063.0</ele><time>2026-04-28T15:26:39.998Z</time></trkpt><trkpt lat="38.02823181743071" lon="15.287346003074"><ele>1063.0</ele><time>2026-04-28T15:26:40.998Z</time></trkpt><trkpt lat="38.02832149093617" lon="15.287383688589024"><ele>1063.0</ele><time>2026-04-28T15:26:42.998Z</time></trkpt><trkpt lat="38.02833530331237" lon="15.287468991260619"><ele>1063.0</ele><time>2026-04-28T15:26:43.998Z</time></trkpt><trkpt lat="38.028329384767154" lon="15.28756306529871"><ele>1063.0</ele><time>2026-04-28T15:26:44.998Z</time></trkpt><trkpt lat="38.02831047671026" lon="15.287666947915055"><ele>1063.0</ele><time>2026-04-28T15:26:45.998Z</time></trkpt><trkpt lat="38.028327956283526" lon="15.287748295291317"><ele>1067.8</ele><time>2026-04-28T15:26:46.998Z</time></trkpt><trkpt lat="38.02844192577281" lon="15.28781399469558"><ele>1072.6</ele><time>2026-04-28T15:26:48.998Z</time></trkpt><trkpt lat="38.02853208312614" lon="15.287810678241417"><ele>1077.4</ele><time>2026-04-28T15:26:49.998Z</time></trkpt><trkpt lat="38.02863095431428" lon="15.28781348797557"><ele>1082.2</ele><time>2026-04-28T15:26:50.998Z</time></trkpt><trkpt lat="38.028739738000574" lon="15.287831898772533"><ele>1087.0</ele><time>2026-04-28T15:26:51.998Z</time></trkpt><trkpt lat="38.0288326671237" lon="15.287857448944004"><ele>1087.0</ele><time>2026-04-28T15:26:52.998Z</time></trkpt><trkpt lat="38.02891360526115" lon="15.287914167795545"><ele>1087.0</ele><time>2026-04-28T15:26:53.998Z</time></trkpt><trkpt lat="38.0289853164383" lon="15.287968750362932"><ele>1087.0</ele><time>2026-04-28T15:26:54.998Z</time></trkpt><trkpt lat="38.029070011674555" lon="15.287996550663113"><ele>1087.0</ele><time>2026-04-28T15:26:55.998Z</time></trkpt><trkpt lat="38.0291772636714" lon="15.287984009422335"><ele>1087.0</ele><time>2026-04-28T15:26:56.998Z</time></trkpt><trkpt lat="38.02927980792777" lon="15.28801691389884"><ele>1086.4</ele><time>2026-04-28T15:26:57.998Z</time></trkpt><trkpt lat="38.0293860038881" lon="15.288042392582906"><ele>1085.8000000000002</ele><time>2026-04-28T15:26:58.998Z</time></trkpt><trkpt lat="38.029470825381374" lon="15.288085451126715"><ele>1085.2</ele><time>2026-04-28T15:26:59.998Z</time></trkpt><trkpt lat="38.02955605850932" lon="15.288156250688338"><ele>1084.6000000000001</ele><time>2026-04-28T15:27:00.998Z</time></trkpt><trkpt lat="38.02962660189184" lon="15.288244912796825"><ele>1084.0</ele><time>2026-04-28T15:27:01.998Z</time></trkpt><trkpt lat="38.029692606302966" lon="15.288303595886752"><ele>1084.0</ele><time>2026-04-28T15:27:02.998Z</time></trkpt><trkpt lat="38.0297780575357" lon="15.288351161960085"><ele>1084.0</ele><time>2026-04-28T15:27:03.998Z</time></trkpt><trkpt lat="38.02986154796989" lon="15.288429743142823"><ele>1084.0</ele><time>2026-04-28T15:27:05Z</time></trkpt><trkpt lat="38.02993843578281" lon="15.288496918205349"><ele>1084.0</ele><time>2026-04-28T15:27:06Z</time></trkpt><trkpt lat="38.03002926158428" lon="15.288522063641613"><ele>1084.0</ele><time>2026-04-28T15:27:07Z</time></trkpt><trkpt lat="38.030138872036275" lon="15.288514927823261"><ele>1087.8333333333333</ele><time>2026-04-28T15:27:08Z</time></trkpt><trkpt lat="38.03023394802882" lon="15.28851322383506"><ele>1091.6666666666665</ele><time>2026-04-28T15:27:09Z</time></trkpt><trkpt lat="38.03029594740063" lon="15.288553453935682"><ele>1095.5</ele><time>2026-04-28T15:27:10Z</time></trkpt><trkpt lat="38.03035171917565" lon="15.28862921296566"><ele>1099.3333333333333</ele><time>2026-04-28T15:27:11Z</time></trkpt><trkpt lat="38.030413678084294" lon="15.28869850397987"><ele>1103.1666666666667</ele><time>2026-04-28T15:27:12Z</time></trkpt><trkpt lat="38.03049061535168" lon="15.288752105395957"><ele>1107.0</ele><time>2026-04-28T15:27:13Z</time></trkpt><trkpt lat="38.03056001363786" lon="15.288776918727482"><ele>1107.0</ele><time>2026-04-28T15:27:14Z</time></trkpt><trkpt lat="38.03064101854955" lon="15.288818299298617"><ele>1107.0</ele><time>2026-04-28T15:27:15Z</time></trkpt><trkpt lat="38.03074262492756" lon="15.288884293762917"><ele>1107.0</ele><time>2026-04-28T15:27:16Z</time></trkpt><trkpt lat="38.030854628971866" lon="15.288964866201985"><ele>1107.0</ele><time>2026-04-28T15:27:17Z</time></trkpt><trkpt lat="38.030949878783154" lon="15.289026726738228"><ele>1107.0</ele><time>2026-04-28T15:27:18Z</time></trkpt><trkpt lat="38.03102747081657" lon="15.2890893573993"><ele>1106.2</ele><time>2026-04-28T15:27:19Z</time></trkpt><trkpt lat="38.03108272954971" lon="15.28915063913026"><ele>1105.4</ele><time>2026-04-28T15:27:20Z</time></trkpt><trkpt lat="38.0311714104161" lon="15.289217536758876"><ele>1104.6</ele><time>2026-04-28T15:27:22Z</time></trkpt><trkpt lat="38.0312290243073" lon="15.28917419072352"><ele>1103.8</ele><time>2026-04-28T15:27:33.999Z</time></trkpt><trkpt lat="38.03131044552614" lon="15.289003378741658"><ele>1103.0</ele><time>2026-04-28T15:27:35.999Z</time></trkpt><trkpt lat="38.03134016154719" lon="15.288905447868009"><ele>1106.8</ele><time>2026-04-28T15:27:36.999Z</time></trkpt><trkpt lat="38.031363875351275" lon="15.28876894414304"><ele>1110.6</ele><time>2026-04-28T15:27:37.999Z</time></trkpt><trkpt lat="38.031383801502116" lon="15.288641549534445"><ele>1114.4</ele><time>2026-04-28T15:27:38.999Z</time></trkpt><trkpt lat="38.03139806492693" lon="15.28851973216901"><ele>1118.2</ele><time>2026-04-28T15:27:39.999Z</time></trkpt><trkpt lat="38.031453561890814" lon="15.288429394828094"><ele>1122.0</ele><time>2026-04-28T15:27:40.999Z</time></trkpt><trkpt lat="38.03152683193825" lon="15.288397709331564"><ele>1122.0</ele><time>2026-04-28T15:27:41.999Z</time></trkpt><trkpt lat="38.03162648977236" lon="15.288390970446551"><ele>1122.0</ele><time>2026-04-28T15:27:42.999Z</time></trkpt><trkpt lat="38.031739259877675" lon="15.288382765191136"><ele>1122.0</ele><time>2026-04-28T15:27:43.999Z</time></trkpt><trkpt lat="38.031845916426434" lon="15.288347963405245"><ele>1122.0</ele><time>2026-04-28T15:27:44.999Z</time></trkpt><trkpt lat="38.03193275611761" lon="15.288316620995873"><ele>1122.0</ele><time>2026-04-28T15:27:45.999Z</time></trkpt><trkpt lat="38.03200942130274" lon="15.288290871532922"><ele>1121.8</ele><time>2026-04-28T15:27:46.999Z</time></trkpt><trkpt lat="38.03206595317245" lon="15.28824798753727"><ele>1121.6</ele><time>2026-04-28T15:27:47.999Z</time></trkpt><trkpt lat="38.03212663908618" lon="15.2880973058816"><ele>1121.3999999999999</ele><time>2026-04-28T15:27:49.999Z</time></trkpt><trkpt lat="38.03212659299613" lon="15.287975742878386"><ele>1121.2</ele><time>2026-04-28T15:27:50.999Z</time></trkpt><trkpt lat="38.032117086523975" lon="15.287866607590527"><ele>1121.0</ele><time>2026-04-28T15:27:51.999Z</time></trkpt><trkpt lat="38.032073836800826" lon="15.28772099393799"><ele>1124.75</ele><time>2026-04-28T15:27:52.999Z</time></trkpt><trkpt lat="38.03202769365856" lon="15.287569574621886"><ele>1128.5</ele><time>2026-04-28T15:27:53.999Z</time></trkpt><trkpt lat="38.03195106977249" lon="15.287408564596637"><ele>1132.25</ele><time>2026-04-28T15:27:54.999Z</time></trkpt><trkpt lat="38.031902094109036" lon="15.287275834560305"><ele>1136.0</ele><time>2026-04-28T15:27:55.999Z</time></trkpt><trkpt lat="38.03187880818728" lon="15.28714356754598"><ele>1137.8</ele><time>2026-04-28T15:27:57.999Z</time></trkpt><trkpt lat="38.03189851175229" lon="15.28705637797667"><ele>1139.6</ele><time>2026-04-28T15:27:58.999Z</time></trkpt><trkpt lat="38.031909368060276" lon="15.286959673861364"><ele>1141.4</ele><time>2026-04-28T15:27:59.999Z</time></trkpt><trkpt lat="38.03197806915954" lon="15.286849754903546"><ele>1143.2</ele><time>2026-04-28T15:28:01Z</time></trkpt><trkpt lat="38.032050012005215" lon="15.286760460006372"><ele>1145.0</ele><time>2026-04-28T15:28:02Z</time></trkpt><trkpt lat="38.032131377876766" lon="15.286635044747957"><ele>1145.0</ele><time>2026-04-28T15:28:03Z</time></trkpt><trkpt lat="38.032187177003166" lon="15.28653157970701"><ele>1145.0</ele><time>2026-04-28T15:28:04Z</time></trkpt><trkpt lat="38.032239855324185" lon="15.286435449260267"><ele>1145.0</ele><time>2026-04-28T15:28:05Z</time></trkpt><trkpt lat="38.03228048375644" lon="15.286352551299487"><ele>1145.0</ele><time>2026-04-28T15:28:26Z</time></trkpt><trkpt lat="38.03238183943549" lon="15.286249794421487"><ele>1145.0</ele><time>2026-04-28T15:28:28Z</time></trkpt><trkpt lat="38.03244320477135" lon="15.286218917231693"><ele>1145.2</ele><time>2026-04-28T15:28:29Z</time></trkpt><trkpt lat="38.032534687093296" lon="15.286193086715476"><ele>1145.4</ele><time>2026-04-28T15:28:30Z</time></trkpt><trkpt lat="38.03264373396762" lon="15.28618435531515"><ele>1145.6</ele><time>2026-04-28T15:28:31Z</time></trkpt><trkpt lat="38.0327617404679" lon="15.286172142031553"><ele>1145.8</ele><time>2026-04-28T15:28:32Z</time></trkpt><trkpt lat="38.03286082161899" lon="15.286150398531303"><ele>1146.0</ele><time>2026-04-28T15:28:33Z</time></trkpt><trkpt lat="38.03294647966095" lon="15.286109749192965"><ele>1146.0</ele><time>2026-04-28T15:28:34Z</time></trkpt><trkpt lat="38.03302733435402" lon="15.286060402258341"><ele>1146.0</ele><time>2026-04-28T15:28:35Z</time></trkpt><trkpt lat="38.033123018529054" lon="15.28598847284096"><ele>1146.0</ele><time>2026-04-28T15:28:36Z</time></trkpt><trkpt lat="38.033204309979844" lon="15.28591130171039"><ele>1146.0</ele><time>2026-04-28T15:28:37Z</time></trkpt><trkpt lat="38.03330241142879" lon="15.28582347189323"><ele>1146.0</ele><time>2026-04-28T15:28:39Z</time></trkpt><trkpt lat="38.03334142912384" lon="15.285756050174525"><ele>1147.3999999999999</ele><time>2026-04-28T15:28:40Z</time></trkpt><trkpt lat="38.03337560916151" lon="15.2856188616302"><ele>1148.8</ele><time>2026-04-28T15:28:42Z</time></trkpt><trkpt lat="38.03336164646977" lon="15.285509167365568"><ele>1150.1999999999998</ele><time>2026-04-28T15:28:43Z</time></trkpt><trkpt lat="38.033330765720436" lon="15.285375762755358"><ele>1151.6</ele><time>2026-04-28T15:28:44Z</time></trkpt><trkpt lat="38.033274949983436" lon="15.285251930558559"><ele>1153.0</ele><time>2026-04-28T15:28:45Z</time></trkpt><trkpt lat="38.033240211144715" lon="15.28511563816883"><ele>1153.0</ele><time>2026-04-28T15:28:46Z</time></trkpt><trkpt lat="38.03320504504672" lon="15.285018763655591"><ele>1153.0</ele><time>2026-04-28T15:28:46.999Z</time></trkpt><trkpt lat="38.03321172004252" lon="15.284904664550057"><ele>1153.0</ele><time>2026-04-28T15:28:47.999Z</time></trkpt><trkpt lat="38.03315847006706" lon="15.28480995751993"><ele>1153.0</ele><time>2026-04-28T15:28:48.999Z</time></trkpt><trkpt lat="38.0330888929348" lon="15.28471470209503"><ele>1153.0</ele><time>2026-04-28T15:28:49.999Z</time></trkpt><trkpt lat="38.0330306701097" lon="15.284620032883362"><ele>1149.0</ele><time>2026-04-28T15:28:50.999Z</time></trkpt><trkpt lat="38.03299094556048" lon="15.284523526081333"><ele>1145.0</ele><time>2026-04-28T15:28:51.999Z</time></trkpt><trkpt lat="38.03299020279773" lon="15.284423371112775"><ele>1141.0</ele><time>2026-04-28T15:28:52.999Z</time></trkpt><trkpt lat="38.03295303858895" lon="15.28430482230568"><ele>1137.0</ele><time>2026-04-28T15:28:53.999Z</time></trkpt><trkpt lat="38.03291417558034" lon="15.28419998213093"><ele>1133.0</ele><time>2026-04-28T15:28:54.999Z</time></trkpt><trkpt lat="38.03288815799256" lon="15.284115899802837"><ele>1129.0</ele><time>2026-04-28T15:28:55.999Z</time></trkpt><trkpt lat="38.032793193551534" lon="15.284007357745027"><ele>1129.0</ele><time>2026-04-28T15:28:57.999Z</time></trkpt><trkpt lat="38.03267591322275" lon="15.28396766512259"><ele>1129.0</ele><time>2026-04-28T15:28:59.999Z</time></trkpt><trkpt lat="38.03261169802229" lon="15.284015524941593"><ele>1129.0</ele><time>2026-04-28T15:29:00.999Z</time></trkpt><trkpt lat="38.032556707925785" lon="15.284087727807886"><ele>1129.0</ele><time>2026-04-28T15:29:01.999Z</time></trkpt><trkpt lat="38.03248330478909" lon="15.284174490231301"><ele>1129.0</ele><time>2026-04-28T15:29:02.999Z</time></trkpt><trkpt lat="38.032294803447385" lon="15.284226680895776"><ele>1131.0</ele><time>2026-04-28T15:29:03.999Z</time></trkpt><trkpt lat="38.03218297685492" lon="15.284172362090445"><ele>1133.0</ele><time>2026-04-28T15:29:05.999Z</time></trkpt><trkpt lat="38.032125705352115" lon="15.284114242043575"><ele>1135.0</ele><time>2026-04-28T15:29:06.999Z</time></trkpt><trkpt lat="38.03205034641464" lon="15.284027902399643"><ele>1137.0</ele><time>2026-04-28T15:29:07.999Z</time></trkpt><trkpt lat="38.031949275517746" lon="15.283970572395098"><ele>1139.0</ele><time>2026-04-28T15:29:08.999Z</time></trkpt><trkpt lat="38.031838799425934" lon="15.283934586141212"><ele>1131.4</ele><time>2026-04-28T15:29:10.001Z</time></trkpt><trkpt lat="38.03174731719682" lon="15.283889097200978"><ele>1123.8000000000002</ele><time>2026-04-28T15:29:11.001Z</time></trkpt><trkpt lat="38.03166887016129" lon="15.283825585141537"><ele>1116.1999999999998</ele><time>2026-04-28T15:29:12.001Z</time></trkpt><trkpt lat="38.03161181894712" lon="15.283790321530834"><ele>1108.6</ele><time>2026-04-28T15:29:13.001Z</time></trkpt><trkpt lat="38.031476147494914" lon="15.283765647996066"><ele>1101.0</ele><time>2026-04-28T15:29:15.001Z</time></trkpt><trkpt lat="38.03138072548312" lon="15.28378549651673"><ele>1101.0</ele><time>2026-04-28T15:29:16.001Z</time></trkpt><trkpt lat="38.031303790370714" lon="15.28380761022112"><ele>1101.0</ele><time>2026-04-28T15:29:17.001Z</time></trkpt><trkpt lat="38.031196206757485" lon="15.28389111394071"><ele>1101.0</ele><time>2026-04-28T15:29:19.001Z</time></trkpt><trkpt lat="38.031139544975375" lon="15.283954243889031"><ele>1101.0</ele><time>2026-04-28T15:29:20.001Z</time></trkpt><trkpt lat="38.03105907214481" lon="15.284033546478957"><ele>1101.0</ele><time>2026-04-28T15:29:21.001Z</time></trkpt><trkpt lat="38.03098508649619" lon="15.28411946894269"><ele>1106.0</ele><time>2026-04-28T15:29:22.001Z</time></trkpt><trkpt lat="38.03091412537958" lon="15.284195675913546"><ele>1111.0</ele><time>2026-04-28T15:29:23.001Z</time></trkpt><trkpt lat="38.03087058317096" lon="15.2842539213055"><ele>1116.0</ele><time>2026-04-28T15:29:24.001Z</time></trkpt><trkpt lat="38.03076066100958" lon="15.284289745242294"><ele>1121.0</ele><time>2026-04-28T15:29:26.001Z</time></trkpt><trkpt lat="38.03066099538342" lon="15.284274598955797"><ele>1126.0</ele><time>2026-04-28T15:29:28Z</time></trkpt><trkpt lat="38.030619906190175" lon="15.284207080920044"><ele>1131.0</ele><time>2026-04-28T15:29:30Z</time></trkpt><trkpt lat="38.03063172443617" lon="15.284100042015957"><ele>1125.3999999999999</ele><time>2026-04-28T15:29:34Z</time></trkpt><trkpt lat="38.03056798262331" lon="15.2838865221305"><ele>1119.8</ele><time>2026-04-28T15:29:35Z</time></trkpt><trkpt lat="38.03056119529813" lon="15.283765298297292"><ele>1114.1999999999998</ele><time>2026-04-28T15:29:36Z</time></trkpt><trkpt lat="38.03055725926159" lon="15.283654432948842"><ele>1108.6</ele><time>2026-04-28T15:29:37Z</time></trkpt><trkpt lat="38.03054255673194" lon="15.283548900033201"><ele>1103.0</ele><time>2026-04-28T15:29:38Z</time></trkpt><trkpt lat="38.03050999170997" lon="15.283451457257861"><ele>1103.0</ele><time>2026-04-28T15:29:39Z</time></trkpt><trkpt lat="38.030456607319856" lon="15.283378780176266"><ele>1103.0</ele><time>2026-04-28T15:29:40Z</time></trkpt><trkpt lat="38.03040080324507" lon="15.283302212322988"><ele>1103.0</ele><time>2026-04-28T15:29:41Z</time></trkpt><trkpt lat="38.03035649006777" lon="15.283224923520324"><ele>1103.0</ele><time>2026-04-28T15:29:42Z</time></trkpt><trkpt lat="38.03040199666273" lon="15.283071964352436"><ele>1103.0</ele><time>2026-04-28T15:29:44Z</time></trkpt><trkpt lat="38.03044127494063" lon="15.282980400198566"><ele>1103.0</ele><time>2026-04-28T15:29:45Z</time></trkpt><trkpt lat="38.030480321714435" lon="15.282854891615184"><ele>1098.0</ele><time>2026-04-28T15:29:46Z</time></trkpt><trkpt lat="38.030507990000594" lon="15.282740542100541"><ele>1093.0</ele><time>2026-04-28T15:29:47Z</time></trkpt><trkpt lat="38.03052767323056" lon="15.282640037370882"><ele>1088.0</ele><time>2026-04-28T15:29:48Z</time></trkpt><trkpt lat="38.030560882553466" lon="15.282547917715608"><ele>1083.0</ele><time>2026-04-28T15:29:49Z</time></trkpt><trkpt lat="38.030631205593956" lon="15.282458602470111"><ele>1078.0</ele><time>2026-04-28T15:29:50Z</time></trkpt><trkpt lat="38.03070823447414" lon="15.282381062366515"><ele>1078.0</ele><time>2026-04-28T15:29:51Z</time></trkpt><trkpt lat="38.0307940991958" lon="15.282313772450802"><ele>1078.0</ele><time>2026-04-28T15:29:52Z</time></trkpt><trkpt lat="38.03087139147136" lon="15.282248651028688"><ele>1078.0</ele><time>2026-04-28T15:29:53Z</time></trkpt><trkpt lat="38.03093792925737" lon="15.282167394425514"><ele>1078.0</ele><time>2026-04-28T15:29:54Z</time></trkpt><trkpt lat="38.03105688511846" lon="15.282174795410315"><ele>1078.0</ele><time>2026-04-28T15:29:55Z</time></trkpt><trkpt lat="38.03113007767415" lon="15.282019562643052"><ele>1079.6666666666665</ele><time>2026-04-28T15:29:56Z</time></trkpt><trkpt lat="38.031206049747496" lon="15.28186087477485"><ele>1081.3333333333333</ele><time>2026-04-28T15:29:57Z</time></trkpt><trkpt lat="38.03129591709907" lon="15.281719785712102"><ele>1083.0</ele><time>2026-04-28T15:29:58Z</time></trkpt><trkpt lat="38.03141294787328" lon="15.281573272246103"><ele>1083.0</ele><time>2026-04-28T15:29:59Z</time></trkpt><trkpt lat="38.031524248399165" lon="15.281438167882143"><ele>1083.0</ele><time>2026-04-28T15:30:00Z</time></trkpt><trkpt lat="38.03162298524025" lon="15.281333645529338"><ele>1083.0</ele><time>2026-04-28T15:30:01Z</time></trkpt><trkpt lat="38.03171853967621" lon="15.281249665022289"><ele>1083.0</ele><time>2026-04-28T15:30:02Z</time></trkpt><trkpt lat="38.03179903524458" lon="15.281164162553491"><ele>1085.5</ele><time>2026-04-28T15:30:03Z</time></trkpt><trkpt lat="38.0318861422219" lon="15.281049157625485"><ele>1088.0</ele><time>2026-04-28T15:30:04Z</time></trkpt><trkpt lat="38.03194810975174" lon="15.280911809695352"><ele>1090.5</ele><time>2026-04-28T15:30:05Z</time></trkpt><trkpt lat="38.032000382792894" lon="15.280796669491624"><ele>1093.0</ele><time>2026-04-28T15:30:06Z</time></trkpt><trkpt lat="38.032074603594424" lon="15.280708059051651"><ele>1093.0</ele><time>2026-04-28T15:30:07Z</time></trkpt><trkpt lat="38.032146825818444" lon="15.28063887501653"><ele>1093.0</ele><time>2026-04-28T15:30:08Z</time></trkpt><trkpt lat="38.0322070888193" lon="15.280540275721613"><ele>1093.0</ele><time>2026-04-28T15:30:10Z</time></trkpt><trkpt lat="38.03222341561707" lon="15.280429914714281"><ele>1093.0</ele><time>2026-04-28T15:30:11Z</time></trkpt><trkpt lat="38.03224201256218" lon="15.280305531077524"><ele>1093.0</ele><time>2026-04-28T15:30:12Z</time></trkpt><trkpt lat="38.03225248410823" lon="15.280191934505446"><ele>1094.0</ele><time>2026-04-28T15:30:13Z</time></trkpt><trkpt lat="38.03223687501908" lon="15.280094688805628"><ele>1095.0</ele><time>2026-04-28T15:30:14Z</time></trkpt><trkpt lat="38.03221829440486" lon="15.279954088952078"><ele>1096.0</ele><time>2026-04-28T15:30:15Z</time></trkpt><trkpt lat="38.03218408168885" lon="15.279810589925894"><ele>1097.0</ele><time>2026-04-28T15:30:16Z</time></trkpt><trkpt lat="38.032146877203935" lon="15.279689276233215"><ele>1098.0</ele><time>2026-04-28T15:30:17Z</time></trkpt><trkpt lat="38.03213552772354" lon="15.27958890711242"><ele>1098.0</ele><time>2026-04-28T15:30:18Z</time></trkpt><trkpt lat="38.032156974864506" lon="15.279493253738464"><ele>1098.0</ele><time>2026-04-28T15:30:19Z</time></trkpt><trkpt lat="38.03220712760174" lon="15.279402129507199"><ele>1098.0</ele><time>2026-04-28T15:30:20Z</time></trkpt><trkpt lat="38.032280711733165" lon="15.27931345553046"><ele>1098.0</ele><time>2026-04-28T15:30:21Z</time></trkpt><trkpt lat="38.03236445917598" lon="15.279232481022584"><ele>1098.0</ele><time>2026-04-28T15:30:22Z</time></trkpt><trkpt lat="38.03244743482501" lon="15.279158402303176"><ele>1096.8</ele><time>2026-04-28T15:30:23Z</time></trkpt><trkpt lat="38.03252228477675" lon="15.279073247836834"><ele>1095.6</ele><time>2026-04-28T15:30:24Z</time></trkpt><trkpt lat="38.03259561671498" lon="15.27896074760769"><ele>1094.4</ele><time>2026-04-28T15:30:25Z</time></trkpt><trkpt lat="38.0326491267765" lon="15.278875417454326"><ele>1093.2</ele><time>2026-04-28T15:30:26Z</time></trkpt><trkpt lat="38.03277904883848" lon="15.27882695929967"><ele>1092.0</ele><time>2026-04-28T15:30:28Z</time></trkpt><trkpt lat="38.03284874260505" lon="15.27878355877723"><ele>1096.5</ele><time>2026-04-28T15:30:29Z</time></trkpt><trkpt lat="38.03289950228519" lon="15.278721168999988"><ele>1101.0</ele><time>2026-04-28T15:30:30Z</time></trkpt><trkpt lat="38.032940049038054" lon="15.27864886488766"><ele>1105.5</ele><time>2026-04-28T15:30:31Z</time></trkpt><trkpt lat="38.03297950052585" lon="15.278556983003757"><ele>1110.0</ele><time>2026-04-28T15:30:32Z</time></trkpt><trkpt lat="38.03298609182409" lon="15.278472768321489"><ele>1114.5</ele><time>2026-04-28T15:30:33Z</time></trkpt><trkpt lat="38.03296197921137" lon="15.27837762771186"><ele>1119.0</ele><time>2026-04-28T15:30:34Z</time></trkpt><trkpt lat="38.03291095554962" lon="15.278288326903274"><ele>1119.0</ele><time>2026-04-28T15:30:35Z</time></trkpt><trkpt lat="38.03285059479492" lon="15.278232648035523"><ele>1119.0</ele><time>2026-04-28T15:30:36Z</time></trkpt><trkpt lat="38.032769279779885" lon="15.278218052531805"><ele>1119.0</ele><time>2026-04-28T15:30:37Z</time></trkpt><trkpt lat="38.03267875215156" lon="15.278237883845671"><ele>1119.0</ele><time>2026-04-28T15:30:38Z</time></trkpt><trkpt lat="38.03258030735626" lon="15.278264863255961"><ele>1119.0</ele><time>2026-04-28T15:30:39Z</time></trkpt><trkpt lat="38.032483304224755" lon="15.27822971978581"><ele>1120.0</ele><time>2026-04-28T15:30:40Z</time></trkpt><trkpt lat="38.032382134630126" lon="15.278186166148217"><ele>1121.0</ele><time>2026-04-28T15:30:41Z</time></trkpt><trkpt lat="38.03228443850543" lon="15.278140745539138"><ele>1122.0</ele><time>2026-04-28T15:30:42Z</time></trkpt><trkpt lat="38.032191442049694" lon="15.278093783755674"><ele>1123.0</ele><time>2026-04-28T15:30:43Z</time></trkpt><trkpt lat="38.03211706144945" lon="15.278052389196663"><ele>1124.0</ele><time>2026-04-28T15:30:44Z</time></trkpt><trkpt lat="38.03205114467747" lon="15.278008253308327"><ele>1124.0</ele><time>2026-04-28T15:30:45Z</time></trkpt><trkpt lat="38.03195605261072" lon="15.277970022139785"><ele>1124.0</ele><time>2026-04-28T15:30:46Z</time></trkpt><trkpt lat="38.03186181655049" lon="15.277932645301833"><ele>1124.0</ele><time>2026-04-28T15:30:47Z</time></trkpt><trkpt lat="38.03179344670266" lon="15.277899760733163"><ele>1124.0</ele><time>2026-04-28T15:30:47.999Z</time></trkpt><trkpt lat="38.03171682069771" lon="15.277857610055877"><ele>1124.0</ele><time>2026-04-28T15:30:48.999Z</time></trkpt><trkpt lat="38.031657638121565" lon="15.27773829667278"><ele>1124.0</ele><time>2026-04-28T15:30:50.999Z</time></trkpt><trkpt lat="38.03164606845629" lon="15.277647498154908"><ele>1124.0</ele><time>2026-04-28T15:30:51.999Z</time></trkpt><trkpt lat="38.03167417093173" lon="15.27755779859593"><ele>1124.0</ele><time>2026-04-28T15:30:52.999Z</time></trkpt><trkpt lat="38.03174405328807" lon="15.277481540659"><ele>1124.0</ele><time>2026-04-28T15:30:53.999Z</time></trkpt><trkpt lat="38.031847746297565" lon="15.277429030587353"><ele>1124.0</ele><time>2026-04-28T15:30:54.999Z</time></trkpt><trkpt lat="38.03197205328942" lon="15.2773425192999"><ele>1124.0</ele><time>2026-04-28T15:30:55.999Z</time></trkpt><trkpt lat="38.0320662522193" lon="15.27728698513902"><ele>1124.0</ele><time>2026-04-28T15:30:56.999Z</time></trkpt><trkpt lat="38.032127868995175" lon="15.277262653266643"><ele>1124.0</ele><time>2026-04-28T15:30:57.999Z</time></trkpt><trkpt lat="38.03218068427703" lon="15.277195733225843"><ele>1124.0</ele><time>2026-04-28T15:30:58.999Z</time></trkpt><trkpt lat="38.03222993250266" lon="15.277144426295227"><ele>1124.0</ele><time>2026-04-28T15:30:59.999Z</time></trkpt><trkpt lat="38.03228793477515" lon="15.277108010403877"><ele>1124.0</ele><time>2026-04-28T15:31:00.999Z</time></trkpt><trkpt lat="38.032380287639725" lon="15.277036185190765"><ele>1126.5</ele><time>2026-04-28T15:31:02.999Z</time></trkpt><trkpt lat="38.03236400719507" lon="15.27690660484811"><ele>1129.0</ele><time>2026-04-28T15:31:05.999Z</time></trkpt><trkpt lat="38.03231109224069" lon="15.276838734902913"><ele>1131.5</ele><time>2026-04-28T15:31:07.999Z</time></trkpt><trkpt lat="38.03226826653103" lon="15.276777384341887"><ele>1134.0</ele><time>2026-04-28T15:31:10.999Z</time></trkpt><trkpt lat="38.032073370297596" lon="15.276566335858213"><ele>1134.0</ele><time>2026-04-28T15:31:11.999Z</time></trkpt><trkpt lat="38.031989506460015" lon="15.276488239491258"><ele>1134.0</ele><time>2026-04-28T15:31:12.999Z</time></trkpt><trkpt lat="38.03190380045627" lon="15.276409143089449"><ele>1134.0</ele><time>2026-04-28T15:31:13.999Z</time></trkpt><trkpt lat="38.03178987670368" lon="15.276292301686802"><ele>1134.0</ele><time>2026-04-28T15:31:14.999Z</time></trkpt><trkpt lat="38.03169873084207" lon="15.276177109437853"><ele>1141.25</ele><time>2026-04-28T15:31:16.001Z</time></trkpt><trkpt lat="38.03162000577557" lon="15.276050261918696"><ele>1148.5</ele><time>2026-04-28T15:31:17.001Z</time></trkpt><trkpt lat="38.031546912673846" lon="15.275926384052422"><ele>1155.75</ele><time>2026-04-28T15:31:18.001Z</time></trkpt><trkpt lat="38.03148516510299" lon="15.275800984882016"><ele>1163.0</ele><time>2026-04-28T15:31:19.001Z</time></trkpt><trkpt lat="38.031428805735274" lon="15.27570296093304"><ele>1163.0</ele><time>2026-04-28T15:31:20.001Z</time></trkpt><trkpt lat="38.03137655363485" lon="15.275622454615238"><ele>1163.0</ele><time>2026-04-28T15:31:21.001Z</time></trkpt><trkpt lat="38.03133979352405" lon="15.275539877581243"><ele>1163.0</ele><time>2026-04-28T15:31:22.001Z</time></trkpt><trkpt lat="38.03126856673369" lon="15.275419884681602"><ele>1163.0</ele><time>2026-04-28T15:31:24.001Z</time></trkpt><trkpt lat="38.03115727781832" lon="15.275254885804726"><ele>1163.0</ele><time>2026-04-28T15:31:26.001Z</time></trkpt><trkpt lat="38.031084077357455" lon="15.275132570981622"><ele>1158.0</ele><time>2026-04-28T15:31:27.001Z</time></trkpt><trkpt lat="38.03100678052189" lon="15.274985706299146"><ele>1153.0</ele><time>2026-04-28T15:31:28.001Z</time></trkpt><trkpt lat="38.03092511129517" lon="15.274848051996647"><ele>1148.0</ele><time>2026-04-28T15:31:29.001Z</time></trkpt><trkpt lat="38.03085619796038" lon="15.274745386356681"><ele>1143.0</ele><time>2026-04-28T15:31:30.001Z</time></trkpt><trkpt lat="38.030959375693065" lon="15.274684999949546"><ele>1142.0</ele><time>2026-04-28T15:31:31.001Z</time></trkpt><trkpt lat="38.030898586426524" lon="15.274603490882223"><ele>1141.0</ele><time>2026-04-28T15:31:32Z</time></trkpt><trkpt lat="38.030809785840106" lon="15.274522894809884"><ele>1140.0</ele><time>2026-04-28T15:31:33Z</time></trkpt><trkpt lat="38.03072760363508" lon="15.27448972337441"><ele>1139.0</ele><time>2026-04-28T15:31:34Z</time></trkpt><trkpt lat="38.030671590930766" lon="15.274357379801048"><ele>1138.0</ele><time>2026-04-28T15:31:36Z</time></trkpt><trkpt lat="38.03069647241075" lon="15.274264563287815"><ele>1138.0</ele><time>2026-04-28T15:31:37Z</time></trkpt><trkpt lat="38.03072558733485" lon="15.27419345910451"><ele>1138.0</ele><time>2026-04-28T15:31:38Z</time></trkpt><trkpt lat="38.030828495630175" lon="15.274162917282677"><ele>1138.0</ele><time>2026-04-28T15:31:39Z</time></trkpt><trkpt lat="38.030906039640186" lon="15.274137233359856"><ele>1138.0</ele><time>2026-04-28T15:31:40Z</time></trkpt><trkpt lat="38.03098698824185" lon="15.274129393948062"><ele>1138.0</ele><time>2026-04-28T15:31:41Z</time></trkpt><trkpt lat="38.0310650127754" lon="15.274104290526639"><ele>1138.0</ele><time>2026-04-28T15:31:42Z</time></trkpt><trkpt lat="38.03115020788984" lon="15.274057515079342"><ele>1137.8</ele><time>2026-04-28T15:31:43Z</time></trkpt><trkpt lat="38.031219864552774" lon="15.274002269460558"><ele>1137.6</ele><time>2026-04-28T15:31:44Z</time></trkpt><trkpt lat="38.031311126381595" lon="15.273953278621645"><ele>1137.4</ele><time>2026-04-28T15:31:46Z</time></trkpt><trkpt lat="38.0313746858768" lon="15.273942485055647"><ele>1137.2</ele><time>2026-04-28T15:31:47Z</time></trkpt><trkpt lat="38.0314858233672" lon="15.273941806588626"><ele>1137.0</ele><time>2026-04-28T15:31:49Z</time></trkpt><trkpt lat="38.03157684561633" lon="15.273984720192528"><ele>1138.6</ele><time>2026-04-28T15:31:50Z</time></trkpt><trkpt lat="38.031675969899794" lon="15.274036175347831"><ele>1140.2</ele><time>2026-04-28T15:31:51Z</time></trkpt><trkpt lat="38.031760622625455" lon="15.274073052620754"><ele>1141.8</ele><time>2026-04-28T15:31:52Z</time></trkpt><trkpt lat="38.03183005333519" lon="15.274086553099826"><ele>1143.4</ele><time>2026-04-28T15:31:53Z</time></trkpt><trkpt lat="38.03192740110804" lon="15.274020822159011"><ele>1145.0</ele><time>2026-04-28T15:31:55Z</time></trkpt><trkpt lat="38.031964226434354" lon="15.273931621406435"><ele>1141.6666666666667</ele><time>2026-04-28T15:31:56Z</time></trkpt><trkpt lat="38.03199183918168" lon="15.273820807092992"><ele>1138.3333333333335</ele><time>2026-04-28T15:31:57Z</time></trkpt><trkpt lat="38.03204472544841" lon="15.27371055990592"><ele>1135.0</ele><time>2026-04-28T15:31:58Z</time></trkpt><trkpt lat="38.03209474849462" lon="15.273640262322283"><ele>1131.6666666666667</ele><time>2026-04-28T15:31:59Z</time></trkpt><trkpt lat="38.03213742789363" lon="15.273552785580897"><ele>1128.3333333333333</ele><time>2026-04-28T15:32:00Z</time></trkpt><trkpt lat="38.032173904783946" lon="15.273481404757831"><ele>1125.0</ele><time>2026-04-28T15:32:01Z</time></trkpt><trkpt lat="38.03221861182558" lon="15.273424974646716"><ele>1125.0</ele><time>2026-04-28T15:32:02Z</time></trkpt><trkpt lat="38.03225982991612" lon="15.273345242558632"><ele>1125.0</ele><time>2026-04-28T15:32:04Z</time></trkpt><trkpt lat="38.03218285401507" lon="15.273289322888758"><ele>1125.0</ele><time>2026-04-28T15:32:06Z</time></trkpt><trkpt lat="38.0321085529678" lon="15.273279791991454"><ele>1125.0</ele><time>2026-04-28T15:32:07Z</time></trkpt><trkpt lat="38.03202494081855" lon="15.273293379761078"><ele>1125.0</ele><time>2026-04-28T15:32:08Z</time></trkpt><trkpt lat="38.03193095592566" lon="15.273315821256544"><ele>1125.0</ele><time>2026-04-28T15:32:09Z</time></trkpt><trkpt lat="38.03186868507488" lon="15.273356740192561"><ele>1125.0</ele><time>2026-04-28T15:32:10Z</time></trkpt><trkpt lat="38.031818351916755" lon="15.27342187101803"><ele>1125.0</ele><time>2026-04-28T15:32:11Z</time></trkpt><trkpt lat="38.03177296070473" lon="15.273567836466578"><ele>1125.0</ele><time>2026-04-28T15:32:13Z</time></trkpt><trkpt lat="38.03170075782286" lon="15.273534059194995"><ele>1125.0</ele><time>2026-04-28T15:32:17Z</time></trkpt><trkpt lat="38.03171988816007" lon="15.273430035007495"><ele>1125.0</ele><time>2026-04-28T15:32:19Z</time></trkpt><trkpt lat="38.03175651112847" lon="15.273322882818698"><ele>1125.0</ele><time>2026-04-28T15:32:20Z</time></trkpt><trkpt lat="38.03180358360518" lon="15.273206598814035"><ele>1125.0</ele><time>2026-04-28T15:32:21Z</time></trkpt><trkpt lat="38.03183948467736" lon="15.273117235256548"><ele>1125.0</ele><time>2026-04-28T15:32:22Z</time></trkpt><trkpt lat="38.03188895537562" lon="15.273019089031592"><ele>1125.0</ele><time>2026-04-28T15:32:23Z</time></trkpt><trkpt lat="38.03195314563774" lon="15.272937355092502"><ele>1125.0</ele><time>2026-04-28T15:32:24Z</time></trkpt><trkpt lat="38.03203134995947" lon="15.272858936814318"><ele>1125.0</ele><time>2026-04-28T15:32:25Z</time></trkpt><trkpt lat="38.032114360673866" lon="15.272810638314462"><ele>1121.0</ele><time>2026-04-28T15:32:26Z</time></trkpt><trkpt lat="38.03217004512591" lon="15.27276505291489"><ele>1117.0</ele><time>2026-04-28T15:32:27Z</time></trkpt><trkpt lat="38.032229036972545" lon="15.272618813207561"><ele>1113.0</ele><time>2026-04-28T15:32:29Z</time></trkpt><trkpt lat="38.03222632670895" lon="15.27252232672365"><ele>1109.0</ele><time>2026-04-28T15:32:30Z</time></trkpt><trkpt lat="38.032198817696205" lon="15.272434962635618"><ele>1105.0</ele><time>2026-04-28T15:32:31Z</time></trkpt><trkpt lat="38.032140441036326" lon="15.272312001627984"><ele>1103.4</ele><time>2026-04-28T15:32:32Z</time></trkpt><trkpt lat="38.03210158729741" lon="15.272175825885236"><ele>1101.8</ele><time>2026-04-28T15:32:33Z</time></trkpt><trkpt lat="38.032089258398344" lon="15.272030784484572"><ele>1100.2</ele><time>2026-04-28T15:32:34Z</time></trkpt><trkpt lat="38.03208166130459" lon="15.271904009817684"><ele>1098.6</ele><time>2026-04-28T15:32:35Z</time></trkpt><trkpt lat="38.032054615298286" lon="15.271814621245177"><ele>1097.0</ele><time>2026-04-28T15:32:36Z</time></trkpt><trkpt lat="38.032024638841456" lon="15.271716177366299"><ele>1097.0</ele><time>2026-04-28T15:32:37Z</time></trkpt><trkpt lat="38.03199114391159" lon="15.271567277173414"><ele>1097.0</ele><time>2026-04-28T15:32:38Z</time></trkpt><trkpt lat="38.031965970657325" lon="15.271414308699345"><ele>1097.0</ele><time>2026-04-28T15:32:39Z</time></trkpt><trkpt lat="38.03193775016266" lon="15.271274656820582"><ele>1097.0</ele><time>2026-04-28T15:32:40Z</time></trkpt><trkpt lat="38.03189977938002" lon="15.271135536126168"><ele>1095.75</ele><time>2026-04-28T15:32:41Z</time></trkpt><trkpt lat="38.03186783740651" lon="15.270997477784023"><ele>1094.5</ele><time>2026-04-28T15:32:42Z</time></trkpt><trkpt lat="38.03182592916285" lon="15.270838542832605"><ele>1093.25</ele><time>2026-04-28T15:32:43Z</time></trkpt><trkpt lat="38.03179524694842" lon="15.270691328655495"><ele>1092.0</ele><time>2026-04-28T15:32:44Z</time></trkpt><trkpt lat="38.031777062736055" lon="15.270558441176213"><ele>1090.4</ele><time>2026-04-28T15:32:45Z</time></trkpt><trkpt lat="38.031747092215575" lon="15.27044234009133"><ele>1088.8000000000002</ele><time>2026-04-28T15:32:46Z</time></trkpt><trkpt lat="38.0317038686514" lon="15.270328092634772"><ele>1087.2</ele><time>2026-04-28T15:32:47Z</time></trkpt><trkpt lat="38.03166400898629" lon="15.270204639119424"><ele>1085.6000000000001</ele><time>2026-04-28T15:32:48Z</time></trkpt><trkpt lat="38.03166749568867" lon="15.270107266003498"><ele>1084.0</ele><time>2026-04-28T15:32:49Z</time></trkpt><trkpt lat="38.03168502651364" lon="15.270010910741528"><ele>1084.0</ele><time>2026-04-28T15:32:50Z</time></trkpt><trkpt lat="38.031727938594656" lon="15.269882404182331"><ele>1084.0</ele><time>2026-04-28T15:32:51Z</time></trkpt><trkpt lat="38.03179473723728" lon="15.269735442543501"><ele>1084.0</ele><time>2026-04-28T15:32:51.999Z</time></trkpt><trkpt lat="38.03186916706788" lon="15.269603083201227"><ele>1084.0</ele><time>2026-04-28T15:32:52.999Z</time></trkpt><trkpt lat="38.03193552576246" lon="15.269479330870759"><ele>1084.3333333333333</ele><time>2026-04-28T15:32:53.999Z</time></trkpt><trkpt lat="38.03199431528331" lon="15.269376175081522"><ele>1084.6666666666665</ele><time>2026-04-28T15:32:54.999Z</time></trkpt><trkpt lat="38.03205104397845" lon="15.269296261654556"><ele>1085.0</ele><time>2026-04-28T15:32:55.999Z</time></trkpt><trkpt lat="38.032081501926584" lon="15.269196198151993"><ele>1085.3333333333333</ele><time>2026-04-28T15:32:56.999Z</time></trkpt><trkpt lat="38.032095802548575" lon="15.269100793502753"><ele>1085.6666666666667</ele><time>2026-04-28T15:32:57.999Z</time></trkpt><trkpt lat="38.032062988815156" lon="15.26901538695701"><ele>1086.0</ele><time>2026-04-28T15:32:58.999Z</time></trkpt><trkpt lat="38.031991739083146" lon="15.268925006638355"><ele>1083.25</ele><time>2026-04-28T15:32:59.999Z</time></trkpt><trkpt lat="38.03190298939785" lon="15.26883475683157"><ele>1080.5</ele><time>2026-04-28T15:33:00.999Z</time></trkpt><trkpt lat="38.03179201196954" lon="15.268752734225679"><ele>1077.75</ele><time>2026-04-28T15:33:01.999Z</time></trkpt><trkpt lat="38.03167481340652" lon="15.268698886668256"><ele>1075.0</ele><time>2026-04-28T15:33:02.999Z</time></trkpt><trkpt lat="38.03158439949835" lon="15.268624448069568"><ele>1075.6666666666665</ele><time>2026-04-28T15:33:03.999Z</time></trkpt><trkpt lat="38.031493334640174" lon="15.268577028949524"><ele>1076.3333333333333</ele><time>2026-04-28T15:33:04.999Z</time></trkpt><trkpt lat="38.03142434437523" lon="15.268522605081277"><ele>1077.0</ele><time>2026-04-28T15:33:05.999Z</time></trkpt><trkpt lat="38.03137948456831" lon="15.268430134162493"><ele>1077.6666666666667</ele><time>2026-04-28T15:33:06.999Z</time></trkpt><trkpt lat="38.03135069882168" lon="15.268310099462784"><ele>1078.3333333333335</ele><time>2026-04-28T15:33:07.999Z</time></trkpt><trkpt lat="38.03134127530766" lon="15.268202700453484"><ele>1079.0</ele><time>2026-04-28T15:33:08.999Z</time></trkpt><trkpt lat="38.03134924594592" lon="15.268098947887305"><ele>1079.0</ele><time>2026-04-28T15:33:09.999Z</time></trkpt><trkpt lat="38.0313861581993" lon="15.26796680487418"><ele>1079.0</ele><time>2026-04-28T15:33:11.999Z</time></trkpt><trkpt lat="38.03142454432751" lon="15.26780314078378"><ele>1079.0</ele><time>2026-04-28T15:33:13.999Z</time></trkpt><trkpt lat="38.03142217736245" lon="15.267712905602503"><ele>1079.0</ele><time>2026-04-28T15:33:14.999Z</time></trkpt><trkpt lat="38.031411190918156" lon="15.2676216399896"><ele>1079.0</ele><time>2026-04-28T15:33:15.999Z</time></trkpt><trkpt lat="38.03140124236025" lon="15.26753311057292"><ele>1079.0</ele><time>2026-04-28T15:33:16.999Z</time></trkpt><trkpt lat="38.03137667091379" lon="15.267442643260805"><ele>1079.0</ele><time>2026-04-28T15:33:17.999Z</time></trkpt><trkpt lat="38.031342090123374" lon="15.267350380759925"><ele>1079.0</ele><time>2026-04-28T15:33:18.999Z</time></trkpt><trkpt lat="38.031317531220665" lon="15.267255827341112"><ele>1079.0</ele><time>2026-04-28T15:33:19.999Z</time></trkpt><trkpt lat="38.03129674431656" lon="15.267171597931334"><ele>1079.0</ele><time>2026-04-28T15:33:21.001Z</time></trkpt><trkpt lat="38.031258031650246" lon="15.267073999061358"><ele>1079.0</ele><time>2026-04-28T15:33:23.001Z</time></trkpt><trkpt lat="38.0312107141553" lon="15.266998942404639"><ele>1081.6666666666667</ele><time>2026-04-28T15:33:25.001Z</time></trkpt><trkpt lat="38.031153678323385" lon="15.266948115668555"><ele>1084.3333333333335</ele><time>2026-04-28T15:33:26.001Z</time></trkpt><trkpt lat="38.03108580298479" lon="15.266893786602946"><ele>1087.0</ele><time>2026-04-28T15:33:27.001Z</time></trkpt><trkpt lat="38.03102188258017" lon="15.266817134927422"><ele>1089.6666666666667</ele><time>2026-04-28T15:33:28.001Z</time></trkpt><trkpt lat="38.030959522944315" lon="15.266759527364522"><ele>1092.3333333333333</ele><time>2026-04-28T15:33:29.001Z</time></trkpt><trkpt lat="38.03089952526769" lon="15.266704166712612"><ele>1095.0</ele><time>2026-04-28T15:33:30.001Z</time></trkpt><trkpt lat="38.030832497233206" lon="15.266646923445503"><ele>1095.6666666666667</ele><time>2026-04-28T15:33:31.001Z</time></trkpt><trkpt lat="38.030757829961324" lon="15.266591281192058"><ele>1096.3333333333333</ele><time>2026-04-28T15:33:32.001Z</time></trkpt><trkpt lat="38.030705665726536" lon="15.266536872089755"><ele>1097.0</ele><time>2026-04-28T15:33:33.001Z</time></trkpt><trkpt lat="38.030643099968714" lon="15.266406158033547"><ele>1097.6666666666665</ele><time>2026-04-28T15:33:35.001Z</time></trkpt><trkpt lat="38.0306431419742" lon="15.266297917821952"><ele>1098.3333333333333</ele><time>2026-04-28T15:33:36.001Z</time></trkpt><trkpt lat="38.03064854023266" lon="15.266188498733792"><ele>1099.0</ele><time>2026-04-28T15:33:37Z</time></trkpt><trkpt lat="38.03069413154254" lon="15.266120698858801"><ele>1098.5</ele><time>2026-04-28T15:33:38Z</time></trkpt><trkpt lat="38.03077456174713" lon="15.266076408340545"><ele>1098.0</ele><time>2026-04-28T15:33:39Z</time></trkpt><trkpt lat="38.03085506065179" lon="15.266043927070642"><ele>1097.5</ele><time>2026-04-28T15:33:40Z</time></trkpt><trkpt lat="38.03092697663582" lon="15.265962417911846"><ele>1097.0</ele><time>2026-04-28T15:33:42Z</time></trkpt><trkpt lat="38.03090873203755" lon="15.265843582557903"><ele>1096.5</ele><time>2026-04-28T15:33:44Z</time></trkpt><trkpt lat="38.030857865015165" lon="15.265761945112866"><ele>1096.0</ele><time>2026-04-28T15:33:45Z</time></trkpt><trkpt lat="38.03081822317875" lon="15.265668722737628"><ele>1103.2</ele><time>2026-04-28T15:33:46Z</time></trkpt><trkpt lat="38.03079102284034" lon="15.265557991714445"><ele>1110.3999999999999</ele><time>2026-04-28T15:33:47Z</time></trkpt><trkpt lat="38.03077588470585" lon="15.265453557252822"><ele>1117.6</ele><time>2026-04-28T15:33:48Z</time></trkpt><trkpt lat="38.030742708627486" lon="15.265356344374597"><ele>1124.8</ele><time>2026-04-28T15:33:50Z</time></trkpt><trkpt lat="38.03063192861633" lon="15.265310821329651"><ele>1132.0</ele><time>2026-04-28T15:33:52Z</time></trkpt><trkpt lat="38.03054250777445" lon="15.26527510368255"><ele>1132.0</ele><time>2026-04-28T15:33:53Z</time></trkpt><trkpt lat="38.03044814408378" lon="15.265217372035917"><ele>1132.0</ele><time>2026-04-28T15:33:54Z</time></trkpt><trkpt lat="38.03037151479679" lon="15.265151322727169"><ele>1132.0</ele><time>2026-04-28T15:33:55Z</time></trkpt><trkpt lat="38.03032470360226" lon="15.265075760069244"><ele>1132.0</ele><time>2026-04-28T15:33:56Z</time></trkpt><trkpt lat="38.03026881628157" lon="15.265017687366264"><ele>1132.0</ele><time>2026-04-28T15:33:58Z</time></trkpt><trkpt lat="38.03024923559095" lon="15.265134794941867"><ele>1132.0</ele><time>2026-04-28T15:34:00Z</time></trkpt><trkpt lat="38.030300198014885" lon="15.265191287899933"><ele>1132.0</ele><time>2026-04-28T15:34:01Z</time></trkpt><trkpt lat="38.030369353192675" lon="15.265247016277476"><ele>1132.0</ele><time>2026-04-28T15:34:02Z</time></trkpt><trkpt lat="38.03045710113535" lon="15.265327447643415"><ele>1132.0</ele><time>2026-04-28T15:34:03Z</time></trkpt><trkpt lat="38.0305297414421" lon="15.265402157658958"><ele>1132.0</ele><time>2026-04-28T15:34:04Z</time></trkpt><trkpt lat="38.03059036306303" lon="15.265440564624164"><ele>1132.0</ele><time>2026-04-28T15:34:05Z</time></trkpt><trkpt lat="38.03064361553357" lon="15.265506934419268"><ele>1132.0</ele><time>2026-04-28T15:34:07Z</time></trkpt><trkpt lat="38.03064433417327" lon="15.265623392960403"><ele>1130.8</ele><time>2026-04-28T15:34:09Z</time></trkpt><trkpt lat="38.0306052377417" lon="15.265718113749196"><ele>1129.6</ele><time>2026-04-28T15:34:11Z</time></trkpt><trkpt lat="38.03050252739768" lon="15.265831544381356"><ele>1128.3999999999999</ele><time>2026-04-28T15:34:13Z</time></trkpt><trkpt lat="38.03039699324064" lon="15.265911925947474"><ele>1127.2</ele><time>2026-04-28T15:34:14Z</time></trkpt><trkpt lat="38.03030162720479" lon="15.265955726723625"><ele>1126.0</ele><time>2026-04-28T15:34:15Z</time></trkpt><trkpt lat="38.03023070856445" lon="15.266038547552112"><ele>1126.0</ele><time>2026-04-28T15:34:16Z</time></trkpt><trkpt lat="38.030161125838205" lon="15.266136875960346"><ele>1126.0</ele><time>2026-04-28T15:34:17Z</time></trkpt><trkpt lat="38.03010139998742" lon="15.266199610739521"><ele>1126.0</ele><time>2026-04-28T15:34:18Z</time></trkpt><trkpt lat="38.03002412188188" lon="15.266229369423234"><ele>1126.0</ele><time>2026-04-28T15:34:19Z</time></trkpt><trkpt lat="38.02993824565962" lon="15.266248149174004"><ele>1126.0</ele><time>2026-04-28T15:34:20Z</time></trkpt><trkpt lat="38.029867475474695" lon="15.266256476272666"><ele>1126.0</ele><time>2026-04-28T15:34:21Z</time></trkpt><trkpt lat="38.02976958797856" lon="15.266224522781043"><ele>1126.0</ele><time>2026-04-28T15:34:23Z</time></trkpt><trkpt lat="38.029772562407075" lon="15.266095675692949"><ele>1126.0</ele><time>2026-04-28T15:34:25Z</time></trkpt><trkpt lat="38.02982586760882" lon="15.266035179720843"><ele>1126.0</ele><time>2026-04-28T15:34:26Z</time></trkpt><trkpt lat="38.029901737132384" lon="15.265989660637898"><ele>1126.0</ele><time>2026-04-28T15:34:27Z</time></trkpt><trkpt lat="38.029983181046425" lon="15.265947528556675"><ele>1126.0</ele><time>2026-04-28T15:34:28Z</time></trkpt><trkpt lat="38.030063784279555" lon="15.265889511964444"><ele>1126.0</ele><time>2026-04-28T15:34:29Z</time></trkpt><trkpt lat="38.03013123175327" lon="15.265811318171956"><ele>1126.0</ele><time>2026-04-28T15:34:30Z</time></trkpt><trkpt lat="38.030182908593545" lon="15.265729988304699"><ele>1126.0</ele><time>2026-04-28T15:34:31Z</time></trkpt><trkpt lat="38.03022138448199" lon="15.265659402690774"><ele>1126.0</ele><time>2026-04-28T15:34:32Z</time></trkpt><trkpt lat="38.03022182576977" lon="15.265539985364384"><ele>1126.0</ele><time>2026-04-28T15:34:34Z</time></trkpt><trkpt lat="38.03012676416928" lon="15.265409865236517"><ele>1126.0</ele><time>2026-04-28T15:34:37Z</time></trkpt><trkpt lat="38.03003126352215" lon="15.265331760794622"><ele>1130.0</ele><time>2026-04-28T15:34:39Z</time></trkpt><trkpt lat="38.02997050323966" lon="15.26526375680982"><ele>1134.0</ele><time>2026-04-28T15:34:40Z</time></trkpt><trkpt lat="38.029903344815814" lon="15.265203752795376"><ele>1138.0</ele><time>2026-04-28T15:34:41Z</time></trkpt><trkpt lat="38.02983648920812" lon="15.265138949785783"><ele>1142.0</ele><time>2026-04-28T15:34:42Z</time></trkpt><trkpt lat="38.02976446429979" lon="15.265045294669264"><ele>1146.0</ele><time>2026-04-28T15:34:43Z</time></trkpt><trkpt lat="38.029710116693664" lon="15.264945800579499"><ele>1150.0</ele><time>2026-04-28T15:34:44Z</time></trkpt><trkpt lat="38.029653325757266" lon="15.264852116367726"><ele>1152.0</ele><time>2026-04-28T15:34:45Z</time></trkpt><trkpt lat="38.02960397801468" lon="15.2647480042364"><ele>1154.0</ele><time>2026-04-28T15:34:46Z</time></trkpt><trkpt lat="38.02954638796339" lon="15.264650358771247"><ele>1156.0</ele><time>2026-04-28T15:34:47Z</time></trkpt><trkpt lat="38.02950343251552" lon="15.264554408722052"><ele>1158.0</ele><time>2026-04-28T15:34:48Z</time></trkpt><trkpt lat="38.02944275813971" lon="15.264449579488877"><ele>1160.0</ele><time>2026-04-28T15:34:49Z</time></trkpt><trkpt lat="38.029378318534775" lon="15.2643609456601"><ele>1160.0</ele><time>2026-04-28T15:34:50Z</time></trkpt><trkpt lat="38.02932046160268" lon="15.264278136258193"><ele>1160.0</ele><time>2026-04-28T15:34:51Z</time></trkpt><trkpt lat="38.02926527597886" lon="15.264180844555623"><ele>1160.0</ele><time>2026-04-28T15:34:52Z</time></trkpt><trkpt lat="38.02921167625375" lon="15.264102820991406"><ele>1160.0</ele><time>2026-04-28T15:34:53Z</time></trkpt><trkpt lat="38.029155520983885" lon="15.264026932899638"><ele>1160.0</ele><time>2026-04-28T15:34:54Z</time></trkpt><trkpt lat="38.02908533397703" lon="15.263942084162391"><ele>1160.0</ele><time>2026-04-28T15:34:55Z</time></trkpt><trkpt lat="38.029006251847825" lon="15.263858446573762"><ele>1161.2</ele><time>2026-04-28T15:34:55.999Z</time></trkpt><trkpt lat="38.028937638034606" lon="15.263767983607062"><ele>1162.4</ele><time>2026-04-28T15:34:56.999Z</time></trkpt><trkpt lat="38.02888273385196" lon="15.26367415111046"><ele>1163.6</ele><time>2026-04-28T15:34:57.999Z</time></trkpt><trkpt lat="38.028818254548746" lon="15.263580812100287"><ele>1164.8</ele><time>2026-04-28T15:34:58.999Z</time></trkpt><trkpt lat="38.02876507177741" lon="15.263486311375742"><ele>1166.0</ele><time>2026-04-28T15:34:59.999Z</time></trkpt><trkpt lat="38.028695268884235" lon="15.26340630565564"><ele>1166.0</ele><time>2026-04-28T15:35:00.999Z</time></trkpt><trkpt lat="38.028618173093506" lon="15.26333262385853"><ele>1166.0</ele><time>2026-04-28T15:35:01.999Z</time></trkpt><trkpt lat="38.02853546824218" lon="15.263232887682792"><ele>1166.0</ele><time>2026-04-28T15:35:02.999Z</time></trkpt><trkpt lat="38.02846463382698" lon="15.263167022421648"><ele>1166.0</ele><time>2026-04-28T15:35:03.999Z</time></trkpt><trkpt lat="38.02844411610959" lon="15.26302578996345"><ele>1166.0</ele><time>2026-04-28T15:35:05.999Z</time></trkpt><trkpt lat="38.02848149137092" lon="15.26294037733266"><ele>1168.5</ele><time>2026-04-28T15:35:06.999Z</time></trkpt><trkpt lat="38.0285524845508" lon="15.262856578905522"><ele>1171.0</ele><time>2026-04-28T15:35:07.999Z</time></trkpt><trkpt lat="38.02864908691688" lon="15.262767471385787"><ele>1173.5</ele><time>2026-04-28T15:35:08.999Z</time></trkpt><trkpt lat="38.02875388368191" lon="15.262673662382612"><ele>1176.0</ele><time>2026-04-28T15:35:09.999Z</time></trkpt><trkpt lat="38.02886951517188" lon="15.262570560575664"><ele>1176.0</ele><time>2026-04-28T15:35:10.999Z</time></trkpt><trkpt lat="38.02897951226007" lon="15.26246224316761"><ele>1176.0</ele><time>2026-04-28T15:35:11.999Z</time></trkpt><trkpt lat="38.02908502852946" lon="15.2623473831479"><ele>1176.0</ele><time>2026-04-28T15:35:12.999Z</time></trkpt><trkpt lat="38.02918165783376" lon="15.262217943970327"><ele>1176.0</ele><time>2026-04-28T15:35:13.999Z</time></trkpt><trkpt lat="38.02926681847409" lon="15.26209029186688"><ele>1176.8</ele><time>2026-04-28T15:35:14.999Z</time></trkpt><trkpt lat="38.02933842452801" lon="15.261966877565282"><ele>1177.6</ele><time>2026-04-28T15:35:15.999Z</time></trkpt><trkpt lat="38.029403581572346" lon="15.261876957179451"><ele>1178.4</ele><time>2026-04-28T15:35:16.999Z</time></trkpt><trkpt lat="38.02948850600238" lon="15.261828985455853"><ele>1179.2</ele><time>2026-04-28T15:35:17.999Z</time></trkpt><trkpt lat="38.029574160393736" lon="15.261773950329552"><ele>1180.0</ele><time>2026-04-28T15:35:18.999Z</time></trkpt><trkpt lat="38.02965911924011" lon="15.261749983152253"><ele>1180.0</ele><time>2026-04-28T15:35:19.999Z</time></trkpt><trkpt lat="38.02973591973176" lon="15.26173000577501"><ele>1180.0</ele><time>2026-04-28T15:35:20.999Z</time></trkpt><trkpt lat="38.02980502431523" lon="15.261677299584251"><ele>1180.0</ele><time>2026-04-28T15:35:21.999Z</time></trkpt><trkpt lat="38.02988585867975" lon="15.261610798341442"><ele>1180.0</ele><time>2026-04-28T15:35:22.999Z</time></trkpt><trkpt lat="38.029978814720614" lon="15.261521868895223"><ele>1180.0</ele><time>2026-04-28T15:35:23.999Z</time></trkpt><trkpt lat="38.03007452053732" lon="15.26141482001697"><ele>1181.0</ele><time>2026-04-28T15:35:24.999Z</time></trkpt><trkpt lat="38.03017155721076" lon="15.261303609333476"><ele>1182.0</ele><time>2026-04-28T15:35:25.999Z</time></trkpt><trkpt lat="38.03026120109497" lon="15.26120622570574"><ele>1183.0</ele><time>2026-04-28T15:35:27.001Z</time></trkpt><trkpt lat="38.030345567389716" lon="15.261086078129306"><ele>1184.0</ele><time>2026-04-28T15:35:28.001Z</time></trkpt><trkpt lat="38.03042866495768" lon="15.260948796694672"><ele>1184.0</ele><time>2026-04-28T15:35:29.001Z</time></trkpt><trkpt lat="38.0305113482985" lon="15.260829139382237"><ele>1184.0</ele><time>2026-04-28T15:35:30.001Z</time></trkpt><trkpt lat="38.03058457980178" lon="15.260725909537316"><ele>1184.0</ele><time>2026-04-28T15:35:31.001Z</time></trkpt><trkpt lat="38.03066289835825" lon="15.260614348799095"><ele>1184.0</ele><time>2026-04-28T15:35:32.001Z</time></trkpt><trkpt lat="38.03071932816512" lon="15.260539508097391"><ele>1184.0</ele><time>2026-04-28T15:35:33.001Z</time></trkpt><trkpt lat="38.03074858747936" lon="15.260456160679967"><ele>1182.2857142857142</ele><time>2026-04-28T15:35:35.001Z</time></trkpt><trkpt lat="38.030722217551194" lon="15.260379134693386"><ele>1180.5714285714284</ele><time>2026-04-28T15:35:37.001Z</time></trkpt><trkpt lat="38.030650864464" lon="15.260295699445848"><ele>1178.8571428571427</ele><time>2026-04-28T15:35:39.001Z</time></trkpt><trkpt lat="38.03059121320157" lon="15.260260158639495"><ele>1177.142857142857</ele><time>2026-04-28T15:35:40.001Z</time></trkpt><trkpt lat="38.03052718501294" lon="15.260244197496794"><ele>1175.4285714285713</ele><time>2026-04-28T15:35:41.001Z</time></trkpt><trkpt lat="38.030457414884864" lon="15.260245330503304"><ele>1173.7142857142856</ele><time>2026-04-28T15:35:42Z</time></trkpt><trkpt lat="38.03037940728232" lon="15.260259767447353"><ele>1172.0</ele><time>2026-04-28T15:35:43Z</time></trkpt><trkpt lat="38.03029766175108" lon="15.26028856763521"><ele>1172.0</ele><time>2026-04-28T15:35:44Z</time></trkpt><trkpt lat="38.030217010076925" lon="15.260318748750137"><ele>1172.0</ele><time>2026-04-28T15:35:45Z</time></trkpt><trkpt lat="38.030136951388336" lon="15.26034012593209"><ele>1172.0</ele><time>2026-04-28T15:35:46Z</time></trkpt><trkpt lat="38.03006580511622" lon="15.260373033105637"><ele>1172.0</ele><time>2026-04-28T15:35:47Z</time></trkpt><trkpt lat="38.03000501859639" lon="15.260425433123386"><ele>1172.0</ele><time>2026-04-28T15:35:48Z</time></trkpt><trkpt lat="38.029953970484364" lon="15.260495531524537"><ele>1172.0</ele><time>2026-04-28T15:35:49Z</time></trkpt><trkpt lat="38.02990787486626" lon="15.260573170848618"><ele>1175.6</ele><time>2026-04-28T15:35:50Z</time></trkpt><trkpt lat="38.02985079711028" lon="15.260647873811315"><ele>1179.2</ele><time>2026-04-28T15:35:51Z</time></trkpt><trkpt lat="38.02976890859894" lon="15.260698476976579"><ele>1182.8</ele><time>2026-04-28T15:35:52Z</time></trkpt><trkpt lat="38.02966931559623" lon="15.260734788573908"><ele>1186.4</ele><time>2026-04-28T15:35:53Z</time></trkpt><trkpt lat="38.029569708786475" lon="15.260774466022008"><ele>1190.0</ele><time>2026-04-28T15:35:54Z</time></trkpt><trkpt lat="38.02948187188013" lon="15.26079929486935"><ele>1190.0</ele><time>2026-04-28T15:35:55Z</time></trkpt><trkpt lat="38.02939626844154" lon="15.260810110715934"><ele>1190.0</ele><time>2026-04-28T15:35:56Z</time></trkpt><trkpt lat="38.029301122181415" lon="15.260812658163713"><ele>1190.0</ele><time>2026-04-28T15:35:57Z</time></trkpt><trkpt lat="38.0292219284812" lon="15.26081316353946"><ele>1190.0</ele><time>2026-04-28T15:35:58Z</time></trkpt><trkpt lat="38.02914368631722" lon="15.260807243271763"><ele>1190.0</ele><time>2026-04-28T15:35:59Z</time></trkpt><trkpt lat="38.02906336296929" lon="15.260769181968262"><ele>1190.0</ele><time>2026-04-28T15:36:00Z</time></trkpt><trkpt lat="38.02897196528286" lon="15.260718177239546"><ele>1192.3333333333335</ele><time>2026-04-28T15:36:01Z</time></trkpt><trkpt lat="38.028856410451475" lon="15.260675560748004"><ele>1194.6666666666667</ele><time>2026-04-28T15:36:02Z</time></trkpt><trkpt lat="38.02876126368546" lon="15.260649960738325"><ele>1197.0</ele><time>2026-04-28T15:36:03Z</time></trkpt><trkpt lat="38.02867897677061" lon="15.260629595107485"><ele>1199.3333333333333</ele><time>2026-04-28T15:36:04Z</time></trkpt><trkpt lat="38.028612508143276" lon="15.260610196233428"><ele>1201.6666666666665</ele><time>2026-04-28T15:36:05Z</time></trkpt><trkpt lat="38.02855564164263" lon="15.260570829248781"><ele>1204.0</ele><time>2026-04-28T15:36:06Z</time></trkpt><trkpt lat="38.02849316864554" lon="15.26050603676002"><ele>1198.0</ele><time>2026-04-28T15:36:07Z</time></trkpt><trkpt lat="38.02842788765351" lon="15.26045460570422"><ele>1192.0</ele><time>2026-04-28T15:36:08Z</time></trkpt><trkpt lat="38.02829026276891" lon="15.260414678667548"><ele>1186.0</ele><time>2026-04-28T15:36:10Z</time></trkpt><trkpt lat="38.02819862958607" lon="15.260409626410778"><ele>1180.0</ele><time>2026-04-28T15:36:11Z</time></trkpt><trkpt lat="38.02811429787188" lon="15.260409691429036"><ele>1174.0</ele><time>2026-04-28T15:36:12Z</time></trkpt><trkpt lat="38.028034246838" lon="15.26038545726949"><ele>1174.0</ele><time>2026-04-28T15:36:13Z</time></trkpt><trkpt lat="38.02795677365319" lon="15.2603530195364"><ele>1174.0</ele><time>2026-04-28T15:36:14Z</time></trkpt><trkpt lat="38.02786184451866" lon="15.260327055779344"><ele>1174.0</ele><time>2026-04-28T15:36:15Z</time></trkpt><trkpt lat="38.02775583288695" lon="15.260305627110666"><ele>1174.0</ele><time>2026-04-28T15:36:16Z</time></trkpt><trkpt lat="38.02764980469036" lon="15.26027053678425"><ele>1174.0</ele><time>2026-04-28T15:36:17Z</time></trkpt><trkpt lat="38.02755862033371" lon="15.260237990098394"><ele>1175.8333333333333</ele><time>2026-04-28T15:36:18Z</time></trkpt><trkpt lat="38.02747064647127" lon="15.260224426459294"><ele>1177.6666666666665</ele><time>2026-04-28T15:36:19Z</time></trkpt><trkpt lat="38.027375386849826" lon="15.26023190968127"><ele>1179.5</ele><time>2026-04-28T15:36:20Z</time></trkpt><trkpt lat="38.02728334396151" lon="15.260249358048297"><ele>1181.3333333333333</ele><time>2026-04-28T15:36:21Z</time></trkpt><trkpt lat="38.02719985195359" lon="15.260245100530861"><ele>1183.1666666666667</ele><time>2026-04-28T15:36:22Z</time></trkpt><trkpt lat="38.0271185833388" lon="15.260216361686215"><ele>1185.0</ele><time>2026-04-28T15:36:23Z</time></trkpt><trkpt lat="38.02704087449785" lon="15.260178410017327"><ele>1185.0</ele><time>2026-04-28T15:36:24Z</time></trkpt><trkpt lat="38.026964636057016" lon="15.260153158804055"><ele>1185.0</ele><time>2026-04-28T15:36:25Z</time></trkpt><trkpt lat="38.02685619218363" lon="15.26017854954194"><ele>1185.0</ele><time>2026-04-28T15:36:27Z</time></trkpt><trkpt lat="38.0267409741318" lon="15.260220998696337"><ele>1185.0</ele><time>2026-04-28T15:36:29Z</time></trkpt><trkpt lat="38.02665199717845" lon="15.26021596397323"><ele>1185.0</ele><time>2026-04-28T15:36:31Z</time></trkpt><trkpt lat="38.026593763185716" lon="15.26015875143515"><ele>1187.0</ele><time>2026-04-28T15:36:33Z</time></trkpt><trkpt lat="38.02654998570642" lon="15.260079849691127"><ele>1189.0</ele><time>2026-04-28T15:36:36Z</time></trkpt><trkpt lat="38.02651179669512" lon="15.259961185513133"><ele>1191.0</ele><time>2026-04-28T15:36:39Z</time></trkpt><trkpt lat="38.02643715174816" lon="15.259921470918876"><ele>1193.0</ele><time>2026-04-28T15:36:41Z</time></trkpt><trkpt lat="38.02636478390632" lon="15.259914836834902"><ele>1195.0</ele><time>2026-04-28T15:36:42Z</time></trkpt><trkpt lat="38.02626904543848" lon="15.259866238816786"><ele>1197.0</ele><time>2026-04-28T15:36:44Z</time></trkpt><trkpt lat="38.026181572843775" lon="15.259718906935708"><ele>1191.6</ele><time>2026-04-28T15:36:46Z</time></trkpt><trkpt lat="38.026095637815295" lon="15.259628175485782"><ele>1186.2</ele><time>2026-04-28T15:36:47Z</time></trkpt><trkpt lat="38.02600931065439" lon="15.259549428186657"><ele>1180.8</ele><time>2026-04-28T15:36:48Z</time></trkpt><trkpt lat="38.025952981327315" lon="15.259485045667782"><ele>1175.4</ele><time>2026-04-28T15:36:49Z</time></trkpt><trkpt lat="38.02591365647386" lon="15.259401524386224"><ele>1170.0</ele><time>2026-04-28T15:36:51Z</time></trkpt><trkpt lat="38.025865423856715" lon="15.259246204496861"><ele>1169.1666666666667</ele><time>2026-04-28T15:36:53Z</time></trkpt><trkpt lat="38.02581009062653" lon="15.259160482740999"><ele>1168.3333333333333</ele><time>2026-04-28T15:36:54Z</time></trkpt><trkpt lat="38.0257437655403" lon="15.259087173116995"><ele>1167.5</ele><time>2026-04-28T15:36:55Z</time></trkpt><trkpt lat="38.025683637462826" lon="15.259012563349435"><ele>1166.6666666666665</ele><time>2026-04-28T15:36:56Z</time></trkpt><trkpt lat="38.02562931232486" lon="15.258928406329076"><ele>1165.8333333333333</ele><time>2026-04-28T15:36:57Z</time></trkpt><trkpt lat="38.025569982545" lon="15.25885133250788"><ele>1165.0</ele><time>2026-04-28T15:36:58Z</time></trkpt><trkpt lat="38.02551099043295" lon="15.258784098255084"><ele>1165.0</ele><time>2026-04-28T15:36:59Z</time></trkpt><trkpt lat="38.025462619320045" lon="15.258725680752033"><ele>1165.0</ele><time>2026-04-28T15:37:00Z</time></trkpt><trkpt lat="38.02538496776595" lon="15.258607789014972"><ele>1165.0</ele><time>2026-04-28T15:37:01.999Z</time></trkpt><trkpt lat="38.0253313003966" lon="15.258554018754898"><ele>1165.0</ele><time>2026-04-28T15:37:02.999Z</time></trkpt><trkpt lat="38.02527447454317" lon="15.258493932658581"><ele>1165.0</ele><time>2026-04-28T15:37:03.999Z</time></trkpt><trkpt lat="38.02522102538115" lon="15.258427288372767"><ele>1165.0</ele><time>2026-04-28T15:37:04.999Z</time></trkpt><trkpt lat="38.02516567497766" lon="15.25836987172221"><ele>1165.0</ele><time>2026-04-28T15:37:05.999Z</time></trkpt><trkpt lat="38.025041813768944" lon="15.25832546336703"><ele>1165.0</ele><time>2026-04-28T15:37:07.999Z</time></trkpt><trkpt lat="38.02494737014586" lon="15.258322564384073"><ele>1165.0</ele><time>2026-04-28T15:37:08.999Z</time></trkpt><trkpt lat="38.02487162108878" lon="15.258286789173583"><ele>1165.0</ele><time>2026-04-28T15:37:09.999Z</time></trkpt><trkpt lat="38.02481665759168" lon="15.258220606466086"><ele>1165.0</ele><time>2026-04-28T15:37:10.999Z</time></trkpt><trkpt lat="38.024767703335186" lon="15.258125992240295"><ele>1163.6</ele><time>2026-04-28T15:37:11.999Z</time></trkpt><trkpt lat="38.02471076460314" lon="15.258031652556992"><ele>1162.2</ele><time>2026-04-28T15:37:12.999Z</time></trkpt><trkpt lat="38.02464694348298" lon="15.257951611433828"><ele>1160.8</ele><time>2026-04-28T15:37:13.999Z</time></trkpt><trkpt lat="38.024586608707885" lon="15.257894630889751"><ele>1159.4</ele><time>2026-04-28T15:37:14.999Z</time></trkpt><trkpt lat="38.02451754108805" lon="15.25783034544846"><ele>1158.0</ele><time>2026-04-28T15:37:15.999Z</time></trkpt><trkpt lat="38.024424932697805" lon="15.257759283916192"><ele>1158.0</ele><time>2026-04-28T15:37:16.999Z</time></trkpt><trkpt lat="38.024325931022105" lon="15.257683439842113"><ele>1158.0</ele><time>2026-04-28T15:37:17.999Z</time></trkpt><trkpt lat="38.02424239062908" lon="15.257590780190236"><ele>1158.0</ele><time>2026-04-28T15:37:18.999Z</time></trkpt><trkpt lat="38.02415711772056" lon="15.257500094046364"><ele>1158.0</ele><time>2026-04-28T15:37:19.999Z</time></trkpt><trkpt lat="38.024075253737095" lon="15.257414963618048"><ele>1158.0</ele><time>2026-04-28T15:37:20.999Z</time></trkpt><trkpt lat="38.02398549098465" lon="15.257328067380358"><ele>1155.75</ele><time>2026-04-28T15:37:21.999Z</time></trkpt><trkpt lat="38.02389062151735" lon="15.257244824894808"><ele>1153.5</ele><time>2026-04-28T15:37:22.999Z</time></trkpt><trkpt lat="38.023795820208456" lon="15.257162478423362"><ele>1151.25</ele><time>2026-04-28T15:37:23.999Z</time></trkpt><trkpt lat="38.02369805704185" lon="15.257090708228757"><ele>1149.0</ele><time>2026-04-28T15:37:24.999Z</time></trkpt><trkpt lat="38.023602716522404" lon="15.257023518647399"><ele>1149.0</ele><time>2026-04-28T15:37:25.999Z</time></trkpt><trkpt lat="38.023522174148496" lon="15.256946921171073"><ele>1149.0</ele><time>2026-04-28T15:37:26.999Z</time></trkpt><trkpt lat="38.02346094240245" lon="15.256870804156515"><ele>1149.0</ele><time>2026-04-28T15:37:27.999Z</time></trkpt><trkpt lat="38.02340919072154" lon="15.256789213016265"><ele>1149.0</ele><time>2026-04-28T15:37:28.999Z</time></trkpt><trkpt lat="38.02338124349911" lon="15.256693359609951"><ele>1149.0</ele><time>2026-04-28T15:37:29.999Z</time></trkpt><trkpt lat="38.02336999778577" lon="15.256594240381549"><ele>1149.0</ele><time>2026-04-28T15:37:30.999Z</time></trkpt><trkpt lat="38.023368820722695" lon="15.25649355242059"><ele>1150.142857142857</ele><time>2026-04-28T15:37:31.999Z</time></trkpt><trkpt lat="38.02336766104902" lon="15.256389683012287"><ele>1151.2857142857142</ele><time>2026-04-28T15:37:33.001Z</time></trkpt><trkpt lat="38.02338209413679" lon="15.256290216193463"><ele>1152.4285714285713</ele><time>2026-04-28T15:37:34.001Z</time></trkpt><trkpt lat="38.02339143254246" lon="15.256203710359527"><ele>1153.5714285714284</ele><time>2026-04-28T15:37:35.001Z</time></trkpt><trkpt lat="38.023378931958604" lon="15.25612094107793"><ele>1154.7142857142856</ele><time>2026-04-28T15:37:36.001Z</time></trkpt><trkpt lat="38.02334294314776" lon="15.256049873816798"><ele>1155.857142857143</ele><time>2026-04-28T15:37:37.001Z</time></trkpt><trkpt lat="38.023294479029055" lon="15.255981288253865"><ele>1157.0</ele><time>2026-04-28T15:37:38.001Z</time></trkpt><trkpt lat="38.023226259456784" lon="15.2559149043081"><ele>1157.0</ele><time>2026-04-28T15:37:39.001Z</time></trkpt><trkpt lat="38.02314666020639" lon="15.255853055575257"><ele>1157.0</ele><time>2026-04-28T15:37:40.001Z</time></trkpt><trkpt lat="38.023057451013614" lon="15.255789364508553"><ele>1157.0</ele><time>2026-04-28T15:37:41.001Z</time></trkpt><trkpt lat="38.02298547827299" lon="15.255714406682971"><ele>1157.0</ele><time>2026-04-28T15:37:42.001Z</time></trkpt><trkpt lat="38.022930336494674" lon="15.255631096830301"><ele>1157.0</ele><time>2026-04-28T15:37:43.001Z</time></trkpt><trkpt lat="38.02288775149314" lon="15.255537575590646"><ele>1153.2</ele><time>2026-04-28T15:37:44.001Z</time></trkpt><trkpt lat="38.02285554447289" lon="15.255425000779585"><ele>1149.4</ele><time>2026-04-28T15:37:45.001Z</time></trkpt><trkpt lat="38.02281303645472" lon="15.25533153585854"><ele>1145.6</ele><time>2026-04-28T15:37:46.001Z</time></trkpt><trkpt lat="38.02274353626381" lon="15.255254103361219"><ele>1141.8</ele><time>2026-04-28T15:37:47.001Z</time></trkpt><trkpt lat="38.022656572901894" lon="15.255185901777175"><ele>1138.0</ele><time>2026-04-28T15:37:48.001Z</time></trkpt><trkpt lat="38.022568319348146" lon="15.25512467459109"><ele>1138.0</ele><time>2026-04-28T15:37:49Z</time></trkpt><trkpt lat="38.02250177780307" lon="15.255050350342099"><ele>1138.0</ele><time>2026-04-28T15:37:50Z</time></trkpt><trkpt lat="38.02245985882175" lon="15.25495206889839"><ele>1138.0</ele><time>2026-04-28T15:37:51Z</time></trkpt><trkpt lat="38.02240934549427" lon="15.254831148005076"><ele>1138.0</ele><time>2026-04-28T15:37:52Z</time></trkpt><trkpt lat="38.02235048316278" lon="15.254731236649697"><ele>1138.0</ele><time>2026-04-28T15:37:53Z</time></trkpt><trkpt lat="38.0223058937349" lon="15.254655069431008"><ele>1138.8333333333333</ele><time>2026-04-28T15:37:54Z</time></trkpt><trkpt lat="38.022257765037594" lon="15.254593910061843"><ele>1139.6666666666665</ele><time>2026-04-28T15:37:55Z</time></trkpt><trkpt lat="38.02215649457806" lon="15.254516612391237"><ele>1140.5</ele><time>2026-04-28T15:37:57Z</time></trkpt><trkpt lat="38.022078642041464" lon="15.254482196237323"><ele>1141.3333333333333</ele><time>2026-04-28T15:37:58Z</time></trkpt><trkpt lat="38.02200137246135" lon="15.25442101544318"><ele>1142.1666666666667</ele><time>2026-04-28T15:37:59Z</time></trkpt><trkpt lat="38.02193164440485" lon="15.254352006726203"><ele>1143.0</ele><time>2026-04-28T15:38:00Z</time></trkpt><trkpt lat="38.021852755618674" lon="15.25430888675897"><ele>1143.0</ele><time>2026-04-28T15:38:01Z</time></trkpt><trkpt lat="38.02175798822256" lon="15.254280549508168"><ele>1143.0</ele><time>2026-04-28T15:38:02Z</time></trkpt><trkpt lat="38.021690061808755" lon="15.254258518238572"><ele>1143.0</ele><time>2026-04-28T15:38:03Z</time></trkpt><trkpt lat="38.02161803742781" lon="15.254141049531016"><ele>1143.0</ele><time>2026-04-28T15:38:05Z</time></trkpt><trkpt lat="38.02159075013657" lon="15.254040562411413"><ele>1143.0</ele><time>2026-04-28T15:38:06Z</time></trkpt><trkpt lat="38.021546607389695" lon="15.253939752690421"><ele>1141.1666666666667</ele><time>2026-04-28T15:38:07Z</time></trkpt><trkpt lat="38.02150967916651" lon="15.253852093602912"><ele>1139.3333333333333</ele><time>2026-04-28T15:38:08Z</time></trkpt><trkpt lat="38.021474887484" lon="15.25377921097288"><ele>1137.5</ele><time>2026-04-28T15:38:09Z</time></trkpt><trkpt lat="38.02141204910152" lon="15.25367963092998"><ele>1135.6666666666665</ele><time>2026-04-28T15:38:11Z</time></trkpt><trkpt lat="38.02135407400534" lon="15.25364712425095"><ele>1133.8333333333333</ele><time>2026-04-28T15:38:12Z</time></trkpt><trkpt lat="38.02127954021417" lon="15.25364516288698"><ele>1132.0</ele><time>2026-04-28T15:38:13Z</time></trkpt><trkpt lat="38.021209115995056" lon="15.253654120220645"><ele>1132.0</ele><time>2026-04-28T15:38:14Z</time></trkpt><trkpt lat="38.02111750894283" lon="15.253561210908295"><ele>1132.0</ele><time>2026-04-28T15:38:16Z</time></trkpt><trkpt lat="38.02108053887101" lon="15.253487444104195"><ele>1132.0</ele><time>2026-04-28T15:38:17Z</time></trkpt><trkpt lat="38.02096863086623" lon="15.253438172879962"><ele>1132.0</ele><time>2026-04-28T15:38:19Z</time></trkpt><trkpt lat="38.02089040917439" lon="15.253427758932109"><ele>1132.0</ele><time>2026-04-28T15:38:20Z</time></trkpt><trkpt lat="38.02082418505541" lon="15.253375481547401"><ele>1133.4</ele><time>2026-04-28T15:38:21Z</time></trkpt><trkpt lat="38.02076793846528" lon="15.25328203661349"><ele>1134.8000000000002</ele><time>2026-04-28T15:38:22Z</time></trkpt><trkpt lat="38.02071885294867" lon="15.253198309588884"><ele>1136.2</ele><time>2026-04-28T15:38:23Z</time></trkpt><trkpt lat="38.020654485053726" lon="15.253154160163108"><ele>1137.6000000000001</ele><time>2026-04-28T15:38:24Z</time></trkpt><trkpt lat="38.020583794053465" lon="15.25312921928969"><ele>1139.0</ele><time>2026-04-28T15:38:25Z</time></trkpt><trkpt lat="38.020515644780545" lon="15.252983645221791"><ele>1135.2</ele><time>2026-04-28T15:38:27Z</time></trkpt><trkpt lat="38.020498073362816" lon="15.252875958604013"><ele>1131.4</ele><time>2026-04-28T15:38:28Z</time></trkpt><trkpt lat="38.02045235107614" lon="15.25277370934499"><ele>1127.6</ele><time>2026-04-28T15:38:29Z</time></trkpt><trkpt lat="38.02036530610398" lon="15.25268028874078"><ele>1123.8</ele><time>2026-04-28T15:38:30Z</time></trkpt><trkpt lat="38.020274879058604" lon="15.252600660693087"><ele>1120.0</ele><time>2026-04-28T15:38:31Z</time></trkpt><trkpt lat="38.02020200908401" lon="15.252527549426125"><ele>1120.0</ele><time>2026-04-28T15:38:32Z</time></trkpt><trkpt lat="38.02014560827014" lon="15.252447680420378"><ele>1120.0</ele><time>2026-04-28T15:38:33Z</time></trkpt><trkpt lat="38.02008840935654" lon="15.25236366796132"><ele>1120.0</ele><time>2026-04-28T15:38:34Z</time></trkpt><trkpt lat="38.02003126433828" lon="15.252295255687166"><ele>1120.0</ele><time>2026-04-28T15:38:35Z</time></trkpt><trkpt lat="38.01997073264854" lon="15.252247939282451"><ele>1120.0</ele><time>2026-04-28T15:38:36Z</time></trkpt><trkpt lat="38.019894091168794" lon="15.252224545877416"><ele>1120.0</ele><time>2026-04-28T15:38:37Z</time></trkpt><trkpt lat="38.01979940858244" lon="15.252216079739389"><ele>1115.8</ele><time>2026-04-28T15:38:38Z</time></trkpt><trkpt lat="38.01970859208014" lon="15.252212198882303"><ele>1111.6</ele><time>2026-04-28T15:38:39Z</time></trkpt><trkpt lat="38.01961881610997" lon="15.252232470755786"><ele>1107.4</ele><time>2026-04-28T15:38:41Z</time></trkpt><trkpt lat="38.01958416875468" lon="15.252359842761827"><ele>1103.2</ele><time>2026-04-28T15:38:43Z</time></trkpt><trkpt lat="38.01959785252206" lon="15.252459397035672"><ele>1099.0</ele><time>2026-04-28T15:38:44Z</time></trkpt><trkpt lat="38.019619972473784" lon="15.252567427079141"><ele>1099.0</ele><time>2026-04-28T15:38:45Z</time></trkpt><trkpt lat="38.01963601869019" lon="15.252677668077903"><ele>1099.0</ele><time>2026-04-28T15:38:46Z</time></trkpt><trkpt lat="38.01966187311497" lon="15.252802287663792"><ele>1099.0</ele><time>2026-04-28T15:38:47Z</time></trkpt><trkpt lat="38.01968243356486" lon="15.252892910003796"><ele>1099.0</ele><time>2026-04-28T15:38:48Z</time></trkpt><trkpt lat="38.01966969543115" lon="15.253059000981489"><ele>1099.0</ele><time>2026-04-28T15:38:50Z</time></trkpt><trkpt lat="38.01962967156056" lon="15.253160588869614"><ele>1099.6666666666665</ele><time>2026-04-28T15:38:51Z</time></trkpt><trkpt lat="38.01956478072984" lon="15.253236647544801"><ele>1100.3333333333333</ele><time>2026-04-28T15:38:52Z</time></trkpt><trkpt lat="38.0195107264875" lon="15.253315217353009"><ele>1101.0</ele><time>2026-04-28T15:38:53Z</time></trkpt><trkpt lat="38.019476902052425" lon="15.253465192313827"><ele>1101.6666666666667</ele><time>2026-04-28T15:38:55Z</time></trkpt><trkpt lat="38.01947271715875" lon="15.25355401761652"><ele>1102.3333333333335</ele><time>2026-04-28T15:38:56Z</time></trkpt><trkpt lat="38.019440411062064" lon="15.253637395046503"><ele>1103.0</ele><time>2026-04-28T15:38:57Z</time></trkpt><trkpt lat="38.01938784005007" lon="15.253699823972116"><ele>1103.0</ele><time>2026-04-28T15:38:58Z</time></trkpt><trkpt lat="38.019288132764565" lon="15.253805006972005"><ele>1103.0</ele><time>2026-04-28T15:39:00Z</time></trkpt><trkpt lat="38.01920278172687" lon="15.253916327924859"><ele>1103.0</ele><time>2026-04-28T15:39:02Z</time></trkpt><trkpt lat="38.01915819726916" lon="15.253974899099212"><ele>1103.0</ele><time>2026-04-28T15:39:03Z</time></trkpt><trkpt lat="38.01912332685843" lon="15.254041995285565"><ele>1103.0</ele><time>2026-04-28T15:39:04Z</time></trkpt><trkpt lat="38.01910011875851" lon="15.254134762918383"><ele>1103.0</ele><time>2026-04-28T15:39:05.999Z</time></trkpt><trkpt lat="38.01903525445416" lon="15.254147019467037"><ele>1103.0</ele><time>2026-04-28T15:39:10.999Z</time></trkpt><trkpt lat="38.01903880638892" lon="15.254047233283194"><ele>1103.0</ele><time>2026-04-28T15:39:12.999Z</time></trkpt><trkpt lat="38.01908595933705" lon="15.253932597016226"><ele>1103.0</ele><time>2026-04-28T15:39:14.999Z</time></trkpt><trkpt lat="38.01912106710598" lon="15.253864871796194"><ele>1103.0</ele><time>2026-04-28T15:39:15.999Z</time></trkpt><trkpt lat="38.01916239908437" lon="15.253782308615857"><ele>1103.0</ele><time>2026-04-28T15:39:16.999Z</time></trkpt><trkpt lat="38.019209219555634" lon="15.253698535463469"><ele>1103.0</ele><time>2026-04-28T15:39:17.999Z</time></trkpt><trkpt lat="38.01925195004676" lon="15.253614993303037"><ele>1103.0</ele><time>2026-04-28T15:39:18.999Z</time></trkpt><trkpt lat="38.01928180498149" lon="15.253522725446503"><ele>1103.0</ele><time>2026-04-28T15:39:19.999Z</time></trkpt><trkpt lat="38.01929071489806" lon="15.253415299196183"><ele>1103.0</ele><time>2026-04-28T15:39:20.999Z</time></trkpt><trkpt lat="38.01928909964385" lon="15.253297362197218"><ele>1103.0</ele><time>2026-04-28T15:39:21.999Z</time></trkpt><trkpt lat="38.01928787677543" lon="15.25319936444887"><ele>1103.0</ele><time>2026-04-28T15:39:22.999Z</time></trkpt><trkpt lat="38.01933502525623" lon="15.253044946668584"><ele>1102.3333333333335</ele><time>2026-04-28T15:39:24.999Z</time></trkpt><trkpt lat="38.019365753646255" lon="15.252959303111346"><ele>1101.6666666666667</ele><time>2026-04-28T15:39:25.999Z</time></trkpt><trkpt lat="38.01937591756169" lon="15.252865744372455"><ele>1101.0</ele><time>2026-04-28T15:39:26.999Z</time></trkpt><trkpt lat="38.019335788102104" lon="15.252767592053285"><ele>1100.3333333333333</ele><time>2026-04-28T15:39:27.999Z</time></trkpt><trkpt lat="38.01928253842985" lon="15.252675247759626"><ele>1099.6666666666665</ele><time>2026-04-28T15:39:28.999Z</time></trkpt><trkpt lat="38.019228317320625" lon="15.252597385141344"><ele>1099.0</ele><time>2026-04-28T15:39:29.999Z</time></trkpt><trkpt lat="38.01917681018489" lon="15.252541286377426"><ele>1093.6666666666665</ele><time>2026-04-28T15:39:30.999Z</time></trkpt><trkpt lat="38.01911409721702" lon="15.25248784446481"><ele>1088.3333333333333</ele><time>2026-04-28T15:39:31.999Z</time></trkpt><trkpt lat="38.01904969782292" lon="15.252426988345293"><ele>1083.0</ele><time>2026-04-28T15:39:32.999Z</time></trkpt><trkpt lat="38.01900845090355" lon="15.252343417230913"><ele>1077.6666666666667</ele><time>2026-04-28T15:39:33.999Z</time></trkpt><trkpt lat="38.01897867619903" lon="15.25223922999028"><ele>1072.3333333333335</ele><time>2026-04-28T15:39:34.999Z</time></trkpt><trkpt lat="38.018958973241745" lon="15.252121143273435"><ele>1067.0</ele><time>2026-04-28T15:39:35.999Z</time></trkpt><trkpt lat="38.01893966892401" lon="15.251996808248936"><ele>1067.0</ele><time>2026-04-28T15:39:36.999Z</time></trkpt><trkpt lat="38.01891200525244" lon="15.251870328316807"><ele>1067.0</ele><time>2026-04-28T15:39:37.999Z</time></trkpt><trkpt lat="38.018885602193485" lon="15.251750144151286"><ele>1067.0</ele><time>2026-04-28T15:39:39.001Z</time></trkpt><trkpt lat="38.0188715090924" lon="15.251644298941033"><ele>1067.0</ele><time>2026-04-28T15:39:40.001Z</time></trkpt><trkpt lat="38.01884274546465" lon="15.251551745117222"><ele>1067.0</ele><time>2026-04-28T15:39:41.001Z</time></trkpt><trkpt lat="38.018795160994316" lon="15.251464916419485"><ele>1067.0</ele><time>2026-04-28T15:39:42.001Z</time></trkpt><trkpt lat="38.01872530895713" lon="15.251391042445752"><ele>1070.4</ele><time>2026-04-28T15:39:43.001Z</time></trkpt><trkpt lat="38.01864640859891" lon="15.251315461745266"><ele>1073.8000000000002</ele><time>2026-04-28T15:39:44.001Z</time></trkpt><trkpt lat="38.01856993714388" lon="15.251214448720065"><ele>1077.2</ele><time>2026-04-28T15:39:45.001Z</time></trkpt><trkpt lat="38.01849643654134" lon="15.251117473218633"><ele>1080.6000000000001</ele><time>2026-04-28T15:39:46.001Z</time></trkpt><trkpt lat="38.01842297246303" lon="15.251016641946588"><ele>1084.0</ele><time>2026-04-28T15:39:47.001Z</time></trkpt><trkpt lat="38.01834219702357" lon="15.250932720969153"><ele>1082.2</ele><time>2026-04-28T15:39:48.001Z</time></trkpt><trkpt lat="38.01826844200345" lon="15.250846243767015"><ele>1080.4</ele><time>2026-04-28T15:39:49.001Z</time></trkpt><trkpt lat="38.01819557059216" lon="15.250752590365352"><ele>1078.6</ele><time>2026-04-28T15:39:50.001Z</time></trkpt><trkpt lat="38.01815024327224" lon="15.250677970994046"><ele>1076.8</ele><time>2026-04-28T15:39:51.001Z</time></trkpt><trkpt lat="38.01810031137011" lon="15.250598643141174"><ele>1075.0</ele><time>2026-04-28T15:39:52.001Z</time></trkpt><trkpt lat="38.018046069607834" lon="15.250492150961632"><ele>1075.0</ele><time>2026-04-28T15:39:53.001Z</time></trkpt><trkpt lat="38.01801168800254" lon="15.250337929619242"><ele>1075.0</ele><time>2026-04-28T15:39:54.001Z</time></trkpt><trkpt lat="38.017978078041615" lon="15.250177239614471"><ele>1075.0</ele><time>2026-04-28T15:39:55.001Z</time></trkpt><trkpt lat="38.017930826489554" lon="15.25004829659356"><ele>1075.0</ele><time>2026-04-28T15:39:56Z</time></trkpt><trkpt lat="38.01786774849963" lon="15.249940677153857"><ele>1075.0</ele><time>2026-04-28T15:39:57Z</time></trkpt><trkpt lat="38.01780037030913" lon="15.24985977573128"><ele>1075.0</ele><time>2026-04-28T15:39:58Z</time></trkpt><trkpt lat="38.017739793700095" lon="15.24980823085145"><ele>1075.0</ele><time>2026-04-28T15:39:59Z</time></trkpt><trkpt lat="38.01764012213656" lon="15.249777370379832"><ele>1075.0</ele><time>2026-04-28T15:40:01Z</time></trkpt><trkpt lat="38.017574596228584" lon="15.249775706126286"><ele>1075.0</ele><time>2026-04-28T15:40:04Z</time></trkpt><trkpt lat="38.01744227359438" lon="15.249728851752275"><ele>1075.8333333333333</ele><time>2026-04-28T15:40:06Z</time></trkpt><trkpt lat="38.01734726336931" lon="15.249706248422303"><ele>1076.6666666666665</ele><time>2026-04-28T15:40:07Z</time></trkpt><trkpt lat="38.01725354978888" lon="15.249716644520783"><ele>1077.5</ele><time>2026-04-28T15:40:08Z</time></trkpt><trkpt lat="38.01717737991664" lon="15.249755693979647"><ele>1078.3333333333333</ele><time>2026-04-28T15:40:09Z</time></trkpt><trkpt lat="38.01710990949725" lon="15.249779826031844"><ele>1079.1666666666667</ele><time>2026-04-28T15:40:10Z</time></trkpt><trkpt lat="38.01704272691598" lon="15.249790775959823"><ele>1080.0</ele><time>2026-04-28T15:40:11Z</time></trkpt><trkpt lat="38.016974995164844" lon="15.249785159821831"><ele>1080.0</ele><time>2026-04-28T15:40:12Z</time></trkpt><trkpt lat="38.016894591807485" lon="15.249751262241906"><ele>1080.0</ele><time>2026-04-28T15:40:13Z</time></trkpt><trkpt lat="38.01679483896907" lon="15.249719544132127"><ele>1080.0</ele><time>2026-04-28T15:40:14Z</time></trkpt><trkpt lat="38.01668157323957" lon="15.249694167955937"><ele>1080.0</ele><time>2026-04-28T15:40:15Z</time></trkpt><trkpt lat="38.016578317452336" lon="15.249684903951717"><ele>1080.0</ele><time>2026-04-28T15:40:16Z</time></trkpt><trkpt lat="38.01651381511005" lon="15.249690084971261"><ele>1075.8333333333333</ele><time>2026-04-28T15:40:17Z</time></trkpt><trkpt lat="38.01643569004801" lon="15.249700984417359"><ele>1071.6666666666667</ele><time>2026-04-28T15:40:18Z</time></trkpt><trkpt lat="38.01636565880193" lon="15.249667473912812"><ele>1067.5</ele><time>2026-04-28T15:40:19Z</time></trkpt><trkpt lat="38.01629542124294" lon="15.249598955985409"><ele>1063.3333333333335</ele><time>2026-04-28T15:40:20Z</time></trkpt><trkpt lat="38.0162297563974" lon="15.249503996196662"><ele>1059.1666666666667</ele><time>2026-04-28T15:40:21Z</time></trkpt><trkpt lat="38.0161583671839" lon="15.249406441408546"><ele>1055.0</ele><time>2026-04-28T15:40:22Z</time></trkpt><trkpt lat="38.01607419147653" lon="15.249328076431338"><ele>1055.0</ele><time>2026-04-28T15:40:23Z</time></trkpt><trkpt lat="38.01598968732886" lon="15.24926443839452"><ele>1055.0</ele><time>2026-04-28T15:40:24Z</time></trkpt><trkpt lat="38.01592013868107" lon="15.249207204388837"><ele>1055.0</ele><time>2026-04-28T15:40:25Z</time></trkpt><trkpt lat="38.015858467437596" lon="15.249153678489499"><ele>1055.0</ele><time>2026-04-28T15:40:26Z</time></trkpt><trkpt lat="38.015801186900276" lon="15.249101104342582"><ele>1055.0</ele><time>2026-04-28T15:40:27Z</time></trkpt><trkpt lat="38.01572904707179" lon="15.248970412494305"><ele>1055.8333333333335</ele><time>2026-04-28T15:40:29Z</time></trkpt><trkpt lat="38.01567889029287" lon="15.248894714614735"><ele>1056.6666666666667</ele><time>2026-04-28T15:40:30Z</time></trkpt><trkpt lat="38.015627300032" lon="15.248830859582148"><ele>1057.5</ele><time>2026-04-28T15:40:31Z</time></trkpt><trkpt lat="38.01556493300837" lon="15.24878921918042"><ele>1058.3333333333333</ele><time>2026-04-28T15:40:32Z</time></trkpt><trkpt lat="38.01547504345571" lon="15.248777133301026"><ele>1059.1666666666665</ele><time>2026-04-28T15:40:33Z</time></trkpt><trkpt lat="38.01537978521192" lon="15.248765463247505"><ele>1060.0</ele><time>2026-04-28T15:40:34Z</time></trkpt><trkpt lat="38.01528980987917" lon="15.24874556164987"><ele>1060.0</ele><time>2026-04-28T15:40:35Z</time></trkpt><trkpt lat="38.01519751319454" lon="15.24871763879985"><ele>1060.0</ele><time>2026-04-28T15:40:36Z</time></trkpt><trkpt lat="38.0151104509739" lon="15.24866956513359"><ele>1060.0</ele><time>2026-04-28T15:40:37Z</time></trkpt><trkpt lat="38.01501310311688" lon="15.24863872061873"><ele>1060.0</ele><time>2026-04-28T15:40:38Z</time></trkpt><trkpt lat="38.014917475375555" lon="15.248637499693611"><ele>1060.0</ele><time>2026-04-28T15:40:39Z</time></trkpt><trkpt lat="38.01481377894066" lon="15.248640160031686"><ele>1057.6666666666665</ele><time>2026-04-28T15:40:40Z</time></trkpt><trkpt lat="38.01472024826677" lon="15.24863964120322"><ele>1055.3333333333333</ele><time>2026-04-28T15:40:41Z</time></trkpt><trkpt lat="38.01463544539309" lon="15.248605189795846"><ele>1053.0</ele><time>2026-04-28T15:40:42Z</time></trkpt><trkpt lat="38.01454906862274" lon="15.248563256380054"><ele>1050.6666666666667</ele><time>2026-04-28T15:40:43Z</time></trkpt><trkpt lat="38.01448729345685" lon="15.248527527764166"><ele>1048.3333333333335</ele><time>2026-04-28T15:40:44Z</time></trkpt><trkpt lat="38.014410620817635" lon="15.248523018927477"><ele>1046.0</ele><time>2026-04-28T15:40:47Z</time></trkpt><trkpt lat="38.01438215609686" lon="15.248622403792254"><ele>1046.0</ele><time>2026-04-28T15:40:49Z</time></trkpt><trkpt lat="38.01443202224811" lon="15.248690265277402"><ele>1046.0</ele><time>2026-04-28T15:40:50Z</time></trkpt><trkpt lat="38.01449270983662" lon="15.248737085103253"><ele>1046.0</ele><time>2026-04-28T15:40:51Z</time></trkpt><trkpt lat="38.014609701624806" lon="15.248812740365297"><ele>1046.0</ele><time>2026-04-28T15:40:53Z</time></trkpt><trkpt lat="38.01467380926518" lon="15.248861568147628"><ele>1046.0</ele><time>2026-04-28T15:40:54Z</time></trkpt><trkpt lat="38.01471541184492" lon="15.248933178159287"><ele>1046.0</ele><time>2026-04-28T15:40:55Z</time></trkpt><trkpt lat="38.01475445295876" lon="15.24902931688069"><ele>1043.2857142857142</ele><time>2026-04-28T15:40:56Z</time></trkpt><trkpt lat="38.01479729656269" lon="15.249109192129987"><ele>1040.5714285714284</ele><time>2026-04-28T15:40:57Z</time></trkpt><trkpt lat="38.014841357147915" lon="15.249168808318567"><ele>1037.857142857143</ele><time>2026-04-28T15:40:58Z</time></trkpt><trkpt lat="38.01490935904836" lon="15.249202281475304"><ele>1035.142857142857</ele><time>2026-04-28T15:40:59Z</time></trkpt><trkpt lat="38.0149724044232" lon="15.24920108808799"><ele>1032.4285714285716</ele><time>2026-04-28T15:41:00Z</time></trkpt><trkpt lat="38.015035634187434" lon="15.249178895720398"><ele>1029.7142857142858</ele><time>2026-04-28T15:41:01Z</time></trkpt><trkpt lat="38.01510819093295" lon="15.24914999338159"><ele>1027.0</ele><time>2026-04-28T15:41:02Z</time></trkpt><trkpt lat="38.015186831411604" lon="15.249133986998036"><ele>1027.0</ele><time>2026-04-28T15:41:03Z</time></trkpt><trkpt lat="38.01525215156705" lon="15.24919135240022"><ele>1027.0</ele><time>2026-04-28T15:41:04Z</time></trkpt><trkpt lat="38.01531209361804" lon="15.249236594262353"><ele>1027.0</ele><time>2026-04-28T15:41:06Z</time></trkpt><trkpt lat="38.015260342188135" lon="15.249313833768252"><ele>1027.0</ele><time>2026-04-28T15:41:09Z</time></trkpt><trkpt lat="38.01519134020732" lon="15.249291923404739"><ele>1027.0</ele><time>2026-04-28T15:41:10Z</time></trkpt><trkpt lat="38.01511635461791" lon="15.249293794783497"><ele>1027.0</ele><time>2026-04-28T15:41:10.999Z</time></trkpt><trkpt lat="38.01498038611377" lon="15.24941709677039"><ele>1026.0</ele><time>2026-04-28T15:41:12.999Z</time></trkpt><trkpt lat="38.01489267300586" lon="15.249447282876849"><ele>1025.0</ele><time>2026-04-28T15:41:13.999Z</time></trkpt><trkpt lat="38.01479655050172" lon="15.249448418162919"><ele>1024.0</ele><time>2026-04-28T15:41:14.999Z</time></trkpt><trkpt lat="38.01472837981703" lon="15.249433987056056"><ele>1023.0</ele><time>2026-04-28T15:41:15.999Z</time></trkpt><trkpt lat="38.01465035085906" lon="15.249351635880307"><ele>1022.0</ele><time>2026-04-28T15:41:17.999Z</time></trkpt><trkpt lat="38.014612179204846" lon="15.249188817684233"><ele>1022.0</ele><time>2026-04-28T15:41:19.999Z</time></trkpt><trkpt lat="38.0145195518886" lon="15.249080954812795"><ele>1022.0</ele><time>2026-04-28T15:41:21.999Z</time></trkpt><trkpt lat="38.01444042993436" lon="15.249072788714395"><ele>1022.0</ele><time>2026-04-28T15:41:22.999Z</time></trkpt><trkpt lat="38.01437309174892" lon="15.249068805165432"><ele>1022.0</ele><time>2026-04-28T15:41:23.999Z</time></trkpt><trkpt lat="38.014278042409316" lon="15.24895695375566"><ele>1022.0</ele><time>2026-04-28T15:41:25.999Z</time></trkpt><trkpt lat="38.01424450482819" lon="15.248878957288355"><ele>1026.0</ele><time>2026-04-28T15:41:26.999Z</time></trkpt><trkpt lat="38.014170031189714" lon="15.24882422354079"><ele>1030.0</ele><time>2026-04-28T15:41:28.999Z</time></trkpt><trkpt lat="38.014115686363006" lon="15.24887414426414"><ele>1034.0</ele><time>2026-04-28T15:41:29.999Z</time></trkpt><trkpt lat="38.01407122217524" lon="15.24894403490084"><ele>1038.0</ele><time>2026-04-28T15:41:30.999Z</time></trkpt><trkpt lat="38.01402946154316" lon="15.249027628848534"><ele>1042.0</ele><time>2026-04-28T15:41:31.999Z</time></trkpt><trkpt lat="38.0140164437481" lon="15.249165169691576"><ele>1046.0</ele><time>2026-04-28T15:41:32.999Z</time></trkpt><trkpt lat="38.0140027226484" lon="15.2492896130958"><ele>1043.3999999999999</ele><time>2026-04-28T15:41:33.999Z</time></trkpt><trkpt lat="38.01399404226772" lon="15.24940626254275"><ele>1040.8</ele><time>2026-04-28T15:41:34.999Z</time></trkpt><trkpt lat="38.013947963744535" lon="15.249503016515936"><ele>1038.1999999999998</ele><time>2026-04-28T15:41:35.999Z</time></trkpt><trkpt lat="38.01389453494684" lon="15.249647296882525"><ele>1035.6</ele><time>2026-04-28T15:41:36.999Z</time></trkpt><trkpt lat="38.01386078786938" lon="15.249793044646456"><ele>1033.0</ele><time>2026-04-28T15:41:37.999Z</time></trkpt><trkpt lat="38.01384363059203" lon="15.249914240965053"><ele>1033.0</ele><time>2026-04-28T15:41:38.999Z</time></trkpt><trkpt lat="38.01383203180512" lon="15.25000877787283"><ele>1033.0</ele><time>2026-04-28T15:41:39.999Z</time></trkpt><trkpt lat="38.01379852496152" lon="15.250132054132923"><ele>1033.0</ele><time>2026-04-28T15:41:41.999Z</time></trkpt><trkpt lat="38.013740895944764" lon="15.25018296209443"><ele>1033.0</ele><time>2026-04-28T15:41:42.999Z</time></trkpt><trkpt lat="38.01366816002004" lon="15.250219252905794"><ele>1033.0</ele><time>2026-04-28T15:41:43.999Z</time></trkpt><trkpt lat="38.013586287474816" lon="15.25027108809332"><ele>1033.0</ele><time>2026-04-28T15:41:45.001Z</time></trkpt><trkpt lat="38.01354504177268" lon="15.25035298327662"><ele>1033.0</ele><time>2026-04-28T15:41:46.001Z</time></trkpt><trkpt lat="38.01352959072872" lon="15.25044396425736"><ele>1033.0</ele><time>2026-04-28T15:41:47.001Z</time></trkpt><trkpt lat="38.01351239032807" lon="15.250543028275292"><ele>1033.0</ele><time>2026-04-28T15:41:48.001Z</time></trkpt><trkpt lat="38.01345875809428" lon="15.250622569790728"><ele>1033.0</ele><time>2026-04-28T15:41:49.001Z</time></trkpt><trkpt lat="38.01335343932934" lon="15.25071710443289"><ele>1033.0</ele><time>2026-04-28T15:41:50.001Z</time></trkpt><trkpt lat="38.01324925347637" lon="15.250846571006113"><ele>1032.1666666666665</ele><time>2026-04-28T15:41:51.001Z</time></trkpt><trkpt lat="38.01317581231395" lon="15.250950917612021"><ele>1031.3333333333333</ele><time>2026-04-28T15:41:52.001Z</time></trkpt><trkpt lat="38.01314749683964" lon="15.251061541878823"><ele>1030.5</ele><time>2026-04-28T15:41:53.001Z</time></trkpt><trkpt lat="38.01313396918071" lon="15.251140876006366"><ele>1029.6666666666667</ele><time>2026-04-28T15:41:54.001Z</time></trkpt><trkpt lat="38.01309309949672" lon="15.251207419953543"><ele>1028.8333333333335</ele><time>2026-04-28T15:41:55.001Z</time></trkpt><trkpt lat="38.01302511176492" lon="15.251256220826345"><ele>1028.0</ele><time>2026-04-28T15:41:56.001Z</time></trkpt><trkpt lat="38.01292767495262" lon="15.251310460526549"><ele>1028.0</ele><time>2026-04-28T15:41:57.001Z</time></trkpt><trkpt lat="38.01281650414873" lon="15.251372246673473"><ele>1028.0</ele><time>2026-04-28T15:41:58.001Z</time></trkpt><trkpt lat="38.01270452878013" lon="15.25142305274071"><ele>1028.0</ele><time>2026-04-28T15:41:59.001Z</time></trkpt><trkpt lat="38.01261543405596" lon="15.251480774885676"><ele>1028.0</ele><time>2026-04-28T15:42:00Z</time></trkpt><trkpt lat="38.01252113343096" lon="15.251532794315814"><ele>1028.0</ele><time>2026-04-28T15:42:01Z</time></trkpt><trkpt lat="38.01243125601217" lon="15.251610244806194"><ele>1023.8</ele><time>2026-04-28T15:42:02Z</time></trkpt><trkpt lat="38.01234875033634" lon="15.25170857329693"><ele>1019.5999999999999</ele><time>2026-04-28T15:42:03Z</time></trkpt><trkpt lat="38.012277733412915" lon="15.251805590208814"><ele>1015.4000000000001</ele><time>2026-04-28T15:42:04Z</time></trkpt><trkpt lat="38.01220143143889" lon="15.251855828400071"><ele>1011.2</ele><time>2026-04-28T15:42:05Z</time></trkpt><trkpt lat="38.01213657278675" lon="15.251913917312262"><ele>1007.0</ele><time>2026-04-28T15:42:06Z</time></trkpt><trkpt lat="38.01199213130022" lon="15.251996086377194"><ele>1007.0</ele><time>2026-04-28T15:42:08Z</time></trkpt><trkpt lat="38.01187443585903" lon="15.252096398917628"><ele>1007.0</ele><time>2026-04-28T15:42:09Z</time></trkpt><trkpt lat="38.01179551398223" lon="15.252152286095642"><ele>1007.0</ele><time>2026-04-28T15:42:10Z</time></trkpt><trkpt lat="38.01170599590772" lon="15.252156657432764"><ele>1007.0</ele><time>2026-04-28T15:42:12Z</time></trkpt><trkpt lat="38.01164281765403" lon="15.252156961687477"><ele>1007.0</ele><time>2026-04-28T15:42:15Z</time></trkpt><trkpt lat="38.01155923029182" lon="15.252184672302914"><ele>1004.0000000000001</ele><time>2026-04-28T15:42:18Z</time></trkpt><trkpt lat="38.01148288781985" lon="15.252220636128104"><ele>1001.0</ele><time>2026-04-28T15:42:20Z</time></trkpt><trkpt lat="38.01136982468223" lon="15.252206305807052"><ele>998.0</ele><time>2026-04-28T15:42:22Z</time></trkpt><trkpt lat="38.011326066852334" lon="15.25213849352067"><ele>995.0</ele><time>2026-04-28T15:42:23Z</time></trkpt><trkpt lat="38.01122944370841" lon="15.252093529306773"><ele>992.0000000000001</ele><time>2026-04-28T15:42:25Z</time></trkpt><trkpt lat="38.01116761542937" lon="15.252153754208944"><ele>989.0</ele><time>2026-04-28T15:42:26Z</time></trkpt><trkpt lat="38.0111260541009" lon="15.252223911406732"><ele>991.8000000000001</ele><time>2026-04-28T15:42:27Z</time></trkpt><trkpt lat="38.01108640916319" lon="15.252346238181385"><ele>994.6000000000001</ele><time>2026-04-28T15:42:28Z</time></trkpt><trkpt lat="38.01105422996063" lon="15.252455095962477"><ele>997.4</ele><time>2026-04-28T15:42:29Z</time></trkpt><trkpt lat="38.01101655174607" lon="15.252566471850468"><ele>1000.2</ele><time>2026-04-28T15:42:30Z</time></trkpt><trkpt lat="38.01097788943608" lon="15.252698807192324"><ele>1003.0</ele><time>2026-04-28T15:42:31Z</time></trkpt><trkpt lat="38.01092879932198" lon="15.252810874324139"><ele>1003.0</ele><time>2026-04-28T15:42:32Z</time></trkpt><trkpt lat="38.01085235585389" lon="15.252908245518189"><ele>1003.0</ele><time>2026-04-28T15:42:33Z</time></trkpt><trkpt lat="38.01078198798594" lon="15.253021928443898"><ele>1003.0</ele><time>2026-04-28T15:42:34Z</time></trkpt><trkpt lat="38.010723036647626" lon="15.25313813537717"><ele>1003.0</ele><time>2026-04-28T15:42:35Z</time></trkpt><trkpt lat="38.010644241420906" lon="15.253246605513082"><ele>1003.0</ele><time>2026-04-28T15:42:36Z</time></trkpt><trkpt lat="38.01057396305168" lon="15.253338722964154"><ele>999.9999999999999</ele><time>2026-04-28T15:42:37Z</time></trkpt><trkpt lat="38.01052530654477" lon="15.253433394867056"><ele>997.0</ele><time>2026-04-28T15:42:38Z</time></trkpt><trkpt lat="38.010464299531435" lon="15.253517916814781"><ele>994.0</ele><time>2026-04-28T15:42:39Z</time></trkpt><trkpt lat="38.010424376043204" lon="15.253595593365795"><ele>991.0</ele><time>2026-04-28T15:42:40Z</time></trkpt><trkpt lat="38.01033088587616" lon="15.253632392358705"><ele>987.9999999999999</ele><time>2026-04-28T15:42:42Z</time></trkpt><trkpt lat="38.010266470055456" lon="15.253579863562615"><ele>985.0</ele><time>2026-04-28T15:42:43Z</time></trkpt><trkpt lat="38.01017641898352" lon="15.253492017936"><ele>985.0</ele><time>2026-04-28T15:42:44Z</time></trkpt><trkpt lat="38.010112499995046" lon="15.253442183764784"><ele>985.0</ele><time>2026-04-28T15:42:45Z</time></trkpt><trkpt lat="38.01005260155174" lon="15.253326939605754"><ele>985.0</ele><time>2026-04-28T15:42:47Z</time></trkpt><trkpt lat="38.01013693661006" lon="15.253062985134726"><ele>985.0</ele><time>2026-04-28T15:42:48Z</time></trkpt><trkpt lat="38.01019564465056" lon="15.252979661804781"><ele>981.75</ele><time>2026-04-28T15:42:49Z</time></trkpt><trkpt lat="38.010296183202364" lon="15.252979302857916"><ele>978.5</ele><time>2026-04-28T15:42:50Z</time></trkpt><trkpt lat="38.01041539498811" lon="15.252860881019474"><ele>975.25</ele><time>2026-04-28T15:42:51Z</time></trkpt><trkpt lat="38.010490710228105" lon="15.252734885459406"><ele>972.0</ele><time>2026-04-28T15:42:52Z</time></trkpt><trkpt lat="38.010547069399806" lon="15.252618465971132"><ele>972.0</ele><time>2026-04-28T15:42:53Z</time></trkpt><trkpt lat="38.01060857713627" lon="15.252485517600718"><ele>972.0</ele><time>2026-04-28T15:42:54Z</time></trkpt><trkpt lat="38.01062878039305" lon="15.252380320202382"><ele>972.0</ele><time>2026-04-28T15:42:55Z</time></trkpt><trkpt lat="38.01060139070287" lon="15.25225051446536"><ele>972.0</ele><time>2026-04-28T15:42:57Z</time></trkpt><trkpt lat="38.010525138156176" lon="15.2522571541912"><ele>972.0</ele><time>2026-04-28T15:42:59Z</time></trkpt><trkpt lat="38.01049857430746" lon="15.252334324057243"><ele>972.0</ele><time>2026-04-28T15:43:01Z</time></trkpt><trkpt lat="38.01049948512842" lon="15.252460980566761"><ele>972.0</ele><time>2026-04-28T15:43:02Z</time></trkpt><trkpt lat="38.01046297710415" lon="15.25253825364039"><ele>972.0</ele><time>2026-04-28T15:43:03Z</time></trkpt><trkpt lat="38.010409428683616" lon="15.252604354981747"><ele>972.0</ele><time>2026-04-28T15:43:04Z</time></trkpt><trkpt lat="38.01033034224251" lon="15.252661916283555"><ele>972.0</ele><time>2026-04-28T15:43:05Z</time></trkpt><trkpt lat="38.01024154791031" lon="15.25269510839996"><ele>972.0</ele><time>2026-04-28T15:43:06Z</time></trkpt><trkpt lat="38.010104560260345" lon="15.252669324031883"><ele>972.0</ele><time>2026-04-28T15:43:07Z</time></trkpt><trkpt lat="38.01003938243748" lon="15.25269121706016"><ele>972.0</ele><time>2026-04-28T15:43:08Z</time></trkpt><trkpt lat="38.00998694062253" lon="15.252744571097631"><ele>972.0</ele><time>2026-04-28T15:43:09Z</time></trkpt><trkpt lat="38.00990549819301" lon="15.252922706728135"><ele>972.0</ele><time>2026-04-28T15:43:11Z</time></trkpt><trkpt lat="38.009860081990425" lon="15.253118255580414"><ele>964.5</ele><time>2026-04-28T15:43:12Z</time></trkpt><trkpt lat="38.00982279221369" lon="15.25326750964507"><ele>957.0</ele><time>2026-04-28T15:43:13Z</time></trkpt><trkpt lat="38.009785384049245" lon="15.25341151388287"><ele>949.5</ele><time>2026-04-28T15:43:14Z</time></trkpt><trkpt lat="38.00975968437778" lon="15.253553906213499"><ele>942.0</ele><time>2026-04-28T15:43:15Z</time></trkpt><trkpt lat="38.00974541499796" lon="15.253677203591595"><ele>942.0</ele><time>2026-04-28T15:43:15.999Z</time></trkpt><trkpt lat="38.009734720274736" lon="15.253787483936073"><ele>942.0</ele><time>2026-04-28T15:43:16.999Z</time></trkpt><trkpt lat="38.009726345634995" lon="15.253908241488466"><ele>942.0</ele><time>2026-04-28T15:43:17.999Z</time></trkpt><trkpt lat="38.009729903245734" lon="15.254013411372394"><ele>942.0</ele><time>2026-04-28T15:43:18.999Z</time></trkpt><trkpt lat="38.009757041869484" lon="15.25409951796572"><ele>942.0</ele><time>2026-04-28T15:43:19.999Z</time></trkpt><trkpt lat="38.00979392988572" lon="15.254166858919351"><ele>942.0</ele><time>2026-04-28T15:43:20.999Z</time></trkpt><trkpt lat="38.009781867795034" lon="15.254245940302615"><ele>942.0</ele><time>2026-04-28T15:43:22.999Z</time></trkpt><trkpt lat="38.00968714668687" lon="15.254217229549255"><ele>942.0</ele><time>2026-04-28T15:43:24.999Z</time></trkpt><trkpt lat="38.00963931699654" lon="15.2541228393022"><ele>942.0</ele><time>2026-04-28T15:43:25.999Z</time></trkpt><trkpt lat="38.009596121149" lon="15.254000863807798"><ele>942.0</ele><time>2026-04-28T15:43:26.999Z</time></trkpt><trkpt lat="38.00956330628341" lon="15.25387715546937"><ele>942.0</ele><time>2026-04-28T15:43:27.999Z</time></trkpt><trkpt lat="38.00953551356089" lon="15.253742498523406"><ele>942.0</ele><time>2026-04-28T15:43:28.999Z</time></trkpt><trkpt lat="38.00951575487879" lon="15.253603964314088"><ele>942.0</ele><time>2026-04-28T15:43:29.999Z</time></trkpt><trkpt lat="38.009513289245" lon="15.25345816583639"><ele>942.0</ele><time>2026-04-28T15:43:30.999Z</time></trkpt><trkpt lat="38.00951996423879" lon="15.253294536887015"><ele>942.0</ele><time>2026-04-28T15:43:31.999Z</time></trkpt><trkpt lat="38.0095214989191" lon="15.25313255017971"><ele>940.75</ele><time>2026-04-28T15:43:32.999Z</time></trkpt><trkpt lat="38.009520581143576" lon="15.253002109267625"><ele>939.5</ele><time>2026-04-28T15:43:33.999Z</time></trkpt><trkpt lat="38.00954267812573" lon="15.252871423055495"><ele>938.25</ele><time>2026-04-28T15:43:34.999Z</time></trkpt><trkpt lat="38.0095697775207" lon="15.252711450661227"><ele>937.0</ele><time>2026-04-28T15:43:35.999Z</time></trkpt><trkpt lat="38.00958360816778" lon="15.252549851426885"><ele>936.9999999999999</ele><time>2026-04-28T15:43:36.999Z</time></trkpt><trkpt lat="38.00958886861903" lon="15.252409754924887"><ele>937.0</ele><time>2026-04-28T15:43:37.999Z</time></trkpt><trkpt lat="38.00958316407584" lon="15.252285548289736"><ele>937.0</ele><time>2026-04-28T15:43:38.999Z</time></trkpt><trkpt lat="38.0095837581205" lon="15.25219305949507"><ele>937.0</ele><time>2026-04-28T15:43:39.999Z</time></trkpt><trkpt lat="38.00955474719124" lon="15.252117595053946"><ele>936.9999999999999</ele><time>2026-04-28T15:43:41.999Z</time></trkpt><trkpt lat="38.00947693690803" lon="15.252193362649479"><ele>937.0</ele><time>2026-04-28T15:43:43.999Z</time></trkpt><trkpt lat="38.0094515669849" lon="15.252317576115889"><ele>937.0</ele><time>2026-04-28T15:43:44.999Z</time></trkpt><trkpt lat="38.0094202392019" lon="15.252463573244968"><ele>937.0</ele><time>2026-04-28T15:43:45.999Z</time></trkpt><trkpt lat="38.00938352571441" lon="15.252579358707413"><ele>937.0</ele><time>2026-04-28T15:43:46.999Z</time></trkpt><trkpt lat="38.00934959400572" lon="15.252681045380339"><ele>937.0</ele><time>2026-04-28T15:43:47.999Z</time></trkpt><trkpt lat="38.00931568036703" lon="15.252800757474388"><ele>937.0</ele><time>2026-04-28T15:43:48.999Z</time></trkpt><trkpt lat="38.009276444850514" lon="15.25296503260878"><ele>938.25</ele><time>2026-04-28T15:43:49.999Z</time></trkpt><trkpt lat="38.009242260848865" lon="15.253158898086523"><ele>939.5</ele><time>2026-04-28T15:43:51.001Z</time></trkpt><trkpt lat="38.00921474641861" lon="15.253351458851126"><ele>940.75</ele><time>2026-04-28T15:43:52.001Z</time></trkpt><trkpt lat="38.00920114098315" lon="15.253513284150909"><ele>942.0</ele><time>2026-04-28T15:43:53.001Z</time></trkpt><trkpt lat="38.009186112044034" lon="15.253662735550616"><ele>936.2</ele><time>2026-04-28T15:43:54.001Z</time></trkpt><trkpt lat="38.009157127229905" lon="15.253799777310439"><ele>930.4000000000001</ele><time>2026-04-28T15:43:55.001Z</time></trkpt><trkpt lat="38.00910842667792" lon="15.253920927177457"><ele>924.5999999999999</ele><time>2026-04-28T15:43:56.001Z</time></trkpt><trkpt lat="38.00904629976916" lon="15.254012929408612"><ele>918.8</ele><time>2026-04-28T15:43:57.001Z</time></trkpt><trkpt lat="38.00897131633679" lon="15.254098345004095"><ele>913.0</ele><time>2026-04-28T15:43:58.001Z</time></trkpt><trkpt lat="38.00893730295292" lon="15.254177355842762"><ele>913.0</ele><time>2026-04-28T15:43:59.001Z</time></trkpt><trkpt lat="38.008896871607305" lon="15.254288822332198"><ele>913.0</ele><time>2026-04-28T15:44:00.001Z</time></trkpt><trkpt lat="38.00887242045898" lon="15.254411181037094"><ele>913.0</ele><time>2026-04-28T15:44:01.001Z</time></trkpt><trkpt lat="38.008828571516844" lon="15.25450519751994"><ele>913.0</ele><time>2026-04-28T15:44:02.001Z</time></trkpt><trkpt lat="38.008719318823886" lon="15.254544201519737"><ele>913.0</ele><time>2026-04-28T15:44:03.001Z</time></trkpt><trkpt lat="38.00858869846951" lon="15.254573577216313"><ele>913.0</ele><time>2026-04-28T15:44:04.001Z</time></trkpt><trkpt lat="38.00841064998043" lon="15.254641307075959"><ele>913.0</ele><time>2026-04-28T15:44:05.001Z</time></trkpt><trkpt lat="38.00828619564397" lon="15.254708498634264"><ele>913.0</ele><time>2026-04-28T15:44:06.001Z</time></trkpt><trkpt lat="38.00818008011051" lon="15.254760470349988"><ele>913.0</ele><time>2026-04-28T15:44:07Z</time></trkpt><trkpt lat="38.00807863944077" lon="15.254793660094963"><ele>910.4</ele><time>2026-04-28T15:44:08Z</time></trkpt><trkpt lat="38.007953953074505" lon="15.254813672003216"><ele>907.8</ele><time>2026-04-28T15:44:09Z</time></trkpt><trkpt lat="38.00783323714388" lon="15.254812082304683"><ele>905.2</ele><time>2026-04-28T15:44:10Z</time></trkpt><trkpt lat="38.00773328500857" lon="15.254828534129233"><ele>902.6</ele><time>2026-04-28T15:44:11Z</time></trkpt><trkpt lat="38.007669214383995" lon="15.254879021028744"><ele>900.0</ele><time>2026-04-28T15:44:13Z</time></trkpt><trkpt lat="38.007687822679344" lon="15.25497283254197"><ele>900.0</ele><time>2026-04-28T15:44:15Z</time></trkpt><trkpt lat="38.00781599515756" lon="15.255046190883908"><ele>900.0</ele><time>2026-04-28T15:44:16Z</time></trkpt><trkpt lat="38.00791644990925" lon="15.255065698333347"><ele>900.0</ele><time>2026-04-28T15:44:17Z</time></trkpt><trkpt lat="38.00803113339893" lon="15.255090788567067"><ele>900.0</ele><time>2026-04-28T15:44:18Z</time></trkpt><trkpt lat="38.008128000136004" lon="15.255072972556384"><ele>900.0</ele><time>2026-04-28T15:44:19Z</time></trkpt><trkpt lat="38.00822748947427" lon="15.255043656095657"><ele>900.0</ele><time>2026-04-28T15:44:20Z</time></trkpt><trkpt lat="38.00833774566138" lon="15.255013415113716"><ele>900.0</ele><time>2026-04-28T15:44:21Z</time></trkpt><trkpt lat="38.00844297734721" lon="15.254983301192645"><ele>900.0</ele><time>2026-04-28T15:44:22Z</time></trkpt><trkpt lat="38.00854675445903" lon="15.254965325916881"><ele>900.0</ele><time>2026-04-28T15:44:23Z</time></trkpt><trkpt lat="38.00864549200345" lon="15.25495485108015"><ele>902.25</ele><time>2026-04-28T15:44:24Z</time></trkpt><trkpt lat="38.00874412346639" lon="15.254971108033104"><ele>904.5</ele><time>2026-04-28T15:44:25Z</time></trkpt><trkpt lat="38.00885324944187" lon="15.255030079634468"><ele>906.75</ele><time>2026-04-28T15:44:26Z</time></trkpt><trkpt lat="38.008955172103626" lon="15.255097777350198"><ele>909.0</ele><time>2026-04-28T15:44:27Z</time></trkpt><trkpt lat="38.009062890958006" lon="15.25516580994829"><ele>909.0</ele><time>2026-04-28T15:44:28Z</time></trkpt><trkpt lat="38.00913748593378" lon="15.255288199822507"><ele>909.0000000000001</ele><time>2026-04-28T15:44:30Z</time></trkpt><trkpt lat="38.009246391362744" lon="15.255347145689532"><ele>909.0000000000001</ele><time>2026-04-28T15:44:31Z</time></trkpt><trkpt lat="38.00935062261661" lon="15.255340705873968"><ele>909.0</ele><time>2026-04-28T15:44:32Z</time></trkpt><trkpt lat="38.00943786689292" lon="15.255355277042089"><ele>909.0</ele><time>2026-04-28T15:44:33Z</time></trkpt><trkpt lat="38.00952143934229" lon="15.25540185549907"><ele>910.0</ele><time>2026-04-28T15:44:34Z</time></trkpt><trkpt lat="38.009603205397944" lon="15.255473884090685"><ele>911.0</ele><time>2026-04-28T15:44:35Z</time></trkpt><trkpt lat="38.00964612472415" lon="15.255554755164296"><ele>912.0</ele><time>2026-04-28T15:44:36Z</time></trkpt><trkpt lat="38.009717107367784" lon="15.255594624517226"><ele>913.0</ele><time>2026-04-28T15:44:37Z</time></trkpt><trkpt lat="38.009791267391314" lon="15.255629779919213"><ele>914.0</ele><time>2026-04-28T15:44:38Z</time></trkpt><trkpt lat="38.00989461642419" lon="15.255636984757352"><ele>915.0</ele><time>2026-04-28T15:44:39Z</time></trkpt><trkpt lat="38.01011091304393" lon="15.255727545426113"><ele>909.6</ele><time>2026-04-28T15:44:40Z</time></trkpt><trkpt lat="38.01020248124197" lon="15.255736984272659"><ele>904.2</ele><time>2026-04-28T15:44:41Z</time></trkpt><trkpt lat="38.01027254005355" lon="15.2558062898193"><ele>898.8</ele><time>2026-04-28T15:44:42Z</time></trkpt><trkpt lat="38.010351124310105" lon="15.255866570757783"><ele>893.4</ele><time>2026-04-28T15:44:43Z</time></trkpt><trkpt lat="38.010433392727435" lon="15.255932850367051"><ele>888.0</ele><time>2026-04-28T15:44:44Z</time></trkpt><trkpt lat="38.01053128510066" lon="15.25599737556108"><ele>888.0</ele><time>2026-04-28T15:44:45Z</time></trkpt><trkpt lat="38.01062715462288" lon="15.256067838711717"><ele>888.0</ele><time>2026-04-28T15:44:46Z</time></trkpt><trkpt lat="38.01072085009604" lon="15.256106576123264"><ele>888.0</ele><time>2026-04-28T15:44:47Z</time></trkpt><trkpt lat="38.010792478448394" lon="15.256125411474823"><ele>888.0</ele><time>2026-04-28T15:44:48Z</time></trkpt><trkpt lat="38.01085392963618" lon="15.256148645546528"><ele>888.0</ele><time>2026-04-28T15:44:50Z</time></trkpt><trkpt lat="38.01081443642214" lon="15.25625941827612"><ele>888.0</ele><time>2026-04-28T15:44:53Z</time></trkpt><trkpt lat="38.010745578977534" lon="15.256286466349362"><ele>888.0</ele><time>2026-04-28T15:44:54Z</time></trkpt><trkpt lat="38.01064036708755" lon="15.256287314357714"><ele>888.0</ele><time>2026-04-28T15:44:55Z</time></trkpt><trkpt lat="38.01050440867368" lon="15.25625001092072"><ele>888.0</ele><time>2026-04-28T15:44:56Z</time></trkpt><trkpt lat="38.01036371555344" lon="15.256211265969359"><ele>888.0</ele><time>2026-04-28T15:44:57Z</time></trkpt><trkpt lat="38.01020943176894" lon="15.256182962104052"><ele>888.0</ele><time>2026-04-28T15:44:58Z</time></trkpt><trkpt lat="38.01005791273164" lon="15.256180195599068"><ele>888.0</ele><time>2026-04-28T15:44:59Z</time></trkpt><trkpt lat="38.00976521105633" lon="15.256254293181195"><ele>886.4</ele><time>2026-04-28T15:45:00Z</time></trkpt><trkpt lat="38.00964311071324" lon="15.256269612193668"><ele>884.8</ele><time>2026-04-28T15:45:01Z</time></trkpt><trkpt lat="38.009544588801454" lon="15.256274638358972"><ele>883.2</ele><time>2026-04-28T15:45:02Z</time></trkpt><trkpt lat="38.00946871813356" lon="15.256276116902686"><ele>881.6</ele><time>2026-04-28T15:45:03Z</time></trkpt><trkpt lat="38.009386914104354" lon="15.256262015202484"><ele>880.0</ele><time>2026-04-28T15:45:04Z</time></trkpt><trkpt lat="38.009317512911714" lon="15.256219210295207"><ele>880.0</ele><time>2026-04-28T15:45:05Z</time></trkpt><trkpt lat="38.00925640673309" lon="15.25626840074543"><ele>880.0</ele><time>2026-04-28T15:45:07Z</time></trkpt><trkpt lat="38.00933520929248" lon="15.256428293745115"><ele>880.0</ele><time>2026-04-28T15:45:09Z</time></trkpt><trkpt lat="38.00944693865115" lon="15.256507602645417"><ele>880.0</ele><time>2026-04-28T15:45:10Z</time></trkpt><trkpt lat="38.00957857736286" lon="15.256570248490956"><ele>873.0</ele><time>2026-04-28T15:45:11Z</time></trkpt><trkpt lat="38.00968858573353" lon="15.256629735756041"><ele>866.0</ele><time>2026-04-28T15:45:12Z</time></trkpt><trkpt lat="38.00976826322217" lon="15.256679807984632"><ele>859.0</ele><time>2026-04-28T15:45:13Z</time></trkpt><trkpt lat="38.0098311065991" lon="15.25677104676015"><ele>852.0</ele><time>2026-04-28T15:45:14Z</time></trkpt><trkpt lat="38.00988110568966" lon="15.256896820015337"><ele>845.0</ele><time>2026-04-28T15:45:15Z</time></trkpt><trkpt lat="38.009913330435744" lon="15.257017599075807"><ele>845.0</ele><time>2026-04-28T15:45:16Z</time></trkpt><trkpt lat="38.00996114872663" lon="15.25710169624004"><ele>845.0</ele><time>2026-04-28T15:45:17Z</time></trkpt><trkpt lat="38.010048939441894" lon="15.257174123041368"><ele>845.0</ele><time>2026-04-28T15:45:18Z</time></trkpt><trkpt lat="38.01017147426593" lon="15.257241361552211"><ele>845.0</ele><time>2026-04-28T15:45:19Z</time></trkpt><trkpt lat="38.010284943835806" lon="15.257290382632585"><ele>845.0</ele><time>2026-04-28T15:45:20Z</time></trkpt><trkpt lat="38.01039953419106" lon="15.257357087444548"><ele>844.1666666666667</ele><time>2026-04-28T15:45:20.999Z</time></trkpt><trkpt lat="38.01049990266144" lon="15.257423485945232"><ele>843.3333333333334</ele><time>2026-04-28T15:45:21.999Z</time></trkpt><trkpt lat="38.01058005147045" lon="15.257480778902478"><ele>842.5</ele><time>2026-04-28T15:45:22.999Z</time></trkpt><trkpt lat="38.01065559848273" lon="15.257508384297452"><ele>841.6666666666667</ele><time>2026-04-28T15:45:23.999Z</time></trkpt><trkpt lat="38.0107242059254" lon="15.25751401299782"><ele>840.8333333333334</ele><time>2026-04-28T15:45:24.999Z</time></trkpt><trkpt lat="38.01080552623734" lon="15.257542150326325"><ele>840.0</ele><time>2026-04-28T15:45:26.999Z</time></trkpt><trkpt lat="38.010779873548664" lon="15.257707190908876"><ele>840.0</ele><time>2026-04-28T15:45:28.999Z</time></trkpt><trkpt lat="38.01070713170038" lon="15.257787462756067"><ele>840.0</ele><time>2026-04-28T15:45:29.999Z</time></trkpt><trkpt lat="38.010587847580965" lon="15.257842854131347"><ele>840.0</ele><time>2026-04-28T15:45:30.999Z</time></trkpt><trkpt lat="38.01048195506267" lon="15.25787099208857"><ele>840.0</ele><time>2026-04-28T15:45:31.999Z</time></trkpt><trkpt lat="38.01036835545523" lon="15.25786353161974"><ele>840.0</ele><time>2026-04-28T15:45:32.999Z</time></trkpt><trkpt lat="38.01023556294939" lon="15.25784606223473"><ele>840.0</ele><time>2026-04-28T15:45:33.999Z</time></trkpt><trkpt lat="38.0101161031588" lon="15.257828606176817"><ele>840.0</ele><time>2026-04-28T15:45:34.999Z</time></trkpt><trkpt lat="38.00999610308087" lon="15.257803392541598"><ele>840.0</ele><time>2026-04-28T15:45:35.999Z</time></trkpt><trkpt lat="38.0098583896496" lon="15.257740956730265"><ele>840.0</ele><time>2026-04-28T15:45:36.999Z</time></trkpt><trkpt lat="38.00974540343788" lon="15.257695393883235"><ele>836.6</ele><time>2026-04-28T15:45:37.999Z</time></trkpt><trkpt lat="38.00966011101046" lon="15.257652920316504"><ele>833.2</ele><time>2026-04-28T15:45:38.999Z</time></trkpt><trkpt lat="38.009575911001804" lon="15.257574246931213"><ele>829.8</ele><time>2026-04-28T15:45:39.999Z</time></trkpt><trkpt lat="38.009483601236084" lon="15.257493795552028"><ele>826.4</ele><time>2026-04-28T15:45:40.999Z</time></trkpt><trkpt lat="38.00938597840545" lon="15.257469207809526"><ele>823.0</ele><time>2026-04-28T15:45:41.999Z</time></trkpt><trkpt lat="38.00928554547576" lon="15.257496288406141"><ele>823.0</ele><time>2026-04-28T15:45:42.999Z</time></trkpt><trkpt lat="38.00917851244731" lon="15.257576988266376"><ele>823.0</ele><time>2026-04-28T15:45:43.999Z</time></trkpt><trkpt lat="38.00908109126824" lon="15.257676635644849"><ele>823.0</ele><time>2026-04-28T15:45:44.999Z</time></trkpt><trkpt lat="38.009007528623044" lon="15.257754910564566"><ele>823.0</ele><time>2026-04-28T15:45:45.999Z</time></trkpt><trkpt lat="38.00895144893408" lon="15.257797625444551"><ele>823.0</ele><time>2026-04-28T15:45:46.999Z</time></trkpt><trkpt lat="38.00887942478258" lon="15.257805160254717"><ele>819.75</ele><time>2026-04-28T15:45:47.999Z</time></trkpt><trkpt lat="38.00878226612715" lon="15.257753818974132"><ele>816.5</ele><time>2026-04-28T15:45:48.999Z</time></trkpt><trkpt lat="38.00868482815013" lon="15.25766500873946"><ele>813.25</ele><time>2026-04-28T15:45:49.999Z</time></trkpt><trkpt lat="38.00860791446577" lon="15.257559909620348"><ele>810.0</ele><time>2026-04-28T15:45:50.999Z</time></trkpt><trkpt lat="38.00854678207471" lon="15.25742770916849"><ele>810.0</ele><time>2026-04-28T15:45:51.999Z</time></trkpt><trkpt lat="38.008498070307624" lon="15.257319602982582"><ele>810.0</ele><time>2026-04-28T15:45:52.999Z</time></trkpt><trkpt lat="38.00844378463762" lon="15.257255794384008"><ele>810.0</ele><time>2026-04-28T15:45:53.999Z</time></trkpt><trkpt lat="38.008364297740435" lon="15.257243864130238"><ele>810.0</ele><time>2026-04-28T15:45:54.999Z</time></trkpt><trkpt lat="38.00827762419047" lon="15.257271710457614"><ele>810.0</ele><time>2026-04-28T15:45:55.999Z</time></trkpt><trkpt lat="38.00819318863914" lon="15.257328926577802"><ele>810.0</ele><time>2026-04-28T15:45:57.001Z</time></trkpt><trkpt lat="38.00811259925674" lon="15.257405669430069"><ele>807.5</ele><time>2026-04-28T15:45:58.001Z</time></trkpt><trkpt lat="38.008053082268695" lon="15.257467385609205"><ele>805.0</ele><time>2026-04-28T15:45:59.001Z</time></trkpt><trkpt lat="38.00798477686201" lon="15.257489629238709"><ele>802.5</ele><time>2026-04-28T15:46:00.001Z</time></trkpt><trkpt lat="38.007877781607654" lon="15.2574705968012"><ele>800.0</ele><time>2026-04-28T15:46:01.001Z</time></trkpt><trkpt lat="38.00779222151728" lon="15.257445654597364"><ele>797.5</ele><time>2026-04-28T15:46:02.001Z</time></trkpt><trkpt lat="38.00770437116399" lon="15.257400166904668"><ele>795.0</ele><time>2026-04-28T15:46:03.001Z</time></trkpt><trkpt lat="38.007592179245755" lon="15.257350319397792"><ele>792.75</ele><time>2026-04-28T15:46:04.001Z</time></trkpt><trkpt lat="38.00742910278161" lon="15.257303125469267"><ele>790.5</ele><time>2026-04-28T15:46:05.001Z</time></trkpt><trkpt lat="38.0072978662013" lon="15.257244733732259"><ele>788.25</ele><time>2026-04-28T15:46:06.001Z</time></trkpt><trkpt lat="38.007181787476725" lon="15.257194409137137"><ele>786.0</ele><time>2026-04-28T15:46:07.001Z</time></trkpt><trkpt lat="38.00708704108837" lon="15.257171900049599"><ele>786.0</ele><time>2026-04-28T15:46:08.001Z</time></trkpt><trkpt lat="38.006995864462915" lon="15.257177166519522"><ele>786.0</ele><time>2026-04-28T15:46:09.001Z</time></trkpt><trkpt lat="38.00687991343847" lon="15.25723412606878"><ele>786.0</ele><time>2026-04-28T15:46:10.001Z</time></trkpt><trkpt lat="38.00674481807557" lon="15.257302926686366"><ele>786.0</ele><time>2026-04-28T15:46:11.001Z</time></trkpt><trkpt lat="38.00661878852782" lon="15.257364226822085"><ele>786.25</ele><time>2026-04-28T15:46:12.001Z</time></trkpt><trkpt lat="38.00650103169231" lon="15.2574145404874"><ele>786.5</ele><time>2026-04-28T15:46:13Z</time></trkpt><trkpt lat="38.006390885128695" lon="15.257458978700654"><ele>786.75</ele><time>2026-04-28T15:46:14Z</time></trkpt><trkpt lat="38.00628690359431" lon="15.25749556598146"><ele>787.0</ele><time>2026-04-28T15:46:15Z</time></trkpt><trkpt lat="38.00616630127975" lon="15.257520648519659"><ele>787.0</ele><time>2026-04-28T15:46:16Z</time></trkpt><trkpt lat="38.00604593884266" lon="15.257529850887728"><ele>787.0</ele><time>2026-04-28T15:46:17Z</time></trkpt><trkpt lat="38.00592705055269" lon="15.257551718554415"><ele>787.0</ele><time>2026-04-28T15:46:18Z</time></trkpt><trkpt lat="38.005827622893" lon="15.257596731473672"><ele>787.0</ele><time>2026-04-28T15:46:19Z</time></trkpt><trkpt lat="38.00573841871673" lon="15.257657188106807"><ele>787.0</ele><time>2026-04-28T15:46:20Z</time></trkpt><trkpt lat="38.00565944125107" lon="15.257703053664487"><ele>786.5</ele><time>2026-04-28T15:46:21Z</time></trkpt><trkpt lat="38.00557313028548" lon="15.257696058859493"><ele>786.0</ele><time>2026-04-28T15:46:22Z</time></trkpt><trkpt lat="38.00544594266308" lon="15.257651245555005"><ele>785.5</ele><time>2026-04-28T15:46:23Z</time></trkpt><trkpt lat="38.00530230129347" lon="15.25761406771387"><ele>785.0</ele><time>2026-04-28T15:46:24Z</time></trkpt><trkpt lat="38.00516827037052" lon="15.257602165800098"><ele>785.0</ele><time>2026-04-28T15:46:25Z</time></trkpt><trkpt lat="38.00504225121063" lon="15.257614900839016"><ele>785.0</ele><time>2026-04-28T15:46:26Z</time></trkpt><trkpt lat="38.004921762629" lon="15.25763792077901"><ele>785.0</ele><time>2026-04-28T15:46:27Z</time></trkpt><trkpt lat="38.00480864423121" lon="15.257650842328202"><ele>785.0</ele><time>2026-04-28T15:46:28Z</time></trkpt><trkpt lat="38.00472131590528" lon="15.257664397353462"><ele>785.2</ele><time>2026-04-28T15:46:29Z</time></trkpt><trkpt lat="38.0046558934749" lon="15.257702708806901"><ele>785.4</ele><time>2026-04-28T15:46:30Z</time></trkpt><trkpt lat="38.00458378929754" lon="15.25779773310352"><ele>785.5999999999999</ele><time>2026-04-28T15:46:31Z</time></trkpt><trkpt lat="38.00449811364327" lon="15.257917504144848"><ele>785.8</ele><time>2026-04-28T15:46:32Z</time></trkpt><trkpt lat="38.00441093349869" lon="15.258003273563846"><ele>786.0</ele><time>2026-04-28T15:46:33Z</time></trkpt><trkpt lat="38.00431790872278" lon="15.25807583025086"><ele>779.0</ele><time>2026-04-28T15:46:34Z</time></trkpt><trkpt lat="38.00423297112532" lon="15.258122846395844"><ele>772.0</ele><time>2026-04-28T15:46:35Z</time></trkpt><trkpt lat="38.00412000450735" lon="15.258147974088518"><ele>765.0</ele><time>2026-04-28T15:46:36Z</time></trkpt><trkpt lat="38.00399780954625" lon="15.258177527162557"><ele>758.0</ele><time>2026-04-28T15:46:37Z</time></trkpt><trkpt lat="38.00387952584735" lon="15.25820364834657"><ele>756.0</ele><time>2026-04-28T15:46:38Z</time></trkpt><trkpt lat="38.003747591791885" lon="15.258207378982217"><ele>754.0</ele><time>2026-04-28T15:46:39Z</time></trkpt><trkpt lat="38.00361518076202" lon="15.258224835614303"><ele>752.0</ele><time>2026-04-28T15:46:40Z</time></trkpt><trkpt lat="38.003498274406766" lon="15.258250321477712"><ele>750.0</ele><time>2026-04-28T15:46:41Z</time></trkpt><trkpt lat="38.00339494593396" lon="15.258263742559492"><ele>749.75</ele><time>2026-04-28T15:46:42Z</time></trkpt><trkpt lat="38.003279935234985" lon="15.258234362359383"><ele>749.5</ele><time>2026-04-28T15:46:43Z</time></trkpt><trkpt lat="38.0031499756902" lon="15.258183570267073"><ele>749.25</ele><time>2026-04-28T15:46:44Z</time></trkpt><trkpt lat="38.003014913112466" lon="15.258159313254545"><ele>749.0</ele><time>2026-04-28T15:46:45Z</time></trkpt><trkpt lat="38.00287449855235" lon="15.258181018479611"><ele>749.0</ele><time>2026-04-28T15:46:46Z</time></trkpt><trkpt lat="38.00272104105638" lon="15.258200941663631"><ele>749.0</ele><time>2026-04-28T15:46:47Z</time></trkpt><trkpt lat="38.002582489750594" lon="15.25821636946428"><ele>749.0</ele><time>2026-04-28T15:46:48Z</time></trkpt><trkpt lat="38.00245984124556" lon="15.258226950355553"><ele>749.0</ele><time>2026-04-28T15:46:49Z</time></trkpt><trkpt lat="38.00234827955338" lon="15.258247562931112"><ele>748.5</ele><time>2026-04-28T15:46:50Z</time></trkpt><trkpt lat="38.00223765184126" lon="15.258295969763202"><ele>748.0</ele><time>2026-04-28T15:46:51Z</time></trkpt><trkpt lat="38.00212874277458" lon="15.258385115421973"><ele>747.5</ele><time>2026-04-28T15:46:52Z</time></trkpt><trkpt lat="38.00200987741933" lon="15.258464690841171"><ele>747.0</ele><time>2026-04-28T15:46:53Z</time></trkpt><trkpt lat="38.001889067668436" lon="15.258503250496574"><ele>747.0</ele><time>2026-04-28T15:46:54Z</time></trkpt><trkpt lat="38.001762947929535" lon="15.258535263972421"><ele>747.0</ele><time>2026-04-28T15:46:55Z</time></trkpt><trkpt lat="38.00165473954207" lon="15.258607246300649"><ele>747.0</ele><time>2026-04-28T15:46:56Z</time></trkpt><trkpt lat="38.00156229377845" lon="15.25869156494733"><ele>747.0</ele><time>2026-04-28T15:46:57Z</time></trkpt><trkpt lat="38.00148696346326" lon="15.258753504427897"><ele>745.4000000000001</ele><time>2026-04-28T15:46:58Z</time></trkpt><trkpt lat="38.00141780732126" lon="15.258788254530417"><ele>743.8000000000001</ele><time>2026-04-28T15:46:59Z</time></trkpt><trkpt lat="38.001342723691565" lon="15.258779515124655"><ele>742.2</ele><time>2026-04-28T15:47:00Z</time></trkpt><trkpt lat="38.0012367627878" lon="15.25872834877271"><ele>740.6</ele><time>2026-04-28T15:47:01Z</time></trkpt><trkpt lat="38.001110420286444" lon="15.25864092712031"><ele>739.0</ele><time>2026-04-28T15:47:02Z</time></trkpt><trkpt lat="38.00098226936062" lon="15.258541381183644"><ele>739.0</ele><time>2026-04-28T15:47:03Z</time></trkpt><trkpt lat="38.00085218802489" lon="15.258457304718554"><ele>739.0</ele><time>2026-04-28T15:47:04Z</time></trkpt><trkpt lat="38.000728811269056" lon="15.258393855807006"><ele>739.0</ele><time>2026-04-28T15:47:05Z</time></trkpt><trkpt lat="38.000608894781124" lon="15.25834714381491"><ele>739.0</ele><time>2026-04-28T15:47:06Z</time></trkpt><trkpt lat="38.00049021133726" lon="15.258308520107075"><ele>735.75</ele><time>2026-04-28T15:47:07Z</time></trkpt><trkpt lat="38.000368754994305" lon="15.25828750942765"><ele>732.5</ele><time>2026-04-28T15:47:08Z</time></trkpt><trkpt lat="38.000244801254084" lon="15.25828124994649"><ele>729.25</ele><time>2026-04-28T15:47:09Z</time></trkpt><trkpt lat="38.00012035414024" lon="15.25829805119361"><ele>726.0</ele><time>2026-04-28T15:47:10Z</time></trkpt><trkpt lat="37.999987009623304" lon="15.258336575787524"><ele>726.0</ele><time>2026-04-28T15:47:11Z</time></trkpt><trkpt lat="37.999860865472016" lon="15.258373258851973"><ele>726.0</ele><time>2026-04-28T15:47:12Z</time></trkpt><trkpt lat="37.99973180531652" lon="15.258386435975952"><ele>726.0</ele><time>2026-04-28T15:47:13Z</time></trkpt><trkpt lat="37.999580106738044" lon="15.258409488133818"><ele>726.0</ele><time>2026-04-28T15:47:14Z</time></trkpt><trkpt lat="37.99942629044564" lon="15.258450183185827"><ele>726.0</ele><time>2026-04-28T15:47:15Z</time></trkpt><trkpt lat="37.999289146525115" lon="15.258506744953586"><ele>726.0</ele><time>2026-04-28T15:47:16Z</time></trkpt><trkpt lat="37.99916434612957" lon="15.258584810093312"><ele>726.0</ele><time>2026-04-28T15:47:17Z</time></trkpt><trkpt lat="37.99904951642994" lon="15.258684677187363"><ele>726.0</ele><time>2026-04-28T15:47:18Z</time></trkpt><trkpt lat="37.99895240980542" lon="15.258810530170436"><ele>725.5999999999999</ele><time>2026-04-28T15:47:19Z</time></trkpt><trkpt lat="37.99885929651667" lon="15.258937250185367"><ele>725.2</ele><time>2026-04-28T15:47:20Z</time></trkpt><trkpt lat="37.998782446768615" lon="15.259020220544363"><ele>724.8</ele><time>2026-04-28T15:47:21Z</time></trkpt><trkpt lat="37.99871082867002" lon="15.259073339667538"><ele>724.4000000000001</ele><time>2026-04-28T15:47:22Z</time></trkpt><trkpt lat="37.99861089162489" lon="15.259100631050368"><ele>724.0</ele><time>2026-04-28T15:47:23Z</time></trkpt><trkpt lat="37.99848561015964" lon="15.259123890374283"><ele>721.0</ele><time>2026-04-28T15:47:24Z</time></trkpt><trkpt lat="37.99837740177889" lon="15.25918995882941"><ele>718.0</ele><time>2026-04-28T15:47:24.999Z</time></trkpt><trkpt lat="37.99828686542022" lon="15.259279052984851"><ele>715.0</ele><time>2026-04-28T15:47:25.999Z</time></trkpt><trkpt lat="37.99820937512627" lon="15.259335954879878"><ele>712.0</ele><time>2026-04-28T15:47:26.999Z</time></trkpt><trkpt lat="37.99813097667857" lon="15.259369926536127"><ele>709.0</ele><time>2026-04-28T15:47:27.999Z</time></trkpt><trkpt lat="37.998048359321615" lon="15.25936243855429"><ele>709.0</ele><time>2026-04-28T15:47:28.999Z</time></trkpt><trkpt lat="37.99793666664932" lon="15.259311676492725"><ele>709.0</ele><time>2026-04-28T15:47:29.999Z</time></trkpt><trkpt lat="37.997825488328665" lon="15.259285272044075"><ele>709.0</ele><time>2026-04-28T15:47:30.999Z</time></trkpt><trkpt lat="37.997725445669104" lon="15.259325238666086"><ele>709.0</ele><time>2026-04-28T15:47:31.999Z</time></trkpt><trkpt lat="37.99762556418968" lon="15.259409556168537"><ele>709.0</ele><time>2026-04-28T15:47:32.999Z</time></trkpt><trkpt lat="37.997519778838985" lon="15.259495602429944"><ele>709.0</ele><time>2026-04-28T15:47:33.999Z</time></trkpt><trkpt lat="37.99741483852971" lon="15.259569891704938"><ele>709.0</ele><time>2026-04-28T15:47:34.999Z</time></trkpt><trkpt lat="37.997312804281634" lon="15.259635987438273"><ele>709.0</ele><time>2026-04-28T15:47:35.999Z</time></trkpt><trkpt lat="37.997206492794284" lon="15.259729486992006"><ele>702.75</ele><time>2026-04-28T15:47:36.999Z</time></trkpt><trkpt lat="37.99710769552625" lon="15.25984364054084"><ele>696.5</ele><time>2026-04-28T15:47:37.999Z</time></trkpt><trkpt lat="37.997015681773895" lon="15.259967734581535"><ele>690.25</ele><time>2026-04-28T15:47:38.999Z</time></trkpt><trkpt lat="37.996910660640275" lon="15.260071223343527"><ele>684.0</ele><time>2026-04-28T15:47:39.999Z</time></trkpt><trkpt lat="37.99681154647532" lon="15.260162298160024"><ele>684.0</ele><time>2026-04-28T15:47:40.999Z</time></trkpt><trkpt lat="37.99670149031019" lon="15.260232451946425"><ele>684.0</ele><time>2026-04-28T15:47:41.999Z</time></trkpt><trkpt lat="37.996584344982374" lon="15.260313360413134"><ele>684.0</ele><time>2026-04-28T15:47:42.999Z</time></trkpt><trkpt lat="37.99647657126101" lon="15.260414220151807"><ele>684.0</ele><time>2026-04-28T15:47:43.999Z</time></trkpt><trkpt lat="37.996389077287574" lon="15.260532215836136"><ele>680.0</ele><time>2026-04-28T15:47:44.999Z</time></trkpt><trkpt lat="37.99630397667666" lon="15.26064375498801"><ele>676.0</ele><time>2026-04-28T15:47:45.999Z</time></trkpt><trkpt lat="37.99622216376857" lon="15.260752885581224"><ele>672.0</ele><time>2026-04-28T15:47:46.999Z</time></trkpt><trkpt lat="37.99616059547041" lon="15.260867710633278"><ele>668.0</ele><time>2026-04-28T15:47:47.999Z</time></trkpt><trkpt lat="37.996119800576146" lon="15.260998998686292"><ele>668.0</ele><time>2026-04-28T15:47:48.999Z</time></trkpt><trkpt lat="37.99608336301077" lon="15.261123197501211"><ele>668.0</ele><time>2026-04-28T15:47:49.999Z</time></trkpt><trkpt lat="37.99603650742467" lon="15.26121817462075"><ele>668.0</ele><time>2026-04-28T15:47:50.999Z</time></trkpt><trkpt lat="37.99595699637348" lon="15.261287851249163"><ele>668.0</ele><time>2026-04-28T15:47:51.999Z</time></trkpt><trkpt lat="37.99586060228307" lon="15.261359576570959"><ele>668.0</ele><time>2026-04-28T15:47:52.999Z</time></trkpt><trkpt lat="37.99578727853793" lon="15.261421776776393"><ele>666.8</ele><time>2026-04-28T15:47:53.999Z</time></trkpt><trkpt lat="37.995718571327075" lon="15.26145829585639"><ele>665.5999999999999</ele><time>2026-04-28T15:47:54.999Z</time></trkpt><trkpt lat="37.99561623061355" lon="15.261470821485558"><ele>664.4000000000001</ele><time>2026-04-28T15:47:55.999Z</time></trkpt><trkpt lat="37.99548444035225" lon="15.26146881131524"><ele>663.2</ele><time>2026-04-28T15:47:56.999Z</time></trkpt><trkpt lat="37.995369929537176" lon="15.261465320301047"><ele>662.0</ele><time>2026-04-28T15:47:57.999Z</time></trkpt><trkpt lat="37.995274515487495" lon="15.26145744719301"><ele>666.2</ele><time>2026-04-28T15:47:58.999Z</time></trkpt><trkpt lat="37.99518481963993" lon="15.261413310134056"><ele>670.4000000000001</ele><time>2026-04-28T15:47:59.999Z</time></trkpt><trkpt lat="37.99509229998396" lon="15.261355790354003"><ele>674.5999999999999</ele><time>2026-04-28T15:48:00.999Z</time></trkpt><trkpt lat="37.99500164479209" lon="15.261322556751196"><ele>678.8</ele><time>2026-04-28T15:48:01.999Z</time></trkpt><trkpt lat="37.99490363713869" lon="15.26132700689505"><ele>683.0</ele><time>2026-04-28T15:48:03.001Z</time></trkpt><trkpt lat="37.9947934219299" lon="15.261368044788476"><ele>677.5</ele><time>2026-04-28T15:48:04.001Z</time></trkpt><trkpt lat="37.99466594582474" lon="15.261453742275702"><ele>672.0</ele><time>2026-04-28T15:48:05.001Z</time></trkpt><trkpt lat="37.99454640283367" lon="15.261539260944124"><ele>666.5</ele><time>2026-04-28T15:48:06.001Z</time></trkpt><trkpt lat="37.99445098611749" lon="15.261608504729248"><ele>661.0</ele><time>2026-04-28T15:48:07.001Z</time></trkpt><trkpt lat="37.99434742631517" lon="15.261669152927682"><ele>661.0</ele><time>2026-04-28T15:48:08.001Z</time></trkpt><trkpt lat="37.99422101249775" lon="15.261712298140736"><ele>661.0</ele><time>2026-04-28T15:48:09.001Z</time></trkpt><trkpt lat="37.994101852034326" lon="15.261738675977199"><ele>661.0</ele><time>2026-04-28T15:48:10.001Z</time></trkpt><trkpt lat="37.99400291842087" lon="15.261758295745318"><ele>661.0</ele><time>2026-04-28T15:48:11.001Z</time></trkpt><trkpt lat="37.99392550926625" lon="15.261770301288315"><ele>661.0</ele><time>2026-04-28T15:48:12.001Z</time></trkpt><trkpt lat="37.99385759460608" lon="15.261749451498428"><ele>660.6666666666667</ele><time>2026-04-28T15:48:13.001Z</time></trkpt><trkpt lat="37.993791281575774" lon="15.261691071074436"><ele>660.3333333333334</ele><time>2026-04-28T15:48:14.001Z</time></trkpt><trkpt lat="37.99374581476502" lon="15.261597096340786"><ele>660.0</ele><time>2026-04-28T15:48:15.001Z</time></trkpt><trkpt lat="37.993706207090334" lon="15.261501655698806"><ele>659.6666666666666</ele><time>2026-04-28T15:48:16.001Z</time></trkpt><trkpt lat="37.993655733009554" lon="15.261440649301866"><ele>659.3333333333333</ele><time>2026-04-28T15:48:17Z</time></trkpt><trkpt lat="37.99358376960985" lon="15.261413807657608"><ele>659.0</ele><time>2026-04-28T15:48:18Z</time></trkpt><trkpt lat="37.993491919433716" lon="15.26139781831504"><ele>659.0</ele><time>2026-04-28T15:48:19Z</time></trkpt><trkpt lat="37.9934243780049" lon="15.261395878592468"><ele>659.0</ele><time>2026-04-28T15:48:20Z</time></trkpt><trkpt lat="37.99337594099614" lon="15.26148709900274"><ele>659.0</ele><time>2026-04-28T15:48:22Z</time></trkpt><trkpt lat="37.993380608950915" lon="15.261605804804262"><ele>659.0</ele><time>2026-04-28T15:48:23Z</time></trkpt><trkpt lat="37.99339299400467" lon="15.261744654145552"><ele>659.0</ele><time>2026-04-28T15:48:24Z</time></trkpt><trkpt lat="37.993406640725965" lon="15.261850017171561"><ele>659.0</ele><time>2026-04-28T15:48:25Z</time></trkpt><trkpt lat="37.993444747629944" lon="15.26191831866982"><ele>659.0</ele><time>2026-04-28T15:48:26Z</time></trkpt><trkpt lat="37.993518368066646" lon="15.261976685873702"><ele>659.0</ele><time>2026-04-28T15:48:27Z</time></trkpt><trkpt lat="37.99362277148393" lon="15.262021076235294"><ele>659.0</ele><time>2026-04-28T15:48:28Z</time></trkpt><trkpt lat="37.99374698525481" lon="15.26204527854184"><ele>659.0</ele><time>2026-04-28T15:48:29Z</time></trkpt><trkpt lat="37.9938845127136" lon="15.262064726155014"><ele>659.0</ele><time>2026-04-28T15:48:30Z</time></trkpt><trkpt lat="37.99401133858808" lon="15.262095002718134"><ele>659.0</ele><time>2026-04-28T15:48:31Z</time></trkpt><trkpt lat="37.994127258516976" lon="15.262116141095351"><ele>659.0</ele><time>2026-04-28T15:48:32Z</time></trkpt><trkpt lat="37.99423873071488" lon="15.262130748438377"><ele>659.0</ele><time>2026-04-28T15:48:33Z</time></trkpt><trkpt lat="37.994340965267696" lon="15.262136479557967"><ele>659.3333333333333</ele><time>2026-04-28T15:48:34Z</time></trkpt><trkpt lat="37.99441691267189" lon="15.262149734987794"><ele>659.6666666666666</ele><time>2026-04-28T15:48:35Z</time></trkpt><trkpt lat="37.994513687272956" lon="15.262163925590913"><ele>660.0</ele><time>2026-04-28T15:48:37Z</time></trkpt><trkpt lat="37.99455072843631" lon="15.2622339803022"><ele>660.3333333333334</ele><time>2026-04-28T15:48:39Z</time></trkpt><trkpt lat="37.9945071119047" lon="15.262315565702869"><ele>660.6666666666667</ele><time>2026-04-28T15:48:41Z</time></trkpt><trkpt lat="37.994439790602414" lon="15.262327238071096"><ele>661.0</ele><time>2026-04-28T15:48:42Z</time></trkpt><trkpt lat="37.99432490168677" lon="15.262305914184651"><ele>648.6666666666667</ele><time>2026-04-28T15:48:43Z</time></trkpt><trkpt lat="37.99416253292545" lon="15.262295827169412"><ele>636.3333333333334</ele><time>2026-04-28T15:48:44Z</time></trkpt><trkpt lat="37.993997941699206" lon="15.262318382610935"><ele>624.0</ele><time>2026-04-28T15:48:45Z</time></trkpt><trkpt lat="37.993842554625" lon="15.26232707223843"><ele>624.0</ele><time>2026-04-28T15:48:46Z</time></trkpt><trkpt lat="37.993695391742314" lon="15.262332588257514"><ele>624.0</ele><time>2026-04-28T15:48:47Z</time></trkpt><trkpt lat="37.99356433974151" lon="15.26232769535152"><ele>624.0</ele><time>2026-04-28T15:48:48Z</time></trkpt><trkpt lat="37.99344296836258" lon="15.262312119369161"><ele>624.0</ele><time>2026-04-28T15:48:49Z</time></trkpt><trkpt lat="37.993325837864084" lon="15.262286281614493"><ele>627.4</ele><time>2026-04-28T15:48:50Z</time></trkpt><trkpt lat="37.99321721154503" lon="15.262269169793369"><ele>630.8</ele><time>2026-04-28T15:48:51Z</time></trkpt><trkpt lat="37.99312948540165" lon="15.262267713952664"><ele>634.1999999999999</ele><time>2026-04-28T15:48:52Z</time></trkpt><trkpt lat="37.99304092260638" lon="15.262241845151205"><ele>637.5999999999999</ele><time>2026-04-28T15:48:54Z</time></trkpt><trkpt lat="37.99303976762421" lon="15.2620551237619"><ele>641.0</ele><time>2026-04-28T15:48:56Z</time></trkpt><trkpt lat="37.993021865126025" lon="15.261945485125176"><ele>641.0</ele><time>2026-04-28T15:48:57Z</time></trkpt><trkpt lat="37.99296311562868" lon="15.261870428456975"><ele>641.0</ele><time>2026-04-28T15:48:58Z</time></trkpt><trkpt lat="37.992882272570675" lon="15.261818427807214"><ele>641.0</ele><time>2026-04-28T15:48:59Z</time></trkpt><trkpt lat="37.99281897589965" lon="15.261748641216874"><ele>641.0</ele><time>2026-04-28T15:49:01Z</time></trkpt><trkpt lat="37.992879202091004" lon="15.261573188979057"><ele>641.0</ele><time>2026-04-28T15:49:03Z</time></trkpt><trkpt lat="37.992922719879516" lon="15.261465336260079"><ele>639.3333333333333</ele><time>2026-04-28T15:49:04Z</time></trkpt><trkpt lat="37.99291696737887" lon="15.261353112847345"><ele>637.6666666666666</ele><time>2026-04-28T15:49:05Z</time></trkpt><trkpt lat="37.992888180823456" lon="15.26124619292855"><ele>636.0</ele><time>2026-04-28T15:49:06Z</time></trkpt><trkpt lat="37.9928641078842" lon="15.261133242086336"><ele>634.3333333333334</ele><time>2026-04-28T15:49:07Z</time></trkpt><trkpt lat="37.99284186148304" lon="15.261028125408442"><ele>632.6666666666667</ele><time>2026-04-28T15:49:08Z</time></trkpt><trkpt lat="37.992825620271844" lon="15.260950925642092"><ele>631.0</ele><time>2026-04-28T15:49:09Z</time></trkpt><trkpt lat="37.992852973251736" lon="15.260796806952511"><ele>631.0</ele><time>2026-04-28T15:49:11Z</time></trkpt><trkpt lat="37.992918069716396" lon="15.260735145684986"><ele>631.0</ele><time>2026-04-28T15:49:12Z</time></trkpt><trkpt lat="37.99301398196682" lon="15.260692560997455"><ele>631.0</ele><time>2026-04-28T15:49:13Z</time></trkpt><trkpt lat="37.993136862880306" lon="15.260650922181684"><ele>631.0</ele><time>2026-04-28T15:49:14Z</time></trkpt><trkpt lat="37.99323862583745" lon="15.260622970532934"><ele>631.0</ele><time>2026-04-28T15:49:15Z</time></trkpt><trkpt lat="37.99332067063202" lon="15.260548680383913"><ele>632.1666666666667</ele><time>2026-04-28T15:49:17Z</time></trkpt><trkpt lat="37.993341622225856" lon="15.260457949944719"><ele>633.3333333333334</ele><time>2026-04-28T15:49:18Z</time></trkpt><trkpt lat="37.99334154811098" lon="15.260346914711919"><ele>634.5</ele><time>2026-04-28T15:49:19Z</time></trkpt><trkpt lat="37.993306059240275" lon="15.260233793752839"><ele>635.6666666666666</ele><time>2026-04-28T15:49:20Z</time></trkpt><trkpt lat="37.99324009861222" lon="15.260143423957537"><ele>636.8333333333333</ele><time>2026-04-28T15:49:21Z</time></trkpt><trkpt lat="37.99317524908129" lon="15.260075437953702"><ele>638.0</ele><time>2026-04-28T15:49:22Z</time></trkpt><trkpt lat="37.993117107137195" lon="15.260039169516007"><ele>638.0</ele><time>2026-04-28T15:49:24Z</time></trkpt><trkpt lat="37.99314865333736" lon="15.259938606905218"><ele>638.0</ele><time>2026-04-28T15:49:27.999Z</time></trkpt><trkpt lat="37.993222758151155" lon="15.259912120072022"><ele>638.0</ele><time>2026-04-28T15:49:28.999Z</time></trkpt><trkpt lat="37.99331442125821" lon="15.259873276693286"><ele>638.0</ele><time>2026-04-28T15:49:29.999Z</time></trkpt><trkpt lat="37.993404546178546" lon="15.25983069946383"><ele>638.0</ele><time>2026-04-28T15:49:30.999Z</time></trkpt><trkpt lat="37.993502891798485" lon="15.259779587200898"><ele>634.8333333333333</ele><time>2026-04-28T15:49:31.999Z</time></trkpt><trkpt lat="37.99358412199283" lon="15.259715047530863"><ele>631.6666666666666</ele><time>2026-04-28T15:49:32.999Z</time></trkpt><trkpt lat="37.99366120846469" lon="15.25963295046631"><ele>628.5</ele><time>2026-04-28T15:49:33.999Z</time></trkpt><trkpt lat="37.99373098056387" lon="15.259552851686355"><ele>625.3333333333334</ele><time>2026-04-28T15:49:34.999Z</time></trkpt><trkpt lat="37.993789660624145" lon="15.259493512512645"><ele>622.1666666666667</ele><time>2026-04-28T15:49:35.999Z</time></trkpt><trkpt lat="37.99387115903364" lon="15.25949196488812"><ele>619.0</ele><time>2026-04-28T15:49:37.999Z</time></trkpt><trkpt lat="37.99393619502089" lon="15.259538840513965"><ele>619.0</ele><time>2026-04-28T15:49:38.999Z</time></trkpt><trkpt lat="37.993998228237345" lon="15.259564926023144"><ele>619.0</ele><time>2026-04-28T15:49:39.999Z</time></trkpt><trkpt lat="37.99407606364247" lon="15.259474509646216"><ele>619.0</ele><time>2026-04-28T15:49:41.999Z</time></trkpt><trkpt lat="37.994098149356276" lon="15.259378525084099"><ele>619.0</ele><time>2026-04-28T15:49:42.999Z</time></trkpt><trkpt lat="37.99411590952859" lon="15.259265875664552"><ele>619.0</ele><time>2026-04-28T15:49:43.999Z</time></trkpt><trkpt lat="37.99411238957318" lon="15.259172721650154"><ele>619.0</ele><time>2026-04-28T15:49:44.999Z</time></trkpt><trkpt lat="37.99409309096914" lon="15.259084747670398"><ele>619.0</ele><time>2026-04-28T15:49:45.999Z</time></trkpt><trkpt lat="37.99406291864998" lon="15.25898365145454"><ele>619.0</ele><time>2026-04-28T15:49:46.999Z</time></trkpt><trkpt lat="37.99405601945146" lon="15.258858930439345"><ele>619.0</ele><time>2026-04-28T15:49:47.999Z</time></trkpt><trkpt lat="37.994061686581354" lon="15.258727559681294"><ele>619.0</ele><time>2026-04-28T15:49:48.999Z</time></trkpt><trkpt lat="37.99406945377773" lon="15.258605337409678"><ele>619.0</ele><time>2026-04-28T15:49:49.999Z</time></trkpt><trkpt lat="37.99406321732779" lon="15.258494043702454"><ele>618.6</ele><time>2026-04-28T15:49:50.999Z</time></trkpt><trkpt lat="37.994058760044254" lon="15.258400124953903"><ele>618.2</ele><time>2026-04-28T15:49:51.999Z</time></trkpt><trkpt lat="37.99407701000496" lon="15.258298793731687"><ele>617.8000000000001</ele><time>2026-04-28T15:49:52.999Z</time></trkpt><trkpt lat="37.99411700890448" lon="15.258176371228112"><ele>617.4</ele><time>2026-04-28T15:49:53.999Z</time></trkpt><trkpt lat="37.99414914466029" lon="15.258040757417842"><ele>617.0</ele><time>2026-04-28T15:49:54.999Z</time></trkpt><trkpt lat="37.99416970578621" lon="15.257893898654435"><ele>616.4</ele><time>2026-04-28T15:49:55.999Z</time></trkpt><trkpt lat="37.99418518508602" lon="15.257759330445333"><ele>615.8000000000001</ele><time>2026-04-28T15:49:56.999Z</time></trkpt><trkpt lat="37.99420707372582" lon="15.25764516642336"><ele>615.2</ele><time>2026-04-28T15:49:57.999Z</time></trkpt><trkpt lat="37.994231633966685" lon="15.257559630088966"><ele>614.6</ele><time>2026-04-28T15:49:58.999Z</time></trkpt><trkpt lat="37.99431454624673" lon="15.257451894913036"><ele>614.0</ele><time>2026-04-28T15:50:00.999Z</time></trkpt><trkpt lat="37.994381783191976" lon="15.257406980824312"><ele>614.0</ele><time>2026-04-28T15:50:01.999Z</time></trkpt><trkpt lat="37.99447780778262" lon="15.257365950226228"><ele>614.0</ele><time>2026-04-28T15:50:02.999Z</time></trkpt><trkpt lat="37.99457804991148" lon="15.257326855375766"><ele>614.0</ele><time>2026-04-28T15:50:03.999Z</time></trkpt><trkpt lat="37.9946553044707" lon="15.257325840338027"><ele>614.0</ele><time>2026-04-28T15:50:04.999Z</time></trkpt><trkpt lat="37.99473738370165" lon="15.257337506611526"><ele>614.0</ele><time>2026-04-28T15:50:05.999Z</time></trkpt><trkpt lat="37.994823358889235" lon="15.2573745634423"><ele>614.0</ele><time>2026-04-28T15:50:06.999Z</time></trkpt><trkpt lat="37.99488142393069" lon="15.257410389995712"><ele>614.0</ele><time>2026-04-28T15:50:07.999Z</time></trkpt><trkpt lat="37.99496135257922" lon="15.257607876609343"><ele>614.0</ele><time>2026-04-28T15:50:10Z</time></trkpt><trkpt lat="37.99502896025996" lon="15.257759387604672"><ele>614.0</ele><time>2026-04-28T15:50:11Z</time></trkpt><trkpt lat="37.99510421305038" lon="15.257864467128098"><ele>613.6</ele><time>2026-04-28T15:50:12Z</time></trkpt><trkpt lat="37.99516687776005" lon="15.257908245963737"><ele>613.2</ele><time>2026-04-28T15:50:13Z</time></trkpt><trkpt lat="37.99529373033218" lon="15.25786953926846"><ele>612.8000000000001</ele><time>2026-04-28T15:50:15Z</time></trkpt><trkpt lat="37.995377280009535" lon="15.257813857646788"><ele>612.4</ele><time>2026-04-28T15:50:16Z</time></trkpt><trkpt lat="37.99550052777162" lon="15.25777737379633"><ele>612.0</ele><time>2026-04-28T15:50:17Z</time></trkpt><trkpt lat="37.99563637472867" lon="15.257748162621102"><ele>612.0</ele><time>2026-04-28T15:50:18Z</time></trkpt><trkpt lat="37.995759314745314" lon="15.257730325048033"><ele>612.0</ele><time>2026-04-28T15:50:19Z</time></trkpt><trkpt lat="37.995868816845885" lon="15.257716574171765"><ele>612.0</ele><time>2026-04-28T15:50:20Z</time></trkpt><trkpt lat="37.99595170771086" lon="15.257701230897487"><ele>612.0</ele><time>2026-04-28T15:50:21Z</time></trkpt><trkpt lat="37.996009119706436" lon="15.257656662660937"><ele>612.0</ele><time>2026-04-28T15:50:22Z</time></trkpt><trkpt lat="37.99605487101781" lon="15.25756284733758"><ele>612.2</ele><time>2026-04-28T15:50:23Z</time></trkpt><trkpt lat="37.99609876498004" lon="15.257457294768729"><ele>612.4000000000001</ele><time>2026-04-28T15:50:24Z</time></trkpt><trkpt lat="37.99615842613669" lon="15.257401361551143"><ele>612.5999999999999</ele><time>2026-04-28T15:50:25Z</time></trkpt><trkpt lat="37.99631238597469" lon="15.2573780045128"><ele>612.8</ele><time>2026-04-28T15:50:27Z</time></trkpt><trkpt lat="37.996387065097764" lon="15.257362670230165"><ele>613.0</ele><time>2026-04-28T15:50:28Z</time></trkpt><trkpt lat="37.99647410162399" lon="15.257278967383977"><ele>613.0</ele><time>2026-04-28T15:50:30Z</time></trkpt><trkpt lat="37.996552395949365" lon="15.257145358249023"><ele>613.0</ele><time>2026-04-28T15:50:32Z</time></trkpt><trkpt lat="37.99661097025707" lon="15.257098680909065"><ele>613.0</ele><time>2026-04-28T15:50:33Z</time></trkpt><trkpt lat="37.99668225816734" lon="15.257052056846943"><ele>613.0</ele><time>2026-04-28T15:50:34Z</time></trkpt><trkpt lat="37.996761257932675" lon="15.256981797929631"><ele>613.0</ele><time>2026-04-28T15:50:35Z</time></trkpt><trkpt lat="37.99685320536235" lon="15.256940612191379"><ele>617.0</ele><time>2026-04-28T15:50:36Z</time></trkpt><trkpt lat="37.99693764728538" lon="15.256903948885238"><ele>621.0</ele><time>2026-04-28T15:50:37Z</time></trkpt><trkpt lat="37.9970337639114" lon="15.256854980913086"><ele>625.0</ele><time>2026-04-28T15:50:38Z</time></trkpt><trkpt lat="37.99711423232338" lon="15.256805429203496"><ele>629.0</ele><time>2026-04-28T15:50:39Z</time></trkpt><trkpt lat="37.99717420158741" lon="15.256756267138439"><ele>633.0</ele><time>2026-04-28T15:50:40Z</time></trkpt><trkpt lat="37.99719901474248" lon="15.256626600740955"><ele>633.0</ele><time>2026-04-28T15:50:42Z</time></trkpt><trkpt lat="37.99715042254034" lon="15.256476245269857"><ele>633.0</ele><time>2026-04-28T15:50:44Z</time></trkpt><trkpt lat="37.997097143745854" lon="15.256412389819888"><ele>633.0</ele><time>2026-04-28T15:50:45Z</time></trkpt><trkpt lat="37.99697984281006" lon="15.256340971415169"><ele>633.0</ele><time>2026-04-28T15:50:47Z</time></trkpt><trkpt lat="37.99689744373616" lon="15.256320482067338"><ele>633.0</ele><time>2026-04-28T15:50:48Z</time></trkpt><trkpt lat="37.99681099068713" lon="15.256310641484827"><ele>631.4</ele><time>2026-04-28T15:50:49Z</time></trkpt><trkpt lat="37.99673444708022" lon="15.256335270978603"><ele>629.8</ele><time>2026-04-28T15:50:50Z</time></trkpt><trkpt lat="37.996656019785135" lon="15.256410931206634"><ele>628.2</ele><time>2026-04-28T15:50:51Z</time></trkpt><trkpt lat="37.99657730195706" lon="15.256479120237042"><ele>626.6</ele><time>2026-04-28T15:50:52Z</time></trkpt><trkpt lat="37.99651129147409" lon="15.256516736307328"><ele>625.0</ele><time>2026-04-28T15:50:53Z</time></trkpt><trkpt lat="37.99637315953306" lon="15.256489384435342"><ele>625.0</ele><time>2026-04-28T15:50:55Z</time></trkpt><trkpt lat="37.99626851605951" lon="15.256458167922627"><ele>625.0</ele><time>2026-04-28T15:50:56Z</time></trkpt><trkpt lat="37.99615260889493" lon="15.256445585397628"><ele>625.0</ele><time>2026-04-28T15:50:57Z</time></trkpt><trkpt lat="37.99603556731483" lon="15.256436006856227"><ele>625.0</ele><time>2026-04-28T15:50:58Z</time></trkpt><trkpt lat="37.99591133195033" lon="15.256423744016281"><ele>627.0</ele><time>2026-04-28T15:50:59Z</time></trkpt><trkpt lat="37.995791708072744" lon="15.256393225888713"><ele>629.0</ele><time>2026-04-28T15:51:00Z</time></trkpt><trkpt lat="37.99566399500417" lon="15.25636270282385"><ele>631.0</ele><time>2026-04-28T15:51:01Z</time></trkpt><trkpt lat="37.99553636404199" lon="15.256343663808794"><ele>633.0</ele><time>2026-04-28T15:51:02Z</time></trkpt><trkpt lat="37.99543263189586" lon="15.256338798060453"><ele>633.0</ele><time>2026-04-28T15:51:03Z</time></trkpt><trkpt lat="37.99534785965353" lon="15.256318293516586"><ele>633.0</ele><time>2026-04-28T15:51:04Z</time></trkpt><trkpt lat="37.99526345040107" lon="15.256279706351796"><ele>633.0</ele><time>2026-04-28T15:51:05Z</time></trkpt><trkpt lat="37.99517293695168" lon="15.256239305584895"><ele>633.0</ele><time>2026-04-28T15:51:06Z</time></trkpt><trkpt lat="37.995106570972546" lon="15.256213506112815"><ele>633.0</ele><time>2026-04-28T15:51:07Z</time></trkpt><trkpt lat="37.99501131305599" lon="15.256125234319518"><ele>631.0</ele><time>2026-04-28T15:51:09Z</time></trkpt><trkpt lat="37.994976612520915" lon="15.256038675322914"><ele>629.0</ele><time>2026-04-28T15:51:10Z</time></trkpt><trkpt lat="37.994941099103016" lon="15.255921098752054"><ele>627.0</ele><time>2026-04-28T15:51:11Z</time></trkpt><trkpt lat="37.994907158579096" lon="15.255839390265589"><ele>625.0</ele><time>2026-04-28T15:51:12Z</time></trkpt><trkpt lat="37.99485170932531" lon="15.255798762455138"><ele>623.0</ele><time>2026-04-28T15:51:13Z</time></trkpt><trkpt lat="37.99477513394871" lon="15.255755797432395"><ele>621.0</ele><time>2026-04-28T15:51:14Z</time></trkpt><trkpt lat="37.994715959904106" lon="15.25570160987794"><ele>621.0</ele><time>2026-04-28T15:51:15Z</time></trkpt><trkpt lat="37.9946836940478" lon="15.255627377078959"><ele>621.0</ele><time>2026-04-28T15:51:16Z</time></trkpt><trkpt lat="37.99466822759285" lon="15.255526536847189"><ele>621.0</ele><time>2026-04-28T15:51:17Z</time></trkpt><trkpt lat="37.994654036287045" lon="15.255426205143046"><ele>621.0</ele><time>2026-04-28T15:51:18Z</time></trkpt><trkpt lat="37.99460714529653" lon="15.255330699244752"><ele>621.0</ele><time>2026-04-28T15:51:20Z</time></trkpt><trkpt lat="37.99450493637739" lon="15.255335945258292"><ele>621.0</ele><time>2026-04-28T15:51:22Z</time></trkpt><trkpt lat="37.99444147388585" lon="15.255398688725919"><ele>621.0</ele><time>2026-04-28T15:51:23Z</time></trkpt><trkpt lat="37.99439357981693" lon="15.255479695744175"><ele>621.0</ele><time>2026-04-28T15:51:24Z</time></trkpt><trkpt lat="37.99431877647432" lon="15.255595977477094"><ele>621.0</ele><time>2026-04-28T15:51:25Z</time></trkpt><trkpt lat="37.994253619835554" lon="15.255709044908116"><ele>621.0</ele><time>2026-04-28T15:51:26Z</time></trkpt><trkpt lat="37.994197120998905" lon="15.255786539323005"><ele>621.0</ele><time>2026-04-28T15:51:27Z</time></trkpt><trkpt lat="37.99411058326474" lon="15.25583187507778"><ele>619.1666666666666</ele><time>2026-04-28T15:51:29Z</time></trkpt><trkpt lat="37.99403211014097" lon="15.255806163064735"><ele>617.3333333333334</ele><time>2026-04-28T15:51:30Z</time></trkpt><trkpt lat="37.99394675700357" lon="15.255769330900394"><ele>615.5</ele><time>2026-04-28T15:51:30.999Z</time></trkpt><trkpt lat="37.99387303036028" lon="15.25576100541068"><ele>613.6666666666667</ele><time>2026-04-28T15:51:31.999Z</time></trkpt><trkpt lat="37.99379286515067" lon="15.25581284464399"><ele>611.8333333333334</ele><time>2026-04-28T15:51:32.999Z</time></trkpt><trkpt lat="37.993707289529745" lon="15.255888503703254"><ele>610.0</ele><time>2026-04-28T15:51:33.999Z</time></trkpt><trkpt lat="37.99361207805591" lon="15.255951106033631"><ele>610.0</ele><time>2026-04-28T15:51:34.999Z</time></trkpt><trkpt lat="37.99351741141868" lon="15.255991757943153"><ele>610.0</ele><time>2026-04-28T15:51:35.999Z</time></trkpt><trkpt lat="37.99344262373856" lon="15.256005979394816"><ele>610.0</ele><time>2026-04-28T15:51:36.999Z</time></trkpt><trkpt lat="37.99336860716951" lon="15.256014906208694"><ele>610.0</ele><time>2026-04-28T15:51:37.999Z</time></trkpt><trkpt lat="37.993269566031806" lon="15.256016851728326"><ele>610.0</ele><time>2026-04-28T15:51:38.999Z</time></trkpt><trkpt lat="37.99315825157693" lon="15.256043185228693"><ele>613.8</ele><time>2026-04-28T15:51:39.999Z</time></trkpt><trkpt lat="37.99304584324839" lon="15.25606657653533"><ele>617.6</ele><time>2026-04-28T15:51:40.999Z</time></trkpt><trkpt lat="37.99294384605099" lon="15.256108814309963"><ele>621.4</ele><time>2026-04-28T15:51:41.999Z</time></trkpt><trkpt lat="37.9928395111092" lon="15.256150996415244"><ele>625.2</ele><time>2026-04-28T15:51:42.999Z</time></trkpt><trkpt lat="37.99275717237711" lon="15.25618630625376"><ele>629.0</ele><time>2026-04-28T15:51:43.999Z</time></trkpt><trkpt lat="37.99271405482351" lon="15.256258462938689"><ele>629.0</ele><time>2026-04-28T15:51:44.999Z</time></trkpt><trkpt lat="37.99269271254844" lon="15.256369866249669"><ele>629.0</ele><time>2026-04-28T15:51:45.999Z</time></trkpt><trkpt lat="37.99268316261152" lon="15.256513362094308"><ele>629.0</ele><time>2026-04-28T15:51:46.999Z</time></trkpt><trkpt lat="37.99266761569762" lon="15.25667596643897"><ele>629.0</ele><time>2026-04-28T15:51:47.999Z</time></trkpt><trkpt lat="37.99263303274791" lon="15.256843007265172"><ele>626.0</ele><time>2026-04-28T15:51:48.999Z</time></trkpt><trkpt lat="37.99256299856129" lon="15.2570081966679"><ele>623.0</ele><time>2026-04-28T15:51:49.999Z</time></trkpt><trkpt lat="37.99248706559453" lon="15.257179487120446"><ele>620.0</ele><time>2026-04-28T15:51:50.999Z</time></trkpt><trkpt lat="37.99243278263125" lon="15.257329871393669"><ele>617.0</ele><time>2026-04-28T15:51:51.999Z</time></trkpt><trkpt lat="37.992383350251124" lon="15.257442522597415"><ele>617.0</ele><time>2026-04-28T15:51:52.999Z</time></trkpt><trkpt lat="37.99232132207251" lon="15.257525260173217"><ele>617.0</ele><time>2026-04-28T15:51:53.999Z</time></trkpt><trkpt lat="37.99223935986632" lon="15.257585159362742"><ele>617.0</ele><time>2026-04-28T15:51:54.999Z</time></trkpt><trkpt lat="37.99212339005524" lon="15.25762502037262"><ele>617.0</ele><time>2026-04-28T15:51:55.999Z</time></trkpt><trkpt lat="37.99197248321406" lon="15.257638314241916"><ele>617.0</ele><time>2026-04-28T15:51:56.999Z</time></trkpt><trkpt lat="37.99181150598471" lon="15.25765996506255"><ele>617.0</ele><time>2026-04-28T15:51:57.999Z</time></trkpt><trkpt lat="37.99167002378352" lon="15.257726681973503"><ele>617.0</ele><time>2026-04-28T15:51:58.999Z</time></trkpt><trkpt lat="37.99155074413877" lon="15.257810910528816"><ele>617.0</ele><time>2026-04-28T15:51:59.999Z</time></trkpt><trkpt lat="37.99144818735643" lon="15.257881950538783"><ele>623.5</ele><time>2026-04-28T15:52:00.999Z</time></trkpt><trkpt lat="37.99132711254582" lon="15.257917085268398"><ele>630.0</ele><time>2026-04-28T15:52:01.999Z</time></trkpt><trkpt lat="37.99117841136109" lon="15.25792970069803"><ele>636.5</ele><time>2026-04-28T15:52:02.999Z</time></trkpt><trkpt lat="37.9910501360785" lon="15.257957037362484"><ele>643.0</ele><time>2026-04-28T15:52:03.999Z</time></trkpt><trkpt lat="37.99094766252694" lon="15.258032282759526"><ele>641.25</ele><time>2026-04-28T15:52:04.999Z</time></trkpt><trkpt lat="37.990854706131636" lon="15.258146271739522"><ele>639.5</ele><time>2026-04-28T15:52:05.999Z</time></trkpt><trkpt lat="37.990761609995936" lon="15.258294455378833"><ele>637.75</ele><time>2026-04-28T15:52:06.999Z</time></trkpt><trkpt lat="37.99065768578001" lon="15.258437675323533"><ele>636.0</ele><time>2026-04-28T15:52:07.999Z</time></trkpt><trkpt lat="37.990573390492834" lon="15.258555539556886"><ele>636.0</ele><time>2026-04-28T15:52:08.999Z</time></trkpt><trkpt lat="37.990504389367985" lon="15.258653713851231"><ele>636.0</ele><time>2026-04-28T15:52:09.999Z</time></trkpt><trkpt lat="37.99041847931354" lon="15.258718059040477"><ele>636.0</ele><time>2026-04-28T15:52:10.999Z</time></trkpt><trkpt lat="37.990291057691984" lon="15.258761514170994"><ele>636.0</ele><time>2026-04-28T15:52:11.999Z</time></trkpt><trkpt lat="37.99014107117551" lon="15.258801629611412"><ele>639.6666666666666</ele><time>2026-04-28T15:52:12.999Z</time></trkpt><trkpt lat="37.98998675070081" lon="15.258867353173034"><ele>643.3333333333333</ele><time>2026-04-28T15:52:13.999Z</time></trkpt><trkpt lat="37.989833747266765" lon="15.258941330930261"><ele>647.0</ele><time>2026-04-28T15:52:15Z</time></trkpt><trkpt lat="37.98968995678849" lon="15.258991474872978"><ele>647.0</ele><time>2026-04-28T15:52:16Z</time></trkpt><trkpt lat="37.989545513648835" lon="15.259017468494475"><ele>647.0</ele><time>2026-04-28T15:52:17Z</time></trkpt><trkpt lat="37.98941886577066" lon="15.259015132412273"><ele>647.0</ele><time>2026-04-28T15:52:18Z</time></trkpt><trkpt lat="37.98932741253424" lon="15.258988942859855"><ele>647.0</ele><time>2026-04-28T15:52:19Z</time></trkpt><trkpt lat="37.989264476024715" lon="15.258965328263818"><ele>647.0</ele><time>2026-04-28T15:52:20Z</time></trkpt><trkpt lat="37.989189525549044" lon="15.258861304998367"><ele>652.0</ele><time>2026-04-28T15:52:22Z</time></trkpt><trkpt lat="37.98917936876114" lon="15.258752332888736"><ele>657.0</ele><time>2026-04-28T15:52:23Z</time></trkpt><trkpt lat="37.98919584220248" lon="15.258617565833095"><ele>662.0</ele><time>2026-04-28T15:52:24Z</time></trkpt><trkpt lat="37.989243233246135" lon="15.258458667780857"><ele>667.0</ele><time>2026-04-28T15:52:25Z</time></trkpt><trkpt lat="37.98929476544304" lon="15.258282482083116"><ele>669.0</ele><time>2026-04-28T15:52:26Z</time></trkpt><trkpt lat="37.989330107922804" lon="15.258096148852381"><ele>671.0</ele><time>2026-04-28T15:52:27Z</time></trkpt><trkpt lat="37.98934720548671" lon="15.257892121260609"><ele>673.0</ele><time>2026-04-28T15:52:28Z</time></trkpt><trkpt lat="37.98935762890679" lon="15.25768871191907"><ele>673.0</ele><time>2026-04-28T15:52:29Z</time></trkpt><trkpt lat="37.98937959605326" lon="15.257497741788805"><ele>673.0</ele><time>2026-04-28T15:52:30Z</time></trkpt><trkpt lat="37.98940874983799" lon="15.257322948338077"><ele>673.0</ele><time>2026-04-28T15:52:31Z</time></trkpt><trkpt lat="37.989431733065295" lon="15.257154672768142"><ele>673.0</ele><time>2026-04-28T15:52:32Z</time></trkpt><trkpt lat="37.98943294883161" lon="15.256981701162365"><ele>670.0</ele><time>2026-04-28T15:52:33Z</time></trkpt><trkpt lat="37.98943835739884" lon="15.25680912750371"><ele>667.0</ele><time>2026-04-28T15:52:34Z</time></trkpt><trkpt lat="37.98947663163804" lon="15.256660884007001"><ele>664.0</ele><time>2026-04-28T15:52:35Z</time></trkpt><trkpt lat="37.989540292496116" lon="15.256543454709934"><ele>661.0</ele><time>2026-04-28T15:52:36Z</time></trkpt><trkpt lat="37.98960851799969" lon="15.256460727738435"><ele>661.25</ele><time>2026-04-28T15:52:37Z</time></trkpt><trkpt lat="37.989685070680196" lon="15.256425896715925"><ele>661.5</ele><time>2026-04-28T15:52:38Z</time></trkpt><trkpt lat="37.98979775902535" lon="15.256424434538433"><ele>661.75</ele><time>2026-04-28T15:52:39Z</time></trkpt><trkpt lat="37.98993067211739" lon="15.256410292702384"><ele>662.0</ele><time>2026-04-28T15:52:40Z</time></trkpt><trkpt lat="37.99004802726371" lon="15.256358168274408"><ele>662.0</ele><time>2026-04-28T15:52:41Z</time></trkpt><trkpt lat="37.990132540924655" lon="15.25629624334742"><ele>662.0</ele><time>2026-04-28T15:52:42Z</time></trkpt><trkpt lat="37.990193109017376" lon="15.256224083203703"><ele>662.0</ele><time>2026-04-28T15:52:43Z</time></trkpt><trkpt lat="37.990242066311545" lon="15.256118684277693"><ele>662.0</ele><time>2026-04-28T15:52:44Z</time></trkpt><trkpt lat="37.990312992173" lon="15.255989925930974"><ele>662.0</ele><time>2026-04-28T15:52:45Z</time></trkpt><trkpt lat="37.990370702368295" lon="15.25589852578405"><ele>662.0</ele><time>2026-04-28T15:52:46Z</time></trkpt><trkpt lat="37.990410486228605" lon="15.255822510821904"><ele>662.0</ele><time>2026-04-28T15:52:47Z</time></trkpt><trkpt lat="37.99043350003007" lon="15.255738159989795"><ele>662.0</ele><time>2026-04-28T15:52:48Z</time></trkpt><trkpt lat="37.990396676685286" lon="15.255597544872272"><ele>662.0</ele><time>2026-04-28T15:52:50Z</time></trkpt><trkpt lat="37.99031667173936" lon="15.255512133424848"><ele>662.0</ele><time>2026-04-28T15:52:52Z</time></trkpt><trkpt lat="37.99022728412001" lon="15.255512957493144"><ele>661.1666666666666</ele><time>2026-04-28T15:52:54Z</time></trkpt><trkpt lat="37.990163516920326" lon="15.255539998769196"><ele>660.3333333333333</ele><time>2026-04-28T15:52:55Z</time></trkpt><trkpt lat="37.990102849755154" lon="15.25558682586337"><ele>659.5</ele><time>2026-04-28T15:52:56Z</time></trkpt><trkpt lat="37.98998186846667" lon="15.255566308176968"><ele>658.6666666666666</ele><time>2026-04-28T15:52:58Z</time></trkpt><trkpt lat="37.98993254260032" lon="15.25549409819697"><ele>657.8333333333334</ele><time>2026-04-28T15:52:59Z</time></trkpt><trkpt lat="37.98988068014861" lon="15.255394249452893"><ele>657.0</ele><time>2026-04-28T15:53:00Z</time></trkpt><trkpt lat="37.989791523703495" lon="15.255306473160509"><ele>655.5</ele><time>2026-04-28T15:53:01Z</time></trkpt><trkpt lat="37.989686266050164" lon="15.255250367509813"><ele>654.0</ele><time>2026-04-28T15:53:02Z</time></trkpt><trkpt lat="37.98959654163955" lon="15.255229329707639"><ele>652.5</ele><time>2026-04-28T15:53:03Z</time></trkpt><trkpt lat="37.98952229673363" lon="15.255243214951683"><ele>651.0</ele><time>2026-04-28T15:53:04Z</time></trkpt><trkpt lat="37.989453567044706" lon="15.255277192576479"><ele>649.5</ele><time>2026-04-28T15:53:05Z</time></trkpt><trkpt lat="37.9893702444677" lon="15.255300873714916"><ele>648.0</ele><time>2026-04-28T15:53:06Z</time></trkpt><trkpt lat="37.98927545548655" lon="15.255302208158204"><ele>648.0</ele><time>2026-04-28T15:53:07Z</time></trkpt><trkpt lat="37.9892011165059" lon="15.255366898658899"><ele>648.0</ele><time>2026-04-28T15:53:08Z</time></trkpt><trkpt lat="37.989160121822124" lon="15.255430047370863"><ele>648.0</ele><time>2026-04-28T15:53:09Z</time></trkpt><trkpt lat="37.98909850712221" lon="15.255480637553497"><ele>648.0</ele><time>2026-04-28T15:53:10Z</time></trkpt><trkpt lat="37.989013529045174" lon="15.25551094389322"><ele>648.0</ele><time>2026-04-28T15:53:11Z</time></trkpt><trkpt lat="37.988918009580324" lon="15.255535291410583"><ele>648.0</ele><time>2026-04-28T15:53:12Z</time></trkpt><trkpt lat="37.98880613318052" lon="15.255545542181267"><ele>645.8</ele><time>2026-04-28T15:53:13Z</time></trkpt><trkpt lat="37.98870751673973" lon="15.25555517068697"><ele>643.5999999999999</ele><time>2026-04-28T15:53:14Z</time></trkpt><trkpt lat="37.9886321708205" lon="15.255552634807739"><ele>641.4000000000001</ele><time>2026-04-28T15:53:15Z</time></trkpt><trkpt lat="37.988543861666145" lon="15.255592820579874"><ele>639.2</ele><time>2026-04-28T15:53:17Z</time></trkpt><trkpt lat="37.988499426663815" lon="15.255766757332301"><ele>637.0</ele><time>2026-04-28T15:53:19Z</time></trkpt><trkpt lat="37.988506171086776" lon="15.255879357359515"><ele>637.0</ele><time>2026-04-28T15:53:20Z</time></trkpt><trkpt lat="37.98853105947519" lon="15.255985940965315"><ele>637.0</ele><time>2026-04-28T15:53:21Z</time></trkpt><trkpt lat="37.98855022088844" lon="15.256086549902395"><ele>637.0</ele><time>2026-04-28T15:53:22Z</time></trkpt><trkpt lat="37.98854063439203" lon="15.256181705158959"><ele>637.0</ele><time>2026-04-28T15:53:24Z</time></trkpt><trkpt lat="37.9884193856371" lon="15.256261282460537"><ele>637.0</ele><time>2026-04-28T15:53:26Z</time></trkpt><trkpt lat="37.98833340086698" lon="15.256344736760237"><ele>640.0</ele><time>2026-04-28T15:53:27Z</time></trkpt><trkpt lat="37.988234100628326" lon="15.25645495946048"><ele>643.0</ele><time>2026-04-28T15:53:28Z</time></trkpt><trkpt lat="37.98812375156417" lon="15.256564356650918"><ele>646.0</ele><time>2026-04-28T15:53:29Z</time></trkpt><trkpt lat="37.98804326109058" lon="15.256652602606914"><ele>649.0</ele><time>2026-04-28T15:53:30Z</time></trkpt><trkpt lat="37.98798523035916" lon="15.256759429252432"><ele>649.0</ele><time>2026-04-28T15:53:31Z</time></trkpt><trkpt lat="37.987943431372926" lon="15.256853995721354"><ele>649.0</ele><time>2026-04-28T15:53:32Z</time></trkpt><trkpt lat="37.98788519577362" lon="15.256912459260864"><ele>649.0</ele><time>2026-04-28T15:53:33Z</time></trkpt><trkpt lat="37.98780977835641" lon="15.25694309025519"><ele>649.0</ele><time>2026-04-28T15:53:34Z</time></trkpt><trkpt lat="37.987736933390224" lon="15.256936994207086"><ele>649.0</ele><time>2026-04-28T15:53:35Z</time></trkpt><trkpt lat="37.98766245047764" lon="15.25690233996762"><ele>649.0</ele><time>2026-04-28T15:53:35.999Z</time></trkpt><trkpt lat="37.98758570781753" lon="15.256831471469688"><ele>651.0</ele><time>2026-04-28T15:53:36.999Z</time></trkpt><trkpt lat="37.9874994076988" lon="15.256731511656241"><ele>653.0</ele><time>2026-04-28T15:53:37.999Z</time></trkpt><trkpt lat="37.98741156779197" lon="15.256657747121084"><ele>655.0</ele><time>2026-04-28T15:53:38.999Z</time></trkpt><trkpt lat="37.987326461864534" lon="15.256630806241068"><ele>657.0</ele><time>2026-04-28T15:53:39.999Z</time></trkpt><trkpt lat="37.987262616344445" lon="15.256649718602546"><ele>659.0</ele><time>2026-04-28T15:53:40.999Z</time></trkpt><trkpt lat="37.98720933222767" lon="15.256695218810423"><ele>661.0</ele><time>2026-04-28T15:53:41.999Z</time></trkpt><trkpt lat="37.98715641578827" lon="15.256744520418154"><ele>661.0</ele><time>2026-04-28T15:53:42.999Z</time></trkpt><trkpt lat="37.987072916064065" lon="15.256827135523698"><ele>661.0</ele><time>2026-04-28T15:53:43.999Z</time></trkpt><trkpt lat="37.9869802173108" lon="15.256872533232915"><ele>661.0</ele><time>2026-04-28T15:53:44.999Z</time></trkpt><trkpt lat="37.98689118912402" lon="15.256878826495589"><ele>661.0</ele><time>2026-04-28T15:53:45.999Z</time></trkpt><trkpt lat="37.986797256486355" lon="15.256896153246624"><ele>661.0</ele><time>2026-04-28T15:53:47.999Z</time></trkpt><trkpt lat="37.98676856069206" lon="15.257027144631328"><ele>661.0</ele><time>2026-04-28T15:53:49.999Z</time></trkpt><trkpt lat="37.986773079409296" lon="15.25712377773339"><ele>661.0</ele><time>2026-04-28T15:53:50.999Z</time></trkpt><trkpt lat="37.98677053640362" lon="15.257211675097958"><ele>661.0</ele><time>2026-04-28T15:53:51.999Z</time></trkpt><trkpt lat="37.9866862600065" lon="15.257323680402596"><ele>661.0</ele><time>2026-04-28T15:53:53.999Z</time></trkpt><trkpt lat="37.98655546335288" lon="15.257321581218577"><ele>661.0</ele><time>2026-04-28T15:53:55.999Z</time></trkpt><trkpt lat="37.98647443228432" lon="15.257292325105327"><ele>664.0</ele><time>2026-04-28T15:53:56.999Z</time></trkpt><trkpt lat="37.98637801328433" lon="15.25725334642697"><ele>667.0</ele><time>2026-04-28T15:53:57.999Z</time></trkpt><trkpt lat="37.98627474328314" lon="15.257218554535468"><ele>670.0</ele><time>2026-04-28T15:53:58.999Z</time></trkpt><trkpt lat="37.98619271405718" lon="15.257185963220696"><ele>673.0</ele><time>2026-04-28T15:53:59.999Z</time></trkpt><trkpt lat="37.98611638733834" lon="15.257131557047124"><ele>676.0</ele><time>2026-04-28T15:54:00.999Z</time></trkpt><trkpt lat="37.98603974040411" lon="15.25708586837111"><ele>676.0</ele><time>2026-04-28T15:54:01.999Z</time></trkpt><trkpt lat="37.98597946167499" lon="15.25704092421722"><ele>676.0</ele><time>2026-04-28T15:54:02.999Z</time></trkpt><trkpt lat="37.98588690591403" lon="15.256919573313834"><ele>676.0</ele><time>2026-04-28T15:54:04.999Z</time></trkpt><trkpt lat="37.985846181706734" lon="15.256851943935205"><ele>676.0</ele><time>2026-04-28T15:54:05.999Z</time></trkpt><trkpt lat="37.985757268949406" lon="15.256867974776346"><ele>676.0</ele><time>2026-04-28T15:54:07.999Z</time></trkpt><trkpt lat="37.985683191081584" lon="15.25692166902426"><ele>676.0</ele><time>2026-04-28T15:54:08.999Z</time></trkpt><trkpt lat="37.98559685882918" lon="15.256962998582548"><ele>678.1999999999999</ele><time>2026-04-28T15:54:09.999Z</time></trkpt><trkpt lat="37.98553470243632" lon="15.256987934852937"><ele>680.4</ele><time>2026-04-28T15:54:10.999Z</time></trkpt><trkpt lat="37.98549150135975" lon="15.257132429485473"><ele>682.6</ele><time>2026-04-28T15:54:12.999Z</time></trkpt><trkpt lat="37.98546908810696" lon="15.257222441315896"><ele>684.8</ele><time>2026-04-28T15:54:13.999Z</time></trkpt><trkpt lat="37.98536892474467" lon="15.257305095581431"><ele>687.0</ele><time>2026-04-28T15:54:15.999Z</time></trkpt><trkpt lat="37.985268038064525" lon="15.257359819152207"><ele>683.8</ele><time>2026-04-28T15:54:16.999Z</time></trkpt><trkpt lat="37.9851596679446" lon="15.25743818457427"><ele>680.6</ele><time>2026-04-28T15:54:17.999Z</time></trkpt><trkpt lat="37.9850591043285" lon="15.257510517619025"><ele>677.4</ele><time>2026-04-28T15:54:18.999Z</time></trkpt><trkpt lat="37.9849967573292" lon="15.25754763448538"><ele>674.1999999999999</ele><time>2026-04-28T15:54:19.999Z</time></trkpt><trkpt lat="37.98491591573944" lon="15.25757231903756"><ele>671.0</ele><time>2026-04-28T15:54:21Z</time></trkpt><trkpt lat="37.98483712773033" lon="15.257596304900185"><ele>671.0</ele><time>2026-04-28T15:54:22Z</time></trkpt><trkpt lat="37.9847846285742" lon="15.257659985783494"><ele>671.0</ele><time>2026-04-28T15:54:23Z</time></trkpt><trkpt lat="37.98473792217045" lon="15.257772040356118"><ele>671.0</ele><time>2026-04-28T15:54:24Z</time></trkpt><trkpt lat="37.98468530314899" lon="15.25786416883379"><ele>671.0</ele><time>2026-04-28T15:54:25Z</time></trkpt><trkpt lat="37.984599312039165" lon="15.257939956570011"><ele>671.0</ele><time>2026-04-28T15:54:26Z</time></trkpt><trkpt lat="37.98451933096468" lon="15.258013137661255"><ele>671.0</ele><time>2026-04-28T15:54:27Z</time></trkpt><trkpt lat="37.98446160969934" lon="15.258060186415602"><ele>671.0</ele><time>2026-04-28T15:54:28Z</time></trkpt><trkpt lat="37.98435462402168" lon="15.258047185961097"><ele>671.0</ele><time>2026-04-28T15:54:30Z</time></trkpt><trkpt lat="37.984296425235875" lon="15.257983241067967"><ele>671.0</ele><time>2026-04-28T15:54:31Z</time></trkpt><trkpt lat="37.98425245708496" lon="15.257901372392228"><ele>671.0</ele><time>2026-04-28T15:54:32Z</time></trkpt><trkpt lat="37.984211369423136" lon="15.25779559087797"><ele>671.0</ele><time>2026-04-28T15:54:33Z</time></trkpt><trkpt lat="37.9841710189518" lon="15.257693640081166"><ele>671.6666666666666</ele><time>2026-04-28T15:54:34Z</time></trkpt><trkpt lat="37.9841317787284" lon="15.257602662076314"><ele>672.3333333333333</ele><time>2026-04-28T15:54:35Z</time></trkpt><trkpt lat="37.98407177474812" lon="15.25755006108514"><ele>673.0</ele><time>2026-04-28T15:54:36Z</time></trkpt><trkpt lat="37.98401143029068" lon="15.25749148328886"><ele>673.6666666666666</ele><time>2026-04-28T15:54:37Z</time></trkpt><trkpt lat="37.983943698577235" lon="15.257381344886738"><ele>674.3333333333334</ele><time>2026-04-28T15:54:39Z</time></trkpt><trkpt lat="37.983931063935486" lon="15.257282479224367"><ele>675.0</ele><time>2026-04-28T15:54:40Z</time></trkpt><trkpt lat="37.98388961295343" lon="15.257184398545187"><ele>681.0</ele><time>2026-04-28T15:54:41Z</time></trkpt><trkpt lat="37.98382369380204" lon="15.257108372484282"><ele>687.0</ele><time>2026-04-28T15:54:42Z</time></trkpt><trkpt lat="37.983746728364835" lon="15.2570502878547"><ele>693.0</ele><time>2026-04-28T15:54:43Z</time></trkpt><trkpt lat="37.98367791939086" lon="15.257004410132392"><ele>699.0</ele><time>2026-04-28T15:54:44Z</time></trkpt><trkpt lat="37.983595872738306" lon="15.257026504659185"><ele>705.0</ele><time>2026-04-28T15:54:46Z</time></trkpt><trkpt lat="37.983563729100936" lon="15.25710276799836"><ele>711.0</ele><time>2026-04-28T15:54:47Z</time></trkpt><trkpt lat="37.98352625464989" lon="15.25719580360623"><ele>711.0</ele><time>2026-04-28T15:54:48Z</time></trkpt><trkpt lat="37.98347258060468" lon="15.257255749336316"><ele>711.0</ele><time>2026-04-28T15:54:49Z</time></trkpt><trkpt lat="37.9833542345125" lon="15.2572584493124"><ele>711.0</ele><time>2026-04-28T15:54:51Z</time></trkpt><trkpt lat="37.98326449440622" lon="15.25723224744599"><ele>711.0</ele><time>2026-04-28T15:54:52Z</time></trkpt><trkpt lat="37.98317129482315" lon="15.257194642424407"><ele>711.0</ele><time>2026-04-28T15:54:53Z</time></trkpt><trkpt lat="37.98309445712383" lon="15.257146416432548"><ele>708.5999999999999</ele><time>2026-04-28T15:54:54Z</time></trkpt><trkpt lat="37.98299625105999" lon="15.257128089790955"><ele>706.2</ele><time>2026-04-28T15:54:56Z</time></trkpt><trkpt lat="37.98290796512508" lon="15.257270993281564"><ele>703.8</ele><time>2026-04-28T15:54:58Z</time></trkpt><trkpt lat="37.98284535332204" lon="15.257361205306614"><ele>701.4000000000001</ele><time>2026-04-28T15:54:59Z</time></trkpt><trkpt lat="37.98276545097469" lon="15.257438742944561"><ele>699.0</ele><time>2026-04-28T15:55:00Z</time></trkpt><trkpt lat="37.982684246593806" lon="15.257488269127888"><ele>696.0</ele><time>2026-04-28T15:55:01Z</time></trkpt><trkpt lat="37.982618314187086" lon="15.257531691595112"><ele>693.0</ele><time>2026-04-28T15:55:02Z</time></trkpt><trkpt lat="37.982566118389336" lon="15.25768032166366"><ele>690.0</ele><time>2026-04-28T15:55:04Z</time></trkpt><trkpt lat="37.98255944886829" lon="15.257784952001431"><ele>687.0</ele><time>2026-04-28T15:55:05Z</time></trkpt><trkpt lat="37.98256147168452" lon="15.257870569331354"><ele>684.0</ele><time>2026-04-28T15:55:06Z</time></trkpt><trkpt lat="37.98254785469174" lon="15.257977426077133"><ele>681.0</ele><time>2026-04-28T15:55:08Z</time></trkpt><trkpt lat="37.9824491009331" lon="15.258000773483294"><ele>681.0</ele><time>2026-04-28T15:55:10Z</time></trkpt><trkpt lat="37.9823648235615" lon="15.257970522072126"><ele>681.0</ele><time>2026-04-28T15:55:11Z</time></trkpt><trkpt lat="37.98227862013151" lon="15.257966821293396"><ele>681.0</ele><time>2026-04-28T15:55:12Z</time></trkpt><trkpt lat="37.98221167712438" lon="15.257999013021502"><ele>681.0</ele><time>2026-04-28T15:55:13Z</time></trkpt><trkpt lat="37.98216924808488" lon="15.258072963151315"><ele>681.0</ele><time>2026-04-28T15:55:14Z</time></trkpt><trkpt lat="37.98213408374984" lon="15.25819668097495"><ele>681.0</ele><time>2026-04-28T15:55:15Z</time></trkpt><trkpt lat="37.98209185133295" lon="15.258321798356276"><ele>676.6666666666666</ele><time>2026-04-28T15:55:16Z</time></trkpt><trkpt lat="37.98205301420606" lon="15.258410123012446"><ele>672.3333333333334</ele><time>2026-04-28T15:55:17Z</time></trkpt><trkpt lat="37.981995033804154" lon="15.258490557531113"><ele>668.0</ele><time>2026-04-28T15:55:18Z</time></trkpt><trkpt lat="37.98193675203607" lon="15.258557005663539"><ele>663.6666666666667</ele><time>2026-04-28T15:55:19Z</time></trkpt><trkpt lat="37.98187224232137" lon="15.258604361152033"><ele>659.3333333333334</ele><time>2026-04-28T15:55:20Z</time></trkpt><trkpt lat="37.98180477963772" lon="15.258638710454212"><ele>655.0</ele><time>2026-04-28T15:55:21Z</time></trkpt><trkpt lat="37.981711010527754" lon="15.258592353370659"><ele>655.0</ele><time>2026-04-28T15:55:23Z</time></trkpt><trkpt lat="37.98170605826586" lon="15.258439833464195"><ele>655.0</ele><time>2026-04-28T15:55:25Z</time></trkpt><trkpt lat="37.98172505403289" lon="15.258312660773647"><ele>655.0</ele><time>2026-04-28T15:55:26Z</time></trkpt><trkpt lat="37.98171487942086" lon="15.258205073920493"><ele>655.0</ele><time>2026-04-28T15:55:27Z</time></trkpt><trkpt lat="37.981667941339914" lon="15.258120149998195"><ele>655.0</ele><time>2026-04-28T15:55:28Z</time></trkpt><trkpt lat="37.98161260194484" lon="15.25804850601376"><ele>658.6666666666667</ele><time>2026-04-28T15:55:29Z</time></trkpt><trkpt lat="37.98151759787641" lon="15.258020463923305"><ele>662.3333333333334</ele><time>2026-04-28T15:55:31Z</time></trkpt><trkpt lat="37.98146954121949" lon="15.25807954640804"><ele>666.0</ele><time>2026-04-28T15:55:32Z</time></trkpt><trkpt lat="37.9814408785686" lon="15.258183779753306"><ele>669.6666666666666</ele><time>2026-04-28T15:55:33Z</time></trkpt><trkpt lat="37.98141311435026" lon="15.258285108277772"><ele>673.3333333333333</ele><time>2026-04-28T15:55:34Z</time></trkpt><trkpt lat="37.9813659689112" lon="15.258358659650435"><ele>677.0</ele><time>2026-04-28T15:55:35Z</time></trkpt><trkpt lat="37.98130216239415" lon="15.258408624334663"><ele>677.0</ele><time>2026-04-28T15:55:36Z</time></trkpt><trkpt lat="37.9812537068934" lon="15.25847897960209"><ele>677.0</ele><time>2026-04-28T15:55:37Z</time></trkpt><trkpt lat="37.98123711735244" lon="15.25858795037442"><ele>677.0</ele><time>2026-04-28T15:55:38Z</time></trkpt><trkpt lat="37.98121905621223" lon="15.258716628101837"><ele>677.0</ele><time>2026-04-28T15:55:39Z</time></trkpt><trkpt lat="37.98119988222449" lon="15.258849244358917"><ele>677.0</ele><time>2026-04-28T15:55:39.999Z</time></trkpt><trkpt lat="37.98117980322182" lon="15.25897018916128"><ele>675.0</ele><time>2026-04-28T15:55:40.999Z</time></trkpt><trkpt lat="37.981153808482354" lon="15.259070550016055"><ele>673.0</ele><time>2026-04-28T15:55:41.999Z</time></trkpt><trkpt lat="37.981143006970825" lon="15.259173163539394"><ele>671.0</ele><time>2026-04-28T15:55:42.999Z</time></trkpt><trkpt lat="37.9811505790535" lon="15.25926124156425"><ele>669.0</ele><time>2026-04-28T15:55:43.999Z</time></trkpt><trkpt lat="37.98111318818897" lon="15.259400225707706"><ele>667.0</ele><time>2026-04-28T15:55:45.999Z</time></trkpt><trkpt lat="37.981061389314455" lon="15.259448565032471"><ele>665.0</ele><time>2026-04-28T15:55:46.999Z</time></trkpt><trkpt lat="37.98099700448382" lon="15.259468848880227"><ele>665.0</ele><time>2026-04-28T15:55:47.999Z</time></trkpt><trkpt lat="37.980930828705695" lon="15.259469501757556"><ele>665.0</ele><time>2026-04-28T15:55:48.999Z</time></trkpt><trkpt lat="37.980838670370815" lon="15.259400397076154"><ele>665.0</ele><time>2026-04-28T15:55:50.999Z</time></trkpt><trkpt lat="37.98080708773026" lon="15.259325084211106"><ele>665.0</ele><time>2026-04-28T15:55:51.999Z</time></trkpt><trkpt lat="37.980784760374185" lon="15.259230572724912"><ele>665.0</ele><time>2026-04-28T15:55:52.999Z</time></trkpt><trkpt lat="37.98075852758502" lon="15.259137911988132"><ele>665.0</ele><time>2026-04-28T15:55:53.999Z</time></trkpt><trkpt lat="37.980726607255036" lon="15.259020611220526"><ele>671.1666666666666</ele><time>2026-04-28T15:55:54.999Z</time></trkpt><trkpt lat="37.98066654461028" lon="15.25892464297488"><ele>677.3333333333333</ele><time>2026-04-28T15:55:55.999Z</time></trkpt><trkpt lat="37.98060349039305" lon="15.258850771453458"><ele>683.5</ele><time>2026-04-28T15:55:56.999Z</time></trkpt><trkpt lat="37.98055268236837" lon="15.258746060294808"><ele>689.6666666666666</ele><time>2026-04-28T15:55:58.999Z</time></trkpt><trkpt lat="37.98055330811121" lon="15.258661599353893"><ele>695.8333333333334</ele><time>2026-04-28T15:55:59.999Z</time></trkpt><trkpt lat="37.980542020114534" lon="15.258551723139094"><ele>702.0</ele><time>2026-04-28T15:56:00.999Z</time></trkpt><trkpt lat="37.98050755043669" lon="15.258465015349548"><ele>702.0</ele><time>2026-04-28T15:56:01.999Z</time></trkpt><trkpt lat="37.980454410447855" lon="15.258416087613147"><ele>702.0</ele><time>2026-04-28T15:56:02.999Z</time></trkpt><trkpt lat="37.9803361513376" lon="15.258424505832991"><ele>702.0</ele><time>2026-04-28T15:56:04.999Z</time></trkpt><trkpt lat="37.980291595075606" lon="15.258489917427031"><ele>702.0</ele><time>2026-04-28T15:56:05.999Z</time></trkpt><trkpt lat="37.98027870501564" lon="15.25858127362953"><ele>702.0</ele><time>2026-04-28T15:56:06.999Z</time></trkpt><trkpt lat="37.98026742060781" lon="15.258691338378192"><ele>702.0</ele><time>2026-04-28T15:56:07.999Z</time></trkpt><trkpt lat="37.98024638860533" lon="15.258772369800978"><ele>702.0</ele><time>2026-04-28T15:56:08.999Z</time></trkpt><trkpt lat="37.980164288413945" lon="15.258800782402481"><ele>702.0</ele><time>2026-04-28T15:56:09.999Z</time></trkpt><trkpt lat="37.98007372824193" lon="15.258821082356242"><ele>702.0</ele><time>2026-04-28T15:56:10.999Z</time></trkpt><trkpt lat="37.979970146990546" lon="15.25883094985497"><ele>702.0</ele><time>2026-04-28T15:56:11.999Z</time></trkpt><trkpt lat="37.979849168876264" lon="15.258826120093493"><ele>702.0</ele><time>2026-04-28T15:56:12.999Z</time></trkpt><trkpt lat="37.97974410556346" lon="15.258831240228375"><ele>699.2</ele><time>2026-04-28T15:56:13.999Z</time></trkpt><trkpt lat="37.97966002017024" lon="15.258849879810327"><ele>696.4000000000001</ele><time>2026-04-28T15:56:14.999Z</time></trkpt><trkpt lat="37.979573734561995" lon="15.258893040146976"><ele>693.5999999999999</ele><time>2026-04-28T15:56:15.999Z</time></trkpt><trkpt lat="37.97949715831727" lon="15.258953278944002"><ele>690.8</ele><time>2026-04-28T15:56:16.999Z</time></trkpt><trkpt lat="37.97942604515624" lon="15.25903249577123"><ele>688.0</ele><time>2026-04-28T15:56:17.999Z</time></trkpt><trkpt lat="37.979373118289956" lon="15.25912560083293"><ele>688.0</ele><time>2026-04-28T15:56:18.999Z</time></trkpt><trkpt lat="37.97933027933934" lon="15.259194988688012"><ele>688.0</ele><time>2026-04-28T15:56:19.999Z</time></trkpt><trkpt lat="37.97927861457883" lon="15.25925861334639"><ele>688.0</ele><time>2026-04-28T15:56:21.999Z</time></trkpt><trkpt lat="37.97930418256819" lon="15.259352394392902"><ele>688.0</ele><time>2026-04-28T15:56:22.999Z</time></trkpt><trkpt lat="37.979352361818044" lon="15.2594525457068"><ele>688.0</ele><time>2026-04-28T15:56:23.999Z</time></trkpt><trkpt lat="37.979349576642704" lon="15.259575301967594"><ele>688.0</ele><time>2026-04-28T15:56:24.999Z</time></trkpt><trkpt lat="37.979340356200964" lon="15.259700187261402"><ele>685.8</ele><time>2026-04-28T15:56:25.999Z</time></trkpt><trkpt lat="37.97933721590534" lon="15.259810962416177"><ele>683.5999999999999</ele><time>2026-04-28T15:56:27Z</time></trkpt><trkpt lat="37.979268878261635" lon="15.25996657995321"><ele>681.4000000000001</ele><time>2026-04-28T15:56:29Z</time></trkpt><trkpt lat="37.979204657816354" lon="15.260091424400532"><ele>679.2</ele><time>2026-04-28T15:56:30Z</time></trkpt><trkpt lat="37.97917761246641" lon="15.260202859854974"><ele>677.0</ele><time>2026-04-28T15:56:31Z</time></trkpt><trkpt lat="37.979188789272065" lon="15.260307316078023"><ele>677.0</ele><time>2026-04-28T15:56:32Z</time></trkpt><trkpt lat="37.97921966320878" lon="15.26041445968828"><ele>677.0</ele><time>2026-04-28T15:56:33Z</time></trkpt><trkpt lat="37.97921143204179" lon="15.260525560795559"><ele>677.0</ele><time>2026-04-28T15:56:34Z</time></trkpt><trkpt lat="37.979173473869395" lon="15.260627873725676"><ele>677.0</ele><time>2026-04-28T15:56:35Z</time></trkpt><trkpt lat="37.97910530218953" lon="15.260736448370706"><ele>677.0</ele><time>2026-04-28T15:56:36Z</time></trkpt><trkpt lat="37.97903154314682" lon="15.260862529584504"><ele>683.6</ele><time>2026-04-28T15:56:37Z</time></trkpt><trkpt lat="37.978960978919204" lon="15.260979017988625"><ele>690.2</ele><time>2026-04-28T15:56:38Z</time></trkpt><trkpt lat="37.978937864232584" lon="15.261080465192117"><ele>696.8</ele><time>2026-04-28T15:56:39Z</time></trkpt><trkpt lat="37.97892593032363" lon="15.261209637217988"><ele>703.4</ele><time>2026-04-28T15:56:40Z</time></trkpt><trkpt lat="37.978900425191" lon="15.261376961869482"><ele>710.0</ele><time>2026-04-28T15:56:41Z</time></trkpt><trkpt lat="37.978882881297366" lon="15.261537291397826"><ele>710.0</ele><time>2026-04-28T15:56:42Z</time></trkpt><trkpt lat="37.97888360115217" lon="15.261693476132137"><ele>710.0</ele><time>2026-04-28T15:56:43Z</time></trkpt><trkpt lat="37.97887947936197" lon="15.26183663445858"><ele>710.0</ele><time>2026-04-28T15:56:44Z</time></trkpt><trkpt lat="37.978873729216055" lon="15.261933094379792"><ele>710.0</ele><time>2026-04-28T15:56:45Z</time></trkpt><trkpt lat="37.97882169737235" lon="15.262013953861631"><ele>710.0</ele><time>2026-04-28T15:56:47Z</time></trkpt><trkpt lat="37.9787621983204" lon="15.262058121068693"><ele>710.0</ele><time>2026-04-28T15:56:48Z</time></trkpt><trkpt lat="37.97868857767799" lon="15.2620696030716"><ele>710.0</ele><time>2026-04-28T15:56:49Z</time></trkpt><trkpt lat="37.97857752791606" lon="15.262078021792444"><ele>710.0</ele><time>2026-04-28T15:56:50Z</time></trkpt><trkpt lat="37.97844692648875" lon="15.262109775930924"><ele>710.0</ele><time>2026-04-28T15:56:51Z</time></trkpt><trkpt lat="37.97830668163646" lon="15.262172375659794"><ele>713.5</ele><time>2026-04-28T15:56:52Z</time></trkpt><trkpt lat="37.978174376382455" lon="15.262264097688231"><ele>717.0</ele><time>2026-04-28T15:56:53Z</time></trkpt><trkpt lat="37.97806505267471" lon="15.262355146687526"><ele>720.5</ele><time>2026-04-28T15:56:54Z</time></trkpt><trkpt lat="37.97797860061618" lon="15.262437282054249"><ele>724.0</ele><time>2026-04-28T15:56:55Z</time></trkpt><trkpt lat="37.977900196647276" lon="15.262550103774903"><ele>724.0</ele><time>2026-04-28T15:56:56Z</time></trkpt><trkpt lat="37.97782701024174" lon="15.262681556867157"><ele>724.0</ele><time>2026-04-28T15:56:57Z</time></trkpt><trkpt lat="37.97776818687809" lon="15.262818665747217"><ele>724.0</ele><time>2026-04-28T15:56:58Z</time></trkpt><trkpt lat="37.977727641452546" lon="15.262921013645911"><ele>724.0</ele><time>2026-04-28T15:56:59Z</time></trkpt><trkpt lat="37.97766362588" lon="15.262965932312461"><ele>724.0</ele><time>2026-04-28T15:57:01Z</time></trkpt><trkpt lat="37.97758797236342" lon="15.262963347586334"><ele>724.2</ele><time>2026-04-28T15:57:02Z</time></trkpt><trkpt lat="37.977478737657265" lon="15.262960314651055"><ele>724.4000000000001</ele><time>2026-04-28T15:57:03Z</time></trkpt><trkpt lat="37.977354117496134" lon="15.262958023780346"><ele>724.6</ele><time>2026-04-28T15:57:04Z</time></trkpt><trkpt lat="37.97726276259191" lon="15.262967014858413"><ele>724.8</ele><time>2026-04-28T15:57:05Z</time></trkpt><trkpt lat="37.97718886144228" lon="15.26306118056652"><ele>725.0</ele><time>2026-04-28T15:57:07Z</time></trkpt><trkpt lat="37.97715915610298" lon="15.26314226917864"><ele>725.0</ele><time>2026-04-28T15:57:08Z</time></trkpt><trkpt lat="37.97714552746085" lon="15.263280302311962"><ele>725.0</ele><time>2026-04-28T15:57:09Z</time></trkpt><trkpt lat="37.97712343676849" lon="15.263389510072143"><ele>725.0</ele><time>2026-04-28T15:57:10Z</time></trkpt><trkpt lat="37.97707518749182" lon="15.263463150535445"><ele>725.0</ele><time>2026-04-28T15:57:11Z</time></trkpt><trkpt lat="37.97701271706908" lon="15.263506681167543"><ele>725.0</ele><time>2026-04-28T15:57:12Z</time></trkpt><trkpt lat="37.97692424258427" lon="15.263526307495225"><ele>725.0</ele><time>2026-04-28T15:57:13Z</time></trkpt><trkpt lat="37.97682250047849" lon="15.263528445443804"><ele>725.0</ele><time>2026-04-28T15:57:14Z</time></trkpt><trkpt lat="37.976732521468634" lon="15.263525344942932"><ele>725.0</ele><time>2026-04-28T15:57:15Z</time></trkpt><trkpt lat="37.97666410195372" lon="15.26353097824952"><ele>725.0</ele><time>2026-04-28T15:57:16Z</time></trkpt><trkpt lat="37.97660910819789" lon="15.263595472683187"><ele>725.0</ele><time>2026-04-28T15:57:17Z</time></trkpt><trkpt lat="37.976558131869034" lon="15.263720389831262"><ele>725.0</ele><time>2026-04-28T15:57:18Z</time></trkpt><trkpt lat="37.97651793389103" lon="15.263854309447328"><ele>725.6</ele><time>2026-04-28T15:57:19Z</time></trkpt><trkpt lat="37.97645900389447" lon="15.263954231367325"><ele>726.2</ele><time>2026-04-28T15:57:20Z</time></trkpt><trkpt lat="37.97638905779214" lon="15.264025057987258"><ele>726.8</ele><time>2026-04-28T15:57:21Z</time></trkpt><trkpt lat="37.976326174570715" lon="15.264067635744652"><ele>727.4</ele><time>2026-04-28T15:57:22Z</time></trkpt><trkpt lat="37.97623647912764" lon="15.264096099335827"><ele>728.0</ele><time>2026-04-28T15:57:23Z</time></trkpt><trkpt lat="37.97610981484707" lon="15.264105894939725"><ele>728.0</ele><time>2026-04-28T15:57:24Z</time></trkpt><trkpt lat="37.97598777134396" lon="15.264108548524607"><ele>728.0</ele><time>2026-04-28T15:57:25Z</time></trkpt><trkpt lat="37.97590285518862" lon="15.264126476596285"><ele>728.0</ele><time>2026-04-28T15:57:26Z</time></trkpt><trkpt lat="37.97583651888473" lon="15.264178240946809"><ele>728.0</ele><time>2026-04-28T15:57:27Z</time></trkpt><trkpt lat="37.975788103890636" lon="15.264277056894457"><ele>728.0</ele><time>2026-04-28T15:57:28Z</time></trkpt><trkpt lat="37.97573578599149" lon="15.264388407874305"><ele>732.4</ele><time>2026-04-28T15:57:29Z</time></trkpt><trkpt lat="37.97567701854548" lon="15.264492603611155"><ele>736.8</ele><time>2026-04-28T15:57:30Z</time></trkpt><trkpt lat="37.975620313036" lon="15.264566967374058"><ele>741.2</ele><time>2026-04-28T15:57:32Z</time></trkpt><trkpt lat="37.97558321148401" lon="15.264500940521895"><ele>745.6</ele><time>2026-04-28T15:57:36Z</time></trkpt><trkpt lat="37.97551523225457" lon="15.264340249994765"><ele>750.0</ele><time>2026-04-28T15:57:38Z</time></trkpt><trkpt lat="37.97561114240117" lon="15.264173135711003"><ele>750.0</ele><time>2026-04-28T15:57:39Z</time></trkpt><trkpt lat="37.97566449397502" lon="15.264060913004286"><ele>750.0</ele><time>2026-04-28T15:57:40Z</time></trkpt><trkpt lat="37.97572245680399" lon="15.263917204137678"><ele>750.0</ele><time>2026-04-28T15:57:41Z</time></trkpt><trkpt lat="37.97577567239491" lon="15.263801721907871"><ele>750.0</ele><time>2026-04-28T15:57:42Z</time></trkpt><trkpt lat="37.975834876161706" lon="15.26368659407411"><ele>750.0</ele><time>2026-04-28T15:57:43Z</time></trkpt><trkpt lat="37.97590163145024" lon="15.263575760739613"><ele>749.8</ele><time>2026-04-28T15:57:43.999Z</time></trkpt><trkpt lat="37.97597557371266" lon="15.263497380219734"><ele>749.6</ele><time>2026-04-28T15:57:44.999Z</time></trkpt><trkpt lat="37.97605829596282" lon="15.263443067247103"><ele>749.4000000000001</ele><time>2026-04-28T15:57:45.999Z</time></trkpt><trkpt lat="37.97614546441103" lon="15.26337937726603"><ele>749.2</ele><time>2026-04-28T15:57:46.999Z</time></trkpt><trkpt lat="37.9762254953335" lon="15.263297588844962"><ele>749.0</ele><time>2026-04-28T15:57:47.999Z</time></trkpt><trkpt lat="37.976314148434184" lon="15.263184545992289"><ele>750.8000000000001</ele><time>2026-04-28T15:57:48.999Z</time></trkpt><trkpt lat="37.976415381415215" lon="15.26306896466836"><ele>752.6</ele><time>2026-04-28T15:57:49.999Z</time></trkpt><trkpt lat="37.976507668091365" lon="15.262979909913534"><ele>754.4</ele><time>2026-04-28T15:57:50.999Z</time></trkpt><trkpt lat="37.97658313193888" lon="15.262890000359594"><ele>756.2</ele><time>2026-04-28T15:57:51.999Z</time></trkpt><trkpt lat="37.97660524560357" lon="15.26280483315901"><ele>758.0</ele><time>2026-04-28T15:57:52.999Z</time></trkpt><trkpt lat="37.97663364842266" lon="15.26271191719652"><ele>758.0</ele><time>2026-04-28T15:57:53.999Z</time></trkpt><trkpt lat="37.97667111144059" lon="15.262607289219641"><ele>758.0</ele><time>2026-04-28T15:57:54.999Z</time></trkpt><trkpt lat="37.976717476064664" lon="15.262520145699376"><ele>758.0</ele><time>2026-04-28T15:57:55.999Z</time></trkpt><trkpt lat="37.976802484523404" lon="15.26243932746206"><ele>758.0</ele><time>2026-04-28T15:57:56.999Z</time></trkpt><trkpt lat="37.976889118064626" lon="15.262402282912841"><ele>758.0</ele><time>2026-04-28T15:57:57.999Z</time></trkpt><trkpt lat="37.97696708551556" lon="15.262340060104906"><ele>759.4</ele><time>2026-04-28T15:57:58.999Z</time></trkpt><trkpt lat="37.97704841919705" lon="15.262313261282838"><ele>760.8</ele><time>2026-04-28T15:57:59.999Z</time></trkpt><trkpt lat="37.9771290766429" lon="15.262238665056232"><ele>762.2</ele><time>2026-04-28T15:58:00.999Z</time></trkpt><trkpt lat="37.977225011921334" lon="15.262138966619942"><ele>763.6</ele><time>2026-04-28T15:58:01.999Z</time></trkpt><trkpt lat="37.97731221322209" lon="15.262044633525484"><ele>765.0</ele><time>2026-04-28T15:58:02.999Z</time></trkpt><trkpt lat="37.97740470485037" lon="15.261938481956422"><ele>765.0</ele><time>2026-04-28T15:58:03.999Z</time></trkpt><trkpt lat="37.97750380380271" lon="15.261826620870464"><ele>765.0</ele><time>2026-04-28T15:58:04.999Z</time></trkpt><trkpt lat="37.97759460638443" lon="15.261740610983574"><ele>765.0</ele><time>2026-04-28T15:58:05.999Z</time></trkpt><trkpt lat="37.97768677556032" lon="15.261665832376123"><ele>765.0</ele><time>2026-04-28T15:58:06.999Z</time></trkpt><trkpt lat="37.97778434680239" lon="15.261602975996457"><ele>762.8</ele><time>2026-04-28T15:58:07.999Z</time></trkpt><trkpt lat="37.97788635633988" lon="15.261541468228026"><ele>760.6</ele><time>2026-04-28T15:58:08.999Z</time></trkpt><trkpt lat="37.977977908809216" lon="15.261491716383773"><ele>758.4000000000001</ele><time>2026-04-28T15:58:09.999Z</time></trkpt><trkpt lat="37.97805405663182" lon="15.2614578490657"><ele>756.2</ele><time>2026-04-28T15:58:10.999Z</time></trkpt><trkpt lat="37.9781028933225" lon="15.26140507202758"><ele>754.0</ele><time>2026-04-28T15:58:11.999Z</time></trkpt><trkpt lat="37.97813819534583" lon="15.26124722409937"><ele>754.0</ele><time>2026-04-28T15:58:13.999Z</time></trkpt><trkpt lat="37.97812989681568" lon="15.261122150657021"><ele>754.0</ele><time>2026-04-28T15:58:14.999Z</time></trkpt><trkpt lat="37.97812672055535" lon="15.260998282283554"><ele>754.0</ele><time>2026-04-28T15:58:15.999Z</time></trkpt><trkpt lat="37.97814037529609" lon="15.260886829934698"><ele>754.0</ele><time>2026-04-28T15:58:16.999Z</time></trkpt><trkpt lat="37.97818569277331" lon="15.26073566396751"><ele>754.0</ele><time>2026-04-28T15:58:17.999Z</time></trkpt><trkpt lat="37.97824254123645" lon="15.260565627245645"><ele>755.5</ele><time>2026-04-28T15:58:18.999Z</time></trkpt><trkpt lat="37.978283504358664" lon="15.260400372244579"><ele>757.0</ele><time>2026-04-28T15:58:19.999Z</time></trkpt><trkpt lat="37.97832587152854" lon="15.260273351779691"><ele>758.5</ele><time>2026-04-28T15:58:20.999Z</time></trkpt><trkpt lat="37.97835879688012" lon="15.260141355877698"><ele>760.0</ele><time>2026-04-28T15:58:21.999Z</time></trkpt><trkpt lat="37.97838286771595" lon="15.260014562449092"><ele>753.6666666666667</ele><time>2026-04-28T15:58:22.999Z</time></trkpt><trkpt lat="37.978396454164475" lon="15.259898900715633"><ele>747.3333333333334</ele><time>2026-04-28T15:58:23.999Z</time></trkpt><trkpt lat="37.97841450020432" lon="15.259813984798075"><ele>741.0</ele><time>2026-04-28T15:58:24.999Z</time></trkpt><trkpt lat="37.97845275242882" lon="15.259736600861142"><ele>734.6666666666666</ele><time>2026-04-28T15:58:25.999Z</time></trkpt><trkpt lat="37.9785208415319" lon="15.259660703653358"><ele>728.3333333333333</ele><time>2026-04-28T15:58:26.999Z</time></trkpt><trkpt lat="37.9785663539974" lon="15.259573750308936"><ele>722.0</ele><time>2026-04-28T15:58:27.999Z</time></trkpt><trkpt lat="37.978581814843444" lon="15.259451318868406"><ele>722.0</ele><time>2026-04-28T15:58:28.999Z</time></trkpt><trkpt lat="37.97857968580932" lon="15.259306304361523"><ele>722.0</ele><time>2026-04-28T15:58:29.999Z</time></trkpt><trkpt lat="37.97857330877535" lon="15.259148918757399"><ele>722.0</ele><time>2026-04-28T15:58:30.999Z</time></trkpt><trkpt lat="37.97857201779642" lon="15.258998100733999"><ele>722.0</ele><time>2026-04-28T15:58:31.999Z</time></trkpt><trkpt lat="37.97858401671229" lon="15.258877121303282"><ele>725.3333333333333</ele><time>2026-04-28T15:58:33Z</time></trkpt><trkpt lat="37.9786072004022" lon="15.258784445161295"><ele>728.6666666666666</ele><time>2026-04-28T15:58:34Z</time></trkpt><trkpt lat="37.978648808618225" lon="15.258690278422517"><ele>732.0</ele><time>2026-04-28T15:58:35Z</time></trkpt><trkpt lat="37.978696824534694" lon="15.258585915418681"><ele>735.3333333333334</ele><time>2026-04-28T15:58:36Z</time></trkpt><trkpt lat="37.97874783908564" lon="15.258488193111786"><ele>738.6666666666667</ele><time>2026-04-28T15:58:37Z</time></trkpt><trkpt lat="37.978823114454045" lon="15.258407276746341"><ele>742.0</ele><time>2026-04-28T15:58:38Z</time></trkpt><trkpt lat="37.97892193456002" lon="15.258307080548269"><ele>742.0</ele><time>2026-04-28T15:58:39Z</time></trkpt><trkpt lat="37.9790135659509" lon="15.258195599955283"><ele>742.0</ele><time>2026-04-28T15:58:40Z</time></trkpt><trkpt lat="37.97910088020669" lon="15.258085311753934"><ele>742.0</ele><time>2026-04-28T15:58:41Z</time></trkpt><trkpt lat="37.97920370381603" lon="15.25798200804743"><ele>742.0</ele><time>2026-04-28T15:58:42Z</time></trkpt><trkpt lat="37.97926272558764" lon="15.25792115146031"><ele>743.2</ele><time>2026-04-28T15:58:43Z</time></trkpt><trkpt lat="37.97933016263602" lon="15.257757394655744"><ele>744.4000000000001</ele><time>2026-04-28T15:58:45Z</time></trkpt><trkpt lat="37.97938759034397" lon="15.257699157024755"><ele>745.5999999999999</ele><time>2026-04-28T15:58:46Z</time></trkpt><trkpt lat="37.979449281653025" lon="15.257724066280016"><ele>746.8</ele><time>2026-04-28T15:58:47Z</time></trkpt><trkpt lat="37.97951890500309" lon="15.257732160527938"><ele>748.0</ele><time>2026-04-28T15:58:48Z</time></trkpt><trkpt lat="37.97961491658464" lon="15.2577275970509"><ele>748.0</ele><time>2026-04-28T15:58:50Z</time></trkpt><trkpt lat="37.979656720719994" lon="15.25765931738458"><ele>748.0</ele><time>2026-04-28T15:58:51Z</time></trkpt><trkpt lat="37.97968939838213" lon="15.257556559111745"><ele>748.0</ele><time>2026-04-28T15:58:52Z</time></trkpt><trkpt lat="37.97974139643398" lon="15.257433300894494"><ele>748.0</ele><time>2026-04-28T15:58:53Z</time></trkpt><trkpt lat="37.97980013710945" lon="15.25736619786716"><ele>748.0</ele><time>2026-04-28T15:58:54Z</time></trkpt><trkpt lat="37.979884668312586" lon="15.257329890479499"><ele>748.0</ele><time>2026-04-28T15:58:55Z</time></trkpt><trkpt lat="37.979973488294284" lon="15.257344828981728"><ele>745.3333333333334</ele><time>2026-04-28T15:58:56Z</time></trkpt><trkpt lat="37.98005392123825" lon="15.257364729487962"><ele>742.6666666666667</ele><time>2026-04-28T15:58:57Z</time></trkpt><trkpt lat="37.980118775477244" lon="15.257365572218614"><ele>740.0</ele><time>2026-04-28T15:58:58Z</time></trkpt><trkpt lat="37.98015536910303" lon="15.257225112804251"><ele>737.3333333333334</ele><time>2026-04-28T15:59:00Z</time></trkpt><trkpt lat="37.98017677829631" lon="15.257148887721746"><ele>734.6666666666666</ele><time>2026-04-28T15:59:01Z</time></trkpt><trkpt lat="37.98017940881571" lon="15.257029841301048"><ele>732.0</ele><time>2026-04-28T15:59:02Z</time></trkpt><trkpt lat="37.98018805087316" lon="15.256896009759343"><ele>732.0</ele><time>2026-04-28T15:59:03Z</time></trkpt><trkpt lat="37.980206735294" lon="15.256752196112416"><ele>732.0</ele><time>2026-04-28T15:59:04Z</time></trkpt><trkpt lat="37.98023506863282" lon="15.256634027298132"><ele>732.0</ele><time>2026-04-28T15:59:05Z</time></trkpt><trkpt lat="37.98025767422198" lon="15.25653452800029"><ele>732.0</ele><time>2026-04-28T15:59:06Z</time></trkpt><trkpt lat="37.980277261035" lon="15.256454851529444"><ele>732.0</ele><time>2026-04-28T15:59:07Z</time></trkpt><trkpt lat="37.980292878248925" lon="15.256366602106283"><ele>732.0</ele><time>2026-04-28T15:59:09Z</time></trkpt><trkpt lat="37.98021680786023" lon="15.256277180368777"><ele>732.6</ele><time>2026-04-28T15:59:11Z</time></trkpt><trkpt lat="37.98010528288877" lon="15.256254475760743"><ele>733.2</ele><time>2026-04-28T15:59:12Z</time></trkpt><trkpt lat="37.98001394542763" lon="15.2562167501468"><ele>733.8</ele><time>2026-04-28T15:59:13Z</time></trkpt><trkpt lat="37.97993059908646" lon="15.256166998074129"><ele>734.4</ele><time>2026-04-28T15:59:14Z</time></trkpt><trkpt lat="37.97986283292494" lon="15.256115607940588"><ele>735.0</ele><time>2026-04-28T15:59:15Z</time></trkpt><trkpt lat="37.979787684098525" lon="15.256064804125886"><ele>734.0</ele><time>2026-04-28T15:59:16Z</time></trkpt><trkpt lat="37.97971417474642" lon="15.25600583732486"><ele>733.0</ele><time>2026-04-28T15:59:17Z</time></trkpt><trkpt lat="37.97964919531537" lon="15.255944975680437"><ele>732.0</ele><time>2026-04-28T15:59:18Z</time></trkpt><trkpt lat="37.9795823644035" lon="15.255883358593728"><ele>731.0</ele><time>2026-04-28T15:59:19Z</time></trkpt><trkpt lat="37.97950466736157" lon="15.25583781822855"><ele>730.0</ele><time>2026-04-28T15:59:20Z</time></trkpt><trkpt lat="37.979424648120485" lon="15.255801677117674"><ele>729.0</ele><time>2026-04-28T15:59:21Z</time></trkpt><trkpt lat="37.979350099377754" lon="15.255746257587768"><ele>729.0</ele><time>2026-04-28T15:59:22Z</time></trkpt><trkpt lat="37.97929046330197" lon="15.255671081668789"><ele>729.0</ele><time>2026-04-28T15:59:23Z</time></trkpt><trkpt lat="37.97923907871739" lon="15.255591256727197"><ele>729.0</ele><time>2026-04-28T15:59:24Z</time></trkpt><trkpt lat="37.97917372063458" lon="15.255515066596102"><ele>729.0</ele><time>2026-04-28T15:59:25Z</time></trkpt><trkpt lat="37.97909476399734" lon="15.25543886550463"><ele>729.0</ele><time>2026-04-28T15:59:26Z</time></trkpt><trkpt lat="37.979022650838225" lon="15.255375210957308"><ele>729.0</ele><time>2026-04-28T15:59:27Z</time></trkpt><trkpt lat="37.978963046553105" lon="15.25531486555347"><ele>725.6666666666666</ele><time>2026-04-28T15:59:28Z</time></trkpt><trkpt lat="37.97891149076259" lon="15.255261328310713"><ele>722.3333333333334</ele><time>2026-04-28T15:59:29Z</time></trkpt><trkpt lat="37.97881650596963" lon="15.255204437053525"><ele>719.0</ele><time>2026-04-28T15:59:31Z</time></trkpt><trkpt lat="37.97873448838604" lon="15.255263075451397"><ele>715.6666666666667</ele><time>2026-04-28T15:59:33Z</time></trkpt><trkpt lat="37.97870367206862" lon="15.255335255252392"><ele>712.3333333333334</ele><time>2026-04-28T15:59:34Z</time></trkpt><trkpt lat="37.97867302276671" lon="15.255460700208399"><ele>709.0</ele><time>2026-04-28T15:59:36Z</time></trkpt><trkpt lat="37.97856324536043" lon="15.255477781755996"><ele>709.0</ele><time>2026-04-28T15:59:38Z</time></trkpt><trkpt lat="37.978499390661064" lon="15.255412793305462"><ele>709.0</ele><time>2026-04-28T15:59:40Z</time></trkpt><trkpt lat="37.978540030903474" lon="15.255328744190702"><ele>709.0</ele><time>2026-04-28T15:59:42Z</time></trkpt><trkpt lat="37.978597279951565" lon="15.25529547658346"><ele>709.0</ele><time>2026-04-28T15:59:43Z</time></trkpt><trkpt lat="37.97865316418988" lon="15.255206576352352"><ele>709.0</ele><time>2026-04-28T15:59:45Z</time></trkpt><trkpt lat="37.978565732743796" lon="15.255166796383921"><ele>709.0</ele><time>2026-04-28T15:59:47Z</time></trkpt><trkpt lat="37.97850267912776" lon="15.25520196313902"><ele>709.0</ele><time>2026-04-28T15:59:48Z</time></trkpt><trkpt lat="37.978425402293446" lon="15.255277161796958"><ele>709.0</ele><time>2026-04-28T15:59:48.999Z</time></trkpt><trkpt lat="37.97834974441122" lon="15.255330174302959"><ele>709.0</ele><time>2026-04-28T15:59:49.999Z</time></trkpt><trkpt lat="37.978273613201914" lon="15.2553454618522"><ele>709.0</ele><time>2026-04-28T15:59:50.999Z</time></trkpt><trkpt lat="37.97818903792107" lon="15.255338769124547"><ele>709.0</ele><time>2026-04-28T15:59:51.999Z</time></trkpt><trkpt lat="37.978092396342234" lon="15.25530690608942"><ele>709.0</ele><time>2026-04-28T15:59:52.999Z</time></trkpt><trkpt lat="37.977992669195274" lon="15.255273260202353"><ele>708.5</ele><time>2026-04-28T15:59:53.999Z</time></trkpt><trkpt lat="37.97788128996907" lon="15.255264207920066"><ele>708.0</ele><time>2026-04-28T15:59:54.999Z</time></trkpt><trkpt lat="37.9777518178402" lon="15.255291490333194"><ele>707.5</ele><time>2026-04-28T15:59:55.999Z</time></trkpt><trkpt lat="37.977622390392355" lon="15.255347775832414"><ele>707.0</ele><time>2026-04-28T15:59:56.999Z</time></trkpt><trkpt lat="37.977509954883665" lon="15.255397668142942"><ele>704.0</ele><time>2026-04-28T15:59:57.999Z</time></trkpt><trkpt lat="37.97740302268618" lon="15.255427785177616"><ele>701.0</ele><time>2026-04-28T15:59:58.999Z</time></trkpt><trkpt lat="37.97729936985218" lon="15.255453125108708"><ele>698.0</ele><time>2026-04-28T15:59:59.999Z</time></trkpt><trkpt lat="37.97720969184318" lon="15.25547471045275"><ele>695.0</ele><time>2026-04-28T16:00:00.999Z</time></trkpt><trkpt lat="37.977132083097686" lon="15.255474497385777"><ele>692.0</ele><time>2026-04-28T16:00:01.999Z</time></trkpt><trkpt lat="37.97707056857188" lon="15.255438079729116"><ele>692.0</ele><time>2026-04-28T16:00:02.999Z</time></trkpt><trkpt lat="37.97700062894927" lon="15.255357802447978"><ele>692.0</ele><time>2026-04-28T16:00:03.999Z</time></trkpt><trkpt lat="37.97691901614467" lon="15.255252648466561"><ele>692.0</ele><time>2026-04-28T16:00:04.999Z</time></trkpt><trkpt lat="37.97684704285425" lon="15.255141002462693"><ele>692.0</ele><time>2026-04-28T16:00:05.999Z</time></trkpt><trkpt lat="37.97678542265351" lon="15.255035306517025"><ele>692.0</ele><time>2026-04-28T16:00:06.999Z</time></trkpt><trkpt lat="37.97672483693749" lon="15.254943022365714"><ele>691.2</ele><time>2026-04-28T16:00:07.999Z</time></trkpt><trkpt lat="37.976655429898656" lon="15.254861764351928"><ele>690.4000000000001</ele><time>2026-04-28T16:00:08.999Z</time></trkpt><trkpt lat="37.97656835765334" lon="15.254807668951289"><ele>689.5999999999999</ele><time>2026-04-28T16:00:09.999Z</time></trkpt><trkpt lat="37.976462827467486" lon="15.254797716645294"><ele>688.8</ele><time>2026-04-28T16:00:10.999Z</time></trkpt><trkpt lat="37.97633446205225" lon="15.254813936222806"><ele>688.0</ele><time>2026-04-28T16:00:11.999Z</time></trkpt><trkpt lat="37.97620491751232" lon="15.25483671307207"><ele>688.0</ele><time>2026-04-28T16:00:12.999Z</time></trkpt><trkpt lat="37.97608747967402" lon="15.254865800740491"><ele>688.0</ele><time>2026-04-28T16:00:13.999Z</time></trkpt><trkpt lat="37.97598306986515" lon="15.254892212769809"><ele>688.0</ele><time>2026-04-28T16:00:14.999Z</time></trkpt><trkpt lat="37.975911424536214" lon="15.254922727390898"><ele>688.0</ele><time>2026-04-28T16:00:15.999Z</time></trkpt><trkpt lat="37.97582292951996" lon="15.254924864818056"><ele>688.0</ele><time>2026-04-28T16:00:17.999Z</time></trkpt><trkpt lat="37.975782211865564" lon="15.254827256702487"><ele>683.5999999999999</ele><time>2026-04-28T16:00:19.999Z</time></trkpt><trkpt lat="37.97580348498508" lon="15.25473831730556"><ele>679.1999999999999</ele><time>2026-04-28T16:00:20.999Z</time></trkpt><trkpt lat="37.97587458223987" lon="15.254633769677866"><ele>674.8</ele><time>2026-04-28T16:00:21.999Z</time></trkpt><trkpt lat="37.97597010901445" lon="15.254549007095566"><ele>670.4</ele><time>2026-04-28T16:00:22.999Z</time></trkpt><trkpt lat="37.97607869512747" lon="15.254477347197856"><ele>666.0</ele><time>2026-04-28T16:00:23.999Z</time></trkpt><trkpt lat="37.976185273400326" lon="15.254401713819862"><ele>666.0</ele><time>2026-04-28T16:00:24.999Z</time></trkpt><trkpt lat="37.97627260200148" lon="15.254310603771517"><ele>666.0</ele><time>2026-04-28T16:00:25.999Z</time></trkpt><trkpt lat="37.976342228511626" lon="15.254213400360912"><ele>666.0</ele><time>2026-04-28T16:00:26.999Z</time></trkpt><trkpt lat="37.97641283818972" lon="15.254119489741194"><ele>666.0</ele><time>2026-04-28T16:00:27.999Z</time></trkpt><trkpt lat="37.97649409948691" lon="15.254055048484588"><ele>666.0</ele><time>2026-04-28T16:00:28.999Z</time></trkpt><trkpt lat="37.97657367192394" lon="15.253991928815884"><ele>665.8333333333334</ele><time>2026-04-28T16:00:29.999Z</time></trkpt><trkpt lat="37.9766471771614" lon="15.253928236207818"><ele>665.6666666666666</ele><time>2026-04-28T16:00:30.999Z</time></trkpt><trkpt lat="37.9767251255644" lon="15.253888360203025"><ele>665.5</ele><time>2026-04-28T16:00:31.999Z</time></trkpt><trkpt lat="37.97680722102091" lon="15.253892249068468"><ele>665.3333333333333</ele><time>2026-04-28T16:00:32.999Z</time></trkpt><trkpt lat="37.97689147179219" lon="15.253928618532681"><ele>665.1666666666666</ele><time>2026-04-28T16:00:33.999Z</time></trkpt><trkpt lat="37.97695505903693" lon="15.253978479050309"><ele>665.0</ele><time>2026-04-28T16:00:34.999Z</time></trkpt><trkpt lat="37.977001697779194" lon="15.254047450893102"><ele>665.0</ele><time>2026-04-28T16:00:35.999Z</time></trkpt><trkpt lat="37.977038976343614" lon="15.254170062030068"><ele>665.0</ele><time>2026-04-28T16:00:36.999Z</time></trkpt><trkpt lat="37.97707546914183" lon="15.254305633009338"><ele>665.0</ele><time>2026-04-28T16:00:37.999Z</time></trkpt><trkpt lat="37.97711256639969" lon="15.254371903999454"><ele>665.0</ele><time>2026-04-28T16:00:39Z</time></trkpt><trkpt lat="37.977210762031824" lon="15.254363514535658"><ele>665.0</ele><time>2026-04-28T16:00:41Z</time></trkpt><trkpt lat="37.97725998380147" lon="15.254303399801445"><ele>665.0</ele><time>2026-04-28T16:00:42Z</time></trkpt><trkpt lat="37.97728841447599" lon="15.25422002297695"><ele>665.0</ele><time>2026-04-28T16:00:43Z</time></trkpt><trkpt lat="37.97731979064134" lon="15.254130188566748"><ele>665.0</ele><time>2026-04-28T16:00:44Z</time></trkpt><trkpt lat="37.977363654216944" lon="15.254057047605423"><ele>665.0</ele><time>2026-04-28T16:00:45Z</time></trkpt><trkpt lat="37.97743370579741" lon="15.25401448761247"><ele>665.0</ele><time>2026-04-28T16:00:46Z</time></trkpt><trkpt lat="37.97751935100088" lon="15.253981885544693"><ele>665.0</ele><time>2026-04-28T16:00:47Z</time></trkpt><trkpt lat="37.97760563619514" lon="15.253929358000905"><ele>665.0</ele><time>2026-04-28T16:00:48Z</time></trkpt><trkpt lat="37.97769114559789" lon="15.25388457557213"><ele>664.4</ele><time>2026-04-28T16:00:49Z</time></trkpt><trkpt lat="37.97777014303627" lon="15.253858949210743"><ele>663.8</ele><time>2026-04-28T16:00:50Z</time></trkpt><trkpt lat="37.977828240964314" lon="15.253812472114141"><ele>663.2</ele><time>2026-04-28T16:00:51Z</time></trkpt><trkpt lat="37.977845366489596" lon="15.253668014861885"><ele>662.6</ele><time>2026-04-28T16:00:53Z</time></trkpt><trkpt lat="37.9778138154014" lon="15.253559729833073"><ele>662.0</ele><time>2026-04-28T16:00:54Z</time></trkpt><trkpt lat="37.97777507241954" lon="15.25344444457482"><ele>662.0</ele><time>2026-04-28T16:00:55Z</time></trkpt><trkpt lat="37.97774904917156" lon="15.253331029783089"><ele>662.0</ele><time>2026-04-28T16:00:56Z</time></trkpt><trkpt lat="37.97775028187283" lon="15.253220625883353"><ele>662.0</ele><time>2026-04-28T16:00:57Z</time></trkpt><trkpt lat="37.977768357822335" lon="15.253135196722413"><ele>662.0</ele><time>2026-04-28T16:00:58Z</time></trkpt><trkpt lat="37.97781700752323" lon="15.253065264842139"><ele>662.0</ele><time>2026-04-28T16:00:59Z</time></trkpt><trkpt lat="37.97790730856426" lon="15.253000761877244"><ele>662.0</ele><time>2026-04-28T16:01:00Z</time></trkpt><trkpt lat="37.97800015558517" lon="15.252908054989602"><ele>657.4</ele><time>2026-04-28T16:01:01Z</time></trkpt><trkpt lat="37.97805869072396" lon="15.252784429500554"><ele>652.8000000000001</ele><time>2026-04-28T16:01:02Z</time></trkpt><trkpt lat="37.97808366136908" lon="15.252648579356912"><ele>648.2</ele><time>2026-04-28T16:01:03Z</time></trkpt><trkpt lat="37.9781064881565" lon="15.252538896815263"><ele>643.6</ele><time>2026-04-28T16:01:04Z</time></trkpt><trkpt lat="37.97813490497691" lon="15.25245583425168"><ele>639.0</ele><time>2026-04-28T16:01:05Z</time></trkpt><trkpt lat="37.978129966989385" lon="15.252351424991943"><ele>639.0</ele><time>2026-04-28T16:01:07Z</time></trkpt><trkpt lat="37.97800919278367" lon="15.252352825994036"><ele>639.0</ele><time>2026-04-28T16:01:09Z</time></trkpt><trkpt lat="37.97793023760287" lon="15.252443412415241"><ele>639.0</ele><time>2026-04-28T16:01:10Z</time></trkpt><trkpt lat="37.97785894573457" lon="15.252572833699093"><ele>639.0</ele><time>2026-04-28T16:01:11Z</time></trkpt><trkpt lat="37.97781476448602" lon="15.252674676157923"><ele>639.0</ele><time>2026-04-28T16:01:12Z</time></trkpt><trkpt lat="37.97775008736111" lon="15.25272041177914"><ele>639.0</ele><time>2026-04-28T16:01:14Z</time></trkpt><trkpt lat="37.97772042247671" lon="15.252596690785442"><ele>639.0</ele><time>2026-04-28T16:01:16Z</time></trkpt><trkpt lat="37.97777214458913" lon="15.252497565610602"><ele>639.0</ele><time>2026-04-28T16:01:17Z</time></trkpt><trkpt lat="37.977846310871215" lon="15.252374808885369"><ele>639.0</ele><time>2026-04-28T16:01:18Z</time></trkpt><trkpt lat="37.97790773058699" lon="15.252236905929045"><ele>639.0</ele><time>2026-04-28T16:01:19Z</time></trkpt><trkpt lat="37.977974670736934" lon="15.252122118309916"><ele>633.4</ele><time>2026-04-28T16:01:20Z</time></trkpt><trkpt lat="37.978049614744286" lon="15.25201310478679"><ele>627.8</ele><time>2026-04-28T16:01:21Z</time></trkpt><trkpt lat="37.97812276290302" lon="15.25191503383297"><ele>622.2</ele><time>2026-04-28T16:01:22Z</time></trkpt><trkpt lat="37.97820275684474" lon="15.251831638026117"><ele>616.6</ele><time>2026-04-28T16:01:23Z</time></trkpt><trkpt lat="37.97829968404169" lon="15.251774396151871"><ele>611.0</ele><time>2026-04-28T16:01:24Z</time></trkpt><trkpt lat="37.97838598474163" lon="15.251727919816016"><ele>608.4</ele><time>2026-04-28T16:01:25Z</time></trkpt><trkpt lat="37.97846705738837" lon="15.251688084197944"><ele>605.8</ele><time>2026-04-28T16:01:26Z</time></trkpt><trkpt lat="37.97855669878688" lon="15.251674846714526"><ele>603.1999999999999</ele><time>2026-04-28T16:01:27Z</time></trkpt><trkpt lat="37.97865159671011" lon="15.251686634798428"><ele>600.6</ele><time>2026-04-28T16:01:28Z</time></trkpt><trkpt lat="37.97874427143533" lon="15.251699570325309"><ele>598.0</ele><time>2026-04-28T16:01:29Z</time></trkpt><trkpt lat="37.97884177953539" lon="15.251697238463546"><ele>598.0</ele><time>2026-04-28T16:01:30Z</time></trkpt><trkpt lat="37.97893105961166" lon="15.251680539260805"><ele>598.0</ele><time>2026-04-28T16:01:31Z</time></trkpt><trkpt lat="37.97900822681014" lon="15.251643571952197"><ele>598.0</ele><time>2026-04-28T16:01:32Z</time></trkpt><trkpt lat="37.979082406086185" lon="15.251607197103574"><ele>598.0</ele><time>2026-04-28T16:01:33Z</time></trkpt><trkpt lat="37.97915330603039" lon="15.251595853892947"><ele>598.0</ele><time>2026-04-28T16:01:34Z</time></trkpt><trkpt lat="37.979217185267416" lon="15.251641914624491"><ele>598.0</ele><time>2026-04-28T16:01:35Z</time></trkpt><trkpt lat="37.97928266915367" lon="15.251754654180614"><ele>599.0</ele><time>2026-04-28T16:01:36Z</time></trkpt><trkpt lat="37.97935371848227" lon="15.25187942215146"><ele>600.0</ele><time>2026-04-28T16:01:37Z</time></trkpt><trkpt lat="37.979435915271004" lon="15.251981685105948"><ele>601.0</ele><time>2026-04-28T16:01:38Z</time></trkpt><trkpt lat="37.9795358911542" lon="15.252052242494953"><ele>602.0</ele><time>2026-04-28T16:01:39Z</time></trkpt><trkpt lat="37.9796444461734" lon="15.252088025624007"><ele>602.0</ele><time>2026-04-28T16:01:40Z</time></trkpt><trkpt lat="37.97974304258328" lon="15.25210416665745"><ele>602.0</ele><time>2026-04-28T16:01:41Z</time></trkpt><trkpt lat="37.9798088779512" lon="15.25211850657477"><ele>602.0</ele><time>2026-04-28T16:01:42Z</time></trkpt><trkpt lat="37.97988355053479" lon="15.25205167553273"><ele>602.0</ele><time>2026-04-28T16:01:44Z</time></trkpt><trkpt lat="37.97989358176165" lon="15.251952263188608"><ele>602.0</ele><time>2026-04-28T16:01:45Z</time></trkpt><trkpt lat="37.97988385132042" lon="15.25183054575004"><ele>602.0</ele><time>2026-04-28T16:01:46Z</time></trkpt><trkpt lat="37.97990159734527" lon="15.251735516202647"><ele>602.0</ele><time>2026-04-28T16:01:47Z</time></trkpt><trkpt lat="37.979960389031106" lon="15.251668964054584"><ele>602.0</ele><time>2026-04-28T16:01:48Z</time></trkpt><trkpt lat="37.97999487467253" lon="15.251586005607507"><ele>602.0</ele><time>2026-04-28T16:01:48.999Z</time></trkpt><trkpt lat="37.97999474356006" lon="15.25149902264563"><ele>602.0</ele><time>2026-04-28T16:01:49.999Z</time></trkpt><trkpt lat="37.97995801713813" lon="15.25139900341681"><ele>602.0</ele><time>2026-04-28T16:01:50.999Z</time></trkpt><trkpt lat="37.97991814445354" lon="15.251270748155646"><ele>602.0</ele><time>2026-04-28T16:01:51.999Z</time></trkpt><trkpt lat="37.97990924209309" lon="15.251135980775961"><ele>600.75</ele><time>2026-04-28T16:01:52.999Z</time></trkpt><trkpt lat="37.979908975226614" lon="15.250990102731219"><ele>599.5</ele><time>2026-04-28T16:01:53.999Z</time></trkpt><trkpt lat="37.979888663547435" lon="15.250832942266312"><ele>598.25</ele><time>2026-04-28T16:01:54.999Z</time></trkpt><trkpt lat="37.97986071370155" lon="15.250677991500774"><ele>597.0</ele><time>2026-04-28T16:01:55.999Z</time></trkpt><trkpt lat="37.97981407601216" lon="15.250544695590419"><ele>599.4</ele><time>2026-04-28T16:01:56.999Z</time></trkpt><trkpt lat="37.97975622646724" lon="15.250441863240194"><ele>601.8000000000001</ele><time>2026-04-28T16:01:57.999Z</time></trkpt><trkpt lat="37.979689478958626" lon="15.250355524571992"><ele>604.2</ele><time>2026-04-28T16:01:58.999Z</time></trkpt><trkpt lat="37.979602737356174" lon="15.250283804703399"><ele>606.6</ele><time>2026-04-28T16:01:59.999Z</time></trkpt><trkpt lat="37.97951525078837" lon="15.250222076620394"><ele>609.0</ele><time>2026-04-28T16:02:00.999Z</time></trkpt><trkpt lat="37.97946007485763" lon="15.250153872428927"><ele>609.0</ele><time>2026-04-28T16:02:01.999Z</time></trkpt><trkpt lat="37.979431473748335" lon="15.250066330126502"><ele>609.0</ele><time>2026-04-28T16:02:02.999Z</time></trkpt><trkpt lat="37.97942909400956" lon="15.24996287794792"><ele>609.0</ele><time>2026-04-28T16:02:03.999Z</time></trkpt><trkpt lat="37.979455386463265" lon="15.249833591864155"><ele>609.0</ele><time>2026-04-28T16:02:04.999Z</time></trkpt><trkpt lat="37.97948589066235" lon="15.249683030252697"><ele>609.0</ele><time>2026-04-28T16:02:05.999Z</time></trkpt><trkpt lat="37.979481856186844" lon="15.249528321204835"><ele>613.75</ele><time>2026-04-28T16:02:06.999Z</time></trkpt><trkpt lat="37.97943079886789" lon="15.249379608193506"><ele>618.5</ele><time>2026-04-28T16:02:07.999Z</time></trkpt><trkpt lat="37.97936598920501" lon="15.249239810684406"><ele>623.25</ele><time>2026-04-28T16:02:08.999Z</time></trkpt><trkpt lat="37.979319907802186" lon="15.249112806905332"><ele>628.0</ele><time>2026-04-28T16:02:09.999Z</time></trkpt><trkpt lat="37.97925778131388" lon="15.24900852527049"><ele>629.1999999999999</ele><time>2026-04-28T16:02:10.999Z</time></trkpt><trkpt lat="37.97919008119624" lon="15.248920229852748"><ele>630.4</ele><time>2026-04-28T16:02:11.999Z</time></trkpt><trkpt lat="37.97914325040439" lon="15.248828582489507"><ele>631.5999999999999</ele><time>2026-04-28T16:02:12.999Z</time></trkpt><trkpt lat="37.97912336634811" lon="15.24872175540384"><ele>632.8</ele><time>2026-04-28T16:02:13.999Z</time></trkpt><trkpt lat="37.979124125963295" lon="15.248577149006273"><ele>634.0</ele><time>2026-04-28T16:02:14.999Z</time></trkpt><trkpt lat="37.979137971538236" lon="15.248404415568112"><ele>624.0</ele><time>2026-04-28T16:02:15.999Z</time></trkpt><trkpt lat="37.97914746599866" lon="15.248217824486241"><ele>614.0</ele><time>2026-04-28T16:02:16.999Z</time></trkpt><trkpt lat="37.97913299744446" lon="15.248039805311986"><ele>604.0</ele><time>2026-04-28T16:02:17.999Z</time></trkpt><trkpt lat="37.97909890495387" lon="15.247873125804052"><ele>594.0</ele><time>2026-04-28T16:02:18.999Z</time></trkpt><trkpt lat="37.97908663834719" lon="15.247723826558735"><ele>594.0</ele><time>2026-04-28T16:02:19.999Z</time></trkpt><trkpt lat="37.979112377059785" lon="15.247555232457849"><ele>594.0</ele><time>2026-04-28T16:02:20.999Z</time></trkpt><trkpt lat="37.97915032639362" lon="15.247351892495264"><ele>594.0</ele><time>2026-04-28T16:02:21.999Z</time></trkpt><trkpt lat="37.979179590992864" lon="15.247160762782451"><ele>593.6666666666666</ele><time>2026-04-28T16:02:22.999Z</time></trkpt><trkpt lat="37.97919267795895" lon="15.246980305818212"><ele>593.3333333333333</ele><time>2026-04-28T16:02:23.999Z</time></trkpt><trkpt lat="37.979182876878404" lon="15.246781007970295"><ele>593.0</ele><time>2026-04-28T16:02:24.999Z</time></trkpt><trkpt lat="37.979156091920444" lon="15.246577473270657"><ele>592.5</ele><time>2026-04-28T16:02:25.999Z</time></trkpt><trkpt lat="37.97913761020196" lon="15.2463934702735"><ele>592.0</ele><time>2026-04-28T16:02:26.999Z</time></trkpt><trkpt lat="37.97913417743161" lon="15.246213119159105"><ele>591.5</ele><time>2026-04-28T16:02:27.999Z</time></trkpt><trkpt lat="37.979144542185445" lon="15.24603603126787"><ele>591.0</ele><time>2026-04-28T16:02:28.999Z</time></trkpt><trkpt lat="37.97915660333621" lon="15.245864168999079"><ele>591.0</ele><time>2026-04-28T16:02:29.999Z</time></trkpt><trkpt lat="37.97915387169303" lon="15.245703203813013"><ele>591.0</ele><time>2026-04-28T16:02:30.999Z</time></trkpt><trkpt lat="37.97914365742017" lon="15.245566808443918"><ele>591.0</ele><time>2026-04-28T16:02:31.999Z</time></trkpt><trkpt lat="37.97914968972094" lon="15.245468683972721"><ele>591.0</ele><time>2026-04-28T16:02:32.999Z</time></trkpt><trkpt lat="37.979190435519335" lon="15.245388842063825"><ele>591.0</ele><time>2026-04-28T16:02:33.999Z</time></trkpt><trkpt lat="37.97926929061971" lon="15.245290664264466"><ele>593.4</ele><time>2026-04-28T16:02:34.999Z</time></trkpt><trkpt lat="37.979330643937416" lon="15.24519776795428"><ele>595.8</ele><time>2026-04-28T16:02:35.999Z</time></trkpt><trkpt lat="37.979391700408776" lon="15.245120252879135"><ele>598.1999999999999</ele><time>2026-04-28T16:02:36.999Z</time></trkpt><trkpt lat="37.97949028151846" lon="15.245058570474258"><ele>600.6</ele><time>2026-04-28T16:02:37.999Z</time></trkpt><trkpt lat="37.97961608993013" lon="15.24498384483713"><ele>603.0</ele><time>2026-04-28T16:02:38.999Z</time></trkpt><trkpt lat="37.979736691326636" lon="15.24487688830449"><ele>596.1999999999999</ele><time>2026-04-28T16:02:39.999Z</time></trkpt><trkpt lat="37.97983027817871" lon="15.2447770841902"><ele>589.4</ele><time>2026-04-28T16:02:40.999Z</time></trkpt><trkpt lat="37.97989639829508" lon="15.244680757389395"><ele>582.5999999999999</ele><time>2026-04-28T16:02:41.999Z</time></trkpt><trkpt lat="37.979929022299984" lon="15.244557109151541"><ele>575.8</ele><time>2026-04-28T16:02:42.999Z</time></trkpt><trkpt lat="37.9799517397361" lon="15.244420498144788"><ele>569.0</ele><time>2026-04-28T16:02:43.999Z</time></trkpt><trkpt lat="37.97998687090206" lon="15.2443186123462"><ele>569.4</ele><time>2026-04-28T16:02:45Z</time></trkpt><trkpt lat="37.98005431061814" lon="15.244260285452727"><ele>569.8</ele><time>2026-04-28T16:02:46Z</time></trkpt><trkpt lat="37.98015548661931" lon="15.24424332583096"><ele>570.2</ele><time>2026-04-28T16:02:47Z</time></trkpt><trkpt lat="37.98027045681616" lon="15.244263589450966"><ele>570.6</ele><time>2026-04-28T16:02:48Z</time></trkpt><trkpt lat="37.980396477055756" lon="15.244323104564423"><ele>571.0</ele><time>2026-04-28T16:02:49Z</time></trkpt><trkpt lat="37.980521453324705" lon="15.244372102081922"><ele>571.0</ele><time>2026-04-28T16:02:50Z</time></trkpt><trkpt lat="37.98064616326799" lon="15.244407386102528"><ele>571.0</ele><time>2026-04-28T16:02:51Z</time></trkpt><trkpt lat="37.98077416387517" lon="15.24442998804982"><ele>571.0</ele><time>2026-04-28T16:02:52Z</time></trkpt><trkpt lat="37.98090654564771" lon="15.244453444571453"><ele>571.0</ele><time>2026-04-28T16:02:53Z</time></trkpt><trkpt lat="37.98103687374178" lon="15.24448722838448"><ele>567.75</ele><time>2026-04-28T16:02:54Z</time></trkpt><trkpt lat="37.981171857873605" lon="15.244544923981023"><ele>564.5</ele><time>2026-04-28T16:02:55Z</time></trkpt><trkpt lat="37.98130521485509" lon="15.244600046716275"><ele>561.25</ele><time>2026-04-28T16:02:56Z</time></trkpt><trkpt lat="37.981430634320674" lon="15.244660110693738"><ele>558.0</ele><time>2026-04-28T16:02:57Z</time></trkpt><trkpt lat="37.98156403619242" lon="15.244728160175255"><ele>557.5</ele><time>2026-04-28T16:02:58Z</time></trkpt><trkpt lat="37.981683248749256" lon="15.244793092343357"><ele>557.0</ele><time>2026-04-28T16:02:59Z</time></trkpt><trkpt lat="37.98179879312866" lon="15.244873650004605"><ele>556.5</ele><time>2026-04-28T16:03:00Z</time></trkpt><trkpt lat="37.981912913972934" lon="15.244945436427429"><ele>556.0</ele><time>2026-04-28T16:03:01Z</time></trkpt><trkpt lat="37.98203060085143" lon="15.245006567303562"><ele>556.0</ele><time>2026-04-28T16:03:02Z</time></trkpt><trkpt lat="37.98212468270206" lon="15.245061018901524"><ele>556.0</ele><time>2026-04-28T16:03:03Z</time></trkpt><trkpt lat="37.982192676713964" lon="15.245127507792207"><ele>556.0</ele><time>2026-04-28T16:03:04Z</time></trkpt><trkpt lat="37.98223333962876" lon="15.245207571455069"><ele>556.0</ele><time>2026-04-28T16:03:05Z</time></trkpt><trkpt lat="37.98228478272135" lon="15.245268571137"><ele>556.0</ele><time>2026-04-28T16:03:07Z</time></trkpt><trkpt lat="37.98231677874623" lon="15.245158570088941"><ele>556.0</ele><time>2026-04-28T16:03:09Z</time></trkpt><trkpt lat="37.98227962366886" lon="15.245074542100395"><ele>556.0</ele><time>2026-04-28T16:03:10Z</time></trkpt><trkpt lat="37.982215294536665" lon="15.244995854347716"><ele>556.0</ele><time>2026-04-28T16:03:11Z</time></trkpt><trkpt lat="37.982166437116476" lon="15.244924556084511"><ele>556.0</ele><time>2026-04-28T16:03:12Z</time></trkpt><trkpt lat="37.98210460120766" lon="15.244835041278433"><ele>556.0</ele><time>2026-04-28T16:03:14Z</time></trkpt><trkpt lat="37.982025090024905" lon="15.244758836137397"><ele>556.0</ele><time>2026-04-28T16:03:16Z</time></trkpt><trkpt lat="37.98190127728515" lon="15.244686725139688"><ele>556.4</ele><time>2026-04-28T16:03:18Z</time></trkpt><trkpt lat="37.981830368822365" lon="15.244619989431607"><ele>556.8</ele><time>2026-04-28T16:03:19Z</time></trkpt><trkpt lat="37.981772164523825" lon="15.244513739091976"><ele>557.1999999999999</ele><time>2026-04-28T16:03:20Z</time></trkpt><trkpt lat="37.98172683459436" lon="15.244402812763967"><ele>557.6</ele><time>2026-04-28T16:03:21Z</time></trkpt><trkpt lat="37.98166675683668" lon="15.244318686073456"><ele>558.0</ele><time>2026-04-28T16:03:22Z</time></trkpt><trkpt lat="37.98158100538539" lon="15.244272670157658"><ele>558.0</ele><time>2026-04-28T16:03:23Z</time></trkpt><trkpt lat="37.981497552136" lon="15.244274812519672"><ele>558.0</ele><time>2026-04-28T16:03:24Z</time></trkpt><trkpt lat="37.98142664238223" lon="15.244243917721308"><ele>558.0</ele><time>2026-04-28T16:03:26Z</time></trkpt><trkpt lat="37.98149517581279" lon="15.244133318184083"><ele>558.0</ele><time>2026-04-28T16:03:28Z</time></trkpt><trkpt lat="37.98160946507237" lon="15.244115325457871"><ele>558.0</ele><time>2026-04-28T16:03:29Z</time></trkpt><trkpt lat="37.98173869965309" lon="15.244120510337018"><ele>552.8</ele><time>2026-04-28T16:03:30Z</time></trkpt><trkpt lat="37.981828134487465" lon="15.244149641582219"><ele>547.5999999999999</ele><time>2026-04-28T16:03:31Z</time></trkpt><trkpt lat="37.9819056450276" lon="15.244219930133054"><ele>542.4000000000001</ele><time>2026-04-28T16:03:32Z</time></trkpt><trkpt lat="37.98198143026151" lon="15.24429749387171"><ele>537.2</ele><time>2026-04-28T16:03:33Z</time></trkpt><trkpt lat="37.9820473908036" lon="15.24432695601561"><ele>532.0</ele><time>2026-04-28T16:03:34Z</time></trkpt><trkpt lat="37.982131278889035" lon="15.244243047344455"><ele>532.0</ele><time>2026-04-28T16:03:36Z</time></trkpt><trkpt lat="37.98211688906591" lon="15.244141110083577"><ele>532.0</ele><time>2026-04-28T16:03:37Z</time></trkpt><trkpt lat="37.9820432260126" lon="15.244022673558794"><ele>532.0</ele><time>2026-04-28T16:03:38Z</time></trkpt><trkpt lat="37.98192107678472" lon="15.243904978047288"><ele>532.0</ele><time>2026-04-28T16:03:39Z</time></trkpt><trkpt lat="37.98183129040043" lon="15.243794170838596"><ele>529.8000000000001</ele><time>2026-04-28T16:03:40Z</time></trkpt><trkpt lat="37.98177138538075" lon="15.243697322208197"><ele>527.6</ele><time>2026-04-28T16:03:41Z</time></trkpt><trkpt lat="37.981701136634136" lon="15.243635160699379"><ele>525.4000000000001</ele><time>2026-04-28T16:03:42Z</time></trkpt><trkpt lat="37.981597762686455" lon="15.243600877883384"><ele>523.2</ele><time>2026-04-28T16:03:43Z</time></trkpt><trkpt lat="37.98149848940903" lon="15.243571917632739"><ele>521.0</ele><time>2026-04-28T16:03:44Z</time></trkpt><trkpt lat="37.98141381924969" lon="15.243530468278458"><ele>521.0</ele><time>2026-04-28T16:03:45Z</time></trkpt><trkpt lat="37.981333057349104" lon="15.243492226848"><ele>521.0</ele><time>2026-04-28T16:03:46Z</time></trkpt><trkpt lat="37.9812525622329" lon="15.243460839516665"><ele>521.0</ele><time>2026-04-28T16:03:47Z</time></trkpt><trkpt lat="37.9811810091317" lon="15.243438548039691"><ele>521.0</ele><time>2026-04-28T16:03:48Z</time></trkpt><trkpt lat="37.981120430467705" lon="15.243410397295344"><ele>521.0</ele><time>2026-04-28T16:03:49Z</time></trkpt><trkpt lat="37.98106013906762" lon="15.243375833734936"><ele>521.0</ele><time>2026-04-28T16:03:50Z</time></trkpt><trkpt lat="37.980983210465496" lon="15.243344021558878"><ele>523.75</ele><time>2026-04-28T16:03:51Z</time></trkpt><trkpt lat="37.98084711224269" lon="15.243289969007797"><ele>526.5</ele><time>2026-04-28T16:03:52Z</time></trkpt><trkpt lat="37.980716926125076" lon="15.243207872131448"><ele>529.25</ele><time>2026-04-28T16:03:53Z</time></trkpt><trkpt lat="37.98061068153129" lon="15.243089984039024"><ele>532.0</ele><time>2026-04-28T16:03:54Z</time></trkpt><trkpt lat="37.98052901289936" lon="15.242969308230423"><ele>524.6</ele><time>2026-04-28T16:03:55Z</time></trkpt><trkpt lat="37.98045247075192" lon="15.242864396828292"><ele>517.2</ele><time>2026-04-28T16:03:56Z</time></trkpt><trkpt lat="37.9803718166822" lon="15.242786287698204"><ele>509.8</ele><time>2026-04-28T16:03:57Z</time></trkpt><trkpt lat="37.980275040389145" lon="15.242736241045092"><ele>502.4</ele><time>2026-04-28T16:03:58Z</time></trkpt><trkpt lat="37.98018435893181" lon="15.24268794977104"><ele>495.0</ele><time>2026-04-28T16:03:59Z</time></trkpt><trkpt lat="37.98010265247812" lon="15.242615991500799"><ele>495.0</ele><time>2026-04-28T16:03:59.999Z</time></trkpt><trkpt lat="37.98003466409071" lon="15.24252641289508"><ele>495.0</ele><time>2026-04-28T16:04:00.999Z</time></trkpt><trkpt lat="37.97996912880402" lon="15.242433274498929"><ele>495.0</ele><time>2026-04-28T16:04:01.999Z</time></trkpt><trkpt lat="37.97990645636857" lon="15.242346101072295"><ele>495.0</ele><time>2026-04-28T16:04:02.999Z</time></trkpt><trkpt lat="37.979840691187604" lon="15.24228334426501"><ele>495.0</ele><time>2026-04-28T16:04:03.999Z</time></trkpt><trkpt lat="37.979770932034974" lon="15.242257547081422"><ele>495.0</ele><time>2026-04-28T16:04:04.999Z</time></trkpt><trkpt lat="37.97969899324697" lon="15.242272821611294"><ele>498.3333333333333</ele><time>2026-04-28T16:04:05.999Z</time></trkpt><trkpt lat="37.97961397877056" lon="15.24231837707073"><ele>501.66666666666663</ele><time>2026-04-28T16:04:06.999Z</time></trkpt><trkpt lat="37.97952390590811" lon="15.242351989209064"><ele>505.0</ele><time>2026-04-28T16:04:07.999Z</time></trkpt><trkpt lat="37.97944373584516" lon="15.242367634847863"><ele>508.3333333333333</ele><time>2026-04-28T16:04:08.999Z</time></trkpt><trkpt lat="37.97936338367579" lon="15.242392872511928"><ele>511.66666666666663</ele><time>2026-04-28T16:04:09.999Z</time></trkpt><trkpt lat="37.97929171387872" lon="15.242435067399644"><ele>515.0</ele><time>2026-04-28T16:04:10.999Z</time></trkpt><trkpt lat="37.97923550002532" lon="15.242476826437699"><ele>513.0</ele><time>2026-04-28T16:04:11.999Z</time></trkpt><trkpt lat="37.97916453474129" lon="15.242478293051638"><ele>511.0</ele><time>2026-04-28T16:04:13.999Z</time></trkpt><trkpt lat="37.979151554311194" lon="15.24233696492373"><ele>509.0</ele><time>2026-04-28T16:04:15.999Z</time></trkpt><trkpt lat="37.979209082150625" lon="15.242247225234289"><ele>507.0</ele><time>2026-04-28T16:04:16.999Z</time></trkpt><trkpt lat="37.97928540221579" lon="15.242170970568514"><ele>505.0</ele><time>2026-04-28T16:04:17.999Z</time></trkpt><trkpt lat="37.979385177521884" lon="15.242105932421692"><ele>498.5</ele><time>2026-04-28T16:04:18.999Z</time></trkpt><trkpt lat="37.97952099134873" lon="15.242054301601863"><ele>492.0</ele><time>2026-04-28T16:04:19.999Z</time></trkpt><trkpt lat="37.97965744713654" lon="15.242006526567346"><ele>485.5</ele><time>2026-04-28T16:04:20.999Z</time></trkpt><trkpt lat="37.97978133824812" lon="15.241967514574768"><ele>479.0</ele><time>2026-04-28T16:04:21.999Z</time></trkpt><trkpt lat="37.97988043704014" lon="15.2419614823584"><ele>478.99999999999994</ele><time>2026-04-28T16:04:22.999Z</time></trkpt><trkpt lat="37.979947631469244" lon="15.241962790417297"><ele>479.0</ele><time>2026-04-28T16:04:23.999Z</time></trkpt><trkpt lat="37.979992405538894" lon="15.241882351381236"><ele>479.0</ele><time>2026-04-28T16:04:25.999Z</time></trkpt><trkpt lat="37.979960543211284" lon="15.241809770675584"><ele>479.0</ele><time>2026-04-28T16:04:26.999Z</time></trkpt><trkpt lat="37.97988395441188" lon="15.241772430390817"><ele>478.99999999999994</ele><time>2026-04-28T16:04:27.999Z</time></trkpt><trkpt lat="37.9797701812377" lon="15.24178974540951"><ele>479.0</ele><time>2026-04-28T16:04:28.999Z</time></trkpt><trkpt lat="37.97962854715576" lon="15.241831870069932"><ele>479.0</ele><time>2026-04-28T16:04:29.999Z</time></trkpt><trkpt lat="37.97947217945253" lon="15.241859290054268"><ele>479.0</ele><time>2026-04-28T16:04:30.999Z</time></trkpt><trkpt lat="37.979320610367736" lon="15.24187722919359"><ele>479.0</ele><time>2026-04-28T16:04:31.999Z</time></trkpt><trkpt lat="37.97917811575874" lon="15.241870159301627"><ele>478.2</ele><time>2026-04-28T16:04:32.999Z</time></trkpt><trkpt lat="37.97904236432704" lon="15.241846576596899"><ele>477.4</ele><time>2026-04-28T16:04:33.999Z</time></trkpt><trkpt lat="37.97891802099053" lon="15.241866398685616"><ele>476.6</ele><time>2026-04-28T16:04:34.999Z</time></trkpt><trkpt lat="37.9788275162844" lon="15.241917228800112"><ele>475.8</ele><time>2026-04-28T16:04:35.999Z</time></trkpt><trkpt lat="37.97876439430261" lon="15.241981033062208"><ele>475.0</ele><time>2026-04-28T16:04:36.999Z</time></trkpt><trkpt lat="37.97872697079973" lon="15.24208424586929"><ele>475.0</ele><time>2026-04-28T16:04:37.999Z</time></trkpt><trkpt lat="37.97870843118783" lon="15.242233627073784"><ele>475.0</ele><time>2026-04-28T16:04:38.999Z</time></trkpt><trkpt lat="37.97870729528066" lon="15.242391792432418"><ele>475.0</ele><time>2026-04-28T16:04:39.999Z</time></trkpt><trkpt lat="37.97871093955584" lon="15.24253548085815"><ele>475.0</ele><time>2026-04-28T16:04:40.999Z</time></trkpt><trkpt lat="37.9786811684747" lon="15.24266608409749"><ele>474.0</ele><time>2026-04-28T16:04:41.999Z</time></trkpt><trkpt lat="37.97860485686711" lon="15.242770104431475"><ele>473.0</ele><time>2026-04-28T16:04:42.999Z</time></trkpt><trkpt lat="37.97850986935317" lon="15.24284376292476"><ele>472.0</ele><time>2026-04-28T16:04:43.999Z</time></trkpt><trkpt lat="37.978408056579745" lon="15.242888605235601"><ele>471.0</ele><time>2026-04-28T16:04:44.999Z</time></trkpt><trkpt lat="37.9783023536513" lon="15.242925754049855"><ele>470.0</ele><time>2026-04-28T16:04:45.999Z</time></trkpt><trkpt lat="37.978222801389194" lon="15.242965998221399"><ele>470.0</ele><time>2026-04-28T16:04:46.999Z</time></trkpt><trkpt lat="37.97812716853465" lon="15.243003708220854"><ele>470.0</ele><time>2026-04-28T16:04:48.999Z</time></trkpt><trkpt lat="37.97809136632206" lon="15.242902800680833"><ele>470.0</ele><time>2026-04-28T16:04:52Z</time></trkpt><trkpt lat="37.9781464657197" lon="15.24282499136412"><ele>470.0</ele><time>2026-04-28T16:04:53Z</time></trkpt><trkpt lat="37.9782293193877" lon="15.24273158238154"><ele>470.0</ele><time>2026-04-28T16:04:54Z</time></trkpt><trkpt lat="37.978295876552" lon="15.24264283769321"><ele>470.0</ele><time>2026-04-28T16:04:55Z</time></trkpt><trkpt lat="37.978347244496234" lon="15.24259106296212"><ele>470.0</ele><time>2026-04-28T16:04:56Z</time></trkpt><trkpt lat="37.97835850960135" lon="15.242496558252341"><ele>470.0</ele><time>2026-04-28T16:04:58Z</time></trkpt><trkpt lat="37.978218014695365" lon="15.24247377653298"><ele>470.0</ele><time>2026-04-28T16:05:00Z</time></trkpt><trkpt lat="37.97812698771661" lon="15.242540503543093"><ele>470.0</ele><time>2026-04-28T16:05:01Z</time></trkpt><trkpt lat="37.97804400634403" lon="15.242607996200354"><ele>469.99999999999994</ele><time>2026-04-28T16:05:02Z</time></trkpt><trkpt lat="37.97797547093485" lon="15.242638074875883"><ele>470.0</ele><time>2026-04-28T16:05:03Z</time></trkpt><trkpt lat="37.97791226039618" lon="15.242625536540015"><ele>470.0</ele><time>2026-04-28T16:05:04Z</time></trkpt><trkpt lat="37.97782459325796" lon="15.242598459181856"><ele>470.0</ele><time>2026-04-28T16:05:06Z</time></trkpt><trkpt lat="37.9778299086625" lon="15.24247353375586"><ele>469.99999999999994</ele><time>2026-04-28T16:05:09Z</time></trkpt><trkpt lat="37.977894935309706" lon="15.24240254587035"><ele>470.0</ele><time>2026-04-28T16:05:10Z</time></trkpt><trkpt lat="37.9780025956209" lon="15.242328551863514"><ele>467.4</ele><time>2026-04-28T16:05:11Z</time></trkpt><trkpt lat="37.97810851026687" lon="15.242243686014804"><ele>464.8</ele><time>2026-04-28T16:05:12Z</time></trkpt><trkpt lat="37.978200026375276" lon="15.242158296039598"><ele>462.20000000000005</ele><time>2026-04-28T16:05:13Z</time></trkpt><trkpt lat="37.978257518820456" lon="15.242066617309082"><ele>459.6</ele><time>2026-04-28T16:05:14Z</time></trkpt><trkpt lat="37.978274028352175" lon="15.24196771226493"><ele>457.0</ele><time>2026-04-28T16:05:15Z</time></trkpt><trkpt lat="37.97824939298803" lon="15.241849149767045"><ele>457.00000000000006</ele><time>2026-04-28T16:05:16Z</time></trkpt><trkpt lat="37.978208381527864" lon="15.241737577898682"><ele>457.0</ele><time>2026-04-28T16:05:17Z</time></trkpt><trkpt lat="37.978194585830536" lon="15.24163202526104"><ele>457.0</ele><time>2026-04-28T16:05:18Z</time></trkpt><trkpt lat="37.97821804727063" lon="15.241536357071809"><ele>457.0</ele><time>2026-04-28T16:05:19Z</time></trkpt><trkpt lat="37.978265242324696" lon="15.241456018292222"><ele>457.00000000000006</ele><time>2026-04-28T16:05:20Z</time></trkpt><trkpt lat="37.97830380720483" lon="15.241380024148798"><ele>457.0</ele><time>2026-04-28T16:05:21Z</time></trkpt><trkpt lat="37.97835267163262" lon="15.24131499339754"><ele>454.6</ele><time>2026-04-28T16:05:22Z</time></trkpt><trkpt lat="37.97843448471525" lon="15.241257202780423"><ele>452.20000000000005</ele><time>2026-04-28T16:05:23Z</time></trkpt><trkpt lat="37.97852583817486" lon="15.241226450140186"><ele>449.8</ele><time>2026-04-28T16:05:24Z</time></trkpt><trkpt lat="37.9786349707322" lon="15.2411918596268"><ele>447.4</ele><time>2026-04-28T16:05:25Z</time></trkpt><trkpt lat="37.97875591175335" lon="15.24115398047077"><ele>445.0</ele><time>2026-04-28T16:05:26Z</time></trkpt><trkpt lat="37.97889459238665" lon="15.241109099190883"><ele>445.0</ele><time>2026-04-28T16:05:27Z</time></trkpt><trkpt lat="37.979040672123965" lon="15.241052200390087"><ele>445.0</ele><time>2026-04-28T16:05:28Z</time></trkpt><trkpt lat="37.97917932367094" lon="15.240996593386642"><ele>445.0</ele><time>2026-04-28T16:05:29Z</time></trkpt><trkpt lat="37.979311812326245" lon="15.240937526559337"><ele>445.0</ele><time>2026-04-28T16:05:30Z</time></trkpt><trkpt lat="37.97943371572732" lon="15.240858438790623"><ele>443.75</ele><time>2026-04-28T16:05:31Z</time></trkpt><trkpt lat="37.979550866812424" lon="15.240749003385478"><ele>442.5</ele><time>2026-04-28T16:05:32Z</time></trkpt><trkpt lat="37.97967062535517" lon="15.240640505256446"><ele>441.25</ele><time>2026-04-28T16:05:33Z</time></trkpt><trkpt lat="37.97978519566259" lon="15.24055088370646"><ele>440.0</ele><time>2026-04-28T16:05:34Z</time></trkpt><trkpt lat="37.97988673130688" lon="15.240456760050467"><ele>440.0</ele><time>2026-04-28T16:05:35Z</time></trkpt><trkpt lat="37.97998146474203" lon="15.240388345790228"><ele>440.0</ele><time>2026-04-28T16:05:36Z</time></trkpt><trkpt lat="37.98007791538155" lon="15.24033326393383"><ele>440.0</ele><time>2026-04-28T16:05:37Z</time></trkpt><trkpt lat="37.98022424610995" lon="15.240337979470194"><ele>440.0</ele><time>2026-04-28T16:05:38Z</time></trkpt><trkpt lat="37.980372218699465" lon="15.240337968708817"><ele>444.0</ele><time>2026-04-28T16:05:39Z</time></trkpt><trkpt lat="37.98052360479311" lon="15.240305809656363"><ele>448.0</ele><time>2026-04-28T16:05:40Z</time></trkpt><trkpt lat="37.980668935369536" lon="15.24021829174543"><ele>452.0</ele><time>2026-04-28T16:05:41Z</time></trkpt><trkpt lat="37.98083075033834" lon="15.240104533126434"><ele>451.66666666666663</ele><time>2026-04-28T16:05:42Z</time></trkpt><trkpt lat="37.98098942697256" lon="15.239991182994297"><ele>451.33333333333337</ele><time>2026-04-28T16:05:43Z</time></trkpt><trkpt lat="37.98113553051225" lon="15.239881446361098"><ele>451.0</ele><time>2026-04-28T16:05:44Z</time></trkpt><trkpt lat="37.98127041078682" lon="15.239771670669738"><ele>451.0</ele><time>2026-04-28T16:05:45Z</time></trkpt><trkpt lat="37.98139296625591" lon="15.239662255928216"><ele>451.0</ele><time>2026-04-28T16:05:46Z</time></trkpt><trkpt lat="37.98149828818642" lon="15.239570524609562"><ele>451.0</ele><time>2026-04-28T16:05:47Z</time></trkpt><trkpt lat="37.98158507964724" lon="15.239488057373773"><ele>451.0</ele><time>2026-04-28T16:05:48Z</time></trkpt><trkpt lat="37.98165475827215" lon="15.239428839532843"><ele>452.00000000000006</ele><time>2026-04-28T16:05:49Z</time></trkpt><trkpt lat="37.98171772709277" lon="15.239373704823644"><ele>453.0</ele><time>2026-04-28T16:05:50Z</time></trkpt><trkpt lat="37.981780278552186" lon="15.239304263048544"><ele>454.0</ele><time>2026-04-28T16:05:51Z</time></trkpt><trkpt lat="37.98184018740688" lon="15.239239982555434"><ele>455.0</ele><time>2026-04-28T16:05:52Z</time></trkpt><trkpt lat="37.981881647873166" lon="15.23916908703556"><ele>456.00000000000006</ele><time>2026-04-28T16:05:53Z</time></trkpt><trkpt lat="37.98194317717829" lon="15.23905341880224"><ele>457.0</ele><time>2026-04-28T16:05:55Z</time></trkpt><trkpt lat="37.981994861675865" lon="15.238957027716973"><ele>457.00000000000006</ele><time>2026-04-28T16:05:57Z</time></trkpt><trkpt lat="37.982060808202796" lon="15.23885041991044"><ele>457.0</ele><time>2026-04-28T16:05:59Z</time></trkpt><trkpt lat="37.98208845412863" lon="15.238765440784123"><ele>457.0</ele><time>2026-04-28T16:06:00Z</time></trkpt><trkpt lat="37.98214877090602" lon="15.238638042446304"><ele>457.0</ele><time>2026-04-28T16:06:02Z</time></trkpt><trkpt lat="37.98217939541786" lon="15.23856357194831"><ele>457.00000000000006</ele><time>2026-04-28T16:06:03Z</time></trkpt><trkpt lat="37.9822104764886" lon="15.238482888042185"><ele>457.0</ele><time>2026-04-28T16:06:04Z</time></trkpt><trkpt lat="37.98224304224163" lon="15.238398610483227"><ele>457.00000000000006</ele><time>2026-04-28T16:06:04.999Z</time></trkpt><trkpt lat="37.98227130748445" lon="15.23830374383193"><ele>457.0</ele><time>2026-04-28T16:06:05.999Z</time></trkpt><trkpt lat="37.98229997733585" lon="15.238211935410849"><ele>457.0</ele><time>2026-04-28T16:06:06.999Z</time></trkpt><trkpt lat="37.98232399246099" lon="15.238124288457874"><ele>457.0</ele><time>2026-04-28T16:06:07.999Z</time></trkpt><trkpt lat="37.98234372989346" lon="15.23804317030386"><ele>457.00000000000006</ele><time>2026-04-28T16:06:08.999Z</time></trkpt><trkpt lat="37.98237210003689" lon="15.237967881529508"><ele>457.0</ele><time>2026-04-28T16:06:09.999Z</time></trkpt><trkpt lat="37.982418057810385" lon="15.237831618384517"><ele>455.8</ele><time>2026-04-28T16:06:11.999Z</time></trkpt><trkpt lat="37.982449274389026" lon="15.237702977209917"><ele>454.6</ele><time>2026-04-28T16:06:13.999Z</time></trkpt><trkpt lat="37.98248672073838" lon="15.237597083292938"><ele>453.40000000000003</ele><time>2026-04-28T16:06:15.999Z</time></trkpt><trkpt lat="37.982529914551414" lon="15.237456336775416"><ele>452.20000000000005</ele><time>2026-04-28T16:06:17.999Z</time></trkpt><trkpt lat="37.98255147853402" lon="15.237373921112894"><ele>451.0</ele><time>2026-04-28T16:06:18.999Z</time></trkpt><trkpt lat="37.98257981679538" lon="15.237298926146652"><ele>451.00000000000006</ele><time>2026-04-28T16:06:19.999Z</time></trkpt><trkpt lat="37.9826041805033" lon="15.237209729628484"><ele>451.0</ele><time>2026-04-28T16:06:20.999Z</time></trkpt><trkpt lat="37.98263432460792" lon="15.237113472103585"><ele>451.0</ele><time>2026-04-28T16:06:21.999Z</time></trkpt><trkpt lat="37.98266114941679" lon="15.237039275609796"><ele>451.0</ele><time>2026-04-28T16:06:22.999Z</time></trkpt><trkpt lat="37.98275395952949" lon="15.236926505844568"><ele>451.00000000000006</ele><time>2026-04-28T16:06:24.999Z</time></trkpt><trkpt lat="37.98281930608637" lon="15.236846996878947"><ele>451.0</ele><time>2026-04-28T16:06:25.999Z</time></trkpt><trkpt lat="37.982900179610304" lon="15.236758404145926"><ele>451.0</ele><time>2026-04-28T16:06:26.999Z</time></trkpt><trkpt lat="37.98299671711085" lon="15.236664156530434"><ele>451.0</ele><time>2026-04-28T16:06:27.999Z</time></trkpt><trkpt lat="37.98311747490822" lon="15.23655487678895"><ele>451.0</ele><time>2026-04-28T16:06:28.999Z</time></trkpt><trkpt lat="37.98326439194683" lon="15.236428356441726"><ele>451.0</ele><time>2026-04-28T16:06:29.999Z</time></trkpt><trkpt lat="37.98342595064328" lon="15.236300129215804"><ele>452.33333333333337</ele><time>2026-04-28T16:06:30.999Z</time></trkpt><trkpt lat="37.98359674278797" lon="15.236184535206563"><ele>453.66666666666663</ele><time>2026-04-28T16:06:31.999Z</time></trkpt><trkpt lat="37.98376249290225" lon="15.236076369666646"><ele>455.0</ele><time>2026-04-28T16:06:32.999Z</time></trkpt><trkpt lat="37.98390113054932" lon="15.235963570222461"><ele>455.0</ele><time>2026-04-28T16:06:33.999Z</time></trkpt><trkpt lat="37.984033096146554" lon="15.235834811975579"><ele>455.0</ele><time>2026-04-28T16:06:34.999Z</time></trkpt><trkpt lat="37.9841469279647" lon="15.235686877137399"><ele>455.0</ele><time>2026-04-28T16:06:35.999Z</time></trkpt><trkpt lat="37.98423077201766" lon="15.235526277645045"><ele>459.66666666666663</ele><time>2026-04-28T16:06:36.999Z</time></trkpt><trkpt lat="37.984284218601076" lon="15.235332378214482"><ele>464.33333333333337</ele><time>2026-04-28T16:06:37.999Z</time></trkpt><trkpt lat="37.98432324667848" lon="15.235118592588716"><ele>469.0</ele><time>2026-04-28T16:06:38.999Z</time></trkpt><trkpt lat="37.9843745881517" lon="15.234896095572775"><ele>467.33333333333337</ele><time>2026-04-28T16:06:39.999Z</time></trkpt><trkpt lat="37.98443898349841" lon="15.234684563659634"><ele>465.66666666666663</ele><time>2026-04-28T16:06:40.999Z</time></trkpt><trkpt lat="37.98450143232512" lon="15.234479829001394"><ele>464.0</ele><time>2026-04-28T16:06:41.999Z</time></trkpt><trkpt lat="37.98456329389573" lon="15.234274747498457"><ele>464.0</ele><time>2026-04-28T16:06:42.999Z</time></trkpt><trkpt lat="37.984623594573996" lon="15.23408163171814"><ele>464.0</ele><time>2026-04-28T16:06:43.999Z</time></trkpt><trkpt lat="37.984681504431684" lon="15.233908434366608"><ele>464.0</ele><time>2026-04-28T16:06:44.999Z</time></trkpt><trkpt lat="37.984737956225224" lon="15.233753719737445"><ele>464.0</ele><time>2026-04-28T16:06:45.999Z</time></trkpt><trkpt lat="37.98480896205819" lon="15.233618760714137"><ele>463.0</ele><time>2026-04-28T16:06:46.999Z</time></trkpt><trkpt lat="37.98490796989648" lon="15.233492785116654"><ele>462.0</ele><time>2026-04-28T16:06:47.999Z</time></trkpt><trkpt lat="37.98500839808116" lon="15.233357660845435"><ele>461.0</ele><time>2026-04-28T16:06:48.999Z</time></trkpt><trkpt lat="37.9850960815487" lon="15.233198464595924"><ele>460.0</ele><time>2026-04-28T16:06:49.999Z</time></trkpt><trkpt lat="37.98517552306686" lon="15.23301318107649"><ele>467.6666666666667</ele><time>2026-04-28T16:06:50.999Z</time></trkpt><trkpt lat="37.98524758733667" lon="15.232811377032753"><ele>475.33333333333337</ele><time>2026-04-28T16:06:51.999Z</time></trkpt><trkpt lat="37.98532166934651" lon="15.23258368994835"><ele>483.0</ele><time>2026-04-28T16:06:52.999Z</time></trkpt><trkpt lat="37.98540350926834" lon="15.232367028197645"><ele>479.0</ele><time>2026-04-28T16:06:53.999Z</time></trkpt><trkpt lat="37.98549365786038" lon="15.232159126765788"><ele>475.0</ele><time>2026-04-28T16:06:54.999Z</time></trkpt><trkpt lat="37.98558894434388" lon="15.231949112564791"><ele>471.0</ele><time>2026-04-28T16:06:56Z</time></trkpt><trkpt lat="37.98568103769851" lon="15.231724574401609"><ele>471.0</ele><time>2026-04-28T16:06:57Z</time></trkpt><trkpt lat="37.985768965401526" lon="15.23150040563941"><ele>471.0</ele><time>2026-04-28T16:06:58Z</time></trkpt><trkpt lat="37.985861485638196" lon="15.231276326911784"><ele>471.0</ele><time>2026-04-28T16:06:59Z</time></trkpt><trkpt lat="37.985946620404775" lon="15.231072140835218"><ele>477.33333333333337</ele><time>2026-04-28T16:07:00Z</time></trkpt><trkpt lat="37.98602283198595" lon="15.230887094868955"><ele>483.6666666666667</ele><time>2026-04-28T16:07:01Z</time></trkpt><trkpt lat="37.98609261412641" lon="15.230711791943154"><ele>490.0</ele><time>2026-04-28T16:07:02Z</time></trkpt><trkpt lat="37.98614979986315" lon="15.23052906309612"><ele>490.0</ele><time>2026-04-28T16:07:03Z</time></trkpt><trkpt lat="37.98620229891017" lon="15.230345334572833"><ele>490.0</ele><time>2026-04-28T16:07:04Z</time></trkpt><trkpt lat="37.98624279492996" lon="15.230156950445"><ele>490.0</ele><time>2026-04-28T16:07:05Z</time></trkpt><trkpt lat="37.98626117188414" lon="15.229952930491464"><ele>488.0</ele><time>2026-04-28T16:07:06Z</time></trkpt><trkpt lat="37.98626012180611" lon="15.2297493443929"><ele>486.0</ele><time>2026-04-28T16:07:07Z</time></trkpt><trkpt lat="37.986270422101846" lon="15.229539347534343"><ele>484.0</ele><time>2026-04-28T16:07:08Z</time></trkpt><trkpt lat="37.986303523945246" lon="15.229313443212591"><ele>484.0</ele><time>2026-04-28T16:07:09Z</time></trkpt><trkpt lat="37.9863366507014" lon="15.229098442950885"><ele>484.0</ele><time>2026-04-28T16:07:10Z</time></trkpt><trkpt lat="37.98636030388613" lon="15.228915822796342"><ele>484.0</ele><time>2026-04-28T16:07:11Z</time></trkpt><trkpt lat="37.986383483608954" lon="15.228761358819488"><ele>484.0</ele><time>2026-04-28T16:07:12Z</time></trkpt><trkpt lat="37.98641747026907" lon="15.228601335139532"><ele>483.2</ele><time>2026-04-28T16:07:13Z</time></trkpt><trkpt lat="37.98645500774578" lon="15.228441508297331"><ele>482.4</ele><time>2026-04-28T16:07:14Z</time></trkpt><trkpt lat="37.98648437043492" lon="15.228315112943028"><ele>481.6</ele><time>2026-04-28T16:07:15Z</time></trkpt><trkpt lat="37.98649342534542" lon="15.228211611346865"><ele>480.8</ele><time>2026-04-28T16:07:17Z</time></trkpt><trkpt lat="37.98642144503076" lon="15.228168395755908"><ele>480.0</ele><time>2026-04-28T16:07:19Z</time></trkpt><trkpt lat="37.986342576405896" lon="15.228136433716069"><ele>479.8333333333333</ele><time>2026-04-28T16:07:20Z</time></trkpt><trkpt lat="37.986244908174946" lon="15.228090956376018"><ele>479.66666666666663</ele><time>2026-04-28T16:07:21Z</time></trkpt><trkpt lat="37.9861738926492" lon="15.22804320889113"><ele>479.5</ele><time>2026-04-28T16:07:22Z</time></trkpt><trkpt lat="37.98613726185058" lon="15.22797742905411"><ele>479.3333333333333</ele><time>2026-04-28T16:07:23Z</time></trkpt><trkpt lat="37.98615416879676" lon="15.227875398133767"><ele>479.16666666666663</ele><time>2026-04-28T16:07:24Z</time></trkpt><trkpt lat="37.98618662788004" lon="15.227751982432107"><ele>479.0</ele><time>2026-04-28T16:07:25Z</time></trkpt><trkpt lat="37.98623135441191" lon="15.227625533620229"><ele>479.0</ele><time>2026-04-28T16:07:26Z</time></trkpt><trkpt lat="37.98628924975117" lon="15.227510918470404"><ele>479.0</ele><time>2026-04-28T16:07:27Z</time></trkpt><trkpt lat="37.98635726661849" lon="15.227395098341125"><ele>479.0</ele><time>2026-04-28T16:07:28Z</time></trkpt><trkpt lat="37.98642756589962" lon="15.227272063994588"><ele>479.0</ele><time>2026-04-28T16:07:29Z</time></trkpt><trkpt lat="37.98648800529719" lon="15.227154728488822"><ele>480.79999999999995</ele><time>2026-04-28T16:07:30Z</time></trkpt><trkpt lat="37.98653025457366" lon="15.227066406136638"><ele>482.59999999999997</ele><time>2026-04-28T16:07:31Z</time></trkpt><trkpt lat="37.986553513915354" lon="15.226988644279354"><ele>484.4</ele><time>2026-04-28T16:07:32Z</time></trkpt><trkpt lat="37.9865557749823" lon="15.22687863035487"><ele>486.2</ele><time>2026-04-28T16:07:33Z</time></trkpt><trkpt lat="37.98653798040398" lon="15.226727754320208"><ele>488.0</ele><time>2026-04-28T16:07:34Z</time></trkpt><trkpt lat="37.98652033207966" lon="15.226553502470546"><ele>487.5</ele><time>2026-04-28T16:07:35Z</time></trkpt><trkpt lat="37.986534038335094" lon="15.226387056682139"><ele>487.0</ele><time>2026-04-28T16:07:36Z</time></trkpt><trkpt lat="37.98658927249552" lon="15.226209372835715"><ele>486.5</ele><time>2026-04-28T16:07:37Z</time></trkpt><trkpt lat="37.98664943093398" lon="15.226042287286065"><ele>486.0</ele><time>2026-04-28T16:07:38Z</time></trkpt><trkpt lat="37.98668969267353" lon="15.225888111686237"><ele>486.0</ele><time>2026-04-28T16:07:39Z</time></trkpt><trkpt lat="37.98672638851172" lon="15.225734171145433"><ele>486.0</ele><time>2026-04-28T16:07:40Z</time></trkpt><trkpt lat="37.98674226757478" lon="15.225554286123252"><ele>486.0</ele><time>2026-04-28T16:07:41Z</time></trkpt><trkpt lat="37.986732760385834" lon="15.225406629305773"><ele>486.0</ele><time>2026-04-28T16:07:42Z</time></trkpt><trkpt lat="37.98670319398324" lon="15.225299708113821"><ele>486.8</ele><time>2026-04-28T16:07:43Z</time></trkpt><trkpt lat="37.986638622478814" lon="15.225229141166444"><ele>487.6</ele><time>2026-04-28T16:07:44Z</time></trkpt><trkpt lat="37.98653934779007" lon="15.225188979952023"><ele>488.4</ele><time>2026-04-28T16:07:45Z</time></trkpt><trkpt lat="37.98641527241005" lon="15.225174380985457"><ele>489.2</ele><time>2026-04-28T16:07:46Z</time></trkpt><trkpt lat="37.986282434661334" lon="15.225173938234615"><ele>490.0</ele><time>2026-04-28T16:07:47Z</time></trkpt><trkpt lat="37.98616385647075" lon="15.225162558164362"><ele>490.0</ele><time>2026-04-28T16:07:48Z</time></trkpt><trkpt lat="37.9860482776501" lon="15.225119015089993"><ele>490.0</ele><time>2026-04-28T16:07:49Z</time></trkpt><trkpt lat="37.98592754088692" lon="15.225056195474613"><ele>490.0</ele><time>2026-04-28T16:07:50Z</time></trkpt><trkpt lat="37.98580439703611" lon="15.224990428198451"><ele>490.0</ele><time>2026-04-28T16:07:51Z</time></trkpt><trkpt lat="37.98570002687534" lon="15.224933994912405"><ele>493.0</ele><time>2026-04-28T16:07:52Z</time></trkpt><trkpt lat="37.98561402360086" lon="15.224844142899025"><ele>496.0</ele><time>2026-04-28T16:07:53Z</time></trkpt><trkpt lat="37.9855276183037" lon="15.224711831337496"><ele>499.0</ele><time>2026-04-28T16:07:54Z</time></trkpt><trkpt lat="37.985438793471175" lon="15.224563701744348"><ele>502.0</ele><time>2026-04-28T16:07:55Z</time></trkpt><trkpt lat="37.98536067222894" lon="15.224397546548122"><ele>502.0</ele><time>2026-04-28T16:07:56Z</time></trkpt><trkpt lat="37.98530198126494" lon="15.224230311046686"><ele>502.0</ele><time>2026-04-28T16:07:57Z</time></trkpt><trkpt lat="37.985259711097726" lon="15.224097677062835"><ele>502.0</ele><time>2026-04-28T16:07:58Z</time></trkpt><trkpt lat="37.985243745444976" lon="15.223983054685934"><ele>502.0</ele><time>2026-04-28T16:07:59Z</time></trkpt><trkpt lat="37.98526199063313" lon="15.22384238680981"><ele>504.75</ele><time>2026-04-28T16:08:00Z</time></trkpt><trkpt lat="37.98530739460195" lon="15.223678650316154"><ele>507.5</ele><time>2026-04-28T16:08:01Z</time></trkpt><trkpt lat="37.985354144295286" lon="15.2234941431363"><ele>510.25</ele><time>2026-04-28T16:08:02Z</time></trkpt><trkpt lat="37.98541011870027" lon="15.223338390224159"><ele>513.0</ele><time>2026-04-28T16:08:03Z</time></trkpt><trkpt lat="37.98547344740056" lon="15.223204627215408"><ele>513.5</ele><time>2026-04-28T16:08:04Z</time></trkpt><trkpt lat="37.98556203726098" lon="15.223075618541953"><ele>514.0</ele><time>2026-04-28T16:08:05Z</time></trkpt><trkpt lat="37.98566073651493" lon="15.222984667729776"><ele>514.5</ele><time>2026-04-28T16:08:06Z</time></trkpt><trkpt lat="37.98576682116273" lon="15.222928351162105"><ele>515.0</ele><time>2026-04-28T16:08:07Z</time></trkpt><trkpt lat="37.98584691975554" lon="15.222873304957776"><ele>515.0</ele><time>2026-04-28T16:08:08Z</time></trkpt><trkpt lat="37.98589493812465" lon="15.222789607816676"><ele>515.0</ele><time>2026-04-28T16:08:08.999Z</time></trkpt><trkpt lat="37.98590856708631" lon="15.22267796996189"><ele>515.0</ele><time>2026-04-28T16:08:09.999Z</time></trkpt><trkpt lat="37.985868912229876" lon="15.222549893066066"><ele>515.0</ele><time>2026-04-28T16:08:10.999Z</time></trkpt><trkpt lat="37.98580358499054" lon="15.222411620768753"><ele>515.0</ele><time>2026-04-28T16:08:11.999Z</time></trkpt><trkpt lat="37.98576618982892" lon="15.222279972430602"><ele>518.5</ele><time>2026-04-28T16:08:12.999Z</time></trkpt><trkpt lat="37.98577609829916" lon="15.222158374689698"><ele>522.0</ele><time>2026-04-28T16:08:13.999Z</time></trkpt><trkpt lat="37.98576431650684" lon="15.222022056025729"><ele>525.5</ele><time>2026-04-28T16:08:14.999Z</time></trkpt><trkpt lat="37.985692839641594" lon="15.221871414833101"><ele>529.0</ele><time>2026-04-28T16:08:15.999Z</time></trkpt><trkpt lat="37.98560730761036" lon="15.22171341182355"><ele>529.0</ele><time>2026-04-28T16:08:16.999Z</time></trkpt><trkpt lat="37.985564532065396" lon="15.221568946806405"><ele>529.0</ele><time>2026-04-28T16:08:17.999Z</time></trkpt><trkpt lat="37.98555492657392" lon="15.22143025355908"><ele>529.0</ele><time>2026-04-28T16:08:18.999Z</time></trkpt><trkpt lat="37.985573230919314" lon="15.221279363683577"><ele>529.0</ele><time>2026-04-28T16:08:19.999Z</time></trkpt><trkpt lat="37.98560890040979" lon="15.221114975050554"><ele>528.25</ele><time>2026-04-28T16:08:20.999Z</time></trkpt><trkpt lat="37.98567024744988" lon="15.22095040916368"><ele>527.5</ele><time>2026-04-28T16:08:21.999Z</time></trkpt><trkpt lat="37.98575639135964" lon="15.220800657059778"><ele>526.75</ele><time>2026-04-28T16:08:22.999Z</time></trkpt><trkpt lat="37.98584554798687" lon="15.220677117285756"><ele>526.0</ele><time>2026-04-28T16:08:23.999Z</time></trkpt><trkpt lat="37.98592398516533" lon="15.220593789200029"><ele>526.0</ele><time>2026-04-28T16:08:24.999Z</time></trkpt><trkpt lat="37.98598569410793" lon="15.220522780431814"><ele>526.0</ele><time>2026-04-28T16:08:26.999Z</time></trkpt><trkpt lat="37.98598731114862" lon="15.220425854232348"><ele>526.0</ele><time>2026-04-28T16:08:28.999Z</time></trkpt><trkpt lat="37.98596796683739" lon="15.22034676621943"><ele>526.0</ele><time>2026-04-28T16:08:29.999Z</time></trkpt><trkpt lat="37.98593091420525" lon="15.220247570786782"><ele>526.0</ele><time>2026-04-28T16:08:30.999Z</time></trkpt><trkpt lat="37.985857147227804" lon="15.220167819558174"><ele>526.0</ele><time>2026-04-28T16:08:31.999Z</time></trkpt><trkpt lat="37.985735555944245" lon="15.2201185440811"><ele>530.0</ele><time>2026-04-28T16:08:32.999Z</time></trkpt><trkpt lat="37.98557817898586" lon="15.220083515176965"><ele>534.0</ele><time>2026-04-28T16:08:33.999Z</time></trkpt><trkpt lat="37.98542113498221" lon="15.220046076663115"><ele>538.0</ele><time>2026-04-28T16:08:34.999Z</time></trkpt><trkpt lat="37.98528693864118" lon="15.220024384724297"><ele>538.0</ele><time>2026-04-28T16:08:35.999Z</time></trkpt><trkpt lat="37.985144796121965" lon="15.220039205967838"><ele>538.0</ele><time>2026-04-28T16:08:36.999Z</time></trkpt><trkpt lat="37.984986047803254" lon="15.220095752084346"><ele>538.0</ele><time>2026-04-28T16:08:37.999Z</time></trkpt><trkpt lat="37.98484693978473" lon="15.220154209169369"><ele>541.75</ele><time>2026-04-28T16:08:38.999Z</time></trkpt><trkpt lat="37.98471022889753" lon="15.220170552378036"><ele>545.5</ele><time>2026-04-28T16:08:39.999Z</time></trkpt><trkpt lat="37.9845587528369" lon="15.220136824243447"><ele>549.25</ele><time>2026-04-28T16:08:40.999Z</time></trkpt><trkpt lat="37.98441344778808" lon="15.220086096495438"><ele>553.0</ele><time>2026-04-28T16:08:41.999Z</time></trkpt><trkpt lat="37.98427073512112" lon="15.220032952911211"><ele>554.3333333333334</ele><time>2026-04-28T16:08:42.999Z</time></trkpt><trkpt lat="37.98410328656107" lon="15.219984458947302"><ele>555.6666666666666</ele><time>2026-04-28T16:08:43.999Z</time></trkpt><trkpt lat="37.98391160553205" lon="15.219935759513053"><ele>557.0</ele><time>2026-04-28T16:08:44.999Z</time></trkpt><trkpt lat="37.9837422866563" lon="15.219879659579302"><ele>557.0</ele><time>2026-04-28T16:08:45.999Z</time></trkpt><trkpt lat="37.98360609126125" lon="15.219828638682658"><ele>557.0</ele><time>2026-04-28T16:08:46.999Z</time></trkpt><trkpt lat="37.98347365552161" lon="15.219759330770346"><ele>557.0</ele><time>2026-04-28T16:08:47.999Z</time></trkpt><trkpt lat="37.98333184531077" lon="15.219670516020672"><ele>557.0</ele><time>2026-04-28T16:08:48.999Z</time></trkpt><trkpt lat="37.98318430796593" lon="15.219585072916317"><ele>558.25</ele><time>2026-04-28T16:08:49.999Z</time></trkpt><trkpt lat="37.98305948866218" lon="15.219509995955182"><ele>559.5</ele><time>2026-04-28T16:08:50.999Z</time></trkpt><trkpt lat="37.982939156230685" lon="15.219424046144855"><ele>560.75</ele><time>2026-04-28T16:08:51.999Z</time></trkpt><trkpt lat="37.98282864874174" lon="15.21930665165699"><ele>562.0</ele><time>2026-04-28T16:08:52.999Z</time></trkpt><trkpt lat="37.98272016304587" lon="15.219192954774309"><ele>562.0</ele><time>2026-04-28T16:08:53.999Z</time></trkpt><trkpt lat="37.982642951092615" lon="15.219088298977177"><ele>562.0</ele><time>2026-04-28T16:08:54.999Z</time></trkpt><trkpt lat="37.98256282614162" lon="15.21895668798594"><ele>562.0</ele><time>2026-04-28T16:08:55.999Z</time></trkpt><trkpt lat="37.982481908339395" lon="15.218825595412504"><ele>562.0</ele><time>2026-04-28T16:08:56.999Z</time></trkpt><trkpt lat="37.98241885448706" lon="15.2187126660902"><ele>564.8333333333334</ele><time>2026-04-28T16:08:57.999Z</time></trkpt><trkpt lat="37.982367267896564" lon="15.218581433175467"><ele>567.6666666666667</ele><time>2026-04-28T16:08:58.999Z</time></trkpt><trkpt lat="37.98234351352444" lon="15.218451185117804"><ele>570.5</ele><time>2026-04-28T16:08:59.999Z</time></trkpt><trkpt lat="37.98235433537534" lon="15.21834911366541"><ele>573.3333333333334</ele><time>2026-04-28T16:09:00.999Z</time></trkpt><trkpt lat="37.982377798507024" lon="15.218270855237776"><ele>576.1666666666666</ele><time>2026-04-28T16:09:02Z</time></trkpt><trkpt lat="37.98242265369817" lon="15.21821421011534"><ele>579.0</ele><time>2026-04-28T16:09:03Z</time></trkpt><trkpt lat="37.98250592376143" lon="15.218148662806982"><ele>589.25</ele><time>2026-04-28T16:09:04Z</time></trkpt><trkpt lat="37.982620325461305" lon="15.21811287393734"><ele>599.5</ele><time>2026-04-28T16:09:05Z</time></trkpt><trkpt lat="37.98275026420874" lon="15.218103618039219"><ele>609.75</ele><time>2026-04-28T16:09:06Z</time></trkpt><trkpt lat="37.98287097763799" lon="15.218100362359781"><ele>620.0</ele><time>2026-04-28T16:09:07Z</time></trkpt><trkpt lat="37.982984711399595" lon="15.21811078918136"><ele>620.0</ele><time>2026-04-28T16:09:08Z</time></trkpt><trkpt lat="37.98309286136225" lon="15.218138141983099"><ele>620.0</ele><time>2026-04-28T16:09:09Z</time></trkpt><trkpt lat="37.9832027171414" lon="15.218185344722189"><ele>620.0</ele><time>2026-04-28T16:09:10Z</time></trkpt><trkpt lat="37.98330886765873" lon="15.218243497222353"><ele>620.0</ele><time>2026-04-28T16:09:11Z</time></trkpt><trkpt lat="37.983397500486824" lon="15.218282203274455"><ele>620.0</ele><time>2026-04-28T16:09:12Z</time></trkpt><trkpt lat="37.983478779467355" lon="15.218275845050659"><ele>619.8</ele><time>2026-04-28T16:09:13Z</time></trkpt><trkpt lat="37.98356274309911" lon="15.218210202613816"><ele>619.6</ele><time>2026-04-28T16:09:14Z</time></trkpt><trkpt lat="37.983645452520534" lon="15.218129188828081"><ele>619.4</ele><time>2026-04-28T16:09:15Z</time></trkpt><trkpt lat="37.983753652583346" lon="15.218124082602817"><ele>619.2</ele><time>2026-04-28T16:09:17Z</time></trkpt><trkpt lat="37.9838026889343" lon="15.218206316453252"><ele>619.0</ele><time>2026-04-28T16:09:18Z</time></trkpt><trkpt lat="37.983848244117425" lon="15.218304729927736"><ele>617.8</ele><time>2026-04-28T16:09:19Z</time></trkpt><trkpt lat="37.983923714057184" lon="15.218351695923056"><ele>616.5999999999999</ele><time>2026-04-28T16:09:20Z</time></trkpt><trkpt lat="37.98402615191905" lon="15.218336807129834"><ele>615.4</ele><time>2026-04-28T16:09:21Z</time></trkpt><trkpt lat="37.98411444018942" lon="15.218288380154414"><ele>614.1999999999999</ele><time>2026-04-28T16:09:22Z</time></trkpt><trkpt lat="37.984178614939715" lon="15.21819202242627"><ele>613.0</ele><time>2026-04-28T16:09:23Z</time></trkpt><trkpt lat="37.98422621008504" lon="15.218054460274054"><ele>613.0</ele><time>2026-04-28T16:09:24Z</time></trkpt><trkpt lat="37.98427272204858" lon="15.217934039966671"><ele>613.0</ele><time>2026-04-28T16:09:25Z</time></trkpt><trkpt lat="37.98432986796601" lon="15.217861493333025"><ele>613.0</ele><time>2026-04-28T16:09:26Z</time></trkpt><trkpt lat="37.984386664674716" lon="15.217826072301392"><ele>613.0</ele><time>2026-04-28T16:09:27Z</time></trkpt><trkpt lat="37.98446227257438" lon="15.217844263588349"><ele>613.0</ele><time>2026-04-28T16:09:28Z</time></trkpt><trkpt lat="37.98455123194046" lon="15.217921872685698"><ele>613.0</ele><time>2026-04-28T16:09:29Z</time></trkpt><trkpt lat="37.98465325805665" lon="15.217986267473535"><ele>613.0</ele><time>2026-04-28T16:09:30Z</time></trkpt><trkpt lat="37.984780644649604" lon="15.218002615563943"><ele>613.0</ele><time>2026-04-28T16:09:31Z</time></trkpt><trkpt lat="37.98489529099548" lon="15.217985452733497"><ele>613.0</ele><time>2026-04-28T16:09:32Z</time></trkpt><trkpt lat="37.98497268423459" lon="15.217950315013894"><ele>613.0</ele><time>2026-04-28T16:09:33Z</time></trkpt><trkpt lat="37.9850363011479" lon="15.217887538681172"><ele>613.0</ele><time>2026-04-28T16:09:34Z</time></trkpt><trkpt lat="37.98510674465075" lon="15.217783997552749"><ele>608.25</ele><time>2026-04-28T16:09:35Z</time></trkpt><trkpt lat="37.98518835002291" lon="15.217665799607758"><ele>603.5</ele><time>2026-04-28T16:09:36Z</time></trkpt><trkpt lat="37.985270184126065" lon="15.217546715931999"><ele>598.75</ele><time>2026-04-28T16:09:37Z</time></trkpt><trkpt lat="37.985373586462664" lon="15.217440452083075"><ele>594.0</ele><time>2026-04-28T16:09:38Z</time></trkpt><trkpt lat="37.98546630362305" lon="15.217358281415507"><ele>601.6</ele><time>2026-04-28T16:09:39Z</time></trkpt><trkpt lat="37.98553950279814" lon="15.217284264676419"><ele>609.2</ele><time>2026-04-28T16:09:40Z</time></trkpt><trkpt lat="37.98557977372135" lon="15.217182919436942"><ele>616.8000000000001</ele><time>2026-04-28T16:09:41Z</time></trkpt><trkpt lat="37.985582500542996" lon="15.217068251229039"><ele>624.4</ele><time>2026-04-28T16:09:42Z</time></trkpt><trkpt lat="37.9855906797592" lon="15.216968262777222"><ele>632.0</ele><time>2026-04-28T16:09:43Z</time></trkpt><trkpt lat="37.985705635501425" lon="15.216937927534616"><ele>632.0</ele><time>2026-04-28T16:09:45Z</time></trkpt><trkpt lat="37.98580090271425" lon="15.216958244047909"><ele>632.0</ele><time>2026-04-28T16:09:46Z</time></trkpt><trkpt lat="37.98590334823032" lon="15.216968503330186"><ele>632.0</ele><time>2026-04-28T16:09:47Z</time></trkpt><trkpt lat="37.98599643877335" lon="15.216962856670891"><ele>632.0</ele><time>2026-04-28T16:09:48Z</time></trkpt><trkpt lat="37.98607257751948" lon="15.216930487086637"><ele>632.0</ele><time>2026-04-28T16:09:49Z</time></trkpt><trkpt lat="37.98614735220646" lon="15.216845686721722"><ele>632.5</ele><time>2026-04-28T16:09:50Z</time></trkpt><trkpt lat="37.98622724027192" lon="15.216735917621246"><ele>633.0</ele><time>2026-04-28T16:09:51Z</time></trkpt><trkpt lat="37.98631400264777" lon="15.216650819589292"><ele>633.5</ele><time>2026-04-28T16:09:52Z</time></trkpt><trkpt lat="37.98638636528784" lon="15.216558630044116"><ele>634.0</ele><time>2026-04-28T16:09:53Z</time></trkpt><trkpt lat="37.986451546437614" lon="15.216424752736094"><ele>634.0</ele><time>2026-04-28T16:09:54Z</time></trkpt><trkpt lat="37.98651231168704" lon="15.216278236245085"><ele>634.0</ele><time>2026-04-28T16:09:55Z</time></trkpt><trkpt lat="37.98657617733987" lon="15.216169889659993"><ele>634.0</ele><time>2026-04-28T16:09:56Z</time></trkpt><trkpt lat="37.986664942616784" lon="15.216101441087497"><ele>634.0</ele><time>2026-04-28T16:09:57Z</time></trkpt><trkpt lat="37.986784321245956" lon="15.21606018652045"><ele>626.4</ele><time>2026-04-28T16:09:58Z</time></trkpt><trkpt lat="37.98689528998135" lon="15.21600601974983"><ele>618.8</ele><time>2026-04-28T16:09:59Z</time></trkpt><trkpt lat="37.98697029311691" lon="15.215928837457627"><ele>611.2</ele><time>2026-04-28T16:10:00Z</time></trkpt><trkpt lat="37.98701214999573" lon="15.215850481388207"><ele>603.6</ele><time>2026-04-28T16:10:01Z</time></trkpt><trkpt lat="37.98701558444373" lon="15.215739387432398"><ele>596.0</ele><time>2026-04-28T16:10:02Z</time></trkpt><trkpt lat="37.986993838574676" lon="15.215627341659035"><ele>596.0</ele><time>2026-04-28T16:10:03Z</time></trkpt><trkpt lat="37.98696450336618" lon="15.21554774800108"><ele>596.0</ele><time>2026-04-28T16:10:04Z</time></trkpt><trkpt lat="37.98689191133498" lon="15.215567728984514"><ele>596.0</ele><time>2026-04-28T16:10:06Z</time></trkpt><trkpt lat="37.98685734298114" lon="15.2156353501141"><ele>596.0</ele><time>2026-04-28T16:10:07Z</time></trkpt><trkpt lat="37.98682006766589" lon="15.215740077799712"><ele>596.0</ele><time>2026-04-28T16:10:08Z</time></trkpt><trkpt lat="37.986775310260555" lon="15.215839898302969"><ele>596.0</ele><time>2026-04-28T16:10:09Z</time></trkpt><trkpt lat="37.98671436327824" lon="15.21588811749602"><ele>602.3333333333333</ele><time>2026-04-28T16:10:10Z</time></trkpt><trkpt lat="37.98664030148647" lon="15.215905670206475"><ele>608.6666666666666</ele><time>2026-04-28T16:10:11Z</time></trkpt><trkpt lat="37.986563564173906" lon="15.21590366940474"><ele>615.0</ele><time>2026-04-28T16:10:12Z</time></trkpt><trkpt lat="37.98648483778434" lon="15.215890905030651"><ele>621.3333333333334</ele><time>2026-04-28T16:10:12.999Z</time></trkpt><trkpt lat="37.98640921282336" lon="15.215915442601206"><ele>627.6666666666667</ele><time>2026-04-28T16:10:13.999Z</time></trkpt><trkpt lat="37.9863493209674" lon="15.215996049283607"><ele>634.0</ele><time>2026-04-28T16:10:14.999Z</time></trkpt><trkpt lat="37.98630398143508" lon="15.216102183092044"><ele>634.0</ele><time>2026-04-28T16:10:15.999Z</time></trkpt><trkpt lat="37.98625025471831" lon="15.216173935325436"><ele>634.0</ele><time>2026-04-28T16:10:16.999Z</time></trkpt><trkpt lat="37.98615571265398" lon="15.216199487510453"><ele>634.0</ele><time>2026-04-28T16:10:17.999Z</time></trkpt><trkpt lat="37.98605407652863" lon="15.216180119282782"><ele>634.0</ele><time>2026-04-28T16:10:18.999Z</time></trkpt><trkpt lat="37.98593402969055" lon="15.216157405093039"><ele>634.0</ele><time>2026-04-28T16:10:19.999Z</time></trkpt><trkpt lat="37.98583394759337" lon="15.21617704957872"><ele>639.4</ele><time>2026-04-28T16:10:20.999Z</time></trkpt><trkpt lat="37.98575810687883" lon="15.216247894349474"><ele>644.8</ele><time>2026-04-28T16:10:21.999Z</time></trkpt><trkpt lat="37.98570027509966" lon="15.216355649869548"><ele>650.1999999999999</ele><time>2026-04-28T16:10:22.999Z</time></trkpt><trkpt lat="37.9856519746139" lon="15.216452357416733"><ele>655.5999999999999</ele><time>2026-04-28T16:10:23.999Z</time></trkpt><trkpt lat="37.98556170620741" lon="15.21648140064607"><ele>661.0</ele><time>2026-04-28T16:10:24.999Z</time></trkpt><trkpt lat="37.985434154457934" lon="15.216475922556969"><ele>661.0</ele><time>2026-04-28T16:10:25.999Z</time></trkpt><trkpt lat="37.98528706941505" lon="15.21647591695801"><ele>661.0</ele><time>2026-04-28T16:10:26.999Z</time></trkpt><trkpt lat="37.98512354374078" lon="15.216531008944232"><ele>661.0</ele><time>2026-04-28T16:10:27.999Z</time></trkpt><trkpt lat="37.98497486197529" lon="15.21660239363627"><ele>658.5999999999999</ele><time>2026-04-28T16:10:28.999Z</time></trkpt><trkpt lat="37.984852310007106" lon="15.216657213249457"><ele>656.2</ele><time>2026-04-28T16:10:29.999Z</time></trkpt><trkpt lat="37.98475637899329" lon="15.216725084397698"><ele>653.8</ele><time>2026-04-28T16:10:30.999Z</time></trkpt><trkpt lat="37.98466407765883" lon="15.216758842628044"><ele>651.4000000000001</ele><time>2026-04-28T16:10:31.999Z</time></trkpt><trkpt lat="37.98456844312216" lon="15.216735019286602"><ele>649.0</ele><time>2026-04-28T16:10:32.999Z</time></trkpt><trkpt lat="37.984461873522775" lon="15.216659685807514"><ele>649.0</ele><time>2026-04-28T16:10:33.999Z</time></trkpt><trkpt lat="37.984348655082115" lon="15.216554639767681"><ele>649.0</ele><time>2026-04-28T16:10:34.999Z</time></trkpt><trkpt lat="37.98424639154331" lon="15.216447190850142"><ele>649.0</ele><time>2026-04-28T16:10:35.999Z</time></trkpt><trkpt lat="37.984161932899525" lon="15.216362800167419"><ele>649.0</ele><time>2026-04-28T16:10:36.999Z</time></trkpt><trkpt lat="37.98407083954187" lon="15.216316490368833"><ele>656.2</ele><time>2026-04-28T16:10:37.999Z</time></trkpt><trkpt lat="37.98396938316887" lon="15.216327816072118"><ele>663.4000000000001</ele><time>2026-04-28T16:10:38.999Z</time></trkpt><trkpt lat="37.98389172155443" lon="15.216320277285883"><ele>670.6</ele><time>2026-04-28T16:10:39.999Z</time></trkpt><trkpt lat="37.98382238853707" lon="15.216233281058786"><ele>677.8</ele><time>2026-04-28T16:10:40.999Z</time></trkpt><trkpt lat="37.98374402349659" lon="15.21609954520506"><ele>685.0</ele><time>2026-04-28T16:10:41.999Z</time></trkpt><trkpt lat="37.98365738196219" lon="15.215945484408943"><ele>685.0</ele><time>2026-04-28T16:10:42.999Z</time></trkpt><trkpt lat="37.9835831834908" lon="15.215817057742356"><ele>685.0</ele><time>2026-04-28T16:10:43.999Z</time></trkpt><trkpt lat="37.98352751073884" lon="15.21569391905149"><ele>685.0</ele><time>2026-04-28T16:10:44.999Z</time></trkpt><trkpt lat="37.983501820550686" lon="15.215619193246132"><ele>685.0</ele><time>2026-04-28T16:10:45.999Z</time></trkpt><trkpt lat="37.983392005618704" lon="15.215631092841084"><ele>685.0</ele><time>2026-04-28T16:10:47.999Z</time></trkpt><trkpt lat="37.98330520420853" lon="15.215675712980989"><ele>682.6</ele><time>2026-04-28T16:10:48.999Z</time></trkpt><trkpt lat="37.98319067468088" lon="15.215701923932691"><ele>680.2</ele><time>2026-04-28T16:10:49.999Z</time></trkpt><trkpt lat="37.98307900142022" lon="15.215711176467769"><ele>677.8</ele><time>2026-04-28T16:10:50.999Z</time></trkpt><trkpt lat="37.982978236358655" lon="15.215716252923572"><ele>675.4</ele><time>2026-04-28T16:10:51.999Z</time></trkpt><trkpt lat="37.982905286858326" lon="15.215736746777763"><ele>673.0</ele><time>2026-04-28T16:10:52.999Z</time></trkpt><trkpt lat="37.98282622849363" lon="15.215796129250382"><ele>673.0</ele><time>2026-04-28T16:10:53.999Z</time></trkpt><trkpt lat="37.982747639093986" lon="15.215833622891461"><ele>673.0</ele><time>2026-04-28T16:10:54.999Z</time></trkpt><trkpt lat="37.982610357883594" lon="15.215773320755373"><ele>673.0</ele><time>2026-04-28T16:10:56.999Z</time></trkpt><trkpt lat="37.982522685394635" lon="15.215704109047914"><ele>673.0</ele><time>2026-04-28T16:10:57.999Z</time></trkpt><trkpt lat="37.98247010943408" lon="15.215646711507055"><ele>673.0</ele><time>2026-04-28T16:10:59.999Z</time></trkpt><trkpt lat="37.98252678655674" lon="15.215559534859464"><ele>679.75</ele><time>2026-04-28T16:11:01.999Z</time></trkpt><trkpt lat="37.98267071123561" lon="15.215507519298418"><ele>686.5</ele><time>2026-04-28T16:11:03.999Z</time></trkpt><trkpt lat="37.98278204142667" lon="15.21547255074855"><ele>693.25</ele><time>2026-04-28T16:11:04.999Z</time></trkpt><trkpt lat="37.98289015699345" lon="15.215434263439215"><ele>700.0</ele><time>2026-04-28T16:11:05.999Z</time></trkpt><trkpt lat="37.983010762132636" lon="15.215359512942229"><ele>700.0</ele><time>2026-04-28T16:11:06.999Z</time></trkpt><trkpt lat="37.98312402670247" lon="15.2152714302069"><ele>700.0</ele><time>2026-04-28T16:11:08Z</time></trkpt><trkpt lat="37.98323546730887" lon="15.215205124588804"><ele>700.0</ele><time>2026-04-28T16:11:09Z</time></trkpt><trkpt lat="37.98334867631682" lon="15.215131085462678"><ele>700.0</ele><time>2026-04-28T16:11:10Z</time></trkpt><trkpt lat="37.98346101794907" lon="15.215076524734396"><ele>702.75</ele><time>2026-04-28T16:11:11Z</time></trkpt><trkpt lat="37.98357154318135" lon="15.215072533614633"><ele>705.5</ele><time>2026-04-28T16:11:12Z</time></trkpt><trkpt lat="37.983676588565146" lon="15.215107341640024"><ele>708.25</ele><time>2026-04-28T16:11:13Z</time></trkpt><trkpt lat="37.98379655525797" lon="15.215167858677031"><ele>711.0</ele><time>2026-04-28T16:11:14Z</time></trkpt><trkpt lat="37.98393354849876" lon="15.215231734151537"><ele>711.0</ele><time>2026-04-28T16:11:15Z</time></trkpt><trkpt lat="37.984073225436894" lon="15.215288003136486"><ele>711.0</ele><time>2026-04-28T16:11:16Z</time></trkpt><trkpt lat="37.984198035213346" lon="15.215371119223022"><ele>711.0</ele><time>2026-04-28T16:11:17Z</time></trkpt><trkpt lat="37.98433939541847" lon="15.215464992008222"><ele>711.0</ele><time>2026-04-28T16:11:18Z</time></trkpt><trkpt lat="37.98448865614747" lon="15.21553999367915"><ele>710.8</ele><time>2026-04-28T16:11:19Z</time></trkpt><trkpt lat="37.984601204721805" lon="15.215615269470412"><ele>710.5999999999999</ele><time>2026-04-28T16:11:20Z</time></trkpt><trkpt lat="37.98467889596814" lon="15.215665320696544"><ele>710.4</ele><time>2026-04-28T16:11:21Z</time></trkpt><trkpt lat="37.984752912795244" lon="15.215681697858349"><ele>710.2</ele><time>2026-04-28T16:11:22Z</time></trkpt><trkpt lat="37.98484779983596" lon="15.215657892930174"><ele>710.0</ele><time>2026-04-28T16:11:23Z</time></trkpt><trkpt lat="37.98493822308362" lon="15.2155595754554"><ele>710.0</ele><time>2026-04-28T16:11:24Z</time></trkpt><trkpt lat="37.98498620604819" lon="15.215458520923814"><ele>710.0</ele><time>2026-04-28T16:11:25Z</time></trkpt><trkpt lat="37.98501168238861" lon="15.215337541368124"><ele>710.0</ele><time>2026-04-28T16:11:26Z</time></trkpt><trkpt lat="37.98502922791754" lon="15.215190523426557"><ele>710.0</ele><time>2026-04-28T16:11:27Z</time></trkpt><trkpt lat="37.98505180142886" lon="15.21506257262191"><ele>710.0</ele><time>2026-04-28T16:11:28Z</time></trkpt><trkpt lat="37.98513096352573" lon="15.2149053049103"><ele>705.0</ele><time>2026-04-28T16:11:29Z</time></trkpt><trkpt lat="37.98520565591296" lon="15.214812853870537"><ele>700.0</ele><time>2026-04-28T16:11:30Z</time></trkpt><trkpt lat="37.98525244595027" lon="15.214689060024044"><ele>695.0</ele><time>2026-04-28T16:11:31Z</time></trkpt><trkpt lat="37.9852688944183" lon="15.214516349395488"><ele>690.0</ele><time>2026-04-28T16:11:32Z</time></trkpt><trkpt lat="37.98526352024539" lon="15.214338855385295"><ele>690.0</ele><time>2026-04-28T16:11:33Z</time></trkpt><trkpt lat="37.985243248788784" lon="15.214181412184315"><ele>690.0</ele><time>2026-04-28T16:11:34Z</time></trkpt><trkpt lat="37.98520366386444" lon="15.214001073366152"><ele>690.0</ele><time>2026-04-28T16:11:35Z</time></trkpt><trkpt lat="37.985155733627764" lon="15.213823560732914"><ele>690.0</ele><time>2026-04-28T16:11:36Z</time></trkpt><trkpt lat="37.98511624126402" lon="15.213656526415335"><ele>689.5</ele><time>2026-04-28T16:11:37Z</time></trkpt><trkpt lat="37.98508263473983" lon="15.213482875975753"><ele>689.0</ele><time>2026-04-28T16:11:38Z</time></trkpt><trkpt lat="37.98508272737458" lon="15.213325318775667"><ele>688.5</ele><time>2026-04-28T16:11:39Z</time></trkpt><trkpt lat="37.98507821988107" lon="15.213170291133213"><ele>688.0</ele><time>2026-04-28T16:11:40Z</time></trkpt><trkpt lat="37.985044846570446" lon="15.213014436913516"><ele>688.0</ele><time>2026-04-28T16:11:41Z</time></trkpt><trkpt lat="37.98502607604166" lon="15.212866663326999"><ele>688.0</ele><time>2026-04-28T16:11:42Z</time></trkpt><trkpt lat="37.98505171240887" lon="15.212726505115809"><ele>688.0</ele><time>2026-04-28T16:11:43Z</time></trkpt><trkpt lat="37.985103260117754" lon="15.212589181801206"><ele>688.0</ele><time>2026-04-28T16:11:44Z</time></trkpt><trkpt lat="37.98513748800205" lon="15.212428407350075"><ele>688.4</ele><time>2026-04-28T16:11:45Z</time></trkpt><trkpt lat="37.98513978384243" lon="15.212257220249578"><ele>688.8</ele><time>2026-04-28T16:11:46Z</time></trkpt><trkpt lat="37.985134183246565" lon="15.21213875198642"><ele>689.2</ele><time>2026-04-28T16:11:47Z</time></trkpt><trkpt lat="37.98510506341213" lon="15.212045819461425"><ele>689.6</ele><time>2026-04-28T16:11:48Z</time></trkpt><trkpt lat="37.98503785946754" lon="15.21194456864205"><ele>690.0</ele><time>2026-04-28T16:11:49Z</time></trkpt><trkpt lat="37.9849611420316" lon="15.211832196588489"><ele>697.0</ele><time>2026-04-28T16:11:50Z</time></trkpt><trkpt lat="37.98488521817264" lon="15.211697461334671"><ele>704.0</ele><time>2026-04-28T16:11:51Z</time></trkpt><trkpt lat="37.98479916186193" lon="15.21154193567912"><ele>711.0</ele><time>2026-04-28T16:11:52Z</time></trkpt><trkpt lat="37.98472931159725" lon="15.211383311652241"><ele>718.0</ele><time>2026-04-28T16:11:53Z</time></trkpt><trkpt lat="37.98468158898546" lon="15.211229053407113"><ele>718.0</ele><time>2026-04-28T16:11:54Z</time></trkpt><trkpt lat="37.984653932542436" lon="15.21105310985519"><ele>718.0</ele><time>2026-04-28T16:11:55Z</time></trkpt><trkpt lat="37.98462079122595" lon="15.21089164702418"><ele>718.0</ele><time>2026-04-28T16:11:56Z</time></trkpt><trkpt lat="37.98457359601325" lon="15.210756734052136"><ele>718.0</ele><time>2026-04-28T16:11:57Z</time></trkpt><trkpt lat="37.9845349245397" lon="15.210607998419835"><ele>719.0</ele><time>2026-04-28T16:11:58Z</time></trkpt><trkpt lat="37.98452303127813" lon="15.210453151343357"><ele>720.0</ele><time>2026-04-28T16:11:59Z</time></trkpt><trkpt lat="37.98453479929686" lon="15.210276572216534"><ele>721.0</ele><time>2026-04-28T16:12:00Z</time></trkpt><trkpt lat="37.98453457237872" lon="15.210122568880083"><ele>722.0</ele><time>2026-04-28T16:12:01Z</time></trkpt><trkpt lat="37.98451593754064" lon="15.210008633789238"><ele>722.0</ele><time>2026-04-28T16:12:02Z</time></trkpt><trkpt lat="37.98445840769994" lon="15.209918624184485"><ele>722.0</ele><time>2026-04-28T16:12:03Z</time></trkpt><trkpt lat="37.98437869937484" lon="15.209828104956959"><ele>722.0</ele><time>2026-04-28T16:12:04Z</time></trkpt><trkpt lat="37.98433082558859" lon="15.20976321699661"><ele>722.0</ele><time>2026-04-28T16:12:05Z</time></trkpt><trkpt lat="37.98434882827107" lon="15.209613619763617"><ele>722.0</ele><time>2026-04-28T16:12:07Z</time></trkpt><trkpt lat="37.984388457789784" lon="15.209535787861178"><ele>722.8</ele><time>2026-04-28T16:12:08Z</time></trkpt><trkpt lat="37.984379921821755" lon="15.209436871758317"><ele>723.6</ele><time>2026-04-28T16:12:09Z</time></trkpt><trkpt lat="37.98432081137322" lon="15.209333608843641"><ele>724.4</ele><time>2026-04-28T16:12:10Z</time></trkpt><trkpt lat="37.98423192799042" lon="15.20925536528474"><ele>725.1999999999999</ele><time>2026-04-28T16:12:11Z</time></trkpt><trkpt lat="37.98413926758155" lon="15.209188564203023"><ele>726.0</ele><time>2026-04-28T16:12:12Z</time></trkpt><trkpt lat="37.98409545491379" lon="15.209116590350991"><ele>728.8</ele><time>2026-04-28T16:12:13Z</time></trkpt><trkpt lat="37.98413426436152" lon="15.20898023715891"><ele>731.5999999999999</ele><time>2026-04-28T16:12:15Z</time></trkpt><trkpt lat="37.98420054910186" lon="15.208933290670393"><ele>734.4</ele><time>2026-04-28T16:12:16Z</time></trkpt><trkpt lat="37.984287072301306" lon="15.208888868305811"><ele>737.2</ele><time>2026-04-28T16:12:17Z</time></trkpt><trkpt lat="37.984375627859556" lon="15.208814579859075"><ele>740.0</ele><time>2026-04-28T16:12:18Z</time></trkpt><trkpt lat="37.98446329569062" lon="15.208700434010233"><ele>740.0</ele><time>2026-04-28T16:12:18.999Z</time></trkpt><trkpt lat="37.9845440263526" lon="15.208565433419109"><ele>740.0</ele><time>2026-04-28T16:12:19.999Z</time></trkpt><trkpt lat="37.9845955019466" lon="15.208464784262592"><ele>740.0</ele><time>2026-04-28T16:12:20.999Z</time></trkpt><trkpt lat="37.98458963020197" lon="15.208335694243498"><ele>740.0</ele><time>2026-04-28T16:12:22.999Z</time></trkpt><trkpt lat="37.98454695288693" lon="15.208229077479292"><ele>740.0</ele><time>2026-04-28T16:12:23.999Z</time></trkpt><trkpt lat="37.98449582333237" lon="15.208079300654308"><ele>742.6666666666666</ele><time>2026-04-28T16:12:24.999Z</time></trkpt><trkpt lat="37.98448455714026" lon="15.20793583248607"><ele>745.3333333333333</ele><time>2026-04-28T16:12:25.999Z</time></trkpt><trkpt lat="37.98447857464441" lon="15.20780873377224"><ele>748.0</ele><time>2026-04-28T16:12:26.999Z</time></trkpt><trkpt lat="37.98445929704013" lon="15.207713245290039"><ele>750.6666666666666</ele><time>2026-04-28T16:12:27.999Z</time></trkpt><trkpt lat="37.984419896327395" lon="15.207649035608382"><ele>753.3333333333334</ele><time>2026-04-28T16:12:28.999Z</time></trkpt><trkpt lat="37.984354602354365" lon="15.207601228925865"><ele>756.0</ele><time>2026-04-28T16:12:29.999Z</time></trkpt><trkpt lat="37.98426587921464" lon="15.207545896407256"><ele>756.0</ele><time>2026-04-28T16:12:30.999Z</time></trkpt><trkpt lat="37.98418346058378" lon="15.207455416386605"><ele>756.0</ele><time>2026-04-28T16:12:31.999Z</time></trkpt><trkpt lat="37.984130243075036" lon="15.207351862859163"><ele>756.0</ele><time>2026-04-28T16:12:32.999Z</time></trkpt><trkpt lat="37.98411516385705" lon="15.207274103025222"><ele>756.0</ele><time>2026-04-28T16:12:33.999Z</time></trkpt><trkpt lat="37.984165832141024" lon="15.207167668396647"><ele>756.0</ele><time>2026-04-28T16:12:35.999Z</time></trkpt><trkpt lat="37.9842337137346" lon="15.207152840279669"><ele>756.0</ele><time>2026-04-28T16:12:36.999Z</time></trkpt><trkpt lat="37.98432624034018" lon="15.207178031594482"><ele>760.3333333333334</ele><time>2026-04-28T16:12:37.999Z</time></trkpt><trkpt lat="37.984428330842434" lon="15.207190628892395"><ele>764.6666666666667</ele><time>2026-04-28T16:12:38.999Z</time></trkpt><trkpt lat="37.984531647845564" lon="15.207156484989794"><ele>769.0</ele><time>2026-04-28T16:12:39.999Z</time></trkpt><trkpt lat="37.98461176863123" lon="15.207117173717423"><ele>773.3333333333334</ele><time>2026-04-28T16:12:40.999Z</time></trkpt><trkpt lat="37.98468044472279" lon="15.207122184757269"><ele>777.6666666666667</ele><time>2026-04-28T16:12:41.999Z</time></trkpt><trkpt lat="37.98475216102626" lon="15.207180031626507"><ele>782.0</ele><time>2026-04-28T16:12:42.999Z</time></trkpt><trkpt lat="37.98482422442314" lon="15.207271066366248"><ele>783.0</ele><time>2026-04-28T16:12:43.999Z</time></trkpt><trkpt lat="37.984910205304914" lon="15.207327311522738"><ele>784.0</ele><time>2026-04-28T16:12:44.999Z</time></trkpt><trkpt lat="37.98501954060136" lon="15.207312692031692"><ele>785.0</ele><time>2026-04-28T16:12:45.999Z</time></trkpt><trkpt lat="37.98514524851935" lon="15.20726008435639"><ele>786.0</ele><time>2026-04-28T16:12:46.999Z</time></trkpt><trkpt lat="37.98525465117189" lon="15.207214280445454"><ele>786.0</ele><time>2026-04-28T16:12:47.999Z</time></trkpt><trkpt lat="37.9853277666264" lon="15.207163028297387"><ele>786.0</ele><time>2026-04-28T16:12:48.999Z</time></trkpt><trkpt lat="37.985369669212446" lon="15.20708438452774"><ele>786.0</ele><time>2026-04-28T16:12:49.999Z</time></trkpt><trkpt lat="37.98543621599154" lon="15.206978430553155"><ele>786.0</ele><time>2026-04-28T16:12:50.999Z</time></trkpt><trkpt lat="37.98549525193561" lon="15.206857700444447"><ele>786.0</ele><time>2026-04-28T16:12:51.999Z</time></trkpt><trkpt lat="37.98555744018068" lon="15.206789285402216"><ele>786.0</ele><time>2026-04-28T16:12:52.999Z</time></trkpt><trkpt lat="37.98567211114659" lon="15.206806950417853"><ele>786.0</ele><time>2026-04-28T16:12:54.999Z</time></trkpt><trkpt lat="37.985702155077085" lon="15.206895420167807"><ele>786.0</ele><time>2026-04-28T16:12:55.999Z</time></trkpt><trkpt lat="37.98571625372752" lon="15.207008418108588"><ele>786.0</ele><time>2026-04-28T16:12:56.999Z</time></trkpt><trkpt lat="37.98576244040808" lon="15.207108344470452"><ele>786.0</ele><time>2026-04-28T16:12:57.999Z</time></trkpt><trkpt lat="37.98585530259657" lon="15.207172396066142"><ele>787.5</ele><time>2026-04-28T16:12:58.999Z</time></trkpt><trkpt lat="37.98597011399297" lon="15.207203986119874"><ele>789.0</ele><time>2026-04-28T16:12:59.999Z</time></trkpt><trkpt lat="37.986077542474455" lon="15.207210466413937"><ele>790.5</ele><time>2026-04-28T16:13:00.999Z</time></trkpt><trkpt lat="37.98618385453004" lon="15.207176877473685"><ele>792.0</ele><time>2026-04-28T16:13:01.999Z</time></trkpt><trkpt lat="37.9863018485666" lon="15.207128782993125"><ele>792.0</ele><time>2026-04-28T16:13:02.999Z</time></trkpt><trkpt lat="37.98642474277602" lon="15.207088068576269"><ele>792.0</ele><time>2026-04-28T16:13:03.999Z</time></trkpt><trkpt lat="37.98653144347326" lon="15.207068553792702"><ele>792.0</ele><time>2026-04-28T16:13:04.999Z</time></trkpt><trkpt lat="37.98662159109712" lon="15.207053342307509"><ele>792.0</ele><time>2026-04-28T16:13:05.999Z</time></trkpt><trkpt lat="37.98670981061471" lon="15.207009428245433"><ele>792.0</ele><time>2026-04-28T16:13:06.999Z</time></trkpt><trkpt lat="37.98679273773374" lon="15.206922052559477"><ele>793.0</ele><time>2026-04-28T16:13:07.999Z</time></trkpt><trkpt lat="37.9868678321833" lon="15.206796013058687"><ele>794.0</ele><time>2026-04-28T16:13:08.999Z</time></trkpt><trkpt lat="37.986935573232934" lon="15.206657118279656"><ele>795.0</ele><time>2026-04-28T16:13:09.999Z</time></trkpt><trkpt lat="37.987015412166514" lon="15.206501332672275"><ele>796.0</ele><time>2026-04-28T16:13:10.999Z</time></trkpt><trkpt lat="37.98709529939468" lon="15.20637659215217"><ele>796.0</ele><time>2026-04-28T16:13:11.999Z</time></trkpt><trkpt lat="37.9871530197898" lon="15.20624219272969"><ele>796.0</ele><time>2026-04-28T16:13:13Z</time></trkpt><trkpt lat="37.98720639871401" lon="15.20609632489209"><ele>796.0</ele><time>2026-04-28T16:13:14Z</time></trkpt><trkpt lat="37.987290767617296" lon="15.20595982665223"><ele>796.0</ele><time>2026-04-28T16:13:15Z</time></trkpt><trkpt lat="37.98736713887428" lon="15.205863329197284"><ele>796.0</ele><time>2026-04-28T16:13:16Z</time></trkpt><trkpt lat="37.987453821071426" lon="15.205816346258159"><ele>796.0</ele><time>2026-04-28T16:13:17Z</time></trkpt><trkpt lat="37.98755012668837" lon="15.20580484856388"><ele>796.0</ele><time>2026-04-28T16:13:18Z</time></trkpt><trkpt lat="37.9876322680219" lon="15.205780227357149"><ele>796.0</ele><time>2026-04-28T16:13:19Z</time></trkpt><trkpt lat="37.987677009619524" lon="15.205694880337692"><ele>796.0</ele><time>2026-04-28T16:13:20Z</time></trkpt><trkpt lat="37.98768608397565" lon="15.20555290514085"><ele>795.8</ele><time>2026-04-28T16:13:21Z</time></trkpt><trkpt lat="37.987702307968085" lon="15.205389225655308"><ele>795.5999999999999</ele><time>2026-04-28T16:13:22Z</time></trkpt><trkpt lat="37.987759971613556" lon="15.205250659619951"><ele>795.4</ele><time>2026-04-28T16:13:23Z</time></trkpt><trkpt lat="37.98783096667879" lon="15.205168938982082"><ele>795.2</ele><time>2026-04-28T16:13:24Z</time></trkpt><trkpt lat="37.987906951357125" lon="15.205150307878057"><ele>795.0</ele><time>2026-04-28T16:13:25Z</time></trkpt><trkpt lat="37.98800294180391" lon="15.205169984508965"><ele>795.0</ele><time>2026-04-28T16:13:26Z</time></trkpt><trkpt lat="37.98809327442897" lon="15.205165074800577"><ele>795.0</ele><time>2026-04-28T16:13:27Z</time></trkpt><trkpt lat="37.988158441738925" lon="15.205087835521006"><ele>795.0</ele><time>2026-04-28T16:13:28Z</time></trkpt><trkpt lat="37.98820476498406" lon="15.204953028772154"><ele>795.0</ele><time>2026-04-28T16:13:29Z</time></trkpt><trkpt lat="37.98825350176842" lon="15.204818767902548"><ele>795.0</ele><time>2026-04-28T16:13:30Z</time></trkpt><trkpt lat="37.98833936024654" lon="15.20473990616298"><ele>793.0</ele><time>2026-04-28T16:13:31Z</time></trkpt><trkpt lat="37.988434383493" lon="15.204703440359667"><ele>791.0</ele><time>2026-04-28T16:13:32Z</time></trkpt><trkpt lat="37.98849931165866" lon="15.204668391528532"><ele>789.0</ele><time>2026-04-28T16:13:33Z</time></trkpt><trkpt lat="37.98851390988454" lon="15.204539121886627"><ele>787.0</ele><time>2026-04-28T16:13:35Z</time></trkpt><trkpt lat="37.98838614065896" lon="15.204513647994103"><ele>785.0</ele><time>2026-04-28T16:13:37Z</time></trkpt><trkpt lat="37.988294918225954" lon="15.204539948250718"><ele>791.2</ele><time>2026-04-28T16:13:38Z</time></trkpt><trkpt lat="37.9881936415168" lon="15.204572686323251"><ele>797.4</ele><time>2026-04-28T16:13:39Z</time></trkpt><trkpt lat="37.98809977027025" lon="15.204612541899635"><ele>803.5999999999999</ele><time>2026-04-28T16:13:40Z</time></trkpt><trkpt lat="37.98801379585662" lon="15.204712904832899"><ele>809.8</ele><time>2026-04-28T16:13:41Z</time></trkpt><trkpt lat="37.98795261623383" lon="15.20479726801769"><ele>816.0</ele><time>2026-04-28T16:13:42Z</time></trkpt><trkpt lat="37.987866792895545" lon="15.204816349036513"><ele>816.0</ele><time>2026-04-28T16:13:43Z</time></trkpt><trkpt lat="37.98774868670847" lon="15.204807192393657"><ele>816.0</ele><time>2026-04-28T16:13:44Z</time></trkpt><trkpt lat="37.987648955300415" lon="15.20483462648981"><ele>816.0</ele><time>2026-04-28T16:13:45Z</time></trkpt><trkpt lat="37.9875698844057" lon="15.204933288400056"><ele>816.0</ele><time>2026-04-28T16:13:46Z</time></trkpt><trkpt lat="37.987461925782746" lon="15.205051863569793"><ele>816.25</ele><time>2026-04-28T16:13:47Z</time></trkpt><trkpt lat="37.987341534141926" lon="15.205131254282355"><ele>816.5</ele><time>2026-04-28T16:13:48Z</time></trkpt><trkpt lat="37.98721167689118" lon="15.205189671057667"><ele>816.75</ele><time>2026-04-28T16:13:49Z</time></trkpt><trkpt lat="37.98708015114878" lon="15.20524472149423"><ele>817.0</ele><time>2026-04-28T16:13:50Z</time></trkpt><trkpt lat="37.98697607783986" lon="15.20530794813621"><ele>817.0</ele><time>2026-04-28T16:13:51Z</time></trkpt><trkpt lat="37.986877548571734" lon="15.205362553383868"><ele>817.0</ele><time>2026-04-28T16:13:52Z</time></trkpt><trkpt lat="37.98676549944253" lon="15.205390477856037"><ele>817.0</ele><time>2026-04-28T16:13:53Z</time></trkpt><trkpt lat="37.98664036139978" lon="15.205401463221115"><ele>817.0</ele><time>2026-04-28T16:13:54Z</time></trkpt><trkpt lat="37.98653167161346" lon="15.205401183899662"><ele>820.6</ele><time>2026-04-28T16:13:55Z</time></trkpt><trkpt lat="37.9864406383381" lon="15.20538334966611"><ele>824.2</ele><time>2026-04-28T16:13:56Z</time></trkpt><trkpt lat="37.986359047355144" lon="15.205294049464861"><ele>827.8</ele><time>2026-04-28T16:13:57Z</time></trkpt><trkpt lat="37.98628097929129" lon="15.205171249842271"><ele>831.4</ele><time>2026-04-28T16:13:58Z</time></trkpt><trkpt lat="37.98623803435359" lon="15.205086258176452"><ele>835.0</ele><time>2026-04-28T16:13:59Z</time></trkpt><trkpt lat="37.986277351340824" lon="15.204981037165727"><ele>835.0</ele><time>2026-04-28T16:14:01Z</time></trkpt><trkpt lat="37.98635157974612" lon="15.204970062621749"><ele>835.0</ele><time>2026-04-28T16:14:02Z</time></trkpt><trkpt lat="37.986436375597634" lon="15.205016326430952"><ele>835.0</ele><time>2026-04-28T16:14:03Z</time></trkpt><trkpt lat="37.98652529668894" lon="15.205087217054206"><ele>835.0</ele><time>2026-04-28T16:14:04Z</time></trkpt><trkpt lat="37.98662971289458" lon="15.205084220306441"><ele>835.0</ele><time>2026-04-28T16:14:05Z</time></trkpt><trkpt lat="37.98673858049293" lon="15.204991442312533"><ele>834.0</ele><time>2026-04-28T16:14:06Z</time></trkpt><trkpt lat="37.98685143709239" lon="15.204862163184547"><ele>833.0</ele><time>2026-04-28T16:14:07Z</time></trkpt><trkpt lat="37.98697045409663" lon="15.204713397533583"><ele>832.0</ele><time>2026-04-28T16:14:08Z</time></trkpt><trkpt lat="37.9870961202722" lon="15.204548052303123"><ele>832.0</ele><time>2026-04-28T16:14:09Z</time></trkpt><trkpt lat="37.9871839584578" lon="15.20438958446014"><ele>832.0</ele><time>2026-04-28T16:14:10Z</time></trkpt><trkpt lat="37.987245477276964" lon="15.20422084220141"><ele>832.0</ele><time>2026-04-28T16:14:11Z</time></trkpt><trkpt lat="37.98730510036607" lon="15.20404022235704"><ele>833.0</ele><time>2026-04-28T16:14:12Z</time></trkpt><trkpt lat="37.98736798992246" lon="15.203849024993342"><ele>834.0</ele><time>2026-04-28T16:14:13Z</time></trkpt><trkpt lat="37.98745776384096" lon="15.20372840373021"><ele>835.0</ele><time>2026-04-28T16:14:14Z</time></trkpt><trkpt lat="37.98756743194284" lon="15.20361798110341"><ele>836.0</ele><time>2026-04-28T16:14:15Z</time></trkpt><trkpt lat="37.98769147640015" lon="15.203503012503386"><ele>836.0</ele><time>2026-04-28T16:14:16Z</time></trkpt><trkpt lat="37.98779848297658" lon="15.203392605847519"><ele>836.0</ele><time>2026-04-28T16:14:17Z</time></trkpt><trkpt lat="37.9878969279584" lon="15.203283233031138"><ele>836.0</ele><time>2026-04-28T16:14:18Z</time></trkpt><trkpt lat="37.98800013030104" lon="15.20317120374491"><ele>836.0</ele><time>2026-04-28T16:14:19Z</time></trkpt><trkpt lat="37.988101890035765" lon="15.203056867295707"><ele>835.0</ele><time>2026-04-28T16:14:19.999Z</time></trkpt><trkpt lat="37.988207997396216" lon="15.202972218635649"><ele>834.0</ele><time>2026-04-28T16:14:20.999Z</time></trkpt><trkpt lat="37.98830455047685" lon="15.20289788488395"><ele>833.0</ele><time>2026-04-28T16:14:21.999Z</time></trkpt><trkpt lat="37.9883775374912" lon="15.202824269224637"><ele>832.0</ele><time>2026-04-28T16:14:22.999Z</time></trkpt><trkpt lat="37.9884189738872" lon="15.202715350464636"><ele>831.0</ele><time>2026-04-28T16:14:23.999Z</time></trkpt><trkpt lat="37.988428454522236" lon="15.202559917694819"><ele>831.0</ele><time>2026-04-28T16:14:24.999Z</time></trkpt><trkpt lat="37.98842225619832" lon="15.20238051457245"><ele>831.0</ele><time>2026-04-28T16:14:25.999Z</time></trkpt><trkpt lat="37.988444325651535" lon="15.202236842493317"><ele>831.0</ele><time>2026-04-28T16:14:26.999Z</time></trkpt><trkpt lat="37.988509887387565" lon="15.202144219388138"><ele>831.0</ele><time>2026-04-28T16:14:27.999Z</time></trkpt><trkpt lat="37.988598866217785" lon="15.202111945537403"><ele>831.0</ele><time>2026-04-28T16:14:28.999Z</time></trkpt><trkpt lat="37.98870779354123" lon="15.202116294718023"><ele>829.4</ele><time>2026-04-28T16:14:29.999Z</time></trkpt><trkpt lat="37.98883463977008" lon="15.202112577711077"><ele>827.8</ele><time>2026-04-28T16:14:30.999Z</time></trkpt><trkpt lat="37.98895181915575" lon="15.202095585141814"><ele>826.1999999999999</ele><time>2026-04-28T16:14:31.999Z</time></trkpt><trkpt lat="37.989055625956986" lon="15.202080574810804"><ele>824.5999999999999</ele><time>2026-04-28T16:14:32.999Z</time></trkpt><trkpt lat="37.98913509038774" lon="15.202065301490487"><ele>823.0</ele><time>2026-04-28T16:14:33.999Z</time></trkpt><trkpt lat="37.98919532422371" lon="15.202015424172878"><ele>823.0</ele><time>2026-04-28T16:14:34.999Z</time></trkpt><trkpt lat="37.98924301018346" lon="15.201912634311753"><ele>823.0</ele><time>2026-04-28T16:14:35.999Z</time></trkpt><trkpt lat="37.9892898656561" lon="15.201767214593769"><ele>823.0</ele><time>2026-04-28T16:14:36.999Z</time></trkpt><trkpt lat="37.98934249570388" lon="15.201614265774062"><ele>823.0</ele><time>2026-04-28T16:14:37.999Z</time></trkpt><trkpt lat="37.98942095129628" lon="15.201484201744558"><ele>825.0</ele><time>2026-04-28T16:14:38.999Z</time></trkpt><trkpt lat="37.989511056428924" lon="15.20136098440925"><ele>827.0</ele><time>2026-04-28T16:14:39.999Z</time></trkpt><trkpt lat="37.98959517233109" lon="15.201252861199187"><ele>829.0</ele><time>2026-04-28T16:14:40.999Z</time></trkpt><trkpt lat="37.989673045910756" lon="15.201164685263112"><ele>831.0</ele><time>2026-04-28T16:14:41.999Z</time></trkpt><trkpt lat="37.98974739190393" lon="15.201126849720232"><ele>833.0</ele><time>2026-04-28T16:14:42.999Z</time></trkpt><trkpt lat="37.98980370113212" lon="15.201031995042978"><ele>833.0000000000001</ele><time>2026-04-28T16:14:44.999Z</time></trkpt><trkpt lat="37.989807876172385" lon="15.200892384226076"><ele>833.0</ele><time>2026-04-28T16:15:38Z</time></trkpt><trkpt lat="37.98978525150404" lon="15.200812608870068"><ele>833.0</ele><time>2026-04-28T16:15:39Z</time></trkpt><trkpt lat="37.989742056190885" lon="15.200749410356828"><ele>833.0</ele><time>2026-04-28T16:15:40Z</time></trkpt><trkpt lat="37.98968111103973" lon="15.200702323718666"><ele>833.0000000000001</ele><time>2026-04-28T16:15:41Z</time></trkpt><trkpt lat="37.989604484679674" lon="15.20068077518959"><ele>833.0</ele><time>2026-04-28T16:15:42Z</time></trkpt><trkpt lat="37.989522790747536" lon="15.200667967723824"><ele>834.2</ele><time>2026-04-28T16:15:43Z</time></trkpt><trkpt lat="37.98944833804753" lon="15.200646676151356"><ele>835.4</ele><time>2026-04-28T16:15:44Z</time></trkpt><trkpt lat="37.9893728428729" lon="15.20061073393559"><ele>836.6</ele><time>2026-04-28T16:15:45Z</time></trkpt><trkpt lat="37.98927178577016" lon="15.200550513980279"><ele>837.8000000000001</ele><time>2026-04-28T16:15:46Z</time></trkpt><trkpt lat="37.98916334954356" lon="15.200490312457822"><ele>839.0</ele><time>2026-04-28T16:15:47Z</time></trkpt><trkpt lat="37.989073616157214" lon="15.200443131974815"><ele>839.0000000000001</ele><time>2026-04-28T16:15:48Z</time></trkpt><trkpt lat="37.98901013114859" lon="15.200408946945165"><ele>839.0</ele><time>2026-04-28T16:15:49Z</time></trkpt><trkpt lat="37.98896592945212" lon="15.200310129511866"><ele>839.0</ele><time>2026-04-28T16:15:51Z</time></trkpt><trkpt lat="37.98897044526668" lon="15.200216851986513"><ele>839.0</ele><time>2026-04-28T16:15:52Z</time></trkpt><trkpt lat="37.98897803386288" lon="15.200114698477133"><ele>839.0000000000001</ele><time>2026-04-28T16:15:53Z</time></trkpt><trkpt lat="37.98900560451038" lon="15.20000833369407"><ele>839.0</ele><time>2026-04-28T16:15:54Z</time></trkpt><trkpt lat="37.989037908473314" lon="15.199905249977084"><ele>837.1666666666667</ele><time>2026-04-28T16:15:55Z</time></trkpt><trkpt lat="37.98906162216597" lon="15.199820045354786"><ele>835.3333333333334</ele><time>2026-04-28T16:15:56Z</time></trkpt><trkpt lat="37.98906124443322" lon="15.199734860300145"><ele>833.5</ele><time>2026-04-28T16:15:57Z</time></trkpt><trkpt lat="37.989036450204765" lon="15.19964069013346"><ele>831.6666666666667</ele><time>2026-04-28T16:15:58Z</time></trkpt><trkpt lat="37.98898795715014" lon="15.199539272551926"><ele>829.8333333333334</ele><time>2026-04-28T16:15:59Z</time></trkpt><trkpt lat="37.98892583421135" lon="15.199454502050573"><ele>828.0</ele><time>2026-04-28T16:16:00Z</time></trkpt><trkpt lat="37.988856131230335" lon="15.199384215002013"><ele>828.0</ele><time>2026-04-28T16:16:01Z</time></trkpt><trkpt lat="37.988777141357424" lon="15.199327739154757"><ele>828.0</ele><time>2026-04-28T16:16:02Z</time></trkpt><trkpt lat="37.98868918954585" lon="15.199281454485275"><ele>828.0</ele><time>2026-04-28T16:16:03Z</time></trkpt><trkpt lat="37.988587339622235" lon="15.199244664981915"><ele>828.0</ele><time>2026-04-28T16:16:04Z</time></trkpt><trkpt lat="37.988475615954066" lon="15.199206001402217"><ele>828.0</ele><time>2026-04-28T16:16:05Z</time></trkpt><trkpt lat="37.98836312360192" lon="15.199163008207154"><ele>834.0</ele><time>2026-04-28T16:16:06Z</time></trkpt><trkpt lat="37.988249640956305" lon="15.19912254792438"><ele>840.0</ele><time>2026-04-28T16:16:07Z</time></trkpt><trkpt lat="37.98814636449054" lon="15.199086349596811"><ele>846.0</ele><time>2026-04-28T16:16:08Z</time></trkpt><trkpt lat="37.98804541662839" lon="15.199062150398271"><ele>852.0</ele><time>2026-04-28T16:16:09Z</time></trkpt><trkpt lat="37.98793861436527" lon="15.199043247849762"><ele>858.0</ele><time>2026-04-28T16:16:10Z</time></trkpt><trkpt lat="37.98784530836849" lon="15.199024965560621"><ele>858.0</ele><time>2026-04-28T16:16:11Z</time></trkpt><trkpt lat="37.98776293966529" lon="15.199013522538968"><ele>858.0</ele><time>2026-04-28T16:16:12Z</time></trkpt><trkpt lat="37.98768711217688" lon="15.199002545485703"><ele>858.0</ele><time>2026-04-28T16:16:13Z</time></trkpt><trkpt lat="37.98761394448346" lon="15.198980833070626"><ele>858.0</ele><time>2026-04-28T16:16:14Z</time></trkpt><trkpt lat="37.987536339999515" lon="15.198931423501996"><ele>858.0</ele><time>2026-04-28T16:16:15Z</time></trkpt><trkpt lat="37.98745667997602" lon="15.198871344212261"><ele>858.0</ele><time>2026-04-28T16:16:16Z</time></trkpt><trkpt lat="37.98738311618537" lon="15.19883755946318"><ele>858.0</ele><time>2026-04-28T16:16:17Z</time></trkpt><trkpt lat="37.98731603425467" lon="15.198838052528448"><ele>858.0</ele><time>2026-04-28T16:16:18Z</time></trkpt><trkpt lat="37.98721655859318" lon="15.198912076595544"><ele>858.0</ele><time>2026-04-28T16:16:20Z</time></trkpt><trkpt lat="37.98714858287967" lon="15.199066078645298"><ele>858.0</ele><time>2026-04-28T16:16:22Z</time></trkpt><trkpt lat="37.98712105848656" lon="15.199163117019665"><ele>858.0</ele><time>2026-04-28T16:16:23Z</time></trkpt><trkpt lat="37.98708794700952" lon="15.199266335267492"><ele>860.6666666666666</ele><time>2026-04-28T16:16:24Z</time></trkpt><trkpt lat="37.987056686569034" lon="15.199373478999405"><ele>863.3333333333333</ele><time>2026-04-28T16:16:25Z</time></trkpt><trkpt lat="37.98702648455519" lon="15.199454582297609"><ele>866.0</ele><time>2026-04-28T16:16:25.999Z</time></trkpt><trkpt lat="37.986939362032174" lon="15.19956297481384"><ele>868.6666666666666</ele><time>2026-04-28T16:16:27.999Z</time></trkpt><trkpt lat="37.986872429781535" lon="15.199598478529438"><ele>871.3333333333333</ele><time>2026-04-28T16:16:28.999Z</time></trkpt><trkpt lat="37.98678699747446" lon="15.199641440310177"><ele>874.0</ele><time>2026-04-28T16:16:29.999Z</time></trkpt><trkpt lat="37.98668190355814" lon="15.199694328342535"><ele>875.25</ele><time>2026-04-28T16:16:30.999Z</time></trkpt><trkpt lat="37.98656487958604" lon="15.199747097996802"><ele>876.5</ele><time>2026-04-28T16:16:31.999Z</time></trkpt><trkpt lat="37.986452512443904" lon="15.199807218144946"><ele>877.75</ele><time>2026-04-28T16:16:32.999Z</time></trkpt><trkpt lat="37.98635000436164" lon="15.199868322580452"><ele>879.0</ele><time>2026-04-28T16:16:33.999Z</time></trkpt><trkpt lat="37.98625021160026" lon="15.199931461618611"><ele>883.2</ele><time>2026-04-28T16:16:34.999Z</time></trkpt><trkpt lat="37.98615351333487" lon="15.19999399344623"><ele>887.4000000000001</ele><time>2026-04-28T16:16:35.999Z</time></trkpt><trkpt lat="37.986058472907914" lon="15.200051326959903"><ele>891.6</ele><time>2026-04-28T16:16:36.999Z</time></trkpt><trkpt lat="37.9859544370352" lon="15.200110496668191"><ele>895.8</ele><time>2026-04-28T16:16:37.999Z</time></trkpt><trkpt lat="37.9858469994941" lon="15.20017132597513"><ele>900.0</ele><time>2026-04-28T16:16:38.999Z</time></trkpt><trkpt lat="37.98573464419641" lon="15.200236222392707"><ele>900.0</ele><time>2026-04-28T16:16:39.999Z</time></trkpt><trkpt lat="37.98562457655512" lon="15.200298459848689"><ele>900.0</ele><time>2026-04-28T16:16:40.999Z</time></trkpt><trkpt lat="37.98551424032935" lon="15.2003736974747"><ele>900.0</ele><time>2026-04-28T16:16:41.999Z</time></trkpt><trkpt lat="37.985401391793104" lon="15.200455481876793"><ele>900.0</ele><time>2026-04-28T16:16:42.999Z</time></trkpt><trkpt lat="37.9852805722922" lon="15.200543057348005"><ele>900.0</ele><time>2026-04-28T16:16:43.999Z</time></trkpt><trkpt lat="37.98514212133831" lon="15.200641331967194"><ele>900.0</ele><time>2026-04-28T16:16:44.999Z</time></trkpt><trkpt lat="37.985008072792304" lon="15.200751561130236"><ele>900.0</ele><time>2026-04-28T16:16:45.999Z</time></trkpt><trkpt lat="37.98488882343003" lon="15.200841926640091"><ele>903.5</ele><time>2026-04-28T16:16:46.999Z</time></trkpt><trkpt lat="37.984763048277145" lon="15.200923515040495"><ele>907.0</ele><time>2026-04-28T16:16:47.999Z</time></trkpt><trkpt lat="37.98463668463093" lon="15.200987563258913"><ele>910.5</ele><time>2026-04-28T16:16:48.999Z</time></trkpt><trkpt lat="37.98450465795337" lon="15.201029571612327"><ele>914.0</ele><time>2026-04-28T16:16:49.999Z</time></trkpt><trkpt lat="37.984372782415186" lon="15.201065439215807"><ele>914.0</ele><time>2026-04-28T16:16:50.999Z</time></trkpt><trkpt lat="37.984258127956686" lon="15.201098143947092"><ele>914.0</ele><time>2026-04-28T16:16:51.999Z</time></trkpt><trkpt lat="37.984145684124" lon="15.201134668727367"><ele>914.0</ele><time>2026-04-28T16:16:52.999Z</time></trkpt><trkpt lat="37.984022858099436" lon="15.201171539641642"><ele>914.0</ele><time>2026-04-28T16:16:53.999Z</time></trkpt><trkpt lat="37.9839099241059" lon="15.201199249106873"><ele>912.6</ele><time>2026-04-28T16:16:54.999Z</time></trkpt><trkpt lat="37.983809045972" lon="15.201220996570855"><ele>911.2</ele><time>2026-04-28T16:16:55.999Z</time></trkpt><trkpt lat="37.983717755404655" lon="15.2012357238401"><ele>909.8000000000001</ele><time>2026-04-28T16:16:56.999Z</time></trkpt><trkpt lat="37.983608652522896" lon="15.201255508734718"><ele>908.4000000000001</ele><time>2026-04-28T16:16:57.999Z</time></trkpt><trkpt lat="37.983500738859924" lon="15.201258917820057"><ele>907.0</ele><time>2026-04-28T16:16:58.999Z</time></trkpt><trkpt lat="37.983400911383285" lon="15.201241708550116"><ele>905.0</ele><time>2026-04-28T16:16:59.999Z</time></trkpt><trkpt lat="37.9832975572484" lon="15.201208522102327"><ele>903.0</ele><time>2026-04-28T16:17:00.999Z</time></trkpt><trkpt lat="37.983209459757674" lon="15.201166793630957"><ele>901.0</ele><time>2026-04-28T16:17:01.999Z</time></trkpt><trkpt lat="37.98314074530063" lon="15.201128197290506"><ele>899.0</ele><time>2026-04-28T16:17:02.999Z</time></trkpt><trkpt lat="37.98307905298798" lon="15.201091234952733"><ele>897.0</ele><time>2026-04-28T16:17:03.999Z</time></trkpt><trkpt lat="37.982979470383384" lon="15.200992984368414"><ele>897.0</ele><time>2026-04-28T16:17:05.999Z</time></trkpt><trkpt lat="37.982936920374996" lon="15.200929229716076"><ele>897.0</ele><time>2026-04-28T16:17:06.999Z</time></trkpt><trkpt lat="37.98289490249815" lon="15.200862481146054"><ele>897.0</ele><time>2026-04-28T16:17:07.999Z</time></trkpt><trkpt lat="37.98285023034851" lon="15.200791307723287"><ele>897.0</ele><time>2026-04-28T16:17:08.999Z</time></trkpt><trkpt lat="37.982798260467916" lon="15.200710023055292"><ele>897.0</ele><time>2026-04-28T16:17:09.999Z</time></trkpt><trkpt lat="37.98273791410748" lon="15.200620950205398"><ele>897.0</ele><time>2026-04-28T16:17:10.999Z</time></trkpt><trkpt lat="37.98267628078894" lon="15.200529185611117"><ele>894.0</ele><time>2026-04-28T16:17:11.999Z</time></trkpt><trkpt lat="37.98261864170841" lon="15.200445300140888"><ele>891.0</ele><time>2026-04-28T16:17:12.999Z</time></trkpt><trkpt lat="37.98256845549514" lon="15.200369812120273"><ele>888.0</ele><time>2026-04-28T16:17:13.999Z</time></trkpt><trkpt lat="37.98251552713551" lon="15.200291111078418"><ele>885.0</ele><time>2026-04-28T16:17:14.999Z</time></trkpt><trkpt lat="37.982463403407735" lon="15.200220499914908"><ele>882.0</ele><time>2026-04-28T16:17:15.999Z</time></trkpt><trkpt lat="37.98241374983149" lon="15.20015764613752"><ele>879.0</ele><time>2026-04-28T16:17:16.999Z</time></trkpt><trkpt lat="37.98235660503397" lon="15.200102132269462"><ele>878.75</ele><time>2026-04-28T16:17:17.999Z</time></trkpt><trkpt lat="37.982284750357444" lon="15.200062874370682"><ele>878.5</ele><time>2026-04-28T16:17:18.999Z</time></trkpt><trkpt lat="37.98218828757118" lon="15.200017799171823"><ele>878.25</ele><time>2026-04-28T16:17:19.999Z</time></trkpt><trkpt lat="37.982059781870035" lon="15.199976784699812"><ele>878.0</ele><time>2026-04-28T16:17:20.999Z</time></trkpt><trkpt lat="37.981906877202455" lon="15.199938878165513"><ele>878.0</ele><time>2026-04-28T16:17:21.999Z</time></trkpt><trkpt lat="37.98175860008096" lon="15.199911350220408"><ele>878.0</ele><time>2026-04-28T16:17:22.999Z</time></trkpt><trkpt lat="37.981622528577155" lon="15.199888721193082"><ele>878.0</ele><time>2026-04-28T16:17:24Z</time></trkpt><trkpt lat="37.981459310236666" lon="15.19992161318243"><ele>878.3333333333334</ele><time>2026-04-28T16:17:25Z</time></trkpt><trkpt lat="37.98127769938175" lon="15.19999766460467"><ele>878.6666666666667</ele><time>2026-04-28T16:17:26Z</time></trkpt><trkpt lat="37.981093559658056" lon="15.200065874691752"><ele>879.0</ele><time>2026-04-28T16:17:27Z</time></trkpt><trkpt lat="37.98091662125" lon="15.200103707588225"><ele>878.5</ele><time>2026-04-28T16:17:28Z</time></trkpt><trkpt lat="37.98074702800888" lon="15.200135204787813"><ele>878.0</ele><time>2026-04-28T16:17:29Z</time></trkpt><trkpt lat="37.98061755435127" lon="15.2001732731501"><ele>877.5</ele><time>2026-04-28T16:17:30Z</time></trkpt><trkpt lat="37.98050002660784" lon="15.200194527241532"><ele>877.0</ele><time>2026-04-28T16:17:31Z</time></trkpt><trkpt lat="37.98039516652036" lon="15.20023041847068"><ele>877.0</ele><time>2026-04-28T16:17:32Z</time></trkpt><trkpt lat="37.9802965851975" lon="15.200302627944566"><ele>877.0</ele><time>2026-04-28T16:17:33Z</time></trkpt><trkpt lat="37.980207663532575" lon="15.200359379129496"><ele>877.0</ele><time>2026-04-28T16:17:34Z</time></trkpt><trkpt lat="37.98011008305763" lon="15.200348230738884"><ele>877.0</ele><time>2026-04-28T16:17:35Z</time></trkpt><trkpt lat="37.97998972797105" lon="15.200292119915291"><ele>877.0</ele><time>2026-04-28T16:17:36Z</time></trkpt><trkpt lat="37.97985985379608" lon="15.200222384326073"><ele>876.5</ele><time>2026-04-28T16:17:37Z</time></trkpt><trkpt lat="37.97973800948139" lon="15.200156999825733"><ele>876.0</ele><time>2026-04-28T16:17:38Z</time></trkpt><trkpt lat="37.97964220983365" lon="15.200100850980254"><ele>875.5</ele><time>2026-04-28T16:17:39Z</time></trkpt><trkpt lat="37.97953982351287" lon="15.200075573234416"><ele>875.0</ele><time>2026-04-28T16:17:40Z</time></trkpt><trkpt lat="37.979410573422385" lon="15.200096003762354"><ele>875.0</ele><time>2026-04-28T16:17:41Z</time></trkpt><trkpt lat="37.97928004303785" lon="15.200110803312993"><ele>875.0</ele><time>2026-04-28T16:17:42Z</time></trkpt><trkpt lat="37.97915157395984" lon="15.200079923589922"><ele>875.0</ele><time>2026-04-28T16:17:43Z</time></trkpt><trkpt lat="37.97902215383117" lon="15.200020835281776"><ele>875.0</ele><time>2026-04-28T16:17:44Z</time></trkpt><trkpt lat="37.97888252636443" lon="15.199969559756067"><ele>877.6666666666667</ele><time>2026-04-28T16:17:45Z</time></trkpt><trkpt lat="37.97871856610275" lon="15.199941144827898"><ele>880.3333333333333</ele><time>2026-04-28T16:17:46Z</time></trkpt><trkpt lat="37.97853355022043" lon="15.199923497345063"><ele>883.0</ele><time>2026-04-28T16:17:47Z</time></trkpt><trkpt lat="37.978351599754546" lon="15.199901055076351"><ele>885.0</ele><time>2026-04-28T16:17:48Z</time></trkpt><trkpt lat="37.97818735990444" lon="15.199873499273057"><ele>887.0</ele><time>2026-04-28T16:17:49Z</time></trkpt><trkpt lat="37.97803673763003" lon="15.199860791735002"><ele>889.0</ele><time>2026-04-28T16:17:50Z</time></trkpt><trkpt lat="37.977872523264296" lon="15.199887783436958"><ele>889.0</ele><time>2026-04-28T16:17:51Z</time></trkpt><trkpt lat="37.97770967100009" lon="15.199923458769197"><ele>889.0</ele><time>2026-04-28T16:17:52Z</time></trkpt><trkpt lat="37.977564495334356" lon="15.199929425955476"><ele>889.0</ele><time>2026-04-28T16:17:53Z</time></trkpt><trkpt lat="37.97743956115093" lon="15.199928604336591"><ele>889.0</ele><time>2026-04-28T16:17:54Z</time></trkpt><trkpt lat="37.97732893502917" lon="15.199909496634124"><ele>889.75</ele><time>2026-04-28T16:17:55Z</time></trkpt><trkpt lat="37.977222122069264" lon="15.199841339098919"><ele>890.5</ele><time>2026-04-28T16:17:56Z</time></trkpt><trkpt lat="37.977103053420706" lon="15.199744983518364"><ele>891.25</ele><time>2026-04-28T16:17:57Z</time></trkpt><trkpt lat="37.97699274418154" lon="15.19969497901882"><ele>892.0</ele><time>2026-04-28T16:17:58Z</time></trkpt><trkpt lat="37.9768865043403" lon="15.199707017875495"><ele>893.75</ele><time>2026-04-28T16:17:59Z</time></trkpt><trkpt lat="37.97676554177805" lon="15.199776162440312"><ele>895.5</ele><time>2026-04-28T16:18:00Z</time></trkpt><trkpt lat="37.97663203989406" lon="15.199860431549732"><ele>897.25</ele><time>2026-04-28T16:18:01Z</time></trkpt><trkpt lat="37.97650094031379" lon="15.199903875970554"><ele>899.0</ele><time>2026-04-28T16:18:02Z</time></trkpt><trkpt lat="37.97636187924937" lon="15.199910262019246"><ele>899.0</ele><time>2026-04-28T16:18:03Z</time></trkpt><trkpt lat="37.976241256904544" lon="15.199922812885506"><ele>899.0000000000001</ele><time>2026-04-28T16:18:04Z</time></trkpt><trkpt lat="37.97614540697776" lon="15.199998192788"><ele>899.0000000000001</ele><time>2026-04-28T16:18:05Z</time></trkpt><trkpt lat="37.976064322526994" lon="15.200112079633287"><ele>899.0</ele><time>2026-04-28T16:18:06Z</time></trkpt><trkpt lat="37.9760024190516" lon="15.200183804208773"><ele>899.0</ele><time>2026-04-28T16:18:07Z</time></trkpt><trkpt lat="37.97587431393452" lon="15.200153879267475"><ele>901.8000000000001</ele><time>2026-04-28T16:18:09Z</time></trkpt><trkpt lat="37.97580465940052" lon="15.20006559428039"><ele>904.6000000000001</ele><time>2026-04-28T16:18:10Z</time></trkpt><trkpt lat="37.975761923930015" lon="15.199965168154362"><ele>907.4</ele><time>2026-04-28T16:18:11Z</time></trkpt><trkpt lat="37.97575755640257" lon="15.199845005387939"><ele>910.2</ele><time>2026-04-28T16:18:12Z</time></trkpt><trkpt lat="37.975793436359794" lon="15.199727984448286"><ele>913.0</ele><time>2026-04-28T16:18:13Z</time></trkpt><trkpt lat="37.97584084817236" lon="15.199615148956893"><ele>907.0</ele><time>2026-04-28T16:18:14Z</time></trkpt><trkpt lat="37.97590669339061" lon="15.19951754010548"><ele>901.0</ele><time>2026-04-28T16:18:15Z</time></trkpt><trkpt lat="37.97600673572645" lon="15.199432312626406"><ele>895.0</ele><time>2026-04-28T16:18:16Z</time></trkpt><trkpt lat="37.97609671827099" lon="15.199346178934977"><ele>889.0</ele><time>2026-04-28T16:18:17Z</time></trkpt><trkpt lat="37.97614898238482" lon="15.19924943564073"><ele>883.0</ele><time>2026-04-28T16:18:18Z</time></trkpt><trkpt lat="37.976176006101475" lon="15.199139017229149"><ele>883.0</ele><time>2026-04-28T16:18:19Z</time></trkpt><trkpt lat="37.97617591084013" lon="15.199021227037155"><ele>883.0</ele><time>2026-04-28T16:18:20Z</time></trkpt><trkpt lat="37.97614336495192" lon="15.198895303849865"><ele>883.0</ele><time>2026-04-28T16:18:21Z</time></trkpt><trkpt lat="37.97607893960414" lon="15.198760752487633"><ele>883.0</ele><time>2026-04-28T16:18:22Z</time></trkpt><trkpt lat="37.9759907918525" lon="15.19861986860241"><ele>884.6666666666666</ele><time>2026-04-28T16:18:23Z</time></trkpt><trkpt lat="37.97590558327817" lon="15.198460941469175"><ele>886.3333333333333</ele><time>2026-04-28T16:18:24Z</time></trkpt><trkpt lat="37.97583558862906" lon="15.19829240277837"><ele>888.0</ele><time>2026-04-28T16:18:25Z</time></trkpt><trkpt lat="37.975762985973546" lon="15.198117677172341"><ele>888.0</ele><time>2026-04-28T16:18:26Z</time></trkpt><trkpt lat="37.97569649506304" lon="15.19794126433863"><ele>888.0</ele><time>2026-04-28T16:18:27Z</time></trkpt><trkpt lat="37.975631315403135" lon="15.19776556417235"><ele>888.0</ele><time>2026-04-28T16:18:28Z</time></trkpt><trkpt lat="37.97555043262345" lon="15.197600475834117"><ele>888.0</ele><time>2026-04-28T16:18:29Z</time></trkpt><trkpt lat="37.975472284802656" lon="15.197459021651596"><ele>888.0</ele><time>2026-04-28T16:18:30Z</time></trkpt><trkpt lat="37.97542572603189" lon="15.197316202921561"><ele>888.0</ele><time>2026-04-28T16:18:31Z</time></trkpt><trkpt lat="37.97539209756037" lon="15.197185411279687"><ele>888.0</ele><time>2026-04-28T16:18:32Z</time></trkpt><trkpt lat="37.97534126124472" lon="15.197080080377189"><ele>888.5999999999999</ele><time>2026-04-28T16:18:32.999Z</time></trkpt><trkpt lat="37.97526942108384" lon="15.197017233858029"><ele>889.1999999999999</ele><time>2026-04-28T16:18:33.999Z</time></trkpt><trkpt lat="37.975181161919174" lon="15.197007603597015"><ele>889.8</ele><time>2026-04-28T16:18:34.999Z</time></trkpt><trkpt lat="37.97507854215455" lon="15.197045985154839"><ele>890.4</ele><time>2026-04-28T16:18:35.999Z</time></trkpt><trkpt lat="37.97496961960207" lon="15.197119061520592"><ele>891.0</ele><time>2026-04-28T16:18:36.999Z</time></trkpt><trkpt lat="37.97487179732093" lon="15.197205599719107"><ele>891.0</ele><time>2026-04-28T16:18:37.999Z</time></trkpt><trkpt lat="37.97479258109254" lon="15.197320926240199"><ele>891.0</ele><time>2026-04-28T16:18:38.999Z</time></trkpt><trkpt lat="37.974718327476715" lon="15.197468016211689"><ele>891.0</ele><time>2026-04-28T16:18:39.999Z</time></trkpt><trkpt lat="37.974641647807175" lon="15.197578275339865"><ele>891.0</ele><time>2026-04-28T16:18:40.999Z</time></trkpt><trkpt lat="37.974540888977884" lon="15.197642150669228"><ele>897.25</ele><time>2026-04-28T16:18:41.999Z</time></trkpt><trkpt lat="37.97443448440096" lon="15.197668358047437"><ele>903.5</ele><time>2026-04-28T16:18:42.999Z</time></trkpt><trkpt lat="37.97432973528068" lon="15.197638998665896"><ele>909.75</ele><time>2026-04-28T16:18:43.999Z</time></trkpt><trkpt lat="37.97421897925164" lon="15.197553509848706"><ele>916.0</ele><time>2026-04-28T16:18:44.999Z</time></trkpt><trkpt lat="37.97411928648006" lon="15.197457055717143"><ele>916.0</ele><time>2026-04-28T16:18:45.999Z</time></trkpt><trkpt lat="37.97400985833676" lon="15.197394327298316"><ele>916.0</ele><time>2026-04-28T16:18:46.999Z</time></trkpt><trkpt lat="37.973878270583306" lon="15.197377094488958"><ele>916.0</ele><time>2026-04-28T16:18:47.999Z</time></trkpt><trkpt lat="37.973733572671456" lon="15.197411545404163"><ele>916.0</ele><time>2026-04-28T16:18:48.999Z</time></trkpt><trkpt lat="37.97358533291172" lon="15.197463728038667"><ele>916.0</ele><time>2026-04-28T16:18:49.999Z</time></trkpt><trkpt lat="37.97342713703773" lon="15.197467329872673"><ele>916.0</ele><time>2026-04-28T16:18:50.999Z</time></trkpt><trkpt lat="37.9732586649553" lon="15.197425496944495"><ele>916.0</ele><time>2026-04-28T16:18:51.999Z</time></trkpt><trkpt lat="37.973095811608474" lon="15.19737991149299"><ele>918.3333333333333</ele><time>2026-04-28T16:18:52.999Z</time></trkpt><trkpt lat="37.97292594464963" lon="15.197347372050551"><ele>920.6666666666667</ele><time>2026-04-28T16:18:53.999Z</time></trkpt><trkpt lat="37.972744981407544" lon="15.197313562445165"><ele>923.0</ele><time>2026-04-28T16:18:54.999Z</time></trkpt><trkpt lat="37.97259075644239" lon="15.197289835280014"><ele>917.6666666666667</ele><time>2026-04-28T16:18:55.999Z</time></trkpt><trkpt lat="37.97245874901739" lon="15.197267895343755"><ele>912.3333333333333</ele><time>2026-04-28T16:18:56.999Z</time></trkpt><trkpt lat="37.97230667454302" lon="15.197238520540836"><ele>907.0</ele><time>2026-04-28T16:18:57.999Z</time></trkpt><trkpt lat="37.97213499457025" lon="15.197204216254045"><ele>907.0</ele><time>2026-04-28T16:18:58.999Z</time></trkpt><trkpt lat="37.971966827595864" lon="15.197197017679944"><ele>907.0</ele><time>2026-04-28T16:18:59.999Z</time></trkpt><trkpt lat="37.971828060618435" lon="15.19721481884956"><ele>907.0</ele><time>2026-04-28T16:19:00.999Z</time></trkpt><trkpt lat="37.97173198431126" lon="15.197225947109667"><ele>907.0</ele><time>2026-04-28T16:19:01.999Z</time></trkpt><trkpt lat="37.97165620777395" lon="15.197199751791608"><ele>911.0</ele><time>2026-04-28T16:19:02.999Z</time></trkpt><trkpt lat="37.97158495890827" lon="15.197092225742624"><ele>915.0</ele><time>2026-04-28T16:19:03.999Z</time></trkpt><trkpt lat="37.971485137684226" lon="15.19695978131784"><ele>919.0</ele><time>2026-04-28T16:19:04.999Z</time></trkpt><trkpt lat="37.97138176489069" lon="15.196868674126339"><ele>923.0</ele><time>2026-04-28T16:19:05.999Z</time></trkpt><trkpt lat="37.971303982783205" lon="15.196790245969481"><ele>923.0</ele><time>2026-04-28T16:19:06.999Z</time></trkpt><trkpt lat="37.97124350322741" lon="15.196697550972031"><ele>923.0</ele><time>2026-04-28T16:19:07.999Z</time></trkpt><trkpt lat="37.97121586593154" lon="15.196533445713044"><ele>923.0</ele><time>2026-04-28T16:19:08.999Z</time></trkpt><trkpt lat="37.97119625085743" lon="15.196355010034857"><ele>923.0</ele><time>2026-04-28T16:19:09.999Z</time></trkpt><trkpt lat="37.97115788768368" lon="15.196206064241798"><ele>924.0000000000001</ele><time>2026-04-28T16:19:10.999Z</time></trkpt><trkpt lat="37.9710947356871" lon="15.196095775902268"><ele>925.0</ele><time>2026-04-28T16:19:11.999Z</time></trkpt><trkpt lat="37.97104026101862" lon="15.19603346832287"><ele>926.0</ele><time>2026-04-28T16:19:12.999Z</time></trkpt><trkpt lat="37.970970131882" lon="15.195980950046483"><ele>927.0</ele><time>2026-04-28T16:19:17.999Z</time></trkpt><trkpt lat="37.97089594036552" lon="15.195991033734222"><ele>928.0000000000001</ele><time>2026-04-28T16:19:19.999Z</time></trkpt><trkpt lat="37.970786964050006" lon="15.196004448356463"><ele>929.0</ele><time>2026-04-28T16:19:21.999Z</time></trkpt><trkpt lat="37.97069221163367" lon="15.19603963822308"><ele>929.0</ele><time>2026-04-28T16:19:22.999Z</time></trkpt><trkpt lat="37.97059416677268" lon="15.196099316703364"><ele>929.0000000000001</ele><time>2026-04-28T16:19:23.999Z</time></trkpt><trkpt lat="37.970503755064925" lon="15.196178467027206"><ele>929.0000000000001</ele><time>2026-04-28T16:19:24.999Z</time></trkpt><trkpt lat="37.97044256945057" lon="15.196240518505284"><ele>929.0</ele><time>2026-04-28T16:19:25.999Z</time></trkpt><trkpt lat="37.97032924179182" lon="15.196265767532456"><ele>929.0</ele><time>2026-04-28T16:19:27.999Z</time></trkpt><trkpt lat="37.9702400700175" lon="15.196217844892026"><ele>929.0</ele><time>2026-04-28T16:19:28.999Z</time></trkpt><trkpt lat="37.97014382238356" lon="15.196175205295424"><ele>929.0000000000001</ele><time>2026-04-28T16:19:30Z</time></trkpt><trkpt lat="37.97004717374471" lon="15.196170007040683"><ele>929.0000000000001</ele><time>2026-04-28T16:19:31Z</time></trkpt><trkpt lat="37.96994837647416" lon="15.196196795103788"><ele>929.0</ele><time>2026-04-28T16:19:32Z</time></trkpt><trkpt lat="37.969846976734715" lon="15.196254820307445"><ele>929.0</ele><time>2026-04-28T16:19:33Z</time></trkpt><trkpt lat="37.96975669943153" lon="15.196315031804977"><ele>928.0</ele><time>2026-04-28T16:19:34Z</time></trkpt><trkpt lat="37.96966624666447" lon="15.196380511923254"><ele>927.0000000000001</ele><time>2026-04-28T16:19:35Z</time></trkpt><trkpt lat="37.96957301462881" lon="15.196431424225949"><ele>926.0000000000001</ele><time>2026-04-28T16:19:36Z</time></trkpt><trkpt lat="37.96947433095797" lon="15.196479882721686"><ele>925.0</ele><time>2026-04-28T16:19:37Z</time></trkpt><trkpt lat="37.9693755406249" lon="15.196533754631"><ele>924.0</ele><time>2026-04-28T16:19:38Z</time></trkpt><trkpt lat="37.96926912480236" lon="15.196600623003288"><ele>925.4000000000001</ele><time>2026-04-28T16:19:39Z</time></trkpt><trkpt lat="37.969156177051225" lon="15.196671238977506"><ele>926.8000000000001</ele><time>2026-04-28T16:19:40Z</time></trkpt><trkpt lat="37.969055456631445" lon="15.196720785047429"><ele>928.1999999999999</ele><time>2026-04-28T16:19:41Z</time></trkpt><trkpt lat="37.96898219140126" lon="15.196756111719928"><ele>929.5999999999999</ele><time>2026-04-28T16:19:42Z</time></trkpt><trkpt lat="37.968917176620636" lon="15.196763179291082"><ele>931.0</ele><time>2026-04-28T16:19:43Z</time></trkpt><trkpt lat="37.96883291457886" lon="15.196738741358063"><ele>931.0</ele><time>2026-04-28T16:19:44Z</time></trkpt><trkpt lat="37.96874391661698" lon="15.196702910173553"><ele>930.9999999999999</ele><time>2026-04-28T16:19:45Z</time></trkpt><trkpt lat="37.968659644268925" lon="15.196658894356922"><ele>930.9999999999999</ele><time>2026-04-28T16:19:46Z</time></trkpt><trkpt lat="37.968572734748214" lon="15.19658038106544"><ele>931.0</ele><time>2026-04-28T16:19:47Z</time></trkpt><trkpt lat="37.96848017613919" lon="15.196501021046664"><ele>931.0</ele><time>2026-04-28T16:19:48Z</time></trkpt><trkpt lat="37.96838145972903" lon="15.196436497978938"><ele>933.1666666666666</ele><time>2026-04-28T16:19:49Z</time></trkpt><trkpt lat="37.968277367733855" lon="15.196380683897017"><ele>935.3333333333333</ele><time>2026-04-28T16:19:50Z</time></trkpt><trkpt lat="37.96820802418007" lon="15.196352232561223"><ele>937.5</ele><time>2026-04-28T16:19:51Z</time></trkpt><trkpt lat="37.96810394578661" lon="15.196391429123851"><ele>939.6666666666667</ele><time>2026-04-28T16:19:53Z</time></trkpt><trkpt lat="37.96805922525177" lon="15.196457217718878"><ele>941.8333333333334</ele><time>2026-04-28T16:19:54Z</time></trkpt><trkpt lat="37.96801564824389" lon="15.196544761443432"><ele>944.0</ele><time>2026-04-28T16:19:55Z</time></trkpt><trkpt lat="37.967969624453445" lon="15.196650032105092"><ele>944.0000000000001</ele><time>2026-04-28T16:19:56Z</time></trkpt><trkpt lat="37.96792233219325" lon="15.19675539573158"><ele>944.0</ele><time>2026-04-28T16:19:57Z</time></trkpt><trkpt lat="37.96789564646818" lon="15.196850712023432"><ele>944.0</ele><time>2026-04-28T16:19:58Z</time></trkpt><trkpt lat="37.967903112879945" lon="15.196964810595507"><ele>944.0</ele><time>2026-04-28T16:19:59Z</time></trkpt><trkpt lat="37.96792657651561" lon="15.197075389634517"><ele>944.0000000000001</ele><time>2026-04-28T16:20:00Z</time></trkpt><trkpt lat="37.967940636628335" lon="15.19719123661669"><ele>944.0</ele><time>2026-04-28T16:20:01Z</time></trkpt><trkpt lat="37.9679330638978" lon="15.197271368351641"><ele>945.8000000000001</ele><time>2026-04-28T16:20:02Z</time></trkpt><trkpt lat="37.9678629073257" lon="15.197353635531357"><ele>947.6000000000001</ele><time>2026-04-28T16:20:04Z</time></trkpt><trkpt lat="37.96779796773811" lon="15.197370657824724"><ele>949.4</ele><time>2026-04-28T16:20:05Z</time></trkpt><trkpt lat="37.967712331183556" lon="15.197366339486397"><ele>951.2</ele><time>2026-04-28T16:20:06Z</time></trkpt><trkpt lat="37.967607496098246" lon="15.197348783771952"><ele>953.0</ele><time>2026-04-28T16:20:07Z</time></trkpt><trkpt lat="37.96749962068045" lon="15.197354612163856"><ele>953.0000000000001</ele><time>2026-04-28T16:20:08Z</time></trkpt><trkpt lat="37.96741225970283" lon="15.197386334466874"><ele>953.0</ele><time>2026-04-28T16:20:09Z</time></trkpt><trkpt lat="37.96734751545957" lon="15.197427276576022"><ele>953.0</ele><time>2026-04-28T16:20:10Z</time></trkpt><trkpt lat="37.96727981104545" lon="15.197424450867748"><ele>953.0</ele><time>2026-04-28T16:20:12Z</time></trkpt><trkpt lat="37.967256553737315" lon="15.197328120949496"><ele>953.0000000000001</ele><time>2026-04-28T16:20:14Z</time></trkpt><trkpt lat="37.96735015647" lon="15.197243884368582"><ele>953.0</ele><time>2026-04-28T16:20:16Z</time></trkpt><trkpt lat="37.967436835226884" lon="15.197244434294893"><ele>951.5000000000001</ele><time>2026-04-28T16:20:17Z</time></trkpt><trkpt lat="37.96752927843585" lon="15.197247131482227"><ele>950.0</ele><time>2026-04-28T16:20:18Z</time></trkpt><trkpt lat="37.9676186458546" lon="15.197238128188449"><ele>948.5</ele><time>2026-04-28T16:20:19Z</time></trkpt><trkpt lat="37.96769069025579" lon="15.19722041489583"><ele>947.0</ele><time>2026-04-28T16:20:20Z</time></trkpt><trkpt lat="37.96775708271152" lon="15.197112379747493"><ele>945.5000000000001</ele><time>2026-04-28T16:20:22Z</time></trkpt><trkpt lat="37.96776468350632" lon="15.197018828857615"><ele>944.0</ele><time>2026-04-28T16:20:23Z</time></trkpt><trkpt lat="37.967748235843" lon="15.196909770129524"><ele>944.0</ele><time>2026-04-28T16:20:24Z</time></trkpt><trkpt lat="37.96770350605265" lon="15.19678426409645"><ele>944.0000000000001</ele><time>2026-04-28T16:20:25Z</time></trkpt><trkpt lat="37.96766358566091" lon="15.19663981276083"><ele>944.0000000000001</ele><time>2026-04-28T16:20:26Z</time></trkpt><trkpt lat="37.967647769526565" lon="15.196533318461588"><ele>944.0</ele><time>2026-04-28T16:20:27Z</time></trkpt><trkpt lat="37.9676943600711" lon="15.196377948559094"><ele>944.0</ele><time>2026-04-28T16:20:29Z</time></trkpt><trkpt lat="37.96775458162577" lon="15.196294373508717"><ele>948.5000000000001</ele><time>2026-04-28T16:20:30Z</time></trkpt><trkpt lat="37.96781143904856" lon="15.196218657314722"><ele>953.0</ele><time>2026-04-28T16:20:31Z</time></trkpt><trkpt lat="37.967850081503535" lon="15.196121251966915"><ele>957.5</ele><time>2026-04-28T16:20:32Z</time></trkpt><trkpt lat="37.96788542085944" lon="15.195998674519288"><ele>962.0</ele><time>2026-04-28T16:20:33Z</time></trkpt><trkpt lat="37.96791923258099" lon="15.195911000336876"><ele>966.5000000000001</ele><time>2026-04-28T16:20:34Z</time></trkpt><trkpt lat="37.96797418779938" lon="15.195865698448854"><ele>971.0</ele><time>2026-04-28T16:20:35Z</time></trkpt><trkpt lat="37.968065441584244" lon="15.195845858529607"><ele>971.0</ele><time>2026-04-28T16:20:36Z</time></trkpt><trkpt lat="37.968172073737364" lon="15.195827424506868"><ele>970.9999999999999</ele><time>2026-04-28T16:20:37Z</time></trkpt><trkpt lat="37.96826097037742" lon="15.19579021504201"><ele>970.9999999999999</ele><time>2026-04-28T16:20:38Z</time></trkpt><trkpt lat="37.968337830293244" lon="15.195733603798558"><ele>971.0</ele><time>2026-04-28T16:20:39Z</time></trkpt><trkpt lat="37.96841674513018" lon="15.19562701347262"><ele>971.0</ele><time>2026-04-28T16:20:40Z</time></trkpt><trkpt lat="37.9684817109313" lon="15.195500466499832"><ele>971.25</ele><time>2026-04-28T16:20:40.999Z</time></trkpt><trkpt lat="37.968539129318756" lon="15.195386157541002"><ele>971.5</ele><time>2026-04-28T16:20:41.999Z</time></trkpt><trkpt lat="37.96860836353955" lon="15.195288477151044"><ele>971.75</ele><time>2026-04-28T16:20:42.999Z</time></trkpt><trkpt lat="37.96870654177921" lon="15.195196574013957"><ele>972.0</ele><time>2026-04-28T16:20:43.999Z</time></trkpt><trkpt lat="37.96881416302185" lon="15.195073436724071"><ele>972.0</ele><time>2026-04-28T16:20:44.999Z</time></trkpt><trkpt lat="37.96891967773013" lon="15.194958371117707"><ele>972.0</ele><time>2026-04-28T16:20:45.999Z</time></trkpt><trkpt lat="37.96900667797204" lon="15.194849204581702"><ele>972.0</ele><time>2026-04-28T16:20:46.999Z</time></trkpt><trkpt lat="37.96906464750789" lon="15.194747527032755"><ele>972.0</ele><time>2026-04-28T16:20:47.999Z</time></trkpt><trkpt lat="37.969104035444964" lon="15.19464530294798"><ele>974.6</ele><time>2026-04-28T16:20:48.999Z</time></trkpt><trkpt lat="37.96916101493167" lon="15.194547322362478"><ele>977.2</ele><time>2026-04-28T16:20:49.999Z</time></trkpt><trkpt lat="37.96918759653754" lon="15.194451629269993"><ele>979.8</ele><time>2026-04-28T16:20:50.999Z</time></trkpt><trkpt lat="37.969128373463036" lon="15.194304391804422"><ele>982.4</ele><time>2026-04-28T16:20:52.999Z</time></trkpt><trkpt lat="37.96905233536008" lon="15.194218758483496"><ele>985.0</ele><time>2026-04-28T16:20:53.999Z</time></trkpt><trkpt lat="37.9689587902768" lon="15.194126666861058"><ele>985.0</ele><time>2026-04-28T16:20:54.999Z</time></trkpt><trkpt lat="37.968880163421844" lon="15.194024594158945"><ele>985.0</ele><time>2026-04-28T16:20:55.999Z</time></trkpt><trkpt lat="37.968817373706564" lon="15.19390623514373"><ele>985.0</ele><time>2026-04-28T16:20:56.999Z</time></trkpt><trkpt lat="37.968766438011485" lon="15.193775447855282"><ele>985.0</ele><time>2026-04-28T16:20:57.999Z</time></trkpt><trkpt lat="37.96873117701153" lon="15.19364120712259"><ele>986.0</ele><time>2026-04-28T16:20:58.999Z</time></trkpt><trkpt lat="37.96872456838228" lon="15.193522039744463"><ele>987.0</ele><time>2026-04-28T16:20:59.999Z</time></trkpt><trkpt lat="37.96873159466299" lon="15.193412543869004"><ele>988.0</ele><time>2026-04-28T16:21:00.999Z</time></trkpt><trkpt lat="37.968758862912914" lon="15.193294396496057"><ele>989.0</ele><time>2026-04-28T16:21:01.999Z</time></trkpt><trkpt lat="37.96880528592647" lon="15.193171540708812"><ele>990.0</ele><time>2026-04-28T16:21:02.999Z</time></trkpt><trkpt lat="37.968836675107354" lon="15.193052699059116"><ele>987.4</ele><time>2026-04-28T16:21:03.999Z</time></trkpt><trkpt lat="37.96883682475613" lon="15.192945317568334"><ele>984.8</ele><time>2026-04-28T16:21:04.999Z</time></trkpt><trkpt lat="37.968816744948114" lon="15.19284044849565"><ele>982.2</ele><time>2026-04-28T16:21:05.999Z</time></trkpt><trkpt lat="37.96877597481227" lon="15.192740588389688"><ele>979.6</ele><time>2026-04-28T16:21:06.999Z</time></trkpt><trkpt lat="37.96871388866667" lon="15.192649030725475"><ele>977.0</ele><time>2026-04-28T16:21:07.999Z</time></trkpt><trkpt lat="37.96863207973054" lon="15.192553480664586"><ele>977.0</ele><time>2026-04-28T16:21:08.999Z</time></trkpt><trkpt lat="37.96853170703898" lon="15.192444411253609"><ele>977.0</ele><time>2026-04-28T16:21:09.999Z</time></trkpt><trkpt lat="37.96846020271579" lon="15.192363983194076"><ele>977.0</ele><time>2026-04-28T16:21:10.999Z</time></trkpt><trkpt lat="37.96841590849994" lon="15.192290446364545"><ele>977.0</ele><time>2026-04-28T16:21:11.999Z</time></trkpt><trkpt lat="37.968392779950136" lon="15.192200292611018"><ele>977.0</ele><time>2026-04-28T16:21:12.999Z</time></trkpt><trkpt lat="37.96838581417028" lon="15.192095772845835"><ele>976.4000000000001</ele><time>2026-04-28T16:21:13.999Z</time></trkpt><trkpt lat="37.968381534108964" lon="15.19196611655476"><ele>975.8000000000001</ele><time>2026-04-28T16:21:14.999Z</time></trkpt><trkpt lat="37.968379138595104" lon="15.19182342647178"><ele>975.2</ele><time>2026-04-28T16:21:15.999Z</time></trkpt><trkpt lat="37.968378266003555" lon="15.19169107597455"><ele>974.6</ele><time>2026-04-28T16:21:16.999Z</time></trkpt><trkpt lat="37.96839095743157" lon="15.191559193280588"><ele>974.0</ele><time>2026-04-28T16:21:17.999Z</time></trkpt><trkpt lat="37.968385837960135" lon="15.191437205934402"><ele>974.0</ele><time>2026-04-28T16:21:18.999Z</time></trkpt><trkpt lat="37.9683686570389" lon="15.191306011681126"><ele>974.0000000000001</ele><time>2026-04-28T16:21:19.999Z</time></trkpt><trkpt lat="37.96834337605928" lon="15.191162713906971"><ele>974.0000000000001</ele><time>2026-04-28T16:21:20.999Z</time></trkpt><trkpt lat="37.96835241212834" lon="15.191035615884633"><ele>974.0</ele><time>2026-04-28T16:21:21.999Z</time></trkpt><trkpt lat="37.96837491106953" lon="15.190905919974183"><ele>974.0</ele><time>2026-04-28T16:21:22.999Z</time></trkpt><trkpt lat="37.96841330146635" lon="15.190773295316216"><ele>974.3333333333334</ele><time>2026-04-28T16:21:23.999Z</time></trkpt><trkpt lat="37.96845483342433" lon="15.190665455123344"><ele>974.6666666666667</ele><time>2026-04-28T16:21:24.999Z</time></trkpt><trkpt lat="37.968485985739996" lon="15.190579797420577"><ele>975.0</ele><time>2026-04-28T16:21:25.999Z</time></trkpt><trkpt lat="37.96849463073115" lon="15.190498209726215"><ele>975.3333333333333</ele><time>2026-04-28T16:21:26.999Z</time></trkpt><trkpt lat="37.968480697636984" lon="15.190415138558647"><ele>975.6666666666666</ele><time>2026-04-28T16:21:27.999Z</time></trkpt><trkpt lat="37.968429361829685" lon="15.1903380392881"><ele>976.0</ele><time>2026-04-28T16:21:28.999Z</time></trkpt><trkpt lat="37.96835262097853" lon="15.190269791564692"><ele>980.8333333333333</ele><time>2026-04-28T16:21:29.999Z</time></trkpt><trkpt lat="37.96827255400803" lon="15.19018444939914"><ele>985.6666666666666</ele><time>2026-04-28T16:21:30.999Z</time></trkpt><trkpt lat="37.968218264935715" lon="15.19010961523098"><ele>990.5</ele><time>2026-04-28T16:21:31.999Z</time></trkpt><trkpt lat="37.9681968800024" lon="15.190021594788693"><ele>995.3333333333333</ele><time>2026-04-28T16:21:32.999Z</time></trkpt><trkpt lat="37.96819315845479" lon="15.189933931049627"><ele>1000.1666666666666</ele><time>2026-04-28T16:21:33.999Z</time></trkpt><trkpt lat="37.96820341894474" lon="15.189807998431558"><ele>1005.0</ele><time>2026-04-28T16:21:34.999Z</time></trkpt><trkpt lat="37.968224138507715" lon="15.189674528660914"><ele>1005.0</ele><time>2026-04-28T16:21:36Z</time></trkpt><trkpt lat="37.96822398044232" lon="15.189576135794665"><ele>1005.0</ele><time>2026-04-28T16:21:37Z</time></trkpt><trkpt lat="37.968178774438286" lon="15.189505472047067"><ele>1005.0</ele><time>2026-04-28T16:21:38Z</time></trkpt><trkpt lat="37.96810527246653" lon="15.189435528272421"><ele>1005.0</ele><time>2026-04-28T16:21:39Z</time></trkpt><trkpt lat="37.968004558786404" lon="15.189362615013302"><ele>1005.0</ele><time>2026-04-28T16:21:40Z</time></trkpt><trkpt lat="37.967894119211266" lon="15.189284642651183"><ele>1005.0</ele><time>2026-04-28T16:21:41Z</time></trkpt><trkpt lat="37.96781965146853" lon="15.189189816868229"><ele>1005.0</ele><time>2026-04-28T16:21:42Z</time></trkpt><trkpt lat="37.96776248943183" lon="15.189057450253825"><ele>1005.0</ele><time>2026-04-28T16:21:43Z</time></trkpt><trkpt lat="37.96769841271249" lon="15.188923981829399"><ele>1005.0</ele><time>2026-04-28T16:21:44Z</time></trkpt><trkpt lat="37.967631830656565" lon="15.188850170039492"><ele>1005.0</ele><time>2026-04-28T16:21:45Z</time></trkpt><trkpt lat="37.96753357162135" lon="15.188804206653288"><ele>1005.6</ele><time>2026-04-28T16:21:46Z</time></trkpt><trkpt lat="37.96742177064172" lon="15.188764415858072"><ele>1006.2</ele><time>2026-04-28T16:21:47Z</time></trkpt><trkpt lat="37.96734064568926" lon="15.188715346391994"><ele>1006.8</ele><time>2026-04-28T16:21:48Z</time></trkpt><trkpt lat="37.967285257032465" lon="15.18864466209417"><ele>1007.4</ele><time>2026-04-28T16:21:49Z</time></trkpt><trkpt lat="37.96723852480993" lon="15.188549465893002"><ele>1008.0</ele><time>2026-04-28T16:21:50Z</time></trkpt><trkpt lat="37.96720705801579" lon="15.188433033389114"><ele>1008.0</ele><time>2026-04-28T16:21:51Z</time></trkpt><trkpt lat="37.967161971500126" lon="15.188300532135413"><ele>1008.0</ele><time>2026-04-28T16:21:52Z</time></trkpt><trkpt lat="37.967112535506274" lon="15.188178532349003"><ele>1008.0</ele><time>2026-04-28T16:21:53Z</time></trkpt><trkpt lat="37.96704559157751" lon="15.188083030862503"><ele>1008.0</ele><time>2026-04-28T16:21:54Z</time></trkpt><trkpt lat="37.96696993766277" lon="15.188034563489502"><ele>1008.0</ele><time>2026-04-28T16:21:55Z</time></trkpt><trkpt lat="37.96687858841243" lon="15.18801445172743"><ele>1008.25</ele><time>2026-04-28T16:21:56Z</time></trkpt><trkpt lat="37.96676402338175" lon="15.188015264482845"><ele>1008.5</ele><time>2026-04-28T16:21:57Z</time></trkpt><trkpt lat="37.966623832033925" lon="15.188030300770178"><ele>1008.75</ele><time>2026-04-28T16:21:58Z</time></trkpt><trkpt lat="37.96647903074553" lon="15.188045325170553"><ele>1009.0</ele><time>2026-04-28T16:21:59Z</time></trkpt><trkpt lat="37.9663428808072" lon="15.188033208897275"><ele>1009.0</ele><time>2026-04-28T16:22:00Z</time></trkpt><trkpt lat="37.96622294196647" lon="15.188025017842099"><ele>1009.0</ele><time>2026-04-28T16:22:01Z</time></trkpt><trkpt lat="37.966099390013234" lon="15.188031617573325"><ele>1009.0</ele><time>2026-04-28T16:22:02Z</time></trkpt><trkpt lat="37.96597995159761" lon="15.18804081668774"><ele>1009.0</ele><time>2026-04-28T16:22:03Z</time></trkpt><trkpt lat="37.965875812013365" lon="15.188058693191511"><ele>1010.4999999999999</ele><time>2026-04-28T16:22:04Z</time></trkpt><trkpt lat="37.96578957296146" lon="15.188059039608815"><ele>1012.0</ele><time>2026-04-28T16:22:05Z</time></trkpt><trkpt lat="37.965707085642926" lon="15.188035622381381"><ele>1013.5</ele><time>2026-04-28T16:22:06Z</time></trkpt><trkpt lat="37.965629900405055" lon="15.187979098226936"><ele>1015.0</ele><time>2026-04-28T16:22:07Z</time></trkpt><trkpt lat="37.96556300659313" lon="15.18791246929904"><ele>1016.4999999999999</ele><time>2026-04-28T16:22:08Z</time></trkpt><trkpt lat="37.96550027074956" lon="15.187826339678502"><ele>1018.0</ele><time>2026-04-28T16:22:09Z</time></trkpt><trkpt lat="37.96540361305867" lon="15.1877134876237"><ele>1018.0</ele><time>2026-04-28T16:22:10Z</time></trkpt><trkpt lat="37.96530227842876" lon="15.187623094387737"><ele>1018.0</ele><time>2026-04-28T16:22:11Z</time></trkpt><trkpt lat="37.965182766400105" lon="15.187539566935035"><ele>1018.0</ele><time>2026-04-28T16:22:12Z</time></trkpt><trkpt lat="37.96507811159898" lon="15.187467213442146"><ele>1018.0</ele><time>2026-04-28T16:22:13Z</time></trkpt><trkpt lat="37.96496576391526" lon="15.187364675006874"><ele>1015.5</ele><time>2026-04-28T16:22:14Z</time></trkpt><trkpt lat="37.964849583670826" lon="15.187270527712474"><ele>1013.0</ele><time>2026-04-28T16:22:15Z</time></trkpt><trkpt lat="37.96475024241567" lon="15.187173679635336"><ele>1010.5</ele><time>2026-04-28T16:22:16Z</time></trkpt><trkpt lat="37.96465650197879" lon="15.187097617932158"><ele>1008.0</ele><time>2026-04-28T16:22:17Z</time></trkpt><trkpt lat="37.96457270145695" lon="15.187050696258936"><ele>1008.0</ele><time>2026-04-28T16:22:18Z</time></trkpt><trkpt lat="37.9644737280484" lon="15.187024075354202"><ele>1008.0</ele><time>2026-04-28T16:22:19Z</time></trkpt><trkpt lat="37.9643591053109" lon="15.186992376804243"><ele>1008.0</ele><time>2026-04-28T16:22:20Z</time></trkpt><trkpt lat="37.96424313829174" lon="15.18694767821179"><ele>1008.0</ele><time>2026-04-28T16:22:21Z</time></trkpt><trkpt lat="37.964114683842624" lon="15.186891931879678"><ele>1011.0</ele><time>2026-04-28T16:22:22Z</time></trkpt><trkpt lat="37.96399244279057" lon="15.186837698942385"><ele>1014.0</ele><time>2026-04-28T16:22:23Z</time></trkpt><trkpt lat="37.96388760185683" lon="15.186773190901743"><ele>1017.0</ele><time>2026-04-28T16:22:24Z</time></trkpt><trkpt lat="37.9637987715984" lon="15.186707408445342"><ele>1020.0</ele><time>2026-04-28T16:22:25Z</time></trkpt><trkpt lat="37.96372620088763" lon="15.186646516801305"><ele>1023.0</ele><time>2026-04-28T16:22:26Z</time></trkpt><trkpt lat="37.963648048391846" lon="15.186606128938633"><ele>1023.0</ele><time>2026-04-28T16:22:28Z</time></trkpt><trkpt lat="37.963630785800056" lon="15.1865285178238"><ele>1023.0</ele><time>2026-04-28T16:22:30Z</time></trkpt><trkpt lat="37.96357263068274" lon="15.186397855864115"><ele>1023.0</ele><time>2026-04-28T16:22:32Z</time></trkpt><trkpt lat="37.96353194832386" lon="15.186310826318843"><ele>1023.0</ele><time>2026-04-28T16:22:33Z</time></trkpt><trkpt lat="37.963492843009554" lon="15.186194730517895"><ele>1023.0</ele><time>2026-04-28T16:22:34Z</time></trkpt><trkpt lat="37.963443022985054" lon="15.186065192500944"><ele>1021.0</ele><time>2026-04-28T16:22:35Z</time></trkpt><trkpt lat="37.963382334317025" lon="15.185915582625036"><ele>1019.0</ele><time>2026-04-28T16:22:36Z</time></trkpt><trkpt lat="37.96334573823682" lon="15.185740792624369"><ele>1017.0</ele><time>2026-04-28T16:22:37Z</time></trkpt><trkpt lat="37.9633139583448" lon="15.185561893967703"><ele>1015.0</ele><time>2026-04-28T16:22:38Z</time></trkpt><trkpt lat="37.96327516626904" lon="15.185390287103667"><ele>1020.25</ele><time>2026-04-28T16:22:39Z</time></trkpt><trkpt lat="37.9632539839302" lon="15.1852296397116"><ele>1025.5</ele><time>2026-04-28T16:22:40Z</time></trkpt><trkpt lat="37.96325672207567" lon="15.185077601692653"><ele>1030.75</ele><time>2026-04-28T16:22:41Z</time></trkpt><trkpt lat="37.96326794188625" lon="15.184925228863793"><ele>1036.0</ele><time>2026-04-28T16:22:42Z</time></trkpt><trkpt lat="37.96326143714817" lon="15.18478275827141"><ele>1036.0</ele><time>2026-04-28T16:22:43Z</time></trkpt><trkpt lat="37.96321791608826" lon="15.18465816232635"><ele>1036.0</ele><time>2026-04-28T16:22:44Z</time></trkpt><trkpt lat="37.9631555187791" lon="15.184517860271868"><ele>1036.0</ele><time>2026-04-28T16:22:45Z</time></trkpt><trkpt lat="37.96308229584088" lon="15.184376908732926"><ele>1036.0</ele><time>2026-04-28T16:22:45.999Z</time></trkpt><trkpt lat="37.96299886230783" lon="15.184227865434934"><ele>1036.0</ele><time>2026-04-28T16:22:46.999Z</time></trkpt><trkpt lat="37.962917030679826" lon="15.18406647899448"><ele>1036.0</ele><time>2026-04-28T16:22:47.999Z</time></trkpt><trkpt lat="37.96285896723619" lon="15.183938457895275"><ele>1036.0</ele><time>2026-04-28T16:22:48.999Z</time></trkpt><trkpt lat="37.96282087976141" lon="15.183816454702301"><ele>1036.0</ele><time>2026-04-28T16:22:49.999Z</time></trkpt><trkpt lat="37.96282131914138" lon="15.183689645304076"><ele>1035.3999999999999</ele><time>2026-04-28T16:22:50.999Z</time></trkpt><trkpt lat="37.96284036272343" lon="15.1835690422294"><ele>1034.8</ele><time>2026-04-28T16:22:51.999Z</time></trkpt><trkpt lat="37.96287509127323" lon="15.183434866817505"><ele>1034.1999999999998</ele><time>2026-04-28T16:22:52.999Z</time></trkpt><trkpt lat="37.962888552486085" lon="15.18332142879685"><ele>1033.6</ele><time>2026-04-28T16:22:53.999Z</time></trkpt><trkpt lat="37.962815020197375" lon="15.183219963711176"><ele>1033.0</ele><time>2026-04-28T16:22:55.999Z</time></trkpt><trkpt lat="37.962743578146146" lon="15.183190949036424"><ele>1034.75</ele><time>2026-04-28T16:22:56.999Z</time></trkpt><trkpt lat="37.96264446130041" lon="15.183172118195909"><ele>1036.5</ele><time>2026-04-28T16:22:57.999Z</time></trkpt><trkpt lat="37.96253499622922" lon="15.18316604279337"><ele>1038.25</ele><time>2026-04-28T16:22:58.999Z</time></trkpt><trkpt lat="37.96241129722956" lon="15.183157886173639"><ele>1040.0</ele><time>2026-04-28T16:22:59.999Z</time></trkpt><trkpt lat="37.96229261415279" lon="15.183142674784634"><ele>1040.0</ele><time>2026-04-28T16:23:00.999Z</time></trkpt><trkpt lat="37.96217885321848" lon="15.183106070640493"><ele>1040.0</ele><time>2026-04-28T16:23:01.999Z</time></trkpt><trkpt lat="37.9620645060531" lon="15.183059572042088"><ele>1040.0</ele><time>2026-04-28T16:23:02.999Z</time></trkpt><trkpt lat="37.961925516936226" lon="15.183013771412533"><ele>1040.0</ele><time>2026-04-28T16:23:03.999Z</time></trkpt><trkpt lat="37.96178710942626" lon="15.182970164675265"><ele>1044.5</ele><time>2026-04-28T16:23:04.999Z</time></trkpt><trkpt lat="37.96166257378993" lon="15.182935779436503"><ele>1049.0</ele><time>2026-04-28T16:23:05.999Z</time></trkpt><trkpt lat="37.96156927836742" lon="15.182904085432641"><ele>1053.5</ele><time>2026-04-28T16:23:06.999Z</time></trkpt><trkpt lat="37.961467399026425" lon="15.182869905156407"><ele>1058.0</ele><time>2026-04-28T16:23:07.999Z</time></trkpt><trkpt lat="37.961350599501046" lon="15.182818760271978"><ele>1058.0</ele><time>2026-04-28T16:23:08.999Z</time></trkpt><trkpt lat="37.96125743776137" lon="15.18278457236007"><ele>1058.0</ele><time>2026-04-28T16:23:09.999Z</time></trkpt><trkpt lat="37.961182468375824" lon="15.182754535546238"><ele>1058.0</ele><time>2026-04-28T16:23:10.999Z</time></trkpt><trkpt lat="37.96109558648008" lon="15.18268886926083"><ele>1058.0</ele><time>2026-04-28T16:23:11.999Z</time></trkpt><trkpt lat="37.960984982951665" lon="15.18261279402132"><ele>1058.0</ele><time>2026-04-28T16:23:12.999Z</time></trkpt><trkpt lat="37.96085918238297" lon="15.182531300415162"><ele>1057.5</ele><time>2026-04-28T16:23:13.999Z</time></trkpt><trkpt lat="37.96072958487057" lon="15.182437558351298"><ele>1057.0</ele><time>2026-04-28T16:23:14.999Z</time></trkpt><trkpt lat="37.96060041785205" lon="15.18233744663257"><ele>1056.5</ele><time>2026-04-28T16:23:15.999Z</time></trkpt><trkpt lat="37.96047812321962" lon="15.182239762392006"><ele>1056.0</ele><time>2026-04-28T16:23:16.999Z</time></trkpt><trkpt lat="37.96034629706703" lon="15.182132997883741"><ele>1056.0</ele><time>2026-04-28T16:23:17.999Z</time></trkpt><trkpt lat="37.96022488232046" lon="15.182034684889933"><ele>1056.0</ele><time>2026-04-28T16:23:18.999Z</time></trkpt><trkpt lat="37.960113866666966" lon="15.181958278715856"><ele>1056.0</ele><time>2026-04-28T16:23:19.999Z</time></trkpt><trkpt lat="37.96001841384561" lon="15.18188672622526"><ele>1056.0</ele><time>2026-04-28T16:23:20.999Z</time></trkpt><trkpt lat="37.95993953522681" lon="15.181820344310141"><ele>1056.3333333333333</ele><time>2026-04-28T16:23:21.999Z</time></trkpt><trkpt lat="37.959885895677424" lon="15.18174886033263"><ele>1056.6666666666667</ele><time>2026-04-28T16:23:22.999Z</time></trkpt><trkpt lat="37.95984578721956" lon="15.181665857134638"><ele>1057.0</ele><time>2026-04-28T16:23:23.999Z</time></trkpt><trkpt lat="37.959812737012385" lon="15.181545145347522"><ele>1057.3333333333335</ele><time>2026-04-28T16:23:24.999Z</time></trkpt><trkpt lat="37.95978154807961" lon="15.181418351521014"><ele>1057.6666666666667</ele><time>2026-04-28T16:23:25.999Z</time></trkpt><trkpt lat="37.95972855986057" lon="15.181333887916129"><ele>1058.0</ele><time>2026-04-28T16:23:26.999Z</time></trkpt><trkpt lat="37.959657544871405" lon="15.181278045562768"><ele>1058.0</ele><time>2026-04-28T16:23:27.999Z</time></trkpt><trkpt lat="37.959560342033335" lon="15.181238484566698"><ele>1058.0</ele><time>2026-04-28T16:23:28.999Z</time></trkpt><trkpt lat="37.959449855217564" lon="15.181197184497496"><ele>1058.0</ele><time>2026-04-28T16:23:29.999Z</time></trkpt><trkpt lat="37.95937521517024" lon="15.18114515714688"><ele>1058.0</ele><time>2026-04-28T16:23:30.999Z</time></trkpt><trkpt lat="37.959320451190344" lon="15.181069286565398"><ele>1058.0</ele><time>2026-04-28T16:23:31.999Z</time></trkpt><trkpt lat="37.959271398114375" lon="15.18093615292422"><ele>1058.0</ele><time>2026-04-28T16:23:32.999Z</time></trkpt><trkpt lat="37.95922066344636" lon="15.18077760400204"><ele>1058.0</ele><time>2026-04-28T16:23:33.999Z</time></trkpt><trkpt lat="37.959178153623675" lon="15.180645871321524"><ele>1058.0</ele><time>2026-04-28T16:23:34.999Z</time></trkpt><trkpt lat="37.95914384064011" lon="15.18053793573514"><ele>1058.0</ele><time>2026-04-28T16:23:35.999Z</time></trkpt><trkpt lat="37.95910413889265" lon="15.180444407017692"><ele>1058.0</ele><time>2026-04-28T16:23:36.999Z</time></trkpt><trkpt lat="37.9590351733028" lon="15.180365075641287"><ele>1059.6</ele><time>2026-04-28T16:23:37.999Z</time></trkpt><trkpt lat="37.958955700838395" lon="15.18032573409831"><ele>1061.1999999999998</ele><time>2026-04-28T16:23:38.999Z</time></trkpt><trkpt lat="37.95885565510503" lon="15.180283613407193"><ele>1062.8</ele><time>2026-04-28T16:23:39.999Z</time></trkpt><trkpt lat="37.95876135303588" lon="15.180256662854138"><ele>1064.3999999999999</ele><time>2026-04-28T16:23:41Z</time></trkpt><trkpt lat="37.958672041205936" lon="15.180199912007406"><ele>1066.0</ele><time>2026-04-28T16:23:43Z</time></trkpt><trkpt lat="37.958567280642114" lon="15.180105580574953"><ele>1066.0</ele><time>2026-04-28T16:23:45Z</time></trkpt><trkpt lat="37.9584847725893" lon="15.180041666168565"><ele>1066.0</ele><time>2026-04-28T16:23:46Z</time></trkpt><trkpt lat="37.958395016486016" lon="15.1799702541081"><ele>1066.0</ele><time>2026-04-28T16:23:47Z</time></trkpt><trkpt lat="37.95830111725607" lon="15.179890883035473"><ele>1066.0</ele><time>2026-04-28T16:23:48Z</time></trkpt><trkpt lat="37.95821350826741" lon="15.179811322242717"><ele>1066.0</ele><time>2026-04-28T16:23:49Z</time></trkpt><trkpt lat="37.958126917453264" lon="15.179703221658023"><ele>1065.8</ele><time>2026-04-28T16:23:50Z</time></trkpt><trkpt lat="37.95804419594921" lon="15.179593737737578"><ele>1065.6</ele><time>2026-04-28T16:23:51Z</time></trkpt><trkpt lat="37.95797170535947" lon="15.179499849772608"><ele>1065.4</ele><time>2026-04-28T16:23:52Z</time></trkpt><trkpt lat="37.9578843221257" lon="15.179428315210819"><ele>1065.2</ele><time>2026-04-28T16:23:53Z</time></trkpt><trkpt lat="37.95780377698911" lon="15.179361156475832"><ele>1065.0</ele><time>2026-04-28T16:23:54Z</time></trkpt><trkpt lat="37.95772146698341" lon="15.179307721249314"><ele>1065.0</ele><time>2026-04-28T16:23:55Z</time></trkpt><trkpt lat="37.95766582842808" lon="15.179258006830876"><ele>1065.0</ele><time>2026-04-28T16:23:56Z</time></trkpt><trkpt lat="37.95757208936916" lon="15.179294841547128"><ele>1065.0</ele><time>2026-04-28T16:24:20Z</time></trkpt><trkpt lat="37.95750502669936" lon="15.179301267425338"><ele>1065.0</ele><time>2026-04-28T16:24:21Z</time></trkpt><trkpt lat="37.95743845129176" lon="15.179301400604228"><ele>1065.0</ele><time>2026-04-28T16:24:22Z</time></trkpt><trkpt lat="37.95734652180285" lon="15.179255855683149"><ele>1065.0</ele><time>2026-04-28T16:24:24Z</time></trkpt><trkpt lat="37.957270267590815" lon="15.179185191028077"><ele>1064.8</ele><time>2026-04-28T16:24:26Z</time></trkpt><trkpt lat="37.95721243701009" lon="15.179111157202973"><ele>1064.6</ele><time>2026-04-28T16:24:27Z</time></trkpt><trkpt lat="37.957153497356224" lon="15.17900386233442"><ele>1064.4</ele><time>2026-04-28T16:24:28Z</time></trkpt><trkpt lat="37.95709783322203" lon="15.17888833842862"><ele>1064.2</ele><time>2026-04-28T16:24:29Z</time></trkpt><trkpt lat="37.95703082447628" lon="15.17879249651098"><ele>1064.0</ele><time>2026-04-28T16:24:30Z</time></trkpt><trkpt lat="37.95697353649602" lon="15.17869644519982"><ele>1064.5</ele><time>2026-04-28T16:24:31Z</time></trkpt><trkpt lat="37.95692533396585" lon="15.17861224377962"><ele>1065.0</ele><time>2026-04-28T16:24:32Z</time></trkpt><trkpt lat="37.956882730315165" lon="15.178531462966173"><ele>1065.5</ele><time>2026-04-28T16:24:33Z</time></trkpt><trkpt lat="37.95682541981622" lon="15.178461736571043"><ele>1066.0</ele><time>2026-04-28T16:24:34Z</time></trkpt><trkpt lat="37.95676106249495" lon="15.17841771326612"><ele>1066.5</ele><time>2026-04-28T16:24:35Z</time></trkpt><trkpt lat="37.95668091074509" lon="15.178379725758345"><ele>1067.0</ele><time>2026-04-28T16:24:36Z</time></trkpt><trkpt lat="37.956597707024166" lon="15.178355099422893"><ele>1068.1666666666667</ele><time>2026-04-28T16:24:37Z</time></trkpt><trkpt lat="37.95651770311406" lon="15.17832774161673"><ele>1069.3333333333335</ele><time>2026-04-28T16:24:38Z</time></trkpt><trkpt lat="37.95644316535827" lon="15.17828284197219"><ele>1070.5</ele><time>2026-04-28T16:24:39Z</time></trkpt><trkpt lat="37.95636777748816" lon="15.178204687404614"><ele>1071.6666666666667</ele><time>2026-04-28T16:24:40Z</time></trkpt><trkpt lat="37.956291298165254" lon="15.178126961117053"><ele>1072.8333333333333</ele><time>2026-04-28T16:24:41Z</time></trkpt><trkpt lat="37.95621219612469" lon="15.17808108250268"><ele>1074.0</ele><time>2026-04-28T16:24:42Z</time></trkpt><trkpt lat="37.95614661646857" lon="15.178044193046551"><ele>1074.0</ele><time>2026-04-28T16:24:43Z</time></trkpt><trkpt lat="37.95609176592389" lon="15.17799592377204"><ele>1074.0</ele><time>2026-04-28T16:24:44Z</time></trkpt><trkpt lat="37.95602899282321" lon="15.177923376265879"><ele>1074.0</ele><time>2026-04-28T16:24:45Z</time></trkpt><trkpt lat="37.955975061776385" lon="15.177840006763853"><ele>1074.0</ele><time>2026-04-28T16:24:46Z</time></trkpt><trkpt lat="37.95590967621051" lon="15.177757977607033"><ele>1074.0</ele><time>2026-04-28T16:24:47Z</time></trkpt><trkpt lat="37.95587253032379" lon="15.177676908900782"><ele>1074.0</ele><time>2026-04-28T16:24:47.999Z</time></trkpt><trkpt lat="37.955834022798875" lon="15.177590915700755"><ele>1071.0</ele><time>2026-04-28T16:24:48.999Z</time></trkpt><trkpt lat="37.95580558864695" lon="15.177491132842727"><ele>1068.0</ele><time>2026-04-28T16:24:49.999Z</time></trkpt><trkpt lat="37.95577664691516" lon="15.177390958502562"><ele>1065.0</ele><time>2026-04-28T16:24:50.999Z</time></trkpt><trkpt lat="37.955725837690565" lon="15.177280981424152"><ele>1062.0</ele><time>2026-04-28T16:24:51.999Z</time></trkpt><trkpt lat="37.95566477221275" lon="15.177201222893792"><ele>1059.0</ele><time>2026-04-28T16:24:52.999Z</time></trkpt><trkpt lat="37.955603894294626" lon="15.177136146147093"><ele>1056.0</ele><time>2026-04-28T16:24:53.999Z</time></trkpt><trkpt lat="37.95551434070287" lon="15.177041412418529"><ele>1056.0</ele><time>2026-04-28T16:24:54.999Z</time></trkpt><trkpt lat="37.95541602947072" lon="15.176969666360556"><ele>1056.0</ele><time>2026-04-28T16:24:55.999Z</time></trkpt><trkpt lat="37.955325502355564" lon="15.176907877581517"><ele>1056.0</ele><time>2026-04-28T16:24:56.999Z</time></trkpt><trkpt lat="37.955256805704735" lon="15.176806173630206"><ele>1056.0</ele><time>2026-04-28T16:24:57.999Z</time></trkpt><trkpt lat="37.95519064742525" lon="15.1766811903083"><ele>1056.0</ele><time>2026-04-28T16:24:58.999Z</time></trkpt><trkpt lat="37.955143772549576" lon="15.17658044027108"><ele>1056.2</ele><time>2026-04-28T16:24:59.999Z</time></trkpt><trkpt lat="37.95510530219648" lon="15.176492438880384"><ele>1056.3999999999999</ele><time>2026-04-28T16:25:00.999Z</time></trkpt><trkpt lat="37.95507627375554" lon="15.17641051086221"><ele>1056.6</ele><time>2026-04-28T16:25:01.999Z</time></trkpt><trkpt lat="37.95505234364001" lon="15.176259893389371"><ele>1056.8</ele><time>2026-04-28T16:25:03.999Z</time></trkpt><trkpt lat="37.95503674985931" lon="15.176159146401991"><ele>1057.0</ele><time>2026-04-28T16:25:04.999Z</time></trkpt><trkpt lat="37.95502510122937" lon="15.176023874480626"><ele>1057.0</ele><time>2026-04-28T16:25:05.999Z</time></trkpt><trkpt lat="37.95502770916863" lon="15.17588270210562"><ele>1057.0</ele><time>2026-04-28T16:25:06.999Z</time></trkpt><trkpt lat="37.95504647444101" lon="15.175750891030045"><ele>1057.0</ele><time>2026-04-28T16:25:07.999Z</time></trkpt><trkpt lat="37.95506069288418" lon="15.175618737263875"><ele>1057.0</ele><time>2026-04-28T16:25:08.999Z</time></trkpt><trkpt lat="37.955034948766084" lon="15.17549813058085"><ele>1057.0</ele><time>2026-04-28T16:25:09.999Z</time></trkpt><trkpt lat="37.95498947650004" lon="15.175344008301769"><ele>1051.4</ele><time>2026-04-28T16:25:10.999Z</time></trkpt><trkpt lat="37.95496072814397" lon="15.175202546249466"><ele>1045.8000000000002</ele><time>2026-04-28T16:25:11.999Z</time></trkpt><trkpt lat="37.95494538066965" lon="15.175089780278638"><ele>1040.2</ele><time>2026-04-28T16:25:12.999Z</time></trkpt><trkpt lat="37.95493819207266" lon="15.174979450538087"><ele>1034.6000000000001</ele><time>2026-04-28T16:25:13.999Z</time></trkpt><trkpt lat="37.95494411131854" lon="15.174880629901526"><ele>1029.0</ele><time>2026-04-28T16:25:14.999Z</time></trkpt><trkpt lat="37.95498427672362" lon="15.174770447784914"><ele>1029.0</ele><time>2026-04-28T16:25:15.999Z</time></trkpt><trkpt lat="37.95503262197452" lon="15.174689190921496"><ele>1029.0</ele><time>2026-04-28T16:25:16.999Z</time></trkpt><trkpt lat="37.95504648759726" lon="15.1746015770182"><ele>1029.0</ele><time>2026-04-28T16:25:17.999Z</time></trkpt><trkpt lat="37.95499584838003" lon="15.174523806148448"><ele>1029.0</ele><time>2026-04-28T16:25:19.999Z</time></trkpt><trkpt lat="37.954910179459695" lon="15.174501498632713"><ele>1029.0</ele><time>2026-04-28T16:25:20.999Z</time></trkpt><trkpt lat="37.954814248500455" lon="15.17451129603931"><ele>1029.0</ele><time>2026-04-28T16:25:21.999Z</time></trkpt><trkpt lat="37.954718424420065" lon="15.174516545335992"><ele>1029.0</ele><time>2026-04-28T16:25:22.999Z</time></trkpt><trkpt lat="37.95463736461519" lon="15.174519047451424"><ele>1029.0</ele><time>2026-04-28T16:25:23.999Z</time></trkpt><trkpt lat="37.95456326354165" lon="15.174493343016177"><ele>1029.0</ele><time>2026-04-28T16:25:24.999Z</time></trkpt><trkpt lat="37.95449072060845" lon="15.174421711267776"><ele>1029.0</ele><time>2026-04-28T16:25:25.999Z</time></trkpt><trkpt lat="37.954451614460204" lon="15.174352826330576"><ele>1029.0</ele><time>2026-04-28T16:25:26.999Z</time></trkpt><trkpt lat="37.95442143726859" lon="15.174258325274277"><ele>1029.0</ele><time>2026-04-28T16:25:27.999Z</time></trkpt><trkpt lat="37.95441051445663" lon="15.174127784853479"><ele>1029.4</ele><time>2026-04-28T16:25:28.999Z</time></trkpt><trkpt lat="37.95439288444168" lon="15.173980387034089"><ele>1029.8000000000002</ele><time>2026-04-28T16:25:29.999Z</time></trkpt><trkpt lat="37.954354105489344" lon="15.173895155754277"><ele>1030.1999999999998</ele><time>2026-04-28T16:25:30.999Z</time></trkpt><trkpt lat="37.954226451731756" lon="15.173860481113744"><ele>1030.6</ele><time>2026-04-28T16:25:32.999Z</time></trkpt><trkpt lat="37.95413314887484" lon="15.173864731725066"><ele>1031.0</ele><time>2026-04-28T16:25:33.999Z</time></trkpt><trkpt lat="37.954041409535634" lon="15.17380221187767"><ele>1031.0</ele><time>2026-04-28T16:25:34.999Z</time></trkpt><trkpt lat="37.9539165399798" lon="15.173689551054713"><ele>1031.0</ele><time>2026-04-28T16:25:35.999Z</time></trkpt><trkpt lat="37.95380336280381" lon="15.173610312516209"><ele>1031.0</ele><time>2026-04-28T16:25:36.999Z</time></trkpt><trkpt lat="37.95370291094844" lon="15.17354107592083"><ele>1031.0</ele><time>2026-04-28T16:25:37.999Z</time></trkpt><trkpt lat="37.95360740502128" lon="15.17350133587969"><ele>1031.0</ele><time>2026-04-28T16:25:38.999Z</time></trkpt><trkpt lat="37.953483311685666" lon="15.173505903742749"><ele>1031.0</ele><time>2026-04-28T16:25:39.999Z</time></trkpt><trkpt lat="37.953361207881585" lon="15.173457359455979"><ele>1031.0</ele><time>2026-04-28T16:25:40.999Z</time></trkpt><trkpt lat="37.95327036636109" lon="15.173404425959953"><ele>1031.0</ele><time>2026-04-28T16:25:41.999Z</time></trkpt><trkpt lat="37.95318764990082" lon="15.173335313935493"><ele>1032.3999999999999</ele><time>2026-04-28T16:25:42.999Z</time></trkpt><trkpt lat="37.95310029844754" lon="15.173254980104572"><ele>1033.8</ele><time>2026-04-28T16:25:43.999Z</time></trkpt><trkpt lat="37.95301944197161" lon="15.173170426966296"><ele>1035.1999999999998</ele><time>2026-04-28T16:25:44.999Z</time></trkpt><trkpt lat="37.95290892922656" lon="15.173085008795413"><ele>1036.6</ele><time>2026-04-28T16:25:45.999Z</time></trkpt><trkpt lat="37.95282919542861" lon="15.172997582556658"><ele>1038.0</ele><time>2026-04-28T16:25:47Z</time></trkpt><trkpt lat="37.95275345857706" lon="15.172929032951503"><ele>1038.0</ele><time>2026-04-28T16:25:48Z</time></trkpt><trkpt lat="37.95265465579281" lon="15.17290868562412"><ele>1038.0</ele><time>2026-04-28T16:25:50Z</time></trkpt><trkpt lat="37.952566844819025" lon="15.172960148685862"><ele>1038.0</ele><time>2026-04-28T16:25:51Z</time></trkpt><trkpt lat="37.9524790675289" lon="15.173038841459963"><ele>1038.0</ele><time>2026-04-28T16:25:52Z</time></trkpt><trkpt lat="37.95240237287508" lon="15.173087118629404"><ele>1038.0</ele><time>2026-04-28T16:25:53Z</time></trkpt><trkpt lat="37.95224185191756" lon="15.173086474123135"><ele>1036.2</ele><time>2026-04-28T16:25:55Z</time></trkpt><trkpt lat="37.95212855738568" lon="15.173050792977643"><ele>1034.4</ele><time>2026-04-28T16:25:56Z</time></trkpt><trkpt lat="37.9520435083961" lon="15.172998381530638"><ele>1032.6000000000001</ele><time>2026-04-28T16:25:57Z</time></trkpt><trkpt lat="37.95194825273394" lon="15.17289939343765"><ele>1030.8</ele><time>2026-04-28T16:25:58Z</time></trkpt><trkpt lat="37.951859447439155" lon="15.172844781310003"><ele>1029.0</ele><time>2026-04-28T16:25:59Z</time></trkpt><trkpt lat="37.951753787471475" lon="15.172807906398718"><ele>1026.0</ele><time>2026-04-28T16:26:00Z</time></trkpt><trkpt lat="37.95166314915345" lon="15.172760004421793"><ele>1023.0000000000001</ele><time>2026-04-28T16:26:01Z</time></trkpt><trkpt lat="37.95158035406258" lon="15.172693561212325"><ele>1020.0000000000001</ele><time>2026-04-28T16:26:02Z</time></trkpt><trkpt lat="37.951536337004335" lon="15.172628291170588"><ele>1017.0</ele><time>2026-04-28T16:26:03Z</time></trkpt><trkpt lat="37.95146904227843" lon="15.172515164479638"><ele>1014.0</ele><time>2026-04-28T16:26:04Z</time></trkpt><trkpt lat="37.951420415407824" lon="15.172420390515285"><ele>1015.3333333333334</ele><time>2026-04-28T16:26:05Z</time></trkpt><trkpt lat="37.95137436235123" lon="15.172323149109973"><ele>1016.6666666666667</ele><time>2026-04-28T16:26:06Z</time></trkpt><trkpt lat="37.95134863695073" lon="15.172220139156863"><ele>1018.0</ele><time>2026-04-28T16:26:07Z</time></trkpt><trkpt lat="37.95133005855593" lon="15.172084039665158"><ele>1019.3333333333334</ele><time>2026-04-28T16:26:08Z</time></trkpt><trkpt lat="37.951308691372354" lon="15.1719848191292"><ele>1020.6666666666667</ele><time>2026-04-28T16:26:09Z</time></trkpt><trkpt lat="37.95125872380374" lon="15.171917284446915"><ele>1022.0</ele><time>2026-04-28T16:26:10Z</time></trkpt><trkpt lat="37.95117107126591" lon="15.171853327481895"><ele>1022.0</ele><time>2026-04-28T16:26:11Z</time></trkpt><trkpt lat="37.95107970256751" lon="15.171804323893742"><ele>1022.0</ele><time>2026-04-28T16:26:12Z</time></trkpt><trkpt lat="37.95102942123595" lon="15.171749561680535"><ele>1022.0</ele><time>2026-04-28T16:26:13Z</time></trkpt><trkpt lat="37.95097006328958" lon="15.171695605229656"><ele>1022.0</ele><time>2026-04-28T16:26:14Z</time></trkpt><trkpt lat="37.9509539844545" lon="15.171457355370304"><ele>1022.0</ele><time>2026-04-28T16:26:15Z</time></trkpt><trkpt lat="37.950937458771044" lon="15.171360267352389"><ele>1023.75</ele><time>2026-04-28T16:26:16Z</time></trkpt><trkpt lat="37.95091846880793" lon="15.171255946380358"><ele>1025.5</ele><time>2026-04-28T16:26:17Z</time></trkpt><trkpt lat="37.95091776017406" lon="15.171130927927795"><ele>1027.25</ele><time>2026-04-28T16:26:18Z</time></trkpt><trkpt lat="37.950908707626" lon="15.170977464530653"><ele>1029.0</ele><time>2026-04-28T16:26:19Z</time></trkpt><trkpt lat="37.950871642303625" lon="15.170798656267928"><ele>1023.8333333333334</ele><time>2026-04-28T16:26:20Z</time></trkpt><trkpt lat="37.950830562590525" lon="15.17064127671958"><ele>1018.6666666666667</ele><time>2026-04-28T16:26:21Z</time></trkpt><trkpt lat="37.95079682842985" lon="15.170522648424289"><ele>1013.5</ele><time>2026-04-28T16:26:22Z</time></trkpt><trkpt lat="37.95078085336634" lon="15.170418912962488"><ele>1008.3333333333334</ele><time>2026-04-28T16:26:23Z</time></trkpt><trkpt lat="37.950772550016346" lon="15.170333486335542"><ele>1003.1666666666667</ele><time>2026-04-28T16:26:24Z</time></trkpt><trkpt lat="37.95077436608079" lon="15.170247470505613"><ele>998.0</ele><time>2026-04-28T16:26:25Z</time></trkpt><trkpt lat="37.95078435962938" lon="15.170131993074788"><ele>998.0000000000001</ele><time>2026-04-28T16:26:26Z</time></trkpt><trkpt lat="37.95082026925731" lon="15.170018580494357"><ele>998.0</ele><time>2026-04-28T16:26:27Z</time></trkpt><trkpt lat="37.950824933222876" lon="15.169916490000366"><ele>998.0</ele><time>2026-04-28T16:26:28Z</time></trkpt><trkpt lat="37.95082029368759" lon="15.16982189135889"><ele>998.0</ele><time>2026-04-28T16:26:29Z</time></trkpt><trkpt lat="37.95080209833512" lon="15.169718152101703"><ele>998.0000000000001</ele><time>2026-04-28T16:26:30Z</time></trkpt><trkpt lat="37.95078268384756" lon="15.169600666342095"><ele>998.0</ele><time>2026-04-28T16:26:31Z</time></trkpt><trkpt lat="37.950774553599196" lon="15.169509104926934"><ele>997.4</ele><time>2026-04-28T16:26:32Z</time></trkpt><trkpt lat="37.95074882547649" lon="15.169381060479235"><ele>996.8</ele><time>2026-04-28T16:26:33Z</time></trkpt><trkpt lat="37.95074333043412" lon="15.169521655746681"><ele>996.2</ele><time>2026-04-28T16:26:34Z</time></trkpt><trkpt lat="37.95074660393861" lon="15.169408137131528"><ele>995.6</ele><time>2026-04-28T16:26:35Z</time></trkpt><trkpt lat="37.95075988069773" lon="15.169295490079508"><ele>995.0</ele><time>2026-04-28T16:26:36Z</time></trkpt><trkpt lat="37.950757578839195" lon="15.169189177112848"><ele>995.0</ele><time>2026-04-28T16:26:37Z</time></trkpt><trkpt lat="37.95079300396021" lon="15.169066443437464"><ele>995.0</ele><time>2026-04-28T16:26:38Z</time></trkpt><trkpt lat="37.95082830455581" lon="15.168966437002167"><ele>995.0</ele><time>2026-04-28T16:26:39Z</time></trkpt><trkpt lat="37.950875325103766" lon="15.16885149341174"><ele>995.0</ele><time>2026-04-28T16:26:40Z</time></trkpt><trkpt lat="37.950915476387266" lon="15.16875048176102"><ele>995.0</ele><time>2026-04-28T16:26:41Z</time></trkpt><trkpt lat="37.95094042103906" lon="15.168668786048592"><ele>998.6</ele><time>2026-04-28T16:26:42Z</time></trkpt><trkpt lat="37.95098918473183" lon="15.168584959693343"><ele>1002.2</ele><time>2026-04-28T16:26:43Z</time></trkpt><trkpt lat="37.951047913965375" lon="15.168506492404038"><ele>1005.8</ele><time>2026-04-28T16:26:44Z</time></trkpt><trkpt lat="37.95104678208986" lon="15.168387589215541"><ele>1009.4</ele><time>2026-04-28T16:26:46Z</time></trkpt><trkpt lat="37.95095496331668" lon="15.168266946872835"><ele>1013.0</ele><time>2026-04-28T16:26:48Z</time></trkpt><trkpt lat="37.95087745029904" lon="15.168196841185376"><ele>1006.8</ele><time>2026-04-28T16:26:49Z</time></trkpt><trkpt lat="37.95076666430541" lon="15.168163380844744"><ele>1000.5999999999999</ele><time>2026-04-28T16:26:50Z</time></trkpt><trkpt lat="37.95068401213671" lon="15.168099699746362"><ele>994.4000000000001</ele><time>2026-04-28T16:26:51Z</time></trkpt><trkpt lat="37.95060914993994" lon="15.168036882490629"><ele>988.2</ele><time>2026-04-28T16:26:52Z</time></trkpt><trkpt lat="37.95055404062733" lon="15.16794744610272"><ele>982.0</ele><time>2026-04-28T16:26:53Z</time></trkpt><trkpt lat="37.950514274457326" lon="15.16785313439359"><ele>981.9999999999999</ele><time>2026-04-28T16:26:53.999Z</time></trkpt><trkpt lat="37.950483243041745" lon="15.167772371593781"><ele>982.0</ele><time>2026-04-28T16:26:54.999Z</time></trkpt><trkpt lat="37.95046234717972" lon="15.16769622469075"><ele>982.0</ele><time>2026-04-28T16:26:55.999Z</time></trkpt><trkpt lat="37.95049510259923" lon="15.16756058053678"><ele>982.0</ele><time>2026-04-28T16:26:57.999Z</time></trkpt><trkpt lat="37.950555967259405" lon="15.167523502467075"><ele>981.9999999999999</ele><time>2026-04-28T16:26:58.999Z</time></trkpt><trkpt lat="37.95063358986905" lon="15.16750260381628"><ele>982.0</ele><time>2026-04-28T16:26:59.999Z</time></trkpt><trkpt lat="37.950669780131676" lon="15.16737693879102"><ele>982.9999999999999</ele><time>2026-04-28T16:27:01.999Z</time></trkpt><trkpt lat="37.950626861280426" lon="15.167309154000227"><ele>984.0</ele><time>2026-04-28T16:27:02.999Z</time></trkpt><trkpt lat="37.9505605406405" lon="15.167246598618881"><ele>985.0</ele><time>2026-04-28T16:27:03.999Z</time></trkpt><trkpt lat="37.95049364596736" lon="15.167185415425429"><ele>986.0</ele><time>2026-04-28T16:27:04.999Z</time></trkpt><trkpt lat="37.95042100641441" lon="15.16715115598606"><ele>986.9999999999999</ele><time>2026-04-28T16:27:05.999Z</time></trkpt><trkpt lat="37.95033126780663" lon="15.16711891093304"><ele>988.0</ele><time>2026-04-28T16:27:06.999Z</time></trkpt><trkpt lat="37.950242120303884" lon="15.167082031817126"><ele>987.9999999999999</ele><time>2026-04-28T16:27:07.999Z</time></trkpt><trkpt lat="37.95015636997998" lon="15.1670523862575"><ele>988.0</ele><time>2026-04-28T16:27:08.999Z</time></trkpt><trkpt lat="37.950078288747804" lon="15.167004364762429"><ele>988.0</ele><time>2026-04-28T16:27:09.999Z</time></trkpt><trkpt lat="37.950013276738986" lon="15.166957896837467"><ele>988.0</ele><time>2026-04-28T16:27:10.999Z</time></trkpt><trkpt lat="37.94994482671444" lon="15.166927014095128"><ele>987.9999999999999</ele><time>2026-04-28T16:27:11.999Z</time></trkpt><trkpt lat="37.94986762956388" lon="15.166900102987428"><ele>988.0</ele><time>2026-04-28T16:27:12.999Z</time></trkpt><trkpt lat="37.94977889126864" lon="15.166878141801256"><ele>982.5999999999999</ele><time>2026-04-28T16:27:13.999Z</time></trkpt><trkpt lat="37.94968490276871" lon="15.166855617263627"><ele>977.1999999999999</ele><time>2026-04-28T16:27:14.999Z</time></trkpt><trkpt lat="37.94959029263312" lon="15.166831877039396"><ele>971.8</ele><time>2026-04-28T16:27:15.999Z</time></trkpt><trkpt lat="37.94952443557347" lon="15.16680251958709"><ele>966.4</ele><time>2026-04-28T16:27:16.999Z</time></trkpt><trkpt lat="37.94941454249633" lon="15.166679750571472"><ele>961.0</ele><time>2026-04-28T16:27:18.999Z</time></trkpt><trkpt lat="37.949365523000125" lon="15.16659149538059"><ele>963.3333333333333</ele><time>2026-04-28T16:27:19.999Z</time></trkpt><trkpt lat="37.9493131636649" lon="15.166515833062498"><ele>965.6666666666666</ele><time>2026-04-28T16:27:20.999Z</time></trkpt><trkpt lat="37.94925545903551" lon="15.166452466804103"><ele>968.0</ele><time>2026-04-28T16:27:21.999Z</time></trkpt><trkpt lat="37.94918110202683" lon="15.166402241424613"><ele>970.3333333333333</ele><time>2026-04-28T16:27:22.999Z</time></trkpt><trkpt lat="37.949108540058354" lon="15.166347760832831"><ele>972.6666666666666</ele><time>2026-04-28T16:27:23.999Z</time></trkpt><trkpt lat="37.94905204348208" lon="15.16626434155996"><ele>975.0</ele><time>2026-04-28T16:27:24.999Z</time></trkpt><trkpt lat="37.949014059784936" lon="15.166178771691758"><ele>969.6666666666666</ele><time>2026-04-28T16:27:25.999Z</time></trkpt><trkpt lat="37.948978581414224" lon="15.166091840761322"><ele>964.3333333333333</ele><time>2026-04-28T16:27:26.999Z</time></trkpt><trkpt lat="37.94893139622526" lon="15.166003483347678"><ele>959.0</ele><time>2026-04-28T16:27:27.999Z</time></trkpt><trkpt lat="37.948885305550206" lon="15.165915650403742"><ele>953.6666666666666</ele><time>2026-04-28T16:27:28.999Z</time></trkpt><trkpt lat="37.9488521206952" lon="15.16581871623306"><ele>948.3333333333333</ele><time>2026-04-28T16:27:29.999Z</time></trkpt><trkpt lat="37.948826691329636" lon="15.16571851436424"><ele>943.0</ele><time>2026-04-28T16:27:30.999Z</time></trkpt><trkpt lat="37.948809562324435" lon="15.165619095778284"><ele>941.6666666666666</ele><time>2026-04-28T16:27:31.999Z</time></trkpt><trkpt lat="37.948783976430526" lon="15.165515103731204"><ele>940.3333333333333</ele><time>2026-04-28T16:27:32.999Z</time></trkpt><trkpt lat="37.94875635399892" lon="15.165424622196227"><ele>939.0</ele><time>2026-04-28T16:27:33.999Z</time></trkpt><trkpt lat="37.94874049874209" lon="15.165335037461066"><ele>937.6666666666667</ele><time>2026-04-28T16:27:34.999Z</time></trkpt><trkpt lat="37.948773817566085" lon="15.165192649990368"><ele>936.3333333333334</ele><time>2026-04-28T16:27:36.999Z</time></trkpt><trkpt lat="37.94884087479826" lon="15.165127529607558"><ele>935.0</ele><time>2026-04-28T16:27:37.999Z</time></trkpt><trkpt lat="37.948878660023006" lon="15.165005657845917"><ele>935.0</ele><time>2026-04-28T16:27:39.999Z</time></trkpt><trkpt lat="37.94884927419902" lon="15.164912931331017"><ele>935.0</ele><time>2026-04-28T16:27:40.999Z</time></trkpt><trkpt lat="37.94883630639341" lon="15.16482658325092"><ele>935.0</ele><time>2026-04-28T16:27:41.999Z</time></trkpt><trkpt lat="37.94893449370603" lon="15.164718757980186"><ele>935.0</ele><time>2026-04-28T16:27:43.999Z</time></trkpt><trkpt lat="37.9490342264081" lon="15.164696894653241"><ele>935.0</ele><time>2026-04-28T16:27:44.999Z</time></trkpt><trkpt lat="37.949124378055764" lon="15.16465458192968"><ele>937.0000000000001</ele><time>2026-04-28T16:27:45.999Z</time></trkpt><trkpt lat="37.94918578150158" lon="15.164564948888998"><ele>939.0</ele><time>2026-04-28T16:27:46.999Z</time></trkpt><trkpt lat="37.94923125386806" lon="15.164460486369588"><ele>941.0</ele><time>2026-04-28T16:27:47.999Z</time></trkpt><trkpt lat="37.94926244267842" lon="15.164368304104059"><ele>943.0</ele><time>2026-04-28T16:27:48.999Z</time></trkpt><trkpt lat="37.94928909834205" lon="15.164293955181655"><ele>945.0000000000001</ele><time>2026-04-28T16:27:49.999Z</time></trkpt><trkpt lat="37.94928442357917" lon="15.164213372999983"><ele>947.0</ele><time>2026-04-28T16:27:50.999Z</time></trkpt><trkpt lat="37.949217124320214" lon="15.164102832619898"><ele>941.25</ele><time>2026-04-28T16:27:53Z</time></trkpt><trkpt lat="37.94909936520169" lon="15.163900901583391"><ele>935.5</ele><time>2026-04-28T16:27:54Z</time></trkpt><trkpt lat="37.94903452384204" lon="15.163773677981956"><ele>929.75</ele><time>2026-04-28T16:27:55Z</time></trkpt><trkpt lat="37.94901153919213" lon="15.163662325105152"><ele>924.0</ele><time>2026-04-28T16:27:56Z</time></trkpt><trkpt lat="37.94901139831827" lon="15.163533531955734"><ele>924.0</ele><time>2026-04-28T16:27:57Z</time></trkpt><trkpt lat="37.9489864929803" lon="15.16342670862152"><ele>924.0000000000001</ele><time>2026-04-28T16:27:58Z</time></trkpt><trkpt lat="37.94893772805901" lon="15.163361869548746"><ele>924.0000000000001</ele><time>2026-04-28T16:27:59Z</time></trkpt><trkpt lat="37.94883893744784" lon="15.163276861820838"><ele>924.0</ele><time>2026-04-28T16:28:00Z</time></trkpt><trkpt lat="37.94874461402015" lon="15.163168414498244"><ele>924.0</ele><time>2026-04-28T16:28:01Z</time></trkpt><trkpt lat="37.9486727171476" lon="15.16307357150352"><ele>926.8000000000001</ele><time>2026-04-28T16:28:02Z</time></trkpt><trkpt lat="37.948598983721425" lon="15.162977697373783"><ele>929.6000000000001</ele><time>2026-04-28T16:28:03Z</time></trkpt><trkpt lat="37.94858138725722" lon="15.162882773216893"><ele>932.4</ele><time>2026-04-28T16:28:04Z</time></trkpt><trkpt lat="37.94855998144345" lon="15.162752730263856"><ele>935.2</ele><time>2026-04-28T16:28:05Z</time></trkpt><trkpt lat="37.94847883371994" lon="15.162654372254295"><ele>938.0</ele><time>2026-04-28T16:28:06Z</time></trkpt><trkpt lat="37.94836107588859" lon="15.162573229357823"><ele>934.8333333333334</ele><time>2026-04-28T16:28:07Z</time></trkpt><trkpt lat="37.948259683347544" lon="15.162490328364647"><ele>931.6666666666667</ele><time>2026-04-28T16:28:08Z</time></trkpt><trkpt lat="37.94821167269663" lon="15.162435175522521"><ele>928.5</ele><time>2026-04-28T16:28:09Z</time></trkpt><trkpt lat="37.94816214295687" lon="15.16235202200966"><ele>925.3333333333333</ele><time>2026-04-28T16:28:10Z</time></trkpt><trkpt lat="37.948133196368445" lon="15.16227236822853"><ele>922.1666666666666</ele><time>2026-04-28T16:28:11Z</time></trkpt><trkpt lat="37.948096199361146" lon="15.16216589183599"><ele>919.0</ele><time>2026-04-28T16:28:12Z</time></trkpt><trkpt lat="37.94807735029161" lon="15.162079518016359"><ele>919.0</ele><time>2026-04-28T16:28:13Z</time></trkpt><trkpt lat="37.94802923041927" lon="15.161998183160753"><ele>918.9999999999999</ele><time>2026-04-28T16:28:14Z</time></trkpt><trkpt lat="37.94796755592687" lon="15.161957566944363"><ele>919.0</ele><time>2026-04-28T16:28:15Z</time></trkpt><trkpt lat="37.947898797030795" lon="15.161971863029235"><ele>919.0</ele><time>2026-04-28T16:28:16Z</time></trkpt><trkpt lat="37.94783324222763" lon="15.1619416507144"><ele>918.9999999999999</ele><time>2026-04-28T16:28:17Z</time></trkpt><trkpt lat="37.94778422153834" lon="15.161869541758929"><ele>919.0</ele><time>2026-04-28T16:28:18Z</time></trkpt><trkpt lat="37.94777489519097" lon="15.161768031170347"><ele>919.0</ele><time>2026-04-28T16:28:19Z</time></trkpt><trkpt lat="37.94775168271841" lon="15.161656242534365"><ele>918.9999999999999</ele><time>2026-04-28T16:28:20Z</time></trkpt><trkpt lat="37.947722192788675" lon="15.161565618009204"><ele>919.0</ele><time>2026-04-28T16:28:21Z</time></trkpt><trkpt lat="37.947689198191526" lon="15.161468116966462"><ele>919.0</ele><time>2026-04-28T16:28:22Z</time></trkpt><trkpt lat="37.94766252793694" lon="15.161381779429874"><ele>919.0</ele><time>2026-04-28T16:28:23Z</time></trkpt><trkpt lat="37.947641162172104" lon="15.161275546727278"><ele>918.9999999999999</ele><time>2026-04-28T16:28:24Z</time></trkpt><trkpt lat="37.94762642725237" lon="15.161171439851296"><ele>919.0</ele><time>2026-04-28T16:28:25Z</time></trkpt><trkpt lat="37.94759433524559" lon="15.161077179513933"><ele>917.2</ele><time>2026-04-28T16:28:26Z</time></trkpt><trkpt lat="37.94754614157904" lon="15.160933129145553"><ele>915.4000000000001</ele><time>2026-04-28T16:28:28Z</time></trkpt><trkpt lat="37.94749245956425" lon="15.1608416165566"><ele>913.6</ele><time>2026-04-28T16:28:30Z</time></trkpt><trkpt lat="37.947406323182896" lon="15.160881495824588"><ele>911.8</ele><time>2026-04-28T16:28:32Z</time></trkpt><trkpt lat="37.94738905359179" lon="15.160967596248996"><ele>910.0</ele><time>2026-04-28T16:28:33Z</time></trkpt><trkpt lat="37.947406550441386" lon="15.161092568316306"><ele>911.8</ele><time>2026-04-28T16:28:34Z</time></trkpt><trkpt lat="37.94744931326714" lon="15.161238530309054"><ele>913.6</ele><time>2026-04-28T16:28:35Z</time></trkpt><trkpt lat="37.94748687831581" lon="15.161387603264838"><ele>915.4000000000001</ele><time>2026-04-28T16:28:36Z</time></trkpt><trkpt lat="37.947516397046506" lon="15.161490048807682"><ele>917.2</ele><time>2026-04-28T16:28:37Z</time></trkpt><trkpt lat="37.9475468511446" lon="15.161560591926518"><ele>919.0</ele><time>2026-04-28T16:28:38Z</time></trkpt><trkpt lat="37.9475786208016" lon="15.161641290191902"><ele>918.9999999999999</ele><time>2026-04-28T16:28:39Z</time></trkpt><trkpt lat="37.947581974685335" lon="15.161769467859255"><ele>919.0</ele><time>2026-04-28T16:28:40Z</time></trkpt><trkpt lat="37.94756811647016" lon="15.161880386437737"><ele>919.0</ele><time>2026-04-28T16:28:41Z</time></trkpt><trkpt lat="37.94754763689095" lon="15.161998127059675"><ele>919.0</ele><time>2026-04-28T16:28:42Z</time></trkpt><trkpt lat="37.94752328309744" lon="15.162100286258964"><ele>918.9999999999999</ele><time>2026-04-28T16:28:43Z</time></trkpt><trkpt lat="37.94751968931623" lon="15.162197246283045"><ele>919.0</ele><time>2026-04-28T16:28:44Z</time></trkpt><trkpt lat="37.94757623014656" lon="15.162280887077689"><ele>919.0</ele><time>2026-04-28T16:28:45Z</time></trkpt><trkpt lat="37.94766095905258" lon="15.162360559617516"><ele>919.0000000000001</ele><time>2026-04-28T16:28:46Z</time></trkpt><trkpt lat="37.94771475295745" lon="15.162433814090788"><ele>919.0000000000001</ele><time>2026-04-28T16:28:47Z</time></trkpt><trkpt lat="37.94773094685753" lon="15.162584099098508"><ele>919.0</ele><time>2026-04-28T16:28:49Z</time></trkpt><trkpt lat="37.94772435604003" lon="15.162712811036537"><ele>919.0</ele><time>2026-04-28T16:28:50Z</time></trkpt><trkpt lat="37.947709664149514" lon="15.162828853530907"><ele>917.3333333333333</ele><time>2026-04-28T16:28:51Z</time></trkpt><trkpt lat="37.947712950351686" lon="15.162913830181898"><ele>915.6666666666666</ele><time>2026-04-28T16:28:52Z</time></trkpt><trkpt lat="37.9476293106485" lon="15.162983348299175"><ele>914.0</ele><time>2026-04-28T16:28:54Z</time></trkpt><trkpt lat="37.947554536905194" lon="15.163050849002666"><ele>912.3333333333333</ele><time>2026-04-28T16:28:55Z</time></trkpt><trkpt lat="37.947514345105674" lon="15.163143534715"><ele>910.6666666666666</ele><time>2026-04-28T16:28:56Z</time></trkpt><trkpt lat="37.94750109620446" lon="15.163245924379748"><ele>909.0</ele><time>2026-04-28T16:28:57Z</time></trkpt><trkpt lat="37.947512954383726" lon="15.163330220780809"><ele>903.6666666666666</ele><time>2026-04-28T16:28:58Z</time></trkpt><trkpt lat="37.947523980369034" lon="15.16342537005904"><ele>898.3333333333333</ele><time>2026-04-28T16:28:59.999Z</time></trkpt><trkpt lat="37.94743040703863" lon="15.163479887780326"><ele>893.0</ele><time>2026-04-28T16:29:01.999Z</time></trkpt><trkpt lat="37.94734826729326" lon="15.163405426150742"><ele>887.6666666666666</ele><time>2026-04-28T16:29:03.999Z</time></trkpt><trkpt lat="37.94733981708338" lon="15.16331713082151"><ele>882.3333333333333</ele><time>2026-04-28T16:29:04.999Z</time></trkpt><trkpt lat="37.94734578874792" lon="15.163220584659468"><ele>877.0</ele><time>2026-04-28T16:29:05.999Z</time></trkpt><trkpt lat="37.94734147413946" lon="15.16310459898233"><ele>876.9999999999999</ele><time>2026-04-28T16:29:06.999Z</time></trkpt><trkpt lat="37.947352666141086" lon="15.162999658090149"><ele>877.0</ele><time>2026-04-28T16:29:07.999Z</time></trkpt><trkpt lat="37.94738783983849" lon="15.162890407288192"><ele>877.0</ele><time>2026-04-28T16:29:08.999Z</time></trkpt><trkpt lat="37.94740835110388" lon="15.16278281152118"><ele>877.0</ele><time>2026-04-28T16:29:09.999Z</time></trkpt><trkpt lat="37.94741298024103" lon="15.162692675612474"><ele>876.9999999999999</ele><time>2026-04-28T16:29:10.999Z</time></trkpt><trkpt lat="37.94733753092565" lon="15.16258575650058"><ele>877.0</ele><time>2026-04-28T16:29:12.999Z</time></trkpt><trkpt lat="37.94726501692246" lon="15.162542941706551"><ele>876.9999999999999</ele><time>2026-04-28T16:29:13.999Z</time></trkpt><trkpt lat="37.947193832682096" lon="15.162492286364715"><ele>877.0</ele><time>2026-04-28T16:29:14.999Z</time></trkpt><trkpt lat="37.94714451083915" lon="15.162405200468104"><ele>877.0</ele><time>2026-04-28T16:29:15.999Z</time></trkpt><trkpt lat="37.94711801793793" lon="15.16231341435518"><ele>877.0</ele><time>2026-04-28T16:29:16.999Z</time></trkpt><trkpt lat="37.94710337416164" lon="15.16220892617873"><ele>876.9999999999999</ele><time>2026-04-28T16:29:17.999Z</time></trkpt><trkpt lat="37.9471018704258" lon="15.16211516768935"><ele>877.0</ele><time>2026-04-28T16:29:18.999Z</time></trkpt><trkpt lat="37.94710511959232" lon="15.16200541379322"><ele>877.9999999999999</ele><time>2026-04-28T16:29:19.999Z</time></trkpt><trkpt lat="37.947075931675094" lon="15.161917040543429"><ele>879.0</ele><time>2026-04-28T16:29:20.999Z</time></trkpt><trkpt lat="37.94702315785408" lon="15.16182812539277"><ele>880.0</ele><time>2026-04-28T16:29:21.999Z</time></trkpt><trkpt lat="37.946974036909324" lon="15.161744303733721"><ele>881.0</ele><time>2026-04-28T16:29:22.999Z</time></trkpt><trkpt lat="37.94692281890016" lon="15.161615564103373"><ele>881.9999999999999</ele><time>2026-04-28T16:29:23.999Z</time></trkpt><trkpt lat="37.94685863081581" lon="15.16153698960362"><ele>883.0</ele><time>2026-04-28T16:29:24.999Z</time></trkpt><trkpt lat="37.94678427018898" lon="15.161442762414522"><ele>883.0</ele><time>2026-04-28T16:29:25.999Z</time></trkpt><trkpt lat="37.946729976949065" lon="15.161347813233988"><ele>883.0</ele><time>2026-04-28T16:29:26.999Z</time></trkpt><trkpt lat="37.94667636704948" lon="15.161254691576561"><ele>883.0</ele><time>2026-04-28T16:29:27.999Z</time></trkpt><trkpt lat="37.94664779426411" lon="15.161164440587935"><ele>883.0</ele><time>2026-04-28T16:29:28.999Z</time></trkpt><trkpt lat="37.94666345702505" lon="15.160999416898166"><ele>883.0</ele><time>2026-04-28T16:29:30.999Z</time></trkpt><trkpt lat="37.94667970543414" lon="15.160917300338571"><ele>878.9999999999999</ele><time>2026-04-28T16:29:31.999Z</time></trkpt><trkpt lat="37.94661471239585" lon="15.160804251847564"><ele>875.0</ele><time>2026-04-28T16:29:33.999Z</time></trkpt><trkpt lat="37.94653825961784" lon="15.160787994653708"><ele>871.0</ele><time>2026-04-28T16:29:34.999Z</time></trkpt><trkpt lat="37.946455480531235" lon="15.160800371631138"><ele>867.0</ele><time>2026-04-28T16:29:35.999Z</time></trkpt><trkpt lat="37.94637447469062" lon="15.160820966797923"><ele>862.9999999999999</ele><time>2026-04-28T16:29:36.999Z</time></trkpt><trkpt lat="37.94630139665145" lon="15.160812536547501"><ele>859.0</ele><time>2026-04-28T16:29:37.999Z</time></trkpt><trkpt lat="37.946246593392836" lon="15.160744757702478"><ele>858.6</ele><time>2026-04-28T16:29:38.999Z</time></trkpt><trkpt lat="37.94619813126573" lon="15.16064819863496"><ele>858.2</ele><time>2026-04-28T16:29:39.999Z</time></trkpt><trkpt lat="37.94612787321543" lon="15.160551776847823"><ele>857.8000000000001</ele><time>2026-04-28T16:29:40.999Z</time></trkpt><trkpt lat="37.946044801994034" lon="15.160551732464125"><ele>857.4000000000001</ele><time>2026-04-28T16:29:41.999Z</time></trkpt><trkpt lat="37.94596836767402" lon="15.160479440016267"><ele>857.0</ele><time>2026-04-28T16:29:42.999Z</time></trkpt><trkpt lat="37.94590074968691" lon="15.16037891311657"><ele>853.6</ele><time>2026-04-28T16:29:43.999Z</time></trkpt><trkpt lat="37.94587490222354" lon="15.16022257560455"><ele>850.2</ele><time>2026-04-28T16:29:44.999Z</time></trkpt><trkpt lat="37.945839437904496" lon="15.160091519343682"><ele>846.8</ele><time>2026-04-28T16:29:45.999Z</time></trkpt><trkpt lat="37.94578929995124" lon="15.159981473887944"><ele>843.4</ele><time>2026-04-28T16:29:46.999Z</time></trkpt><trkpt lat="37.94575492109277" lon="15.159908208770748"><ele>840.0</ele><time>2026-04-28T16:29:47.999Z</time></trkpt><trkpt lat="37.94569485055847" lon="15.15981397847845"><ele>840.0</ele><time>2026-04-28T16:29:48.999Z</time></trkpt><trkpt lat="37.945630055685584" lon="15.159752370119552"><ele>840.0</ele><time>2026-04-28T16:29:49.999Z</time></trkpt><trkpt lat="37.94555570741522" lon="15.15967942711641"><ele>840.0</ele><time>2026-04-28T16:29:50.999Z</time></trkpt><trkpt lat="37.94547864840792" lon="15.159621822128331"><ele>840.0</ele><time>2026-04-28T16:29:51.999Z</time></trkpt><trkpt lat="37.94539067598829" lon="15.15955100611316"><ele>840.0</ele><time>2026-04-28T16:29:52.999Z</time></trkpt><trkpt lat="37.94529726753301" lon="15.159474605484814"><ele>840.0</ele><time>2026-04-28T16:29:53.999Z</time></trkpt><trkpt lat="37.94520831410699" lon="15.159399645456979"><ele>840.0</ele><time>2026-04-28T16:29:54.999Z</time></trkpt><trkpt lat="37.94511881463" lon="15.159353777662584"><ele>840.0</ele><time>2026-04-28T16:29:55.999Z</time></trkpt><trkpt lat="37.94504364261975" lon="15.159317967381064"><ele>840.0</ele><time>2026-04-28T16:29:56.999Z</time></trkpt><trkpt lat="37.94498263991149" lon="15.15929813484583"><ele>840.0</ele><time>2026-04-28T16:29:57.999Z</time></trkpt><trkpt lat="37.944920556944545" lon="15.159262375391057"><ele>840.0</ele><time>2026-04-28T16:29:59Z</time></trkpt><trkpt lat="37.94488664376711" lon="15.159190900185962"><ele>838.0</ele><time>2026-04-28T16:30:00Z</time></trkpt><trkpt lat="37.94486452963904" lon="15.159084540302892"><ele>836.0</ele><time>2026-04-28T16:30:01Z</time></trkpt><trkpt lat="37.9448513807702" lon="15.158994578217468"><ele>834.0</ele><time>2026-04-28T16:30:02Z</time></trkpt><trkpt lat="37.94483641617902" lon="15.158902179752268"><ele>832.0</ele><time>2026-04-28T16:30:03Z</time></trkpt><trkpt lat="37.9447786231135" lon="15.158834130559072"><ele>830.0</ele><time>2026-04-28T16:30:04Z</time></trkpt><trkpt lat="37.94470393709231" lon="15.158760900769341"><ele>828.0</ele><time>2026-04-28T16:30:05Z</time></trkpt><trkpt lat="37.944615597351756" lon="15.158696661862296"><ele>828.0</ele><time>2026-04-28T16:30:06Z</time></trkpt><trkpt lat="37.94453739595454" lon="15.158633256522336"><ele>828.0</ele><time>2026-04-28T16:30:07Z</time></trkpt><trkpt lat="37.94446124381636" lon="15.158563540399443"><ele>828.0</ele><time>2026-04-28T16:30:08Z</time></trkpt><trkpt lat="37.9444077638745" lon="15.158485524312932"><ele>828.0</ele><time>2026-04-28T16:30:09Z</time></trkpt><trkpt lat="37.94435073556351" lon="15.158404699059716"><ele>828.0</ele><time>2026-04-28T16:30:10Z</time></trkpt><trkpt lat="37.94430205271843" lon="15.158324426601718"><ele>828.0</ele><time>2026-04-28T16:30:11Z</time></trkpt><trkpt lat="37.94427951710253" lon="15.15824828447343"><ele>824.5</ele><time>2026-04-28T16:30:12Z</time></trkpt><trkpt lat="37.944277976590136" lon="15.158147700865086"><ele>821.0</ele><time>2026-04-28T16:30:13Z</time></trkpt><trkpt lat="37.94427914768725" lon="15.158043836014588"><ele>817.5</ele><time>2026-04-28T16:30:14Z</time></trkpt><trkpt lat="37.944216616744235" lon="15.157953405516261"><ele>814.0</ele><time>2026-04-28T16:30:16Z</time></trkpt><trkpt lat="37.944130128151" lon="15.157907838473685"><ele>810.5</ele><time>2026-04-28T16:30:17Z</time></trkpt><trkpt lat="37.94404191651891" lon="15.157879062103309"><ele>807.0</ele><time>2026-04-28T16:30:18Z</time></trkpt><trkpt lat="37.94395590310274" lon="15.157825552819453"><ele>806.6666666666666</ele><time>2026-04-28T16:30:20Z</time></trkpt><trkpt lat="37.94392547698261" lon="15.157739552514794"><ele>806.3333333333333</ele><time>2026-04-28T16:30:23Z</time></trkpt><trkpt lat="37.94391710775454" lon="15.15765665322855"><ele>806.0</ele><time>2026-04-28T16:32:32Z</time></trkpt><trkpt lat="37.94388655614969" lon="15.157542961473839"><ele>805.6666666666666</ele><time>2026-04-28T16:32:34Z</time></trkpt><trkpt lat="37.94387695471988" lon="15.157436757056562"><ele>805.3333333333333</ele><time>2026-04-28T16:32:36Z</time></trkpt><trkpt lat="37.943814248278215" lon="15.157428925640255"><ele>805.0</ele><time>2026-04-28T16:32:38Z</time></trkpt><trkpt lat="37.94378582829238" lon="15.15755039062613"><ele>805.0</ele><time>2026-04-28T16:32:40Z</time></trkpt><trkpt lat="37.94382633808324" lon="15.15778043481435"><ele>805.0</ele><time>2026-04-28T16:32:59Z</time></trkpt><trkpt lat="37.94383882245317" lon="15.157876870039928"><ele>805.0</ele><time>2026-04-28T16:33:00Z</time></trkpt><trkpt lat="37.94391665013698" lon="15.157991170277544"><ele>805.0</ele><time>2026-04-28T16:33:02Z</time></trkpt><trkpt lat="37.943977076110926" lon="15.158018206800605"><ele>805.0</ele><time>2026-04-28T16:33:03Z</time></trkpt><trkpt lat="37.94401704298138" lon="15.158122287190954"><ele>804.4999999999999</ele><time>2026-04-28T16:33:05Z</time></trkpt><trkpt lat="37.94399519079974" lon="15.158216637222434"><ele>804.0</ele><time>2026-04-28T16:33:06Z</time></trkpt><trkpt lat="37.943971787197384" lon="15.158311256546405"><ele>803.5</ele><time>2026-04-28T16:33:07Z</time></trkpt><trkpt lat="37.943979484061394" lon="15.158409388127962"><ele>803.0</ele><time>2026-04-28T16:33:08Z</time></trkpt><trkpt lat="37.944019150924845" lon="15.158512121787016"><ele>802.4999999999999</ele><time>2026-04-28T16:33:09Z</time></trkpt><trkpt lat="37.94406705322567" lon="15.158587273809925"><ele>802.0</ele><time>2026-04-28T16:33:11Z</time></trkpt><trkpt lat="37.94398936020282" lon="15.15862150998489"><ele>802.0</ele><time>2026-04-28T16:33:13.999Z</time></trkpt><trkpt lat="37.943943104201814" lon="15.158563383737812"><ele>802.0</ele><time>2026-04-28T16:33:15.999Z</time></trkpt><trkpt lat="37.943874978731465" lon="15.158461707211499"><ele>802.0</ele><time>2026-04-28T16:33:17.999Z</time></trkpt><trkpt lat="37.94382910872011" lon="15.158351821297087"><ele>802.0</ele><time>2026-04-28T16:33:18.999Z</time></trkpt><trkpt lat="37.94380430554297" lon="15.158254119495608"><ele>802.0</ele><time>2026-04-28T16:33:19.999Z</time></trkpt><trkpt lat="37.94370926540373" lon="15.158158510531768"><ele>802.6</ele><time>2026-04-28T16:33:21.999Z</time></trkpt><trkpt lat="37.94363088641554" lon="15.158132007199523"><ele>803.2</ele><time>2026-04-28T16:33:22.999Z</time></trkpt><trkpt lat="37.94355947927726" lon="15.158116470245952"><ele>803.8</ele><time>2026-04-28T16:33:23.999Z</time></trkpt><trkpt lat="37.94345723276106" lon="15.157996210234389"><ele>804.4</ele><time>2026-04-28T16:33:25.999Z</time></trkpt><trkpt lat="37.943402365907765" lon="15.157891445042239"><ele>805.0</ele><time>2026-04-28T16:33:26.999Z</time></trkpt><trkpt lat="37.94334280524774" lon="15.157833681746977"><ele>800.6666666666666</ele><time>2026-04-28T16:33:27.999Z</time></trkpt><trkpt lat="37.943284289406186" lon="15.157799831174447"><ele>796.3333333333333</ele><time>2026-04-28T16:33:28.999Z</time></trkpt><trkpt lat="37.94322746128291" lon="15.157746872427985"><ele>792.0</ele><time>2026-04-28T16:33:29.999Z</time></trkpt><trkpt lat="37.94319662074138" lon="15.157648696077695"><ele>787.6666666666667</ele><time>2026-04-28T16:33:30.999Z</time></trkpt><trkpt lat="37.943189626514545" lon="15.157517822899639"><ele>783.3333333333334</ele><time>2026-04-28T16:33:31.999Z</time></trkpt><trkpt lat="37.943185184663676" lon="15.15739383619873"><ele>779.0</ele><time>2026-04-28T16:33:32.999Z</time></trkpt><trkpt lat="37.94317619245191" lon="15.15729228526798"><ele>778.4000000000001</ele><time>2026-04-28T16:33:33.999Z</time></trkpt><trkpt lat="37.94317248603599" lon="15.157186005639913"><ele>777.8</ele><time>2026-04-28T16:33:34.999Z</time></trkpt><trkpt lat="37.94318297346684" lon="15.157091041228558"><ele>777.2</ele><time>2026-04-28T16:33:35.999Z</time></trkpt><trkpt lat="37.94311857456265" lon="15.156972086136797"><ele>776.5999999999999</ele><time>2026-04-28T16:33:37.999Z</time></trkpt><trkpt lat="37.943035559467255" lon="15.156904125130481"><ele>776.0</ele><time>2026-04-28T16:33:38.999Z</time></trkpt><trkpt lat="37.942958703093886" lon="15.156845853839975"><ele>776.0000000000001</ele><time>2026-04-28T16:33:39.999Z</time></trkpt><trkpt lat="37.94289569244949" lon="15.156785661835745"><ele>776.0</ele><time>2026-04-28T16:33:40.999Z</time></trkpt><trkpt lat="37.94284171705641" lon="15.156701894844153"><ele>776.0</ele><time>2026-04-28T16:33:41.999Z</time></trkpt><trkpt lat="37.94279243526546" lon="15.15659980248512"><ele>776.0</ele><time>2026-04-28T16:33:42.999Z</time></trkpt><trkpt lat="37.942734751483805" lon="15.156515484150146"><ele>776.0000000000001</ele><time>2026-04-28T16:33:43.999Z</time></trkpt><trkpt lat="37.942662040984395" lon="15.156452862718671"><ele>776.0</ele><time>2026-04-28T16:33:44.999Z</time></trkpt><trkpt lat="37.94256866794997" lon="15.156406113273547"><ele>771.1999999999999</ele><time>2026-04-28T16:33:45.999Z</time></trkpt><trkpt lat="37.942463214454385" lon="15.156368981287583"><ele>766.4</ele><time>2026-04-28T16:33:46.999Z</time></trkpt><trkpt lat="37.94236745650859" lon="15.156338698621802"><ele>761.6</ele><time>2026-04-28T16:33:47.999Z</time></trkpt><trkpt lat="37.94226113432252" lon="15.156297166830552"><ele>756.8</ele><time>2026-04-28T16:33:48.999Z</time></trkpt><trkpt lat="37.94217278013456" lon="15.156265375730285"><ele>752.0</ele><time>2026-04-28T16:33:49.999Z</time></trkpt><trkpt lat="37.9421172543381" lon="15.156226038767374"><ele>752.0</ele><time>2026-04-28T16:33:50.999Z</time></trkpt><trkpt lat="37.94202191639759" lon="15.15616553748406"><ele>752.0</ele><time>2026-04-28T16:33:51.999Z</time></trkpt><trkpt lat="37.94192299321825" lon="15.156084594240216"><ele>752.0</ele><time>2026-04-28T16:33:52.999Z</time></trkpt><trkpt lat="37.941838449031586" lon="15.156018233379688"><ele>752.0</ele><time>2026-04-28T16:33:53.999Z</time></trkpt><trkpt lat="37.94176489489889" lon="15.155975037832519"><ele>752.0</ele><time>2026-04-28T16:33:54.999Z</time></trkpt><trkpt lat="37.9416932965067" lon="15.155931061376261"><ele>750.0</ele><time>2026-04-28T16:33:55.999Z</time></trkpt><trkpt lat="37.94163513628708" lon="15.155860412922902"><ele>748.0</ele><time>2026-04-28T16:33:56.999Z</time></trkpt><trkpt lat="37.94159825890274" lon="15.155776411352505"><ele>746.0</ele><time>2026-04-28T16:33:57.999Z</time></trkpt><trkpt lat="37.94155238434094" lon="15.155674211539473"><ele>744.0</ele><time>2026-04-28T16:33:58.999Z</time></trkpt><trkpt lat="37.94150656100049" lon="15.15561305488369"><ele>742.0</ele><time>2026-04-28T16:33:59.999Z</time></trkpt><trkpt lat="37.94142909897195" lon="15.15555568985293"><ele>740.0</ele><time>2026-04-28T16:34:00.999Z</time></trkpt><trkpt lat="37.941343050805926" lon="15.155489591886617"><ele>736.6</ele><time>2026-04-28T16:34:01.999Z</time></trkpt><trkpt lat="37.94124907344033" lon="15.155410606673701"><ele>733.2</ele><time>2026-04-28T16:34:02.999Z</time></trkpt><trkpt lat="37.94115678704847" lon="15.155348238621503"><ele>729.8</ele><time>2026-04-28T16:34:03.999Z</time></trkpt><trkpt lat="37.941065796619405" lon="15.15530418857659"><ele>726.4</ele><time>2026-04-28T16:34:04.999Z</time></trkpt><trkpt lat="37.940975437096526" lon="15.155276723595339"><ele>723.0</ele><time>2026-04-28T16:34:05.999Z</time></trkpt><trkpt lat="37.940885413468365" lon="15.155253489044753"><ele>723.0</ele><time>2026-04-28T16:34:06.999Z</time></trkpt><trkpt lat="37.94081743835717" lon="15.155242916469295"><ele>723.0</ele><time>2026-04-28T16:34:07.999Z</time></trkpt><trkpt lat="37.94075910461218" lon="15.155167734819601"><ele>723.0</ele><time>2026-04-28T16:34:09.999Z</time></trkpt><trkpt lat="37.940760453695034" lon="15.155032340140595"><ele>723.0</ele><time>2026-04-28T16:34:12Z</time></trkpt><trkpt lat="37.94081737505608" lon="15.154956567994313"><ele>723.0</ele><time>2026-04-28T16:34:14Z</time></trkpt><trkpt lat="37.94090714316173" lon="15.154938392232706"><ele>723.0</ele><time>2026-04-28T16:34:16Z</time></trkpt><trkpt lat="37.94099549475478" lon="15.154929343030075"><ele>723.0</ele><time>2026-04-28T16:34:17Z</time></trkpt><trkpt lat="37.94108618997466" lon="15.154917851843168"><ele>723.0</ele><time>2026-04-28T16:34:18Z</time></trkpt><trkpt lat="37.94119170962103" lon="15.154933776697506"><ele>723.0</ele><time>2026-04-28T16:34:20Z</time></trkpt><trkpt lat="37.941275834138814" lon="15.154980011185206"><ele>723.0</ele><time>2026-04-28T16:34:21Z</time></trkpt><trkpt lat="37.94137515175693" lon="15.155015245489015"><ele>723.0</ele><time>2026-04-28T16:34:22Z</time></trkpt><trkpt lat="37.94145434247054" lon="15.155023868579052"><ele>723.0</ele><time>2026-04-28T16:34:23Z</time></trkpt><trkpt lat="37.94153062958472" lon="15.155019504076364"><ele>723.0</ele><time>2026-04-28T16:34:24Z</time></trkpt><trkpt lat="37.941602414694664" lon="15.155019331381679"><ele>723.0</ele><time>2026-04-28T16:34:25Z</time></trkpt><trkpt lat="37.94167327769095" lon="15.154987070157322"><ele>723.0</ele><time>2026-04-28T16:34:28Z</time></trkpt><trkpt lat="37.941606823034334" lon="15.154912294542642"><ele>723.0</ele><time>2026-04-28T16:34:30Z</time></trkpt><trkpt lat="37.94153323400427" lon="15.154892430631085"><ele>723.0</ele><time>2026-04-28T16:34:31Z</time></trkpt><trkpt lat="37.94146442692012" lon="15.154860639542425"><ele>719.1428571428572</ele><time>2026-04-28T16:34:32Z</time></trkpt><trkpt lat="37.9414122622137" lon="15.154805876244673"><ele>715.2857142857143</ele><time>2026-04-28T16:34:33Z</time></trkpt><trkpt lat="37.94135751755232" lon="15.154755437780452"><ele>711.4285714285714</ele><time>2026-04-28T16:34:34Z</time></trkpt><trkpt lat="37.94129678859023" lon="15.154717402045492"><ele>707.5714285714287</ele><time>2026-04-28T16:34:35Z</time></trkpt><trkpt lat="37.94123192152854" lon="15.154702858072188"><ele>703.7142857142858</ele><time>2026-04-28T16:34:36Z</time></trkpt><trkpt lat="37.94116311177497" lon="15.154678563201278"><ele>699.8571428571429</ele><time>2026-04-28T16:34:37Z</time></trkpt><trkpt lat="37.9410900897481" lon="15.154639277736361"><ele>696.0</ele><time>2026-04-28T16:34:38Z</time></trkpt><trkpt lat="37.94103016955407" lon="15.154568277555699"><ele>696.0</ele><time>2026-04-28T16:34:39Z</time></trkpt><trkpt lat="37.940975775290596" lon="15.154505239432272"><ele>696.0</ele><time>2026-04-28T16:34:40Z</time></trkpt><trkpt lat="37.94092565668282" lon="15.154456664923325"><ele>696.0</ele><time>2026-04-28T16:34:41Z</time></trkpt><trkpt lat="37.94081698688976" lon="15.154431097294149"><ele>696.0</ele><time>2026-04-28T16:34:43Z</time></trkpt><trkpt lat="37.94072820107113" lon="15.154455353354916"><ele>696.0</ele><time>2026-04-28T16:34:45Z</time></trkpt><trkpt lat="37.940729851493245" lon="15.154350842335816"><ele>696.0</ele><time>2026-04-28T16:34:48Z</time></trkpt><trkpt lat="37.94080154025544" lon="15.154325726649015"><ele>696.0</ele><time>2026-04-28T16:34:50Z</time></trkpt><trkpt lat="37.940946058370585" lon="15.154330508984934"><ele>696.0</ele><time>2026-04-28T16:34:52Z</time></trkpt><trkpt lat="37.941015788647086" lon="15.154329305302669"><ele>696.0</ele><time>2026-04-28T16:34:53Z</time></trkpt><trkpt lat="37.94113550204373" lon="15.154421835066323"><ele>696.0</ele><time>2026-04-28T16:34:55Z</time></trkpt><trkpt lat="37.941216102958606" lon="15.154467280227754"><ele>696.0</ele><time>2026-04-28T16:34:56Z</time></trkpt><trkpt lat="37.94129521987461" lon="15.154477486814585"><ele>696.0</ele><time>2026-04-28T16:34:57Z</time></trkpt><trkpt lat="37.94136366809605" lon="15.154446309880628"><ele>696.0</ele><time>2026-04-28T16:34:58Z</time></trkpt><trkpt lat="37.94143353975247" lon="15.154387115914707"><ele>696.0</ele><time>2026-04-28T16:34:59Z</time></trkpt><trkpt lat="37.941524102480365" lon="15.154322601839263"><ele>696.0</ele><time>2026-04-28T16:35:00Z</time></trkpt><trkpt lat="37.94161225086201" lon="15.154305971589325"><ele>696.0</ele><time>2026-04-28T16:35:01Z</time></trkpt><trkpt lat="37.94167517216105" lon="15.154288681540931"><ele>696.0</ele><time>2026-04-28T16:35:02Z</time></trkpt><trkpt lat="37.941713162441374" lon="15.154165734414747"><ele>696.0</ele><time>2026-04-28T16:35:04Z</time></trkpt><trkpt lat="37.94170116037666" lon="15.154082897199192"><ele>696.0</ele><time>2026-04-28T16:35:05Z</time></trkpt><trkpt lat="37.94174398105601" lon="15.154012124403874"><ele>696.0</ele><time>2026-04-28T16:35:07Z</time></trkpt><trkpt lat="37.94185755283712" lon="15.15409106263262"><ele>696.0</ele><time>2026-04-28T16:35:09Z</time></trkpt><trkpt lat="37.94194351606533" lon="15.154133941353514"><ele>696.0</ele><time>2026-04-28T16:35:10Z</time></trkpt><trkpt lat="37.94201591365387" lon="15.15412940228298"><ele>696.0</ele><time>2026-04-28T16:35:11Z</time></trkpt><trkpt lat="37.942072394900435" lon="15.154023097485664"><ele>694.1666666666666</ele><time>2026-04-28T16:35:13Z</time></trkpt><trkpt lat="37.94205763525629" lon="15.153944428929428"><ele>692.3333333333334</ele><time>2026-04-28T16:35:13.999Z</time></trkpt><trkpt lat="37.942015708388006" lon="15.153854093523053"><ele>690.5</ele><time>2026-04-28T16:35:14.999Z</time></trkpt><trkpt lat="37.94199277124499" lon="15.153767430378279"><ele>688.6666666666667</ele><time>2026-04-28T16:35:15.999Z</time></trkpt><trkpt lat="37.94199344675613" lon="15.153669874138233"><ele>686.8333333333334</ele><time>2026-04-28T16:35:16.999Z</time></trkpt><trkpt lat="37.9419804541974" lon="15.153563001176195"><ele>685.0</ele><time>2026-04-28T16:35:17.999Z</time></trkpt><trkpt lat="37.94195643421865" lon="15.153469425170673"><ele>685.0</ele><time>2026-04-28T16:35:18.999Z</time></trkpt><trkpt lat="37.94196744609583" lon="15.153387492993149"><ele>685.0</ele><time>2026-04-28T16:35:19.999Z</time></trkpt><trkpt lat="37.94198644003444" lon="15.153276378641127"><ele>685.0</ele><time>2026-04-28T16:35:20.999Z</time></trkpt><trkpt lat="37.94199654925048" lon="15.153144737601114"><ele>685.0</ele><time>2026-04-28T16:35:21.999Z</time></trkpt><trkpt lat="37.94198190924289" lon="15.153066578614396"><ele>685.0</ele><time>2026-04-28T16:35:22.999Z</time></trkpt><trkpt lat="37.94201312904272" lon="15.152978836931858"><ele>685.0</ele><time>2026-04-28T16:35:24.999Z</time></trkpt><trkpt lat="37.942090906813384" lon="15.152923389922222"><ele>681.8</ele><time>2026-04-28T16:35:25.999Z</time></trkpt><trkpt lat="37.94216610490618" lon="15.15285347218382"><ele>678.6</ele><time>2026-04-28T16:35:26.999Z</time></trkpt><trkpt lat="37.9422351711562" lon="15.152771675939277"><ele>675.4000000000001</ele><time>2026-04-28T16:35:27.999Z</time></trkpt><trkpt lat="37.942283218203194" lon="15.152709190548585"><ele>672.2</ele><time>2026-04-28T16:35:28.999Z</time></trkpt><trkpt lat="37.942309416746355" lon="15.152563493787042"><ele>669.0</ele><time>2026-04-28T16:35:30.999Z</time></trkpt><trkpt lat="37.94229386220126" lon="15.152444689603474"><ele>666.4000000000001</ele><time>2026-04-28T16:35:32.999Z</time></trkpt><trkpt lat="37.942368811847096" lon="15.152365727445153"><ele>663.8</ele><time>2026-04-28T16:35:34.999Z</time></trkpt><trkpt lat="37.94248643047818" lon="15.15236687221591"><ele>661.2</ele><time>2026-04-28T16:35:36.999Z</time></trkpt><trkpt lat="37.94256855997336" lon="15.152374516416423"><ele>658.5999999999999</ele><time>2026-04-28T16:35:37.999Z</time></trkpt><trkpt lat="37.94263292889305" lon="15.152393784301463"><ele>656.0</ele><time>2026-04-28T16:35:38.999Z</time></trkpt><trkpt lat="37.942726266441774" lon="15.152489682411971"><ele>656.0</ele><time>2026-04-28T16:35:40.999Z</time></trkpt><trkpt lat="37.9427966618725" lon="15.152425832406761"><ele>656.0</ele><time>2026-04-28T16:35:42.999Z</time></trkpt><trkpt lat="37.94273750085119" lon="15.152305572636743"><ele>656.0</ele><time>2026-04-28T16:35:44.999Z</time></trkpt><trkpt lat="37.94266598131849" lon="15.152283903043696"><ele>656.0</ele><time>2026-04-28T16:35:45.999Z</time></trkpt><trkpt lat="37.94259946605293" lon="15.152277038996283"><ele>656.0</ele><time>2026-04-28T16:35:46.999Z</time></trkpt><trkpt lat="37.94250411990197" lon="15.152152922865866"><ele>654.3333333333333</ele><time>2026-04-28T16:35:48.999Z</time></trkpt><trkpt lat="37.942460029281534" lon="15.152047995895224"><ele>652.6666666666666</ele><time>2026-04-28T16:35:49.999Z</time></trkpt><trkpt lat="37.94244234960816" lon="15.151952982013128"><ele>651.0</ele><time>2026-04-28T16:35:50.999Z</time></trkpt><trkpt lat="37.94241879448841" lon="15.151838385920238"><ele>649.3333333333334</ele><time>2026-04-28T16:35:51.999Z</time></trkpt><trkpt lat="37.94239491552525" lon="15.151750749852244"><ele>647.6666666666667</ele><time>2026-04-28T16:35:52.999Z</time></trkpt><trkpt lat="37.942361655646856" lon="15.151662401743272"><ele>646.0</ele><time>2026-04-28T16:35:53.999Z</time></trkpt><trkpt lat="37.94230299845813" lon="15.151572325533694"><ele>642.0</ele><time>2026-04-28T16:35:54.999Z</time></trkpt><trkpt lat="37.942246144707475" lon="15.151493574322433"><ele>638.0</ele><time>2026-04-28T16:35:55.999Z</time></trkpt><trkpt lat="37.94220522386166" lon="15.151427114487557"><ele>634.0</ele><time>2026-04-28T16:35:56.999Z</time></trkpt><trkpt lat="37.942155224705566" lon="15.151271245049413"><ele>630.0</ele><time>2026-04-28T16:35:58.999Z</time></trkpt><trkpt lat="37.94214765599709" lon="15.151183740828014"><ele>626.0</ele><time>2026-04-28T16:35:59.999Z</time></trkpt><trkpt lat="37.94218509569391" lon="15.151034121295329"><ele>626.0</ele><time>2026-04-28T16:36:01.999Z</time></trkpt><trkpt lat="37.94220234517521" lon="15.1509451568137"><ele>626.0</ele><time>2026-04-28T16:36:02.999Z</time></trkpt><trkpt lat="37.942119988176344" lon="15.150834682598774"><ele>626.0</ele><time>2026-04-28T16:36:04.999Z</time></trkpt><trkpt lat="37.94204004585372" lon="15.150846277635909"><ele>626.0</ele><time>2026-04-28T16:36:05.999Z</time></trkpt><trkpt lat="37.94195379104532" lon="15.150888758212188"><ele>626.0</ele><time>2026-04-28T16:36:06.999Z</time></trkpt><trkpt lat="37.94187377678471" lon="15.150881165640765"><ele>626.0</ele><time>2026-04-28T16:36:08.999Z</time></trkpt><trkpt lat="37.9418853926869" lon="15.150722840042976"><ele>622.8333333333333</ele><time>2026-04-28T16:36:10.999Z</time></trkpt><trkpt lat="37.94193066071827" lon="15.150635163913945"><ele>619.6666666666666</ele><time>2026-04-28T16:36:11.999Z</time></trkpt><trkpt lat="37.94199737045398" lon="15.150552571233215"><ele>616.5</ele><time>2026-04-28T16:36:12.999Z</time></trkpt><trkpt lat="37.94202240548967" lon="15.15042942071315"><ele>613.3333333333334</ele><time>2026-04-28T16:36:14.999Z</time></trkpt><trkpt lat="37.941963556359006" lon="15.150391160675891"><ele>610.1666666666667</ele><time>2026-04-28T16:36:15.999Z</time></trkpt><trkpt lat="37.9418817414481" lon="15.150382892185334"><ele>607.0</ele><time>2026-04-28T16:36:17Z</time></trkpt><trkpt lat="37.94180746682492" lon="15.150407062593162"><ele>607.0</ele><time>2026-04-28T16:36:18Z</time></trkpt><trkpt lat="37.94174766460443" lon="15.150443931404766"><ele>607.0</ele><time>2026-04-28T16:36:19Z</time></trkpt><trkpt lat="37.941679679254634" lon="15.150415212365246"><ele>607.0</ele><time>2026-04-28T16:36:21Z</time></trkpt><trkpt lat="37.94172480120572" lon="15.150279793409378"><ele>607.0</ele><time>2026-04-28T16:36:23Z</time></trkpt><trkpt lat="37.94178442091399" lon="15.150212508959676"><ele>607.0</ele><time>2026-04-28T16:36:24Z</time></trkpt><trkpt lat="37.941849570055574" lon="15.150137639267449"><ele>607.0</ele><time>2026-04-28T16:36:25Z</time></trkpt><trkpt lat="37.94188838377929" lon="15.150057214427251"><ele>607.0</ele><time>2026-04-28T16:36:26Z</time></trkpt><trkpt lat="37.94188168185185" lon="15.14990801226414"><ele>607.0</ele><time>2026-04-28T16:36:28Z</time></trkpt><trkpt lat="37.94190377580712" lon="15.14983073813199"><ele>607.0</ele><time>2026-04-28T16:36:29Z</time></trkpt><trkpt lat="37.94194538048933" lon="15.149759110985578"><ele>607.0</ele><time>2026-04-28T16:36:30Z</time></trkpt><trkpt lat="37.941977943683334" lon="15.149685465039704"><ele>607.0</ele><time>2026-04-28T16:36:31Z</time></trkpt><trkpt lat="37.94197823730282" lon="15.149575230435637"><ele>607.0</ele><time>2026-04-28T16:36:33Z</time></trkpt><trkpt lat="37.94189678078021" lon="15.14950109761769"><ele>605.8333333333334</ele><time>2026-04-28T16:36:35Z</time></trkpt><trkpt lat="37.94180147107106" lon="15.149558007181101"><ele>604.6666666666667</ele><time>2026-04-28T16:36:37Z</time></trkpt><trkpt lat="37.94176713298001" lon="15.149639147838558"><ele>603.5</ele><time>2026-04-28T16:36:38Z</time></trkpt><trkpt lat="37.941737457176174" lon="15.149732317988269"><ele>602.3333333333334</ele><time>2026-04-28T16:36:39Z</time></trkpt><trkpt lat="37.941689638988876" lon="15.1498115967"><ele>601.1666666666666</ele><time>2026-04-28T16:36:40Z</time></trkpt><trkpt lat="37.941633363554224" lon="15.14985603932424"><ele>600.0</ele><time>2026-04-28T16:36:41Z</time></trkpt><trkpt lat="37.94156545666083" lon="15.149874921124967"><ele>600.0</ele><time>2026-04-28T16:36:42Z</time></trkpt><trkpt lat="37.94149252084515" lon="15.149871142775682"><ele>600.0</ele><time>2026-04-28T16:36:43Z</time></trkpt><trkpt lat="37.941417695109195" lon="15.149865585926214"><ele>600.0</ele><time>2026-04-28T16:36:44Z</time></trkpt><trkpt lat="37.941320864311635" lon="15.149875492665068"><ele>600.0</ele><time>2026-04-28T16:36:45Z</time></trkpt><trkpt lat="37.94125118370737" lon="15.149908488055386"><ele>600.0</ele><time>2026-04-28T16:36:46Z</time></trkpt><trkpt lat="37.94119016363219" lon="15.14997469112807"><ele>600.0</ele><time>2026-04-28T16:36:47Z</time></trkpt><trkpt lat="37.94113140732489" lon="15.150046201213138"><ele>599.8333333333334</ele><time>2026-04-28T16:36:48Z</time></trkpt><trkpt lat="37.941081754606195" lon="15.150097144254453"><ele>599.6666666666666</ele><time>2026-04-28T16:36:49Z</time></trkpt><trkpt lat="37.94098206957963" lon="15.150123682189593"><ele>599.5</ele><time>2026-04-28T16:36:51Z</time></trkpt><trkpt lat="37.9409124796314" lon="15.15009318332143"><ele>599.3333333333333</ele><time>2026-04-28T16:36:52Z</time></trkpt><trkpt lat="37.940838499447786" lon="15.150029654432375"><ele>599.1666666666666</ele><time>2026-04-28T16:36:53Z</time></trkpt><trkpt lat="37.940779332913934" lon="15.14995946310169"><ele>599.0</ele><time>2026-04-28T16:36:54Z</time></trkpt><trkpt lat="37.940743361196155" lon="15.149833599666904"><ele>599.25</ele><time>2026-04-28T16:36:56Z</time></trkpt><trkpt lat="37.94082885486433" lon="15.149719472534333"><ele>599.5</ele><time>2026-04-28T16:36:58Z</time></trkpt><trkpt lat="37.9409201010959" lon="15.149650881618568"><ele>599.75</ele><time>2026-04-28T16:36:59Z</time></trkpt><trkpt lat="37.94101781305772" lon="15.149567889879625"><ele>600.0</ele><time>2026-04-28T16:37:00Z</time></trkpt><trkpt lat="37.94110145517742" lon="15.149480197280583"><ele>600.0</ele><time>2026-04-28T16:37:01Z</time></trkpt><trkpt lat="37.941170748790896" lon="15.149405851265808"><ele>600.0</ele><time>2026-04-28T16:37:02Z</time></trkpt><trkpt lat="37.94122255267818" lon="15.149345738002062"><ele>600.0</ele><time>2026-04-28T16:37:03Z</time></trkpt><trkpt lat="37.94126350216244" lon="15.149273212800901"><ele>600.0</ele><time>2026-04-28T16:37:04Z</time></trkpt></trkseg></trk></gpx>